<?xml version='1.0' encoding='UTF-8' standalone='yes' ?>
<gpx xmlns="http://www.topografix.com/GPX/1/1" xmlns:geotracker="http://ilyabogdanovich.com/gpx/extensions/geotracker" xmlns:xsi="http://www.w3.org/2001/XMLSchema-instance" xsi:schemaLocation="http://www.topografix.com/GPX/1/1 http://www.topografix.com/GPX/1/1/gpx.xsd" version="1.1" creator="Enregistré par Geo Tracker pour Android de Ilya Bogdanovich">
  <metadata>
    <name>Binon-9Kms3</name>
    <time>2022-06-09T07:21:27Z</time>
  </metadata>
  <trk>
    <name>Binon-9Kms3</name>
    <extensions>
      <geotracker:meta>
        <geotracker:length>9313.12</geotracker:length>
        <geotracker:duration>8107000</geotracker:duration>
        <geotracker:creationtime>2022-06-09T07:21:27Z</geotracker:creationtime>
        <geotracker:activity>0</geotracker:activity>
      </geotracker:meta>
    </extensions>
    <trkseg>
      <trkpt lat="47.56068" lon="2.254856">
        <ele>178</ele>
        <time>2022-06-09T07:21:27Z</time>
      </trkpt>
      <trkpt lat="47.56068" lon="2.2548535">
        <ele>178</ele>
        <time>2022-06-09T07:21:29Z</time>
      </trkpt>
      <trkpt lat="47.56068" lon="2.2548537">
        <ele>178</ele>
        <time>2022-06-09T07:21:30Z</time>
      </trkpt>
      <trkpt lat="47.56068" lon="2.2548537">
        <ele>178</ele>
        <time>2022-06-09T07:21:31Z</time>
      </trkpt>
      <trkpt lat="47.56068" lon="2.254854">
        <ele>178</ele>
        <time>2022-06-09T07:21:32Z</time>
      </trkpt>
      <trkpt lat="47.56068" lon="2.254854">
        <ele>178</ele>
        <time>2022-06-09T07:21:33Z</time>
      </trkpt>
      <trkpt lat="47.56068" lon="2.254854">
        <ele>178</ele>
        <time>2022-06-09T07:21:34Z</time>
      </trkpt>
      <trkpt lat="47.56068" lon="2.254854">
        <ele>178</ele>
        <time>2022-06-09T07:21:35Z</time>
      </trkpt>
      <trkpt lat="47.56068" lon="2.254854">
        <ele>178</ele>
        <time>2022-06-09T07:21:36Z</time>
      </trkpt>
      <trkpt lat="47.560688" lon="2.2548423">
        <ele>178</ele>
        <time>2022-06-09T07:21:37Z</time>
      </trkpt>
      <trkpt lat="47.560696" lon="2.2548323">
        <ele>178</ele>
        <time>2022-06-09T07:21:38Z</time>
      </trkpt>
      <trkpt lat="47.560707" lon="2.254821">
        <ele>178</ele>
        <time>2022-06-09T07:21:39Z</time>
      </trkpt>
      <trkpt lat="47.560726" lon="2.2548032">
        <ele>178</ele>
        <time>2022-06-09T07:21:41Z</time>
      </trkpt>
      <trkpt lat="47.560745" lon="2.2547967">
        <ele>178</ele>
        <time>2022-06-09T07:21:43Z</time>
      </trkpt>
      <trkpt lat="47.560764" lon="2.2547965">
        <ele>178</ele>
        <time>2022-06-09T07:21:45Z</time>
      </trkpt>
      <trkpt lat="47.560772" lon="2.2547984">
        <ele>178</ele>
        <time>2022-06-09T07:21:46Z</time>
      </trkpt>
      <trkpt lat="47.560783" lon="2.2547936">
        <ele>178</ele>
        <time>2022-06-09T07:21:47Z</time>
      </trkpt>
      <trkpt lat="47.560795" lon="2.2547922">
        <ele>178</ele>
        <time>2022-06-09T07:21:48Z</time>
      </trkpt>
      <trkpt lat="47.560802" lon="2.2547882">
        <ele>178</ele>
        <time>2022-06-09T07:21:49Z</time>
      </trkpt>
      <trkpt lat="47.560814" lon="2.254779">
        <ele>177</ele>
        <time>2022-06-09T07:21:51Z</time>
      </trkpt>
      <trkpt lat="47.560814" lon="2.254785">
        <ele>177</ele>
        <time>2022-06-09T07:21:52Z</time>
      </trkpt>
      <trkpt lat="47.560814" lon="2.2547858">
        <ele>177</ele>
        <time>2022-06-09T07:21:53Z</time>
      </trkpt>
      <trkpt lat="47.560814" lon="2.2547858">
        <ele>177</ele>
        <time>2022-06-09T07:21:53Z</time>
      </trkpt>
      <trkpt lat="47.560814" lon="2.2547858">
        <ele>177</ele>
        <time>2022-06-09T07:21:53Z</time>
      </trkpt>
      <trkpt lat="47.560852" lon="2.2547908">
        <ele>177</ele>
        <time>2022-06-09T07:22:04Z</time>
      </trkpt>
      <trkpt lat="47.560863" lon="2.2547948">
        <ele>177</ele>
        <time>2022-06-09T07:22:05Z</time>
      </trkpt>
      <trkpt lat="47.560875" lon="2.254798">
        <ele>178</ele>
        <time>2022-06-09T07:22:06Z</time>
      </trkpt>
      <trkpt lat="47.560883" lon="2.2547991">
        <ele>178</ele>
        <time>2022-06-09T07:22:07Z</time>
      </trkpt>
      <trkpt lat="47.56088" lon="2.2547963">
        <ele>178</ele>
        <time>2022-06-09T07:22:08Z</time>
      </trkpt>
      <trkpt lat="47.560883" lon="2.2547827">
        <ele>178</ele>
        <time>2022-06-09T07:22:09Z</time>
      </trkpt>
      <trkpt lat="47.560894" lon="2.2547805">
        <ele>178</ele>
        <time>2022-06-09T07:22:10Z</time>
      </trkpt>
      <trkpt lat="47.560905" lon="2.2547798">
        <ele>178</ele>
        <time>2022-06-09T07:22:11Z</time>
      </trkpt>
      <trkpt lat="47.560917" lon="2.2547753">
        <ele>178</ele>
        <time>2022-06-09T07:22:12Z</time>
      </trkpt>
      <trkpt lat="47.560932" lon="2.2547796">
        <ele>178</ele>
        <time>2022-06-09T07:22:13Z</time>
      </trkpt>
      <trkpt lat="47.56094" lon="2.2547796">
        <ele>178</ele>
        <time>2022-06-09T07:22:14Z</time>
      </trkpt>
      <trkpt lat="47.560963" lon="2.254778">
        <ele>179</ele>
        <time>2022-06-09T07:22:16Z</time>
      </trkpt>
      <trkpt lat="47.56098" lon="2.2547762">
        <ele>179</ele>
        <time>2022-06-09T07:22:18Z</time>
      </trkpt>
      <trkpt lat="47.561005" lon="2.2547774">
        <ele>180</ele>
        <time>2022-06-09T07:22:20Z</time>
      </trkpt>
      <trkpt lat="47.56103" lon="2.254769">
        <ele>180</ele>
        <time>2022-06-09T07:22:22Z</time>
      </trkpt>
      <trkpt lat="47.561047" lon="2.2547512">
        <ele>180</ele>
        <time>2022-06-09T07:22:24Z</time>
      </trkpt>
      <trkpt lat="47.561058" lon="2.254745">
        <ele>181</ele>
        <time>2022-06-09T07:22:25Z</time>
      </trkpt>
      <trkpt lat="47.561073" lon="2.2547297">
        <ele>180</ele>
        <time>2022-06-09T07:22:27Z</time>
      </trkpt>
      <trkpt lat="47.561085" lon="2.2547162">
        <ele>180</ele>
        <time>2022-06-09T07:22:28Z</time>
      </trkpt>
      <trkpt lat="47.561092" lon="2.2546985">
        <ele>180</ele>
        <time>2022-06-09T07:22:29Z</time>
      </trkpt>
      <trkpt lat="47.5611" lon="2.2546813">
        <ele>180</ele>
        <time>2022-06-09T07:22:30Z</time>
      </trkpt>
      <trkpt lat="47.561115" lon="2.254647">
        <ele>180</ele>
        <time>2022-06-09T07:22:32Z</time>
      </trkpt>
      <trkpt lat="47.56112" lon="2.2546072">
        <ele>180</ele>
        <time>2022-06-09T07:22:34Z</time>
      </trkpt>
      <trkpt lat="47.56112" lon="2.2545638">
        <ele>180</ele>
        <time>2022-06-09T07:22:36Z</time>
      </trkpt>
      <trkpt lat="47.56112" lon="2.2545474">
        <ele>180</ele>
        <time>2022-06-09T07:22:37Z</time>
      </trkpt>
      <trkpt lat="47.56112" lon="2.254528">
        <ele>180</ele>
        <time>2022-06-09T07:22:38Z</time>
      </trkpt>
      <trkpt lat="47.561115" lon="2.2545085">
        <ele>180</ele>
        <time>2022-06-09T07:22:39Z</time>
      </trkpt>
      <trkpt lat="47.561108" lon="2.2544897">
        <ele>180</ele>
        <time>2022-06-09T07:22:40Z</time>
      </trkpt>
      <trkpt lat="47.561104" lon="2.2544723">
        <ele>180</ele>
        <time>2022-06-09T07:22:41Z</time>
      </trkpt>
      <trkpt lat="47.5611" lon="2.254457">
        <ele>179</ele>
        <time>2022-06-09T07:22:42Z</time>
      </trkpt>
      <trkpt lat="47.561092" lon="2.2544405">
        <ele>179</ele>
        <time>2022-06-09T07:22:43Z</time>
      </trkpt>
      <trkpt lat="47.56109" lon="2.2544227">
        <ele>179</ele>
        <time>2022-06-09T07:22:44Z</time>
      </trkpt>
      <trkpt lat="47.56108" lon="2.2544024">
        <ele>179</ele>
        <time>2022-06-09T07:22:45Z</time>
      </trkpt>
      <trkpt lat="47.561077" lon="2.254382">
        <ele>179</ele>
        <time>2022-06-09T07:22:46Z</time>
      </trkpt>
      <trkpt lat="47.561073" lon="2.254362">
        <ele>180</ele>
        <time>2022-06-09T07:22:47Z</time>
      </trkpt>
      <trkpt lat="47.56107" lon="2.25434">
        <ele>180</ele>
        <time>2022-06-09T07:22:48Z</time>
      </trkpt>
      <trkpt lat="47.561066" lon="2.2543232">
        <ele>180</ele>
        <time>2022-06-09T07:22:49Z</time>
      </trkpt>
      <trkpt lat="47.561058" lon="2.2543104">
        <ele>180</ele>
        <time>2022-06-09T07:22:50Z</time>
      </trkpt>
      <trkpt lat="47.561047" lon="2.2542949">
        <ele>180</ele>
        <time>2022-06-09T07:22:51Z</time>
      </trkpt>
      <trkpt lat="47.561035" lon="2.2542782">
        <ele>180</ele>
        <time>2022-06-09T07:22:52Z</time>
      </trkpt>
      <trkpt lat="47.561024" lon="2.2542624">
        <ele>179</ele>
        <time>2022-06-09T07:22:53Z</time>
      </trkpt>
      <trkpt lat="47.561016" lon="2.2542453">
        <ele>180</ele>
        <time>2022-06-09T07:22:54Z</time>
      </trkpt>
      <trkpt lat="47.561005" lon="2.254231">
        <ele>180</ele>
        <time>2022-06-09T07:22:55Z</time>
      </trkpt>
      <trkpt lat="47.560997" lon="2.2542167">
        <ele>180</ele>
        <time>2022-06-09T07:22:56Z</time>
      </trkpt>
      <trkpt lat="47.56099" lon="2.254201">
        <ele>180</ele>
        <time>2022-06-09T07:22:57Z</time>
      </trkpt>
      <trkpt lat="47.56098" lon="2.2541873">
        <ele>180</ele>
        <time>2022-06-09T07:22:58Z</time>
      </trkpt>
      <trkpt lat="47.560974" lon="2.2541754">
        <ele>180</ele>
        <time>2022-06-09T07:22:59Z</time>
      </trkpt>
      <trkpt lat="47.560966" lon="2.2541568">
        <ele>180</ele>
        <time>2022-06-09T07:23:00Z</time>
      </trkpt>
      <trkpt lat="47.56096" lon="2.2541406">
        <ele>179</ele>
        <time>2022-06-09T07:23:01Z</time>
      </trkpt>
      <trkpt lat="47.560947" lon="2.2541227">
        <ele>179</ele>
        <time>2022-06-09T07:23:02Z</time>
      </trkpt>
      <trkpt lat="47.56094" lon="2.2541063">
        <ele>179</ele>
        <time>2022-06-09T07:23:03Z</time>
      </trkpt>
      <trkpt lat="47.560936" lon="2.2540889">
        <ele>179</ele>
        <time>2022-06-09T07:23:04Z</time>
      </trkpt>
      <trkpt lat="47.56093" lon="2.2540712">
        <ele>179</ele>
        <time>2022-06-09T07:23:05Z</time>
      </trkpt>
      <trkpt lat="47.560913" lon="2.2540529">
        <ele>179</ele>
        <time>2022-06-09T07:23:06Z</time>
      </trkpt>
      <trkpt lat="47.560905" lon="2.2540333">
        <ele>179</ele>
        <time>2022-06-09T07:23:07Z</time>
      </trkpt>
      <trkpt lat="47.560894" lon="2.2540145">
        <ele>179</ele>
        <time>2022-06-09T07:23:08Z</time>
      </trkpt>
      <trkpt lat="47.560886" lon="2.253996">
        <ele>179</ele>
        <time>2022-06-09T07:23:09Z</time>
      </trkpt>
      <trkpt lat="47.56088" lon="2.2539833">
        <ele>179</ele>
        <time>2022-06-09T07:23:10Z</time>
      </trkpt>
      <trkpt lat="47.560875" lon="2.2539697">
        <ele>179</ele>
        <time>2022-06-09T07:23:11Z</time>
      </trkpt>
      <trkpt lat="47.560863" lon="2.2539542">
        <ele>179</ele>
        <time>2022-06-09T07:23:12Z</time>
      </trkpt>
      <trkpt lat="47.56086" lon="2.2539375">
        <ele>180</ele>
        <time>2022-06-09T07:23:13Z</time>
      </trkpt>
      <trkpt lat="47.560852" lon="2.2539225">
        <ele>180</ele>
        <time>2022-06-09T07:23:14Z</time>
      </trkpt>
      <trkpt lat="47.560852" lon="2.2539113">
        <ele>179</ele>
        <time>2022-06-09T07:23:15Z</time>
      </trkpt>
      <trkpt lat="47.56085" lon="2.2539034">
        <ele>178</ele>
        <time>2022-06-09T07:23:16Z</time>
      </trkpt>
      <trkpt lat="47.56084" lon="2.2538967">
        <ele>178</ele>
        <time>2022-06-09T07:23:17Z</time>
      </trkpt>
      <trkpt lat="47.560833" lon="2.2538862">
        <ele>178</ele>
        <time>2022-06-09T07:23:18Z</time>
      </trkpt>
      <trkpt lat="47.56082" lon="2.253876">
        <ele>177</ele>
        <time>2022-06-09T07:23:19Z</time>
      </trkpt>
      <trkpt lat="47.560818" lon="2.2538662">
        <ele>177</ele>
        <time>2022-06-09T07:23:20Z</time>
      </trkpt>
      <trkpt lat="47.560814" lon="2.253851">
        <ele>177</ele>
        <time>2022-06-09T07:23:21Z</time>
      </trkpt>
      <trkpt lat="47.56081" lon="2.253834">
        <ele>177</ele>
        <time>2022-06-09T07:23:22Z</time>
      </trkpt>
      <trkpt lat="47.560802" lon="2.2538142">
        <ele>178</ele>
        <time>2022-06-09T07:23:23Z</time>
      </trkpt>
      <trkpt lat="47.56079" lon="2.2537956">
        <ele>178</ele>
        <time>2022-06-09T07:23:24Z</time>
      </trkpt>
      <trkpt lat="47.56078" lon="2.2537754">
        <ele>178</ele>
        <time>2022-06-09T07:23:25Z</time>
      </trkpt>
      <trkpt lat="47.56076" lon="2.2537353">
        <ele>178</ele>
        <time>2022-06-09T07:23:27Z</time>
      </trkpt>
      <trkpt lat="47.560757" lon="2.253716">
        <ele>178</ele>
        <time>2022-06-09T07:23:28Z</time>
      </trkpt>
      <trkpt lat="47.56075" lon="2.2536957">
        <ele>177</ele>
        <time>2022-06-09T07:23:29Z</time>
      </trkpt>
      <trkpt lat="47.560745" lon="2.2536795">
        <ele>177</ele>
        <time>2022-06-09T07:23:30Z</time>
      </trkpt>
      <trkpt lat="47.560734" lon="2.2536666">
        <ele>177</ele>
        <time>2022-06-09T07:23:31Z</time>
      </trkpt>
      <trkpt lat="47.560722" lon="2.2536538">
        <ele>178</ele>
        <time>2022-06-09T07:23:32Z</time>
      </trkpt>
      <trkpt lat="47.560715" lon="2.2536383">
        <ele>178</ele>
        <time>2022-06-09T07:23:33Z</time>
      </trkpt>
      <trkpt lat="47.560707" lon="2.2536247">
        <ele>178</ele>
        <time>2022-06-09T07:23:34Z</time>
      </trkpt>
      <trkpt lat="47.5607" lon="2.253613">
        <ele>178</ele>
        <time>2022-06-09T07:23:35Z</time>
      </trkpt>
      <trkpt lat="47.560684" lon="2.2535956">
        <ele>178</ele>
        <time>2022-06-09T07:23:36Z</time>
      </trkpt>
      <trkpt lat="47.56067" lon="2.2535722">
        <ele>178</ele>
        <time>2022-06-09T07:23:37Z</time>
      </trkpt>
      <trkpt lat="47.560654" lon="2.2535532">
        <ele>177</ele>
        <time>2022-06-09T07:23:38Z</time>
      </trkpt>
      <trkpt lat="47.560642" lon="2.253532">
        <ele>177</ele>
        <time>2022-06-09T07:23:39Z</time>
      </trkpt>
      <trkpt lat="47.560635" lon="2.2535083">
        <ele>177</ele>
        <time>2022-06-09T07:23:40Z</time>
      </trkpt>
      <trkpt lat="47.560627" lon="2.2534864">
        <ele>177</ele>
        <time>2022-06-09T07:23:41Z</time>
      </trkpt>
      <trkpt lat="47.56062" lon="2.2534645">
        <ele>177</ele>
        <time>2022-06-09T07:23:42Z</time>
      </trkpt>
      <trkpt lat="47.560608" lon="2.2534323">
        <ele>177</ele>
        <time>2022-06-09T07:23:43Z</time>
      </trkpt>
      <trkpt lat="47.560608" lon="2.2534323">
        <ele>177</ele>
        <time>2022-06-09T07:23:43Z</time>
      </trkpt>
      <trkpt lat="47.560604" lon="2.2534099">
        <ele>177</ele>
        <time>2022-06-09T07:23:45Z</time>
      </trkpt>
      <trkpt lat="47.5606" lon="2.2533867">
        <ele>177</ele>
        <time>2022-06-09T07:23:46Z</time>
      </trkpt>
      <trkpt lat="47.560593" lon="2.2533665">
        <ele>177</ele>
        <time>2022-06-09T07:23:47Z</time>
      </trkpt>
      <trkpt lat="47.560593" lon="2.2533503">
        <ele>178</ele>
        <time>2022-06-09T07:23:48Z</time>
      </trkpt>
      <trkpt lat="47.560585" lon="2.2533288">
        <ele>177</ele>
        <time>2022-06-09T07:23:49Z</time>
      </trkpt>
      <trkpt lat="47.560585" lon="2.2533083">
        <ele>177</ele>
        <time>2022-06-09T07:23:50Z</time>
      </trkpt>
      <trkpt lat="47.560577" lon="2.2532861">
        <ele>177</ele>
        <time>2022-06-09T07:23:51Z</time>
      </trkpt>
      <trkpt lat="47.560574" lon="2.2532628">
        <ele>177</ele>
        <time>2022-06-09T07:23:52Z</time>
      </trkpt>
      <trkpt lat="47.56057" lon="2.2532432">
        <ele>177</ele>
        <time>2022-06-09T07:23:53Z</time>
      </trkpt>
      <trkpt lat="47.56057" lon="2.253228">
        <ele>177</ele>
        <time>2022-06-09T07:23:54Z</time>
      </trkpt>
      <trkpt lat="47.56057" lon="2.2532108">
        <ele>177</ele>
        <time>2022-06-09T07:23:55Z</time>
      </trkpt>
      <trkpt lat="47.56057" lon="2.2531896">
        <ele>176</ele>
        <time>2022-06-09T07:23:56Z</time>
      </trkpt>
      <trkpt lat="47.56057" lon="2.253169">
        <ele>176</ele>
        <time>2022-06-09T07:23:57Z</time>
      </trkpt>
      <trkpt lat="47.560566" lon="2.2531502">
        <ele>176</ele>
        <time>2022-06-09T07:23:58Z</time>
      </trkpt>
      <trkpt lat="47.560562" lon="2.2531347">
        <ele>176</ele>
        <time>2022-06-09T07:23:59Z</time>
      </trkpt>
      <trkpt lat="47.56056" lon="2.2531157">
        <ele>176</ele>
        <time>2022-06-09T07:24:00Z</time>
      </trkpt>
      <trkpt lat="47.560547" lon="2.2530868">
        <ele>176</ele>
        <time>2022-06-09T07:24:01Z</time>
      </trkpt>
      <trkpt lat="47.560547" lon="2.2530868">
        <ele>176</ele>
        <time>2022-06-09T07:24:01Z</time>
      </trkpt>
      <trkpt lat="47.560535" lon="2.2530506">
        <ele>176</ele>
        <time>2022-06-09T07:24:03Z</time>
      </trkpt>
      <trkpt lat="47.560535" lon="2.2530506">
        <ele>176</ele>
        <time>2022-06-09T07:24:03Z</time>
      </trkpt>
      <trkpt lat="47.56052" lon="2.2530127">
        <ele>176</ele>
        <time>2022-06-09T07:24:05Z</time>
      </trkpt>
      <trkpt lat="47.560516" lon="2.2529957">
        <ele>176</ele>
        <time>2022-06-09T07:24:06Z</time>
      </trkpt>
      <trkpt lat="47.56051" lon="2.2529771">
        <ele>176</ele>
        <time>2022-06-09T07:24:07Z</time>
      </trkpt>
      <trkpt lat="47.560505" lon="2.25296">
        <ele>176</ele>
        <time>2022-06-09T07:24:08Z</time>
      </trkpt>
      <trkpt lat="47.5605" lon="2.2529418">
        <ele>176</ele>
        <time>2022-06-09T07:24:09Z</time>
      </trkpt>
      <trkpt lat="47.560493" lon="2.2529244">
        <ele>176</ele>
        <time>2022-06-09T07:24:10Z</time>
      </trkpt>
      <trkpt lat="47.560486" lon="2.2529058">
        <ele>177</ele>
        <time>2022-06-09T07:24:11Z</time>
      </trkpt>
      <trkpt lat="47.56048" lon="2.252889">
        <ele>177</ele>
        <time>2022-06-09T07:24:12Z</time>
      </trkpt>
      <trkpt lat="47.560474" lon="2.2528698">
        <ele>176</ele>
        <time>2022-06-09T07:24:13Z</time>
      </trkpt>
      <trkpt lat="47.560463" lon="2.2528522">
        <ele>177</ele>
        <time>2022-06-09T07:24:14Z</time>
      </trkpt>
      <trkpt lat="47.56046" lon="2.2528346">
        <ele>177</ele>
        <time>2022-06-09T07:24:15Z</time>
      </trkpt>
      <trkpt lat="47.560455" lon="2.2528212">
        <ele>177</ele>
        <time>2022-06-09T07:24:16Z</time>
      </trkpt>
      <trkpt lat="47.56045" lon="2.2528052">
        <ele>177</ele>
        <time>2022-06-09T07:24:17Z</time>
      </trkpt>
      <trkpt lat="47.560444" lon="2.2527876">
        <ele>177</ele>
        <time>2022-06-09T07:24:18Z</time>
      </trkpt>
      <trkpt lat="47.560432" lon="2.2527676">
        <ele>178</ele>
        <time>2022-06-09T07:24:19Z</time>
      </trkpt>
      <trkpt lat="47.560425" lon="2.252751">
        <ele>178</ele>
        <time>2022-06-09T07:24:20Z</time>
      </trkpt>
      <trkpt lat="47.560417" lon="2.2527366">
        <ele>178</ele>
        <time>2022-06-09T07:24:21Z</time>
      </trkpt>
      <trkpt lat="47.56041" lon="2.2527182">
        <ele>177</ele>
        <time>2022-06-09T07:24:22Z</time>
      </trkpt>
      <trkpt lat="47.560402" lon="2.2526975">
        <ele>176</ele>
        <time>2022-06-09T07:24:23Z</time>
      </trkpt>
      <trkpt lat="47.560394" lon="2.2526803">
        <ele>176</ele>
        <time>2022-06-09T07:24:24Z</time>
      </trkpt>
      <trkpt lat="47.560387" lon="2.2526617">
        <ele>176</ele>
        <time>2022-06-09T07:24:25Z</time>
      </trkpt>
      <trkpt lat="47.56038" lon="2.2526486">
        <ele>177</ele>
        <time>2022-06-09T07:24:26Z</time>
      </trkpt>
      <trkpt lat="47.560368" lon="2.252634">
        <ele>176</ele>
        <time>2022-06-09T07:24:27Z</time>
      </trkpt>
      <trkpt lat="47.560364" lon="2.2526164">
        <ele>176</ele>
        <time>2022-06-09T07:24:28Z</time>
      </trkpt>
      <trkpt lat="47.560352" lon="2.2525995">
        <ele>176</ele>
        <time>2022-06-09T07:24:29Z</time>
      </trkpt>
      <trkpt lat="47.560345" lon="2.2525814">
        <ele>176</ele>
        <time>2022-06-09T07:24:30Z</time>
      </trkpt>
      <trkpt lat="47.560337" lon="2.2525594">
        <ele>176</ele>
        <time>2022-06-09T07:24:31Z</time>
      </trkpt>
      <trkpt lat="47.56033" lon="2.2525432">
        <ele>176</ele>
        <time>2022-06-09T07:24:32Z</time>
      </trkpt>
      <trkpt lat="47.560318" lon="2.2525296">
        <ele>176</ele>
        <time>2022-06-09T07:24:33Z</time>
      </trkpt>
      <trkpt lat="47.56031" lon="2.252515">
        <ele>176</ele>
        <time>2022-06-09T07:24:34Z</time>
      </trkpt>
      <trkpt lat="47.560303" lon="2.2524989">
        <ele>176</ele>
        <time>2022-06-09T07:24:35Z</time>
      </trkpt>
      <trkpt lat="47.560295" lon="2.252482">
        <ele>176</ele>
        <time>2022-06-09T07:24:36Z</time>
      </trkpt>
      <trkpt lat="47.56029" lon="2.2524674">
        <ele>175</ele>
        <time>2022-06-09T07:24:37Z</time>
      </trkpt>
      <trkpt lat="47.560284" lon="2.2524567">
        <ele>175</ele>
        <time>2022-06-09T07:24:38Z</time>
      </trkpt>
      <trkpt lat="47.560276" lon="2.2524476">
        <ele>175</ele>
        <time>2022-06-09T07:24:39Z</time>
      </trkpt>
      <trkpt lat="47.56027" lon="2.2524345">
        <ele>174</ele>
        <time>2022-06-09T07:24:40Z</time>
      </trkpt>
      <trkpt lat="47.560257" lon="2.252423">
        <ele>175</ele>
        <time>2022-06-09T07:24:41Z</time>
      </trkpt>
      <trkpt lat="47.560246" lon="2.252418">
        <ele>176</ele>
        <time>2022-06-09T07:24:42Z</time>
      </trkpt>
      <trkpt lat="47.560238" lon="2.252407">
        <ele>176</ele>
        <time>2022-06-09T07:24:43Z</time>
      </trkpt>
      <trkpt lat="47.56023" lon="2.2523928">
        <ele>176</ele>
        <time>2022-06-09T07:24:44Z</time>
      </trkpt>
      <trkpt lat="47.560223" lon="2.2523763">
        <ele>176</ele>
        <time>2022-06-09T07:24:45Z</time>
      </trkpt>
      <trkpt lat="47.560215" lon="2.252358">
        <ele>176</ele>
        <time>2022-06-09T07:24:46Z</time>
      </trkpt>
      <trkpt lat="47.560204" lon="2.2523456">
        <ele>176</ele>
        <time>2022-06-09T07:24:47Z</time>
      </trkpt>
      <trkpt lat="47.560196" lon="2.252332">
        <ele>175</ele>
        <time>2022-06-09T07:24:48Z</time>
      </trkpt>
      <trkpt lat="47.560184" lon="2.2523189">
        <ele>175</ele>
        <time>2022-06-09T07:24:49Z</time>
      </trkpt>
      <trkpt lat="47.560173" lon="2.252308">
        <ele>176</ele>
        <time>2022-06-09T07:24:50Z</time>
      </trkpt>
      <trkpt lat="47.56016" lon="2.252296">
        <ele>175</ele>
        <time>2022-06-09T07:24:51Z</time>
      </trkpt>
      <trkpt lat="47.560154" lon="2.2522829">
        <ele>175</ele>
        <time>2022-06-09T07:24:52Z</time>
      </trkpt>
      <trkpt lat="47.56014" lon="2.2522712">
        <ele>175</ele>
        <time>2022-06-09T07:24:53Z</time>
      </trkpt>
      <trkpt lat="47.56013" lon="2.2522542">
        <ele>175</ele>
        <time>2022-06-09T07:24:54Z</time>
      </trkpt>
      <trkpt lat="47.560123" lon="2.2522347">
        <ele>174</ele>
        <time>2022-06-09T07:24:55Z</time>
      </trkpt>
      <trkpt lat="47.560116" lon="2.2522194">
        <ele>175</ele>
        <time>2022-06-09T07:24:56Z</time>
      </trkpt>
      <trkpt lat="47.560104" lon="2.2522082">
        <ele>175</ele>
        <time>2022-06-09T07:24:57Z</time>
      </trkpt>
      <trkpt lat="47.560097" lon="2.2521958">
        <ele>176</ele>
        <time>2022-06-09T07:24:58Z</time>
      </trkpt>
      <trkpt lat="47.560085" lon="2.2521815">
        <ele>176</ele>
        <time>2022-06-09T07:24:59Z</time>
      </trkpt>
      <trkpt lat="47.560078" lon="2.2521641">
        <ele>175</ele>
        <time>2022-06-09T07:25:00Z</time>
      </trkpt>
      <trkpt lat="47.560066" lon="2.25215">
        <ele>175</ele>
        <time>2022-06-09T07:25:01Z</time>
      </trkpt>
      <trkpt lat="47.56006" lon="2.2521338">
        <ele>175</ele>
        <time>2022-06-09T07:25:02Z</time>
      </trkpt>
      <trkpt lat="47.56005" lon="2.2521188">
        <ele>175</ele>
        <time>2022-06-09T07:25:03Z</time>
      </trkpt>
      <trkpt lat="47.56004" lon="2.252102">
        <ele>176</ele>
        <time>2022-06-09T07:25:04Z</time>
      </trkpt>
      <trkpt lat="47.56003" lon="2.2520895">
        <ele>176</ele>
        <time>2022-06-09T07:25:05Z</time>
      </trkpt>
      <trkpt lat="47.56002" lon="2.2520757">
        <ele>176</ele>
        <time>2022-06-09T07:25:06Z</time>
      </trkpt>
      <trkpt lat="47.560013" lon="2.2520607">
        <ele>176</ele>
        <time>2022-06-09T07:25:07Z</time>
      </trkpt>
      <trkpt lat="47.560005" lon="2.2520447">
        <ele>177</ele>
        <time>2022-06-09T07:25:08Z</time>
      </trkpt>
      <trkpt lat="47.559998" lon="2.2520304">
        <ele>177</ele>
        <time>2022-06-09T07:25:09Z</time>
      </trkpt>
      <trkpt lat="47.55999" lon="2.2520173">
        <ele>177</ele>
        <time>2022-06-09T07:25:10Z</time>
      </trkpt>
      <trkpt lat="47.559982" lon="2.2520041">
        <ele>177</ele>
        <time>2022-06-09T07:25:11Z</time>
      </trkpt>
      <trkpt lat="47.55997" lon="2.2519932">
        <ele>177</ele>
        <time>2022-06-09T07:25:12Z</time>
      </trkpt>
      <trkpt lat="47.55996" lon="2.251981">
        <ele>177</ele>
        <time>2022-06-09T07:25:13Z</time>
      </trkpt>
      <trkpt lat="47.559948" lon="2.2519667">
        <ele>177</ele>
        <time>2022-06-09T07:25:14Z</time>
      </trkpt>
      <trkpt lat="47.559933" lon="2.251955">
        <ele>177</ele>
        <time>2022-06-09T07:25:15Z</time>
      </trkpt>
      <trkpt lat="47.55992" lon="2.2519412">
        <ele>177</ele>
        <time>2022-06-09T07:25:16Z</time>
      </trkpt>
      <trkpt lat="47.559914" lon="2.2519276">
        <ele>177</ele>
        <time>2022-06-09T07:25:17Z</time>
      </trkpt>
      <trkpt lat="47.559902" lon="2.2519135">
        <ele>177</ele>
        <time>2022-06-09T07:25:18Z</time>
      </trkpt>
      <trkpt lat="47.55989" lon="2.2518985">
        <ele>177</ele>
        <time>2022-06-09T07:25:19Z</time>
      </trkpt>
      <trkpt lat="47.559883" lon="2.2518811">
        <ele>177</ele>
        <time>2022-06-09T07:25:20Z</time>
      </trkpt>
      <trkpt lat="47.559875" lon="2.251865">
        <ele>176</ele>
        <time>2022-06-09T07:25:21Z</time>
      </trkpt>
      <trkpt lat="47.559864" lon="2.251848">
        <ele>176</ele>
        <time>2022-06-09T07:25:22Z</time>
      </trkpt>
      <trkpt lat="47.559853" lon="2.251831">
        <ele>176</ele>
        <time>2022-06-09T07:25:23Z</time>
      </trkpt>
      <trkpt lat="47.559845" lon="2.2518106">
        <ele>176</ele>
        <time>2022-06-09T07:25:24Z</time>
      </trkpt>
      <trkpt lat="47.559837" lon="2.2517917">
        <ele>176</ele>
        <time>2022-06-09T07:25:25Z</time>
      </trkpt>
      <trkpt lat="47.55983" lon="2.2517776">
        <ele>177</ele>
        <time>2022-06-09T07:25:26Z</time>
      </trkpt>
      <trkpt lat="47.559822" lon="2.2517636">
        <ele>177</ele>
        <time>2022-06-09T07:25:27Z</time>
      </trkpt>
      <trkpt lat="47.559814" lon="2.2517478">
        <ele>177</ele>
        <time>2022-06-09T07:25:28Z</time>
      </trkpt>
      <trkpt lat="47.559807" lon="2.2517338">
        <ele>177</ele>
        <time>2022-06-09T07:25:29Z</time>
      </trkpt>
      <trkpt lat="47.559795" lon="2.2517195">
        <ele>178</ele>
        <time>2022-06-09T07:25:30Z</time>
      </trkpt>
      <trkpt lat="47.559788" lon="2.2517028">
        <ele>178</ele>
        <time>2022-06-09T07:25:31Z</time>
      </trkpt>
      <trkpt lat="47.559776" lon="2.2516875">
        <ele>178</ele>
        <time>2022-06-09T07:25:32Z</time>
      </trkpt>
      <trkpt lat="47.55977" lon="2.251672">
        <ele>178</ele>
        <time>2022-06-09T07:25:33Z</time>
      </trkpt>
      <trkpt lat="47.55976" lon="2.251657">
        <ele>178</ele>
        <time>2022-06-09T07:25:34Z</time>
      </trkpt>
      <trkpt lat="47.559753" lon="2.2516422">
        <ele>178</ele>
        <time>2022-06-09T07:25:35Z</time>
      </trkpt>
      <trkpt lat="47.559746" lon="2.2516277">
        <ele>178</ele>
        <time>2022-06-09T07:25:36Z</time>
      </trkpt>
      <trkpt lat="47.55974" lon="2.2516148">
        <ele>178</ele>
        <time>2022-06-09T07:25:37Z</time>
      </trkpt>
      <trkpt lat="47.55973" lon="2.2516024">
        <ele>178</ele>
        <time>2022-06-09T07:25:38Z</time>
      </trkpt>
      <trkpt lat="47.559723" lon="2.2515886">
        <ele>177</ele>
        <time>2022-06-09T07:25:39Z</time>
      </trkpt>
      <trkpt lat="47.55972" lon="2.2515738">
        <ele>177</ele>
        <time>2022-06-09T07:25:40Z</time>
      </trkpt>
      <trkpt lat="47.559708" lon="2.2515578">
        <ele>177</ele>
        <time>2022-06-09T07:25:41Z</time>
      </trkpt>
      <trkpt lat="47.559704" lon="2.2515411">
        <ele>176</ele>
        <time>2022-06-09T07:25:42Z</time>
      </trkpt>
      <trkpt lat="47.559696" lon="2.251529">
        <ele>176</ele>
        <time>2022-06-09T07:25:43Z</time>
      </trkpt>
      <trkpt lat="47.55969" lon="2.2515185">
        <ele>176</ele>
        <time>2022-06-09T07:25:44Z</time>
      </trkpt>
      <trkpt lat="47.559677" lon="2.2515042">
        <ele>175</ele>
        <time>2022-06-09T07:25:45Z</time>
      </trkpt>
      <trkpt lat="47.559666" lon="2.2514875">
        <ele>175</ele>
        <time>2022-06-09T07:25:46Z</time>
      </trkpt>
      <trkpt lat="47.55965" lon="2.2514722">
        <ele>175</ele>
        <time>2022-06-09T07:25:47Z</time>
      </trkpt>
      <trkpt lat="47.559635" lon="2.251459">
        <ele>175</ele>
        <time>2022-06-09T07:25:48Z</time>
      </trkpt>
      <trkpt lat="47.559624" lon="2.2514439">
        <ele>176</ele>
        <time>2022-06-09T07:25:49Z</time>
      </trkpt>
      <trkpt lat="47.559616" lon="2.25143">
        <ele>176</ele>
        <time>2022-06-09T07:25:50Z</time>
      </trkpt>
      <trkpt lat="47.55961" lon="2.2514114">
        <ele>176</ele>
        <time>2022-06-09T07:25:51Z</time>
      </trkpt>
      <trkpt lat="47.559593" lon="2.2513974">
        <ele>176</ele>
        <time>2022-06-09T07:25:52Z</time>
      </trkpt>
      <trkpt lat="47.55958" lon="2.2513833">
        <ele>175</ele>
        <time>2022-06-09T07:25:53Z</time>
      </trkpt>
      <trkpt lat="47.559574" lon="2.2513654">
        <ele>176</ele>
        <time>2022-06-09T07:25:54Z</time>
      </trkpt>
      <trkpt lat="47.559566" lon="2.2513528">
        <ele>176</ele>
        <time>2022-06-09T07:25:55Z</time>
      </trkpt>
      <trkpt lat="47.559555" lon="2.2513373">
        <ele>176</ele>
        <time>2022-06-09T07:25:56Z</time>
      </trkpt>
      <trkpt lat="47.559547" lon="2.2513192">
        <ele>176</ele>
        <time>2022-06-09T07:25:57Z</time>
      </trkpt>
      <trkpt lat="47.55954" lon="2.2513025">
        <ele>175</ele>
        <time>2022-06-09T07:25:58Z</time>
      </trkpt>
      <trkpt lat="47.559532" lon="2.2512808">
        <ele>176</ele>
        <time>2022-06-09T07:25:59Z</time>
      </trkpt>
      <trkpt lat="47.559525" lon="2.2512648">
        <ele>176</ele>
        <time>2022-06-09T07:26:00Z</time>
      </trkpt>
      <trkpt lat="47.559517" lon="2.251247">
        <ele>176</ele>
        <time>2022-06-09T07:26:01Z</time>
      </trkpt>
      <trkpt lat="47.55951" lon="2.251227">
        <ele>175</ele>
        <time>2022-06-09T07:26:02Z</time>
      </trkpt>
      <trkpt lat="47.559498" lon="2.2512116">
        <ele>175</ele>
        <time>2022-06-09T07:26:03Z</time>
      </trkpt>
      <trkpt lat="47.55949" lon="2.251196">
        <ele>175</ele>
        <time>2022-06-09T07:26:04Z</time>
      </trkpt>
      <trkpt lat="47.55948" lon="2.2511806">
        <ele>175</ele>
        <time>2022-06-09T07:26:05Z</time>
      </trkpt>
      <trkpt lat="47.559467" lon="2.2511659">
        <ele>176</ele>
        <time>2022-06-09T07:26:06Z</time>
      </trkpt>
      <trkpt lat="47.559464" lon="2.2511468">
        <ele>176</ele>
        <time>2022-06-09T07:26:07Z</time>
      </trkpt>
      <trkpt lat="47.559456" lon="2.2511325">
        <ele>176</ele>
        <time>2022-06-09T07:26:08Z</time>
      </trkpt>
      <trkpt lat="47.55945" lon="2.2511213">
        <ele>176</ele>
        <time>2022-06-09T07:26:09Z</time>
      </trkpt>
      <trkpt lat="47.55944" lon="2.251108">
        <ele>176</ele>
        <time>2022-06-09T07:26:10Z</time>
      </trkpt>
      <trkpt lat="47.55943" lon="2.251093">
        <ele>175</ele>
        <time>2022-06-09T07:26:11Z</time>
      </trkpt>
      <trkpt lat="47.559418" lon="2.2510781">
        <ele>175</ele>
        <time>2022-06-09T07:26:12Z</time>
      </trkpt>
      <trkpt lat="47.55941" lon="2.2510657">
        <ele>175</ele>
        <time>2022-06-09T07:26:13Z</time>
      </trkpt>
      <trkpt lat="47.559402" lon="2.2510495">
        <ele>175</ele>
        <time>2022-06-09T07:26:14Z</time>
      </trkpt>
      <trkpt lat="47.55939" lon="2.2510366">
        <ele>175</ele>
        <time>2022-06-09T07:26:15Z</time>
      </trkpt>
      <trkpt lat="47.559383" lon="2.2510266">
        <ele>174</ele>
        <time>2022-06-09T07:26:16Z</time>
      </trkpt>
      <trkpt lat="47.559372" lon="2.2510176">
        <ele>175</ele>
        <time>2022-06-09T07:26:17Z</time>
      </trkpt>
      <trkpt lat="47.559364" lon="2.251008">
        <ele>175</ele>
        <time>2022-06-09T07:26:18Z</time>
      </trkpt>
      <trkpt lat="47.559353" lon="2.250995">
        <ele>175</ele>
        <time>2022-06-09T07:26:19Z</time>
      </trkpt>
      <trkpt lat="47.559345" lon="2.2509797">
        <ele>175</ele>
        <time>2022-06-09T07:26:20Z</time>
      </trkpt>
      <trkpt lat="47.559334" lon="2.2509694">
        <ele>175</ele>
        <time>2022-06-09T07:26:21Z</time>
      </trkpt>
      <trkpt lat="47.559326" lon="2.250956">
        <ele>175</ele>
        <time>2022-06-09T07:26:22Z</time>
      </trkpt>
      <trkpt lat="47.559322" lon="2.250936">
        <ele>175</ele>
        <time>2022-06-09T07:26:23Z</time>
      </trkpt>
      <trkpt lat="47.559315" lon="2.2509172">
        <ele>175</ele>
        <time>2022-06-09T07:26:24Z</time>
      </trkpt>
      <trkpt lat="47.559307" lon="2.2509007">
        <ele>175</ele>
        <time>2022-06-09T07:26:25Z</time>
      </trkpt>
      <trkpt lat="47.559296" lon="2.250887">
        <ele>175</ele>
        <time>2022-06-09T07:26:26Z</time>
      </trkpt>
      <trkpt lat="47.559288" lon="2.2508755">
        <ele>175</ele>
        <time>2022-06-09T07:26:27Z</time>
      </trkpt>
      <trkpt lat="47.559277" lon="2.2508607">
        <ele>175</ele>
        <time>2022-06-09T07:26:28Z</time>
      </trkpt>
      <trkpt lat="47.55927" lon="2.2508497">
        <ele>175</ele>
        <time>2022-06-09T07:26:29Z</time>
      </trkpt>
      <trkpt lat="47.55926" lon="2.2508392">
        <ele>175</ele>
        <time>2022-06-09T07:26:30Z</time>
      </trkpt>
      <trkpt lat="47.559246" lon="2.2508297">
        <ele>174</ele>
        <time>2022-06-09T07:26:31Z</time>
      </trkpt>
      <trkpt lat="47.559235" lon="2.2508175">
        <ele>174</ele>
        <time>2022-06-09T07:26:32Z</time>
      </trkpt>
      <trkpt lat="47.559223" lon="2.2508025">
        <ele>174</ele>
        <time>2022-06-09T07:26:33Z</time>
      </trkpt>
      <trkpt lat="47.559216" lon="2.2507882">
        <ele>175</ele>
        <time>2022-06-09T07:26:34Z</time>
      </trkpt>
      <trkpt lat="47.559204" lon="2.2507703">
        <ele>175</ele>
        <time>2022-06-09T07:26:35Z</time>
      </trkpt>
      <trkpt lat="47.559196" lon="2.2507553">
        <ele>175</ele>
        <time>2022-06-09T07:26:36Z</time>
      </trkpt>
      <trkpt lat="47.559185" lon="2.2507412">
        <ele>176</ele>
        <time>2022-06-09T07:26:37Z</time>
      </trkpt>
      <trkpt lat="47.559177" lon="2.2507277">
        <ele>176</ele>
        <time>2022-06-09T07:26:38Z</time>
      </trkpt>
      <trkpt lat="47.559174" lon="2.2507153">
        <ele>176</ele>
        <time>2022-06-09T07:26:39Z</time>
      </trkpt>
      <trkpt lat="47.559166" lon="2.2506998">
        <ele>175</ele>
        <time>2022-06-09T07:26:40Z</time>
      </trkpt>
      <trkpt lat="47.55916" lon="2.2506871">
        <ele>175</ele>
        <time>2022-06-09T07:26:41Z</time>
      </trkpt>
      <trkpt lat="47.55915" lon="2.250675">
        <ele>175</ele>
        <time>2022-06-09T07:26:42Z</time>
      </trkpt>
      <trkpt lat="47.559143" lon="2.2506573">
        <ele>174</ele>
        <time>2022-06-09T07:26:43Z</time>
      </trkpt>
      <trkpt lat="47.55914" lon="2.2506428">
        <ele>174</ele>
        <time>2022-06-09T07:26:44Z</time>
      </trkpt>
      <trkpt lat="47.559128" lon="2.2506251">
        <ele>174</ele>
        <time>2022-06-09T07:26:45Z</time>
      </trkpt>
      <trkpt lat="47.559116" lon="2.250617">
        <ele>175</ele>
        <time>2022-06-09T07:26:46Z</time>
      </trkpt>
      <trkpt lat="47.559105" lon="2.250608">
        <ele>175</ele>
        <time>2022-06-09T07:26:47Z</time>
      </trkpt>
      <trkpt lat="47.559097" lon="2.250593">
        <ele>176</ele>
        <time>2022-06-09T07:26:48Z</time>
      </trkpt>
      <trkpt lat="47.559086" lon="2.2505808">
        <ele>176</ele>
        <time>2022-06-09T07:26:49Z</time>
      </trkpt>
      <trkpt lat="47.55908" lon="2.250573">
        <ele>176</ele>
        <time>2022-06-09T07:26:50Z</time>
      </trkpt>
      <trkpt lat="47.55907" lon="2.2505634">
        <ele>176</ele>
        <time>2022-06-09T07:26:51Z</time>
      </trkpt>
      <trkpt lat="47.559063" lon="2.2505531">
        <ele>176</ele>
        <time>2022-06-09T07:26:52Z</time>
      </trkpt>
      <trkpt lat="47.559055" lon="2.2505405">
        <ele>176</ele>
        <time>2022-06-09T07:26:53Z</time>
      </trkpt>
      <trkpt lat="47.559048" lon="2.2505245">
        <ele>176</ele>
        <time>2022-06-09T07:26:54Z</time>
      </trkpt>
      <trkpt lat="47.55904" lon="2.2505062">
        <ele>176</ele>
        <time>2022-06-09T07:26:55Z</time>
      </trkpt>
      <trkpt lat="47.559036" lon="2.2504888">
        <ele>176</ele>
        <time>2022-06-09T07:26:56Z</time>
      </trkpt>
      <trkpt lat="47.559025" lon="2.2504718">
        <ele>176</ele>
        <time>2022-06-09T07:26:57Z</time>
      </trkpt>
      <trkpt lat="47.559017" lon="2.2504604">
        <ele>176</ele>
        <time>2022-06-09T07:26:58Z</time>
      </trkpt>
      <trkpt lat="47.559006" lon="2.2504482">
        <ele>176</ele>
        <time>2022-06-09T07:26:59Z</time>
      </trkpt>
      <trkpt lat="47.558994" lon="2.2504344">
        <ele>176</ele>
        <time>2022-06-09T07:27:00Z</time>
      </trkpt>
      <trkpt lat="47.558983" lon="2.2504225">
        <ele>177</ele>
        <time>2022-06-09T07:27:01Z</time>
      </trkpt>
      <trkpt lat="47.55898" lon="2.25041">
        <ele>176</ele>
        <time>2022-06-09T07:27:02Z</time>
      </trkpt>
      <trkpt lat="47.55897" lon="2.2503946">
        <ele>176</ele>
        <time>2022-06-09T07:27:03Z</time>
      </trkpt>
      <trkpt lat="47.558968" lon="2.250382">
        <ele>176</ele>
        <time>2022-06-09T07:27:04Z</time>
      </trkpt>
      <trkpt lat="47.55896" lon="2.2503657">
        <ele>177</ele>
        <time>2022-06-09T07:27:05Z</time>
      </trkpt>
      <trkpt lat="47.558952" lon="2.250349">
        <ele>177</ele>
        <time>2022-06-09T07:27:06Z</time>
      </trkpt>
      <trkpt lat="47.55894" lon="2.250335">
        <ele>177</ele>
        <time>2022-06-09T07:27:07Z</time>
      </trkpt>
      <trkpt lat="47.558937" lon="2.2503154">
        <ele>177</ele>
        <time>2022-06-09T07:27:08Z</time>
      </trkpt>
      <trkpt lat="47.558926" lon="2.2502973">
        <ele>177</ele>
        <time>2022-06-09T07:27:09Z</time>
      </trkpt>
      <trkpt lat="47.558918" lon="2.2502854">
        <ele>176</ele>
        <time>2022-06-09T07:27:10Z</time>
      </trkpt>
      <trkpt lat="47.558907" lon="2.2502735">
        <ele>176</ele>
        <time>2022-06-09T07:27:11Z</time>
      </trkpt>
      <trkpt lat="47.5589" lon="2.2502613">
        <ele>175</ele>
        <time>2022-06-09T07:27:12Z</time>
      </trkpt>
      <trkpt lat="47.558887" lon="2.2502494">
        <ele>175</ele>
        <time>2022-06-09T07:27:13Z</time>
      </trkpt>
      <trkpt lat="47.558876" lon="2.25024">
        <ele>175</ele>
        <time>2022-06-09T07:27:14Z</time>
      </trkpt>
      <trkpt lat="47.55887" lon="2.2502306">
        <ele>175</ele>
        <time>2022-06-09T07:27:15Z</time>
      </trkpt>
      <trkpt lat="47.55886" lon="2.2502189">
        <ele>174</ele>
        <time>2022-06-09T07:27:16Z</time>
      </trkpt>
      <trkpt lat="47.558853" lon="2.2502105">
        <ele>174</ele>
        <time>2022-06-09T07:27:17Z</time>
      </trkpt>
      <trkpt lat="47.558846" lon="2.2502043">
        <ele>174</ele>
        <time>2022-06-09T07:27:18Z</time>
      </trkpt>
      <trkpt lat="47.55883" lon="2.2501912">
        <ele>173</ele>
        <time>2022-06-09T07:27:19Z</time>
      </trkpt>
      <trkpt lat="47.558823" lon="2.250182">
        <ele>173</ele>
        <time>2022-06-09T07:27:20Z</time>
      </trkpt>
      <trkpt lat="47.55881" lon="2.250175">
        <ele>173</ele>
        <time>2022-06-09T07:27:21Z</time>
      </trkpt>
      <trkpt lat="47.558804" lon="2.2501636">
        <ele>173</ele>
        <time>2022-06-09T07:27:22Z</time>
      </trkpt>
      <trkpt lat="47.558796" lon="2.2501442">
        <ele>173</ele>
        <time>2022-06-09T07:27:23Z</time>
      </trkpt>
      <trkpt lat="47.55879" lon="2.2501287">
        <ele>173</ele>
        <time>2022-06-09T07:27:24Z</time>
      </trkpt>
      <trkpt lat="47.55878" lon="2.2501116">
        <ele>173</ele>
        <time>2022-06-09T07:27:25Z</time>
      </trkpt>
      <trkpt lat="47.55878" lon="2.250096">
        <ele>173</ele>
        <time>2022-06-09T07:27:26Z</time>
      </trkpt>
      <trkpt lat="47.558777" lon="2.2500813">
        <ele>173</ele>
        <time>2022-06-09T07:27:27Z</time>
      </trkpt>
      <trkpt lat="47.558773" lon="2.2500641">
        <ele>172</ele>
        <time>2022-06-09T07:27:28Z</time>
      </trkpt>
      <trkpt lat="47.558765" lon="2.2500448">
        <ele>172</ele>
        <time>2022-06-09T07:27:29Z</time>
      </trkpt>
      <trkpt lat="47.558758" lon="2.2500324">
        <ele>172</ele>
        <time>2022-06-09T07:27:30Z</time>
      </trkpt>
      <trkpt lat="47.558746" lon="2.2500205">
        <ele>172</ele>
        <time>2022-06-09T07:27:31Z</time>
      </trkpt>
      <trkpt lat="47.55874" lon="2.2500074">
        <ele>173</ele>
        <time>2022-06-09T07:27:32Z</time>
      </trkpt>
      <trkpt lat="47.558735" lon="2.249996">
        <ele>173</ele>
        <time>2022-06-09T07:27:33Z</time>
      </trkpt>
      <trkpt lat="47.55873" lon="2.2499864">
        <ele>173</ele>
        <time>2022-06-09T07:27:34Z</time>
      </trkpt>
      <trkpt lat="47.558727" lon="2.2499752">
        <ele>173</ele>
        <time>2022-06-09T07:27:35Z</time>
      </trkpt>
      <trkpt lat="47.558723" lon="2.249963">
        <ele>173</ele>
        <time>2022-06-09T07:27:36Z</time>
      </trkpt>
      <trkpt lat="47.55872" lon="2.2499547">
        <ele>173</ele>
        <time>2022-06-09T07:27:37Z</time>
      </trkpt>
      <trkpt lat="47.558712" lon="2.2499392">
        <ele>173</ele>
        <time>2022-06-09T07:27:38Z</time>
      </trkpt>
      <trkpt lat="47.5587" lon="2.2499251">
        <ele>173</ele>
        <time>2022-06-09T07:27:39Z</time>
      </trkpt>
      <trkpt lat="47.558693" lon="2.2499099">
        <ele>174</ele>
        <time>2022-06-09T07:27:40Z</time>
      </trkpt>
      <trkpt lat="47.55869" lon="2.2498984">
        <ele>173</ele>
        <time>2022-06-09T07:27:41Z</time>
      </trkpt>
      <trkpt lat="47.558685" lon="2.2498817">
        <ele>173</ele>
        <time>2022-06-09T07:27:42Z</time>
      </trkpt>
      <trkpt lat="47.55868" lon="2.249863">
        <ele>173</ele>
        <time>2022-06-09T07:27:43Z</time>
      </trkpt>
      <trkpt lat="47.558674" lon="2.249842">
        <ele>172</ele>
        <time>2022-06-09T07:27:44Z</time>
      </trkpt>
      <trkpt lat="47.558662" lon="2.2498236">
        <ele>173</ele>
        <time>2022-06-09T07:27:45Z</time>
      </trkpt>
      <trkpt lat="47.558655" lon="2.249807">
        <ele>173</ele>
        <time>2022-06-09T07:27:46Z</time>
      </trkpt>
      <trkpt lat="47.558636" lon="2.2497976">
        <ele>173</ele>
        <time>2022-06-09T07:27:47Z</time>
      </trkpt>
      <trkpt lat="47.558628" lon="2.249785">
        <ele>173</ele>
        <time>2022-06-09T07:27:48Z</time>
      </trkpt>
      <trkpt lat="47.558617" lon="2.2497714">
        <ele>173</ele>
        <time>2022-06-09T07:27:49Z</time>
      </trkpt>
      <trkpt lat="47.5586" lon="2.24976">
        <ele>173</ele>
        <time>2022-06-09T07:27:50Z</time>
      </trkpt>
      <trkpt lat="47.558586" lon="2.2497485">
        <ele>174</ele>
        <time>2022-06-09T07:27:51Z</time>
      </trkpt>
      <trkpt lat="47.558575" lon="2.2497401">
        <ele>174</ele>
        <time>2022-06-09T07:27:52Z</time>
      </trkpt>
      <trkpt lat="47.558563" lon="2.2497294">
        <ele>174</ele>
        <time>2022-06-09T07:27:53Z</time>
      </trkpt>
      <trkpt lat="47.558556" lon="2.2497132">
        <ele>174</ele>
        <time>2022-06-09T07:27:54Z</time>
      </trkpt>
      <trkpt lat="47.558548" lon="2.249697">
        <ele>174</ele>
        <time>2022-06-09T07:27:55Z</time>
      </trkpt>
      <trkpt lat="47.55854" lon="2.2496808">
        <ele>174</ele>
        <time>2022-06-09T07:27:56Z</time>
      </trkpt>
      <trkpt lat="47.558533" lon="2.2496684">
        <ele>174</ele>
        <time>2022-06-09T07:27:57Z</time>
      </trkpt>
      <trkpt lat="47.558525" lon="2.2496576">
        <ele>174</ele>
        <time>2022-06-09T07:27:58Z</time>
      </trkpt>
      <trkpt lat="47.558514" lon="2.2496438">
        <ele>175</ele>
        <time>2022-06-09T07:27:59Z</time>
      </trkpt>
      <trkpt lat="47.558506" lon="2.2496262">
        <ele>175</ele>
        <time>2022-06-09T07:28:00Z</time>
      </trkpt>
      <trkpt lat="47.558495" lon="2.2496033">
        <ele>175</ele>
        <time>2022-06-09T07:28:01Z</time>
      </trkpt>
      <trkpt lat="47.558483" lon="2.249587">
        <ele>176</ele>
        <time>2022-06-09T07:28:02Z</time>
      </trkpt>
      <trkpt lat="47.55847" lon="2.2495723">
        <ele>176</ele>
        <time>2022-06-09T07:28:03Z</time>
      </trkpt>
      <trkpt lat="47.558464" lon="2.2495575">
        <ele>176</ele>
        <time>2022-06-09T07:28:04Z</time>
      </trkpt>
      <trkpt lat="47.558464" lon="2.249537">
        <ele>176</ele>
        <time>2022-06-09T07:28:05Z</time>
      </trkpt>
      <trkpt lat="47.55846" lon="2.2495205">
        <ele>176</ele>
        <time>2022-06-09T07:28:06Z</time>
      </trkpt>
      <trkpt lat="47.55845" lon="2.2495072">
        <ele>176</ele>
        <time>2022-06-09T07:28:07Z</time>
      </trkpt>
      <trkpt lat="47.558437" lon="2.2494926">
        <ele>176</ele>
        <time>2022-06-09T07:28:08Z</time>
      </trkpt>
      <trkpt lat="47.55843" lon="2.2494738">
        <ele>177</ele>
        <time>2022-06-09T07:28:09Z</time>
      </trkpt>
      <trkpt lat="47.558422" lon="2.249457">
        <ele>176</ele>
        <time>2022-06-09T07:28:10Z</time>
      </trkpt>
      <trkpt lat="47.55841" lon="2.2494411">
        <ele>176</ele>
        <time>2022-06-09T07:28:11Z</time>
      </trkpt>
      <trkpt lat="47.5584" lon="2.2494254">
        <ele>176</ele>
        <time>2022-06-09T07:28:12Z</time>
      </trkpt>
      <trkpt lat="47.558388" lon="2.249412">
        <ele>176</ele>
        <time>2022-06-09T07:28:13Z</time>
      </trkpt>
      <trkpt lat="47.55838" lon="2.2494001">
        <ele>178</ele>
        <time>2022-06-09T07:28:14Z</time>
      </trkpt>
      <trkpt lat="47.55837" lon="2.2493892">
        <ele>178</ele>
        <time>2022-06-09T07:28:15Z</time>
      </trkpt>
      <trkpt lat="47.558353" lon="2.249377">
        <ele>179</ele>
        <time>2022-06-09T07:28:16Z</time>
      </trkpt>
      <trkpt lat="47.558346" lon="2.2493646">
        <ele>179</ele>
        <time>2022-06-09T07:28:17Z</time>
      </trkpt>
      <trkpt lat="47.558334" lon="2.2493558">
        <ele>179</ele>
        <time>2022-06-09T07:28:18Z</time>
      </trkpt>
      <trkpt lat="47.558327" lon="2.2493465">
        <ele>179</ele>
        <time>2022-06-09T07:28:19Z</time>
      </trkpt>
      <trkpt lat="47.558315" lon="2.2493343">
        <ele>179</ele>
        <time>2022-06-09T07:28:20Z</time>
      </trkpt>
      <trkpt lat="47.558308" lon="2.249309">
        <ele>178</ele>
        <time>2022-06-09T07:28:21Z</time>
      </trkpt>
      <trkpt lat="47.5583" lon="2.2492964">
        <ele>177</ele>
        <time>2022-06-09T07:28:22Z</time>
      </trkpt>
      <trkpt lat="47.55829" lon="2.24928">
        <ele>178</ele>
        <time>2022-06-09T07:28:23Z</time>
      </trkpt>
      <trkpt lat="47.558273" lon="2.2492678">
        <ele>177</ele>
        <time>2022-06-09T07:28:24Z</time>
      </trkpt>
      <trkpt lat="47.55826" lon="2.2492518">
        <ele>177</ele>
        <time>2022-06-09T07:28:25Z</time>
      </trkpt>
      <trkpt lat="47.558247" lon="2.249238">
        <ele>177</ele>
        <time>2022-06-09T07:28:26Z</time>
      </trkpt>
      <trkpt lat="47.55823" lon="2.249215">
        <ele>177</ele>
        <time>2022-06-09T07:28:27Z</time>
      </trkpt>
      <trkpt lat="47.558224" lon="2.249198">
        <ele>177</ele>
        <time>2022-06-09T07:28:28Z</time>
      </trkpt>
      <trkpt lat="47.558212" lon="2.2491796">
        <ele>177</ele>
        <time>2022-06-09T07:28:29Z</time>
      </trkpt>
      <trkpt lat="47.558205" lon="2.249165">
        <ele>176</ele>
        <time>2022-06-09T07:28:30Z</time>
      </trkpt>
      <trkpt lat="47.558197" lon="2.2491498">
        <ele>177</ele>
        <time>2022-06-09T07:28:31Z</time>
      </trkpt>
      <trkpt lat="47.558193" lon="2.2491317">
        <ele>177</ele>
        <time>2022-06-09T07:28:32Z</time>
      </trkpt>
      <trkpt lat="47.55818" lon="2.2491162">
        <ele>177</ele>
        <time>2022-06-09T07:28:33Z</time>
      </trkpt>
      <trkpt lat="47.558174" lon="2.2490983">
        <ele>177</ele>
        <time>2022-06-09T07:28:34Z</time>
      </trkpt>
      <trkpt lat="47.558167" lon="2.2490788">
        <ele>178</ele>
        <time>2022-06-09T07:28:35Z</time>
      </trkpt>
      <trkpt lat="47.558163" lon="2.2490587">
        <ele>178</ele>
        <time>2022-06-09T07:28:36Z</time>
      </trkpt>
      <trkpt lat="47.558163" lon="2.249044">
        <ele>178</ele>
        <time>2022-06-09T07:28:37Z</time>
      </trkpt>
      <trkpt lat="47.558155" lon="2.2490351">
        <ele>178</ele>
        <time>2022-06-09T07:28:38Z</time>
      </trkpt>
      <trkpt lat="47.558147" lon="2.2490213">
        <ele>178</ele>
        <time>2022-06-09T07:28:39Z</time>
      </trkpt>
      <trkpt lat="47.558144" lon="2.2490044">
        <ele>178</ele>
        <time>2022-06-09T07:28:40Z</time>
      </trkpt>
      <trkpt lat="47.558132" lon="2.248993">
        <ele>177</ele>
        <time>2022-06-09T07:28:41Z</time>
      </trkpt>
      <trkpt lat="47.558125" lon="2.2489796">
        <ele>178</ele>
        <time>2022-06-09T07:28:42Z</time>
      </trkpt>
      <trkpt lat="47.55812" lon="2.2489657">
        <ele>178</ele>
        <time>2022-06-09T07:28:43Z</time>
      </trkpt>
      <trkpt lat="47.558113" lon="2.2489557">
        <ele>178</ele>
        <time>2022-06-09T07:28:44Z</time>
      </trkpt>
      <trkpt lat="47.558105" lon="2.2489452">
        <ele>177</ele>
        <time>2022-06-09T07:28:45Z</time>
      </trkpt>
      <trkpt lat="47.558098" lon="2.2489283">
        <ele>177</ele>
        <time>2022-06-09T07:28:46Z</time>
      </trkpt>
      <trkpt lat="47.558086" lon="2.2489166">
        <ele>177</ele>
        <time>2022-06-09T07:28:47Z</time>
      </trkpt>
      <trkpt lat="47.558075" lon="2.248904">
        <ele>177</ele>
        <time>2022-06-09T07:28:48Z</time>
      </trkpt>
      <trkpt lat="47.558067" lon="2.2488856">
        <ele>178</ele>
        <time>2022-06-09T07:28:49Z</time>
      </trkpt>
      <trkpt lat="47.55806" lon="2.248868">
        <ele>177</ele>
        <time>2022-06-09T07:28:50Z</time>
      </trkpt>
      <trkpt lat="47.55805" lon="2.2488499">
        <ele>178</ele>
        <time>2022-06-09T07:28:51Z</time>
      </trkpt>
      <trkpt lat="47.558044" lon="2.2488327">
        <ele>178</ele>
        <time>2022-06-09T07:28:52Z</time>
      </trkpt>
      <trkpt lat="47.55804" lon="2.2488158">
        <ele>178</ele>
        <time>2022-06-09T07:28:53Z</time>
      </trkpt>
      <trkpt lat="47.55804" lon="2.2487967">
        <ele>178</ele>
        <time>2022-06-09T07:28:54Z</time>
      </trkpt>
      <trkpt lat="47.558033" lon="2.248775">
        <ele>177</ele>
        <time>2022-06-09T07:28:55Z</time>
      </trkpt>
      <trkpt lat="47.55803" lon="2.2487512">
        <ele>177</ele>
        <time>2022-06-09T07:28:56Z</time>
      </trkpt>
      <trkpt lat="47.55802" lon="2.2487276">
        <ele>177</ele>
        <time>2022-06-09T07:28:57Z</time>
      </trkpt>
      <trkpt lat="47.55802" lon="2.2487023">
        <ele>177</ele>
        <time>2022-06-09T07:28:58Z</time>
      </trkpt>
      <trkpt lat="47.558018" lon="2.2486815">
        <ele>177</ele>
        <time>2022-06-09T07:28:59Z</time>
      </trkpt>
      <trkpt lat="47.558014" lon="2.2486577">
        <ele>177</ele>
        <time>2022-06-09T07:29:00Z</time>
      </trkpt>
      <trkpt lat="47.55801" lon="2.248637">
        <ele>176</ele>
        <time>2022-06-09T07:29:01Z</time>
      </trkpt>
      <trkpt lat="47.558002" lon="2.2486172">
        <ele>176</ele>
        <time>2022-06-09T07:29:02Z</time>
      </trkpt>
      <trkpt lat="47.558" lon="2.2485986">
        <ele>176</ele>
        <time>2022-06-09T07:29:03Z</time>
      </trkpt>
      <trkpt lat="47.557995" lon="2.2485828">
        <ele>175</ele>
        <time>2022-06-09T07:29:04Z</time>
      </trkpt>
      <trkpt lat="47.557983" lon="2.2485657">
        <ele>175</ele>
        <time>2022-06-09T07:29:05Z</time>
      </trkpt>
      <trkpt lat="47.557976" lon="2.2485518">
        <ele>175</ele>
        <time>2022-06-09T07:29:06Z</time>
      </trkpt>
      <trkpt lat="47.55797" lon="2.2485416">
        <ele>175</ele>
        <time>2022-06-09T07:29:07Z</time>
      </trkpt>
      <trkpt lat="47.557964" lon="2.2485323">
        <ele>175</ele>
        <time>2022-06-09T07:29:08Z</time>
      </trkpt>
      <trkpt lat="47.557957" lon="2.248516">
        <ele>175</ele>
        <time>2022-06-09T07:29:09Z</time>
      </trkpt>
      <trkpt lat="47.557953" lon="2.2485">
        <ele>175</ele>
        <time>2022-06-09T07:29:10Z</time>
      </trkpt>
      <trkpt lat="47.55795" lon="2.248487">
        <ele>175</ele>
        <time>2022-06-09T07:29:11Z</time>
      </trkpt>
      <trkpt lat="47.55794" lon="2.2484741">
        <ele>175</ele>
        <time>2022-06-09T07:29:12Z</time>
      </trkpt>
      <trkpt lat="47.557934" lon="2.2484555">
        <ele>175</ele>
        <time>2022-06-09T07:29:13Z</time>
      </trkpt>
      <trkpt lat="47.55793" lon="2.2484388">
        <ele>175</ele>
        <time>2022-06-09T07:29:14Z</time>
      </trkpt>
      <trkpt lat="47.557915" lon="2.248427">
        <ele>175</ele>
        <time>2022-06-09T07:29:15Z</time>
      </trkpt>
      <trkpt lat="47.557907" lon="2.2484102">
        <ele>175</ele>
        <time>2022-06-09T07:29:16Z</time>
      </trkpt>
      <trkpt lat="47.557896" lon="2.2483928">
        <ele>175</ele>
        <time>2022-06-09T07:29:17Z</time>
      </trkpt>
      <trkpt lat="47.557888" lon="2.248376">
        <ele>175</ele>
        <time>2022-06-09T07:29:18Z</time>
      </trkpt>
      <trkpt lat="47.55788" lon="2.2483623">
        <ele>175</ele>
        <time>2022-06-09T07:29:19Z</time>
      </trkpt>
      <trkpt lat="47.557873" lon="2.2483492">
        <ele>175</ele>
        <time>2022-06-09T07:29:20Z</time>
      </trkpt>
      <trkpt lat="47.55786" lon="2.2483377">
        <ele>175</ele>
        <time>2022-06-09T07:29:21Z</time>
      </trkpt>
      <trkpt lat="47.55785" lon="2.2483273">
        <ele>175</ele>
        <time>2022-06-09T07:29:22Z</time>
      </trkpt>
      <trkpt lat="47.557842" lon="2.2483087">
        <ele>175</ele>
        <time>2022-06-09T07:29:23Z</time>
      </trkpt>
      <trkpt lat="47.55784" lon="2.2482898">
        <ele>175</ele>
        <time>2022-06-09T07:29:24Z</time>
      </trkpt>
      <trkpt lat="47.55783" lon="2.2482798">
        <ele>176</ele>
        <time>2022-06-09T07:29:25Z</time>
      </trkpt>
      <trkpt lat="47.557816" lon="2.248273">
        <ele>176</ele>
        <time>2022-06-09T07:29:26Z</time>
      </trkpt>
      <trkpt lat="47.557808" lon="2.2482653">
        <ele>177</ele>
        <time>2022-06-09T07:29:27Z</time>
      </trkpt>
      <trkpt lat="47.5578" lon="2.2482533">
        <ele>176</ele>
        <time>2022-06-09T07:29:28Z</time>
      </trkpt>
      <trkpt lat="47.557793" lon="2.2482417">
        <ele>176</ele>
        <time>2022-06-09T07:29:29Z</time>
      </trkpt>
      <trkpt lat="47.55778" lon="2.2482293">
        <ele>176</ele>
        <time>2022-06-09T07:29:30Z</time>
      </trkpt>
      <trkpt lat="47.557766" lon="2.248218">
        <ele>176</ele>
        <time>2022-06-09T07:29:31Z</time>
      </trkpt>
      <trkpt lat="47.55775" lon="2.2482064">
        <ele>175</ele>
        <time>2022-06-09T07:29:32Z</time>
      </trkpt>
      <trkpt lat="47.557743" lon="2.2481923">
        <ele>175</ele>
        <time>2022-06-09T07:29:33Z</time>
      </trkpt>
      <trkpt lat="47.55773" lon="2.2481778">
        <ele>175</ele>
        <time>2022-06-09T07:29:34Z</time>
      </trkpt>
      <trkpt lat="47.557724" lon="2.2481596">
        <ele>175</ele>
        <time>2022-06-09T07:29:35Z</time>
      </trkpt>
      <trkpt lat="47.557713" lon="2.248148">
        <ele>176</ele>
        <time>2022-06-09T07:29:36Z</time>
      </trkpt>
      <trkpt lat="47.5577" lon="2.2481372">
        <ele>176</ele>
        <time>2022-06-09T07:29:37Z</time>
      </trkpt>
      <trkpt lat="47.557693" lon="2.2481346">
        <ele>177</ele>
        <time>2022-06-09T07:29:38Z</time>
      </trkpt>
      <trkpt lat="47.557686" lon="2.2481275">
        <ele>177</ele>
        <time>2022-06-09T07:29:39Z</time>
      </trkpt>
      <trkpt lat="47.557674" lon="2.248118">
        <ele>177</ele>
        <time>2022-06-09T07:29:40Z</time>
      </trkpt>
      <trkpt lat="47.557667" lon="2.2481065">
        <ele>177</ele>
        <time>2022-06-09T07:29:41Z</time>
      </trkpt>
      <trkpt lat="47.557663" lon="2.2480993">
        <ele>178</ele>
        <time>2022-06-09T07:29:42Z</time>
      </trkpt>
      <trkpt lat="47.55766" lon="2.2480934">
        <ele>178</ele>
        <time>2022-06-09T07:29:43Z</time>
      </trkpt>
      <trkpt lat="47.55765" lon="2.2480872">
        <ele>178</ele>
        <time>2022-06-09T07:29:44Z</time>
      </trkpt>
      <trkpt lat="47.557636" lon="2.2480755">
        <ele>178</ele>
        <time>2022-06-09T07:29:45Z</time>
      </trkpt>
      <trkpt lat="47.55762" lon="2.248059">
        <ele>178</ele>
        <time>2022-06-09T07:29:46Z</time>
      </trkpt>
      <trkpt lat="47.557606" lon="2.248047">
        <ele>178</ele>
        <time>2022-06-09T07:29:47Z</time>
      </trkpt>
      <trkpt lat="47.557594" lon="2.248033">
        <ele>178</ele>
        <time>2022-06-09T07:29:48Z</time>
      </trkpt>
      <trkpt lat="47.557583" lon="2.2480204">
        <ele>178</ele>
        <time>2022-06-09T07:29:49Z</time>
      </trkpt>
      <trkpt lat="47.557568" lon="2.2480097">
        <ele>178</ele>
        <time>2022-06-09T07:29:50Z</time>
      </trkpt>
      <trkpt lat="47.557552" lon="2.2479994">
        <ele>179</ele>
        <time>2022-06-09T07:29:51Z</time>
      </trkpt>
      <trkpt lat="47.557533" lon="2.247991">
        <ele>179</ele>
        <time>2022-06-09T07:29:52Z</time>
      </trkpt>
      <trkpt lat="47.55752" lon="2.2479837">
        <ele>179</ele>
        <time>2022-06-09T07:29:53Z</time>
      </trkpt>
      <trkpt lat="47.557507" lon="2.2479753">
        <ele>179</ele>
        <time>2022-06-09T07:29:54Z</time>
      </trkpt>
      <trkpt lat="47.557495" lon="2.247967">
        <ele>179</ele>
        <time>2022-06-09T07:29:55Z</time>
      </trkpt>
      <trkpt lat="47.557484" lon="2.2479553">
        <ele>179</ele>
        <time>2022-06-09T07:29:56Z</time>
      </trkpt>
      <trkpt lat="47.55747" lon="2.2479486">
        <ele>179</ele>
        <time>2022-06-09T07:29:57Z</time>
      </trkpt>
      <trkpt lat="47.557457" lon="2.2479393">
        <ele>179</ele>
        <time>2022-06-09T07:29:58Z</time>
      </trkpt>
      <trkpt lat="47.55745" lon="2.247932">
        <ele>178</ele>
        <time>2022-06-09T07:29:59Z</time>
      </trkpt>
      <trkpt lat="47.557434" lon="2.2479205">
        <ele>178</ele>
        <time>2022-06-09T07:30:00Z</time>
      </trkpt>
      <trkpt lat="47.55742" lon="2.2479122">
        <ele>177</ele>
        <time>2022-06-09T07:30:01Z</time>
      </trkpt>
      <trkpt lat="47.557407" lon="2.2479026">
        <ele>178</ele>
        <time>2022-06-09T07:30:02Z</time>
      </trkpt>
      <trkpt lat="47.5574" lon="2.2478926">
        <ele>178</ele>
        <time>2022-06-09T07:30:03Z</time>
      </trkpt>
      <trkpt lat="47.55739" lon="2.247886">
        <ele>177</ele>
        <time>2022-06-09T07:30:04Z</time>
      </trkpt>
      <trkpt lat="47.557377" lon="2.24788">
        <ele>178</ele>
        <time>2022-06-09T07:30:05Z</time>
      </trkpt>
      <trkpt lat="47.55737" lon="2.2478719">
        <ele>178</ele>
        <time>2022-06-09T07:30:06Z</time>
      </trkpt>
      <trkpt lat="47.557358" lon="2.2478654">
        <ele>177</ele>
        <time>2022-06-09T07:30:07Z</time>
      </trkpt>
      <trkpt lat="47.557346" lon="2.2478626">
        <ele>178</ele>
        <time>2022-06-09T07:30:08Z</time>
      </trkpt>
      <trkpt lat="47.557335" lon="2.247856">
        <ele>178</ele>
        <time>2022-06-09T07:30:09Z</time>
      </trkpt>
      <trkpt lat="47.557323" lon="2.2478473">
        <ele>178</ele>
        <time>2022-06-09T07:30:10Z</time>
      </trkpt>
      <trkpt lat="47.557312" lon="2.247848">
        <ele>178</ele>
        <time>2022-06-09T07:30:11Z</time>
      </trkpt>
      <trkpt lat="47.557304" lon="2.2478452">
        <ele>177</ele>
        <time>2022-06-09T07:30:12Z</time>
      </trkpt>
      <trkpt lat="47.557293" lon="2.2478418">
        <ele>177</ele>
        <time>2022-06-09T07:30:13Z</time>
      </trkpt>
      <trkpt lat="47.557278" lon="2.247835">
        <ele>176</ele>
        <time>2022-06-09T07:30:14Z</time>
      </trkpt>
      <trkpt lat="47.55727" lon="2.2478273">
        <ele>176</ele>
        <time>2022-06-09T07:30:15Z</time>
      </trkpt>
      <trkpt lat="47.55726" lon="2.2478278">
        <ele>176</ele>
        <time>2022-06-09T07:30:16Z</time>
      </trkpt>
      <trkpt lat="47.557247" lon="2.24782">
        <ele>176</ele>
        <time>2022-06-09T07:30:17Z</time>
      </trkpt>
      <trkpt lat="47.557236" lon="2.2478127">
        <ele>175</ele>
        <time>2022-06-09T07:30:18Z</time>
      </trkpt>
      <trkpt lat="47.557224" lon="2.247805">
        <ele>175</ele>
        <time>2022-06-09T07:30:19Z</time>
      </trkpt>
      <trkpt lat="47.557217" lon="2.2477944">
        <ele>175</ele>
        <time>2022-06-09T07:30:20Z</time>
      </trkpt>
      <trkpt lat="47.55721" lon="2.247784">
        <ele>175</ele>
        <time>2022-06-09T07:30:21Z</time>
      </trkpt>
      <trkpt lat="47.5572" lon="2.247774">
        <ele>175</ele>
        <time>2022-06-09T07:30:22Z</time>
      </trkpt>
      <trkpt lat="47.557194" lon="2.2477674">
        <ele>175</ele>
        <time>2022-06-09T07:30:23Z</time>
      </trkpt>
      <trkpt lat="47.557186" lon="2.247759">
        <ele>175</ele>
        <time>2022-06-09T07:30:24Z</time>
      </trkpt>
      <trkpt lat="47.55718" lon="2.2477543">
        <ele>175</ele>
        <time>2022-06-09T07:30:25Z</time>
      </trkpt>
      <trkpt lat="47.55717" lon="2.247748">
        <ele>175</ele>
        <time>2022-06-09T07:30:26Z</time>
      </trkpt>
      <trkpt lat="47.55716" lon="2.2477345">
        <ele>175</ele>
        <time>2022-06-09T07:30:27Z</time>
      </trkpt>
      <trkpt lat="47.557148" lon="2.24773">
        <ele>175</ele>
        <time>2022-06-09T07:30:28Z</time>
      </trkpt>
      <trkpt lat="47.557137" lon="2.2477226">
        <ele>176</ele>
        <time>2022-06-09T07:30:29Z</time>
      </trkpt>
      <trkpt lat="47.55713" lon="2.2477174">
        <ele>176</ele>
        <time>2022-06-09T07:30:30Z</time>
      </trkpt>
      <trkpt lat="47.557125" lon="2.2477093">
        <ele>176</ele>
        <time>2022-06-09T07:30:31Z</time>
      </trkpt>
      <trkpt lat="47.557117" lon="2.247701">
        <ele>176</ele>
        <time>2022-06-09T07:30:32Z</time>
      </trkpt>
      <trkpt lat="47.557106" lon="2.2476935">
        <ele>177</ele>
        <time>2022-06-09T07:30:33Z</time>
      </trkpt>
      <trkpt lat="47.557095" lon="2.2476838">
        <ele>178</ele>
        <time>2022-06-09T07:30:34Z</time>
      </trkpt>
      <trkpt lat="47.557083" lon="2.2476778">
        <ele>178</ele>
        <time>2022-06-09T07:30:35Z</time>
      </trkpt>
      <trkpt lat="47.55707" lon="2.2476711">
        <ele>178</ele>
        <time>2022-06-09T07:30:36Z</time>
      </trkpt>
      <trkpt lat="47.55706" lon="2.2476673">
        <ele>178</ele>
        <time>2022-06-09T07:30:37Z</time>
      </trkpt>
      <trkpt lat="47.557053" lon="2.2476635">
        <ele>178</ele>
        <time>2022-06-09T07:30:38Z</time>
      </trkpt>
      <trkpt lat="47.557037" lon="2.2476547">
        <ele>178</ele>
        <time>2022-06-09T07:30:39Z</time>
      </trkpt>
      <trkpt lat="47.557026" lon="2.2476463">
        <ele>178</ele>
        <time>2022-06-09T07:30:40Z</time>
      </trkpt>
      <trkpt lat="47.55702" lon="2.2476327">
        <ele>178</ele>
        <time>2022-06-09T07:30:41Z</time>
      </trkpt>
      <trkpt lat="47.557007" lon="2.2476192">
        <ele>178</ele>
        <time>2022-06-09T07:30:42Z</time>
      </trkpt>
      <trkpt lat="47.557" lon="2.2476118">
        <ele>178</ele>
        <time>2022-06-09T07:30:43Z</time>
      </trkpt>
      <trkpt lat="47.556988" lon="2.2476017">
        <ele>178</ele>
        <time>2022-06-09T07:30:44Z</time>
      </trkpt>
      <trkpt lat="47.556976" lon="2.2475905">
        <ele>178</ele>
        <time>2022-06-09T07:30:45Z</time>
      </trkpt>
      <trkpt lat="47.556965" lon="2.2475781">
        <ele>178</ele>
        <time>2022-06-09T07:30:46Z</time>
      </trkpt>
      <trkpt lat="47.55695" lon="2.2475677">
        <ele>178</ele>
        <time>2022-06-09T07:30:47Z</time>
      </trkpt>
      <trkpt lat="47.556942" lon="2.2475586">
        <ele>178</ele>
        <time>2022-06-09T07:30:48Z</time>
      </trkpt>
      <trkpt lat="47.55693" lon="2.2475529">
        <ele>178</ele>
        <time>2022-06-09T07:30:49Z</time>
      </trkpt>
      <trkpt lat="47.556923" lon="2.247547">
        <ele>178</ele>
        <time>2022-06-09T07:30:50Z</time>
      </trkpt>
      <trkpt lat="47.556915" lon="2.2475405">
        <ele>178</ele>
        <time>2022-06-09T07:30:51Z</time>
      </trkpt>
      <trkpt lat="47.556904" lon="2.2475328">
        <ele>178</ele>
        <time>2022-06-09T07:30:52Z</time>
      </trkpt>
      <trkpt lat="47.556896" lon="2.2475243">
        <ele>178</ele>
        <time>2022-06-09T07:30:53Z</time>
      </trkpt>
      <trkpt lat="47.556885" lon="2.2475147">
        <ele>177</ele>
        <time>2022-06-09T07:30:54Z</time>
      </trkpt>
      <trkpt lat="47.556877" lon="2.2475057">
        <ele>177</ele>
        <time>2022-06-09T07:30:55Z</time>
      </trkpt>
      <trkpt lat="47.556866" lon="2.247495">
        <ele>178</ele>
        <time>2022-06-09T07:30:56Z</time>
      </trkpt>
      <trkpt lat="47.556858" lon="2.2474825">
        <ele>178</ele>
        <time>2022-06-09T07:30:57Z</time>
      </trkpt>
      <trkpt lat="47.55685" lon="2.247474">
        <ele>178</ele>
        <time>2022-06-09T07:30:58Z</time>
      </trkpt>
      <trkpt lat="47.55684" lon="2.247461">
        <ele>178</ele>
        <time>2022-06-09T07:30:59Z</time>
      </trkpt>
      <trkpt lat="47.556828" lon="2.2474465">
        <ele>179</ele>
        <time>2022-06-09T07:31:00Z</time>
      </trkpt>
      <trkpt lat="47.556816" lon="2.247439">
        <ele>179</ele>
        <time>2022-06-09T07:31:01Z</time>
      </trkpt>
      <trkpt lat="47.556805" lon="2.2474325">
        <ele>179</ele>
        <time>2022-06-09T07:31:02Z</time>
      </trkpt>
      <trkpt lat="47.55679" lon="2.247423">
        <ele>179</ele>
        <time>2022-06-09T07:31:03Z</time>
      </trkpt>
      <trkpt lat="47.55678" lon="2.2474132">
        <ele>178</ele>
        <time>2022-06-09T07:31:04Z</time>
      </trkpt>
      <trkpt lat="47.556778" lon="2.2474048">
        <ele>178</ele>
        <time>2022-06-09T07:31:05Z</time>
      </trkpt>
      <trkpt lat="47.556767" lon="2.2473998">
        <ele>178</ele>
        <time>2022-06-09T07:31:06Z</time>
      </trkpt>
      <trkpt lat="47.55676" lon="2.247398">
        <ele>178</ele>
        <time>2022-06-09T07:31:07Z</time>
      </trkpt>
      <trkpt lat="47.556747" lon="2.2473936">
        <ele>179</ele>
        <time>2022-06-09T07:31:08Z</time>
      </trkpt>
      <trkpt lat="47.55674" lon="2.2473857">
        <ele>180</ele>
        <time>2022-06-09T07:31:09Z</time>
      </trkpt>
      <trkpt lat="47.55673" lon="2.2473798">
        <ele>180</ele>
        <time>2022-06-09T07:31:10Z</time>
      </trkpt>
      <trkpt lat="47.556717" lon="2.2473707">
        <ele>180</ele>
        <time>2022-06-09T07:31:11Z</time>
      </trkpt>
      <trkpt lat="47.5567" lon="2.2473567">
        <ele>179</ele>
        <time>2022-06-09T07:31:12Z</time>
      </trkpt>
      <trkpt lat="47.556686" lon="2.2473452">
        <ele>179</ele>
        <time>2022-06-09T07:31:13Z</time>
      </trkpt>
      <trkpt lat="47.556675" lon="2.2473328">
        <ele>179</ele>
        <time>2022-06-09T07:31:14Z</time>
      </trkpt>
      <trkpt lat="47.55666" lon="2.2473218">
        <ele>179</ele>
        <time>2022-06-09T07:31:15Z</time>
      </trkpt>
      <trkpt lat="47.556652" lon="2.2473128">
        <ele>180</ele>
        <time>2022-06-09T07:31:16Z</time>
      </trkpt>
      <trkpt lat="47.556637" lon="2.2473047">
        <ele>179</ele>
        <time>2022-06-09T07:31:17Z</time>
      </trkpt>
      <trkpt lat="47.55662" lon="2.2472992">
        <ele>180</ele>
        <time>2022-06-09T07:31:18Z</time>
      </trkpt>
      <trkpt lat="47.55661" lon="2.2472897">
        <ele>180</ele>
        <time>2022-06-09T07:31:19Z</time>
      </trkpt>
      <trkpt lat="47.5566" lon="2.2472854">
        <ele>179</ele>
        <time>2022-06-09T07:31:20Z</time>
      </trkpt>
      <trkpt lat="47.55659" lon="2.2472782">
        <ele>179</ele>
        <time>2022-06-09T07:31:21Z</time>
      </trkpt>
      <trkpt lat="47.55658" lon="2.2472718">
        <ele>179</ele>
        <time>2022-06-09T07:31:22Z</time>
      </trkpt>
      <trkpt lat="47.556572" lon="2.2472663">
        <ele>180</ele>
        <time>2022-06-09T07:31:23Z</time>
      </trkpt>
      <trkpt lat="47.556564" lon="2.2472687">
        <ele>180</ele>
        <time>2022-06-09T07:31:24Z</time>
      </trkpt>
      <trkpt lat="47.55656" lon="2.2472692">
        <ele>180</ele>
        <time>2022-06-09T07:31:25Z</time>
      </trkpt>
      <trkpt lat="47.556553" lon="2.2472649">
        <ele>180</ele>
        <time>2022-06-09T07:31:26Z</time>
      </trkpt>
      <trkpt lat="47.556545" lon="2.247259">
        <ele>180</ele>
        <time>2022-06-09T07:31:27Z</time>
      </trkpt>
      <trkpt lat="47.556534" lon="2.2472496">
        <ele>180</ele>
        <time>2022-06-09T07:31:28Z</time>
      </trkpt>
      <trkpt lat="47.556526" lon="2.2472363">
        <ele>180</ele>
        <time>2022-06-09T07:31:29Z</time>
      </trkpt>
      <trkpt lat="47.556515" lon="2.247222">
        <ele>180</ele>
        <time>2022-06-09T07:31:30Z</time>
      </trkpt>
      <trkpt lat="47.5565" lon="2.2472126">
        <ele>180</ele>
        <time>2022-06-09T07:31:31Z</time>
      </trkpt>
      <trkpt lat="47.55649" lon="2.2471979">
        <ele>180</ele>
        <time>2022-06-09T07:31:32Z</time>
      </trkpt>
      <trkpt lat="47.55648" lon="2.2471852">
        <ele>180</ele>
        <time>2022-06-09T07:31:33Z</time>
      </trkpt>
      <trkpt lat="47.55647" lon="2.247176">
        <ele>180</ele>
        <time>2022-06-09T07:31:34Z</time>
      </trkpt>
      <trkpt lat="47.556458" lon="2.2471676">
        <ele>180</ele>
        <time>2022-06-09T07:31:35Z</time>
      </trkpt>
      <trkpt lat="47.556446" lon="2.2471647">
        <ele>180</ele>
        <time>2022-06-09T07:31:36Z</time>
      </trkpt>
      <trkpt lat="47.55643" lon="2.247159">
        <ele>180</ele>
        <time>2022-06-09T07:31:37Z</time>
      </trkpt>
      <trkpt lat="47.556416" lon="2.2471492">
        <ele>180</ele>
        <time>2022-06-09T07:31:38Z</time>
      </trkpt>
      <trkpt lat="47.556404" lon="2.2471402">
        <ele>180</ele>
        <time>2022-06-09T07:31:39Z</time>
      </trkpt>
      <trkpt lat="47.556393" lon="2.247135">
        <ele>181</ele>
        <time>2022-06-09T07:31:40Z</time>
      </trkpt>
      <trkpt lat="47.55638" lon="2.2471235">
        <ele>180</ele>
        <time>2022-06-09T07:31:41Z</time>
      </trkpt>
      <trkpt lat="47.556366" lon="2.247112">
        <ele>180</ele>
        <time>2022-06-09T07:31:42Z</time>
      </trkpt>
      <trkpt lat="47.55635" lon="2.2471063">
        <ele>180</ele>
        <time>2022-06-09T07:31:43Z</time>
      </trkpt>
      <trkpt lat="47.55634" lon="2.2471046">
        <ele>179</ele>
        <time>2022-06-09T07:31:44Z</time>
      </trkpt>
      <trkpt lat="47.556328" lon="2.2470987">
        <ele>179</ele>
        <time>2022-06-09T07:31:45Z</time>
      </trkpt>
      <trkpt lat="47.55632" lon="2.2470922">
        <ele>179</ele>
        <time>2022-06-09T07:31:46Z</time>
      </trkpt>
      <trkpt lat="47.55631" lon="2.2470798">
        <ele>180</ele>
        <time>2022-06-09T07:31:47Z</time>
      </trkpt>
      <trkpt lat="47.556297" lon="2.2470684">
        <ele>180</ele>
        <time>2022-06-09T07:31:48Z</time>
      </trkpt>
      <trkpt lat="47.55629" lon="2.2470586">
        <ele>180</ele>
        <time>2022-06-09T07:31:49Z</time>
      </trkpt>
      <trkpt lat="47.55628" lon="2.2470574">
        <ele>180</ele>
        <time>2022-06-09T07:31:50Z</time>
      </trkpt>
      <trkpt lat="47.556274" lon="2.2470496">
        <ele>181</ele>
        <time>2022-06-09T07:31:51Z</time>
      </trkpt>
      <trkpt lat="47.55627" lon="2.2470484">
        <ele>181</ele>
        <time>2022-06-09T07:31:52Z</time>
      </trkpt>
      <trkpt lat="47.556267" lon="2.2470396">
        <ele>181</ele>
        <time>2022-06-09T07:31:53Z</time>
      </trkpt>
      <trkpt lat="47.556255" lon="2.247025">
        <ele>182</ele>
        <time>2022-06-09T07:31:54Z</time>
      </trkpt>
      <trkpt lat="47.556244" lon="2.2470167">
        <ele>181</ele>
        <time>2022-06-09T07:31:55Z</time>
      </trkpt>
      <trkpt lat="47.55623" lon="2.2470052">
        <ele>181</ele>
        <time>2022-06-09T07:31:56Z</time>
      </trkpt>
      <trkpt lat="47.55622" lon="2.247">
        <ele>181</ele>
        <time>2022-06-09T07:31:57Z</time>
      </trkpt>
      <trkpt lat="47.55621" lon="2.2469895">
        <ele>181</ele>
        <time>2022-06-09T07:31:58Z</time>
      </trkpt>
      <trkpt lat="47.5562" lon="2.2469795">
        <ele>182</ele>
        <time>2022-06-09T07:31:59Z</time>
      </trkpt>
      <trkpt lat="47.55619" lon="2.2469711">
        <ele>182</ele>
        <time>2022-06-09T07:32:00Z</time>
      </trkpt>
      <trkpt lat="47.55618" lon="2.2469594">
        <ele>182</ele>
        <time>2022-06-09T07:32:01Z</time>
      </trkpt>
      <trkpt lat="47.556168" lon="2.246951">
        <ele>182</ele>
        <time>2022-06-09T07:32:02Z</time>
      </trkpt>
      <trkpt lat="47.556156" lon="2.2469423">
        <ele>182</ele>
        <time>2022-06-09T07:32:03Z</time>
      </trkpt>
      <trkpt lat="47.556145" lon="2.2469316">
        <ele>182</ele>
        <time>2022-06-09T07:32:04Z</time>
      </trkpt>
      <trkpt lat="47.556133" lon="2.2469215">
        <ele>183</ele>
        <time>2022-06-09T07:32:05Z</time>
      </trkpt>
      <trkpt lat="47.556126" lon="2.2469084">
        <ele>184</ele>
        <time>2022-06-09T07:32:06Z</time>
      </trkpt>
      <trkpt lat="47.556114" lon="2.2469008">
        <ele>184</ele>
        <time>2022-06-09T07:32:07Z</time>
      </trkpt>
      <trkpt lat="47.556107" lon="2.2468946">
        <ele>184</ele>
        <time>2022-06-09T07:32:08Z</time>
      </trkpt>
      <trkpt lat="47.556103" lon="2.2468874">
        <ele>184</ele>
        <time>2022-06-09T07:32:09Z</time>
      </trkpt>
      <trkpt lat="47.556103" lon="2.2468762">
        <ele>184</ele>
        <time>2022-06-09T07:32:10Z</time>
      </trkpt>
      <trkpt lat="47.556095" lon="2.2468612">
        <ele>185</ele>
        <time>2022-06-09T07:32:11Z</time>
      </trkpt>
      <trkpt lat="47.556087" lon="2.2468495">
        <ele>185</ele>
        <time>2022-06-09T07:32:12Z</time>
      </trkpt>
      <trkpt lat="47.55608" lon="2.2468374">
        <ele>185</ele>
        <time>2022-06-09T07:32:13Z</time>
      </trkpt>
      <trkpt lat="47.55607" lon="2.2468257">
        <ele>185</ele>
        <time>2022-06-09T07:32:14Z</time>
      </trkpt>
      <trkpt lat="47.55606" lon="2.2468147">
        <ele>184</ele>
        <time>2022-06-09T07:32:15Z</time>
      </trkpt>
      <trkpt lat="47.55605" lon="2.2468057">
        <ele>185</ele>
        <time>2022-06-09T07:32:16Z</time>
      </trkpt>
      <trkpt lat="47.55604" lon="2.2467916">
        <ele>184</ele>
        <time>2022-06-09T07:32:17Z</time>
      </trkpt>
      <trkpt lat="47.55603" lon="2.2467813">
        <ele>184</ele>
        <time>2022-06-09T07:32:18Z</time>
      </trkpt>
      <trkpt lat="47.55602" lon="2.2467701">
        <ele>185</ele>
        <time>2022-06-09T07:32:19Z</time>
      </trkpt>
      <trkpt lat="47.55601" lon="2.246761">
        <ele>185</ele>
        <time>2022-06-09T07:32:20Z</time>
      </trkpt>
      <trkpt lat="47.556" lon="2.2467484">
        <ele>184</ele>
        <time>2022-06-09T07:32:21Z</time>
      </trkpt>
      <trkpt lat="47.55599" lon="2.2467344">
        <ele>185</ele>
        <time>2022-06-09T07:32:22Z</time>
      </trkpt>
      <trkpt lat="47.555977" lon="2.2467232">
        <ele>184</ele>
        <time>2022-06-09T07:32:23Z</time>
      </trkpt>
      <trkpt lat="47.55597" lon="2.2467108">
        <ele>184</ele>
        <time>2022-06-09T07:32:24Z</time>
      </trkpt>
      <trkpt lat="47.55596" lon="2.2467003">
        <ele>184</ele>
        <time>2022-06-09T07:32:25Z</time>
      </trkpt>
      <trkpt lat="47.555954" lon="2.2466877">
        <ele>184</ele>
        <time>2022-06-09T07:32:26Z</time>
      </trkpt>
      <trkpt lat="47.555946" lon="2.2466726">
        <ele>184</ele>
        <time>2022-06-09T07:32:27Z</time>
      </trkpt>
      <trkpt lat="47.555935" lon="2.246667">
        <ele>185</ele>
        <time>2022-06-09T07:32:28Z</time>
      </trkpt>
      <trkpt lat="47.555923" lon="2.2466593">
        <ele>185</ele>
        <time>2022-06-09T07:32:29Z</time>
      </trkpt>
      <trkpt lat="47.555916" lon="2.2466488">
        <ele>185</ele>
        <time>2022-06-09T07:32:30Z</time>
      </trkpt>
      <trkpt lat="47.555904" lon="2.2466366">
        <ele>186</ele>
        <time>2022-06-09T07:32:31Z</time>
      </trkpt>
      <trkpt lat="47.555893" lon="2.2466295">
        <ele>186</ele>
        <time>2022-06-09T07:32:32Z</time>
      </trkpt>
      <trkpt lat="47.555885" lon="2.2466216">
        <ele>186</ele>
        <time>2022-06-09T07:32:33Z</time>
      </trkpt>
      <trkpt lat="47.555878" lon="2.2466156">
        <ele>186</ele>
        <time>2022-06-09T07:32:34Z</time>
      </trkpt>
      <trkpt lat="47.55588" lon="2.2466083">
        <ele>187</ele>
        <time>2022-06-09T07:32:35Z</time>
      </trkpt>
      <trkpt lat="47.555878" lon="2.2466023">
        <ele>186</ele>
        <time>2022-06-09T07:32:36Z</time>
      </trkpt>
      <trkpt lat="47.55587" lon="2.246592">
        <ele>186</ele>
        <time>2022-06-09T07:32:37Z</time>
      </trkpt>
      <trkpt lat="47.55586" lon="2.2465832">
        <ele>186</ele>
        <time>2022-06-09T07:32:38Z</time>
      </trkpt>
      <trkpt lat="47.55585" lon="2.2465777">
        <ele>186</ele>
        <time>2022-06-09T07:32:39Z</time>
      </trkpt>
      <trkpt lat="47.555847" lon="2.2465754">
        <ele>186</ele>
        <time>2022-06-09T07:32:40Z</time>
      </trkpt>
      <trkpt lat="47.555836" lon="2.2465694">
        <ele>186</ele>
        <time>2022-06-09T07:32:41Z</time>
      </trkpt>
      <trkpt lat="47.55583" lon="2.2465591">
        <ele>186</ele>
        <time>2022-06-09T07:32:42Z</time>
      </trkpt>
      <trkpt lat="47.555817" lon="2.2465508">
        <ele>186</ele>
        <time>2022-06-09T07:32:43Z</time>
      </trkpt>
      <trkpt lat="47.555813" lon="2.246542">
        <ele>187</ele>
        <time>2022-06-09T07:32:44Z</time>
      </trkpt>
      <trkpt lat="47.555805" lon="2.2465305">
        <ele>187</ele>
        <time>2022-06-09T07:32:45Z</time>
      </trkpt>
      <trkpt lat="47.5558" lon="2.246517">
        <ele>187</ele>
        <time>2022-06-09T07:32:46Z</time>
      </trkpt>
      <trkpt lat="47.5558" lon="2.246517">
        <ele>187</ele>
        <time>2022-06-09T07:32:47Z</time>
      </trkpt>
      <trkpt lat="47.5558" lon="2.246517">
        <ele>187</ele>
        <time>2022-06-09T07:32:48Z</time>
      </trkpt>
      <trkpt lat="47.5558" lon="2.246517">
        <ele>187</ele>
        <time>2022-06-09T07:32:49Z</time>
      </trkpt>
      <trkpt lat="47.5558" lon="2.246517">
        <ele>187</ele>
        <time>2022-06-09T07:32:50Z</time>
      </trkpt>
      <trkpt lat="47.5558" lon="2.246517">
        <ele>187</ele>
        <time>2022-06-09T07:32:51Z</time>
      </trkpt>
      <trkpt lat="47.5558" lon="2.246517">
        <ele>187</ele>
        <time>2022-06-09T07:32:51Z</time>
      </trkpt>
      <trkpt lat="47.5558" lon="2.246517">
        <ele>187</ele>
        <time>2022-06-09T07:32:51Z</time>
      </trkpt>
      <trkpt lat="47.555756" lon="2.2464645">
        <ele>187</ele>
        <time>2022-06-09T07:33:03Z</time>
      </trkpt>
      <trkpt lat="47.555748" lon="2.2464592">
        <ele>187</ele>
        <time>2022-06-09T07:33:04Z</time>
      </trkpt>
      <trkpt lat="47.55574" lon="2.2464492">
        <ele>187</ele>
        <time>2022-06-09T07:33:05Z</time>
      </trkpt>
      <trkpt lat="47.55573" lon="2.2464387">
        <ele>187</ele>
        <time>2022-06-09T07:33:06Z</time>
      </trkpt>
      <trkpt lat="47.55572" lon="2.2464297">
        <ele>186</ele>
        <time>2022-06-09T07:33:07Z</time>
      </trkpt>
      <trkpt lat="47.555714" lon="2.2464218">
        <ele>186</ele>
        <time>2022-06-09T07:33:08Z</time>
      </trkpt>
      <trkpt lat="47.555706" lon="2.246415">
        <ele>186</ele>
        <time>2022-06-09T07:33:09Z</time>
      </trkpt>
      <trkpt lat="47.555695" lon="2.2464066">
        <ele>186</ele>
        <time>2022-06-09T07:33:10Z</time>
      </trkpt>
      <trkpt lat="47.555683" lon="2.2464013">
        <ele>185</ele>
        <time>2022-06-09T07:33:11Z</time>
      </trkpt>
      <trkpt lat="47.555676" lon="2.246395">
        <ele>185</ele>
        <time>2022-06-09T07:33:12Z</time>
      </trkpt>
      <trkpt lat="47.555668" lon="2.2463875">
        <ele>185</ele>
        <time>2022-06-09T07:33:13Z</time>
      </trkpt>
      <trkpt lat="47.55566" lon="2.2463784">
        <ele>185</ele>
        <time>2022-06-09T07:33:14Z</time>
      </trkpt>
      <trkpt lat="47.555656" lon="2.2463684">
        <ele>185</ele>
        <time>2022-06-09T07:33:15Z</time>
      </trkpt>
      <trkpt lat="47.555653" lon="2.2463596">
        <ele>185</ele>
        <time>2022-06-09T07:33:16Z</time>
      </trkpt>
      <trkpt lat="47.555653" lon="2.2463477">
        <ele>185</ele>
        <time>2022-06-09T07:33:17Z</time>
      </trkpt>
      <trkpt lat="47.55565" lon="2.246338">
        <ele>184</ele>
        <time>2022-06-09T07:33:18Z</time>
      </trkpt>
      <trkpt lat="47.55564" lon="2.246326">
        <ele>184</ele>
        <time>2022-06-09T07:33:19Z</time>
      </trkpt>
      <trkpt lat="47.555634" lon="2.2463117">
        <ele>184</ele>
        <time>2022-06-09T07:33:20Z</time>
      </trkpt>
      <trkpt lat="47.555626" lon="2.2462993">
        <ele>184</ele>
        <time>2022-06-09T07:33:21Z</time>
      </trkpt>
      <trkpt lat="47.555614" lon="2.2462883">
        <ele>183</ele>
        <time>2022-06-09T07:33:22Z</time>
      </trkpt>
      <trkpt lat="47.555607" lon="2.2462792">
        <ele>183</ele>
        <time>2022-06-09T07:33:23Z</time>
      </trkpt>
      <trkpt lat="47.5556" lon="2.2462728">
        <ele>183</ele>
        <time>2022-06-09T07:33:24Z</time>
      </trkpt>
      <trkpt lat="47.555588" lon="2.2462597">
        <ele>183</ele>
        <time>2022-06-09T07:33:25Z</time>
      </trkpt>
      <trkpt lat="47.555588" lon="2.2462597">
        <ele>183</ele>
        <time>2022-06-09T07:33:26Z</time>
      </trkpt>
      <trkpt lat="47.555573" lon="2.2462478">
        <ele>182</ele>
        <time>2022-06-09T07:33:27Z</time>
      </trkpt>
      <trkpt lat="47.55557" lon="2.246243">
        <ele>182</ele>
        <time>2022-06-09T07:33:28Z</time>
      </trkpt>
      <trkpt lat="47.555557" lon="2.2462351">
        <ele>181</ele>
        <time>2022-06-09T07:33:29Z</time>
      </trkpt>
      <trkpt lat="47.55555" lon="2.2462265">
        <ele>181</ele>
        <time>2022-06-09T07:33:30Z</time>
      </trkpt>
      <trkpt lat="47.55554" lon="2.2462163">
        <ele>181</ele>
        <time>2022-06-09T07:33:31Z</time>
      </trkpt>
      <trkpt lat="47.55553" lon="2.2462022">
        <ele>180</ele>
        <time>2022-06-09T07:33:32Z</time>
      </trkpt>
      <trkpt lat="47.55552" lon="2.2461774">
        <ele>180</ele>
        <time>2022-06-09T07:33:33Z</time>
      </trkpt>
      <trkpt lat="47.555504" lon="2.246155">
        <ele>179</ele>
        <time>2022-06-09T07:33:34Z</time>
      </trkpt>
      <trkpt lat="47.555496" lon="2.2461355">
        <ele>179</ele>
        <time>2022-06-09T07:33:35Z</time>
      </trkpt>
      <trkpt lat="47.55549" lon="2.246115">
        <ele>179</ele>
        <time>2022-06-09T07:33:36Z</time>
      </trkpt>
      <trkpt lat="47.555477" lon="2.2460942">
        <ele>180</ele>
        <time>2022-06-09T07:33:37Z</time>
      </trkpt>
      <trkpt lat="47.555473" lon="2.2460713">
        <ele>180</ele>
        <time>2022-06-09T07:33:38Z</time>
      </trkpt>
      <trkpt lat="47.555466" lon="2.2460601">
        <ele>180</ele>
        <time>2022-06-09T07:33:39Z</time>
      </trkpt>
      <trkpt lat="47.55546" lon="2.2460544">
        <ele>179</ele>
        <time>2022-06-09T07:33:40Z</time>
      </trkpt>
      <trkpt lat="47.555454" lon="2.246044">
        <ele>179</ele>
        <time>2022-06-09T07:33:41Z</time>
      </trkpt>
      <trkpt lat="47.555443" lon="2.2460349">
        <ele>178</ele>
        <time>2022-06-09T07:33:42Z</time>
      </trkpt>
      <trkpt lat="47.55544" lon="2.2460287">
        <ele>178</ele>
        <time>2022-06-09T07:33:43Z</time>
      </trkpt>
      <trkpt lat="47.55543" lon="2.246019">
        <ele>178</ele>
        <time>2022-06-09T07:33:44Z</time>
      </trkpt>
      <trkpt lat="47.555424" lon="2.24601">
        <ele>178</ele>
        <time>2022-06-09T07:33:45Z</time>
      </trkpt>
      <trkpt lat="47.55542" lon="2.246001">
        <ele>178</ele>
        <time>2022-06-09T07:33:46Z</time>
      </trkpt>
      <trkpt lat="47.55541" lon="2.2459888">
        <ele>178</ele>
        <time>2022-06-09T07:33:47Z</time>
      </trkpt>
      <trkpt lat="47.555393" lon="2.2459698">
        <ele>178</ele>
        <time>2022-06-09T07:33:48Z</time>
      </trkpt>
      <trkpt lat="47.555378" lon="2.245953">
        <ele>178</ele>
        <time>2022-06-09T07:33:49Z</time>
      </trkpt>
      <trkpt lat="47.555363" lon="2.2459362">
        <ele>178</ele>
        <time>2022-06-09T07:33:50Z</time>
      </trkpt>
      <trkpt lat="47.55535" lon="2.2459242">
        <ele>177</ele>
        <time>2022-06-09T07:33:51Z</time>
      </trkpt>
      <trkpt lat="47.555332" lon="2.2459123">
        <ele>177</ele>
        <time>2022-06-09T07:33:52Z</time>
      </trkpt>
      <trkpt lat="47.55532" lon="2.2459052">
        <ele>177</ele>
        <time>2022-06-09T07:33:53Z</time>
      </trkpt>
      <trkpt lat="47.555305" lon="2.2458901">
        <ele>178</ele>
        <time>2022-06-09T07:33:54Z</time>
      </trkpt>
      <trkpt lat="47.55529" lon="2.2458777">
        <ele>178</ele>
        <time>2022-06-09T07:33:55Z</time>
      </trkpt>
      <trkpt lat="47.55528" lon="2.2458646">
        <ele>179</ele>
        <time>2022-06-09T07:33:56Z</time>
      </trkpt>
      <trkpt lat="47.555264" lon="2.2458525">
        <ele>179</ele>
        <time>2022-06-09T07:33:57Z</time>
      </trkpt>
      <trkpt lat="47.55525" lon="2.2458332">
        <ele>181</ele>
        <time>2022-06-09T07:33:58Z</time>
      </trkpt>
      <trkpt lat="47.555233" lon="2.245814">
        <ele>181</ele>
        <time>2022-06-09T07:33:59Z</time>
      </trkpt>
      <trkpt lat="47.555214" lon="2.2457983">
        <ele>182</ele>
        <time>2022-06-09T07:34:00Z</time>
      </trkpt>
      <trkpt lat="47.5552" lon="2.2457814">
        <ele>182</ele>
        <time>2022-06-09T07:34:01Z</time>
      </trkpt>
      <trkpt lat="47.555187" lon="2.2457683">
        <ele>182</ele>
        <time>2022-06-09T07:34:02Z</time>
      </trkpt>
      <trkpt lat="47.55518" lon="2.245753">
        <ele>182</ele>
        <time>2022-06-09T07:34:03Z</time>
      </trkpt>
      <trkpt lat="47.555164" lon="2.2457354">
        <ele>182</ele>
        <time>2022-06-09T07:34:04Z</time>
      </trkpt>
      <trkpt lat="47.555153" lon="2.2457204">
        <ele>183</ele>
        <time>2022-06-09T07:34:05Z</time>
      </trkpt>
      <trkpt lat="47.55514" lon="2.2457085">
        <ele>183</ele>
        <time>2022-06-09T07:34:06Z</time>
      </trkpt>
      <trkpt lat="47.555126" lon="2.2456982">
        <ele>183</ele>
        <time>2022-06-09T07:34:07Z</time>
      </trkpt>
      <trkpt lat="47.55511" lon="2.2456896">
        <ele>184</ele>
        <time>2022-06-09T07:34:08Z</time>
      </trkpt>
      <trkpt lat="47.555096" lon="2.2456741">
        <ele>184</ele>
        <time>2022-06-09T07:34:09Z</time>
      </trkpt>
      <trkpt lat="47.555077" lon="2.245658">
        <ele>185</ele>
        <time>2022-06-09T07:34:10Z</time>
      </trkpt>
      <trkpt lat="47.55506" lon="2.2456455">
        <ele>185</ele>
        <time>2022-06-09T07:34:11Z</time>
      </trkpt>
      <trkpt lat="47.55505" lon="2.2456334">
        <ele>185</ele>
        <time>2022-06-09T07:34:12Z</time>
      </trkpt>
      <trkpt lat="47.55504" lon="2.2456255">
        <ele>185</ele>
        <time>2022-06-09T07:34:13Z</time>
      </trkpt>
      <trkpt lat="47.555027" lon="2.2456067">
        <ele>186</ele>
        <time>2022-06-09T07:34:14Z</time>
      </trkpt>
      <trkpt lat="47.555016" lon="2.2455943">
        <ele>186</ele>
        <time>2022-06-09T07:34:15Z</time>
      </trkpt>
      <trkpt lat="47.555" lon="2.245586">
        <ele>186</ele>
        <time>2022-06-09T07:34:16Z</time>
      </trkpt>
      <trkpt lat="47.55499" lon="2.2455764">
        <ele>186</ele>
        <time>2022-06-09T07:34:17Z</time>
      </trkpt>
      <trkpt lat="47.554974" lon="2.2455664">
        <ele>186</ele>
        <time>2022-06-09T07:34:18Z</time>
      </trkpt>
      <trkpt lat="47.55496" lon="2.2455559">
        <ele>187</ele>
        <time>2022-06-09T07:34:19Z</time>
      </trkpt>
      <trkpt lat="47.554947" lon="2.2455416">
        <ele>186</ele>
        <time>2022-06-09T07:34:20Z</time>
      </trkpt>
      <trkpt lat="47.55493" lon="2.245529">
        <ele>187</ele>
        <time>2022-06-09T07:34:21Z</time>
      </trkpt>
      <trkpt lat="47.55492" lon="2.2455144">
        <ele>187</ele>
        <time>2022-06-09T07:34:22Z</time>
      </trkpt>
      <trkpt lat="47.55491" lon="2.2454944">
        <ele>187</ele>
        <time>2022-06-09T07:34:23Z</time>
      </trkpt>
      <trkpt lat="47.554897" lon="2.2454808">
        <ele>187</ele>
        <time>2022-06-09T07:34:24Z</time>
      </trkpt>
      <trkpt lat="47.55489" lon="2.2454689">
        <ele>188</ele>
        <time>2022-06-09T07:34:25Z</time>
      </trkpt>
      <trkpt lat="47.554886" lon="2.2454581">
        <ele>188</ele>
        <time>2022-06-09T07:34:26Z</time>
      </trkpt>
      <trkpt lat="47.554882" lon="2.245449">
        <ele>187</ele>
        <time>2022-06-09T07:34:27Z</time>
      </trkpt>
      <trkpt lat="47.55488" lon="2.2454438">
        <ele>187</ele>
        <time>2022-06-09T07:34:28Z</time>
      </trkpt>
      <trkpt lat="47.554867" lon="2.2454386">
        <ele>186</ele>
        <time>2022-06-09T07:34:29Z</time>
      </trkpt>
      <trkpt lat="47.554855" lon="2.2454333">
        <ele>186</ele>
        <time>2022-06-09T07:34:30Z</time>
      </trkpt>
      <trkpt lat="47.554848" lon="2.2454197">
        <ele>186</ele>
        <time>2022-06-09T07:34:31Z</time>
      </trkpt>
      <trkpt lat="47.554836" lon="2.2454114">
        <ele>185</ele>
        <time>2022-06-09T07:34:32Z</time>
      </trkpt>
      <trkpt lat="47.554825" lon="2.245396">
        <ele>184</ele>
        <time>2022-06-09T07:34:33Z</time>
      </trkpt>
      <trkpt lat="47.554806" lon="2.2453778">
        <ele>183</ele>
        <time>2022-06-09T07:34:34Z</time>
      </trkpt>
      <trkpt lat="47.5548" lon="2.2453678">
        <ele>182</ele>
        <time>2022-06-09T07:34:35Z</time>
      </trkpt>
      <trkpt lat="47.554787" lon="2.2453578">
        <ele>182</ele>
        <time>2022-06-09T07:34:36Z</time>
      </trkpt>
      <trkpt lat="47.554775" lon="2.245343">
        <ele>181</ele>
        <time>2022-06-09T07:34:37Z</time>
      </trkpt>
      <trkpt lat="47.554764" lon="2.2453272">
        <ele>180</ele>
        <time>2022-06-09T07:34:38Z</time>
      </trkpt>
      <trkpt lat="47.554752" lon="2.24531">
        <ele>179</ele>
        <time>2022-06-09T07:34:39Z</time>
      </trkpt>
      <trkpt lat="47.55474" lon="2.2453">
        <ele>179</ele>
        <time>2022-06-09T07:34:40Z</time>
      </trkpt>
      <trkpt lat="47.55473" lon="2.2452855">
        <ele>178</ele>
        <time>2022-06-09T07:34:41Z</time>
      </trkpt>
      <trkpt lat="47.554714" lon="2.2452788">
        <ele>178</ele>
        <time>2022-06-09T07:34:42Z</time>
      </trkpt>
      <trkpt lat="47.554703" lon="2.2452734">
        <ele>178</ele>
        <time>2022-06-09T07:34:43Z</time>
      </trkpt>
      <trkpt lat="47.554695" lon="2.2452717">
        <ele>178</ele>
        <time>2022-06-09T07:34:44Z</time>
      </trkpt>
      <trkpt lat="47.55468" lon="2.2452633">
        <ele>178</ele>
        <time>2022-06-09T07:34:45Z</time>
      </trkpt>
      <trkpt lat="47.55467" lon="2.2452471">
        <ele>178</ele>
        <time>2022-06-09T07:34:46Z</time>
      </trkpt>
      <trkpt lat="47.55466" lon="2.2452352">
        <ele>178</ele>
        <time>2022-06-09T07:34:47Z</time>
      </trkpt>
      <trkpt lat="47.554646" lon="2.2452285">
        <ele>178</ele>
        <time>2022-06-09T07:34:48Z</time>
      </trkpt>
      <trkpt lat="47.554634" lon="2.2452178">
        <ele>177</ele>
        <time>2022-06-09T07:34:49Z</time>
      </trkpt>
      <trkpt lat="47.554626" lon="2.2452056">
        <ele>177</ele>
        <time>2022-06-09T07:34:50Z</time>
      </trkpt>
      <trkpt lat="47.554623" lon="2.2451947">
        <ele>177</ele>
        <time>2022-06-09T07:34:51Z</time>
      </trkpt>
      <trkpt lat="47.554615" lon="2.2451878">
        <ele>177</ele>
        <time>2022-06-09T07:34:52Z</time>
      </trkpt>
      <trkpt lat="47.554607" lon="2.2451775">
        <ele>177</ele>
        <time>2022-06-09T07:34:53Z</time>
      </trkpt>
      <trkpt lat="47.554596" lon="2.245167">
        <ele>177</ele>
        <time>2022-06-09T07:34:54Z</time>
      </trkpt>
      <trkpt lat="47.554585" lon="2.2451596">
        <ele>177</ele>
        <time>2022-06-09T07:34:55Z</time>
      </trkpt>
      <trkpt lat="47.554577" lon="2.245148">
        <ele>177</ele>
        <time>2022-06-09T07:34:56Z</time>
      </trkpt>
      <trkpt lat="47.55456" lon="2.2451441">
        <ele>177</ele>
        <time>2022-06-09T07:34:57Z</time>
      </trkpt>
      <trkpt lat="47.554558" lon="2.245132">
        <ele>177</ele>
        <time>2022-06-09T07:34:58Z</time>
      </trkpt>
      <trkpt lat="47.554554" lon="2.2451203">
        <ele>177</ele>
        <time>2022-06-09T07:34:59Z</time>
      </trkpt>
      <trkpt lat="47.554546" lon="2.2451115">
        <ele>177</ele>
        <time>2022-06-09T07:35:00Z</time>
      </trkpt>
      <trkpt lat="47.55454" lon="2.2451017">
        <ele>177</ele>
        <time>2022-06-09T07:35:01Z</time>
      </trkpt>
      <trkpt lat="47.554527" lon="2.2450912">
        <ele>177</ele>
        <time>2022-06-09T07:35:02Z</time>
      </trkpt>
      <trkpt lat="47.554516" lon="2.2450829">
        <ele>177</ele>
        <time>2022-06-09T07:35:03Z</time>
      </trkpt>
      <trkpt lat="47.55451" lon="2.2450721">
        <ele>177</ele>
        <time>2022-06-09T07:35:04Z</time>
      </trkpt>
      <trkpt lat="47.554497" lon="2.245064">
        <ele>177</ele>
        <time>2022-06-09T07:35:05Z</time>
      </trkpt>
      <trkpt lat="47.554485" lon="2.2450576">
        <ele>176</ele>
        <time>2022-06-09T07:35:06Z</time>
      </trkpt>
      <trkpt lat="47.554474" lon="2.2450492">
        <ele>176</ele>
        <time>2022-06-09T07:35:07Z</time>
      </trkpt>
      <trkpt lat="47.554462" lon="2.245036">
        <ele>176</ele>
        <time>2022-06-09T07:35:08Z</time>
      </trkpt>
      <trkpt lat="47.55445" lon="2.2450254">
        <ele>175</ele>
        <time>2022-06-09T07:35:09Z</time>
      </trkpt>
      <trkpt lat="47.554443" lon="2.2450173">
        <ele>176</ele>
        <time>2022-06-09T07:35:10Z</time>
      </trkpt>
      <trkpt lat="47.55444" lon="2.2450154">
        <ele>176</ele>
        <time>2022-06-09T07:35:11Z</time>
      </trkpt>
      <trkpt lat="47.55444" lon="2.2450154">
        <ele>176</ele>
        <time>2022-06-09T07:35:12Z</time>
      </trkpt>
      <trkpt lat="47.55444" lon="2.2450154">
        <ele>176</ele>
        <time>2022-06-09T07:35:13Z</time>
      </trkpt>
      <trkpt lat="47.554432" lon="2.2449937">
        <ele>175</ele>
        <time>2022-06-09T07:35:14Z</time>
      </trkpt>
      <trkpt lat="47.554424" lon="2.244984">
        <ele>175</ele>
        <time>2022-06-09T07:35:15Z</time>
      </trkpt>
      <trkpt lat="47.554417" lon="2.244976">
        <ele>175</ele>
        <time>2022-06-09T07:35:16Z</time>
      </trkpt>
      <trkpt lat="47.55441" lon="2.2449682">
        <ele>175</ele>
        <time>2022-06-09T07:35:17Z</time>
      </trkpt>
      <trkpt lat="47.554398" lon="2.2449625">
        <ele>176</ele>
        <time>2022-06-09T07:35:18Z</time>
      </trkpt>
      <trkpt lat="47.55439" lon="2.2449574">
        <ele>176</ele>
        <time>2022-06-09T07:35:19Z</time>
      </trkpt>
      <trkpt lat="47.55438" lon="2.2449522">
        <ele>177</ele>
        <time>2022-06-09T07:35:20Z</time>
      </trkpt>
      <trkpt lat="47.55437" lon="2.244938">
        <ele>177</ele>
        <time>2022-06-09T07:35:21Z</time>
      </trkpt>
      <trkpt lat="47.554363" lon="2.2449274">
        <ele>177</ele>
        <time>2022-06-09T07:35:22Z</time>
      </trkpt>
      <trkpt lat="47.554356" lon="2.2449183">
        <ele>177</ele>
        <time>2022-06-09T07:35:23Z</time>
      </trkpt>
      <trkpt lat="47.55435" lon="2.244908">
        <ele>177</ele>
        <time>2022-06-09T07:35:24Z</time>
      </trkpt>
      <trkpt lat="47.554344" lon="2.2448964">
        <ele>177</ele>
        <time>2022-06-09T07:35:25Z</time>
      </trkpt>
      <trkpt lat="47.554337" lon="2.2448823">
        <ele>176</ele>
        <time>2022-06-09T07:35:26Z</time>
      </trkpt>
      <trkpt lat="47.55433" lon="2.244868">
        <ele>176</ele>
        <time>2022-06-09T07:35:27Z</time>
      </trkpt>
      <trkpt lat="47.55432" lon="2.2448611">
        <ele>175</ele>
        <time>2022-06-09T07:35:28Z</time>
      </trkpt>
      <trkpt lat="47.554314" lon="2.244848">
        <ele>174</ele>
        <time>2022-06-09T07:35:29Z</time>
      </trkpt>
      <trkpt lat="47.554302" lon="2.2448359">
        <ele>173</ele>
        <time>2022-06-09T07:35:30Z</time>
      </trkpt>
      <trkpt lat="47.55429" lon="2.244822">
        <ele>173</ele>
        <time>2022-06-09T07:35:31Z</time>
      </trkpt>
      <trkpt lat="47.55428" lon="2.2448056">
        <ele>172</ele>
        <time>2022-06-09T07:35:32Z</time>
      </trkpt>
      <trkpt lat="47.554268" lon="2.2447915">
        <ele>172</ele>
        <time>2022-06-09T07:35:33Z</time>
      </trkpt>
      <trkpt lat="47.554256" lon="2.2447782">
        <ele>172</ele>
        <time>2022-06-09T07:35:34Z</time>
      </trkpt>
      <trkpt lat="47.55424" lon="2.244758">
        <ele>171</ele>
        <time>2022-06-09T07:35:35Z</time>
      </trkpt>
      <trkpt lat="47.554234" lon="2.2447424">
        <ele>172</ele>
        <time>2022-06-09T07:35:36Z</time>
      </trkpt>
      <trkpt lat="47.554226" lon="2.244729">
        <ele>172</ele>
        <time>2022-06-09T07:35:37Z</time>
      </trkpt>
      <trkpt lat="47.554214" lon="2.2447143">
        <ele>171</ele>
        <time>2022-06-09T07:35:38Z</time>
      </trkpt>
      <trkpt lat="47.5542" lon="2.2447019">
        <ele>171</ele>
        <time>2022-06-09T07:35:39Z</time>
      </trkpt>
      <trkpt lat="47.554184" lon="2.2446907">
        <ele>171</ele>
        <time>2022-06-09T07:35:40Z</time>
      </trkpt>
      <trkpt lat="47.554173" lon="2.2446787">
        <ele>170</ele>
        <time>2022-06-09T07:35:41Z</time>
      </trkpt>
      <trkpt lat="47.554157" lon="2.2446659">
        <ele>170</ele>
        <time>2022-06-09T07:35:42Z</time>
      </trkpt>
      <trkpt lat="47.554142" lon="2.244648">
        <ele>171</ele>
        <time>2022-06-09T07:35:43Z</time>
      </trkpt>
      <trkpt lat="47.554123" lon="2.244628">
        <ele>172</ele>
        <time>2022-06-09T07:35:44Z</time>
      </trkpt>
      <trkpt lat="47.55411" lon="2.2446098">
        <ele>172</ele>
        <time>2022-06-09T07:35:45Z</time>
      </trkpt>
      <trkpt lat="47.554096" lon="2.244595">
        <ele>172</ele>
        <time>2022-06-09T07:35:46Z</time>
      </trkpt>
      <trkpt lat="47.55408" lon="2.2445788">
        <ele>173</ele>
        <time>2022-06-09T07:35:47Z</time>
      </trkpt>
      <trkpt lat="47.554066" lon="2.2445629">
        <ele>173</ele>
        <time>2022-06-09T07:35:48Z</time>
      </trkpt>
      <trkpt lat="47.55405" lon="2.2445488">
        <ele>174</ele>
        <time>2022-06-09T07:35:49Z</time>
      </trkpt>
      <trkpt lat="47.55404" lon="2.2445354">
        <ele>175</ele>
        <time>2022-06-09T07:35:50Z</time>
      </trkpt>
      <trkpt lat="47.554028" lon="2.244521">
        <ele>176</ele>
        <time>2022-06-09T07:35:51Z</time>
      </trkpt>
      <trkpt lat="47.554016" lon="2.2445047">
        <ele>176</ele>
        <time>2022-06-09T07:35:52Z</time>
      </trkpt>
      <trkpt lat="47.554" lon="2.24449">
        <ele>177</ele>
        <time>2022-06-09T07:35:53Z</time>
      </trkpt>
      <trkpt lat="47.55399" lon="2.2444777">
        <ele>177</ele>
        <time>2022-06-09T07:35:54Z</time>
      </trkpt>
      <trkpt lat="47.553978" lon="2.244463">
        <ele>176</ele>
        <time>2022-06-09T07:35:55Z</time>
      </trkpt>
      <trkpt lat="47.55397" lon="2.244456">
        <ele>176</ele>
        <time>2022-06-09T07:35:56Z</time>
      </trkpt>
      <trkpt lat="47.55396" lon="2.2444477">
        <ele>176</ele>
        <time>2022-06-09T07:35:57Z</time>
      </trkpt>
      <trkpt lat="47.553944" lon="2.244432">
        <ele>177</ele>
        <time>2022-06-09T07:35:58Z</time>
      </trkpt>
      <trkpt lat="47.553932" lon="2.2444189">
        <ele>178</ele>
        <time>2022-06-09T07:35:59Z</time>
      </trkpt>
      <trkpt lat="47.55392" lon="2.2444053">
        <ele>178</ele>
        <time>2022-06-09T07:36:00Z</time>
      </trkpt>
      <trkpt lat="47.55391" lon="2.244391">
        <ele>178</ele>
        <time>2022-06-09T07:36:01Z</time>
      </trkpt>
      <trkpt lat="47.553898" lon="2.244379">
        <ele>178</ele>
        <time>2022-06-09T07:36:02Z</time>
      </trkpt>
      <trkpt lat="47.553886" lon="2.2443695">
        <ele>179</ele>
        <time>2022-06-09T07:36:03Z</time>
      </trkpt>
      <trkpt lat="47.55388" lon="2.2443566">
        <ele>179</ele>
        <time>2022-06-09T07:36:04Z</time>
      </trkpt>
      <trkpt lat="47.553875" lon="2.244348">
        <ele>179</ele>
        <time>2022-06-09T07:36:05Z</time>
      </trkpt>
      <trkpt lat="47.553867" lon="2.2443364">
        <ele>179</ele>
        <time>2022-06-09T07:36:06Z</time>
      </trkpt>
      <trkpt lat="47.553867" lon="2.2443364">
        <ele>179</ele>
        <time>2022-06-09T07:36:07Z</time>
      </trkpt>
      <trkpt lat="47.553867" lon="2.2443364">
        <ele>179</ele>
        <time>2022-06-09T07:36:08Z</time>
      </trkpt>
      <trkpt lat="47.553852" lon="2.2443144">
        <ele>180</ele>
        <time>2022-06-09T07:36:09Z</time>
      </trkpt>
      <trkpt lat="47.55385" lon="2.244304">
        <ele>181</ele>
        <time>2022-06-09T07:36:10Z</time>
      </trkpt>
      <trkpt lat="47.553837" lon="2.2442951">
        <ele>181</ele>
        <time>2022-06-09T07:36:11Z</time>
      </trkpt>
      <trkpt lat="47.553825" lon="2.2442813">
        <ele>180</ele>
        <time>2022-06-09T07:36:12Z</time>
      </trkpt>
      <trkpt lat="47.553818" lon="2.2442622">
        <ele>181</ele>
        <time>2022-06-09T07:36:13Z</time>
      </trkpt>
      <trkpt lat="47.553806" lon="2.2442477">
        <ele>181</ele>
        <time>2022-06-09T07:36:14Z</time>
      </trkpt>
      <trkpt lat="47.553795" lon="2.2442348">
        <ele>180</ele>
        <time>2022-06-09T07:36:15Z</time>
      </trkpt>
      <trkpt lat="47.553787" lon="2.2442248">
        <ele>180</ele>
        <time>2022-06-09T07:36:16Z</time>
      </trkpt>
      <trkpt lat="47.553776" lon="2.2442133">
        <ele>180</ele>
        <time>2022-06-09T07:36:17Z</time>
      </trkpt>
      <trkpt lat="47.55377" lon="2.2441983">
        <ele>180</ele>
        <time>2022-06-09T07:36:18Z</time>
      </trkpt>
      <trkpt lat="47.55376" lon="2.2441845">
        <ele>180</ele>
        <time>2022-06-09T07:36:19Z</time>
      </trkpt>
      <trkpt lat="47.553753" lon="2.244171">
        <ele>181</ele>
        <time>2022-06-09T07:36:20Z</time>
      </trkpt>
      <trkpt lat="47.553745" lon="2.2441597">
        <ele>181</ele>
        <time>2022-06-09T07:36:21Z</time>
      </trkpt>
      <trkpt lat="47.553734" lon="2.2441432">
        <ele>181</ele>
        <time>2022-06-09T07:36:22Z</time>
      </trkpt>
      <trkpt lat="47.553726" lon="2.2441287">
        <ele>181</ele>
        <time>2022-06-09T07:36:23Z</time>
      </trkpt>
      <trkpt lat="47.553715" lon="2.2441168">
        <ele>181</ele>
        <time>2022-06-09T07:36:24Z</time>
      </trkpt>
      <trkpt lat="47.553707" lon="2.2441041">
        <ele>182</ele>
        <time>2022-06-09T07:36:25Z</time>
      </trkpt>
      <trkpt lat="47.5537" lon="2.2440898">
        <ele>182</ele>
        <time>2022-06-09T07:36:26Z</time>
      </trkpt>
      <trkpt lat="47.553688" lon="2.2440815">
        <ele>182</ele>
        <time>2022-06-09T07:36:27Z</time>
      </trkpt>
      <trkpt lat="47.553673" lon="2.2440755">
        <ele>182</ele>
        <time>2022-06-09T07:36:28Z</time>
      </trkpt>
      <trkpt lat="47.553665" lon="2.2440658">
        <ele>182</ele>
        <time>2022-06-09T07:36:29Z</time>
      </trkpt>
      <trkpt lat="47.553658" lon="2.2440574">
        <ele>182</ele>
        <time>2022-06-09T07:36:30Z</time>
      </trkpt>
      <trkpt lat="47.553646" lon="2.2440515">
        <ele>182</ele>
        <time>2022-06-09T07:36:31Z</time>
      </trkpt>
      <trkpt lat="47.55363" lon="2.2440476">
        <ele>182</ele>
        <time>2022-06-09T07:36:32Z</time>
      </trkpt>
      <trkpt lat="47.553616" lon="2.2440388">
        <ele>183</ele>
        <time>2022-06-09T07:36:33Z</time>
      </trkpt>
      <trkpt lat="47.553604" lon="2.244028">
        <ele>183</ele>
        <time>2022-06-09T07:36:34Z</time>
      </trkpt>
      <trkpt lat="47.553593" lon="2.244018">
        <ele>182</ele>
        <time>2022-06-09T07:36:35Z</time>
      </trkpt>
      <trkpt lat="47.55358" lon="2.2440069">
        <ele>182</ele>
        <time>2022-06-09T07:36:36Z</time>
      </trkpt>
      <trkpt lat="47.55357" lon="2.2439978">
        <ele>182</ele>
        <time>2022-06-09T07:36:37Z</time>
      </trkpt>
      <trkpt lat="47.553562" lon="2.2439928">
        <ele>182</ele>
        <time>2022-06-09T07:36:38Z</time>
      </trkpt>
      <trkpt lat="47.553555" lon="2.2439897">
        <ele>182</ele>
        <time>2022-06-09T07:36:39Z</time>
      </trkpt>
      <trkpt lat="47.55354" lon="2.2439837">
        <ele>182</ele>
        <time>2022-06-09T07:36:40Z</time>
      </trkpt>
      <trkpt lat="47.553528" lon="2.2439709">
        <ele>183</ele>
        <time>2022-06-09T07:36:41Z</time>
      </trkpt>
      <trkpt lat="47.553516" lon="2.2439559">
        <ele>183</ele>
        <time>2022-06-09T07:36:42Z</time>
      </trkpt>
      <trkpt lat="47.55351" lon="2.243944">
        <ele>184</ele>
        <time>2022-06-09T07:36:43Z</time>
      </trkpt>
      <trkpt lat="47.5535" lon="2.2439308">
        <ele>184</ele>
        <time>2022-06-09T07:36:44Z</time>
      </trkpt>
      <trkpt lat="47.55349" lon="2.2439191">
        <ele>184</ele>
        <time>2022-06-09T07:36:45Z</time>
      </trkpt>
      <trkpt lat="47.553482" lon="2.243908">
        <ele>185</ele>
        <time>2022-06-09T07:36:46Z</time>
      </trkpt>
      <trkpt lat="47.553474" lon="2.2438986">
        <ele>184</ele>
        <time>2022-06-09T07:36:47Z</time>
      </trkpt>
      <trkpt lat="47.553463" lon="2.2438889">
        <ele>185</ele>
        <time>2022-06-09T07:36:48Z</time>
      </trkpt>
      <trkpt lat="47.55345" lon="2.2438796">
        <ele>185</ele>
        <time>2022-06-09T07:36:49Z</time>
      </trkpt>
      <trkpt lat="47.553436" lon="2.2438688">
        <ele>185</ele>
        <time>2022-06-09T07:36:50Z</time>
      </trkpt>
      <trkpt lat="47.553425" lon="2.2438579">
        <ele>185</ele>
        <time>2022-06-09T07:36:51Z</time>
      </trkpt>
      <trkpt lat="47.553413" lon="2.2438521">
        <ele>185</ele>
        <time>2022-06-09T07:36:52Z</time>
      </trkpt>
      <trkpt lat="47.553406" lon="2.2438464">
        <ele>185</ele>
        <time>2022-06-09T07:36:53Z</time>
      </trkpt>
      <trkpt lat="47.5534" lon="2.2438395">
        <ele>185</ele>
        <time>2022-06-09T07:36:54Z</time>
      </trkpt>
      <trkpt lat="47.55339" lon="2.2438319">
        <ele>185</ele>
        <time>2022-06-09T07:36:55Z</time>
      </trkpt>
      <trkpt lat="47.553383" lon="2.243823">
        <ele>185</ele>
        <time>2022-06-09T07:36:56Z</time>
      </trkpt>
      <trkpt lat="47.553375" lon="2.2438138">
        <ele>185</ele>
        <time>2022-06-09T07:36:57Z</time>
      </trkpt>
      <trkpt lat="47.553375" lon="2.2438138">
        <ele>185</ele>
        <time>2022-06-09T07:36:58Z</time>
      </trkpt>
      <trkpt lat="47.55336" lon="2.2437985">
        <ele>185</ele>
        <time>2022-06-09T07:36:59Z</time>
      </trkpt>
      <trkpt lat="47.553356" lon="2.243788">
        <ele>186</ele>
        <time>2022-06-09T07:37:00Z</time>
      </trkpt>
      <trkpt lat="47.55335" lon="2.2437737">
        <ele>186</ele>
        <time>2022-06-09T07:37:01Z</time>
      </trkpt>
      <trkpt lat="47.553337" lon="2.2437615">
        <ele>185</ele>
        <time>2022-06-09T07:37:02Z</time>
      </trkpt>
      <trkpt lat="47.553326" lon="2.2437475">
        <ele>185</ele>
        <time>2022-06-09T07:37:03Z</time>
      </trkpt>
      <trkpt lat="47.55331" lon="2.2437332">
        <ele>186</ele>
        <time>2022-06-09T07:37:04Z</time>
      </trkpt>
      <trkpt lat="47.553295" lon="2.2437172">
        <ele>186</ele>
        <time>2022-06-09T07:37:05Z</time>
      </trkpt>
      <trkpt lat="47.553284" lon="2.2437088">
        <ele>185</ele>
        <time>2022-06-09T07:37:06Z</time>
      </trkpt>
      <trkpt lat="47.55327" lon="2.243702">
        <ele>185</ele>
        <time>2022-06-09T07:37:07Z</time>
      </trkpt>
      <trkpt lat="47.553257" lon="2.2436988">
        <ele>186</ele>
        <time>2022-06-09T07:37:08Z</time>
      </trkpt>
      <trkpt lat="47.55325" lon="2.2436914">
        <ele>186</ele>
        <time>2022-06-09T07:37:09Z</time>
      </trkpt>
      <trkpt lat="47.553234" lon="2.2436845">
        <ele>185</ele>
        <time>2022-06-09T07:37:10Z</time>
      </trkpt>
      <trkpt lat="47.55322" lon="2.2436779">
        <ele>185</ele>
        <time>2022-06-09T07:37:11Z</time>
      </trkpt>
      <trkpt lat="47.55321" lon="2.2436714">
        <ele>185</ele>
        <time>2022-06-09T07:37:12Z</time>
      </trkpt>
      <trkpt lat="47.553204" lon="2.2436619">
        <ele>184</ele>
        <time>2022-06-09T07:37:13Z</time>
      </trkpt>
      <trkpt lat="47.553192" lon="2.243655">
        <ele>184</ele>
        <time>2022-06-09T07:37:14Z</time>
      </trkpt>
      <trkpt lat="47.553192" lon="2.243655">
        <ele>184</ele>
        <time>2022-06-09T07:37:15Z</time>
      </trkpt>
      <trkpt lat="47.553192" lon="2.243655">
        <ele>184</ele>
        <time>2022-06-09T07:37:16Z</time>
      </trkpt>
      <trkpt lat="47.553173" lon="2.243639">
        <ele>185</ele>
        <time>2022-06-09T07:37:17Z</time>
      </trkpt>
      <trkpt lat="47.55316" lon="2.243634">
        <ele>185</ele>
        <time>2022-06-09T07:37:18Z</time>
      </trkpt>
      <trkpt lat="47.553154" lon="2.2436216">
        <ele>185</ele>
        <time>2022-06-09T07:37:19Z</time>
      </trkpt>
      <trkpt lat="47.553143" lon="2.243612">
        <ele>185</ele>
        <time>2022-06-09T07:37:20Z</time>
      </trkpt>
      <trkpt lat="47.553135" lon="2.2436101">
        <ele>185</ele>
        <time>2022-06-09T07:37:21Z</time>
      </trkpt>
      <trkpt lat="47.553123" lon="2.2436025">
        <ele>185</ele>
        <time>2022-06-09T07:37:22Z</time>
      </trkpt>
      <trkpt lat="47.553116" lon="2.2435935">
        <ele>185</ele>
        <time>2022-06-09T07:37:23Z</time>
      </trkpt>
      <trkpt lat="47.553104" lon="2.2435875">
        <ele>185</ele>
        <time>2022-06-09T07:37:24Z</time>
      </trkpt>
      <trkpt lat="47.553093" lon="2.2435772">
        <ele>185</ele>
        <time>2022-06-09T07:37:25Z</time>
      </trkpt>
      <trkpt lat="47.55308" lon="2.2435677">
        <ele>185</ele>
        <time>2022-06-09T07:37:26Z</time>
      </trkpt>
      <trkpt lat="47.553066" lon="2.2435527">
        <ele>184</ele>
        <time>2022-06-09T07:37:27Z</time>
      </trkpt>
      <trkpt lat="47.55305" lon="2.2435431">
        <ele>184</ele>
        <time>2022-06-09T07:37:28Z</time>
      </trkpt>
      <trkpt lat="47.553036" lon="2.243531">
        <ele>184</ele>
        <time>2022-06-09T07:37:29Z</time>
      </trkpt>
      <trkpt lat="47.553024" lon="2.2435293">
        <ele>184</ele>
        <time>2022-06-09T07:37:30Z</time>
      </trkpt>
      <trkpt lat="47.553013" lon="2.2435298">
        <ele>183</ele>
        <time>2022-06-09T07:37:31Z</time>
      </trkpt>
      <trkpt lat="47.553" lon="2.243519">
        <ele>184</ele>
        <time>2022-06-09T07:37:32Z</time>
      </trkpt>
      <trkpt lat="47.55299" lon="2.243514">
        <ele>183</ele>
        <time>2022-06-09T07:37:33Z</time>
      </trkpt>
      <trkpt lat="47.552982" lon="2.2435105">
        <ele>183</ele>
        <time>2022-06-09T07:37:34Z</time>
      </trkpt>
      <trkpt lat="47.55297" lon="2.2435074">
        <ele>183</ele>
        <time>2022-06-09T07:37:35Z</time>
      </trkpt>
      <trkpt lat="47.552963" lon="2.243502">
        <ele>183</ele>
        <time>2022-06-09T07:37:36Z</time>
      </trkpt>
      <trkpt lat="47.55295" lon="2.2434964">
        <ele>183</ele>
        <time>2022-06-09T07:37:37Z</time>
      </trkpt>
      <trkpt lat="47.552944" lon="2.2434888">
        <ele>183</ele>
        <time>2022-06-09T07:37:38Z</time>
      </trkpt>
      <trkpt lat="47.55293" lon="2.2434828">
        <ele>183</ele>
        <time>2022-06-09T07:37:39Z</time>
      </trkpt>
      <trkpt lat="47.552914" lon="2.2434778">
        <ele>184</ele>
        <time>2022-06-09T07:37:40Z</time>
      </trkpt>
      <trkpt lat="47.552902" lon="2.2434738">
        <ele>184</ele>
        <time>2022-06-09T07:37:41Z</time>
      </trkpt>
      <trkpt lat="47.55289" lon="2.2434669">
        <ele>183</ele>
        <time>2022-06-09T07:37:42Z</time>
      </trkpt>
      <trkpt lat="47.55288" lon="2.2434554">
        <ele>184</ele>
        <time>2022-06-09T07:37:43Z</time>
      </trkpt>
      <trkpt lat="47.552864" lon="2.243448">
        <ele>184</ele>
        <time>2022-06-09T07:37:44Z</time>
      </trkpt>
      <trkpt lat="47.55285" lon="2.2434406">
        <ele>183</ele>
        <time>2022-06-09T07:37:45Z</time>
      </trkpt>
      <trkpt lat="47.552834" lon="2.2434337">
        <ele>183</ele>
        <time>2022-06-09T07:37:46Z</time>
      </trkpt>
      <trkpt lat="47.552822" lon="2.243421">
        <ele>183</ele>
        <time>2022-06-09T07:37:47Z</time>
      </trkpt>
      <trkpt lat="47.552807" lon="2.2434058">
        <ele>183</ele>
        <time>2022-06-09T07:37:48Z</time>
      </trkpt>
      <trkpt lat="47.5528" lon="2.243397">
        <ele>183</ele>
        <time>2022-06-09T07:37:49Z</time>
      </trkpt>
      <trkpt lat="47.552788" lon="2.2433865">
        <ele>183</ele>
        <time>2022-06-09T07:37:50Z</time>
      </trkpt>
      <trkpt lat="47.552776" lon="2.2433767">
        <ele>183</ele>
        <time>2022-06-09T07:37:51Z</time>
      </trkpt>
      <trkpt lat="47.55276" lon="2.2433662">
        <ele>182</ele>
        <time>2022-06-09T07:37:52Z</time>
      </trkpt>
      <trkpt lat="47.55275" lon="2.2433548">
        <ele>182</ele>
        <time>2022-06-09T07:37:53Z</time>
      </trkpt>
      <trkpt lat="47.55274" lon="2.2433443">
        <ele>181</ele>
        <time>2022-06-09T07:37:54Z</time>
      </trkpt>
      <trkpt lat="47.55272" lon="2.2433348">
        <ele>181</ele>
        <time>2022-06-09T07:37:55Z</time>
      </trkpt>
      <trkpt lat="47.552708" lon="2.2433236">
        <ele>181</ele>
        <time>2022-06-09T07:37:56Z</time>
      </trkpt>
      <trkpt lat="47.552692" lon="2.2433162">
        <ele>181</ele>
        <time>2022-06-09T07:37:57Z</time>
      </trkpt>
      <trkpt lat="47.552677" lon="2.243303">
        <ele>181</ele>
        <time>2022-06-09T07:37:58Z</time>
      </trkpt>
      <trkpt lat="47.552666" lon="2.243298">
        <ele>181</ele>
        <time>2022-06-09T07:37:59Z</time>
      </trkpt>
      <trkpt lat="47.55265" lon="2.243292">
        <ele>181</ele>
        <time>2022-06-09T07:38:00Z</time>
      </trkpt>
      <trkpt lat="47.55264" lon="2.2432878">
        <ele>181</ele>
        <time>2022-06-09T07:38:01Z</time>
      </trkpt>
      <trkpt lat="47.552628" lon="2.2432854">
        <ele>181</ele>
        <time>2022-06-09T07:38:02Z</time>
      </trkpt>
      <trkpt lat="47.552616" lon="2.2432804">
        <ele>181</ele>
        <time>2022-06-09T07:38:03Z</time>
      </trkpt>
      <trkpt lat="47.552605" lon="2.2432747">
        <ele>181</ele>
        <time>2022-06-09T07:38:04Z</time>
      </trkpt>
      <trkpt lat="47.552593" lon="2.243269">
        <ele>181</ele>
        <time>2022-06-09T07:38:05Z</time>
      </trkpt>
      <trkpt lat="47.552578" lon="2.2432616">
        <ele>182</ele>
        <time>2022-06-09T07:38:06Z</time>
      </trkpt>
      <trkpt lat="47.552563" lon="2.2432566">
        <ele>182</ele>
        <time>2022-06-09T07:38:07Z</time>
      </trkpt>
      <trkpt lat="47.552547" lon="2.2432542">
        <ele>182</ele>
        <time>2022-06-09T07:38:08Z</time>
      </trkpt>
      <trkpt lat="47.552536" lon="2.2432482">
        <ele>181</ele>
        <time>2022-06-09T07:38:09Z</time>
      </trkpt>
      <trkpt lat="47.55252" lon="2.2432432">
        <ele>181</ele>
        <time>2022-06-09T07:38:10Z</time>
      </trkpt>
      <trkpt lat="47.55251" lon="2.243235">
        <ele>181</ele>
        <time>2022-06-09T07:38:11Z</time>
      </trkpt>
      <trkpt lat="47.5525" lon="2.243232">
        <ele>181</ele>
        <time>2022-06-09T07:38:12Z</time>
      </trkpt>
      <trkpt lat="47.55249" lon="2.243227">
        <ele>182</ele>
        <time>2022-06-09T07:38:13Z</time>
      </trkpt>
      <trkpt lat="47.55248" lon="2.2432227">
        <ele>181</ele>
        <time>2022-06-09T07:38:14Z</time>
      </trkpt>
      <trkpt lat="47.55247" lon="2.243219">
        <ele>181</ele>
        <time>2022-06-09T07:38:15Z</time>
      </trkpt>
      <trkpt lat="47.55246" lon="2.2432146">
        <ele>181</ele>
        <time>2022-06-09T07:38:16Z</time>
      </trkpt>
      <trkpt lat="47.55245" lon="2.2432098">
        <ele>180</ele>
        <time>2022-06-09T07:38:17Z</time>
      </trkpt>
      <trkpt lat="47.55244" lon="2.2432053">
        <ele>180</ele>
        <time>2022-06-09T07:38:18Z</time>
      </trkpt>
      <trkpt lat="47.552433" lon="2.24319">
        <ele>180</ele>
        <time>2022-06-09T07:38:19Z</time>
      </trkpt>
      <trkpt lat="47.55242" lon="2.2431748">
        <ele>180</ele>
        <time>2022-06-09T07:38:20Z</time>
      </trkpt>
      <trkpt lat="47.552414" lon="2.2431638">
        <ele>180</ele>
        <time>2022-06-09T07:38:21Z</time>
      </trkpt>
      <trkpt lat="47.552406" lon="2.2431586">
        <ele>180</ele>
        <time>2022-06-09T07:38:22Z</time>
      </trkpt>
      <trkpt lat="47.5524" lon="2.2431498">
        <ele>180</ele>
        <time>2022-06-09T07:38:23Z</time>
      </trkpt>
      <trkpt lat="47.552387" lon="2.2431462">
        <ele>180</ele>
        <time>2022-06-09T07:38:24Z</time>
      </trkpt>
      <trkpt lat="47.55238" lon="2.2431417">
        <ele>179</ele>
        <time>2022-06-09T07:38:25Z</time>
      </trkpt>
      <trkpt lat="47.55237" lon="2.2431333">
        <ele>178</ele>
        <time>2022-06-09T07:38:26Z</time>
      </trkpt>
      <trkpt lat="47.552357" lon="2.2431264">
        <ele>177</ele>
        <time>2022-06-09T07:38:27Z</time>
      </trkpt>
      <trkpt lat="47.552345" lon="2.243117">
        <ele>177</ele>
        <time>2022-06-09T07:38:28Z</time>
      </trkpt>
      <trkpt lat="47.552334" lon="2.2431016">
        <ele>177</ele>
        <time>2022-06-09T07:38:29Z</time>
      </trkpt>
      <trkpt lat="47.55232" lon="2.2430894">
        <ele>176</ele>
        <time>2022-06-09T07:38:30Z</time>
      </trkpt>
      <trkpt lat="47.552303" lon="2.2430801">
        <ele>176</ele>
        <time>2022-06-09T07:38:31Z</time>
      </trkpt>
      <trkpt lat="47.55229" lon="2.2430716">
        <ele>176</ele>
        <time>2022-06-09T07:38:32Z</time>
      </trkpt>
      <trkpt lat="47.55228" lon="2.243063">
        <ele>175</ele>
        <time>2022-06-09T07:38:33Z</time>
      </trkpt>
      <trkpt lat="47.55227" lon="2.2430515">
        <ele>175</ele>
        <time>2022-06-09T07:38:34Z</time>
      </trkpt>
      <trkpt lat="47.552254" lon="2.2430394">
        <ele>175</ele>
        <time>2022-06-09T07:38:35Z</time>
      </trkpt>
      <trkpt lat="47.552242" lon="2.24303">
        <ele>175</ele>
        <time>2022-06-09T07:38:36Z</time>
      </trkpt>
      <trkpt lat="47.55223" lon="2.2430215">
        <ele>174</ele>
        <time>2022-06-09T07:38:37Z</time>
      </trkpt>
      <trkpt lat="47.55222" lon="2.2430103">
        <ele>174</ele>
        <time>2022-06-09T07:38:38Z</time>
      </trkpt>
      <trkpt lat="47.55221" lon="2.2430024">
        <ele>175</ele>
        <time>2022-06-09T07:38:39Z</time>
      </trkpt>
      <trkpt lat="47.552204" lon="2.2429895">
        <ele>175</ele>
        <time>2022-06-09T07:38:40Z</time>
      </trkpt>
      <trkpt lat="47.5522" lon="2.2429717">
        <ele>175</ele>
        <time>2022-06-09T07:38:41Z</time>
      </trkpt>
      <trkpt lat="47.55219" lon="2.2429569">
        <ele>176</ele>
        <time>2022-06-09T07:38:42Z</time>
      </trkpt>
      <trkpt lat="47.55218" lon="2.2429397">
        <ele>176</ele>
        <time>2022-06-09T07:38:43Z</time>
      </trkpt>
      <trkpt lat="47.55217" lon="2.2429256">
        <ele>176</ele>
        <time>2022-06-09T07:38:44Z</time>
      </trkpt>
      <trkpt lat="47.55216" lon="2.2429168">
        <ele>177</ele>
        <time>2022-06-09T07:38:45Z</time>
      </trkpt>
      <trkpt lat="47.55215" lon="2.2429025">
        <ele>177</ele>
        <time>2022-06-09T07:38:46Z</time>
      </trkpt>
      <trkpt lat="47.55214" lon="2.24289">
        <ele>177</ele>
        <time>2022-06-09T07:38:47Z</time>
      </trkpt>
      <trkpt lat="47.55213" lon="2.2428768">
        <ele>177</ele>
        <time>2022-06-09T07:38:48Z</time>
      </trkpt>
      <trkpt lat="47.55212" lon="2.2428613">
        <ele>178</ele>
        <time>2022-06-09T07:38:49Z</time>
      </trkpt>
      <trkpt lat="47.552113" lon="2.2428439">
        <ele>178</ele>
        <time>2022-06-09T07:38:50Z</time>
      </trkpt>
      <trkpt lat="47.552097" lon="2.24283">
        <ele>178</ele>
        <time>2022-06-09T07:38:51Z</time>
      </trkpt>
      <trkpt lat="47.552086" lon="2.2428203">
        <ele>179</ele>
        <time>2022-06-09T07:38:52Z</time>
      </trkpt>
      <trkpt lat="47.55207" lon="2.2428129">
        <ele>180</ele>
        <time>2022-06-09T07:38:53Z</time>
      </trkpt>
      <trkpt lat="47.552063" lon="2.2428">
        <ele>180</ele>
        <time>2022-06-09T07:38:54Z</time>
      </trkpt>
      <trkpt lat="47.55205" lon="2.2427878">
        <ele>180</ele>
        <time>2022-06-09T07:38:55Z</time>
      </trkpt>
      <trkpt lat="47.55204" lon="2.2427745">
        <ele>180</ele>
        <time>2022-06-09T07:38:56Z</time>
      </trkpt>
      <trkpt lat="47.55203" lon="2.242761">
        <ele>180</ele>
        <time>2022-06-09T07:38:57Z</time>
      </trkpt>
      <trkpt lat="47.552017" lon="2.2427456">
        <ele>180</ele>
        <time>2022-06-09T07:38:58Z</time>
      </trkpt>
      <trkpt lat="47.552006" lon="2.2427292">
        <ele>180</ele>
        <time>2022-06-09T07:38:59Z</time>
      </trkpt>
      <trkpt lat="47.551994" lon="2.2427168">
        <ele>180</ele>
        <time>2022-06-09T07:39:00Z</time>
      </trkpt>
      <trkpt lat="47.551983" lon="2.2427">
        <ele>180</ele>
        <time>2022-06-09T07:39:01Z</time>
      </trkpt>
      <trkpt lat="47.55197" lon="2.2426844">
        <ele>181</ele>
        <time>2022-06-09T07:39:02Z</time>
      </trkpt>
      <trkpt lat="47.55196" lon="2.242666">
        <ele>181</ele>
        <time>2022-06-09T07:39:03Z</time>
      </trkpt>
      <trkpt lat="47.55195" lon="2.2426512">
        <ele>181</ele>
        <time>2022-06-09T07:39:04Z</time>
      </trkpt>
      <trkpt lat="47.551937" lon="2.2426405">
        <ele>181</ele>
        <time>2022-06-09T07:39:05Z</time>
      </trkpt>
      <trkpt lat="47.551926" lon="2.2426288">
        <ele>181</ele>
        <time>2022-06-09T07:39:06Z</time>
      </trkpt>
      <trkpt lat="47.551914" lon="2.2426229">
        <ele>181</ele>
        <time>2022-06-09T07:39:07Z</time>
      </trkpt>
      <trkpt lat="47.551903" lon="2.2426147">
        <ele>181</ele>
        <time>2022-06-09T07:39:08Z</time>
      </trkpt>
      <trkpt lat="47.55189" lon="2.2426062">
        <ele>181</ele>
        <time>2022-06-09T07:39:09Z</time>
      </trkpt>
      <trkpt lat="47.551884" lon="2.2425902">
        <ele>181</ele>
        <time>2022-06-09T07:39:10Z</time>
      </trkpt>
      <trkpt lat="47.551876" lon="2.2425797">
        <ele>182</ele>
        <time>2022-06-09T07:39:11Z</time>
      </trkpt>
      <trkpt lat="47.551872" lon="2.2425663">
        <ele>182</ele>
        <time>2022-06-09T07:39:12Z</time>
      </trkpt>
      <trkpt lat="47.55186" lon="2.2425609">
        <ele>183</ele>
        <time>2022-06-09T07:39:13Z</time>
      </trkpt>
      <trkpt lat="47.551853" lon="2.2425544">
        <ele>183</ele>
        <time>2022-06-09T07:39:14Z</time>
      </trkpt>
      <trkpt lat="47.55184" lon="2.2425475">
        <ele>183</ele>
        <time>2022-06-09T07:39:15Z</time>
      </trkpt>
      <trkpt lat="47.551834" lon="2.2425437">
        <ele>183</ele>
        <time>2022-06-09T07:39:16Z</time>
      </trkpt>
      <trkpt lat="47.551826" lon="2.2425346">
        <ele>183</ele>
        <time>2022-06-09T07:39:17Z</time>
      </trkpt>
      <trkpt lat="47.55181" lon="2.2425308">
        <ele>182</ele>
        <time>2022-06-09T07:39:18Z</time>
      </trkpt>
      <trkpt lat="47.5518" lon="2.242526">
        <ele>182</ele>
        <time>2022-06-09T07:39:19Z</time>
      </trkpt>
      <trkpt lat="47.55178" lon="2.2425213">
        <ele>182</ele>
        <time>2022-06-09T07:39:20Z</time>
      </trkpt>
      <trkpt lat="47.551773" lon="2.2425163">
        <ele>181</ele>
        <time>2022-06-09T07:39:21Z</time>
      </trkpt>
      <trkpt lat="47.55176" lon="2.2425072">
        <ele>181</ele>
        <time>2022-06-09T07:39:22Z</time>
      </trkpt>
      <trkpt lat="47.55175" lon="2.242496">
        <ele>180</ele>
        <time>2022-06-09T07:39:23Z</time>
      </trkpt>
      <trkpt lat="47.55174" lon="2.2424836">
        <ele>180</ele>
        <time>2022-06-09T07:39:24Z</time>
      </trkpt>
      <trkpt lat="47.55173" lon="2.2424717">
        <ele>180</ele>
        <time>2022-06-09T07:39:25Z</time>
      </trkpt>
      <trkpt lat="47.55172" lon="2.2424648">
        <ele>180</ele>
        <time>2022-06-09T07:39:26Z</time>
      </trkpt>
      <trkpt lat="47.55171" lon="2.242458">
        <ele>179</ele>
        <time>2022-06-09T07:39:27Z</time>
      </trkpt>
      <trkpt lat="47.551693" lon="2.2424493">
        <ele>179</ele>
        <time>2022-06-09T07:39:28Z</time>
      </trkpt>
      <trkpt lat="47.55168" lon="2.2424426">
        <ele>179</ele>
        <time>2022-06-09T07:39:29Z</time>
      </trkpt>
      <trkpt lat="47.55167" lon="2.242437">
        <ele>178</ele>
        <time>2022-06-09T07:39:30Z</time>
      </trkpt>
      <trkpt lat="47.551662" lon="2.242425">
        <ele>178</ele>
        <time>2022-06-09T07:39:31Z</time>
      </trkpt>
      <trkpt lat="47.551647" lon="2.242416">
        <ele>177</ele>
        <time>2022-06-09T07:39:32Z</time>
      </trkpt>
      <trkpt lat="47.551636" lon="2.2424061">
        <ele>177</ele>
        <time>2022-06-09T07:39:33Z</time>
      </trkpt>
      <trkpt lat="47.55162" lon="2.2423944">
        <ele>177</ele>
        <time>2022-06-09T07:39:34Z</time>
      </trkpt>
      <trkpt lat="47.551613" lon="2.2423863">
        <ele>177</ele>
        <time>2022-06-09T07:39:35Z</time>
      </trkpt>
      <trkpt lat="47.551605" lon="2.2423816">
        <ele>177</ele>
        <time>2022-06-09T07:39:36Z</time>
      </trkpt>
      <trkpt lat="47.551594" lon="2.2423756">
        <ele>176</ele>
        <time>2022-06-09T07:39:37Z</time>
      </trkpt>
      <trkpt lat="47.551582" lon="2.2423685">
        <ele>176</ele>
        <time>2022-06-09T07:39:38Z</time>
      </trkpt>
      <trkpt lat="47.55157" lon="2.242364">
        <ele>176</ele>
        <time>2022-06-09T07:39:39Z</time>
      </trkpt>
      <trkpt lat="47.55156" lon="2.2423594">
        <ele>176</ele>
        <time>2022-06-09T07:39:40Z</time>
      </trkpt>
      <trkpt lat="47.55155" lon="2.242352">
        <ele>176</ele>
        <time>2022-06-09T07:39:41Z</time>
      </trkpt>
      <trkpt lat="47.551537" lon="2.242349">
        <ele>175</ele>
        <time>2022-06-09T07:39:42Z</time>
      </trkpt>
      <trkpt lat="47.55152" lon="2.2423456">
        <ele>175</ele>
        <time>2022-06-09T07:39:43Z</time>
      </trkpt>
      <trkpt lat="47.551514" lon="2.242341">
        <ele>175</ele>
        <time>2022-06-09T07:39:44Z</time>
      </trkpt>
      <trkpt lat="47.551506" lon="2.242338">
        <ele>175</ele>
        <time>2022-06-09T07:39:45Z</time>
      </trkpt>
      <trkpt lat="47.5515" lon="2.2423353">
        <ele>175</ele>
        <time>2022-06-09T07:39:46Z</time>
      </trkpt>
      <trkpt lat="47.551487" lon="2.2423315">
        <ele>174</ele>
        <time>2022-06-09T07:39:47Z</time>
      </trkpt>
      <trkpt lat="47.55148" lon="2.2423263">
        <ele>174</ele>
        <time>2022-06-09T07:39:48Z</time>
      </trkpt>
      <trkpt lat="47.551464" lon="2.2423198">
        <ele>174</ele>
        <time>2022-06-09T07:39:49Z</time>
      </trkpt>
      <trkpt lat="47.551456" lon="2.242316">
        <ele>174</ele>
        <time>2022-06-09T07:39:50Z</time>
      </trkpt>
      <trkpt lat="47.551445" lon="2.2423098">
        <ele>174</ele>
        <time>2022-06-09T07:39:51Z</time>
      </trkpt>
      <trkpt lat="47.55143" lon="2.2423022">
        <ele>173</ele>
        <time>2022-06-09T07:39:52Z</time>
      </trkpt>
      <trkpt lat="47.55142" lon="2.2422957">
        <ele>173</ele>
        <time>2022-06-09T07:39:53Z</time>
      </trkpt>
      <trkpt lat="47.551407" lon="2.2422907">
        <ele>172</ele>
        <time>2022-06-09T07:39:54Z</time>
      </trkpt>
      <trkpt lat="47.5514" lon="2.2422888">
        <ele>173</ele>
        <time>2022-06-09T07:39:55Z</time>
      </trkpt>
      <trkpt lat="47.55139" lon="2.242289">
        <ele>173</ele>
        <time>2022-06-09T07:39:56Z</time>
      </trkpt>
      <trkpt lat="47.551376" lon="2.2422867">
        <ele>173</ele>
        <time>2022-06-09T07:39:57Z</time>
      </trkpt>
      <trkpt lat="47.55136" lon="2.242282">
        <ele>173</ele>
        <time>2022-06-09T07:39:58Z</time>
      </trkpt>
      <trkpt lat="47.551353" lon="2.2422764">
        <ele>172</ele>
        <time>2022-06-09T07:39:59Z</time>
      </trkpt>
      <trkpt lat="47.551342" lon="2.2422707">
        <ele>173</ele>
        <time>2022-06-09T07:40:00Z</time>
      </trkpt>
      <trkpt lat="47.55133" lon="2.2422614">
        <ele>172</ele>
        <time>2022-06-09T07:40:01Z</time>
      </trkpt>
      <trkpt lat="47.55132" lon="2.2422538">
        <ele>172</ele>
        <time>2022-06-09T07:40:02Z</time>
      </trkpt>
      <trkpt lat="47.55131" lon="2.2422526">
        <ele>171</ele>
        <time>2022-06-09T07:40:03Z</time>
      </trkpt>
      <trkpt lat="47.5513" lon="2.242248">
        <ele>171</ele>
        <time>2022-06-09T07:40:04Z</time>
      </trkpt>
      <trkpt lat="47.55129" lon="2.2422462">
        <ele>170</ele>
        <time>2022-06-09T07:40:05Z</time>
      </trkpt>
      <trkpt lat="47.551277" lon="2.2422428">
        <ele>170</ele>
        <time>2022-06-09T07:40:06Z</time>
      </trkpt>
      <trkpt lat="47.55126" lon="2.242233">
        <ele>169</ele>
        <time>2022-06-09T07:40:07Z</time>
      </trkpt>
      <trkpt lat="47.551258" lon="2.2422194">
        <ele>169</ele>
        <time>2022-06-09T07:40:08Z</time>
      </trkpt>
      <trkpt lat="47.55125" lon="2.242214">
        <ele>168</ele>
        <time>2022-06-09T07:40:09Z</time>
      </trkpt>
      <trkpt lat="47.55124" lon="2.2422082">
        <ele>168</ele>
        <time>2022-06-09T07:40:10Z</time>
      </trkpt>
      <trkpt lat="47.551228" lon="2.2422025">
        <ele>168</ele>
        <time>2022-06-09T07:40:11Z</time>
      </trkpt>
      <trkpt lat="47.55122" lon="2.242195">
        <ele>167</ele>
        <time>2022-06-09T07:40:12Z</time>
      </trkpt>
      <trkpt lat="47.55121" lon="2.2421856">
        <ele>167</ele>
        <time>2022-06-09T07:40:13Z</time>
      </trkpt>
      <trkpt lat="47.551197" lon="2.242175">
        <ele>167</ele>
        <time>2022-06-09T07:40:14Z</time>
      </trkpt>
      <trkpt lat="47.55119" lon="2.242161">
        <ele>166</ele>
        <time>2022-06-09T07:40:15Z</time>
      </trkpt>
      <trkpt lat="47.551178" lon="2.242153">
        <ele>166</ele>
        <time>2022-06-09T07:40:16Z</time>
      </trkpt>
      <trkpt lat="47.551167" lon="2.242142">
        <ele>166</ele>
        <time>2022-06-09T07:40:17Z</time>
      </trkpt>
      <trkpt lat="47.55116" lon="2.242129">
        <ele>166</ele>
        <time>2022-06-09T07:40:18Z</time>
      </trkpt>
      <trkpt lat="47.551144" lon="2.2421103">
        <ele>165</ele>
        <time>2022-06-09T07:40:19Z</time>
      </trkpt>
      <trkpt lat="47.551136" lon="2.2420962">
        <ele>166</ele>
        <time>2022-06-09T07:40:20Z</time>
      </trkpt>
      <trkpt lat="47.551132" lon="2.2420764">
        <ele>165</ele>
        <time>2022-06-09T07:40:21Z</time>
      </trkpt>
      <trkpt lat="47.55112" lon="2.2420542">
        <ele>165</ele>
        <time>2022-06-09T07:40:22Z</time>
      </trkpt>
      <trkpt lat="47.551117" lon="2.242038">
        <ele>165</ele>
        <time>2022-06-09T07:40:23Z</time>
      </trkpt>
      <trkpt lat="47.551113" lon="2.2420225">
        <ele>164</ele>
        <time>2022-06-09T07:40:24Z</time>
      </trkpt>
      <trkpt lat="47.551113" lon="2.242014">
        <ele>165</ele>
        <time>2022-06-09T07:40:25Z</time>
      </trkpt>
      <trkpt lat="47.551105" lon="2.2420013">
        <ele>166</ele>
        <time>2022-06-09T07:40:26Z</time>
      </trkpt>
      <trkpt lat="47.551105" lon="2.2419949">
        <ele>166</ele>
        <time>2022-06-09T07:40:27Z</time>
      </trkpt>
      <trkpt lat="47.55111" lon="2.2419782">
        <ele>166</ele>
        <time>2022-06-09T07:40:28Z</time>
      </trkpt>
      <trkpt lat="47.55111" lon="2.2419782">
        <ele>166</ele>
        <time>2022-06-09T07:40:29Z</time>
      </trkpt>
      <trkpt lat="47.55111" lon="2.2419782">
        <ele>166</ele>
        <time>2022-06-09T07:40:29Z</time>
      </trkpt>
      <trkpt lat="47.55111" lon="2.2419782">
        <ele>166</ele>
        <time>2022-06-09T07:40:29Z</time>
      </trkpt>
      <trkpt lat="47.551075" lon="2.241979">
        <ele>168</ele>
        <time>2022-06-09T07:41:22Z</time>
      </trkpt>
      <trkpt lat="47.551075" lon="2.241979">
        <ele>168</ele>
        <time>2022-06-09T07:41:23Z</time>
      </trkpt>
      <trkpt lat="47.551056" lon="2.2419724">
        <ele>168</ele>
        <time>2022-06-09T07:41:24Z</time>
      </trkpt>
      <trkpt lat="47.55104" lon="2.2419672">
        <ele>168</ele>
        <time>2022-06-09T07:41:25Z</time>
      </trkpt>
      <trkpt lat="47.55103" lon="2.2419589">
        <ele>167</ele>
        <time>2022-06-09T07:41:26Z</time>
      </trkpt>
      <trkpt lat="47.551014" lon="2.241947">
        <ele>167</ele>
        <time>2022-06-09T07:41:27Z</time>
      </trkpt>
      <trkpt lat="47.551003" lon="2.2419364">
        <ele>167</ele>
        <time>2022-06-09T07:41:28Z</time>
      </trkpt>
      <trkpt lat="47.550983" lon="2.2419243">
        <ele>167</ele>
        <time>2022-06-09T07:41:29Z</time>
      </trkpt>
      <trkpt lat="47.550972" lon="2.241911">
        <ele>167</ele>
        <time>2022-06-09T07:41:30Z</time>
      </trkpt>
      <trkpt lat="47.55096" lon="2.2419004">
        <ele>167</ele>
        <time>2022-06-09T07:41:31Z</time>
      </trkpt>
      <trkpt lat="47.55095" lon="2.2418904">
        <ele>167</ele>
        <time>2022-06-09T07:41:32Z</time>
      </trkpt>
      <trkpt lat="47.550934" lon="2.241879">
        <ele>167</ele>
        <time>2022-06-09T07:41:33Z</time>
      </trkpt>
      <trkpt lat="47.55092" lon="2.2418656">
        <ele>167</ele>
        <time>2022-06-09T07:41:34Z</time>
      </trkpt>
      <trkpt lat="47.550907" lon="2.2418563">
        <ele>167</ele>
        <time>2022-06-09T07:41:35Z</time>
      </trkpt>
      <trkpt lat="47.550896" lon="2.241847">
        <ele>167</ele>
        <time>2022-06-09T07:41:36Z</time>
      </trkpt>
      <trkpt lat="47.55088" lon="2.2418404">
        <ele>167</ele>
        <time>2022-06-09T07:41:37Z</time>
      </trkpt>
      <trkpt lat="47.55087" lon="2.2418387">
        <ele>167</ele>
        <time>2022-06-09T07:41:38Z</time>
      </trkpt>
      <trkpt lat="47.550858" lon="2.2418337">
        <ele>167</ele>
        <time>2022-06-09T07:41:39Z</time>
      </trkpt>
      <trkpt lat="47.550846" lon="2.241825">
        <ele>167</ele>
        <time>2022-06-09T07:41:40Z</time>
      </trkpt>
      <trkpt lat="47.550835" lon="2.2418149">
        <ele>167</ele>
        <time>2022-06-09T07:41:41Z</time>
      </trkpt>
      <trkpt lat="47.550816" lon="2.2417996">
        <ele>168</ele>
        <time>2022-06-09T07:41:42Z</time>
      </trkpt>
      <trkpt lat="47.5508" lon="2.241775">
        <ele>168</ele>
        <time>2022-06-09T07:41:43Z</time>
      </trkpt>
      <trkpt lat="47.55078" lon="2.2417574">
        <ele>168</ele>
        <time>2022-06-09T07:41:44Z</time>
      </trkpt>
      <trkpt lat="47.550762" lon="2.2417421">
        <ele>167</ele>
        <time>2022-06-09T07:41:45Z</time>
      </trkpt>
      <trkpt lat="47.550747" lon="2.2417295">
        <ele>167</ele>
        <time>2022-06-09T07:41:46Z</time>
      </trkpt>
      <trkpt lat="47.55073" lon="2.2417157">
        <ele>167</ele>
        <time>2022-06-09T07:41:47Z</time>
      </trkpt>
      <trkpt lat="47.550716" lon="2.2416987">
        <ele>168</ele>
        <time>2022-06-09T07:41:48Z</time>
      </trkpt>
      <trkpt lat="47.5507" lon="2.2416928">
        <ele>168</ele>
        <time>2022-06-09T07:41:49Z</time>
      </trkpt>
      <trkpt lat="47.55069" lon="2.2416842">
        <ele>169</ele>
        <time>2022-06-09T07:41:50Z</time>
      </trkpt>
      <trkpt lat="47.55068" lon="2.2416673">
        <ele>168</ele>
        <time>2022-06-09T07:41:51Z</time>
      </trkpt>
      <trkpt lat="47.550663" lon="2.2416573">
        <ele>168</ele>
        <time>2022-06-09T07:41:52Z</time>
      </trkpt>
      <trkpt lat="47.550655" lon="2.241648">
        <ele>168</ele>
        <time>2022-06-09T07:41:53Z</time>
      </trkpt>
      <trkpt lat="47.550644" lon="2.241646">
        <ele>169</ele>
        <time>2022-06-09T07:41:54Z</time>
      </trkpt>
      <trkpt lat="47.550632" lon="2.241643">
        <ele>169</ele>
        <time>2022-06-09T07:41:55Z</time>
      </trkpt>
      <trkpt lat="47.550625" lon="2.2416368">
        <ele>168</ele>
        <time>2022-06-09T07:41:56Z</time>
      </trkpt>
      <trkpt lat="47.550613" lon="2.2416306">
        <ele>168</ele>
        <time>2022-06-09T07:41:57Z</time>
      </trkpt>
      <trkpt lat="47.5506" lon="2.2416263">
        <ele>168</ele>
        <time>2022-06-09T07:41:58Z</time>
      </trkpt>
      <trkpt lat="47.55059" lon="2.2416227">
        <ele>168</ele>
        <time>2022-06-09T07:41:59Z</time>
      </trkpt>
      <trkpt lat="47.550575" lon="2.24162">
        <ele>168</ele>
        <time>2022-06-09T07:42:00Z</time>
      </trkpt>
      <trkpt lat="47.550568" lon="2.241613">
        <ele>168</ele>
        <time>2022-06-09T07:42:01Z</time>
      </trkpt>
      <trkpt lat="47.55056" lon="2.2416096">
        <ele>168</ele>
        <time>2022-06-09T07:42:02Z</time>
      </trkpt>
      <trkpt lat="47.55055" lon="2.2416036">
        <ele>168</ele>
        <time>2022-06-09T07:42:03Z</time>
      </trkpt>
      <trkpt lat="47.55054" lon="2.2415977">
        <ele>167</ele>
        <time>2022-06-09T07:42:04Z</time>
      </trkpt>
      <trkpt lat="47.55053" lon="2.2415938">
        <ele>167</ele>
        <time>2022-06-09T07:42:05Z</time>
      </trkpt>
      <trkpt lat="47.550518" lon="2.2415845">
        <ele>167</ele>
        <time>2022-06-09T07:42:06Z</time>
      </trkpt>
      <trkpt lat="47.55051" lon="2.241575">
        <ele>167</ele>
        <time>2022-06-09T07:42:07Z</time>
      </trkpt>
      <trkpt lat="47.5505" lon="2.2415693">
        <ele>167</ele>
        <time>2022-06-09T07:42:08Z</time>
      </trkpt>
      <trkpt lat="47.550488" lon="2.241565">
        <ele>166</ele>
        <time>2022-06-09T07:42:09Z</time>
      </trkpt>
      <trkpt lat="47.55048" lon="2.241561">
        <ele>166</ele>
        <time>2022-06-09T07:42:10Z</time>
      </trkpt>
      <trkpt lat="47.550472" lon="2.241559">
        <ele>166</ele>
        <time>2022-06-09T07:42:11Z</time>
      </trkpt>
      <trkpt lat="47.550457" lon="2.2415538">
        <ele>166</ele>
        <time>2022-06-09T07:42:12Z</time>
      </trkpt>
      <trkpt lat="47.550446" lon="2.241545">
        <ele>166</ele>
        <time>2022-06-09T07:42:13Z</time>
      </trkpt>
      <trkpt lat="47.550434" lon="2.241537">
        <ele>165</ele>
        <time>2022-06-09T07:42:14Z</time>
      </trkpt>
      <trkpt lat="47.550423" lon="2.2415285">
        <ele>165</ele>
        <time>2022-06-09T07:42:15Z</time>
      </trkpt>
      <trkpt lat="47.550407" lon="2.2415206">
        <ele>164</ele>
        <time>2022-06-09T07:42:16Z</time>
      </trkpt>
      <trkpt lat="47.5504" lon="2.2415147">
        <ele>164</ele>
        <time>2022-06-09T07:42:17Z</time>
      </trkpt>
      <trkpt lat="47.55039" lon="2.241503">
        <ele>164</ele>
        <time>2022-06-09T07:42:18Z</time>
      </trkpt>
      <trkpt lat="47.550373" lon="2.241497">
        <ele>164</ele>
        <time>2022-06-09T07:42:19Z</time>
      </trkpt>
      <trkpt lat="47.55036" lon="2.2414932">
        <ele>164</ele>
        <time>2022-06-09T07:42:20Z</time>
      </trkpt>
      <trkpt lat="47.550346" lon="2.241489">
        <ele>164</ele>
        <time>2022-06-09T07:42:21Z</time>
      </trkpt>
      <trkpt lat="47.550335" lon="2.2414887">
        <ele>163</ele>
        <time>2022-06-09T07:42:22Z</time>
      </trkpt>
      <trkpt lat="47.55032" lon="2.241485">
        <ele>163</ele>
        <time>2022-06-09T07:42:23Z</time>
      </trkpt>
      <trkpt lat="47.55031" lon="2.2414777">
        <ele>163</ele>
        <time>2022-06-09T07:42:24Z</time>
      </trkpt>
      <trkpt lat="47.550297" lon="2.2414682">
        <ele>163</ele>
        <time>2022-06-09T07:42:25Z</time>
      </trkpt>
      <trkpt lat="47.550285" lon="2.241462">
        <ele>163</ele>
        <time>2022-06-09T07:42:26Z</time>
      </trkpt>
      <trkpt lat="47.550274" lon="2.2414505">
        <ele>163</ele>
        <time>2022-06-09T07:42:27Z</time>
      </trkpt>
      <trkpt lat="47.550262" lon="2.241439">
        <ele>163</ele>
        <time>2022-06-09T07:42:28Z</time>
      </trkpt>
      <trkpt lat="47.550247" lon="2.2414286">
        <ele>163</ele>
        <time>2022-06-09T07:42:29Z</time>
      </trkpt>
      <trkpt lat="47.550236" lon="2.2414165">
        <ele>163</ele>
        <time>2022-06-09T07:42:30Z</time>
      </trkpt>
      <trkpt lat="47.550224" lon="2.2414002">
        <ele>163</ele>
        <time>2022-06-09T07:42:31Z</time>
      </trkpt>
      <trkpt lat="47.55021" lon="2.2413893">
        <ele>163</ele>
        <time>2022-06-09T07:42:32Z</time>
      </trkpt>
      <trkpt lat="47.5502" lon="2.2413795">
        <ele>163</ele>
        <time>2022-06-09T07:42:33Z</time>
      </trkpt>
      <trkpt lat="47.55019" lon="2.2413652">
        <ele>164</ele>
        <time>2022-06-09T07:42:34Z</time>
      </trkpt>
      <trkpt lat="47.550175" lon="2.2413495">
        <ele>164</ele>
        <time>2022-06-09T07:42:35Z</time>
      </trkpt>
      <trkpt lat="47.55016" lon="2.241334">
        <ele>165</ele>
        <time>2022-06-09T07:42:36Z</time>
      </trkpt>
      <trkpt lat="47.550144" lon="2.241318">
        <ele>166</ele>
        <time>2022-06-09T07:42:37Z</time>
      </trkpt>
      <trkpt lat="47.550133" lon="2.2412996">
        <ele>166</ele>
        <time>2022-06-09T07:42:38Z</time>
      </trkpt>
      <trkpt lat="47.550117" lon="2.2412858">
        <ele>167</ele>
        <time>2022-06-09T07:42:39Z</time>
      </trkpt>
      <trkpt lat="47.550102" lon="2.241268">
        <ele>167</ele>
        <time>2022-06-09T07:42:40Z</time>
      </trkpt>
      <trkpt lat="47.550087" lon="2.2412488">
        <ele>168</ele>
        <time>2022-06-09T07:42:41Z</time>
      </trkpt>
      <trkpt lat="47.550076" lon="2.2412283">
        <ele>168</ele>
        <time>2022-06-09T07:42:42Z</time>
      </trkpt>
      <trkpt lat="47.550064" lon="2.2412107">
        <ele>168</ele>
        <time>2022-06-09T07:42:43Z</time>
      </trkpt>
      <trkpt lat="47.55005" lon="2.241191">
        <ele>169</ele>
        <time>2022-06-09T07:42:44Z</time>
      </trkpt>
      <trkpt lat="47.550037" lon="2.2411714">
        <ele>169</ele>
        <time>2022-06-09T07:42:45Z</time>
      </trkpt>
      <trkpt lat="47.550026" lon="2.2411528">
        <ele>169</ele>
        <time>2022-06-09T07:42:46Z</time>
      </trkpt>
      <trkpt lat="47.550014" lon="2.2411344">
        <ele>170</ele>
        <time>2022-06-09T07:42:47Z</time>
      </trkpt>
      <trkpt lat="47.55" lon="2.2411232">
        <ele>170</ele>
        <time>2022-06-09T07:42:48Z</time>
      </trkpt>
      <trkpt lat="47.549988" lon="2.2411125">
        <ele>170</ele>
        <time>2022-06-09T07:42:49Z</time>
      </trkpt>
      <trkpt lat="47.54997" lon="2.2411046">
        <ele>170</ele>
        <time>2022-06-09T07:42:50Z</time>
      </trkpt>
      <trkpt lat="47.549953" lon="2.2410984">
        <ele>170</ele>
        <time>2022-06-09T07:42:51Z</time>
      </trkpt>
      <trkpt lat="47.54994" lon="2.2410932">
        <ele>171</ele>
        <time>2022-06-09T07:42:52Z</time>
      </trkpt>
      <trkpt lat="47.549923" lon="2.2410839">
        <ele>171</ele>
        <time>2022-06-09T07:42:53Z</time>
      </trkpt>
      <trkpt lat="47.54991" lon="2.2410755">
        <ele>171</ele>
        <time>2022-06-09T07:42:54Z</time>
      </trkpt>
      <trkpt lat="47.5499" lon="2.2410638">
        <ele>171</ele>
        <time>2022-06-09T07:42:55Z</time>
      </trkpt>
      <trkpt lat="47.549885" lon="2.2410583">
        <ele>171</ele>
        <time>2022-06-09T07:42:56Z</time>
      </trkpt>
      <trkpt lat="47.54987" lon="2.241051">
        <ele>171</ele>
        <time>2022-06-09T07:42:57Z</time>
      </trkpt>
      <trkpt lat="47.54986" lon="2.241043">
        <ele>171</ele>
        <time>2022-06-09T07:42:58Z</time>
      </trkpt>
      <trkpt lat="47.549843" lon="2.2410374">
        <ele>172</ele>
        <time>2022-06-09T07:42:59Z</time>
      </trkpt>
      <trkpt lat="47.549828" lon="2.2410326">
        <ele>172</ele>
        <time>2022-06-09T07:43:00Z</time>
      </trkpt>
      <trkpt lat="47.549812" lon="2.2410262">
        <ele>172</ele>
        <time>2022-06-09T07:43:01Z</time>
      </trkpt>
      <trkpt lat="47.5498" lon="2.241021">
        <ele>173</ele>
        <time>2022-06-09T07:43:02Z</time>
      </trkpt>
      <trkpt lat="47.54979" lon="2.2410164">
        <ele>172</ele>
        <time>2022-06-09T07:43:03Z</time>
      </trkpt>
      <trkpt lat="47.549778" lon="2.2410107">
        <ele>172</ele>
        <time>2022-06-09T07:43:04Z</time>
      </trkpt>
      <trkpt lat="47.54977" lon="2.241003">
        <ele>172</ele>
        <time>2022-06-09T07:43:05Z</time>
      </trkpt>
      <trkpt lat="47.54976" lon="2.240993">
        <ele>172</ele>
        <time>2022-06-09T07:43:06Z</time>
      </trkpt>
      <trkpt lat="47.549747" lon="2.2409859">
        <ele>172</ele>
        <time>2022-06-09T07:43:07Z</time>
      </trkpt>
      <trkpt lat="47.549732" lon="2.2409782">
        <ele>172</ele>
        <time>2022-06-09T07:43:08Z</time>
      </trkpt>
      <trkpt lat="47.549713" lon="2.2409668">
        <ele>171</ele>
        <time>2022-06-09T07:43:09Z</time>
      </trkpt>
      <trkpt lat="47.549698" lon="2.2409549">
        <ele>171</ele>
        <time>2022-06-09T07:43:10Z</time>
      </trkpt>
      <trkpt lat="47.549683" lon="2.2409437">
        <ele>171</ele>
        <time>2022-06-09T07:43:11Z</time>
      </trkpt>
      <trkpt lat="47.549667" lon="2.240931">
        <ele>171</ele>
        <time>2022-06-09T07:43:12Z</time>
      </trkpt>
      <trkpt lat="47.549652" lon="2.2409167">
        <ele>171</ele>
        <time>2022-06-09T07:43:13Z</time>
      </trkpt>
      <trkpt lat="47.54964" lon="2.2409074">
        <ele>171</ele>
        <time>2022-06-09T07:43:14Z</time>
      </trkpt>
      <trkpt lat="47.549633" lon="2.2408948">
        <ele>170</ele>
        <time>2022-06-09T07:43:15Z</time>
      </trkpt>
      <trkpt lat="47.549614" lon="2.2408864">
        <ele>170</ele>
        <time>2022-06-09T07:43:16Z</time>
      </trkpt>
      <trkpt lat="47.5496" lon="2.2408767">
        <ele>170</ele>
        <time>2022-06-09T07:43:17Z</time>
      </trkpt>
      <trkpt lat="47.549587" lon="2.2408633">
        <ele>169</ele>
        <time>2022-06-09T07:43:18Z</time>
      </trkpt>
      <trkpt lat="47.549576" lon="2.2408478">
        <ele>169</ele>
        <time>2022-06-09T07:43:19Z</time>
      </trkpt>
      <trkpt lat="47.549564" lon="2.2408369">
        <ele>170</ele>
        <time>2022-06-09T07:43:20Z</time>
      </trkpt>
      <trkpt lat="47.549553" lon="2.2408252">
        <ele>170</ele>
        <time>2022-06-09T07:43:21Z</time>
      </trkpt>
      <trkpt lat="47.549538" lon="2.2408142">
        <ele>170</ele>
        <time>2022-06-09T07:43:22Z</time>
      </trkpt>
      <trkpt lat="47.549522" lon="2.2408044">
        <ele>170</ele>
        <time>2022-06-09T07:43:23Z</time>
      </trkpt>
      <trkpt lat="47.549507" lon="2.2407944">
        <ele>170</ele>
        <time>2022-06-09T07:43:24Z</time>
      </trkpt>
      <trkpt lat="47.549496" lon="2.2407846">
        <ele>170</ele>
        <time>2022-06-09T07:43:25Z</time>
      </trkpt>
      <trkpt lat="47.54948" lon="2.2407691">
        <ele>170</ele>
        <time>2022-06-09T07:43:26Z</time>
      </trkpt>
      <trkpt lat="47.549465" lon="2.2407553">
        <ele>170</ele>
        <time>2022-06-09T07:43:27Z</time>
      </trkpt>
      <trkpt lat="47.549454" lon="2.2407448">
        <ele>171</ele>
        <time>2022-06-09T07:43:28Z</time>
      </trkpt>
      <trkpt lat="47.549442" lon="2.2407312">
        <ele>171</ele>
        <time>2022-06-09T07:43:29Z</time>
      </trkpt>
      <trkpt lat="47.54943" lon="2.2407181">
        <ele>171</ele>
        <time>2022-06-09T07:43:30Z</time>
      </trkpt>
      <trkpt lat="47.54942" lon="2.240707">
        <ele>171</ele>
        <time>2022-06-09T07:43:31Z</time>
      </trkpt>
      <trkpt lat="47.549404" lon="2.2406945">
        <ele>171</ele>
        <time>2022-06-09T07:43:32Z</time>
      </trkpt>
      <trkpt lat="47.549397" lon="2.2406821">
        <ele>171</ele>
        <time>2022-06-09T07:43:33Z</time>
      </trkpt>
      <trkpt lat="47.54938" lon="2.2406704">
        <ele>171</ele>
        <time>2022-06-09T07:43:34Z</time>
      </trkpt>
      <trkpt lat="47.54937" lon="2.2406602">
        <ele>171</ele>
        <time>2022-06-09T07:43:35Z</time>
      </trkpt>
      <trkpt lat="47.549355" lon="2.2406518">
        <ele>171</ele>
        <time>2022-06-09T07:43:36Z</time>
      </trkpt>
      <trkpt lat="47.549343" lon="2.240638">
        <ele>171</ele>
        <time>2022-06-09T07:43:37Z</time>
      </trkpt>
      <trkpt lat="47.54933" lon="2.2406237">
        <ele>171</ele>
        <time>2022-06-09T07:43:38Z</time>
      </trkpt>
      <trkpt lat="47.549316" lon="2.2406094">
        <ele>171</ele>
        <time>2022-06-09T07:43:39Z</time>
      </trkpt>
      <trkpt lat="47.549305" lon="2.2405996">
        <ele>171</ele>
        <time>2022-06-09T07:43:40Z</time>
      </trkpt>
      <trkpt lat="47.54929" lon="2.240588">
        <ele>171</ele>
        <time>2022-06-09T07:43:41Z</time>
      </trkpt>
      <trkpt lat="47.54928" lon="2.2405803">
        <ele>171</ele>
        <time>2022-06-09T07:43:42Z</time>
      </trkpt>
      <trkpt lat="47.549267" lon="2.24057">
        <ele>172</ele>
        <time>2022-06-09T07:43:43Z</time>
      </trkpt>
      <trkpt lat="47.54925" lon="2.240555">
        <ele>172</ele>
        <time>2022-06-09T07:43:44Z</time>
      </trkpt>
      <trkpt lat="47.549236" lon="2.240541">
        <ele>172</ele>
        <time>2022-06-09T07:43:45Z</time>
      </trkpt>
      <trkpt lat="47.54921" lon="2.240521">
        <ele>171</ele>
        <time>2022-06-09T07:43:47Z</time>
      </trkpt>
      <trkpt lat="47.549194" lon="2.240507">
        <ele>171</ele>
        <time>2022-06-09T07:43:48Z</time>
      </trkpt>
      <trkpt lat="47.549183" lon="2.2404912">
        <ele>172</ele>
        <time>2022-06-09T07:43:49Z</time>
      </trkpt>
      <trkpt lat="47.549168" lon="2.2404826">
        <ele>172</ele>
        <time>2022-06-09T07:43:50Z</time>
      </trkpt>
      <trkpt lat="47.549156" lon="2.2404783">
        <ele>173</ele>
        <time>2022-06-09T07:43:51Z</time>
      </trkpt>
      <trkpt lat="47.549145" lon="2.2404704">
        <ele>173</ele>
        <time>2022-06-09T07:43:52Z</time>
      </trkpt>
      <trkpt lat="47.54913" lon="2.2404616">
        <ele>173</ele>
        <time>2022-06-09T07:43:53Z</time>
      </trkpt>
      <trkpt lat="47.549118" lon="2.2404537">
        <ele>173</ele>
        <time>2022-06-09T07:43:54Z</time>
      </trkpt>
      <trkpt lat="47.549107" lon="2.2404406">
        <ele>174</ele>
        <time>2022-06-09T07:43:55Z</time>
      </trkpt>
      <trkpt lat="47.549095" lon="2.2404287">
        <ele>174</ele>
        <time>2022-06-09T07:43:56Z</time>
      </trkpt>
      <trkpt lat="47.549084" lon="2.2404163">
        <ele>174</ele>
        <time>2022-06-09T07:43:57Z</time>
      </trkpt>
      <trkpt lat="47.549076" lon="2.2404">
        <ele>174</ele>
        <time>2022-06-09T07:43:58Z</time>
      </trkpt>
      <trkpt lat="47.549065" lon="2.2403889">
        <ele>174</ele>
        <time>2022-06-09T07:43:59Z</time>
      </trkpt>
      <trkpt lat="47.549053" lon="2.2403755">
        <ele>175</ele>
        <time>2022-06-09T07:44:00Z</time>
      </trkpt>
      <trkpt lat="47.54904" lon="2.240364">
        <ele>175</ele>
        <time>2022-06-09T07:44:01Z</time>
      </trkpt>
      <trkpt lat="47.549026" lon="2.2403522">
        <ele>175</ele>
        <time>2022-06-09T07:44:02Z</time>
      </trkpt>
      <trkpt lat="47.549015" lon="2.2403407">
        <ele>175</ele>
        <time>2022-06-09T07:44:03Z</time>
      </trkpt>
      <trkpt lat="47.549004" lon="2.2403328">
        <ele>175</ele>
        <time>2022-06-09T07:44:04Z</time>
      </trkpt>
      <trkpt lat="47.548992" lon="2.240323">
        <ele>175</ele>
        <time>2022-06-09T07:44:05Z</time>
      </trkpt>
      <trkpt lat="47.54898" lon="2.2403147">
        <ele>175</ele>
        <time>2022-06-09T07:44:06Z</time>
      </trkpt>
      <trkpt lat="47.548965" lon="2.2403023">
        <ele>175</ele>
        <time>2022-06-09T07:44:07Z</time>
      </trkpt>
      <trkpt lat="47.548954" lon="2.2402925">
        <ele>175</ele>
        <time>2022-06-09T07:44:08Z</time>
      </trkpt>
      <trkpt lat="47.548943" lon="2.2402813">
        <ele>175</ele>
        <time>2022-06-09T07:44:09Z</time>
      </trkpt>
      <trkpt lat="47.54893" lon="2.2402682">
        <ele>175</ele>
        <time>2022-06-09T07:44:10Z</time>
      </trkpt>
      <trkpt lat="47.548916" lon="2.2402587">
        <ele>175</ele>
        <time>2022-06-09T07:44:11Z</time>
      </trkpt>
      <trkpt lat="47.548904" lon="2.2402482">
        <ele>175</ele>
        <time>2022-06-09T07:44:12Z</time>
      </trkpt>
      <trkpt lat="47.548893" lon="2.2402394">
        <ele>175</ele>
        <time>2022-06-09T07:44:13Z</time>
      </trkpt>
      <trkpt lat="47.548878" lon="2.2402277">
        <ele>175</ele>
        <time>2022-06-09T07:44:14Z</time>
      </trkpt>
      <trkpt lat="47.548866" lon="2.2402182">
        <ele>175</ele>
        <time>2022-06-09T07:44:15Z</time>
      </trkpt>
      <trkpt lat="47.548855" lon="2.240206">
        <ele>175</ele>
        <time>2022-06-09T07:44:16Z</time>
      </trkpt>
      <trkpt lat="47.548843" lon="2.2401946">
        <ele>175</ele>
        <time>2022-06-09T07:44:17Z</time>
      </trkpt>
      <trkpt lat="47.548832" lon="2.2401862">
        <ele>175</ele>
        <time>2022-06-09T07:44:18Z</time>
      </trkpt>
      <trkpt lat="47.54882" lon="2.2401721">
        <ele>175</ele>
        <time>2022-06-09T07:44:19Z</time>
      </trkpt>
      <trkpt lat="47.54881" lon="2.2401574">
        <ele>174</ele>
        <time>2022-06-09T07:44:20Z</time>
      </trkpt>
      <trkpt lat="47.548798" lon="2.2401445">
        <ele>175</ele>
        <time>2022-06-09T07:44:21Z</time>
      </trkpt>
      <trkpt lat="47.548782" lon="2.240133">
        <ele>175</ele>
        <time>2022-06-09T07:44:22Z</time>
      </trkpt>
      <trkpt lat="47.54877" lon="2.2401226">
        <ele>175</ele>
        <time>2022-06-09T07:44:23Z</time>
      </trkpt>
      <trkpt lat="47.54876" lon="2.2401104">
        <ele>175</ele>
        <time>2022-06-09T07:44:24Z</time>
      </trkpt>
      <trkpt lat="47.548744" lon="2.2400978">
        <ele>175</ele>
        <time>2022-06-09T07:44:25Z</time>
      </trkpt>
      <trkpt lat="47.548733" lon="2.2400873">
        <ele>175</ele>
        <time>2022-06-09T07:44:26Z</time>
      </trkpt>
      <trkpt lat="47.54872" lon="2.240077">
        <ele>175</ele>
        <time>2022-06-09T07:44:27Z</time>
      </trkpt>
      <trkpt lat="47.54871" lon="2.240066">
        <ele>175</ele>
        <time>2022-06-09T07:44:28Z</time>
      </trkpt>
      <trkpt lat="47.548695" lon="2.2400537">
        <ele>175</ele>
        <time>2022-06-09T07:44:29Z</time>
      </trkpt>
      <trkpt lat="47.548687" lon="2.2400403">
        <ele>175</ele>
        <time>2022-06-09T07:44:30Z</time>
      </trkpt>
      <trkpt lat="47.54867" lon="2.2400298">
        <ele>175</ele>
        <time>2022-06-09T07:44:31Z</time>
      </trkpt>
      <trkpt lat="47.548656" lon="2.240019">
        <ele>175</ele>
        <time>2022-06-09T07:44:32Z</time>
      </trkpt>
      <trkpt lat="47.548645" lon="2.2400038">
        <ele>176</ele>
        <time>2022-06-09T07:44:33Z</time>
      </trkpt>
      <trkpt lat="47.548634" lon="2.2399917">
        <ele>176</ele>
        <time>2022-06-09T07:44:34Z</time>
      </trkpt>
      <trkpt lat="47.548626" lon="2.23998">
        <ele>176</ele>
        <time>2022-06-09T07:44:35Z</time>
      </trkpt>
      <trkpt lat="47.54861" lon="2.23997">
        <ele>176</ele>
        <time>2022-06-09T07:44:36Z</time>
      </trkpt>
      <trkpt lat="47.548603" lon="2.2399585">
        <ele>176</ele>
        <time>2022-06-09T07:44:37Z</time>
      </trkpt>
      <trkpt lat="47.54859" lon="2.2399487">
        <ele>177</ele>
        <time>2022-06-09T07:44:38Z</time>
      </trkpt>
      <trkpt lat="47.548576" lon="2.2399404">
        <ele>177</ele>
        <time>2022-06-09T07:44:39Z</time>
      </trkpt>
      <trkpt lat="47.54857" lon="2.2399309">
        <ele>177</ele>
        <time>2022-06-09T07:44:40Z</time>
      </trkpt>
      <trkpt lat="47.548553" lon="2.239922">
        <ele>177</ele>
        <time>2022-06-09T07:44:41Z</time>
      </trkpt>
      <trkpt lat="47.548542" lon="2.239915">
        <ele>176</ele>
        <time>2022-06-09T07:44:42Z</time>
      </trkpt>
      <trkpt lat="47.548527" lon="2.2399049">
        <ele>177</ele>
        <time>2022-06-09T07:44:43Z</time>
      </trkpt>
      <trkpt lat="47.54852" lon="2.2398946">
        <ele>177</ele>
        <time>2022-06-09T07:44:44Z</time>
      </trkpt>
      <trkpt lat="47.548504" lon="2.239884">
        <ele>177</ele>
        <time>2022-06-09T07:44:45Z</time>
      </trkpt>
      <trkpt lat="47.54849" lon="2.2398756">
        <ele>176</ele>
        <time>2022-06-09T07:44:46Z</time>
      </trkpt>
      <trkpt lat="47.548473" lon="2.2398672">
        <ele>176</ele>
        <time>2022-06-09T07:44:47Z</time>
      </trkpt>
      <trkpt lat="47.548462" lon="2.2398586">
        <ele>176</ele>
        <time>2022-06-09T07:44:48Z</time>
      </trkpt>
      <trkpt lat="47.548454" lon="2.2398448">
        <ele>176</ele>
        <time>2022-06-09T07:44:49Z</time>
      </trkpt>
      <trkpt lat="47.54844" lon="2.23983">
        <ele>177</ele>
        <time>2022-06-09T07:44:50Z</time>
      </trkpt>
      <trkpt lat="47.54843" lon="2.2398174">
        <ele>177</ele>
        <time>2022-06-09T07:44:51Z</time>
      </trkpt>
      <trkpt lat="47.548416" lon="2.2398055">
        <ele>177</ele>
        <time>2022-06-09T07:44:52Z</time>
      </trkpt>
      <trkpt lat="47.54841" lon="2.2397938">
        <ele>177</ele>
        <time>2022-06-09T07:44:53Z</time>
      </trkpt>
      <trkpt lat="47.548397" lon="2.2397823">
        <ele>177</ele>
        <time>2022-06-09T07:44:54Z</time>
      </trkpt>
      <trkpt lat="47.548386" lon="2.2397716">
        <ele>177</ele>
        <time>2022-06-09T07:44:55Z</time>
      </trkpt>
      <trkpt lat="47.54837" lon="2.2397604">
        <ele>177</ele>
        <time>2022-06-09T07:44:56Z</time>
      </trkpt>
      <trkpt lat="47.548363" lon="2.2397482">
        <ele>177</ele>
        <time>2022-06-09T07:44:57Z</time>
      </trkpt>
      <trkpt lat="47.548347" lon="2.2397368">
        <ele>177</ele>
        <time>2022-06-09T07:44:58Z</time>
      </trkpt>
      <trkpt lat="47.548336" lon="2.239724">
        <ele>177</ele>
        <time>2022-06-09T07:44:59Z</time>
      </trkpt>
      <trkpt lat="47.548325" lon="2.2397106">
        <ele>177</ele>
        <time>2022-06-09T07:45:00Z</time>
      </trkpt>
      <trkpt lat="47.548313" lon="2.2396963">
        <ele>177</ele>
        <time>2022-06-09T07:45:01Z</time>
      </trkpt>
      <trkpt lat="47.5483" lon="2.2396824">
        <ele>177</ele>
        <time>2022-06-09T07:45:02Z</time>
      </trkpt>
      <trkpt lat="47.54829" lon="2.2396731">
        <ele>177</ele>
        <time>2022-06-09T07:45:03Z</time>
      </trkpt>
      <trkpt lat="47.548275" lon="2.2396643">
        <ele>177</ele>
        <time>2022-06-09T07:45:04Z</time>
      </trkpt>
      <trkpt lat="47.548264" lon="2.2396545">
        <ele>177</ele>
        <time>2022-06-09T07:45:05Z</time>
      </trkpt>
      <trkpt lat="47.548252" lon="2.239642">
        <ele>177</ele>
        <time>2022-06-09T07:45:06Z</time>
      </trkpt>
      <trkpt lat="47.548237" lon="2.2396283">
        <ele>177</ele>
        <time>2022-06-09T07:45:07Z</time>
      </trkpt>
      <trkpt lat="47.548225" lon="2.2396123">
        <ele>177</ele>
        <time>2022-06-09T07:45:08Z</time>
      </trkpt>
      <trkpt lat="47.548214" lon="2.2396007">
        <ele>177</ele>
        <time>2022-06-09T07:45:09Z</time>
      </trkpt>
      <trkpt lat="47.548203" lon="2.2395866">
        <ele>176</ele>
        <time>2022-06-09T07:45:10Z</time>
      </trkpt>
      <trkpt lat="47.548187" lon="2.239574">
        <ele>176</ele>
        <time>2022-06-09T07:45:11Z</time>
      </trkpt>
      <trkpt lat="47.548176" lon="2.2395606">
        <ele>176</ele>
        <time>2022-06-09T07:45:12Z</time>
      </trkpt>
      <trkpt lat="47.54816" lon="2.23955">
        <ele>176</ele>
        <time>2022-06-09T07:45:13Z</time>
      </trkpt>
      <trkpt lat="47.54815" lon="2.2395384">
        <ele>176</ele>
        <time>2022-06-09T07:45:14Z</time>
      </trkpt>
      <trkpt lat="47.548134" lon="2.2395282">
        <ele>176</ele>
        <time>2022-06-09T07:45:15Z</time>
      </trkpt>
      <trkpt lat="47.548122" lon="2.2395175">
        <ele>176</ele>
        <time>2022-06-09T07:45:16Z</time>
      </trkpt>
      <trkpt lat="47.548107" lon="2.2395065">
        <ele>176</ele>
        <time>2022-06-09T07:45:17Z</time>
      </trkpt>
      <trkpt lat="47.548096" lon="2.2394955">
        <ele>176</ele>
        <time>2022-06-09T07:45:18Z</time>
      </trkpt>
      <trkpt lat="47.548084" lon="2.2394853">
        <ele>176</ele>
        <time>2022-06-09T07:45:19Z</time>
      </trkpt>
      <trkpt lat="47.548073" lon="2.2394745">
        <ele>176</ele>
        <time>2022-06-09T07:45:20Z</time>
      </trkpt>
      <trkpt lat="47.54806" lon="2.2394638">
        <ele>176</ele>
        <time>2022-06-09T07:45:21Z</time>
      </trkpt>
      <trkpt lat="47.548046" lon="2.2394564">
        <ele>175</ele>
        <time>2022-06-09T07:45:22Z</time>
      </trkpt>
      <trkpt lat="47.548035" lon="2.239444">
        <ele>175</ele>
        <time>2022-06-09T07:45:23Z</time>
      </trkpt>
      <trkpt lat="47.548023" lon="2.2394295">
        <ele>176</ele>
        <time>2022-06-09T07:45:24Z</time>
      </trkpt>
      <trkpt lat="47.54801" lon="2.239415">
        <ele>176</ele>
        <time>2022-06-09T07:45:25Z</time>
      </trkpt>
      <trkpt lat="47.547997" lon="2.2394052">
        <ele>176</ele>
        <time>2022-06-09T07:45:26Z</time>
      </trkpt>
      <trkpt lat="47.54798" lon="2.2393963">
        <ele>176</ele>
        <time>2022-06-09T07:45:27Z</time>
      </trkpt>
      <trkpt lat="47.54797" lon="2.239389">
        <ele>176</ele>
        <time>2022-06-09T07:45:28Z</time>
      </trkpt>
      <trkpt lat="47.54796" lon="2.239378">
        <ele>176</ele>
        <time>2022-06-09T07:45:29Z</time>
      </trkpt>
      <trkpt lat="47.547947" lon="2.2393646">
        <ele>176</ele>
        <time>2022-06-09T07:45:30Z</time>
      </trkpt>
      <trkpt lat="47.54794" lon="2.2393541">
        <ele>176</ele>
        <time>2022-06-09T07:45:31Z</time>
      </trkpt>
      <trkpt lat="47.547928" lon="2.2393422">
        <ele>176</ele>
        <time>2022-06-09T07:45:32Z</time>
      </trkpt>
      <trkpt lat="47.547916" lon="2.2393296">
        <ele>176</ele>
        <time>2022-06-09T07:45:33Z</time>
      </trkpt>
      <trkpt lat="47.547905" lon="2.2393193">
        <ele>177</ele>
        <time>2022-06-09T07:45:34Z</time>
      </trkpt>
      <trkpt lat="47.547894" lon="2.2393067">
        <ele>177</ele>
        <time>2022-06-09T07:45:35Z</time>
      </trkpt>
      <trkpt lat="47.547882" lon="2.2392936">
        <ele>177</ele>
        <time>2022-06-09T07:45:36Z</time>
      </trkpt>
      <trkpt lat="47.547863" lon="2.239284">
        <ele>177</ele>
        <time>2022-06-09T07:45:37Z</time>
      </trkpt>
      <trkpt lat="47.54785" lon="2.2392714">
        <ele>177</ele>
        <time>2022-06-09T07:45:38Z</time>
      </trkpt>
      <trkpt lat="47.547836" lon="2.2392561">
        <ele>177</ele>
        <time>2022-06-09T07:45:39Z</time>
      </trkpt>
      <trkpt lat="47.54782" lon="2.2392433">
        <ele>177</ele>
        <time>2022-06-09T07:45:40Z</time>
      </trkpt>
      <trkpt lat="47.54781" lon="2.239235">
        <ele>176</ele>
        <time>2022-06-09T07:45:41Z</time>
      </trkpt>
      <trkpt lat="47.5478" lon="2.239225">
        <ele>176</ele>
        <time>2022-06-09T07:45:42Z</time>
      </trkpt>
      <trkpt lat="47.547787" lon="2.2392123">
        <ele>176</ele>
        <time>2022-06-09T07:45:43Z</time>
      </trkpt>
      <trkpt lat="47.547775" lon="2.239201">
        <ele>176</ele>
        <time>2022-06-09T07:45:44Z</time>
      </trkpt>
      <trkpt lat="47.547768" lon="2.2391918">
        <ele>177</ele>
        <time>2022-06-09T07:45:45Z</time>
      </trkpt>
      <trkpt lat="47.547752" lon="2.2391791">
        <ele>177</ele>
        <time>2022-06-09T07:45:46Z</time>
      </trkpt>
      <trkpt lat="47.547737" lon="2.2391686">
        <ele>178</ele>
        <time>2022-06-09T07:45:47Z</time>
      </trkpt>
      <trkpt lat="47.54773" lon="2.2391613">
        <ele>178</ele>
        <time>2022-06-09T07:45:48Z</time>
      </trkpt>
      <trkpt lat="47.547718" lon="2.239153">
        <ele>178</ele>
        <time>2022-06-09T07:45:49Z</time>
      </trkpt>
      <trkpt lat="47.547707" lon="2.2391434">
        <ele>178</ele>
        <time>2022-06-09T07:45:50Z</time>
      </trkpt>
      <trkpt lat="47.547695" lon="2.2391334">
        <ele>178</ele>
        <time>2022-06-09T07:45:51Z</time>
      </trkpt>
      <trkpt lat="47.547684" lon="2.2391248">
        <ele>178</ele>
        <time>2022-06-09T07:45:52Z</time>
      </trkpt>
      <trkpt lat="47.547672" lon="2.2391174">
        <ele>178</ele>
        <time>2022-06-09T07:45:53Z</time>
      </trkpt>
      <trkpt lat="47.54766" lon="2.2391055">
        <ele>178</ele>
        <time>2022-06-09T07:45:54Z</time>
      </trkpt>
      <trkpt lat="47.54765" lon="2.2390966">
        <ele>178</ele>
        <time>2022-06-09T07:45:55Z</time>
      </trkpt>
      <trkpt lat="47.547634" lon="2.2390807">
        <ele>178</ele>
        <time>2022-06-09T07:45:56Z</time>
      </trkpt>
      <trkpt lat="47.547623" lon="2.2390678">
        <ele>178</ele>
        <time>2022-06-09T07:45:57Z</time>
      </trkpt>
      <trkpt lat="47.54761" lon="2.2390559">
        <ele>178</ele>
        <time>2022-06-09T07:45:58Z</time>
      </trkpt>
      <trkpt lat="47.5476" lon="2.2390442">
        <ele>179</ele>
        <time>2022-06-09T07:45:59Z</time>
      </trkpt>
      <trkpt lat="47.54759" lon="2.2390342">
        <ele>179</ele>
        <time>2022-06-09T07:46:00Z</time>
      </trkpt>
      <trkpt lat="47.547573" lon="2.2390249">
        <ele>179</ele>
        <time>2022-06-09T07:46:01Z</time>
      </trkpt>
      <trkpt lat="47.54756" lon="2.2390141">
        <ele>179</ele>
        <time>2022-06-09T07:46:02Z</time>
      </trkpt>
      <trkpt lat="47.547546" lon="2.2390065">
        <ele>179</ele>
        <time>2022-06-09T07:46:03Z</time>
      </trkpt>
      <trkpt lat="47.54754" lon="2.2390025">
        <ele>179</ele>
        <time>2022-06-09T07:46:04Z</time>
      </trkpt>
      <trkpt lat="47.547535" lon="2.2390044">
        <ele>178</ele>
        <time>2022-06-09T07:46:05Z</time>
      </trkpt>
      <trkpt lat="47.54754" lon="2.2390032">
        <ele>178</ele>
        <time>2022-06-09T07:46:06Z</time>
      </trkpt>
      <trkpt lat="47.547535" lon="2.239003">
        <ele>177</ele>
        <time>2022-06-09T07:46:07Z</time>
      </trkpt>
      <trkpt lat="47.547523" lon="2.2389991">
        <ele>177</ele>
        <time>2022-06-09T07:46:08Z</time>
      </trkpt>
      <trkpt lat="47.547512" lon="2.2389874">
        <ele>177</ele>
        <time>2022-06-09T07:46:09Z</time>
      </trkpt>
      <trkpt lat="47.5475" lon="2.2389774">
        <ele>177</ele>
        <time>2022-06-09T07:46:10Z</time>
      </trkpt>
      <trkpt lat="47.547485" lon="2.2389655">
        <ele>177</ele>
        <time>2022-06-09T07:46:11Z</time>
      </trkpt>
      <trkpt lat="47.547478" lon="2.238953">
        <ele>177</ele>
        <time>2022-06-09T07:46:12Z</time>
      </trkpt>
      <trkpt lat="47.547462" lon="2.2389386">
        <ele>178</ele>
        <time>2022-06-09T07:46:13Z</time>
      </trkpt>
      <trkpt lat="47.54745" lon="2.2389238">
        <ele>178</ele>
        <time>2022-06-09T07:46:14Z</time>
      </trkpt>
      <trkpt lat="47.54744" lon="2.2389152">
        <ele>178</ele>
        <time>2022-06-09T07:46:15Z</time>
      </trkpt>
      <trkpt lat="47.547424" lon="2.2389033">
        <ele>178</ele>
        <time>2022-06-09T07:46:16Z</time>
      </trkpt>
      <trkpt lat="47.547413" lon="2.2388878">
        <ele>178</ele>
        <time>2022-06-09T07:46:17Z</time>
      </trkpt>
      <trkpt lat="47.547398" lon="2.2388754">
        <ele>177</ele>
        <time>2022-06-09T07:46:18Z</time>
      </trkpt>
      <trkpt lat="47.547386" lon="2.2388678">
        <ele>178</ele>
        <time>2022-06-09T07:46:19Z</time>
      </trkpt>
      <trkpt lat="47.547375" lon="2.2388577">
        <ele>177</ele>
        <time>2022-06-09T07:46:20Z</time>
      </trkpt>
      <trkpt lat="47.54736" lon="2.238847">
        <ele>178</ele>
        <time>2022-06-09T07:46:21Z</time>
      </trkpt>
      <trkpt lat="47.547348" lon="2.2388332">
        <ele>178</ele>
        <time>2022-06-09T07:46:22Z</time>
      </trkpt>
      <trkpt lat="47.547333" lon="2.2388234">
        <ele>178</ele>
        <time>2022-06-09T07:46:23Z</time>
      </trkpt>
      <trkpt lat="47.54732" lon="2.2388153">
        <ele>177</ele>
        <time>2022-06-09T07:46:24Z</time>
      </trkpt>
      <trkpt lat="47.54731" lon="2.2388055">
        <ele>177</ele>
        <time>2022-06-09T07:46:25Z</time>
      </trkpt>
      <trkpt lat="47.5473" lon="2.238796">
        <ele>177</ele>
        <time>2022-06-09T07:46:26Z</time>
      </trkpt>
      <trkpt lat="47.547287" lon="2.2387846">
        <ele>177</ele>
        <time>2022-06-09T07:46:27Z</time>
      </trkpt>
      <trkpt lat="47.547276" lon="2.2387722">
        <ele>177</ele>
        <time>2022-06-09T07:46:28Z</time>
      </trkpt>
      <trkpt lat="47.54726" lon="2.2387643">
        <ele>178</ele>
        <time>2022-06-09T07:46:29Z</time>
      </trkpt>
      <trkpt lat="47.54725" lon="2.238752">
        <ele>178</ele>
        <time>2022-06-09T07:46:30Z</time>
      </trkpt>
      <trkpt lat="47.547234" lon="2.23874">
        <ele>178</ele>
        <time>2022-06-09T07:46:31Z</time>
      </trkpt>
      <trkpt lat="47.547222" lon="2.2387276">
        <ele>178</ele>
        <time>2022-06-09T07:46:32Z</time>
      </trkpt>
      <trkpt lat="47.54721" lon="2.238716">
        <ele>179</ele>
        <time>2022-06-09T07:46:33Z</time>
      </trkpt>
      <trkpt lat="47.547195" lon="2.2387028">
        <ele>178</ele>
        <time>2022-06-09T07:46:34Z</time>
      </trkpt>
      <trkpt lat="47.547184" lon="2.2386882">
        <ele>179</ele>
        <time>2022-06-09T07:46:35Z</time>
      </trkpt>
      <trkpt lat="47.547173" lon="2.2386785">
        <ele>179</ele>
        <time>2022-06-09T07:46:36Z</time>
      </trkpt>
      <trkpt lat="47.547157" lon="2.2386675">
        <ele>179</ele>
        <time>2022-06-09T07:46:37Z</time>
      </trkpt>
      <trkpt lat="47.547146" lon="2.2386575">
        <ele>179</ele>
        <time>2022-06-09T07:46:38Z</time>
      </trkpt>
      <trkpt lat="47.54713" lon="2.2386475">
        <ele>179</ele>
        <time>2022-06-09T07:46:39Z</time>
      </trkpt>
      <trkpt lat="47.54712" lon="2.238637">
        <ele>179</ele>
        <time>2022-06-09T07:46:40Z</time>
      </trkpt>
      <trkpt lat="47.547108" lon="2.238623">
        <ele>179</ele>
        <time>2022-06-09T07:46:41Z</time>
      </trkpt>
      <trkpt lat="47.547096" lon="2.238608">
        <ele>179</ele>
        <time>2022-06-09T07:46:42Z</time>
      </trkpt>
      <trkpt lat="47.54708" lon="2.2385952">
        <ele>179</ele>
        <time>2022-06-09T07:46:43Z</time>
      </trkpt>
      <trkpt lat="47.54707" lon="2.2385857">
        <ele>179</ele>
        <time>2022-06-09T07:46:44Z</time>
      </trkpt>
      <trkpt lat="47.54706" lon="2.2385755">
        <ele>179</ele>
        <time>2022-06-09T07:46:45Z</time>
      </trkpt>
      <trkpt lat="47.547047" lon="2.2385645">
        <ele>179</ele>
        <time>2022-06-09T07:46:46Z</time>
      </trkpt>
      <trkpt lat="47.547035" lon="2.2385528">
        <ele>178</ele>
        <time>2022-06-09T07:46:47Z</time>
      </trkpt>
      <trkpt lat="47.547024" lon="2.2385414">
        <ele>178</ele>
        <time>2022-06-09T07:46:48Z</time>
      </trkpt>
      <trkpt lat="47.547012" lon="2.2385292">
        <ele>178</ele>
        <time>2022-06-09T07:46:49Z</time>
      </trkpt>
      <trkpt lat="47.547" lon="2.2385175">
        <ele>177</ele>
        <time>2022-06-09T07:46:50Z</time>
      </trkpt>
      <trkpt lat="47.54699" lon="2.238506">
        <ele>178</ele>
        <time>2022-06-09T07:46:51Z</time>
      </trkpt>
      <trkpt lat="47.54698" lon="2.2384965">
        <ele>178</ele>
        <time>2022-06-09T07:46:52Z</time>
      </trkpt>
      <trkpt lat="47.54697" lon="2.2384868">
        <ele>178</ele>
        <time>2022-06-09T07:46:53Z</time>
      </trkpt>
      <trkpt lat="47.54696" lon="2.2384746">
        <ele>178</ele>
        <time>2022-06-09T07:46:55Z</time>
      </trkpt>
      <trkpt lat="47.546947" lon="2.2384655">
        <ele>178</ele>
        <time>2022-06-09T07:46:56Z</time>
      </trkpt>
      <trkpt lat="47.546932" lon="2.2384584">
        <ele>177</ele>
        <time>2022-06-09T07:46:57Z</time>
      </trkpt>
      <trkpt lat="47.54692" lon="2.2384455">
        <ele>177</ele>
        <time>2022-06-09T07:46:58Z</time>
      </trkpt>
      <trkpt lat="47.54691" lon="2.2384326">
        <ele>177</ele>
        <time>2022-06-09T07:46:59Z</time>
      </trkpt>
      <trkpt lat="47.546898" lon="2.2384217">
        <ele>177</ele>
        <time>2022-06-09T07:47:00Z</time>
      </trkpt>
      <trkpt lat="47.546886" lon="2.2384107">
        <ele>177</ele>
        <time>2022-06-09T07:47:01Z</time>
      </trkpt>
      <trkpt lat="47.54687" lon="2.2384014">
        <ele>177</ele>
        <time>2022-06-09T07:47:02Z</time>
      </trkpt>
      <trkpt lat="47.546864" lon="2.238393">
        <ele>177</ele>
        <time>2022-06-09T07:47:03Z</time>
      </trkpt>
      <trkpt lat="47.546852" lon="2.2383823">
        <ele>177</ele>
        <time>2022-06-09T07:47:04Z</time>
      </trkpt>
      <trkpt lat="47.546837" lon="2.2383714">
        <ele>177</ele>
        <time>2022-06-09T07:47:05Z</time>
      </trkpt>
      <trkpt lat="47.546825" lon="2.2383604">
        <ele>177</ele>
        <time>2022-06-09T07:47:06Z</time>
      </trkpt>
      <trkpt lat="47.546814" lon="2.238349">
        <ele>177</ele>
        <time>2022-06-09T07:47:07Z</time>
      </trkpt>
      <trkpt lat="47.546803" lon="2.2383375">
        <ele>177</ele>
        <time>2022-06-09T07:47:08Z</time>
      </trkpt>
      <trkpt lat="47.54679" lon="2.2383275">
        <ele>178</ele>
        <time>2022-06-09T07:47:09Z</time>
      </trkpt>
      <trkpt lat="47.54678" lon="2.238317">
        <ele>178</ele>
        <time>2022-06-09T07:47:10Z</time>
      </trkpt>
      <trkpt lat="47.54677" lon="2.2383049">
        <ele>178</ele>
        <time>2022-06-09T07:47:11Z</time>
      </trkpt>
      <trkpt lat="47.546757" lon="2.238297">
        <ele>178</ele>
        <time>2022-06-09T07:47:12Z</time>
      </trkpt>
      <trkpt lat="47.54675" lon="2.2382922">
        <ele>178</ele>
        <time>2022-06-09T07:47:13Z</time>
      </trkpt>
      <trkpt lat="47.54674" lon="2.2382824">
        <ele>178</ele>
        <time>2022-06-09T07:47:14Z</time>
      </trkpt>
      <trkpt lat="47.54673" lon="2.2382696">
        <ele>178</ele>
        <time>2022-06-09T07:47:15Z</time>
      </trkpt>
      <trkpt lat="47.54672" lon="2.2382588">
        <ele>178</ele>
        <time>2022-06-09T07:47:16Z</time>
      </trkpt>
      <trkpt lat="47.546707" lon="2.2382467">
        <ele>178</ele>
        <time>2022-06-09T07:47:17Z</time>
      </trkpt>
      <trkpt lat="47.5467" lon="2.2382383">
        <ele>178</ele>
        <time>2022-06-09T07:47:18Z</time>
      </trkpt>
      <trkpt lat="47.546688" lon="2.2382262">
        <ele>178</ele>
        <time>2022-06-09T07:47:19Z</time>
      </trkpt>
      <trkpt lat="47.546673" lon="2.2382114">
        <ele>178</ele>
        <time>2022-06-09T07:47:20Z</time>
      </trkpt>
      <trkpt lat="47.54666" lon="2.2381988">
        <ele>178</ele>
        <time>2022-06-09T07:47:21Z</time>
      </trkpt>
      <trkpt lat="47.546654" lon="2.2381854">
        <ele>178</ele>
        <time>2022-06-09T07:47:22Z</time>
      </trkpt>
      <trkpt lat="47.546642" lon="2.2381747">
        <ele>178</ele>
        <time>2022-06-09T07:47:23Z</time>
      </trkpt>
      <trkpt lat="47.546635" lon="2.2381654">
        <ele>178</ele>
        <time>2022-06-09T07:47:24Z</time>
      </trkpt>
      <trkpt lat="47.546623" lon="2.2381587">
        <ele>179</ele>
        <time>2022-06-09T07:47:25Z</time>
      </trkpt>
      <trkpt lat="47.546616" lon="2.2381501">
        <ele>178</ele>
        <time>2022-06-09T07:47:26Z</time>
      </trkpt>
      <trkpt lat="47.546608" lon="2.2381363">
        <ele>178</ele>
        <time>2022-06-09T07:47:27Z</time>
      </trkpt>
      <trkpt lat="47.5466" lon="2.2381277">
        <ele>178</ele>
        <time>2022-06-09T07:47:28Z</time>
      </trkpt>
      <trkpt lat="47.546597" lon="2.2381241">
        <ele>178</ele>
        <time>2022-06-09T07:47:29Z</time>
      </trkpt>
      <trkpt lat="47.546604" lon="2.2381263">
        <ele>178</ele>
        <time>2022-06-09T07:47:30Z</time>
      </trkpt>
      <trkpt lat="47.546604" lon="2.2381263">
        <ele>178</ele>
        <time>2022-06-09T07:47:31Z</time>
      </trkpt>
      <trkpt lat="47.546604" lon="2.2381263">
        <ele>178</ele>
        <time>2022-06-09T07:47:32Z</time>
      </trkpt>
      <trkpt lat="47.546604" lon="2.2381263">
        <ele>178</ele>
        <time>2022-06-09T07:47:32Z</time>
      </trkpt>
      <trkpt lat="47.546604" lon="2.2381263">
        <ele>178</ele>
        <time>2022-06-09T07:47:32Z</time>
      </trkpt>
      <trkpt lat="47.546574" lon="2.2381036">
        <ele>175</ele>
        <time>2022-06-09T07:47:40Z</time>
      </trkpt>
      <trkpt lat="47.546574" lon="2.2380984">
        <ele>175</ele>
        <time>2022-06-09T07:47:41Z</time>
      </trkpt>
      <trkpt lat="47.546574" lon="2.238092">
        <ele>175</ele>
        <time>2022-06-09T07:47:42Z</time>
      </trkpt>
      <trkpt lat="47.546574" lon="2.2380838">
        <ele>175</ele>
        <time>2022-06-09T07:47:43Z</time>
      </trkpt>
      <trkpt lat="47.54657" lon="2.2380688">
        <ele>176</ele>
        <time>2022-06-09T07:47:44Z</time>
      </trkpt>
      <trkpt lat="47.54656" lon="2.2380538">
        <ele>176</ele>
        <time>2022-06-09T07:47:45Z</time>
      </trkpt>
      <trkpt lat="47.546547" lon="2.2380419">
        <ele>176</ele>
        <time>2022-06-09T07:47:46Z</time>
      </trkpt>
      <trkpt lat="47.546535" lon="2.2380314">
        <ele>175</ele>
        <time>2022-06-09T07:47:47Z</time>
      </trkpt>
      <trkpt lat="47.54653" lon="2.2380261">
        <ele>175</ele>
        <time>2022-06-09T07:47:48Z</time>
      </trkpt>
      <trkpt lat="47.546524" lon="2.2380211">
        <ele>175</ele>
        <time>2022-06-09T07:47:49Z</time>
      </trkpt>
      <trkpt lat="47.546524" lon="2.2380147">
        <ele>175</ele>
        <time>2022-06-09T07:47:50Z</time>
      </trkpt>
      <trkpt lat="47.54652" lon="2.2380018">
        <ele>175</ele>
        <time>2022-06-09T07:47:51Z</time>
      </trkpt>
      <trkpt lat="47.54651" lon="2.237987">
        <ele>176</ele>
        <time>2022-06-09T07:47:52Z</time>
      </trkpt>
      <trkpt lat="47.5465" lon="2.237969">
        <ele>176</ele>
        <time>2022-06-09T07:47:53Z</time>
      </trkpt>
      <trkpt lat="47.546494" lon="2.237951">
        <ele>176</ele>
        <time>2022-06-09T07:47:54Z</time>
      </trkpt>
      <trkpt lat="47.54649" lon="2.2379348">
        <ele>177</ele>
        <time>2022-06-09T07:47:55Z</time>
      </trkpt>
      <trkpt lat="47.546486" lon="2.2379172">
        <ele>177</ele>
        <time>2022-06-09T07:47:56Z</time>
      </trkpt>
      <trkpt lat="47.54648" lon="2.2379024">
        <ele>178</ele>
        <time>2022-06-09T07:47:57Z</time>
      </trkpt>
      <trkpt lat="47.546474" lon="2.2378867">
        <ele>178</ele>
        <time>2022-06-09T07:47:58Z</time>
      </trkpt>
      <trkpt lat="47.546467" lon="2.237868">
        <ele>177</ele>
        <time>2022-06-09T07:47:59Z</time>
      </trkpt>
      <trkpt lat="47.54646" lon="2.2378504">
        <ele>178</ele>
        <time>2022-06-09T07:48:00Z</time>
      </trkpt>
      <trkpt lat="47.54645" lon="2.2378328">
        <ele>178</ele>
        <time>2022-06-09T07:48:01Z</time>
      </trkpt>
      <trkpt lat="47.546448" lon="2.237816">
        <ele>178</ele>
        <time>2022-06-09T07:48:02Z</time>
      </trkpt>
      <trkpt lat="47.54644" lon="2.2378008">
        <ele>178</ele>
        <time>2022-06-09T07:48:03Z</time>
      </trkpt>
      <trkpt lat="47.546432" lon="2.2377815">
        <ele>178</ele>
        <time>2022-06-09T07:48:04Z</time>
      </trkpt>
      <trkpt lat="47.54643" lon="2.2377644">
        <ele>178</ele>
        <time>2022-06-09T07:48:05Z</time>
      </trkpt>
      <trkpt lat="47.546417" lon="2.2377486">
        <ele>178</ele>
        <time>2022-06-09T07:48:06Z</time>
      </trkpt>
      <trkpt lat="47.54641" lon="2.2377305">
        <ele>178</ele>
        <time>2022-06-09T07:48:07Z</time>
      </trkpt>
      <trkpt lat="47.546402" lon="2.237711">
        <ele>178</ele>
        <time>2022-06-09T07:48:08Z</time>
      </trkpt>
      <trkpt lat="47.546394" lon="2.2376907">
        <ele>178</ele>
        <time>2022-06-09T07:48:09Z</time>
      </trkpt>
      <trkpt lat="47.546387" lon="2.237674">
        <ele>177</ele>
        <time>2022-06-09T07:48:10Z</time>
      </trkpt>
      <trkpt lat="47.54638" lon="2.2376628">
        <ele>177</ele>
        <time>2022-06-09T07:48:11Z</time>
      </trkpt>
      <trkpt lat="47.54637" lon="2.2376456">
        <ele>177</ele>
        <time>2022-06-09T07:48:12Z</time>
      </trkpt>
      <trkpt lat="47.546368" lon="2.2376297">
        <ele>177</ele>
        <time>2022-06-09T07:48:13Z</time>
      </trkpt>
      <trkpt lat="47.54636" lon="2.2376146">
        <ele>177</ele>
        <time>2022-06-09T07:48:14Z</time>
      </trkpt>
      <trkpt lat="47.546352" lon="2.2375994">
        <ele>177</ele>
        <time>2022-06-09T07:48:15Z</time>
      </trkpt>
      <trkpt lat="47.546345" lon="2.237581">
        <ele>177</ele>
        <time>2022-06-09T07:48:16Z</time>
      </trkpt>
      <trkpt lat="47.54634" lon="2.2375648">
        <ele>177</ele>
        <time>2022-06-09T07:48:17Z</time>
      </trkpt>
      <trkpt lat="47.546333" lon="2.237548">
        <ele>177</ele>
        <time>2022-06-09T07:48:18Z</time>
      </trkpt>
      <trkpt lat="47.54633" lon="2.23753">
        <ele>177</ele>
        <time>2022-06-09T07:48:19Z</time>
      </trkpt>
      <trkpt lat="47.54632" lon="2.23751">
        <ele>177</ele>
        <time>2022-06-09T07:48:20Z</time>
      </trkpt>
      <trkpt lat="47.546314" lon="2.2374918">
        <ele>177</ele>
        <time>2022-06-09T07:48:21Z</time>
      </trkpt>
      <trkpt lat="47.546307" lon="2.2374768">
        <ele>177</ele>
        <time>2022-06-09T07:48:22Z</time>
      </trkpt>
      <trkpt lat="47.5463" lon="2.2374578">
        <ele>177</ele>
        <time>2022-06-09T07:48:23Z</time>
      </trkpt>
      <trkpt lat="47.546295" lon="2.237441">
        <ele>178</ele>
        <time>2022-06-09T07:48:24Z</time>
      </trkpt>
      <trkpt lat="47.546288" lon="2.237422">
        <ele>178</ele>
        <time>2022-06-09T07:48:25Z</time>
      </trkpt>
      <trkpt lat="47.54628" lon="2.2374032">
        <ele>178</ele>
        <time>2022-06-09T07:48:26Z</time>
      </trkpt>
      <trkpt lat="47.546276" lon="2.2373812">
        <ele>178</ele>
        <time>2022-06-09T07:48:27Z</time>
      </trkpt>
      <trkpt lat="47.546272" lon="2.2373633">
        <ele>178</ele>
        <time>2022-06-09T07:48:28Z</time>
      </trkpt>
      <trkpt lat="47.54627" lon="2.2373476">
        <ele>178</ele>
        <time>2022-06-09T07:48:29Z</time>
      </trkpt>
      <trkpt lat="47.54626" lon="2.2373347">
        <ele>178</ele>
        <time>2022-06-09T07:48:30Z</time>
      </trkpt>
      <trkpt lat="47.546257" lon="2.2373204">
        <ele>178</ele>
        <time>2022-06-09T07:48:31Z</time>
      </trkpt>
      <trkpt lat="47.546253" lon="2.2373013">
        <ele>178</ele>
        <time>2022-06-09T07:48:32Z</time>
      </trkpt>
      <trkpt lat="47.546246" lon="2.2372868">
        <ele>178</ele>
        <time>2022-06-09T07:48:33Z</time>
      </trkpt>
      <trkpt lat="47.54624" lon="2.2372715">
        <ele>178</ele>
        <time>2022-06-09T07:48:34Z</time>
      </trkpt>
      <trkpt lat="47.546234" lon="2.2372568">
        <ele>178</ele>
        <time>2022-06-09T07:48:35Z</time>
      </trkpt>
      <trkpt lat="47.546227" lon="2.2372406">
        <ele>178</ele>
        <time>2022-06-09T07:48:36Z</time>
      </trkpt>
      <trkpt lat="47.546223" lon="2.237223">
        <ele>178</ele>
        <time>2022-06-09T07:48:37Z</time>
      </trkpt>
      <trkpt lat="47.546215" lon="2.2372093">
        <ele>178</ele>
        <time>2022-06-09T07:48:38Z</time>
      </trkpt>
      <trkpt lat="47.546207" lon="2.2371955">
        <ele>178</ele>
        <time>2022-06-09T07:48:39Z</time>
      </trkpt>
      <trkpt lat="47.546204" lon="2.2371821">
        <ele>179</ele>
        <time>2022-06-09T07:48:40Z</time>
      </trkpt>
      <trkpt lat="47.5462" lon="2.2371647">
        <ele>179</ele>
        <time>2022-06-09T07:48:41Z</time>
      </trkpt>
      <trkpt lat="47.546196" lon="2.2371433">
        <ele>179</ele>
        <time>2022-06-09T07:48:42Z</time>
      </trkpt>
      <trkpt lat="47.54619" lon="2.237126">
        <ele>179</ele>
        <time>2022-06-09T07:48:43Z</time>
      </trkpt>
      <trkpt lat="47.54618" lon="2.2371109">
        <ele>179</ele>
        <time>2022-06-09T07:48:44Z</time>
      </trkpt>
      <trkpt lat="47.546173" lon="2.2370944">
        <ele>179</ele>
        <time>2022-06-09T07:48:45Z</time>
      </trkpt>
      <trkpt lat="47.54617" lon="2.237076">
        <ele>179</ele>
        <time>2022-06-09T07:48:46Z</time>
      </trkpt>
      <trkpt lat="47.546165" lon="2.2370577">
        <ele>179</ele>
        <time>2022-06-09T07:48:47Z</time>
      </trkpt>
      <trkpt lat="47.546158" lon="2.2370381">
        <ele>179</ele>
        <time>2022-06-09T07:48:48Z</time>
      </trkpt>
      <trkpt lat="47.546154" lon="2.2370207">
        <ele>179</ele>
        <time>2022-06-09T07:48:49Z</time>
      </trkpt>
      <trkpt lat="47.546143" lon="2.2370057">
        <ele>179</ele>
        <time>2022-06-09T07:48:50Z</time>
      </trkpt>
      <trkpt lat="47.54613" lon="2.2369897">
        <ele>178</ele>
        <time>2022-06-09T07:48:51Z</time>
      </trkpt>
      <trkpt lat="47.546124" lon="2.236972">
        <ele>178</ele>
        <time>2022-06-09T07:48:52Z</time>
      </trkpt>
      <trkpt lat="47.546116" lon="2.2369547">
        <ele>179</ele>
        <time>2022-06-09T07:48:53Z</time>
      </trkpt>
      <trkpt lat="47.54611" lon="2.2369382">
        <ele>179</ele>
        <time>2022-06-09T07:48:54Z</time>
      </trkpt>
      <trkpt lat="47.5461" lon="2.236924">
        <ele>178</ele>
        <time>2022-06-09T07:48:55Z</time>
      </trkpt>
      <trkpt lat="47.546097" lon="2.2369049">
        <ele>178</ele>
        <time>2022-06-09T07:48:56Z</time>
      </trkpt>
      <trkpt lat="47.54609" lon="2.2368839">
        <ele>179</ele>
        <time>2022-06-09T07:48:57Z</time>
      </trkpt>
      <trkpt lat="47.54608" lon="2.2368648">
        <ele>179</ele>
        <time>2022-06-09T07:48:58Z</time>
      </trkpt>
      <trkpt lat="47.546078" lon="2.2368445">
        <ele>179</ele>
        <time>2022-06-09T07:48:59Z</time>
      </trkpt>
      <trkpt lat="47.54607" lon="2.2368264">
        <ele>179</ele>
        <time>2022-06-09T07:49:00Z</time>
      </trkpt>
      <trkpt lat="47.546066" lon="2.2368047">
        <ele>179</ele>
        <time>2022-06-09T07:49:01Z</time>
      </trkpt>
      <trkpt lat="47.546062" lon="2.2367852">
        <ele>179</ele>
        <time>2022-06-09T07:49:02Z</time>
      </trkpt>
      <trkpt lat="47.546055" lon="2.2367687">
        <ele>179</ele>
        <time>2022-06-09T07:49:03Z</time>
      </trkpt>
      <trkpt lat="47.546047" lon="2.2367516">
        <ele>179</ele>
        <time>2022-06-09T07:49:04Z</time>
      </trkpt>
      <trkpt lat="47.546043" lon="2.2367377">
        <ele>179</ele>
        <time>2022-06-09T07:49:05Z</time>
      </trkpt>
      <trkpt lat="47.546036" lon="2.2367234">
        <ele>179</ele>
        <time>2022-06-09T07:49:06Z</time>
      </trkpt>
      <trkpt lat="47.546024" lon="2.2367103">
        <ele>179</ele>
        <time>2022-06-09T07:49:07Z</time>
      </trkpt>
      <trkpt lat="47.546017" lon="2.2366931">
        <ele>179</ele>
        <time>2022-06-09T07:49:08Z</time>
      </trkpt>
      <trkpt lat="47.54601" lon="2.2366781">
        <ele>179</ele>
        <time>2022-06-09T07:49:09Z</time>
      </trkpt>
      <trkpt lat="47.546" lon="2.2366607">
        <ele>179</ele>
        <time>2022-06-09T07:49:10Z</time>
      </trkpt>
      <trkpt lat="47.54599" lon="2.236645">
        <ele>179</ele>
        <time>2022-06-09T07:49:11Z</time>
      </trkpt>
      <trkpt lat="47.54598" lon="2.2366304">
        <ele>179</ele>
        <time>2022-06-09T07:49:12Z</time>
      </trkpt>
      <trkpt lat="47.545975" lon="2.2366097">
        <ele>179</ele>
        <time>2022-06-09T07:49:13Z</time>
      </trkpt>
      <trkpt lat="47.545967" lon="2.2365923">
        <ele>179</ele>
        <time>2022-06-09T07:49:14Z</time>
      </trkpt>
      <trkpt lat="47.545956" lon="2.2365751">
        <ele>179</ele>
        <time>2022-06-09T07:49:15Z</time>
      </trkpt>
      <trkpt lat="47.545948" lon="2.2365584">
        <ele>179</ele>
        <time>2022-06-09T07:49:16Z</time>
      </trkpt>
      <trkpt lat="47.54594" lon="2.236536">
        <ele>179</ele>
        <time>2022-06-09T07:49:17Z</time>
      </trkpt>
      <trkpt lat="47.545937" lon="2.236518">
        <ele>179</ele>
        <time>2022-06-09T07:49:18Z</time>
      </trkpt>
      <trkpt lat="47.54593" lon="2.2364972">
        <ele>179</ele>
        <time>2022-06-09T07:49:19Z</time>
      </trkpt>
      <trkpt lat="47.545925" lon="2.236477">
        <ele>179</ele>
        <time>2022-06-09T07:49:20Z</time>
      </trkpt>
      <trkpt lat="47.545918" lon="2.2364569">
        <ele>179</ele>
        <time>2022-06-09T07:49:21Z</time>
      </trkpt>
      <trkpt lat="47.54591" lon="2.2364378">
        <ele>179</ele>
        <time>2022-06-09T07:49:22Z</time>
      </trkpt>
      <trkpt lat="47.545906" lon="2.2364173">
        <ele>180</ele>
        <time>2022-06-09T07:49:23Z</time>
      </trkpt>
      <trkpt lat="47.5459" lon="2.2363963">
        <ele>180</ele>
        <time>2022-06-09T07:49:24Z</time>
      </trkpt>
      <trkpt lat="47.54589" lon="2.2363741">
        <ele>180</ele>
        <time>2022-06-09T07:49:25Z</time>
      </trkpt>
      <trkpt lat="47.545887" lon="2.2363539">
        <ele>180</ele>
        <time>2022-06-09T07:49:26Z</time>
      </trkpt>
      <trkpt lat="47.54588" lon="2.2363348">
        <ele>180</ele>
        <time>2022-06-09T07:49:27Z</time>
      </trkpt>
      <trkpt lat="47.545868" lon="2.236322">
        <ele>180</ele>
        <time>2022-06-09T07:49:28Z</time>
      </trkpt>
      <trkpt lat="47.545864" lon="2.2363043">
        <ele>180</ele>
        <time>2022-06-09T07:49:29Z</time>
      </trkpt>
      <trkpt lat="47.545856" lon="2.236291">
        <ele>180</ele>
        <time>2022-06-09T07:49:30Z</time>
      </trkpt>
      <trkpt lat="47.545845" lon="2.2362723">
        <ele>180</ele>
        <time>2022-06-09T07:49:31Z</time>
      </trkpt>
      <trkpt lat="47.545837" lon="2.2362509">
        <ele>180</ele>
        <time>2022-06-09T07:49:32Z</time>
      </trkpt>
      <trkpt lat="47.545834" lon="2.2362316">
        <ele>180</ele>
        <time>2022-06-09T07:49:33Z</time>
      </trkpt>
      <trkpt lat="47.545826" lon="2.2362156">
        <ele>180</ele>
        <time>2022-06-09T07:49:34Z</time>
      </trkpt>
      <trkpt lat="47.54582" lon="2.2361999">
        <ele>180</ele>
        <time>2022-06-09T07:49:35Z</time>
      </trkpt>
      <trkpt lat="47.54581" lon="2.2361808">
        <ele>180</ele>
        <time>2022-06-09T07:49:36Z</time>
      </trkpt>
      <trkpt lat="47.545803" lon="2.2361612">
        <ele>180</ele>
        <time>2022-06-09T07:49:37Z</time>
      </trkpt>
      <trkpt lat="47.5458" lon="2.2361438">
        <ele>180</ele>
        <time>2022-06-09T07:49:38Z</time>
      </trkpt>
      <trkpt lat="47.54579" lon="2.2361224">
        <ele>180</ele>
        <time>2022-06-09T07:49:39Z</time>
      </trkpt>
      <trkpt lat="47.545784" lon="2.2361002">
        <ele>180</ele>
        <time>2022-06-09T07:49:40Z</time>
      </trkpt>
      <trkpt lat="47.545776" lon="2.236081">
        <ele>181</ele>
        <time>2022-06-09T07:49:41Z</time>
      </trkpt>
      <trkpt lat="47.54577" lon="2.2360632">
        <ele>181</ele>
        <time>2022-06-09T07:49:42Z</time>
      </trkpt>
      <trkpt lat="47.54576" lon="2.2360468">
        <ele>181</ele>
        <time>2022-06-09T07:49:43Z</time>
      </trkpt>
      <trkpt lat="47.54575" lon="2.2360332">
        <ele>180</ele>
        <time>2022-06-09T07:49:44Z</time>
      </trkpt>
      <trkpt lat="47.545742" lon="2.236016">
        <ele>180</ele>
        <time>2022-06-09T07:49:45Z</time>
      </trkpt>
      <trkpt lat="47.545734" lon="2.2360022">
        <ele>180</ele>
        <time>2022-06-09T07:49:46Z</time>
      </trkpt>
      <trkpt lat="47.545727" lon="2.2359836">
        <ele>180</ele>
        <time>2022-06-09T07:49:47Z</time>
      </trkpt>
      <trkpt lat="47.54572" lon="2.235966">
        <ele>180</ele>
        <time>2022-06-09T07:49:48Z</time>
      </trkpt>
      <trkpt lat="47.54571" lon="2.2359502">
        <ele>180</ele>
        <time>2022-06-09T07:49:49Z</time>
      </trkpt>
      <trkpt lat="47.545708" lon="2.235931">
        <ele>180</ele>
        <time>2022-06-09T07:49:50Z</time>
      </trkpt>
      <trkpt lat="47.545704" lon="2.2359123">
        <ele>180</ele>
        <time>2022-06-09T07:49:51Z</time>
      </trkpt>
      <trkpt lat="47.545696" lon="2.235895">
        <ele>181</ele>
        <time>2022-06-09T07:49:52Z</time>
      </trkpt>
      <trkpt lat="47.54569" lon="2.2358792">
        <ele>181</ele>
        <time>2022-06-09T07:49:53Z</time>
      </trkpt>
      <trkpt lat="47.54568" lon="2.2358625">
        <ele>181</ele>
        <time>2022-06-09T07:49:54Z</time>
      </trkpt>
      <trkpt lat="47.545677" lon="2.235845">
        <ele>181</ele>
        <time>2022-06-09T07:49:55Z</time>
      </trkpt>
      <trkpt lat="47.545666" lon="2.2358286">
        <ele>181</ele>
        <time>2022-06-09T07:49:56Z</time>
      </trkpt>
      <trkpt lat="47.545662" lon="2.2358093">
        <ele>181</ele>
        <time>2022-06-09T07:49:57Z</time>
      </trkpt>
      <trkpt lat="47.545654" lon="2.2357893">
        <ele>181</ele>
        <time>2022-06-09T07:49:58Z</time>
      </trkpt>
      <trkpt lat="47.545647" lon="2.235774">
        <ele>181</ele>
        <time>2022-06-09T07:49:59Z</time>
      </trkpt>
      <trkpt lat="47.54564" lon="2.2357576">
        <ele>181</ele>
        <time>2022-06-09T07:50:00Z</time>
      </trkpt>
      <trkpt lat="47.54563" lon="2.2357373">
        <ele>181</ele>
        <time>2022-06-09T07:50:01Z</time>
      </trkpt>
      <trkpt lat="47.545624" lon="2.2357168">
        <ele>182</ele>
        <time>2022-06-09T07:50:02Z</time>
      </trkpt>
      <trkpt lat="47.545616" lon="2.2356987">
        <ele>182</ele>
        <time>2022-06-09T07:50:03Z</time>
      </trkpt>
      <trkpt lat="47.54561" lon="2.2356794">
        <ele>182</ele>
        <time>2022-06-09T07:50:04Z</time>
      </trkpt>
      <trkpt lat="47.5456" lon="2.2356608">
        <ele>182</ele>
        <time>2022-06-09T07:50:05Z</time>
      </trkpt>
      <trkpt lat="47.54559" lon="2.2356417">
        <ele>182</ele>
        <time>2022-06-09T07:50:06Z</time>
      </trkpt>
      <trkpt lat="47.54558" lon="2.2356234">
        <ele>182</ele>
        <time>2022-06-09T07:50:07Z</time>
      </trkpt>
      <trkpt lat="47.545574" lon="2.235606">
        <ele>182</ele>
        <time>2022-06-09T07:50:08Z</time>
      </trkpt>
      <trkpt lat="47.545567" lon="2.2355871">
        <ele>182</ele>
        <time>2022-06-09T07:50:09Z</time>
      </trkpt>
      <trkpt lat="47.545563" lon="2.2355692">
        <ele>182</ele>
        <time>2022-06-09T07:50:10Z</time>
      </trkpt>
      <trkpt lat="47.545555" lon="2.2355518">
        <ele>182</ele>
        <time>2022-06-09T07:50:11Z</time>
      </trkpt>
      <trkpt lat="47.54555" lon="2.235533">
        <ele>181</ele>
        <time>2022-06-09T07:50:12Z</time>
      </trkpt>
      <trkpt lat="47.545544" lon="2.2355185">
        <ele>181</ele>
        <time>2022-06-09T07:50:13Z</time>
      </trkpt>
      <trkpt lat="47.545532" lon="2.235501">
        <ele>181</ele>
        <time>2022-06-09T07:50:14Z</time>
      </trkpt>
      <trkpt lat="47.545525" lon="2.235484">
        <ele>181</ele>
        <time>2022-06-09T07:50:15Z</time>
      </trkpt>
      <trkpt lat="47.545513" lon="2.2354708">
        <ele>180</ele>
        <time>2022-06-09T07:50:16Z</time>
      </trkpt>
      <trkpt lat="47.545506" lon="2.2354581">
        <ele>180</ele>
        <time>2022-06-09T07:50:17Z</time>
      </trkpt>
      <trkpt lat="47.545498" lon="2.2354403">
        <ele>180</ele>
        <time>2022-06-09T07:50:18Z</time>
      </trkpt>
      <trkpt lat="47.54549" lon="2.2354183">
        <ele>180</ele>
        <time>2022-06-09T07:50:19Z</time>
      </trkpt>
      <trkpt lat="47.545483" lon="2.2353957">
        <ele>180</ele>
        <time>2022-06-09T07:50:20Z</time>
      </trkpt>
      <trkpt lat="47.545475" lon="2.235376">
        <ele>180</ele>
        <time>2022-06-09T07:50:21Z</time>
      </trkpt>
      <trkpt lat="47.545467" lon="2.2353604">
        <ele>180</ele>
        <time>2022-06-09T07:50:22Z</time>
      </trkpt>
      <trkpt lat="47.545464" lon="2.2353392">
        <ele>180</ele>
        <time>2022-06-09T07:50:23Z</time>
      </trkpt>
      <trkpt lat="47.545456" lon="2.2353232">
        <ele>181</ele>
        <time>2022-06-09T07:50:24Z</time>
      </trkpt>
      <trkpt lat="47.54545" lon="2.235306">
        <ele>181</ele>
        <time>2022-06-09T07:50:25Z</time>
      </trkpt>
      <trkpt lat="47.545444" lon="2.2352855">
        <ele>181</ele>
        <time>2022-06-09T07:50:26Z</time>
      </trkpt>
      <trkpt lat="47.54544" lon="2.2352648">
        <ele>182</ele>
        <time>2022-06-09T07:50:27Z</time>
      </trkpt>
      <trkpt lat="47.545433" lon="2.2352457">
        <ele>182</ele>
        <time>2022-06-09T07:50:28Z</time>
      </trkpt>
      <trkpt lat="47.54543" lon="2.2352252">
        <ele>183</ele>
        <time>2022-06-09T07:50:29Z</time>
      </trkpt>
      <trkpt lat="47.54542" lon="2.2352118">
        <ele>183</ele>
        <time>2022-06-09T07:50:30Z</time>
      </trkpt>
      <trkpt lat="47.545418" lon="2.2351956">
        <ele>183</ele>
        <time>2022-06-09T07:50:31Z</time>
      </trkpt>
      <trkpt lat="47.54541" lon="2.2351775">
        <ele>183</ele>
        <time>2022-06-09T07:50:32Z</time>
      </trkpt>
      <trkpt lat="47.545403" lon="2.2351613">
        <ele>183</ele>
        <time>2022-06-09T07:50:33Z</time>
      </trkpt>
      <trkpt lat="47.545395" lon="2.2351463">
        <ele>183</ele>
        <time>2022-06-09T07:50:34Z</time>
      </trkpt>
      <trkpt lat="47.545387" lon="2.2351305">
        <ele>183</ele>
        <time>2022-06-09T07:50:35Z</time>
      </trkpt>
      <trkpt lat="47.54538" lon="2.2351103">
        <ele>183</ele>
        <time>2022-06-09T07:50:36Z</time>
      </trkpt>
      <trkpt lat="47.545376" lon="2.2350938">
        <ele>183</ele>
        <time>2022-06-09T07:50:37Z</time>
      </trkpt>
      <trkpt lat="47.54537" lon="2.235073">
        <ele>182</ele>
        <time>2022-06-09T07:50:38Z</time>
      </trkpt>
      <trkpt lat="47.545364" lon="2.2350516">
        <ele>183</ele>
        <time>2022-06-09T07:50:39Z</time>
      </trkpt>
      <trkpt lat="47.545353" lon="2.2350347">
        <ele>182</ele>
        <time>2022-06-09T07:50:40Z</time>
      </trkpt>
      <trkpt lat="47.545345" lon="2.2350175">
        <ele>182</ele>
        <time>2022-06-09T07:50:41Z</time>
      </trkpt>
      <trkpt lat="47.545338" lon="2.2350006">
        <ele>182</ele>
        <time>2022-06-09T07:50:42Z</time>
      </trkpt>
      <trkpt lat="47.54533" lon="2.234984">
        <ele>182</ele>
        <time>2022-06-09T07:50:43Z</time>
      </trkpt>
      <trkpt lat="47.545322" lon="2.2349687">
        <ele>182</ele>
        <time>2022-06-09T07:50:44Z</time>
      </trkpt>
      <trkpt lat="47.54532" lon="2.234949">
        <ele>182</ele>
        <time>2022-06-09T07:50:45Z</time>
      </trkpt>
      <trkpt lat="47.545315" lon="2.2349286">
        <ele>182</ele>
        <time>2022-06-09T07:50:46Z</time>
      </trkpt>
      <trkpt lat="47.545315" lon="2.2349062">
        <ele>182</ele>
        <time>2022-06-09T07:50:47Z</time>
      </trkpt>
      <trkpt lat="47.54531" lon="2.234885">
        <ele>182</ele>
        <time>2022-06-09T07:50:48Z</time>
      </trkpt>
      <trkpt lat="47.545303" lon="2.2348645">
        <ele>182</ele>
        <time>2022-06-09T07:50:49Z</time>
      </trkpt>
      <trkpt lat="47.5453" lon="2.2348459">
        <ele>182</ele>
        <time>2022-06-09T07:50:50Z</time>
      </trkpt>
      <trkpt lat="47.54529" lon="2.2348258">
        <ele>182</ele>
        <time>2022-06-09T07:50:51Z</time>
      </trkpt>
      <trkpt lat="47.54529" lon="2.2348037">
        <ele>182</ele>
        <time>2022-06-09T07:50:52Z</time>
      </trkpt>
      <trkpt lat="47.545288" lon="2.2347858">
        <ele>182</ele>
        <time>2022-06-09T07:50:53Z</time>
      </trkpt>
      <trkpt lat="47.54528" lon="2.2347672">
        <ele>182</ele>
        <time>2022-06-09T07:50:54Z</time>
      </trkpt>
      <trkpt lat="47.545277" lon="2.2347476">
        <ele>182</ele>
        <time>2022-06-09T07:50:55Z</time>
      </trkpt>
      <trkpt lat="47.54527" lon="2.23473">
        <ele>182</ele>
        <time>2022-06-09T07:50:56Z</time>
      </trkpt>
      <trkpt lat="47.545265" lon="2.2347105">
        <ele>182</ele>
        <time>2022-06-09T07:50:57Z</time>
      </trkpt>
      <trkpt lat="47.545258" lon="2.234688">
        <ele>182</ele>
        <time>2022-06-09T07:50:58Z</time>
      </trkpt>
      <trkpt lat="47.545254" lon="2.2346692">
        <ele>182</ele>
        <time>2022-06-09T07:50:59Z</time>
      </trkpt>
      <trkpt lat="47.545242" lon="2.2346523">
        <ele>182</ele>
        <time>2022-06-09T07:51:00Z</time>
      </trkpt>
      <trkpt lat="47.545235" lon="2.2346368">
        <ele>182</ele>
        <time>2022-06-09T07:51:01Z</time>
      </trkpt>
      <trkpt lat="47.545227" lon="2.2346172">
        <ele>182</ele>
        <time>2022-06-09T07:51:02Z</time>
      </trkpt>
      <trkpt lat="47.54522" lon="2.2346015">
        <ele>182</ele>
        <time>2022-06-09T07:51:03Z</time>
      </trkpt>
      <trkpt lat="47.545216" lon="2.2345881">
        <ele>182</ele>
        <time>2022-06-09T07:51:04Z</time>
      </trkpt>
      <trkpt lat="47.545208" lon="2.2345731">
        <ele>182</ele>
        <time>2022-06-09T07:51:05Z</time>
      </trkpt>
      <trkpt lat="47.5452" lon="2.2345555">
        <ele>182</ele>
        <time>2022-06-09T07:51:06Z</time>
      </trkpt>
      <trkpt lat="47.545197" lon="2.2345378">
        <ele>182</ele>
        <time>2022-06-09T07:51:07Z</time>
      </trkpt>
      <trkpt lat="47.54519" lon="2.2345223">
        <ele>182</ele>
        <time>2022-06-09T07:51:08Z</time>
      </trkpt>
      <trkpt lat="47.545177" lon="2.2345064">
        <ele>182</ele>
        <time>2022-06-09T07:51:09Z</time>
      </trkpt>
      <trkpt lat="47.54517" lon="2.2344844">
        <ele>182</ele>
        <time>2022-06-09T07:51:10Z</time>
      </trkpt>
      <trkpt lat="47.545162" lon="2.2344642">
        <ele>182</ele>
        <time>2022-06-09T07:51:11Z</time>
      </trkpt>
      <trkpt lat="47.54516" lon="2.2344441">
        <ele>182</ele>
        <time>2022-06-09T07:51:12Z</time>
      </trkpt>
      <trkpt lat="47.545155" lon="2.2344258">
        <ele>182</ele>
        <time>2022-06-09T07:51:13Z</time>
      </trkpt>
      <trkpt lat="47.54515" lon="2.2344108">
        <ele>182</ele>
        <time>2022-06-09T07:51:14Z</time>
      </trkpt>
      <trkpt lat="47.545143" lon="2.2343915">
        <ele>182</ele>
        <time>2022-06-09T07:51:15Z</time>
      </trkpt>
      <trkpt lat="47.545135" lon="2.234377">
        <ele>182</ele>
        <time>2022-06-09T07:51:16Z</time>
      </trkpt>
      <trkpt lat="47.545128" lon="2.2343605">
        <ele>182</ele>
        <time>2022-06-09T07:51:17Z</time>
      </trkpt>
      <trkpt lat="47.54512" lon="2.2343476">
        <ele>182</ele>
        <time>2022-06-09T07:51:18Z</time>
      </trkpt>
      <trkpt lat="47.545113" lon="2.2343302">
        <ele>182</ele>
        <time>2022-06-09T07:51:19Z</time>
      </trkpt>
      <trkpt lat="47.54511" lon="2.2343135">
        <ele>182</ele>
        <time>2022-06-09T07:51:20Z</time>
      </trkpt>
      <trkpt lat="47.5451" lon="2.2342927">
        <ele>182</ele>
        <time>2022-06-09T07:51:21Z</time>
      </trkpt>
      <trkpt lat="47.54509" lon="2.2342732">
        <ele>182</ele>
        <time>2022-06-09T07:51:22Z</time>
      </trkpt>
      <trkpt lat="47.54508" lon="2.2342544">
        <ele>181</ele>
        <time>2022-06-09T07:51:23Z</time>
      </trkpt>
      <trkpt lat="47.545067" lon="2.2342362">
        <ele>181</ele>
        <time>2022-06-09T07:51:24Z</time>
      </trkpt>
      <trkpt lat="47.545063" lon="2.234216">
        <ele>181</ele>
        <time>2022-06-09T07:51:25Z</time>
      </trkpt>
      <trkpt lat="47.545055" lon="2.234196">
        <ele>181</ele>
        <time>2022-06-09T07:51:26Z</time>
      </trkpt>
      <trkpt lat="47.545048" lon="2.2341795">
        <ele>181</ele>
        <time>2022-06-09T07:51:27Z</time>
      </trkpt>
      <trkpt lat="47.54504" lon="2.23416">
        <ele>181</ele>
        <time>2022-06-09T07:51:28Z</time>
      </trkpt>
      <trkpt lat="47.545033" lon="2.2341404">
        <ele>181</ele>
        <time>2022-06-09T07:51:29Z</time>
      </trkpt>
      <trkpt lat="47.545025" lon="2.2341242">
        <ele>181</ele>
        <time>2022-06-09T07:51:30Z</time>
      </trkpt>
      <trkpt lat="47.545017" lon="2.2341058">
        <ele>181</ele>
        <time>2022-06-09T07:51:31Z</time>
      </trkpt>
      <trkpt lat="47.54501" lon="2.2340841">
        <ele>182</ele>
        <time>2022-06-09T07:51:32Z</time>
      </trkpt>
      <trkpt lat="47.545002" lon="2.2340655">
        <ele>181</ele>
        <time>2022-06-09T07:51:33Z</time>
      </trkpt>
      <trkpt lat="47.544994" lon="2.2340457">
        <ele>181</ele>
        <time>2022-06-09T07:51:34Z</time>
      </trkpt>
      <trkpt lat="47.544983" lon="2.23403">
        <ele>181</ele>
        <time>2022-06-09T07:51:35Z</time>
      </trkpt>
      <trkpt lat="47.544975" lon="2.234014">
        <ele>181</ele>
        <time>2022-06-09T07:51:36Z</time>
      </trkpt>
      <trkpt lat="47.544964" lon="2.233999">
        <ele>181</ele>
        <time>2022-06-09T07:51:37Z</time>
      </trkpt>
      <trkpt lat="47.544956" lon="2.2339797">
        <ele>181</ele>
        <time>2022-06-09T07:51:38Z</time>
      </trkpt>
      <trkpt lat="47.54495" lon="2.233964">
        <ele>181</ele>
        <time>2022-06-09T07:51:39Z</time>
      </trkpt>
      <trkpt lat="47.54494" lon="2.2339454">
        <ele>181</ele>
        <time>2022-06-09T07:51:40Z</time>
      </trkpt>
      <trkpt lat="47.544933" lon="2.2339258">
        <ele>182</ele>
        <time>2022-06-09T07:51:41Z</time>
      </trkpt>
      <trkpt lat="47.54493" lon="2.2339044">
        <ele>182</ele>
        <time>2022-06-09T07:51:42Z</time>
      </trkpt>
      <trkpt lat="47.54492" lon="2.233885">
        <ele>182</ele>
        <time>2022-06-09T07:51:43Z</time>
      </trkpt>
      <trkpt lat="47.544914" lon="2.2338674">
        <ele>182</ele>
        <time>2022-06-09T07:51:44Z</time>
      </trkpt>
      <trkpt lat="47.544907" lon="2.2338505">
        <ele>181</ele>
        <time>2022-06-09T07:51:45Z</time>
      </trkpt>
      <trkpt lat="47.544895" lon="2.2338336">
        <ele>181</ele>
        <time>2022-06-09T07:51:46Z</time>
      </trkpt>
      <trkpt lat="47.54489" lon="2.2338169">
        <ele>181</ele>
        <time>2022-06-09T07:51:47Z</time>
      </trkpt>
      <trkpt lat="47.544884" lon="2.2337978">
        <ele>181</ele>
        <time>2022-06-09T07:51:48Z</time>
      </trkpt>
      <trkpt lat="47.544876" lon="2.2337787">
        <ele>181</ele>
        <time>2022-06-09T07:51:49Z</time>
      </trkpt>
      <trkpt lat="47.544865" lon="2.2337606">
        <ele>181</ele>
        <time>2022-06-09T07:51:50Z</time>
      </trkpt>
      <trkpt lat="47.54486" lon="2.2337437">
        <ele>181</ele>
        <time>2022-06-09T07:51:51Z</time>
      </trkpt>
      <trkpt lat="47.544853" lon="2.23373">
        <ele>181</ele>
        <time>2022-06-09T07:51:52Z</time>
      </trkpt>
      <trkpt lat="47.544846" lon="2.2337146">
        <ele>181</ele>
        <time>2022-06-09T07:51:53Z</time>
      </trkpt>
      <trkpt lat="47.544838" lon="2.2336996">
        <ele>181</ele>
        <time>2022-06-09T07:51:54Z</time>
      </trkpt>
      <trkpt lat="47.54483" lon="2.2336793">
        <ele>182</ele>
        <time>2022-06-09T07:51:55Z</time>
      </trkpt>
      <trkpt lat="47.544827" lon="2.2336612">
        <ele>182</ele>
        <time>2022-06-09T07:51:56Z</time>
      </trkpt>
      <trkpt lat="47.54482" lon="2.2336404">
        <ele>183</ele>
        <time>2022-06-09T07:51:57Z</time>
      </trkpt>
      <trkpt lat="47.54481" lon="2.233623">
        <ele>183</ele>
        <time>2022-06-09T07:51:58Z</time>
      </trkpt>
      <trkpt lat="47.544804" lon="2.2336047">
        <ele>183</ele>
        <time>2022-06-09T07:51:59Z</time>
      </trkpt>
      <trkpt lat="47.544796" lon="2.2335882">
        <ele>183</ele>
        <time>2022-06-09T07:52:00Z</time>
      </trkpt>
      <trkpt lat="47.54479" lon="2.2335691">
        <ele>183</ele>
        <time>2022-06-09T07:52:01Z</time>
      </trkpt>
      <trkpt lat="47.54478" lon="2.2335517">
        <ele>183</ele>
        <time>2022-06-09T07:52:02Z</time>
      </trkpt>
      <trkpt lat="47.544777" lon="2.2335331">
        <ele>183</ele>
        <time>2022-06-09T07:52:03Z</time>
      </trkpt>
      <trkpt lat="47.544773" lon="2.2335129">
        <ele>183</ele>
        <time>2022-06-09T07:52:04Z</time>
      </trkpt>
      <trkpt lat="47.544765" lon="2.2334964">
        <ele>183</ele>
        <time>2022-06-09T07:52:05Z</time>
      </trkpt>
      <trkpt lat="47.54476" lon="2.2334845">
        <ele>183</ele>
        <time>2022-06-09T07:52:06Z</time>
      </trkpt>
      <trkpt lat="47.544758" lon="2.2334685">
        <ele>183</ele>
        <time>2022-06-09T07:52:07Z</time>
      </trkpt>
      <trkpt lat="47.544754" lon="2.2334607">
        <ele>182</ele>
        <time>2022-06-09T07:52:08Z</time>
      </trkpt>
      <trkpt lat="47.54476" lon="2.2334611">
        <ele>183</ele>
        <time>2022-06-09T07:52:09Z</time>
      </trkpt>
      <trkpt lat="47.54476" lon="2.2334616">
        <ele>183</ele>
        <time>2022-06-09T07:52:10Z</time>
      </trkpt>
      <trkpt lat="47.54476" lon="2.2334614">
        <ele>183</ele>
        <time>2022-06-09T07:52:11Z</time>
      </trkpt>
      <trkpt lat="47.54476" lon="2.2334614">
        <ele>183</ele>
        <time>2022-06-09T07:52:11Z</time>
      </trkpt>
      <trkpt lat="47.54476" lon="2.2334614">
        <ele>183</ele>
        <time>2022-06-09T07:52:11Z</time>
      </trkpt>
      <trkpt lat="47.54474" lon="2.2333665">
        <ele>182</ele>
        <time>2022-06-09T07:52:17Z</time>
      </trkpt>
      <trkpt lat="47.54473" lon="2.233349">
        <ele>182</ele>
        <time>2022-06-09T07:52:18Z</time>
      </trkpt>
      <trkpt lat="47.544727" lon="2.2333307">
        <ele>181</ele>
        <time>2022-06-09T07:52:19Z</time>
      </trkpt>
      <trkpt lat="47.544724" lon="2.233314">
        <ele>181</ele>
        <time>2022-06-09T07:52:20Z</time>
      </trkpt>
      <trkpt lat="47.544712" lon="2.2333014">
        <ele>181</ele>
        <time>2022-06-09T07:52:21Z</time>
      </trkpt>
      <trkpt lat="47.544712" lon="2.2332938">
        <ele>180</ele>
        <time>2022-06-09T07:52:22Z</time>
      </trkpt>
      <trkpt lat="47.544704" lon="2.2332797">
        <ele>180</ele>
        <time>2022-06-09T07:52:23Z</time>
      </trkpt>
      <trkpt lat="47.5447" lon="2.2332628">
        <ele>180</ele>
        <time>2022-06-09T07:52:24Z</time>
      </trkpt>
      <trkpt lat="47.544693" lon="2.2332504">
        <ele>179</ele>
        <time>2022-06-09T07:52:25Z</time>
      </trkpt>
      <trkpt lat="47.54468" lon="2.2332375">
        <ele>179</ele>
        <time>2022-06-09T07:52:26Z</time>
      </trkpt>
      <trkpt lat="47.544678" lon="2.2332227">
        <ele>179</ele>
        <time>2022-06-09T07:52:27Z</time>
      </trkpt>
      <trkpt lat="47.544666" lon="2.2332041">
        <ele>178</ele>
        <time>2022-06-09T07:52:28Z</time>
      </trkpt>
      <trkpt lat="47.544655" lon="2.2331886">
        <ele>178</ele>
        <time>2022-06-09T07:52:29Z</time>
      </trkpt>
      <trkpt lat="47.544647" lon="2.2331734">
        <ele>178</ele>
        <time>2022-06-09T07:52:30Z</time>
      </trkpt>
      <trkpt lat="47.54464" lon="2.2331529">
        <ele>177</ele>
        <time>2022-06-09T07:52:31Z</time>
      </trkpt>
      <trkpt lat="47.544636" lon="2.2331316">
        <ele>177</ele>
        <time>2022-06-09T07:52:32Z</time>
      </trkpt>
      <trkpt lat="47.544632" lon="2.2331138">
        <ele>177</ele>
        <time>2022-06-09T07:52:33Z</time>
      </trkpt>
      <trkpt lat="47.544624" lon="2.2330968">
        <ele>177</ele>
        <time>2022-06-09T07:52:34Z</time>
      </trkpt>
      <trkpt lat="47.544617" lon="2.2330816">
        <ele>178</ele>
        <time>2022-06-09T07:52:35Z</time>
      </trkpt>
      <trkpt lat="47.54461" lon="2.2330663">
        <ele>178</ele>
        <time>2022-06-09T07:52:36Z</time>
      </trkpt>
      <trkpt lat="47.544605" lon="2.233049">
        <ele>178</ele>
        <time>2022-06-09T07:52:37Z</time>
      </trkpt>
      <trkpt lat="47.5446" lon="2.2330341">
        <ele>178</ele>
        <time>2022-06-09T07:52:38Z</time>
      </trkpt>
      <trkpt lat="47.544594" lon="2.2330186">
        <ele>178</ele>
        <time>2022-06-09T07:52:39Z</time>
      </trkpt>
      <trkpt lat="47.54459" lon="2.2330022">
        <ele>178</ele>
        <time>2022-06-09T07:52:40Z</time>
      </trkpt>
      <trkpt lat="47.544586" lon="2.232983">
        <ele>178</ele>
        <time>2022-06-09T07:52:41Z</time>
      </trkpt>
      <trkpt lat="47.544582" lon="2.2329655">
        <ele>178</ele>
        <time>2022-06-09T07:52:42Z</time>
      </trkpt>
      <trkpt lat="47.54458" lon="2.2329535">
        <ele>178</ele>
        <time>2022-06-09T07:52:43Z</time>
      </trkpt>
      <trkpt lat="47.544575" lon="2.2329438">
        <ele>178</ele>
        <time>2022-06-09T07:52:44Z</time>
      </trkpt>
      <trkpt lat="47.544567" lon="2.2329326">
        <ele>178</ele>
        <time>2022-06-09T07:52:45Z</time>
      </trkpt>
      <trkpt lat="47.544563" lon="2.2329168">
        <ele>178</ele>
        <time>2022-06-09T07:52:46Z</time>
      </trkpt>
      <trkpt lat="47.54456" lon="2.2328997">
        <ele>178</ele>
        <time>2022-06-09T07:52:47Z</time>
      </trkpt>
      <trkpt lat="47.544556" lon="2.2328851">
        <ele>178</ele>
        <time>2022-06-09T07:52:48Z</time>
      </trkpt>
      <trkpt lat="47.54455" lon="2.2328718">
        <ele>178</ele>
        <time>2022-06-09T07:52:49Z</time>
      </trkpt>
      <trkpt lat="47.544544" lon="2.2328565">
        <ele>178</ele>
        <time>2022-06-09T07:52:50Z</time>
      </trkpt>
      <trkpt lat="47.54454" lon="2.232843">
        <ele>178</ele>
        <time>2022-06-09T07:52:51Z</time>
      </trkpt>
      <trkpt lat="47.544537" lon="2.2328265">
        <ele>178</ele>
        <time>2022-06-09T07:52:52Z</time>
      </trkpt>
      <trkpt lat="47.544533" lon="2.2328103">
        <ele>178</ele>
        <time>2022-06-09T07:52:53Z</time>
      </trkpt>
      <trkpt lat="47.54453" lon="2.2327962">
        <ele>177</ele>
        <time>2022-06-09T07:52:54Z</time>
      </trkpt>
      <trkpt lat="47.544525" lon="2.232786">
        <ele>177</ele>
        <time>2022-06-09T07:52:55Z</time>
      </trkpt>
      <trkpt lat="47.54452" lon="2.2327728">
        <ele>177</ele>
        <time>2022-06-09T07:52:56Z</time>
      </trkpt>
      <trkpt lat="47.544514" lon="2.232756">
        <ele>177</ele>
        <time>2022-06-09T07:52:57Z</time>
      </trkpt>
      <trkpt lat="47.544506" lon="2.2327383">
        <ele>177</ele>
        <time>2022-06-09T07:52:58Z</time>
      </trkpt>
      <trkpt lat="47.544502" lon="2.232725">
        <ele>176</ele>
        <time>2022-06-09T07:52:59Z</time>
      </trkpt>
      <trkpt lat="47.5445" lon="2.2327104">
        <ele>176</ele>
        <time>2022-06-09T07:53:00Z</time>
      </trkpt>
      <trkpt lat="47.54449" lon="2.2326972">
        <ele>176</ele>
        <time>2022-06-09T07:53:01Z</time>
      </trkpt>
      <trkpt lat="47.544487" lon="2.2326868">
        <ele>176</ele>
        <time>2022-06-09T07:53:02Z</time>
      </trkpt>
      <trkpt lat="47.54448" lon="2.2326727">
        <ele>177</ele>
        <time>2022-06-09T07:53:03Z</time>
      </trkpt>
      <trkpt lat="47.544476" lon="2.232657">
        <ele>177</ele>
        <time>2022-06-09T07:53:04Z</time>
      </trkpt>
      <trkpt lat="47.54447" lon="2.232642">
        <ele>177</ele>
        <time>2022-06-09T07:53:05Z</time>
      </trkpt>
      <trkpt lat="47.544464" lon="2.232629">
        <ele>177</ele>
        <time>2022-06-09T07:53:06Z</time>
      </trkpt>
      <trkpt lat="47.544456" lon="2.2326155">
        <ele>176</ele>
        <time>2022-06-09T07:53:07Z</time>
      </trkpt>
      <trkpt lat="47.54445" lon="2.2326002">
        <ele>176</ele>
        <time>2022-06-09T07:53:08Z</time>
      </trkpt>
      <trkpt lat="47.54444" lon="2.2325845">
        <ele>176</ele>
        <time>2022-06-09T07:53:09Z</time>
      </trkpt>
      <trkpt lat="47.544437" lon="2.2325737">
        <ele>176</ele>
        <time>2022-06-09T07:53:10Z</time>
      </trkpt>
      <trkpt lat="47.54443" lon="2.2325609">
        <ele>177</ele>
        <time>2022-06-09T07:53:11Z</time>
      </trkpt>
      <trkpt lat="47.544426" lon="2.2325473">
        <ele>176</ele>
        <time>2022-06-09T07:53:12Z</time>
      </trkpt>
      <trkpt lat="47.54442" lon="2.2325342">
        <ele>176</ele>
        <time>2022-06-09T07:53:13Z</time>
      </trkpt>
      <trkpt lat="47.54442" lon="2.2325182">
        <ele>177</ele>
        <time>2022-06-09T07:53:14Z</time>
      </trkpt>
      <trkpt lat="47.54441" lon="2.2325048">
        <ele>176</ele>
        <time>2022-06-09T07:53:15Z</time>
      </trkpt>
      <trkpt lat="47.544407" lon="2.2324843">
        <ele>176</ele>
        <time>2022-06-09T07:53:16Z</time>
      </trkpt>
      <trkpt lat="47.5444" lon="2.2324667">
        <ele>176</ele>
        <time>2022-06-09T07:53:17Z</time>
      </trkpt>
      <trkpt lat="47.54439" lon="2.232453">
        <ele>176</ele>
        <time>2022-06-09T07:53:18Z</time>
      </trkpt>
      <trkpt lat="47.544384" lon="2.232434">
        <ele>176</ele>
        <time>2022-06-09T07:53:19Z</time>
      </trkpt>
      <trkpt lat="47.544376" lon="2.232417">
        <ele>175</ele>
        <time>2022-06-09T07:53:20Z</time>
      </trkpt>
      <trkpt lat="47.54437" lon="2.2324045">
        <ele>175</ele>
        <time>2022-06-09T07:53:21Z</time>
      </trkpt>
      <trkpt lat="47.544365" lon="2.2323875">
        <ele>175</ele>
        <time>2022-06-09T07:53:22Z</time>
      </trkpt>
      <trkpt lat="47.544357" lon="2.232372">
        <ele>175</ele>
        <time>2022-06-09T07:53:23Z</time>
      </trkpt>
      <trkpt lat="47.544353" lon="2.2323549">
        <ele>175</ele>
        <time>2022-06-09T07:53:24Z</time>
      </trkpt>
      <trkpt lat="47.544346" lon="2.2323358">
        <ele>175</ele>
        <time>2022-06-09T07:53:25Z</time>
      </trkpt>
      <trkpt lat="47.54433" lon="2.2323031">
        <ele>175</ele>
        <time>2022-06-09T07:53:26Z</time>
      </trkpt>
      <trkpt lat="47.54433" lon="2.2323031">
        <ele>175</ele>
        <time>2022-06-09T07:53:26Z</time>
      </trkpt>
      <trkpt lat="47.544323" lon="2.232289">
        <ele>175</ele>
        <time>2022-06-09T07:53:28Z</time>
      </trkpt>
      <trkpt lat="47.544315" lon="2.2322729">
        <ele>175</ele>
        <time>2022-06-09T07:53:29Z</time>
      </trkpt>
      <trkpt lat="47.544304" lon="2.2322388">
        <ele>175</ele>
        <time>2022-06-09T07:53:30Z</time>
      </trkpt>
      <trkpt lat="47.544304" lon="2.2322388">
        <ele>175</ele>
        <time>2022-06-09T07:53:30Z</time>
      </trkpt>
      <trkpt lat="47.544292" lon="2.2322218">
        <ele>175</ele>
        <time>2022-06-09T07:53:32Z</time>
      </trkpt>
      <trkpt lat="47.544277" lon="2.232183">
        <ele>174</ele>
        <time>2022-06-09T07:53:33Z</time>
      </trkpt>
      <trkpt lat="47.544277" lon="2.232183">
        <ele>174</ele>
        <time>2022-06-09T07:53:33Z</time>
      </trkpt>
      <trkpt lat="47.544273" lon="2.2321641">
        <ele>174</ele>
        <time>2022-06-09T07:53:35Z</time>
      </trkpt>
      <trkpt lat="47.544266" lon="2.2321432">
        <ele>175</ele>
        <time>2022-06-09T07:53:36Z</time>
      </trkpt>
      <trkpt lat="47.544254" lon="2.2321253">
        <ele>175</ele>
        <time>2022-06-09T07:53:37Z</time>
      </trkpt>
      <trkpt lat="47.544235" lon="2.232102">
        <ele>175</ele>
        <time>2022-06-09T07:53:38Z</time>
      </trkpt>
      <trkpt lat="47.54423" lon="2.2320862">
        <ele>175</ele>
        <time>2022-06-09T07:53:39Z</time>
      </trkpt>
      <trkpt lat="47.54422" lon="2.2320735">
        <ele>175</ele>
        <time>2022-06-09T07:53:40Z</time>
      </trkpt>
      <trkpt lat="47.54422" lon="2.2320735">
        <ele>175</ele>
        <time>2022-06-09T07:53:40Z</time>
      </trkpt>
      <trkpt lat="47.544212" lon="2.2320588">
        <ele>175</ele>
        <time>2022-06-09T07:53:42Z</time>
      </trkpt>
      <trkpt lat="47.54421" lon="2.2320201">
        <ele>175</ele>
        <time>2022-06-09T07:53:43Z</time>
      </trkpt>
      <trkpt lat="47.544205" lon="2.2320101">
        <ele>175</ele>
        <time>2022-06-09T07:53:44Z</time>
      </trkpt>
      <trkpt lat="47.544205" lon="2.2320101">
        <ele>175</ele>
        <time>2022-06-09T07:53:44Z</time>
      </trkpt>
      <trkpt lat="47.544197" lon="2.2319942">
        <ele>176</ele>
        <time>2022-06-09T07:53:46Z</time>
      </trkpt>
      <trkpt lat="47.544197" lon="2.2319942">
        <ele>176</ele>
        <time>2022-06-09T07:53:47Z</time>
      </trkpt>
      <trkpt lat="47.544197" lon="2.231994">
        <ele>176</ele>
        <time>2022-06-09T07:53:48Z</time>
      </trkpt>
      <trkpt lat="47.544197" lon="2.2319942">
        <ele>176</ele>
        <time>2022-06-09T07:53:49Z</time>
      </trkpt>
      <trkpt lat="47.54419" lon="2.2319875">
        <ele>176</ele>
        <time>2022-06-09T07:53:50Z</time>
      </trkpt>
      <trkpt lat="47.544186" lon="2.2319741">
        <ele>175</ele>
        <time>2022-06-09T07:53:51Z</time>
      </trkpt>
      <trkpt lat="47.544186" lon="2.231964">
        <ele>175</ele>
        <time>2022-06-09T07:53:52Z</time>
      </trkpt>
      <trkpt lat="47.54418" lon="2.231947">
        <ele>175</ele>
        <time>2022-06-09T07:53:53Z</time>
      </trkpt>
      <trkpt lat="47.544174" lon="2.231929">
        <ele>175</ele>
        <time>2022-06-09T07:53:54Z</time>
      </trkpt>
      <trkpt lat="47.544163" lon="2.231913">
        <ele>175</ele>
        <time>2022-06-09T07:53:55Z</time>
      </trkpt>
      <trkpt lat="47.54416" lon="2.2318966">
        <ele>175</ele>
        <time>2022-06-09T07:53:56Z</time>
      </trkpt>
      <trkpt lat="47.544155" lon="2.2318823">
        <ele>175</ele>
        <time>2022-06-09T07:53:57Z</time>
      </trkpt>
      <trkpt lat="47.544147" lon="2.231864">
        <ele>176</ele>
        <time>2022-06-09T07:53:58Z</time>
      </trkpt>
      <trkpt lat="47.544144" lon="2.231841">
        <ele>176</ele>
        <time>2022-06-09T07:53:59Z</time>
      </trkpt>
      <trkpt lat="47.544136" lon="2.23182">
        <ele>176</ele>
        <time>2022-06-09T07:54:00Z</time>
      </trkpt>
      <trkpt lat="47.54413" lon="2.2318015">
        <ele>177</ele>
        <time>2022-06-09T07:54:01Z</time>
      </trkpt>
      <trkpt lat="47.54412" lon="2.2317848">
        <ele>177</ele>
        <time>2022-06-09T07:54:02Z</time>
      </trkpt>
      <trkpt lat="47.544113" lon="2.231765">
        <ele>178</ele>
        <time>2022-06-09T07:54:03Z</time>
      </trkpt>
      <trkpt lat="47.544106" lon="2.231746">
        <ele>178</ele>
        <time>2022-06-09T07:54:04Z</time>
      </trkpt>
      <trkpt lat="47.544098" lon="2.231729">
        <ele>178</ele>
        <time>2022-06-09T07:54:05Z</time>
      </trkpt>
      <trkpt lat="47.544086" lon="2.231711">
        <ele>178</ele>
        <time>2022-06-09T07:54:06Z</time>
      </trkpt>
      <trkpt lat="47.54408" lon="2.231694">
        <ele>178</ele>
        <time>2022-06-09T07:54:07Z</time>
      </trkpt>
      <trkpt lat="47.54407" lon="2.23168">
        <ele>178</ele>
        <time>2022-06-09T07:54:08Z</time>
      </trkpt>
      <trkpt lat="47.544067" lon="2.231663">
        <ele>178</ele>
        <time>2022-06-09T07:54:09Z</time>
      </trkpt>
      <trkpt lat="47.544064" lon="2.2316444">
        <ele>178</ele>
        <time>2022-06-09T07:54:10Z</time>
      </trkpt>
      <trkpt lat="47.544052" lon="2.2316277">
        <ele>178</ele>
        <time>2022-06-09T07:54:11Z</time>
      </trkpt>
      <trkpt lat="47.54405" lon="2.2316093">
        <ele>178</ele>
        <time>2022-06-09T07:54:12Z</time>
      </trkpt>
      <trkpt lat="47.544037" lon="2.231585">
        <ele>179</ele>
        <time>2022-06-09T07:54:13Z</time>
      </trkpt>
      <trkpt lat="47.54403" lon="2.2315624">
        <ele>179</ele>
        <time>2022-06-09T07:54:14Z</time>
      </trkpt>
      <trkpt lat="47.54402" lon="2.2315462">
        <ele>179</ele>
        <time>2022-06-09T07:54:15Z</time>
      </trkpt>
      <trkpt lat="47.544014" lon="2.2315311">
        <ele>179</ele>
        <time>2022-06-09T07:54:16Z</time>
      </trkpt>
      <trkpt lat="47.544006" lon="2.2315125">
        <ele>179</ele>
        <time>2022-06-09T07:54:17Z</time>
      </trkpt>
      <trkpt lat="47.544003" lon="2.2314954">
        <ele>179</ele>
        <time>2022-06-09T07:54:18Z</time>
      </trkpt>
      <trkpt lat="47.54399" lon="2.2314768">
        <ele>179</ele>
        <time>2022-06-09T07:54:19Z</time>
      </trkpt>
      <trkpt lat="47.543987" lon="2.2314582">
        <ele>179</ele>
        <time>2022-06-09T07:54:20Z</time>
      </trkpt>
      <trkpt lat="47.54398" lon="2.2314415">
        <ele>179</ele>
        <time>2022-06-09T07:54:21Z</time>
      </trkpt>
      <trkpt lat="47.543972" lon="2.231425">
        <ele>179</ele>
        <time>2022-06-09T07:54:22Z</time>
      </trkpt>
      <trkpt lat="47.543964" lon="2.2314024">
        <ele>180</ele>
        <time>2022-06-09T07:54:23Z</time>
      </trkpt>
      <trkpt lat="47.543957" lon="2.2313879">
        <ele>180</ele>
        <time>2022-06-09T07:54:24Z</time>
      </trkpt>
      <trkpt lat="47.54395" lon="2.2313716">
        <ele>180</ele>
        <time>2022-06-09T07:54:25Z</time>
      </trkpt>
      <trkpt lat="47.54394" lon="2.231359">
        <ele>180</ele>
        <time>2022-06-09T07:54:26Z</time>
      </trkpt>
      <trkpt lat="47.543934" lon="2.2313435">
        <ele>180</ele>
        <time>2022-06-09T07:54:27Z</time>
      </trkpt>
      <trkpt lat="47.543926" lon="2.2313278">
        <ele>180</ele>
        <time>2022-06-09T07:54:28Z</time>
      </trkpt>
      <trkpt lat="47.543922" lon="2.2313108">
        <ele>180</ele>
        <time>2022-06-09T07:54:29Z</time>
      </trkpt>
      <trkpt lat="47.54391" lon="2.23129">
        <ele>180</ele>
        <time>2022-06-09T07:54:30Z</time>
      </trkpt>
      <trkpt lat="47.5439" lon="2.2312675">
        <ele>180</ele>
        <time>2022-06-09T07:54:31Z</time>
      </trkpt>
      <trkpt lat="47.54389" lon="2.23125">
        <ele>180</ele>
        <time>2022-06-09T07:54:32Z</time>
      </trkpt>
      <trkpt lat="47.543888" lon="2.2312312">
        <ele>180</ele>
        <time>2022-06-09T07:54:33Z</time>
      </trkpt>
      <trkpt lat="47.543884" lon="2.2312124">
        <ele>180</ele>
        <time>2022-06-09T07:54:34Z</time>
      </trkpt>
      <trkpt lat="47.54388" lon="2.2311943">
        <ele>180</ele>
        <time>2022-06-09T07:54:35Z</time>
      </trkpt>
      <trkpt lat="47.543873" lon="2.2311745">
        <ele>180</ele>
        <time>2022-06-09T07:54:36Z</time>
      </trkpt>
      <trkpt lat="47.543865" lon="2.2311528">
        <ele>180</ele>
        <time>2022-06-09T07:54:37Z</time>
      </trkpt>
      <trkpt lat="47.543858" lon="2.2311378">
        <ele>180</ele>
        <time>2022-06-09T07:54:38Z</time>
      </trkpt>
      <trkpt lat="47.54385" lon="2.2311237">
        <ele>180</ele>
        <time>2022-06-09T07:54:39Z</time>
      </trkpt>
      <trkpt lat="47.543846" lon="2.2311058">
        <ele>180</ele>
        <time>2022-06-09T07:54:40Z</time>
      </trkpt>
      <trkpt lat="47.54384" lon="2.2310889">
        <ele>180</ele>
        <time>2022-06-09T07:54:41Z</time>
      </trkpt>
      <trkpt lat="47.54383" lon="2.2310696">
        <ele>180</ele>
        <time>2022-06-09T07:54:42Z</time>
      </trkpt>
      <trkpt lat="47.543823" lon="2.231057">
        <ele>180</ele>
        <time>2022-06-09T07:54:43Z</time>
      </trkpt>
      <trkpt lat="47.543816" lon="2.2310445">
        <ele>180</ele>
        <time>2022-06-09T07:54:44Z</time>
      </trkpt>
      <trkpt lat="47.543808" lon="2.2310271">
        <ele>180</ele>
        <time>2022-06-09T07:54:45Z</time>
      </trkpt>
      <trkpt lat="47.543804" lon="2.2310085">
        <ele>180</ele>
        <time>2022-06-09T07:54:46Z</time>
      </trkpt>
      <trkpt lat="47.543797" lon="2.2309911">
        <ele>180</ele>
        <time>2022-06-09T07:54:47Z</time>
      </trkpt>
      <trkpt lat="47.54379" lon="2.230974">
        <ele>180</ele>
        <time>2022-06-09T07:54:48Z</time>
      </trkpt>
      <trkpt lat="47.54378" lon="2.2309575">
        <ele>179</ele>
        <time>2022-06-09T07:54:49Z</time>
      </trkpt>
      <trkpt lat="47.543777" lon="2.2309399">
        <ele>179</ele>
        <time>2022-06-09T07:54:50Z</time>
      </trkpt>
      <trkpt lat="47.54377" lon="2.2309256">
        <ele>179</ele>
        <time>2022-06-09T07:54:51Z</time>
      </trkpt>
      <trkpt lat="47.543762" lon="2.230909">
        <ele>179</ele>
        <time>2022-06-09T07:54:52Z</time>
      </trkpt>
      <trkpt lat="47.543755" lon="2.2308958">
        <ele>178</ele>
        <time>2022-06-09T07:54:53Z</time>
      </trkpt>
      <trkpt lat="47.543743" lon="2.2308822">
        <ele>178</ele>
        <time>2022-06-09T07:54:54Z</time>
      </trkpt>
      <trkpt lat="47.54374" lon="2.2308648">
        <ele>178</ele>
        <time>2022-06-09T07:54:55Z</time>
      </trkpt>
      <trkpt lat="47.54373" lon="2.2308505">
        <ele>178</ele>
        <time>2022-06-09T07:54:56Z</time>
      </trkpt>
      <trkpt lat="47.543728" lon="2.230833">
        <ele>177</ele>
        <time>2022-06-09T07:54:57Z</time>
      </trkpt>
      <trkpt lat="47.543728" lon="2.230819">
        <ele>177</ele>
        <time>2022-06-09T07:54:58Z</time>
      </trkpt>
      <trkpt lat="47.543724" lon="2.230801">
        <ele>177</ele>
        <time>2022-06-09T07:54:59Z</time>
      </trkpt>
      <trkpt lat="47.543716" lon="2.2307842">
        <ele>176</ele>
        <time>2022-06-09T07:55:00Z</time>
      </trkpt>
      <trkpt lat="47.543713" lon="2.2307642">
        <ele>176</ele>
        <time>2022-06-09T07:55:01Z</time>
      </trkpt>
      <trkpt lat="47.543705" lon="2.2307444">
        <ele>176</ele>
        <time>2022-06-09T07:55:02Z</time>
      </trkpt>
      <trkpt lat="47.5437" lon="2.2307296">
        <ele>176</ele>
        <time>2022-06-09T07:55:03Z</time>
      </trkpt>
      <trkpt lat="47.543697" lon="2.2307086">
        <ele>177</ele>
        <time>2022-06-09T07:55:04Z</time>
      </trkpt>
      <trkpt lat="47.543697" lon="2.230689">
        <ele>176</ele>
        <time>2022-06-09T07:55:05Z</time>
      </trkpt>
      <trkpt lat="47.54369" lon="2.2306716">
        <ele>177</ele>
        <time>2022-06-09T07:55:06Z</time>
      </trkpt>
      <trkpt lat="47.543682" lon="2.230656">
        <ele>177</ele>
        <time>2022-06-09T07:55:07Z</time>
      </trkpt>
      <trkpt lat="47.543674" lon="2.2306414">
        <ele>177</ele>
        <time>2022-06-09T07:55:08Z</time>
      </trkpt>
      <trkpt lat="47.543667" lon="2.2306287">
        <ele>177</ele>
        <time>2022-06-09T07:55:09Z</time>
      </trkpt>
      <trkpt lat="47.543663" lon="2.230616">
        <ele>177</ele>
        <time>2022-06-09T07:55:10Z</time>
      </trkpt>
      <trkpt lat="47.543655" lon="2.2306037">
        <ele>177</ele>
        <time>2022-06-09T07:55:11Z</time>
      </trkpt>
      <trkpt lat="47.543648" lon="2.2305906">
        <ele>178</ele>
        <time>2022-06-09T07:55:12Z</time>
      </trkpt>
      <trkpt lat="47.543644" lon="2.230573">
        <ele>178</ele>
        <time>2022-06-09T07:55:13Z</time>
      </trkpt>
      <trkpt lat="47.543636" lon="2.2305527">
        <ele>178</ele>
        <time>2022-06-09T07:55:14Z</time>
      </trkpt>
      <trkpt lat="47.54363" lon="2.2305346">
        <ele>178</ele>
        <time>2022-06-09T07:55:15Z</time>
      </trkpt>
      <trkpt lat="47.54362" lon="2.2305164">
        <ele>178</ele>
        <time>2022-06-09T07:55:16Z</time>
      </trkpt>
      <trkpt lat="47.543613" lon="2.2304978">
        <ele>178</ele>
        <time>2022-06-09T07:55:17Z</time>
      </trkpt>
      <trkpt lat="47.543606" lon="2.230481">
        <ele>178</ele>
        <time>2022-06-09T07:55:18Z</time>
      </trkpt>
      <trkpt lat="47.5436" lon="2.230466">
        <ele>178</ele>
        <time>2022-06-09T07:55:19Z</time>
      </trkpt>
      <trkpt lat="47.543594" lon="2.23045">
        <ele>177</ele>
        <time>2022-06-09T07:55:20Z</time>
      </trkpt>
      <trkpt lat="47.543587" lon="2.230431">
        <ele>178</ele>
        <time>2022-06-09T07:55:21Z</time>
      </trkpt>
      <trkpt lat="47.54358" lon="2.230414">
        <ele>177</ele>
        <time>2022-06-09T07:55:22Z</time>
      </trkpt>
      <trkpt lat="47.54357" lon="2.2304008">
        <ele>177</ele>
        <time>2022-06-09T07:55:23Z</time>
      </trkpt>
      <trkpt lat="47.543564" lon="2.2303815">
        <ele>177</ele>
        <time>2022-06-09T07:55:24Z</time>
      </trkpt>
      <trkpt lat="47.543556" lon="2.2303627">
        <ele>177</ele>
        <time>2022-06-09T07:55:25Z</time>
      </trkpt>
      <trkpt lat="47.54355" lon="2.230341">
        <ele>177</ele>
        <time>2022-06-09T07:55:26Z</time>
      </trkpt>
      <trkpt lat="47.54354" lon="2.230324">
        <ele>177</ele>
        <time>2022-06-09T07:55:27Z</time>
      </trkpt>
      <trkpt lat="47.543533" lon="2.2303088">
        <ele>177</ele>
        <time>2022-06-09T07:55:28Z</time>
      </trkpt>
      <trkpt lat="47.543526" lon="2.2302907">
        <ele>177</ele>
        <time>2022-06-09T07:55:29Z</time>
      </trkpt>
      <trkpt lat="47.54352" lon="2.230272">
        <ele>177</ele>
        <time>2022-06-09T07:55:30Z</time>
      </trkpt>
      <trkpt lat="47.543518" lon="2.2302535">
        <ele>177</ele>
        <time>2022-06-09T07:55:31Z</time>
      </trkpt>
      <trkpt lat="47.543514" lon="2.2302353">
        <ele>177</ele>
        <time>2022-06-09T07:55:32Z</time>
      </trkpt>
      <trkpt lat="47.543507" lon="2.2302172">
        <ele>176</ele>
        <time>2022-06-09T07:55:33Z</time>
      </trkpt>
      <trkpt lat="47.5435" lon="2.2302005">
        <ele>176</ele>
        <time>2022-06-09T07:55:34Z</time>
      </trkpt>
      <trkpt lat="47.54349" lon="2.2301867">
        <ele>176</ele>
        <time>2022-06-09T07:55:35Z</time>
      </trkpt>
      <trkpt lat="47.54349" lon="2.2301698">
        <ele>176</ele>
        <time>2022-06-09T07:55:36Z</time>
      </trkpt>
      <trkpt lat="47.543484" lon="2.2301543">
        <ele>177</ele>
        <time>2022-06-09T07:55:37Z</time>
      </trkpt>
      <trkpt lat="47.543476" lon="2.2301292">
        <ele>176</ele>
        <time>2022-06-09T07:55:38Z</time>
      </trkpt>
      <trkpt lat="47.54347" lon="2.2301073">
        <ele>176</ele>
        <time>2022-06-09T07:55:39Z</time>
      </trkpt>
      <trkpt lat="47.54346" lon="2.2300856">
        <ele>176</ele>
        <time>2022-06-09T07:55:40Z</time>
      </trkpt>
      <trkpt lat="47.543453" lon="2.2300649">
        <ele>176</ele>
        <time>2022-06-09T07:55:41Z</time>
      </trkpt>
      <trkpt lat="47.54345" lon="2.2300422">
        <ele>176</ele>
        <time>2022-06-09T07:55:42Z</time>
      </trkpt>
      <trkpt lat="47.54344" lon="2.2300184">
        <ele>176</ele>
        <time>2022-06-09T07:55:43Z</time>
      </trkpt>
      <trkpt lat="47.543434" lon="2.2299957">
        <ele>176</ele>
        <time>2022-06-09T07:55:44Z</time>
      </trkpt>
      <trkpt lat="47.543427" lon="2.229973">
        <ele>176</ele>
        <time>2022-06-09T07:55:45Z</time>
      </trkpt>
      <trkpt lat="47.543423" lon="2.2299597">
        <ele>176</ele>
        <time>2022-06-09T07:55:46Z</time>
      </trkpt>
      <trkpt lat="47.54342" lon="2.2299445">
        <ele>176</ele>
        <time>2022-06-09T07:55:47Z</time>
      </trkpt>
      <trkpt lat="47.54341" lon="2.2299252">
        <ele>177</ele>
        <time>2022-06-09T07:55:48Z</time>
      </trkpt>
      <trkpt lat="47.543404" lon="2.2299073">
        <ele>176</ele>
        <time>2022-06-09T07:55:49Z</time>
      </trkpt>
      <trkpt lat="47.543404" lon="2.2298903">
        <ele>176</ele>
        <time>2022-06-09T07:55:50Z</time>
      </trkpt>
      <trkpt lat="47.543396" lon="2.2298746">
        <ele>176</ele>
        <time>2022-06-09T07:55:51Z</time>
      </trkpt>
      <trkpt lat="47.543396" lon="2.2298608">
        <ele>176</ele>
        <time>2022-06-09T07:55:52Z</time>
      </trkpt>
      <trkpt lat="47.543392" lon="2.2298455">
        <ele>176</ele>
        <time>2022-06-09T07:55:53Z</time>
      </trkpt>
      <trkpt lat="47.54339" lon="2.229828">
        <ele>176</ele>
        <time>2022-06-09T07:55:54Z</time>
      </trkpt>
      <trkpt lat="47.54338" lon="2.2298057">
        <ele>175</ele>
        <time>2022-06-09T07:55:55Z</time>
      </trkpt>
      <trkpt lat="47.543373" lon="2.2297857">
        <ele>175</ele>
        <time>2022-06-09T07:55:56Z</time>
      </trkpt>
      <trkpt lat="47.543365" lon="2.2297645">
        <ele>175</ele>
        <time>2022-06-09T07:55:57Z</time>
      </trkpt>
      <trkpt lat="47.54336" lon="2.2297435">
        <ele>175</ele>
        <time>2022-06-09T07:55:58Z</time>
      </trkpt>
      <trkpt lat="47.543358" lon="2.2297215">
        <ele>175</ele>
        <time>2022-06-09T07:55:59Z</time>
      </trkpt>
      <trkpt lat="47.54335" lon="2.2296987">
        <ele>175</ele>
        <time>2022-06-09T07:56:00Z</time>
      </trkpt>
      <trkpt lat="47.543346" lon="2.2296758">
        <ele>175</ele>
        <time>2022-06-09T07:56:01Z</time>
      </trkpt>
      <trkpt lat="47.543343" lon="2.2296557">
        <ele>175</ele>
        <time>2022-06-09T07:56:02Z</time>
      </trkpt>
      <trkpt lat="47.54334" lon="2.2296398">
        <ele>176</ele>
        <time>2022-06-09T07:56:03Z</time>
      </trkpt>
      <trkpt lat="47.543327" lon="2.2296216">
        <ele>176</ele>
        <time>2022-06-09T07:56:04Z</time>
      </trkpt>
      <trkpt lat="47.54332" lon="2.2295988">
        <ele>177</ele>
        <time>2022-06-09T07:56:05Z</time>
      </trkpt>
      <trkpt lat="47.543312" lon="2.2295763">
        <ele>177</ele>
        <time>2022-06-09T07:56:06Z</time>
      </trkpt>
      <trkpt lat="47.54331" lon="2.2295632">
        <ele>177</ele>
        <time>2022-06-09T07:56:07Z</time>
      </trkpt>
      <trkpt lat="47.543304" lon="2.2295496">
        <ele>177</ele>
        <time>2022-06-09T07:56:08Z</time>
      </trkpt>
      <trkpt lat="47.5433" lon="2.2295363">
        <ele>176</ele>
        <time>2022-06-09T07:56:09Z</time>
      </trkpt>
      <trkpt lat="47.543293" lon="2.229518">
        <ele>176</ele>
        <time>2022-06-09T07:56:10Z</time>
      </trkpt>
      <trkpt lat="47.543293" lon="2.2295012">
        <ele>176</ele>
        <time>2022-06-09T07:56:11Z</time>
      </trkpt>
      <trkpt lat="47.543293" lon="2.2294996">
        <ele>175</ele>
        <time>2022-06-09T07:56:12Z</time>
      </trkpt>
      <trkpt lat="47.543293" lon="2.229494">
        <ele>176</ele>
        <time>2022-06-09T07:56:13Z</time>
      </trkpt>
      <trkpt lat="47.543293" lon="2.2294939">
        <ele>176</ele>
        <time>2022-06-09T07:56:14Z</time>
      </trkpt>
      <trkpt lat="47.543293" lon="2.2294939">
        <ele>176</ele>
        <time>2022-06-09T07:56:15Z</time>
      </trkpt>
      <trkpt lat="47.543293" lon="2.2294939">
        <ele>176</ele>
        <time>2022-06-09T07:56:16Z</time>
      </trkpt>
      <trkpt lat="47.543293" lon="2.2294939">
        <ele>176</ele>
        <time>2022-06-09T07:56:16Z</time>
      </trkpt>
      <trkpt lat="47.543293" lon="2.2294939">
        <ele>176</ele>
        <time>2022-06-09T07:56:16Z</time>
      </trkpt>
      <trkpt lat="47.543266" lon="2.229388">
        <ele>177</ele>
        <time>2022-06-09T07:56:26Z</time>
      </trkpt>
      <trkpt lat="47.543262" lon="2.2293706">
        <ele>177</ele>
        <time>2022-06-09T07:56:27Z</time>
      </trkpt>
      <trkpt lat="47.54326" lon="2.2293537">
        <ele>177</ele>
        <time>2022-06-09T07:56:28Z</time>
      </trkpt>
      <trkpt lat="47.54326" lon="2.2293353">
        <ele>177</ele>
        <time>2022-06-09T07:56:29Z</time>
      </trkpt>
      <trkpt lat="47.54325" lon="2.2293193">
        <ele>177</ele>
        <time>2022-06-09T07:56:30Z</time>
      </trkpt>
      <trkpt lat="47.543247" lon="2.2293012">
        <ele>177</ele>
        <time>2022-06-09T07:56:31Z</time>
      </trkpt>
      <trkpt lat="47.543243" lon="2.2292848">
        <ele>177</ele>
        <time>2022-06-09T07:56:32Z</time>
      </trkpt>
      <trkpt lat="47.54324" lon="2.2292674">
        <ele>177</ele>
        <time>2022-06-09T07:56:33Z</time>
      </trkpt>
      <trkpt lat="47.54324" lon="2.229253">
        <ele>176</ele>
        <time>2022-06-09T07:56:34Z</time>
      </trkpt>
      <trkpt lat="47.54324" lon="2.2292378">
        <ele>176</ele>
        <time>2022-06-09T07:56:35Z</time>
      </trkpt>
      <trkpt lat="47.543232" lon="2.2292154">
        <ele>176</ele>
        <time>2022-06-09T07:56:36Z</time>
      </trkpt>
      <trkpt lat="47.54323" lon="2.2291937">
        <ele>176</ele>
        <time>2022-06-09T07:56:37Z</time>
      </trkpt>
      <trkpt lat="47.54323" lon="2.229176">
        <ele>176</ele>
        <time>2022-06-09T07:56:38Z</time>
      </trkpt>
      <trkpt lat="47.543224" lon="2.2291586">
        <ele>176</ele>
        <time>2022-06-09T07:56:39Z</time>
      </trkpt>
      <trkpt lat="47.54322" lon="2.2291386">
        <ele>176</ele>
        <time>2022-06-09T07:56:40Z</time>
      </trkpt>
      <trkpt lat="47.543217" lon="2.2291174">
        <ele>176</ele>
        <time>2022-06-09T07:56:41Z</time>
      </trkpt>
      <trkpt lat="47.543213" lon="2.2290971">
        <ele>176</ele>
        <time>2022-06-09T07:56:42Z</time>
      </trkpt>
      <trkpt lat="47.54321" lon="2.2290764">
        <ele>175</ele>
        <time>2022-06-09T07:56:43Z</time>
      </trkpt>
      <trkpt lat="47.5432" lon="2.2290585">
        <ele>175</ele>
        <time>2022-06-09T07:56:44Z</time>
      </trkpt>
      <trkpt lat="47.543194" lon="2.2290425">
        <ele>176</ele>
        <time>2022-06-09T07:56:45Z</time>
      </trkpt>
      <trkpt lat="47.543186" lon="2.2290266">
        <ele>176</ele>
        <time>2022-06-09T07:56:46Z</time>
      </trkpt>
      <trkpt lat="47.543182" lon="2.2290106">
        <ele>176</ele>
        <time>2022-06-09T07:56:47Z</time>
      </trkpt>
      <trkpt lat="47.543175" lon="2.2289965">
        <ele>176</ele>
        <time>2022-06-09T07:56:48Z</time>
      </trkpt>
      <trkpt lat="47.543167" lon="2.2289834">
        <ele>176</ele>
        <time>2022-06-09T07:56:49Z</time>
      </trkpt>
      <trkpt lat="47.54316" lon="2.2289674">
        <ele>176</ele>
        <time>2022-06-09T07:56:50Z</time>
      </trkpt>
      <trkpt lat="47.543156" lon="2.2289512">
        <ele>176</ele>
        <time>2022-06-09T07:56:51Z</time>
      </trkpt>
      <trkpt lat="47.543148" lon="2.2289402">
        <ele>176</ele>
        <time>2022-06-09T07:56:52Z</time>
      </trkpt>
      <trkpt lat="47.543137" lon="2.2289274">
        <ele>176</ele>
        <time>2022-06-09T07:56:53Z</time>
      </trkpt>
      <trkpt lat="47.543133" lon="2.2289064">
        <ele>177</ele>
        <time>2022-06-09T07:56:54Z</time>
      </trkpt>
      <trkpt lat="47.54312" lon="2.2288868">
        <ele>177</ele>
        <time>2022-06-09T07:56:55Z</time>
      </trkpt>
      <trkpt lat="47.543118" lon="2.2288668">
        <ele>177</ele>
        <time>2022-06-09T07:56:56Z</time>
      </trkpt>
      <trkpt lat="47.543114" lon="2.2288501">
        <ele>177</ele>
        <time>2022-06-09T07:56:57Z</time>
      </trkpt>
      <trkpt lat="47.54311" lon="2.2288308">
        <ele>177</ele>
        <time>2022-06-09T07:56:58Z</time>
      </trkpt>
      <trkpt lat="47.543102" lon="2.228812">
        <ele>177</ele>
        <time>2022-06-09T07:56:59Z</time>
      </trkpt>
      <trkpt lat="47.5431" lon="2.228791">
        <ele>177</ele>
        <time>2022-06-09T07:57:00Z</time>
      </trkpt>
      <trkpt lat="47.54309" lon="2.2287712">
        <ele>177</ele>
        <time>2022-06-09T07:57:01Z</time>
      </trkpt>
      <trkpt lat="47.54308" lon="2.228752">
        <ele>177</ele>
        <time>2022-06-09T07:57:02Z</time>
      </trkpt>
      <trkpt lat="47.54307" lon="2.2287283">
        <ele>177</ele>
        <time>2022-06-09T07:57:03Z</time>
      </trkpt>
      <trkpt lat="47.543068" lon="2.228706">
        <ele>177</ele>
        <time>2022-06-09T07:57:04Z</time>
      </trkpt>
      <trkpt lat="47.54306" lon="2.2286856">
        <ele>177</ele>
        <time>2022-06-09T07:57:05Z</time>
      </trkpt>
      <trkpt lat="47.543053" lon="2.2286646">
        <ele>177</ele>
        <time>2022-06-09T07:57:06Z</time>
      </trkpt>
      <trkpt lat="47.54305" lon="2.228646">
        <ele>177</ele>
        <time>2022-06-09T07:57:07Z</time>
      </trkpt>
      <trkpt lat="47.543045" lon="2.2286263">
        <ele>177</ele>
        <time>2022-06-09T07:57:08Z</time>
      </trkpt>
      <trkpt lat="47.54304" lon="2.228607">
        <ele>178</ele>
        <time>2022-06-09T07:57:09Z</time>
      </trkpt>
      <trkpt lat="47.543034" lon="2.2285929">
        <ele>178</ele>
        <time>2022-06-09T07:57:10Z</time>
      </trkpt>
      <trkpt lat="47.543026" lon="2.2285752">
        <ele>178</ele>
        <time>2022-06-09T07:57:11Z</time>
      </trkpt>
      <trkpt lat="47.543022" lon="2.2285593">
        <ele>178</ele>
        <time>2022-06-09T07:57:12Z</time>
      </trkpt>
      <trkpt lat="47.54301" lon="2.228539">
        <ele>178</ele>
        <time>2022-06-09T07:57:13Z</time>
      </trkpt>
      <trkpt lat="47.543007" lon="2.228525">
        <ele>178</ele>
        <time>2022-06-09T07:57:14Z</time>
      </trkpt>
      <trkpt lat="47.543" lon="2.2285085">
        <ele>179</ele>
        <time>2022-06-09T07:57:15Z</time>
      </trkpt>
      <trkpt lat="47.54299" lon="2.2284899">
        <ele>178</ele>
        <time>2022-06-09T07:57:16Z</time>
      </trkpt>
      <trkpt lat="47.54298" lon="2.2284715">
        <ele>178</ele>
        <time>2022-06-09T07:57:17Z</time>
      </trkpt>
      <trkpt lat="47.54297" lon="2.2284517">
        <ele>179</ele>
        <time>2022-06-09T07:57:18Z</time>
      </trkpt>
      <trkpt lat="47.542965" lon="2.2284317">
        <ele>179</ele>
        <time>2022-06-09T07:57:19Z</time>
      </trkpt>
      <trkpt lat="47.542957" lon="2.2284153">
        <ele>179</ele>
        <time>2022-06-09T07:57:20Z</time>
      </trkpt>
      <trkpt lat="47.542953" lon="2.228395">
        <ele>179</ele>
        <time>2022-06-09T07:57:21Z</time>
      </trkpt>
      <trkpt lat="47.542946" lon="2.2283757">
        <ele>179</ele>
        <time>2022-06-09T07:57:22Z</time>
      </trkpt>
      <trkpt lat="47.542942" lon="2.2283537">
        <ele>178</ele>
        <time>2022-06-09T07:57:23Z</time>
      </trkpt>
      <trkpt lat="47.542934" lon="2.2283332">
        <ele>179</ele>
        <time>2022-06-09T07:57:24Z</time>
      </trkpt>
      <trkpt lat="47.54293" lon="2.2283156">
        <ele>178</ele>
        <time>2022-06-09T07:57:25Z</time>
      </trkpt>
      <trkpt lat="47.542927" lon="2.2282946">
        <ele>178</ele>
        <time>2022-06-09T07:57:26Z</time>
      </trkpt>
      <trkpt lat="47.542927" lon="2.228278">
        <ele>178</ele>
        <time>2022-06-09T07:57:27Z</time>
      </trkpt>
      <trkpt lat="47.54292" lon="2.2282577">
        <ele>178</ele>
        <time>2022-06-09T07:57:28Z</time>
      </trkpt>
      <trkpt lat="47.54291" lon="2.2282403">
        <ele>178</ele>
        <time>2022-06-09T07:57:29Z</time>
      </trkpt>
      <trkpt lat="47.542904" lon="2.2282233">
        <ele>179</ele>
        <time>2022-06-09T07:57:30Z</time>
      </trkpt>
      <trkpt lat="47.5429" lon="2.228205">
        <ele>179</ele>
        <time>2022-06-09T07:57:31Z</time>
      </trkpt>
      <trkpt lat="47.542892" lon="2.228181">
        <ele>179</ele>
        <time>2022-06-09T07:57:32Z</time>
      </trkpt>
      <trkpt lat="47.54289" lon="2.2281556">
        <ele>178</ele>
        <time>2022-06-09T07:57:33Z</time>
      </trkpt>
      <trkpt lat="47.54288" lon="2.2281325">
        <ele>178</ele>
        <time>2022-06-09T07:57:34Z</time>
      </trkpt>
      <trkpt lat="47.542877" lon="2.228112">
        <ele>178</ele>
        <time>2022-06-09T07:57:35Z</time>
      </trkpt>
      <trkpt lat="47.542873" lon="2.2280943">
        <ele>178</ele>
        <time>2022-06-09T07:57:36Z</time>
      </trkpt>
      <trkpt lat="47.542866" lon="2.2280743">
        <ele>178</ele>
        <time>2022-06-09T07:57:37Z</time>
      </trkpt>
      <trkpt lat="47.542866" lon="2.2280633">
        <ele>179</ele>
        <time>2022-06-09T07:57:38Z</time>
      </trkpt>
      <trkpt lat="47.54286" lon="2.2280455">
        <ele>178</ele>
        <time>2022-06-09T07:57:39Z</time>
      </trkpt>
      <trkpt lat="47.54286" lon="2.2280278">
        <ele>178</ele>
        <time>2022-06-09T07:57:40Z</time>
      </trkpt>
      <trkpt lat="47.542854" lon="2.228006">
        <ele>179</ele>
        <time>2022-06-09T07:57:41Z</time>
      </trkpt>
      <trkpt lat="47.542847" lon="2.2279809">
        <ele>178</ele>
        <time>2022-06-09T07:57:42Z</time>
      </trkpt>
      <trkpt lat="47.542847" lon="2.2279606">
        <ele>178</ele>
        <time>2022-06-09T07:57:43Z</time>
      </trkpt>
      <trkpt lat="47.54284" lon="2.227941">
        <ele>178</ele>
        <time>2022-06-09T07:57:44Z</time>
      </trkpt>
      <trkpt lat="47.542835" lon="2.2279198">
        <ele>178</ele>
        <time>2022-06-09T07:57:45Z</time>
      </trkpt>
      <trkpt lat="47.54283" lon="2.227899">
        <ele>179</ele>
        <time>2022-06-09T07:57:46Z</time>
      </trkpt>
      <trkpt lat="47.542828" lon="2.2278812">
        <ele>179</ele>
        <time>2022-06-09T07:57:47Z</time>
      </trkpt>
      <trkpt lat="47.542824" lon="2.2278626">
        <ele>179</ele>
        <time>2022-06-09T07:57:48Z</time>
      </trkpt>
      <trkpt lat="47.54282" lon="2.227843">
        <ele>178</ele>
        <time>2022-06-09T07:57:49Z</time>
      </trkpt>
      <trkpt lat="47.542812" lon="2.2278254">
        <ele>178</ele>
        <time>2022-06-09T07:57:50Z</time>
      </trkpt>
      <trkpt lat="47.54281" lon="2.2278032">
        <ele>178</ele>
        <time>2022-06-09T07:57:51Z</time>
      </trkpt>
      <trkpt lat="47.542805" lon="2.2277815">
        <ele>178</ele>
        <time>2022-06-09T07:57:52Z</time>
      </trkpt>
      <trkpt lat="47.5428" lon="2.227763">
        <ele>178</ele>
        <time>2022-06-09T07:57:53Z</time>
      </trkpt>
      <trkpt lat="47.542797" lon="2.227745">
        <ele>178</ele>
        <time>2022-06-09T07:57:54Z</time>
      </trkpt>
      <trkpt lat="47.542793" lon="2.2277236">
        <ele>178</ele>
        <time>2022-06-09T07:57:55Z</time>
      </trkpt>
      <trkpt lat="47.542786" lon="2.2277005">
        <ele>178</ele>
        <time>2022-06-09T07:57:56Z</time>
      </trkpt>
      <trkpt lat="47.54278" lon="2.2276807">
        <ele>178</ele>
        <time>2022-06-09T07:57:57Z</time>
      </trkpt>
      <trkpt lat="47.542778" lon="2.2276611">
        <ele>178</ele>
        <time>2022-06-09T07:57:58Z</time>
      </trkpt>
      <trkpt lat="47.542774" lon="2.2276418">
        <ele>178</ele>
        <time>2022-06-09T07:57:59Z</time>
      </trkpt>
      <trkpt lat="47.54277" lon="2.2276204">
        <ele>178</ele>
        <time>2022-06-09T07:58:00Z</time>
      </trkpt>
      <trkpt lat="47.542767" lon="2.2276003">
        <ele>178</ele>
        <time>2022-06-09T07:58:01Z</time>
      </trkpt>
      <trkpt lat="47.54276" lon="2.2275786">
        <ele>179</ele>
        <time>2022-06-09T07:58:02Z</time>
      </trkpt>
      <trkpt lat="47.542755" lon="2.227564">
        <ele>179</ele>
        <time>2022-06-09T07:58:03Z</time>
      </trkpt>
      <trkpt lat="47.54275" lon="2.2275443">
        <ele>178</ele>
        <time>2022-06-09T07:58:04Z</time>
      </trkpt>
      <trkpt lat="47.542744" lon="2.2275224">
        <ele>177</ele>
        <time>2022-06-09T07:58:05Z</time>
      </trkpt>
      <trkpt lat="47.542744" lon="2.2275019">
        <ele>177</ele>
        <time>2022-06-09T07:58:06Z</time>
      </trkpt>
      <trkpt lat="47.54274" lon="2.2274804">
        <ele>177</ele>
        <time>2022-06-09T07:58:07Z</time>
      </trkpt>
      <trkpt lat="47.54274" lon="2.2274594">
        <ele>178</ele>
        <time>2022-06-09T07:58:08Z</time>
      </trkpt>
      <trkpt lat="47.542732" lon="2.2274334">
        <ele>178</ele>
        <time>2022-06-09T07:58:09Z</time>
      </trkpt>
      <trkpt lat="47.54273" lon="2.2274127">
        <ele>178</ele>
        <time>2022-06-09T07:58:10Z</time>
      </trkpt>
      <trkpt lat="47.54273" lon="2.2273936">
        <ele>178</ele>
        <time>2022-06-09T07:58:11Z</time>
      </trkpt>
      <trkpt lat="47.542725" lon="2.2273738">
        <ele>178</ele>
        <time>2022-06-09T07:58:12Z</time>
      </trkpt>
      <trkpt lat="47.54272" lon="2.2273533">
        <ele>178</ele>
        <time>2022-06-09T07:58:13Z</time>
      </trkpt>
      <trkpt lat="47.542717" lon="2.2273374">
        <ele>178</ele>
        <time>2022-06-09T07:58:14Z</time>
      </trkpt>
      <trkpt lat="47.54271" lon="2.22732">
        <ele>178</ele>
        <time>2022-06-09T07:58:15Z</time>
      </trkpt>
      <trkpt lat="47.54271" lon="2.2273035">
        <ele>178</ele>
        <time>2022-06-09T07:58:16Z</time>
      </trkpt>
      <trkpt lat="47.54271" lon="2.2272885">
        <ele>178</ele>
        <time>2022-06-09T07:58:17Z</time>
      </trkpt>
      <trkpt lat="47.54271" lon="2.2272758">
        <ele>178</ele>
        <time>2022-06-09T07:58:18Z</time>
      </trkpt>
      <trkpt lat="47.54271" lon="2.2272656">
        <ele>178</ele>
        <time>2022-06-09T07:58:19Z</time>
      </trkpt>
      <trkpt lat="47.54271" lon="2.2272623">
        <ele>178</ele>
        <time>2022-06-09T07:58:20Z</time>
      </trkpt>
      <trkpt lat="47.54271" lon="2.2272625">
        <ele>178</ele>
        <time>2022-06-09T07:58:21Z</time>
      </trkpt>
      <trkpt lat="47.54271" lon="2.2272625">
        <ele>178</ele>
        <time>2022-06-09T07:58:22Z</time>
      </trkpt>
      <trkpt lat="47.54271" lon="2.2272625">
        <ele>178</ele>
        <time>2022-06-09T07:58:23Z</time>
      </trkpt>
      <trkpt lat="47.54271" lon="2.2272625">
        <ele>178</ele>
        <time>2022-06-09T07:58:23Z</time>
      </trkpt>
      <trkpt lat="47.54271" lon="2.2272625">
        <ele>178</ele>
        <time>2022-06-09T07:58:23Z</time>
      </trkpt>
      <trkpt lat="47.54271" lon="2.227153">
        <ele>180</ele>
        <time>2022-06-09T07:59:03Z</time>
      </trkpt>
      <trkpt lat="47.54271" lon="2.2271364">
        <ele>180</ele>
        <time>2022-06-09T07:59:04Z</time>
      </trkpt>
      <trkpt lat="47.54271" lon="2.2271256">
        <ele>180</ele>
        <time>2022-06-09T07:59:05Z</time>
      </trkpt>
      <trkpt lat="47.54271" lon="2.2271166">
        <ele>180</ele>
        <time>2022-06-09T07:59:06Z</time>
      </trkpt>
      <trkpt lat="47.542706" lon="2.227107">
        <ele>179</ele>
        <time>2022-06-09T07:59:07Z</time>
      </trkpt>
      <trkpt lat="47.542698" lon="2.2270977">
        <ele>180</ele>
        <time>2022-06-09T07:59:08Z</time>
      </trkpt>
      <trkpt lat="47.542694" lon="2.2270865">
        <ele>180</ele>
        <time>2022-06-09T07:59:09Z</time>
      </trkpt>
      <trkpt lat="47.54269" lon="2.22708">
        <ele>180</ele>
        <time>2022-06-09T07:59:10Z</time>
      </trkpt>
      <trkpt lat="47.542683" lon="2.22708">
        <ele>180</ele>
        <time>2022-06-09T07:59:11Z</time>
      </trkpt>
      <trkpt lat="47.542686" lon="2.2270744">
        <ele>181</ele>
        <time>2022-06-09T07:59:12Z</time>
      </trkpt>
      <trkpt lat="47.542686" lon="2.2270749">
        <ele>181</ele>
        <time>2022-06-09T07:59:13Z</time>
      </trkpt>
      <trkpt lat="47.542686" lon="2.2270749">
        <ele>181</ele>
        <time>2022-06-09T07:59:14Z</time>
      </trkpt>
      <trkpt lat="47.542686" lon="2.2270749">
        <ele>181</ele>
        <time>2022-06-09T07:59:14Z</time>
      </trkpt>
      <trkpt lat="47.542686" lon="2.2270749">
        <ele>181</ele>
        <time>2022-06-09T07:59:14Z</time>
      </trkpt>
      <trkpt lat="47.54263" lon="2.2270622">
        <ele>178</ele>
        <time>2022-06-09T07:59:52Z</time>
      </trkpt>
      <trkpt lat="47.542625" lon="2.2270613">
        <ele>178</ele>
        <time>2022-06-09T07:59:53Z</time>
      </trkpt>
      <trkpt lat="47.54262" lon="2.2270622">
        <ele>179</ele>
        <time>2022-06-09T07:59:54Z</time>
      </trkpt>
      <trkpt lat="47.54262" lon="2.2270598">
        <ele>180</ele>
        <time>2022-06-09T07:59:55Z</time>
      </trkpt>
      <trkpt lat="47.54262" lon="2.2270598">
        <ele>180</ele>
        <time>2022-06-09T07:59:55Z</time>
      </trkpt>
      <trkpt lat="47.54262" lon="2.2270598">
        <ele>180</ele>
        <time>2022-06-09T07:59:55Z</time>
      </trkpt>
      <trkpt lat="47.542645" lon="2.2270184">
        <ele>182</ele>
        <time>2022-06-09T08:01:09Z</time>
      </trkpt>
      <trkpt lat="47.54264" lon="2.2270079">
        <ele>181</ele>
        <time>2022-06-09T08:01:10Z</time>
      </trkpt>
      <trkpt lat="47.542637" lon="2.2270017">
        <ele>181</ele>
        <time>2022-06-09T08:01:11Z</time>
      </trkpt>
      <trkpt lat="47.54264" lon="2.2269907">
        <ele>181</ele>
        <time>2022-06-09T08:01:12Z</time>
      </trkpt>
      <trkpt lat="47.54264" lon="2.2269812">
        <ele>181</ele>
        <time>2022-06-09T08:01:13Z</time>
      </trkpt>
      <trkpt lat="47.54264" lon="2.226975">
        <ele>181</ele>
        <time>2022-06-09T08:01:14Z</time>
      </trkpt>
      <trkpt lat="47.54264" lon="2.2269745">
        <ele>181</ele>
        <time>2022-06-09T08:01:15Z</time>
      </trkpt>
      <trkpt lat="47.54264" lon="2.2269742">
        <ele>180</ele>
        <time>2022-06-09T08:01:16Z</time>
      </trkpt>
      <trkpt lat="47.54264" lon="2.2269661">
        <ele>180</ele>
        <time>2022-06-09T08:01:17Z</time>
      </trkpt>
      <trkpt lat="47.54264" lon="2.2269545">
        <ele>180</ele>
        <time>2022-06-09T08:01:18Z</time>
      </trkpt>
      <trkpt lat="47.54264" lon="2.2269435">
        <ele>179</ele>
        <time>2022-06-09T08:01:19Z</time>
      </trkpt>
      <trkpt lat="47.542637" lon="2.226931">
        <ele>180</ele>
        <time>2022-06-09T08:01:20Z</time>
      </trkpt>
      <trkpt lat="47.542637" lon="2.2269173">
        <ele>180</ele>
        <time>2022-06-09T08:01:21Z</time>
      </trkpt>
      <trkpt lat="47.54263" lon="2.2269046">
        <ele>180</ele>
        <time>2022-06-09T08:01:22Z</time>
      </trkpt>
      <trkpt lat="47.54262" lon="2.2268925">
        <ele>180</ele>
        <time>2022-06-09T08:01:23Z</time>
      </trkpt>
      <trkpt lat="47.542618" lon="2.2268775">
        <ele>180</ele>
        <time>2022-06-09T08:01:24Z</time>
      </trkpt>
      <trkpt lat="47.54261" lon="2.2268608">
        <ele>180</ele>
        <time>2022-06-09T08:01:25Z</time>
      </trkpt>
      <trkpt lat="47.542603" lon="2.226844">
        <ele>180</ele>
        <time>2022-06-09T08:01:26Z</time>
      </trkpt>
      <trkpt lat="47.542603" lon="2.2268283">
        <ele>180</ele>
        <time>2022-06-09T08:01:27Z</time>
      </trkpt>
      <trkpt lat="47.5426" lon="2.226816">
        <ele>180</ele>
        <time>2022-06-09T08:01:28Z</time>
      </trkpt>
      <trkpt lat="47.542595" lon="2.2268116">
        <ele>180</ele>
        <time>2022-06-09T08:01:29Z</time>
      </trkpt>
      <trkpt lat="47.54259" lon="2.2268066">
        <ele>180</ele>
        <time>2022-06-09T08:01:30Z</time>
      </trkpt>
      <trkpt lat="47.54259" lon="2.2268064">
        <ele>180</ele>
        <time>2022-06-09T08:01:31Z</time>
      </trkpt>
      <trkpt lat="47.542587" lon="2.2268097">
        <ele>179</ele>
        <time>2022-06-09T08:01:32Z</time>
      </trkpt>
      <trkpt lat="47.542587" lon="2.2268097">
        <ele>179</ele>
        <time>2022-06-09T08:01:32Z</time>
      </trkpt>
      <trkpt lat="47.542587" lon="2.2268097">
        <ele>179</ele>
        <time>2022-06-09T08:01:32Z</time>
      </trkpt>
      <trkpt lat="47.54259" lon="2.2267447">
        <ele>179</ele>
        <time>2022-06-09T08:01:39Z</time>
      </trkpt>
      <trkpt lat="47.542595" lon="2.2267275">
        <ele>179</ele>
        <time>2022-06-09T08:01:40Z</time>
      </trkpt>
      <trkpt lat="47.5426" lon="2.2267091">
        <ele>179</ele>
        <time>2022-06-09T08:01:41Z</time>
      </trkpt>
      <trkpt lat="47.5426" lon="2.2266946">
        <ele>179</ele>
        <time>2022-06-09T08:01:42Z</time>
      </trkpt>
      <trkpt lat="47.5426" lon="2.2266781">
        <ele>178</ele>
        <time>2022-06-09T08:01:43Z</time>
      </trkpt>
      <trkpt lat="47.542595" lon="2.2266626">
        <ele>178</ele>
        <time>2022-06-09T08:01:44Z</time>
      </trkpt>
      <trkpt lat="47.54259" lon="2.2266452">
        <ele>178</ele>
        <time>2022-06-09T08:01:45Z</time>
      </trkpt>
      <trkpt lat="47.542587" lon="2.2266264">
        <ele>178</ele>
        <time>2022-06-09T08:01:46Z</time>
      </trkpt>
      <trkpt lat="47.542583" lon="2.226613">
        <ele>178</ele>
        <time>2022-06-09T08:01:47Z</time>
      </trkpt>
      <trkpt lat="47.542583" lon="2.2266004">
        <ele>178</ele>
        <time>2022-06-09T08:01:48Z</time>
      </trkpt>
      <trkpt lat="47.542576" lon="2.226584">
        <ele>179</ele>
        <time>2022-06-09T08:01:49Z</time>
      </trkpt>
      <trkpt lat="47.542572" lon="2.2265656">
        <ele>179</ele>
        <time>2022-06-09T08:01:50Z</time>
      </trkpt>
      <trkpt lat="47.54257" lon="2.226548">
        <ele>179</ele>
        <time>2022-06-09T08:01:51Z</time>
      </trkpt>
      <trkpt lat="47.542564" lon="2.2265296">
        <ele>180</ele>
        <time>2022-06-09T08:01:52Z</time>
      </trkpt>
      <trkpt lat="47.542564" lon="2.2265148">
        <ele>180</ele>
        <time>2022-06-09T08:01:53Z</time>
      </trkpt>
      <trkpt lat="47.54256" lon="2.226498">
        <ele>180</ele>
        <time>2022-06-09T08:01:54Z</time>
      </trkpt>
      <trkpt lat="47.542557" lon="2.2264776">
        <ele>179</ele>
        <time>2022-06-09T08:01:55Z</time>
      </trkpt>
      <trkpt lat="47.542553" lon="2.2264597">
        <ele>179</ele>
        <time>2022-06-09T08:01:56Z</time>
      </trkpt>
      <trkpt lat="47.54255" lon="2.2264411">
        <ele>179</ele>
        <time>2022-06-09T08:01:57Z</time>
      </trkpt>
      <trkpt lat="47.54255" lon="2.2264256">
        <ele>179</ele>
        <time>2022-06-09T08:01:58Z</time>
      </trkpt>
      <trkpt lat="47.54255" lon="2.2264066">
        <ele>179</ele>
        <time>2022-06-09T08:01:59Z</time>
      </trkpt>
      <trkpt lat="47.54254" lon="2.2263882">
        <ele>179</ele>
        <time>2022-06-09T08:02:00Z</time>
      </trkpt>
      <trkpt lat="47.542538" lon="2.226375">
        <ele>179</ele>
        <time>2022-06-09T08:02:01Z</time>
      </trkpt>
      <trkpt lat="47.542534" lon="2.226368">
        <ele>179</ele>
        <time>2022-06-09T08:02:02Z</time>
      </trkpt>
      <trkpt lat="47.542534" lon="2.2263706">
        <ele>179</ele>
        <time>2022-06-09T08:02:03Z</time>
      </trkpt>
      <trkpt lat="47.542534" lon="2.2263708">
        <ele>179</ele>
        <time>2022-06-09T08:02:04Z</time>
      </trkpt>
      <trkpt lat="47.54253" lon="2.2263677">
        <ele>179</ele>
        <time>2022-06-09T08:02:05Z</time>
      </trkpt>
      <trkpt lat="47.54253" lon="2.2263677">
        <ele>179</ele>
        <time>2022-06-09T08:02:05Z</time>
      </trkpt>
      <trkpt lat="47.54253" lon="2.2263677">
        <ele>179</ele>
        <time>2022-06-09T08:02:05Z</time>
      </trkpt>
      <trkpt lat="47.542522" lon="2.2262857">
        <ele>180</ele>
        <time>2022-06-09T08:02:11Z</time>
      </trkpt>
      <trkpt lat="47.54252" lon="2.2262676">
        <ele>180</ele>
        <time>2022-06-09T08:02:12Z</time>
      </trkpt>
      <trkpt lat="47.542515" lon="2.226249">
        <ele>179</ele>
        <time>2022-06-09T08:02:13Z</time>
      </trkpt>
      <trkpt lat="47.542515" lon="2.226234">
        <ele>179</ele>
        <time>2022-06-09T08:02:14Z</time>
      </trkpt>
      <trkpt lat="47.54251" lon="2.226217">
        <ele>179</ele>
        <time>2022-06-09T08:02:15Z</time>
      </trkpt>
      <trkpt lat="47.542507" lon="2.2262046">
        <ele>179</ele>
        <time>2022-06-09T08:02:16Z</time>
      </trkpt>
      <trkpt lat="47.542503" lon="2.226189">
        <ele>179</ele>
        <time>2022-06-09T08:02:17Z</time>
      </trkpt>
      <trkpt lat="47.5425" lon="2.226175">
        <ele>179</ele>
        <time>2022-06-09T08:02:18Z</time>
      </trkpt>
      <trkpt lat="47.542496" lon="2.2261586">
        <ele>179</ele>
        <time>2022-06-09T08:02:19Z</time>
      </trkpt>
      <trkpt lat="47.542492" lon="2.2261436">
        <ele>179</ele>
        <time>2022-06-09T08:02:20Z</time>
      </trkpt>
      <trkpt lat="47.54249" lon="2.2261295">
        <ele>178</ele>
        <time>2022-06-09T08:02:21Z</time>
      </trkpt>
      <trkpt lat="47.542484" lon="2.2261186">
        <ele>178</ele>
        <time>2022-06-09T08:02:22Z</time>
      </trkpt>
      <trkpt lat="47.542484" lon="2.2261155">
        <ele>178</ele>
        <time>2022-06-09T08:02:23Z</time>
      </trkpt>
      <trkpt lat="47.54249" lon="2.226109">
        <ele>179</ele>
        <time>2022-06-09T08:02:24Z</time>
      </trkpt>
      <trkpt lat="47.54249" lon="2.226098">
        <ele>179</ele>
        <time>2022-06-09T08:02:25Z</time>
      </trkpt>
      <trkpt lat="47.542484" lon="2.226083">
        <ele>178</ele>
        <time>2022-06-09T08:02:26Z</time>
      </trkpt>
      <trkpt lat="47.542484" lon="2.2260644">
        <ele>178</ele>
        <time>2022-06-09T08:02:27Z</time>
      </trkpt>
      <trkpt lat="47.542477" lon="2.2260444">
        <ele>177</ele>
        <time>2022-06-09T08:02:28Z</time>
      </trkpt>
      <trkpt lat="47.54247" lon="2.226022">
        <ele>177</ele>
        <time>2022-06-09T08:02:29Z</time>
      </trkpt>
      <trkpt lat="47.542465" lon="2.226">
        <ele>177</ele>
        <time>2022-06-09T08:02:30Z</time>
      </trkpt>
      <trkpt lat="47.542465" lon="2.22598">
        <ele>178</ele>
        <time>2022-06-09T08:02:31Z</time>
      </trkpt>
      <trkpt lat="47.54246" lon="2.2259588">
        <ele>178</ele>
        <time>2022-06-09T08:02:32Z</time>
      </trkpt>
      <trkpt lat="47.542458" lon="2.2259448">
        <ele>178</ele>
        <time>2022-06-09T08:02:33Z</time>
      </trkpt>
      <trkpt lat="47.542454" lon="2.2259283">
        <ele>178</ele>
        <time>2022-06-09T08:02:34Z</time>
      </trkpt>
      <trkpt lat="47.54245" lon="2.225907">
        <ele>178</ele>
        <time>2022-06-09T08:02:35Z</time>
      </trkpt>
      <trkpt lat="47.542446" lon="2.2258832">
        <ele>178</ele>
        <time>2022-06-09T08:02:36Z</time>
      </trkpt>
      <trkpt lat="47.542446" lon="2.225863">
        <ele>178</ele>
        <time>2022-06-09T08:02:37Z</time>
      </trkpt>
      <trkpt lat="47.54245" lon="2.2258472">
        <ele>177</ele>
        <time>2022-06-09T08:02:38Z</time>
      </trkpt>
      <trkpt lat="47.542454" lon="2.2258298">
        <ele>177</ele>
        <time>2022-06-09T08:02:39Z</time>
      </trkpt>
      <trkpt lat="47.542454" lon="2.2258165">
        <ele>176</ele>
        <time>2022-06-09T08:02:40Z</time>
      </trkpt>
      <trkpt lat="47.542454" lon="2.2257984">
        <ele>177</ele>
        <time>2022-06-09T08:02:41Z</time>
      </trkpt>
      <trkpt lat="47.54245" lon="2.2257833">
        <ele>177</ele>
        <time>2022-06-09T08:02:42Z</time>
      </trkpt>
      <trkpt lat="47.54245" lon="2.2257702">
        <ele>177</ele>
        <time>2022-06-09T08:02:43Z</time>
      </trkpt>
      <trkpt lat="47.54245" lon="2.2257545">
        <ele>177</ele>
        <time>2022-06-09T08:02:44Z</time>
      </trkpt>
      <trkpt lat="47.54245" lon="2.2257385">
        <ele>177</ele>
        <time>2022-06-09T08:02:45Z</time>
      </trkpt>
      <trkpt lat="47.54245" lon="2.2257228">
        <ele>177</ele>
        <time>2022-06-09T08:02:46Z</time>
      </trkpt>
      <trkpt lat="47.54245" lon="2.2257102">
        <ele>177</ele>
        <time>2022-06-09T08:02:47Z</time>
      </trkpt>
      <trkpt lat="47.542454" lon="2.225695">
        <ele>176</ele>
        <time>2022-06-09T08:02:48Z</time>
      </trkpt>
      <trkpt lat="47.542454" lon="2.2256835">
        <ele>176</ele>
        <time>2022-06-09T08:02:49Z</time>
      </trkpt>
      <trkpt lat="47.542454" lon="2.225668">
        <ele>176</ele>
        <time>2022-06-09T08:02:50Z</time>
      </trkpt>
      <trkpt lat="47.542458" lon="2.225654">
        <ele>176</ele>
        <time>2022-06-09T08:02:51Z</time>
      </trkpt>
      <trkpt lat="47.542454" lon="2.225638">
        <ele>177</ele>
        <time>2022-06-09T08:02:52Z</time>
      </trkpt>
      <trkpt lat="47.542454" lon="2.2256203">
        <ele>177</ele>
        <time>2022-06-09T08:02:53Z</time>
      </trkpt>
      <trkpt lat="47.54245" lon="2.2256017">
        <ele>177</ele>
        <time>2022-06-09T08:02:54Z</time>
      </trkpt>
      <trkpt lat="47.54245" lon="2.2255855">
        <ele>176</ele>
        <time>2022-06-09T08:02:55Z</time>
      </trkpt>
      <trkpt lat="47.54245" lon="2.2255726">
        <ele>176</ele>
        <time>2022-06-09T08:02:56Z</time>
      </trkpt>
      <trkpt lat="47.54245" lon="2.225558">
        <ele>176</ele>
        <time>2022-06-09T08:02:57Z</time>
      </trkpt>
      <trkpt lat="47.54245" lon="2.2255392">
        <ele>177</ele>
        <time>2022-06-09T08:02:58Z</time>
      </trkpt>
      <trkpt lat="47.542446" lon="2.2255168">
        <ele>177</ele>
        <time>2022-06-09T08:02:59Z</time>
      </trkpt>
      <trkpt lat="47.542442" lon="2.2254913">
        <ele>177</ele>
        <time>2022-06-09T08:03:00Z</time>
      </trkpt>
      <trkpt lat="47.542435" lon="2.2254653">
        <ele>178</ele>
        <time>2022-06-09T08:03:01Z</time>
      </trkpt>
      <trkpt lat="47.54243" lon="2.225438">
        <ele>179</ele>
        <time>2022-06-09T08:03:02Z</time>
      </trkpt>
      <trkpt lat="47.542427" lon="2.2254152">
        <ele>179</ele>
        <time>2022-06-09T08:03:03Z</time>
      </trkpt>
      <trkpt lat="47.542423" lon="2.2253957">
        <ele>179</ele>
        <time>2022-06-09T08:03:04Z</time>
      </trkpt>
      <trkpt lat="47.542423" lon="2.2253768">
        <ele>179</ele>
        <time>2022-06-09T08:03:05Z</time>
      </trkpt>
      <trkpt lat="47.542423" lon="2.2253578">
        <ele>179</ele>
        <time>2022-06-09T08:03:06Z</time>
      </trkpt>
      <trkpt lat="47.54242" lon="2.22534">
        <ele>179</ele>
        <time>2022-06-09T08:03:07Z</time>
      </trkpt>
      <trkpt lat="47.54242" lon="2.225318">
        <ele>179</ele>
        <time>2022-06-09T08:03:08Z</time>
      </trkpt>
      <trkpt lat="47.54242" lon="2.2252984">
        <ele>179</ele>
        <time>2022-06-09T08:03:09Z</time>
      </trkpt>
      <trkpt lat="47.542416" lon="2.2252736">
        <ele>179</ele>
        <time>2022-06-09T08:03:10Z</time>
      </trkpt>
      <trkpt lat="47.54241" lon="2.2252514">
        <ele>179</ele>
        <time>2022-06-09T08:03:11Z</time>
      </trkpt>
      <trkpt lat="47.54241" lon="2.2252297">
        <ele>179</ele>
        <time>2022-06-09T08:03:12Z</time>
      </trkpt>
      <trkpt lat="47.542408" lon="2.2252092">
        <ele>179</ele>
        <time>2022-06-09T08:03:13Z</time>
      </trkpt>
      <trkpt lat="47.542408" lon="2.2251887">
        <ele>179</ele>
        <time>2022-06-09T08:03:14Z</time>
      </trkpt>
      <trkpt lat="47.542404" lon="2.225173">
        <ele>179</ele>
        <time>2022-06-09T08:03:15Z</time>
      </trkpt>
      <trkpt lat="47.5424" lon="2.2251604">
        <ele>179</ele>
        <time>2022-06-09T08:03:16Z</time>
      </trkpt>
      <trkpt lat="47.542397" lon="2.2251449">
        <ele>179</ele>
        <time>2022-06-09T08:03:17Z</time>
      </trkpt>
      <trkpt lat="47.542397" lon="2.2251294">
        <ele>178</ele>
        <time>2022-06-09T08:03:18Z</time>
      </trkpt>
      <trkpt lat="47.542393" lon="2.2251155">
        <ele>179</ele>
        <time>2022-06-09T08:03:19Z</time>
      </trkpt>
      <trkpt lat="47.542393" lon="2.2250977">
        <ele>178</ele>
        <time>2022-06-09T08:03:20Z</time>
      </trkpt>
      <trkpt lat="47.54239" lon="2.2250774">
        <ele>179</ele>
        <time>2022-06-09T08:03:21Z</time>
      </trkpt>
      <trkpt lat="47.54239" lon="2.2250566">
        <ele>179</ele>
        <time>2022-06-09T08:03:22Z</time>
      </trkpt>
      <trkpt lat="47.54238" lon="2.2250369">
        <ele>179</ele>
        <time>2022-06-09T08:03:23Z</time>
      </trkpt>
      <trkpt lat="47.542374" lon="2.2250195">
        <ele>180</ele>
        <time>2022-06-09T08:03:24Z</time>
      </trkpt>
      <trkpt lat="47.54237" lon="2.224998">
        <ele>180</ele>
        <time>2022-06-09T08:03:25Z</time>
      </trkpt>
      <trkpt lat="47.54237" lon="2.2249768">
        <ele>180</ele>
        <time>2022-06-09T08:03:26Z</time>
      </trkpt>
      <trkpt lat="47.542366" lon="2.224958">
        <ele>180</ele>
        <time>2022-06-09T08:03:27Z</time>
      </trkpt>
      <trkpt lat="47.54236" lon="2.2249417">
        <ele>179</ele>
        <time>2022-06-09T08:03:28Z</time>
      </trkpt>
      <trkpt lat="47.542355" lon="2.2249277">
        <ele>179</ele>
        <time>2022-06-09T08:03:29Z</time>
      </trkpt>
      <trkpt lat="47.54235" lon="2.2249124">
        <ele>179</ele>
        <time>2022-06-09T08:03:30Z</time>
      </trkpt>
      <trkpt lat="47.542347" lon="2.2248926">
        <ele>178</ele>
        <time>2022-06-09T08:03:31Z</time>
      </trkpt>
      <trkpt lat="47.542343" lon="2.2248712">
        <ele>178</ele>
        <time>2022-06-09T08:03:32Z</time>
      </trkpt>
      <trkpt lat="47.542336" lon="2.224851">
        <ele>178</ele>
        <time>2022-06-09T08:03:33Z</time>
      </trkpt>
      <trkpt lat="47.54233" lon="2.2248306">
        <ele>179</ele>
        <time>2022-06-09T08:03:34Z</time>
      </trkpt>
      <trkpt lat="47.542328" lon="2.22481">
        <ele>178</ele>
        <time>2022-06-09T08:03:35Z</time>
      </trkpt>
      <trkpt lat="47.542324" lon="2.2247894">
        <ele>178</ele>
        <time>2022-06-09T08:03:36Z</time>
      </trkpt>
      <trkpt lat="47.542324" lon="2.2247725">
        <ele>178</ele>
        <time>2022-06-09T08:03:37Z</time>
      </trkpt>
      <trkpt lat="47.54232" lon="2.224753">
        <ele>178</ele>
        <time>2022-06-09T08:03:38Z</time>
      </trkpt>
      <trkpt lat="47.54232" lon="2.2247336">
        <ele>178</ele>
        <time>2022-06-09T08:03:39Z</time>
      </trkpt>
      <trkpt lat="47.54232" lon="2.2247171">
        <ele>179</ele>
        <time>2022-06-09T08:03:40Z</time>
      </trkpt>
      <trkpt lat="47.542316" lon="2.224702">
        <ele>179</ele>
        <time>2022-06-09T08:03:41Z</time>
      </trkpt>
      <trkpt lat="47.542313" lon="2.2246902">
        <ele>179</ele>
        <time>2022-06-09T08:03:42Z</time>
      </trkpt>
      <trkpt lat="47.542313" lon="2.2246752">
        <ele>180</ele>
        <time>2022-06-09T08:03:43Z</time>
      </trkpt>
      <trkpt lat="47.54231" lon="2.2246573">
        <ele>180</ele>
        <time>2022-06-09T08:03:44Z</time>
      </trkpt>
      <trkpt lat="47.5423" lon="2.2246404">
        <ele>180</ele>
        <time>2022-06-09T08:03:45Z</time>
      </trkpt>
      <trkpt lat="47.542297" lon="2.2246284">
        <ele>180</ele>
        <time>2022-06-09T08:03:46Z</time>
      </trkpt>
      <trkpt lat="47.542294" lon="2.2246134">
        <ele>180</ele>
        <time>2022-06-09T08:03:47Z</time>
      </trkpt>
      <trkpt lat="47.54229" lon="2.2245965">
        <ele>179</ele>
        <time>2022-06-09T08:03:48Z</time>
      </trkpt>
      <trkpt lat="47.54229" lon="2.2245796">
        <ele>180</ele>
        <time>2022-06-09T08:03:49Z</time>
      </trkpt>
      <trkpt lat="47.542286" lon="2.2245615">
        <ele>180</ele>
        <time>2022-06-09T08:03:50Z</time>
      </trkpt>
      <trkpt lat="47.542286" lon="2.2245462">
        <ele>180</ele>
        <time>2022-06-09T08:03:51Z</time>
      </trkpt>
      <trkpt lat="47.54228" lon="2.2245286">
        <ele>179</ele>
        <time>2022-06-09T08:03:52Z</time>
      </trkpt>
      <trkpt lat="47.542274" lon="2.2245104">
        <ele>179</ele>
        <time>2022-06-09T08:03:53Z</time>
      </trkpt>
      <trkpt lat="47.54227" lon="2.224492">
        <ele>179</ele>
        <time>2022-06-09T08:03:54Z</time>
      </trkpt>
      <trkpt lat="47.542267" lon="2.224473">
        <ele>179</ele>
        <time>2022-06-09T08:03:55Z</time>
      </trkpt>
      <trkpt lat="47.542263" lon="2.224454">
        <ele>179</ele>
        <time>2022-06-09T08:03:56Z</time>
      </trkpt>
      <trkpt lat="47.54226" lon="2.2244341">
        <ele>178</ele>
        <time>2022-06-09T08:03:57Z</time>
      </trkpt>
      <trkpt lat="47.54226" lon="2.2244143">
        <ele>178</ele>
        <time>2022-06-09T08:03:58Z</time>
      </trkpt>
      <trkpt lat="47.542255" lon="2.2243936">
        <ele>178</ele>
        <time>2022-06-09T08:03:59Z</time>
      </trkpt>
      <trkpt lat="47.54225" lon="2.224374">
        <ele>178</ele>
        <time>2022-06-09T08:04:00Z</time>
      </trkpt>
      <trkpt lat="47.542248" lon="2.224354">
        <ele>178</ele>
        <time>2022-06-09T08:04:01Z</time>
      </trkpt>
      <trkpt lat="47.542244" lon="2.2243338">
        <ele>178</ele>
        <time>2022-06-09T08:04:02Z</time>
      </trkpt>
      <trkpt lat="47.542244" lon="2.224312">
        <ele>178</ele>
        <time>2022-06-09T08:04:03Z</time>
      </trkpt>
      <trkpt lat="47.54224" lon="2.2242882">
        <ele>178</ele>
        <time>2022-06-09T08:04:04Z</time>
      </trkpt>
      <trkpt lat="47.54224" lon="2.2242675">
        <ele>179</ele>
        <time>2022-06-09T08:04:05Z</time>
      </trkpt>
      <trkpt lat="47.542236" lon="2.2242446">
        <ele>179</ele>
        <time>2022-06-09T08:04:06Z</time>
      </trkpt>
      <trkpt lat="47.542233" lon="2.2242253">
        <ele>179</ele>
        <time>2022-06-09T08:04:07Z</time>
      </trkpt>
      <trkpt lat="47.54223" lon="2.2242074">
        <ele>179</ele>
        <time>2022-06-09T08:04:08Z</time>
      </trkpt>
      <trkpt lat="47.54223" lon="2.2241895">
        <ele>178</ele>
        <time>2022-06-09T08:04:09Z</time>
      </trkpt>
      <trkpt lat="47.54223" lon="2.2241726">
        <ele>179</ele>
        <time>2022-06-09T08:04:10Z</time>
      </trkpt>
      <trkpt lat="47.542225" lon="2.2241545">
        <ele>179</ele>
        <time>2022-06-09T08:04:11Z</time>
      </trkpt>
      <trkpt lat="47.54223" lon="2.224137">
        <ele>179</ele>
        <time>2022-06-09T08:04:12Z</time>
      </trkpt>
      <trkpt lat="47.542225" lon="2.2241175">
        <ele>179</ele>
        <time>2022-06-09T08:04:13Z</time>
      </trkpt>
      <trkpt lat="47.542225" lon="2.2240982">
        <ele>179</ele>
        <time>2022-06-09T08:04:14Z</time>
      </trkpt>
      <trkpt lat="47.54222" lon="2.2240782">
        <ele>179</ele>
        <time>2022-06-09T08:04:15Z</time>
      </trkpt>
      <trkpt lat="47.542217" lon="2.224061">
        <ele>180</ele>
        <time>2022-06-09T08:04:16Z</time>
      </trkpt>
      <trkpt lat="47.542217" lon="2.2240412">
        <ele>180</ele>
        <time>2022-06-09T08:04:17Z</time>
      </trkpt>
      <trkpt lat="47.542217" lon="2.2240233">
        <ele>180</ele>
        <time>2022-06-09T08:04:18Z</time>
      </trkpt>
      <trkpt lat="47.542217" lon="2.2240038">
        <ele>180</ele>
        <time>2022-06-09T08:04:19Z</time>
      </trkpt>
      <trkpt lat="47.542217" lon="2.2239835">
        <ele>180</ele>
        <time>2022-06-09T08:04:20Z</time>
      </trkpt>
      <trkpt lat="47.542213" lon="2.2239656">
        <ele>180</ele>
        <time>2022-06-09T08:04:21Z</time>
      </trkpt>
      <trkpt lat="47.542213" lon="2.2239466">
        <ele>180</ele>
        <time>2022-06-09T08:04:22Z</time>
      </trkpt>
      <trkpt lat="47.542213" lon="2.2239313">
        <ele>180</ele>
        <time>2022-06-09T08:04:23Z</time>
      </trkpt>
      <trkpt lat="47.542213" lon="2.2239196">
        <ele>181</ele>
        <time>2022-06-09T08:04:24Z</time>
      </trkpt>
      <trkpt lat="47.542213" lon="2.2238991">
        <ele>181</ele>
        <time>2022-06-09T08:04:25Z</time>
      </trkpt>
      <trkpt lat="47.542213" lon="2.2238855">
        <ele>181</ele>
        <time>2022-06-09T08:04:26Z</time>
      </trkpt>
      <trkpt lat="47.542213" lon="2.2238717">
        <ele>181</ele>
        <time>2022-06-09T08:04:27Z</time>
      </trkpt>
      <trkpt lat="47.54221" lon="2.2238562">
        <ele>180</ele>
        <time>2022-06-09T08:04:28Z</time>
      </trkpt>
      <trkpt lat="47.54221" lon="2.2238371">
        <ele>180</ele>
        <time>2022-06-09T08:04:29Z</time>
      </trkpt>
      <trkpt lat="47.542206" lon="2.2238243">
        <ele>180</ele>
        <time>2022-06-09T08:04:30Z</time>
      </trkpt>
      <trkpt lat="47.542206" lon="2.223812">
        <ele>180</ele>
        <time>2022-06-09T08:04:31Z</time>
      </trkpt>
      <trkpt lat="47.542206" lon="2.2237947">
        <ele>180</ele>
        <time>2022-06-09T08:04:32Z</time>
      </trkpt>
      <trkpt lat="47.542206" lon="2.2237742">
        <ele>180</ele>
        <time>2022-06-09T08:04:33Z</time>
      </trkpt>
      <trkpt lat="47.5422" lon="2.2237525">
        <ele>181</ele>
        <time>2022-06-09T08:04:34Z</time>
      </trkpt>
      <trkpt lat="47.5422" lon="2.223733">
        <ele>181</ele>
        <time>2022-06-09T08:04:35Z</time>
      </trkpt>
      <trkpt lat="47.5422" lon="2.223712">
        <ele>181</ele>
        <time>2022-06-09T08:04:36Z</time>
      </trkpt>
      <trkpt lat="47.542202" lon="2.2236915">
        <ele>181</ele>
        <time>2022-06-09T08:04:37Z</time>
      </trkpt>
      <trkpt lat="47.542202" lon="2.2236717">
        <ele>181</ele>
        <time>2022-06-09T08:04:38Z</time>
      </trkpt>
      <trkpt lat="47.542202" lon="2.223652">
        <ele>181</ele>
        <time>2022-06-09T08:04:39Z</time>
      </trkpt>
      <trkpt lat="47.5422" lon="2.2236278">
        <ele>181</ele>
        <time>2022-06-09T08:04:40Z</time>
      </trkpt>
      <trkpt lat="47.5422" lon="2.2236085">
        <ele>181</ele>
        <time>2022-06-09T08:04:41Z</time>
      </trkpt>
      <trkpt lat="47.5422" lon="2.2235885">
        <ele>181</ele>
        <time>2022-06-09T08:04:42Z</time>
      </trkpt>
      <trkpt lat="47.542202" lon="2.2235718">
        <ele>181</ele>
        <time>2022-06-09T08:04:43Z</time>
      </trkpt>
      <trkpt lat="47.5422" lon="2.223554">
        <ele>182</ele>
        <time>2022-06-09T08:04:44Z</time>
      </trkpt>
      <trkpt lat="47.5422" lon="2.2235363">
        <ele>181</ele>
        <time>2022-06-09T08:04:45Z</time>
      </trkpt>
      <trkpt lat="47.542194" lon="2.2235162">
        <ele>181</ele>
        <time>2022-06-09T08:04:46Z</time>
      </trkpt>
      <trkpt lat="47.542194" lon="2.223497">
        <ele>181</ele>
        <time>2022-06-09T08:04:47Z</time>
      </trkpt>
      <trkpt lat="47.54219" lon="2.2234788">
        <ele>181</ele>
        <time>2022-06-09T08:04:48Z</time>
      </trkpt>
      <trkpt lat="47.54219" lon="2.2234595">
        <ele>180</ele>
        <time>2022-06-09T08:04:49Z</time>
      </trkpt>
      <trkpt lat="47.542194" lon="2.223442">
        <ele>180</ele>
        <time>2022-06-09T08:04:50Z</time>
      </trkpt>
      <trkpt lat="47.542194" lon="2.2234235">
        <ele>179</ele>
        <time>2022-06-09T08:04:51Z</time>
      </trkpt>
      <trkpt lat="47.542194" lon="2.2234023">
        <ele>180</ele>
        <time>2022-06-09T08:04:52Z</time>
      </trkpt>
      <trkpt lat="47.54219" lon="2.2233834">
        <ele>180</ele>
        <time>2022-06-09T08:04:53Z</time>
      </trkpt>
      <trkpt lat="47.54219" lon="2.223369">
        <ele>180</ele>
        <time>2022-06-09T08:04:54Z</time>
      </trkpt>
      <trkpt lat="47.542194" lon="2.2233546">
        <ele>180</ele>
        <time>2022-06-09T08:04:55Z</time>
      </trkpt>
      <trkpt lat="47.54219" lon="2.2233377">
        <ele>180</ele>
        <time>2022-06-09T08:04:56Z</time>
      </trkpt>
      <trkpt lat="47.542187" lon="2.2233195">
        <ele>180</ele>
        <time>2022-06-09T08:04:57Z</time>
      </trkpt>
      <trkpt lat="47.542187" lon="2.2233002">
        <ele>181</ele>
        <time>2022-06-09T08:04:58Z</time>
      </trkpt>
      <trkpt lat="47.542187" lon="2.2232819">
        <ele>181</ele>
        <time>2022-06-09T08:04:59Z</time>
      </trkpt>
      <trkpt lat="47.54219" lon="2.2232625">
        <ele>181</ele>
        <time>2022-06-09T08:05:00Z</time>
      </trkpt>
      <trkpt lat="47.54219" lon="2.2232442">
        <ele>182</ele>
        <time>2022-06-09T08:05:01Z</time>
      </trkpt>
      <trkpt lat="47.54219" lon="2.223225">
        <ele>182</ele>
        <time>2022-06-09T08:05:02Z</time>
      </trkpt>
      <trkpt lat="47.54219" lon="2.223206">
        <ele>182</ele>
        <time>2022-06-09T08:05:03Z</time>
      </trkpt>
      <trkpt lat="47.542194" lon="2.2231848">
        <ele>182</ele>
        <time>2022-06-09T08:05:04Z</time>
      </trkpt>
      <trkpt lat="47.542194" lon="2.223164">
        <ele>182</ele>
        <time>2022-06-09T08:05:05Z</time>
      </trkpt>
      <trkpt lat="47.542194" lon="2.2231414">
        <ele>183</ele>
        <time>2022-06-09T08:05:06Z</time>
      </trkpt>
      <trkpt lat="47.542194" lon="2.2231207">
        <ele>182</ele>
        <time>2022-06-09T08:05:07Z</time>
      </trkpt>
      <trkpt lat="47.542194" lon="2.2230995">
        <ele>182</ele>
        <time>2022-06-09T08:05:08Z</time>
      </trkpt>
      <trkpt lat="47.5422" lon="2.2230809">
        <ele>183</ele>
        <time>2022-06-09T08:05:09Z</time>
      </trkpt>
      <trkpt lat="47.5422" lon="2.2230654">
        <ele>183</ele>
        <time>2022-06-09T08:05:10Z</time>
      </trkpt>
      <trkpt lat="47.542206" lon="2.2230518">
        <ele>183</ele>
        <time>2022-06-09T08:05:11Z</time>
      </trkpt>
      <trkpt lat="47.54221" lon="2.2230349">
        <ele>183</ele>
        <time>2022-06-09T08:05:12Z</time>
      </trkpt>
      <trkpt lat="47.542217" lon="2.2230148">
        <ele>183</ele>
        <time>2022-06-09T08:05:13Z</time>
      </trkpt>
      <trkpt lat="47.54222" lon="2.222998">
        <ele>182</ele>
        <time>2022-06-09T08:05:14Z</time>
      </trkpt>
      <trkpt lat="47.54223" lon="2.2229848">
        <ele>182</ele>
        <time>2022-06-09T08:05:15Z</time>
      </trkpt>
      <trkpt lat="47.542233" lon="2.2229698">
        <ele>182</ele>
        <time>2022-06-09T08:05:16Z</time>
      </trkpt>
      <trkpt lat="47.54224" lon="2.222953">
        <ele>182</ele>
        <time>2022-06-09T08:05:17Z</time>
      </trkpt>
      <trkpt lat="47.542248" lon="2.2229376">
        <ele>182</ele>
        <time>2022-06-09T08:05:18Z</time>
      </trkpt>
      <trkpt lat="47.542248" lon="2.2229264">
        <ele>182</ele>
        <time>2022-06-09T08:05:19Z</time>
      </trkpt>
      <trkpt lat="47.542255" lon="2.2229106">
        <ele>182</ele>
        <time>2022-06-09T08:05:20Z</time>
      </trkpt>
      <trkpt lat="47.542263" lon="2.2228944">
        <ele>182</ele>
        <time>2022-06-09T08:05:21Z</time>
      </trkpt>
      <trkpt lat="47.542267" lon="2.222879">
        <ele>182</ele>
        <time>2022-06-09T08:05:22Z</time>
      </trkpt>
      <trkpt lat="47.54227" lon="2.222863">
        <ele>181</ele>
        <time>2022-06-09T08:05:23Z</time>
      </trkpt>
      <trkpt lat="47.54228" lon="2.2228498">
        <ele>181</ele>
        <time>2022-06-09T08:05:24Z</time>
      </trkpt>
      <trkpt lat="47.542286" lon="2.222836">
        <ele>181</ele>
        <time>2022-06-09T08:05:25Z</time>
      </trkpt>
      <trkpt lat="47.542294" lon="2.2228222">
        <ele>181</ele>
        <time>2022-06-09T08:05:26Z</time>
      </trkpt>
      <trkpt lat="47.5423" lon="2.222814">
        <ele>181</ele>
        <time>2022-06-09T08:05:27Z</time>
      </trkpt>
      <trkpt lat="47.542313" lon="2.222802">
        <ele>181</ele>
        <time>2022-06-09T08:05:28Z</time>
      </trkpt>
      <trkpt lat="47.54232" lon="2.2227871">
        <ele>181</ele>
        <time>2022-06-09T08:05:29Z</time>
      </trkpt>
      <trkpt lat="47.542324" lon="2.222774">
        <ele>181</ele>
        <time>2022-06-09T08:05:30Z</time>
      </trkpt>
      <trkpt lat="47.542328" lon="2.2227573">
        <ele>181</ele>
        <time>2022-06-09T08:05:31Z</time>
      </trkpt>
      <trkpt lat="47.54233" lon="2.2227423">
        <ele>181</ele>
        <time>2022-06-09T08:05:32Z</time>
      </trkpt>
      <trkpt lat="47.54233" lon="2.2227247">
        <ele>181</ele>
        <time>2022-06-09T08:05:33Z</time>
      </trkpt>
      <trkpt lat="47.542336" lon="2.2227097">
        <ele>181</ele>
        <time>2022-06-09T08:05:34Z</time>
      </trkpt>
      <trkpt lat="47.54234" lon="2.2226949">
        <ele>181</ele>
        <time>2022-06-09T08:05:35Z</time>
      </trkpt>
      <trkpt lat="47.542347" lon="2.2226777">
        <ele>181</ele>
        <time>2022-06-09T08:05:36Z</time>
      </trkpt>
      <trkpt lat="47.542355" lon="2.2226627">
        <ele>181</ele>
        <time>2022-06-09T08:05:37Z</time>
      </trkpt>
      <trkpt lat="47.542362" lon="2.2226467">
        <ele>180</ele>
        <time>2022-06-09T08:05:38Z</time>
      </trkpt>
      <trkpt lat="47.54237" lon="2.2226343">
        <ele>180</ele>
        <time>2022-06-09T08:05:39Z</time>
      </trkpt>
      <trkpt lat="47.542374" lon="2.222613">
        <ele>180</ele>
        <time>2022-06-09T08:05:40Z</time>
      </trkpt>
      <trkpt lat="47.54238" lon="2.2225983">
        <ele>180</ele>
        <time>2022-06-09T08:05:41Z</time>
      </trkpt>
      <trkpt lat="47.54239" lon="2.2225842">
        <ele>180</ele>
        <time>2022-06-09T08:05:42Z</time>
      </trkpt>
      <trkpt lat="47.542397" lon="2.222569">
        <ele>180</ele>
        <time>2022-06-09T08:05:43Z</time>
      </trkpt>
      <trkpt lat="47.542404" lon="2.2225523">
        <ele>180</ele>
        <time>2022-06-09T08:05:44Z</time>
      </trkpt>
      <trkpt lat="47.54241" lon="2.222538">
        <ele>179</ele>
        <time>2022-06-09T08:05:45Z</time>
      </trkpt>
      <trkpt lat="47.54242" lon="2.222527">
        <ele>179</ele>
        <time>2022-06-09T08:05:46Z</time>
      </trkpt>
      <trkpt lat="47.542427" lon="2.2225113">
        <ele>180</ele>
        <time>2022-06-09T08:05:47Z</time>
      </trkpt>
      <trkpt lat="47.54244" lon="2.2224941">
        <ele>180</ele>
        <time>2022-06-09T08:05:48Z</time>
      </trkpt>
      <trkpt lat="47.542446" lon="2.2224784">
        <ele>180</ele>
        <time>2022-06-09T08:05:49Z</time>
      </trkpt>
      <trkpt lat="47.542458" lon="2.2224646">
        <ele>180</ele>
        <time>2022-06-09T08:05:50Z</time>
      </trkpt>
      <trkpt lat="47.542465" lon="2.2224486">
        <ele>180</ele>
        <time>2022-06-09T08:05:51Z</time>
      </trkpt>
      <trkpt lat="47.542473" lon="2.2224326">
        <ele>180</ele>
        <time>2022-06-09T08:05:52Z</time>
      </trkpt>
      <trkpt lat="47.542484" lon="2.2224174">
        <ele>179</ele>
        <time>2022-06-09T08:05:53Z</time>
      </trkpt>
      <trkpt lat="47.542492" lon="2.222403">
        <ele>179</ele>
        <time>2022-06-09T08:05:54Z</time>
      </trkpt>
      <trkpt lat="47.5425" lon="2.2223907">
        <ele>179</ele>
        <time>2022-06-09T08:05:55Z</time>
      </trkpt>
      <trkpt lat="47.542507" lon="2.2223759">
        <ele>179</ele>
        <time>2022-06-09T08:05:56Z</time>
      </trkpt>
      <trkpt lat="47.542515" lon="2.2223587">
        <ele>179</ele>
        <time>2022-06-09T08:05:57Z</time>
      </trkpt>
      <trkpt lat="47.542522" lon="2.222343">
        <ele>179</ele>
        <time>2022-06-09T08:05:58Z</time>
      </trkpt>
      <trkpt lat="47.54253" lon="2.2223284">
        <ele>179</ele>
        <time>2022-06-09T08:05:59Z</time>
      </trkpt>
      <trkpt lat="47.54254" lon="2.2223132">
        <ele>180</ele>
        <time>2022-06-09T08:06:00Z</time>
      </trkpt>
      <trkpt lat="47.54255" lon="2.2222946">
        <ele>179</ele>
        <time>2022-06-09T08:06:01Z</time>
      </trkpt>
      <trkpt lat="47.542553" lon="2.2222817">
        <ele>179</ele>
        <time>2022-06-09T08:06:02Z</time>
      </trkpt>
      <trkpt lat="47.54256" lon="2.2222698">
        <ele>179</ele>
        <time>2022-06-09T08:06:03Z</time>
      </trkpt>
      <trkpt lat="47.54257" lon="2.2222545">
        <ele>179</ele>
        <time>2022-06-09T08:06:04Z</time>
      </trkpt>
      <trkpt lat="47.542572" lon="2.2222452">
        <ele>179</ele>
        <time>2022-06-09T08:06:05Z</time>
      </trkpt>
      <trkpt lat="47.54258" lon="2.222232">
        <ele>179</ele>
        <time>2022-06-09T08:06:06Z</time>
      </trkpt>
      <trkpt lat="47.54259" lon="2.22222">
        <ele>179</ele>
        <time>2022-06-09T08:06:07Z</time>
      </trkpt>
      <trkpt lat="47.542595" lon="2.222202">
        <ele>179</ele>
        <time>2022-06-09T08:06:08Z</time>
      </trkpt>
      <trkpt lat="47.542603" lon="2.222183">
        <ele>179</ele>
        <time>2022-06-09T08:06:09Z</time>
      </trkpt>
      <trkpt lat="47.542614" lon="2.2221663">
        <ele>179</ele>
        <time>2022-06-09T08:06:10Z</time>
      </trkpt>
      <trkpt lat="47.54262" lon="2.2221496">
        <ele>179</ele>
        <time>2022-06-09T08:06:11Z</time>
      </trkpt>
      <trkpt lat="47.54263" lon="2.222134">
        <ele>179</ele>
        <time>2022-06-09T08:06:12Z</time>
      </trkpt>
      <trkpt lat="47.542637" lon="2.2221193">
        <ele>179</ele>
        <time>2022-06-09T08:06:13Z</time>
      </trkpt>
      <trkpt lat="47.54264" lon="2.2221038">
        <ele>179</ele>
        <time>2022-06-09T08:06:14Z</time>
      </trkpt>
      <trkpt lat="47.542652" lon="2.2220876">
        <ele>178</ele>
        <time>2022-06-09T08:06:15Z</time>
      </trkpt>
      <trkpt lat="47.54266" lon="2.2220738">
        <ele>178</ele>
        <time>2022-06-09T08:06:16Z</time>
      </trkpt>
      <trkpt lat="47.542667" lon="2.2220583">
        <ele>178</ele>
        <time>2022-06-09T08:06:17Z</time>
      </trkpt>
      <trkpt lat="47.542675" lon="2.2220466">
        <ele>178</ele>
        <time>2022-06-09T08:06:18Z</time>
      </trkpt>
      <trkpt lat="47.542683" lon="2.2220392">
        <ele>178</ele>
        <time>2022-06-09T08:06:19Z</time>
      </trkpt>
      <trkpt lat="47.54269" lon="2.2220218">
        <ele>178</ele>
        <time>2022-06-09T08:06:20Z</time>
      </trkpt>
      <trkpt lat="47.542698" lon="2.2220054">
        <ele>178</ele>
        <time>2022-06-09T08:06:21Z</time>
      </trkpt>
      <trkpt lat="47.542706" lon="2.2219906">
        <ele>178</ele>
        <time>2022-06-09T08:06:22Z</time>
      </trkpt>
      <trkpt lat="47.54271" lon="2.2219791">
        <ele>178</ele>
        <time>2022-06-09T08:06:23Z</time>
      </trkpt>
      <trkpt lat="47.542717" lon="2.2219656">
        <ele>178</ele>
        <time>2022-06-09T08:06:24Z</time>
      </trkpt>
      <trkpt lat="47.54272" lon="2.2219536">
        <ele>178</ele>
        <time>2022-06-09T08:06:25Z</time>
      </trkpt>
      <trkpt lat="47.542725" lon="2.2219422">
        <ele>178</ele>
        <time>2022-06-09T08:06:26Z</time>
      </trkpt>
      <trkpt lat="47.542732" lon="2.221928">
        <ele>178</ele>
        <time>2022-06-09T08:06:27Z</time>
      </trkpt>
      <trkpt lat="47.542736" lon="2.221911">
        <ele>178</ele>
        <time>2022-06-09T08:06:28Z</time>
      </trkpt>
      <trkpt lat="47.542744" lon="2.2218924">
        <ele>179</ele>
        <time>2022-06-09T08:06:29Z</time>
      </trkpt>
      <trkpt lat="47.54275" lon="2.2218802">
        <ele>178</ele>
        <time>2022-06-09T08:06:30Z</time>
      </trkpt>
      <trkpt lat="47.54276" lon="2.2218676">
        <ele>179</ele>
        <time>2022-06-09T08:06:31Z</time>
      </trkpt>
      <trkpt lat="47.542767" lon="2.2218487">
        <ele>179</ele>
        <time>2022-06-09T08:06:32Z</time>
      </trkpt>
      <trkpt lat="47.54277" lon="2.2218297">
        <ele>179</ele>
        <time>2022-06-09T08:06:33Z</time>
      </trkpt>
      <trkpt lat="47.542778" lon="2.2218134">
        <ele>179</ele>
        <time>2022-06-09T08:06:34Z</time>
      </trkpt>
      <trkpt lat="47.542786" lon="2.2217965">
        <ele>179</ele>
        <time>2022-06-09T08:06:35Z</time>
      </trkpt>
      <trkpt lat="47.54279" lon="2.221782">
        <ele>179</ele>
        <time>2022-06-09T08:06:36Z</time>
      </trkpt>
      <trkpt lat="47.542797" lon="2.2217631">
        <ele>179</ele>
        <time>2022-06-09T08:06:37Z</time>
      </trkpt>
      <trkpt lat="47.542805" lon="2.2217536">
        <ele>179</ele>
        <time>2022-06-09T08:06:38Z</time>
      </trkpt>
      <trkpt lat="47.542816" lon="2.2217398">
        <ele>179</ele>
        <time>2022-06-09T08:06:39Z</time>
      </trkpt>
      <trkpt lat="47.542824" lon="2.2217262">
        <ele>179</ele>
        <time>2022-06-09T08:06:40Z</time>
      </trkpt>
      <trkpt lat="47.542835" lon="2.2217143">
        <ele>178</ele>
        <time>2022-06-09T08:06:41Z</time>
      </trkpt>
      <trkpt lat="47.542843" lon="2.221703">
        <ele>178</ele>
        <time>2022-06-09T08:06:42Z</time>
      </trkpt>
      <trkpt lat="47.54285" lon="2.2216907">
        <ele>178</ele>
        <time>2022-06-09T08:06:43Z</time>
      </trkpt>
      <trkpt lat="47.54286" lon="2.2216728">
        <ele>178</ele>
        <time>2022-06-09T08:06:44Z</time>
      </trkpt>
      <trkpt lat="47.542866" lon="2.2216542">
        <ele>178</ele>
        <time>2022-06-09T08:06:45Z</time>
      </trkpt>
      <trkpt lat="47.542877" lon="2.2216415">
        <ele>178</ele>
        <time>2022-06-09T08:06:46Z</time>
      </trkpt>
      <trkpt lat="47.542885" lon="2.2216291">
        <ele>178</ele>
        <time>2022-06-09T08:06:47Z</time>
      </trkpt>
      <trkpt lat="47.542892" lon="2.221613">
        <ele>178</ele>
        <time>2022-06-09T08:06:48Z</time>
      </trkpt>
      <trkpt lat="47.5429" lon="2.221599">
        <ele>178</ele>
        <time>2022-06-09T08:06:49Z</time>
      </trkpt>
      <trkpt lat="47.542908" lon="2.2215836">
        <ele>178</ele>
        <time>2022-06-09T08:06:50Z</time>
      </trkpt>
      <trkpt lat="47.542915" lon="2.2215679">
        <ele>178</ele>
        <time>2022-06-09T08:06:51Z</time>
      </trkpt>
      <trkpt lat="47.542923" lon="2.2215517">
        <ele>178</ele>
        <time>2022-06-09T08:06:52Z</time>
      </trkpt>
      <trkpt lat="47.54293" lon="2.221537">
        <ele>178</ele>
        <time>2022-06-09T08:06:53Z</time>
      </trkpt>
      <trkpt lat="47.54294" lon="2.2215238">
        <ele>179</ele>
        <time>2022-06-09T08:06:54Z</time>
      </trkpt>
      <trkpt lat="47.542946" lon="2.2215114">
        <ele>178</ele>
        <time>2022-06-09T08:06:55Z</time>
      </trkpt>
      <trkpt lat="47.542953" lon="2.2215004">
        <ele>178</ele>
        <time>2022-06-09T08:06:56Z</time>
      </trkpt>
      <trkpt lat="47.54296" lon="2.2214863">
        <ele>178</ele>
        <time>2022-06-09T08:06:57Z</time>
      </trkpt>
      <trkpt lat="47.542965" lon="2.221469">
        <ele>178</ele>
        <time>2022-06-09T08:06:58Z</time>
      </trkpt>
      <trkpt lat="47.54297" lon="2.2214541">
        <ele>178</ele>
        <time>2022-06-09T08:06:59Z</time>
      </trkpt>
      <trkpt lat="47.542973" lon="2.221445">
        <ele>177</ele>
        <time>2022-06-09T08:07:00Z</time>
      </trkpt>
      <trkpt lat="47.54298" lon="2.2214255">
        <ele>178</ele>
        <time>2022-06-09T08:07:01Z</time>
      </trkpt>
      <trkpt lat="47.542984" lon="2.221408">
        <ele>178</ele>
        <time>2022-06-09T08:07:02Z</time>
      </trkpt>
      <trkpt lat="47.54299" lon="2.2213876">
        <ele>178</ele>
        <time>2022-06-09T08:07:03Z</time>
      </trkpt>
      <trkpt lat="47.542995" lon="2.221372">
        <ele>178</ele>
        <time>2022-06-09T08:07:04Z</time>
      </trkpt>
      <trkpt lat="47.543003" lon="2.221359">
        <ele>178</ele>
        <time>2022-06-09T08:07:05Z</time>
      </trkpt>
      <trkpt lat="47.543015" lon="2.2213452">
        <ele>177</ele>
        <time>2022-06-09T08:07:06Z</time>
      </trkpt>
      <trkpt lat="47.543022" lon="2.2213273">
        <ele>177</ele>
        <time>2022-06-09T08:07:07Z</time>
      </trkpt>
      <trkpt lat="47.54303" lon="2.221312">
        <ele>177</ele>
        <time>2022-06-09T08:07:08Z</time>
      </trkpt>
      <trkpt lat="47.543037" lon="2.2212937">
        <ele>177</ele>
        <time>2022-06-09T08:07:09Z</time>
      </trkpt>
      <trkpt lat="47.54304" lon="2.2212763">
        <ele>178</ele>
        <time>2022-06-09T08:07:10Z</time>
      </trkpt>
      <trkpt lat="47.54305" lon="2.2212603">
        <ele>178</ele>
        <time>2022-06-09T08:07:11Z</time>
      </trkpt>
      <trkpt lat="47.543056" lon="2.2212415">
        <ele>178</ele>
        <time>2022-06-09T08:07:12Z</time>
      </trkpt>
      <trkpt lat="47.543064" lon="2.2212293">
        <ele>178</ele>
        <time>2022-06-09T08:07:13Z</time>
      </trkpt>
      <trkpt lat="47.54307" lon="2.2212145">
        <ele>178</ele>
        <time>2022-06-09T08:07:14Z</time>
      </trkpt>
      <trkpt lat="47.543076" lon="2.2212014">
        <ele>178</ele>
        <time>2022-06-09T08:07:15Z</time>
      </trkpt>
      <trkpt lat="47.543083" lon="2.221185">
        <ele>177</ele>
        <time>2022-06-09T08:07:16Z</time>
      </trkpt>
      <trkpt lat="47.54309" lon="2.2211716">
        <ele>178</ele>
        <time>2022-06-09T08:07:17Z</time>
      </trkpt>
      <trkpt lat="47.5431" lon="2.221155">
        <ele>178</ele>
        <time>2022-06-09T08:07:18Z</time>
      </trkpt>
      <trkpt lat="47.543106" lon="2.2211418">
        <ele>178</ele>
        <time>2022-06-09T08:07:19Z</time>
      </trkpt>
      <trkpt lat="47.543114" lon="2.2211285">
        <ele>178</ele>
        <time>2022-06-09T08:07:20Z</time>
      </trkpt>
      <trkpt lat="47.54312" lon="2.2211115">
        <ele>178</ele>
        <time>2022-06-09T08:07:21Z</time>
      </trkpt>
      <trkpt lat="47.54313" lon="2.221093">
        <ele>178</ele>
        <time>2022-06-09T08:07:22Z</time>
      </trkpt>
      <trkpt lat="47.543137" lon="2.2210717">
        <ele>178</ele>
        <time>2022-06-09T08:07:23Z</time>
      </trkpt>
      <trkpt lat="47.543148" lon="2.2210536">
        <ele>178</ele>
        <time>2022-06-09T08:07:24Z</time>
      </trkpt>
      <trkpt lat="47.54315" lon="2.2210395">
        <ele>178</ele>
        <time>2022-06-09T08:07:25Z</time>
      </trkpt>
      <trkpt lat="47.54316" lon="2.221022">
        <ele>178</ele>
        <time>2022-06-09T08:07:26Z</time>
      </trkpt>
      <trkpt lat="47.543163" lon="2.2210069">
        <ele>179</ele>
        <time>2022-06-09T08:07:27Z</time>
      </trkpt>
      <trkpt lat="47.543175" lon="2.2209928">
        <ele>179</ele>
        <time>2022-06-09T08:07:28Z</time>
      </trkpt>
      <trkpt lat="47.543182" lon="2.220981">
        <ele>179</ele>
        <time>2022-06-09T08:07:29Z</time>
      </trkpt>
      <trkpt lat="47.54319" lon="2.2209642">
        <ele>179</ele>
        <time>2022-06-09T08:07:30Z</time>
      </trkpt>
      <trkpt lat="47.543198" lon="2.220945">
        <ele>179</ele>
        <time>2022-06-09T08:07:31Z</time>
      </trkpt>
      <trkpt lat="47.543205" lon="2.2209306">
        <ele>179</ele>
        <time>2022-06-09T08:07:32Z</time>
      </trkpt>
      <trkpt lat="47.543213" lon="2.2209105">
        <ele>180</ele>
        <time>2022-06-09T08:07:33Z</time>
      </trkpt>
      <trkpt lat="47.543224" lon="2.2208984">
        <ele>180</ele>
        <time>2022-06-09T08:07:34Z</time>
      </trkpt>
      <trkpt lat="47.54323" lon="2.220882">
        <ele>180</ele>
        <time>2022-06-09T08:07:35Z</time>
      </trkpt>
      <trkpt lat="47.543236" lon="2.2208655">
        <ele>180</ele>
        <time>2022-06-09T08:07:36Z</time>
      </trkpt>
      <trkpt lat="47.54324" lon="2.2208529">
        <ele>180</ele>
        <time>2022-06-09T08:07:37Z</time>
      </trkpt>
      <trkpt lat="47.543247" lon="2.2208362">
        <ele>180</ele>
        <time>2022-06-09T08:07:38Z</time>
      </trkpt>
      <trkpt lat="47.543255" lon="2.2208176">
        <ele>180</ele>
        <time>2022-06-09T08:07:39Z</time>
      </trkpt>
      <trkpt lat="47.54326" lon="2.2208066">
        <ele>180</ele>
        <time>2022-06-09T08:07:40Z</time>
      </trkpt>
      <trkpt lat="47.54327" lon="2.2207952">
        <ele>180</ele>
        <time>2022-06-09T08:07:41Z</time>
      </trkpt>
      <trkpt lat="47.543274" lon="2.2207837">
        <ele>180</ele>
        <time>2022-06-09T08:07:42Z</time>
      </trkpt>
      <trkpt lat="47.54328" lon="2.2207668">
        <ele>180</ele>
        <time>2022-06-09T08:07:43Z</time>
      </trkpt>
      <trkpt lat="47.54329" lon="2.2207475">
        <ele>179</ele>
        <time>2022-06-09T08:07:44Z</time>
      </trkpt>
      <trkpt lat="47.5433" lon="2.2207305">
        <ele>179</ele>
        <time>2022-06-09T08:07:45Z</time>
      </trkpt>
      <trkpt lat="47.54331" lon="2.220714">
        <ele>179</ele>
        <time>2022-06-09T08:07:46Z</time>
      </trkpt>
      <trkpt lat="47.54332" lon="2.2206957">
        <ele>179</ele>
        <time>2022-06-09T08:07:47Z</time>
      </trkpt>
      <trkpt lat="47.543327" lon="2.2206798">
        <ele>180</ele>
        <time>2022-06-09T08:07:48Z</time>
      </trkpt>
      <trkpt lat="47.543335" lon="2.2206624">
        <ele>180</ele>
        <time>2022-06-09T08:07:49Z</time>
      </trkpt>
      <trkpt lat="47.543343" lon="2.2206428">
        <ele>180</ele>
        <time>2022-06-09T08:07:50Z</time>
      </trkpt>
      <trkpt lat="47.543354" lon="2.2206237">
        <ele>180</ele>
        <time>2022-06-09T08:07:51Z</time>
      </trkpt>
      <trkpt lat="47.54336" lon="2.220611">
        <ele>180</ele>
        <time>2022-06-09T08:07:52Z</time>
      </trkpt>
      <trkpt lat="47.54337" lon="2.2205975">
        <ele>180</ele>
        <time>2022-06-09T08:07:53Z</time>
      </trkpt>
      <trkpt lat="47.543377" lon="2.220583">
        <ele>180</ele>
        <time>2022-06-09T08:07:54Z</time>
      </trkpt>
      <trkpt lat="47.543385" lon="2.2205677">
        <ele>180</ele>
        <time>2022-06-09T08:07:55Z</time>
      </trkpt>
      <trkpt lat="47.543392" lon="2.220555">
        <ele>179</ele>
        <time>2022-06-09T08:07:56Z</time>
      </trkpt>
      <trkpt lat="47.5434" lon="2.2205384">
        <ele>179</ele>
        <time>2022-06-09T08:07:57Z</time>
      </trkpt>
      <trkpt lat="47.543407" lon="2.220521">
        <ele>179</ele>
        <time>2022-06-09T08:07:58Z</time>
      </trkpt>
      <trkpt lat="47.54341" lon="2.220506">
        <ele>178</ele>
        <time>2022-06-09T08:07:59Z</time>
      </trkpt>
      <trkpt lat="47.54342" lon="2.2204905">
        <ele>178</ele>
        <time>2022-06-09T08:08:00Z</time>
      </trkpt>
      <trkpt lat="47.543427" lon="2.2204742">
        <ele>178</ele>
        <time>2022-06-09T08:08:01Z</time>
      </trkpt>
      <trkpt lat="47.543434" lon="2.2204566">
        <ele>178</ele>
        <time>2022-06-09T08:08:02Z</time>
      </trkpt>
      <trkpt lat="47.543438" lon="2.2204437">
        <ele>178</ele>
        <time>2022-06-09T08:08:03Z</time>
      </trkpt>
      <trkpt lat="47.543446" lon="2.2204285">
        <ele>178</ele>
        <time>2022-06-09T08:08:04Z</time>
      </trkpt>
      <trkpt lat="47.543453" lon="2.2204149">
        <ele>177</ele>
        <time>2022-06-09T08:08:05Z</time>
      </trkpt>
      <trkpt lat="47.54346" lon="2.2204065">
        <ele>177</ele>
        <time>2022-06-09T08:08:06Z</time>
      </trkpt>
      <trkpt lat="47.54347" lon="2.22039">
        <ele>177</ele>
        <time>2022-06-09T08:08:07Z</time>
      </trkpt>
      <trkpt lat="47.54348" lon="2.2203748">
        <ele>177</ele>
        <time>2022-06-09T08:08:08Z</time>
      </trkpt>
      <trkpt lat="47.54349" lon="2.2203593">
        <ele>177</ele>
        <time>2022-06-09T08:08:09Z</time>
      </trkpt>
      <trkpt lat="47.543495" lon="2.2203493">
        <ele>176</ele>
        <time>2022-06-09T08:08:10Z</time>
      </trkpt>
      <trkpt lat="47.5435" lon="2.2203345">
        <ele>176</ele>
        <time>2022-06-09T08:08:11Z</time>
      </trkpt>
      <trkpt lat="47.543507" lon="2.220322">
        <ele>177</ele>
        <time>2022-06-09T08:08:12Z</time>
      </trkpt>
      <trkpt lat="47.543514" lon="2.2203085">
        <ele>177</ele>
        <time>2022-06-09T08:08:13Z</time>
      </trkpt>
      <trkpt lat="47.54352" lon="2.220294">
        <ele>177</ele>
        <time>2022-06-09T08:08:14Z</time>
      </trkpt>
      <trkpt lat="47.54353" lon="2.2202814">
        <ele>177</ele>
        <time>2022-06-09T08:08:15Z</time>
      </trkpt>
      <trkpt lat="47.543537" lon="2.220264">
        <ele>177</ele>
        <time>2022-06-09T08:08:16Z</time>
      </trkpt>
      <trkpt lat="47.54354" lon="2.2202444">
        <ele>177</ele>
        <time>2022-06-09T08:08:17Z</time>
      </trkpt>
      <trkpt lat="47.543545" lon="2.220231">
        <ele>177</ele>
        <time>2022-06-09T08:08:18Z</time>
      </trkpt>
      <trkpt lat="47.543552" lon="2.2202196">
        <ele>177</ele>
        <time>2022-06-09T08:08:19Z</time>
      </trkpt>
      <trkpt lat="47.54356" lon="2.2202048">
        <ele>177</ele>
        <time>2022-06-09T08:08:20Z</time>
      </trkpt>
      <trkpt lat="47.543568" lon="2.2201867">
        <ele>177</ele>
        <time>2022-06-09T08:08:21Z</time>
      </trkpt>
      <trkpt lat="47.543575" lon="2.2201648">
        <ele>177</ele>
        <time>2022-06-09T08:08:22Z</time>
      </trkpt>
      <trkpt lat="47.54358" lon="2.220152">
        <ele>177</ele>
        <time>2022-06-09T08:08:23Z</time>
      </trkpt>
      <trkpt lat="47.54359" lon="2.2201364">
        <ele>176</ele>
        <time>2022-06-09T08:08:24Z</time>
      </trkpt>
      <trkpt lat="47.5436" lon="2.2201233">
        <ele>176</ele>
        <time>2022-06-09T08:08:25Z</time>
      </trkpt>
      <trkpt lat="47.543606" lon="2.22011">
        <ele>176</ele>
        <time>2022-06-09T08:08:26Z</time>
      </trkpt>
      <trkpt lat="47.54361" lon="2.2200944">
        <ele>176</ele>
        <time>2022-06-09T08:08:27Z</time>
      </trkpt>
      <trkpt lat="47.54361" lon="2.220084">
        <ele>176</ele>
        <time>2022-06-09T08:08:28Z</time>
      </trkpt>
      <trkpt lat="47.543617" lon="2.220068">
        <ele>176</ele>
        <time>2022-06-09T08:08:29Z</time>
      </trkpt>
      <trkpt lat="47.543625" lon="2.2200475">
        <ele>175</ele>
        <time>2022-06-09T08:08:30Z</time>
      </trkpt>
      <trkpt lat="47.54363" lon="2.2200263">
        <ele>175</ele>
        <time>2022-06-09T08:08:31Z</time>
      </trkpt>
      <trkpt lat="47.54364" lon="2.2200072">
        <ele>175</ele>
        <time>2022-06-09T08:08:32Z</time>
      </trkpt>
      <trkpt lat="47.543644" lon="2.219997">
        <ele>175</ele>
        <time>2022-06-09T08:08:33Z</time>
      </trkpt>
      <trkpt lat="47.54365" lon="2.2199848">
        <ele>175</ele>
        <time>2022-06-09T08:08:34Z</time>
      </trkpt>
      <trkpt lat="47.54366" lon="2.2199726">
        <ele>174</ele>
        <time>2022-06-09T08:08:35Z</time>
      </trkpt>
      <trkpt lat="47.543663" lon="2.2199607">
        <ele>175</ele>
        <time>2022-06-09T08:08:36Z</time>
      </trkpt>
      <trkpt lat="47.54367" lon="2.219947">
        <ele>174</ele>
        <time>2022-06-09T08:08:37Z</time>
      </trkpt>
      <trkpt lat="47.54368" lon="2.2199366">
        <ele>174</ele>
        <time>2022-06-09T08:08:38Z</time>
      </trkpt>
      <trkpt lat="47.543682" lon="2.21992">
        <ele>174</ele>
        <time>2022-06-09T08:08:39Z</time>
      </trkpt>
      <trkpt lat="47.543686" lon="2.2199016">
        <ele>174</ele>
        <time>2022-06-09T08:08:40Z</time>
      </trkpt>
      <trkpt lat="47.54369" lon="2.2198935">
        <ele>174</ele>
        <time>2022-06-09T08:08:41Z</time>
      </trkpt>
      <trkpt lat="47.543697" lon="2.2198825">
        <ele>174</ele>
        <time>2022-06-09T08:08:42Z</time>
      </trkpt>
      <trkpt lat="47.54371" lon="2.2198663">
        <ele>173</ele>
        <time>2022-06-09T08:08:43Z</time>
      </trkpt>
      <trkpt lat="47.54372" lon="2.2198496">
        <ele>173</ele>
        <time>2022-06-09T08:08:44Z</time>
      </trkpt>
      <trkpt lat="47.543728" lon="2.2198336">
        <ele>173</ele>
        <time>2022-06-09T08:08:45Z</time>
      </trkpt>
      <trkpt lat="47.54374" lon="2.219824">
        <ele>173</ele>
        <time>2022-06-09T08:08:46Z</time>
      </trkpt>
      <trkpt lat="47.543747" lon="2.2198095">
        <ele>173</ele>
        <time>2022-06-09T08:08:47Z</time>
      </trkpt>
      <trkpt lat="47.543755" lon="2.2197983">
        <ele>173</ele>
        <time>2022-06-09T08:08:48Z</time>
      </trkpt>
      <trkpt lat="47.54376" lon="2.2197838">
        <ele>173</ele>
        <time>2022-06-09T08:08:49Z</time>
      </trkpt>
      <trkpt lat="47.543766" lon="2.2197707">
        <ele>173</ele>
        <time>2022-06-09T08:08:50Z</time>
      </trkpt>
      <trkpt lat="47.543774" lon="2.219759">
        <ele>173</ele>
        <time>2022-06-09T08:08:51Z</time>
      </trkpt>
      <trkpt lat="47.543785" lon="2.2197413">
        <ele>173</ele>
        <time>2022-06-09T08:08:52Z</time>
      </trkpt>
      <trkpt lat="47.54379" lon="2.219727">
        <ele>173</ele>
        <time>2022-06-09T08:08:53Z</time>
      </trkpt>
      <trkpt lat="47.543797" lon="2.2197099">
        <ele>173</ele>
        <time>2022-06-09T08:08:54Z</time>
      </trkpt>
      <trkpt lat="47.5438" lon="2.2196915">
        <ele>173</ele>
        <time>2022-06-09T08:08:55Z</time>
      </trkpt>
      <trkpt lat="47.543808" lon="2.2196748">
        <ele>173</ele>
        <time>2022-06-09T08:08:56Z</time>
      </trkpt>
      <trkpt lat="47.54381" lon="2.219663">
        <ele>173</ele>
        <time>2022-06-09T08:08:57Z</time>
      </trkpt>
      <trkpt lat="47.543816" lon="2.2196457">
        <ele>173</ele>
        <time>2022-06-09T08:08:58Z</time>
      </trkpt>
      <trkpt lat="47.54382" lon="2.21963">
        <ele>172</ele>
        <time>2022-06-09T08:08:59Z</time>
      </trkpt>
      <trkpt lat="47.543823" lon="2.219621">
        <ele>171</ele>
        <time>2022-06-09T08:09:00Z</time>
      </trkpt>
      <trkpt lat="47.54383" lon="2.2196052">
        <ele>171</ele>
        <time>2022-06-09T08:09:02Z</time>
      </trkpt>
      <trkpt lat="47.543835" lon="2.2195907">
        <ele>170</ele>
        <time>2022-06-09T08:09:03Z</time>
      </trkpt>
      <trkpt lat="47.543842" lon="2.2195747">
        <ele>170</ele>
        <time>2022-06-09T08:09:04Z</time>
      </trkpt>
      <trkpt lat="47.54385" lon="2.2195604">
        <ele>169</ele>
        <time>2022-06-09T08:09:05Z</time>
      </trkpt>
      <trkpt lat="47.543854" lon="2.2195508">
        <ele>170</ele>
        <time>2022-06-09T08:09:06Z</time>
      </trkpt>
      <trkpt lat="47.54386" lon="2.2195394">
        <ele>170</ele>
        <time>2022-06-09T08:09:07Z</time>
      </trkpt>
      <trkpt lat="47.54387" lon="2.2195272">
        <ele>169</ele>
        <time>2022-06-09T08:09:08Z</time>
      </trkpt>
      <trkpt lat="47.543877" lon="2.2195163">
        <ele>169</ele>
        <time>2022-06-09T08:09:09Z</time>
      </trkpt>
      <trkpt lat="47.543888" lon="2.219506">
        <ele>169</ele>
        <time>2022-06-09T08:09:10Z</time>
      </trkpt>
      <trkpt lat="47.5439" lon="2.2194965">
        <ele>169</ele>
        <time>2022-06-09T08:09:11Z</time>
      </trkpt>
      <trkpt lat="47.54392" lon="2.2194822">
        <ele>168</ele>
        <time>2022-06-09T08:09:12Z</time>
      </trkpt>
      <trkpt lat="47.54393" lon="2.2194653">
        <ele>168</ele>
        <time>2022-06-09T08:09:13Z</time>
      </trkpt>
      <trkpt lat="47.54394" lon="2.2194512">
        <ele>168</ele>
        <time>2022-06-09T08:09:14Z</time>
      </trkpt>
      <trkpt lat="47.54395" lon="2.219435">
        <ele>168</ele>
        <time>2022-06-09T08:09:15Z</time>
      </trkpt>
      <trkpt lat="47.543957" lon="2.2194219">
        <ele>168</ele>
        <time>2022-06-09T08:09:16Z</time>
      </trkpt>
      <trkpt lat="47.543964" lon="2.219411">
        <ele>168</ele>
        <time>2022-06-09T08:09:17Z</time>
      </trkpt>
      <trkpt lat="47.543972" lon="2.219397">
        <ele>168</ele>
        <time>2022-06-09T08:09:18Z</time>
      </trkpt>
      <trkpt lat="47.543976" lon="2.2193794">
        <ele>168</ele>
        <time>2022-06-09T08:09:19Z</time>
      </trkpt>
      <trkpt lat="47.543976" lon="2.2193599">
        <ele>168</ele>
        <time>2022-06-09T08:09:20Z</time>
      </trkpt>
      <trkpt lat="47.543987" lon="2.219341">
        <ele>168</ele>
        <time>2022-06-09T08:09:21Z</time>
      </trkpt>
      <trkpt lat="47.543995" lon="2.2193234">
        <ele>168</ele>
        <time>2022-06-09T08:09:22Z</time>
      </trkpt>
      <trkpt lat="47.544" lon="2.2193058">
        <ele>168</ele>
        <time>2022-06-09T08:09:23Z</time>
      </trkpt>
      <trkpt lat="47.544006" lon="2.2192898">
        <ele>169</ele>
        <time>2022-06-09T08:09:24Z</time>
      </trkpt>
      <trkpt lat="47.54401" lon="2.219267">
        <ele>168</ele>
        <time>2022-06-09T08:09:25Z</time>
      </trkpt>
      <trkpt lat="47.54402" lon="2.2192476">
        <ele>168</ele>
        <time>2022-06-09T08:09:26Z</time>
      </trkpt>
      <trkpt lat="47.54403" lon="2.2192333">
        <ele>168</ele>
        <time>2022-06-09T08:09:27Z</time>
      </trkpt>
      <trkpt lat="47.54404" lon="2.2192216">
        <ele>168</ele>
        <time>2022-06-09T08:09:28Z</time>
      </trkpt>
      <trkpt lat="47.544052" lon="2.2192073">
        <ele>168</ele>
        <time>2022-06-09T08:09:29Z</time>
      </trkpt>
      <trkpt lat="47.54406" lon="2.2191901">
        <ele>168</ele>
        <time>2022-06-09T08:09:30Z</time>
      </trkpt>
      <trkpt lat="47.54407" lon="2.219176">
        <ele>168</ele>
        <time>2022-06-09T08:09:31Z</time>
      </trkpt>
      <trkpt lat="47.54408" lon="2.2191634">
        <ele>168</ele>
        <time>2022-06-09T08:09:32Z</time>
      </trkpt>
      <trkpt lat="47.544086" lon="2.2191513">
        <ele>168</ele>
        <time>2022-06-09T08:09:33Z</time>
      </trkpt>
      <trkpt lat="47.54409" lon="2.2191358">
        <ele>168</ele>
        <time>2022-06-09T08:09:34Z</time>
      </trkpt>
      <trkpt lat="47.5441" lon="2.2191186">
        <ele>169</ele>
        <time>2022-06-09T08:09:35Z</time>
      </trkpt>
      <trkpt lat="47.54411" lon="2.219106">
        <ele>170</ele>
        <time>2022-06-09T08:09:36Z</time>
      </trkpt>
      <trkpt lat="47.544113" lon="2.219092">
        <ele>170</ele>
        <time>2022-06-09T08:09:37Z</time>
      </trkpt>
      <trkpt lat="47.54412" lon="2.219081">
        <ele>170</ele>
        <time>2022-06-09T08:09:38Z</time>
      </trkpt>
      <trkpt lat="47.54413" lon="2.2190678">
        <ele>170</ele>
        <time>2022-06-09T08:09:39Z</time>
      </trkpt>
      <trkpt lat="47.54413" lon="2.2190533">
        <ele>171</ele>
        <time>2022-06-09T08:09:40Z</time>
      </trkpt>
      <trkpt lat="47.544136" lon="2.2190428">
        <ele>171</ele>
        <time>2022-06-09T08:09:41Z</time>
      </trkpt>
      <trkpt lat="47.544147" lon="2.2190337">
        <ele>171</ele>
        <time>2022-06-09T08:09:42Z</time>
      </trkpt>
      <trkpt lat="47.544155" lon="2.2190185">
        <ele>171</ele>
        <time>2022-06-09T08:09:43Z</time>
      </trkpt>
      <trkpt lat="47.544163" lon="2.2190094">
        <ele>171</ele>
        <time>2022-06-09T08:09:44Z</time>
      </trkpt>
      <trkpt lat="47.544174" lon="2.2189996">
        <ele>170</ele>
        <time>2022-06-09T08:09:45Z</time>
      </trkpt>
      <trkpt lat="47.54418" lon="2.218986">
        <ele>171</ele>
        <time>2022-06-09T08:09:46Z</time>
      </trkpt>
      <trkpt lat="47.54419" lon="2.2189696">
        <ele>171</ele>
        <time>2022-06-09T08:09:47Z</time>
      </trkpt>
      <trkpt lat="47.544197" lon="2.2189567">
        <ele>171</ele>
        <time>2022-06-09T08:09:48Z</time>
      </trkpt>
      <trkpt lat="47.5442" lon="2.2189376">
        <ele>171</ele>
        <time>2022-06-09T08:09:49Z</time>
      </trkpt>
      <trkpt lat="47.5442" lon="2.2189376">
        <ele>171</ele>
        <time>2022-06-09T08:09:50Z</time>
      </trkpt>
      <trkpt lat="47.544205" lon="2.2189286">
        <ele>171</ele>
        <time>2022-06-09T08:09:51Z</time>
      </trkpt>
      <trkpt lat="47.544212" lon="2.218909">
        <ele>171</ele>
        <time>2022-06-09T08:09:52Z</time>
      </trkpt>
      <trkpt lat="47.54422" lon="2.2188954">
        <ele>171</ele>
        <time>2022-06-09T08:09:53Z</time>
      </trkpt>
      <trkpt lat="47.54423" lon="2.2188795">
        <ele>171</ele>
        <time>2022-06-09T08:09:54Z</time>
      </trkpt>
      <trkpt lat="47.544235" lon="2.2188685">
        <ele>171</ele>
        <time>2022-06-09T08:09:55Z</time>
      </trkpt>
      <trkpt lat="47.544243" lon="2.2188516">
        <ele>171</ele>
        <time>2022-06-09T08:09:56Z</time>
      </trkpt>
      <trkpt lat="47.544243" lon="2.218832">
        <ele>172</ele>
        <time>2022-06-09T08:09:57Z</time>
      </trkpt>
      <trkpt lat="47.54425" lon="2.2188168">
        <ele>172</ele>
        <time>2022-06-09T08:09:58Z</time>
      </trkpt>
      <trkpt lat="47.544254" lon="2.2188013">
        <ele>173</ele>
        <time>2022-06-09T08:09:59Z</time>
      </trkpt>
      <trkpt lat="47.544254" lon="2.2188017">
        <ele>173</ele>
        <time>2022-06-09T08:10:00Z</time>
      </trkpt>
      <trkpt lat="47.544254" lon="2.2188025">
        <ele>173</ele>
        <time>2022-06-09T08:10:01Z</time>
      </trkpt>
      <trkpt lat="47.54426" lon="2.2187998">
        <ele>173</ele>
        <time>2022-06-09T08:10:02Z</time>
      </trkpt>
      <trkpt lat="47.544262" lon="2.2187953">
        <ele>174</ele>
        <time>2022-06-09T08:10:03Z</time>
      </trkpt>
      <trkpt lat="47.544262" lon="2.2187834">
        <ele>174</ele>
        <time>2022-06-09T08:10:04Z</time>
      </trkpt>
      <trkpt lat="47.54427" lon="2.2187674">
        <ele>174</ele>
        <time>2022-06-09T08:10:05Z</time>
      </trkpt>
      <trkpt lat="47.544273" lon="2.2187517">
        <ele>174</ele>
        <time>2022-06-09T08:10:06Z</time>
      </trkpt>
      <trkpt lat="47.54428" lon="2.2187345">
        <ele>175</ele>
        <time>2022-06-09T08:10:07Z</time>
      </trkpt>
      <trkpt lat="47.54429" lon="2.2187147">
        <ele>176</ele>
        <time>2022-06-09T08:10:08Z</time>
      </trkpt>
      <trkpt lat="47.544296" lon="2.2186997">
        <ele>176</ele>
        <time>2022-06-09T08:10:09Z</time>
      </trkpt>
      <trkpt lat="47.5443" lon="2.2186825">
        <ele>177</ele>
        <time>2022-06-09T08:10:10Z</time>
      </trkpt>
      <trkpt lat="47.54431" lon="2.2186685">
        <ele>177</ele>
        <time>2022-06-09T08:10:11Z</time>
      </trkpt>
      <trkpt lat="47.544323" lon="2.2186534">
        <ele>178</ele>
        <time>2022-06-09T08:10:12Z</time>
      </trkpt>
      <trkpt lat="47.544334" lon="2.2186377">
        <ele>178</ele>
        <time>2022-06-09T08:10:13Z</time>
      </trkpt>
      <trkpt lat="47.544342" lon="2.2186263">
        <ele>178</ele>
        <time>2022-06-09T08:10:14Z</time>
      </trkpt>
      <trkpt lat="47.544353" lon="2.2186139">
        <ele>178</ele>
        <time>2022-06-09T08:10:15Z</time>
      </trkpt>
      <trkpt lat="47.54436" lon="2.2185996">
        <ele>178</ele>
        <time>2022-06-09T08:10:16Z</time>
      </trkpt>
      <trkpt lat="47.54437" lon="2.2185924">
        <ele>178</ele>
        <time>2022-06-09T08:10:17Z</time>
      </trkpt>
      <trkpt lat="47.54438" lon="2.2185824">
        <ele>179</ele>
        <time>2022-06-09T08:10:18Z</time>
      </trkpt>
      <trkpt lat="47.54439" lon="2.2185667">
        <ele>178</ele>
        <time>2022-06-09T08:10:19Z</time>
      </trkpt>
      <trkpt lat="47.544403" lon="2.2185526">
        <ele>178</ele>
        <time>2022-06-09T08:10:20Z</time>
      </trkpt>
      <trkpt lat="47.54441" lon="2.2185302">
        <ele>179</ele>
        <time>2022-06-09T08:10:21Z</time>
      </trkpt>
      <trkpt lat="47.544415" lon="2.21851">
        <ele>180</ele>
        <time>2022-06-09T08:10:22Z</time>
      </trkpt>
      <trkpt lat="47.544422" lon="2.2184966">
        <ele>180</ele>
        <time>2022-06-09T08:10:23Z</time>
      </trkpt>
      <trkpt lat="47.544426" lon="2.218481">
        <ele>180</ele>
        <time>2022-06-09T08:10:24Z</time>
      </trkpt>
      <trkpt lat="47.544434" lon="2.2184606">
        <ele>180</ele>
        <time>2022-06-09T08:10:25Z</time>
      </trkpt>
      <trkpt lat="47.544445" lon="2.2184458">
        <ele>180</ele>
        <time>2022-06-09T08:10:26Z</time>
      </trkpt>
      <trkpt lat="47.544453" lon="2.2184286">
        <ele>181</ele>
        <time>2022-06-09T08:10:27Z</time>
      </trkpt>
      <trkpt lat="47.54446" lon="2.2184138">
        <ele>180</ele>
        <time>2022-06-09T08:10:28Z</time>
      </trkpt>
      <trkpt lat="47.544468" lon="2.2183988">
        <ele>180</ele>
        <time>2022-06-09T08:10:29Z</time>
      </trkpt>
      <trkpt lat="47.544476" lon="2.2183855">
        <ele>181</ele>
        <time>2022-06-09T08:10:30Z</time>
      </trkpt>
      <trkpt lat="47.544483" lon="2.2183702">
        <ele>181</ele>
        <time>2022-06-09T08:10:31Z</time>
      </trkpt>
      <trkpt lat="47.5445" lon="2.2183557">
        <ele>181</ele>
        <time>2022-06-09T08:10:32Z</time>
      </trkpt>
      <trkpt lat="47.544506" lon="2.2183404">
        <ele>181</ele>
        <time>2022-06-09T08:10:33Z</time>
      </trkpt>
      <trkpt lat="47.544514" lon="2.2183237">
        <ele>181</ele>
        <time>2022-06-09T08:10:34Z</time>
      </trkpt>
      <trkpt lat="47.54452" lon="2.2183049">
        <ele>181</ele>
        <time>2022-06-09T08:10:35Z</time>
      </trkpt>
      <trkpt lat="47.544533" lon="2.2182894">
        <ele>181</ele>
        <time>2022-06-09T08:10:36Z</time>
      </trkpt>
      <trkpt lat="47.54454" lon="2.218269">
        <ele>181</ele>
        <time>2022-06-09T08:10:37Z</time>
      </trkpt>
      <trkpt lat="47.544548" lon="2.218253">
        <ele>181</ele>
        <time>2022-06-09T08:10:38Z</time>
      </trkpt>
      <trkpt lat="47.544556" lon="2.2182388">
        <ele>181</ele>
        <time>2022-06-09T08:10:39Z</time>
      </trkpt>
      <trkpt lat="47.544567" lon="2.2182252">
        <ele>181</ele>
        <time>2022-06-09T08:10:40Z</time>
      </trkpt>
      <trkpt lat="47.544575" lon="2.2182157">
        <ele>181</ele>
        <time>2022-06-09T08:10:41Z</time>
      </trkpt>
      <trkpt lat="47.544582" lon="2.2182057">
        <ele>181</ele>
        <time>2022-06-09T08:10:42Z</time>
      </trkpt>
      <trkpt lat="47.544594" lon="2.2181907">
        <ele>181</ele>
        <time>2022-06-09T08:10:43Z</time>
      </trkpt>
      <trkpt lat="47.544605" lon="2.2181714">
        <ele>181</ele>
        <time>2022-06-09T08:10:44Z</time>
      </trkpt>
      <trkpt lat="47.544613" lon="2.2181535">
        <ele>181</ele>
        <time>2022-06-09T08:10:45Z</time>
      </trkpt>
      <trkpt lat="47.54462" lon="2.21814">
        <ele>181</ele>
        <time>2022-06-09T08:10:46Z</time>
      </trkpt>
      <trkpt lat="47.54463" lon="2.2181273">
        <ele>181</ele>
        <time>2022-06-09T08:10:47Z</time>
      </trkpt>
      <trkpt lat="47.544632" lon="2.2181172">
        <ele>181</ele>
        <time>2022-06-09T08:10:48Z</time>
      </trkpt>
      <trkpt lat="47.544636" lon="2.218097">
        <ele>182</ele>
        <time>2022-06-09T08:10:49Z</time>
      </trkpt>
      <trkpt lat="47.544643" lon="2.2180808">
        <ele>181</ele>
        <time>2022-06-09T08:10:50Z</time>
      </trkpt>
      <trkpt lat="47.54465" lon="2.2180605">
        <ele>181</ele>
        <time>2022-06-09T08:10:51Z</time>
      </trkpt>
      <trkpt lat="47.54466" lon="2.2180436">
        <ele>181</ele>
        <time>2022-06-09T08:10:52Z</time>
      </trkpt>
      <trkpt lat="47.544666" lon="2.2180247">
        <ele>181</ele>
        <time>2022-06-09T08:10:53Z</time>
      </trkpt>
      <trkpt lat="47.544674" lon="2.2180111">
        <ele>181</ele>
        <time>2022-06-09T08:10:54Z</time>
      </trkpt>
      <trkpt lat="47.54468" lon="2.2179956">
        <ele>181</ele>
        <time>2022-06-09T08:10:55Z</time>
      </trkpt>
      <trkpt lat="47.54469" lon="2.2179785">
        <ele>181</ele>
        <time>2022-06-09T08:10:56Z</time>
      </trkpt>
      <trkpt lat="47.544693" lon="2.2179606">
        <ele>181</ele>
        <time>2022-06-09T08:10:57Z</time>
      </trkpt>
      <trkpt lat="47.5447" lon="2.2179456">
        <ele>182</ele>
        <time>2022-06-09T08:10:58Z</time>
      </trkpt>
      <trkpt lat="47.544712" lon="2.2179334">
        <ele>182</ele>
        <time>2022-06-09T08:10:59Z</time>
      </trkpt>
      <trkpt lat="47.544724" lon="2.2179193">
        <ele>182</ele>
        <time>2022-06-09T08:11:00Z</time>
      </trkpt>
      <trkpt lat="47.54473" lon="2.2179077">
        <ele>182</ele>
        <time>2022-06-09T08:11:01Z</time>
      </trkpt>
      <trkpt lat="47.54474" lon="2.2178957">
        <ele>182</ele>
        <time>2022-06-09T08:11:02Z</time>
      </trkpt>
      <trkpt lat="47.54475" lon="2.2178802">
        <ele>183</ele>
        <time>2022-06-09T08:11:03Z</time>
      </trkpt>
      <trkpt lat="47.54476" lon="2.2178657">
        <ele>183</ele>
        <time>2022-06-09T08:11:04Z</time>
      </trkpt>
      <trkpt lat="47.54477" lon="2.2178504">
        <ele>182</ele>
        <time>2022-06-09T08:11:05Z</time>
      </trkpt>
      <trkpt lat="47.544777" lon="2.2178361">
        <ele>182</ele>
        <time>2022-06-09T08:11:06Z</time>
      </trkpt>
      <trkpt lat="47.544785" lon="2.2178226">
        <ele>182</ele>
        <time>2022-06-09T08:11:07Z</time>
      </trkpt>
      <trkpt lat="47.544792" lon="2.2178106">
        <ele>183</ele>
        <time>2022-06-09T08:11:08Z</time>
      </trkpt>
      <trkpt lat="47.5448" lon="2.2177987">
        <ele>183</ele>
        <time>2022-06-09T08:11:09Z</time>
      </trkpt>
      <trkpt lat="47.54481" lon="2.2177866">
        <ele>183</ele>
        <time>2022-06-09T08:11:10Z</time>
      </trkpt>
      <trkpt lat="47.544823" lon="2.2177744">
        <ele>182</ele>
        <time>2022-06-09T08:11:11Z</time>
      </trkpt>
      <trkpt lat="47.54483" lon="2.2177603">
        <ele>182</ele>
        <time>2022-06-09T08:11:12Z</time>
      </trkpt>
      <trkpt lat="47.544834" lon="2.217744">
        <ele>182</ele>
        <time>2022-06-09T08:11:13Z</time>
      </trkpt>
      <trkpt lat="47.544846" lon="2.2177308">
        <ele>183</ele>
        <time>2022-06-09T08:11:14Z</time>
      </trkpt>
      <trkpt lat="47.54485" lon="2.2177186">
        <ele>183</ele>
        <time>2022-06-09T08:11:15Z</time>
      </trkpt>
      <trkpt lat="47.544853" lon="2.2177029">
        <ele>183</ele>
        <time>2022-06-09T08:11:16Z</time>
      </trkpt>
      <trkpt lat="47.54486" lon="2.2176812">
        <ele>183</ele>
        <time>2022-06-09T08:11:17Z</time>
      </trkpt>
      <trkpt lat="47.544865" lon="2.217662">
        <ele>183</ele>
        <time>2022-06-09T08:11:18Z</time>
      </trkpt>
      <trkpt lat="47.544872" lon="2.2176456">
        <ele>183</ele>
        <time>2022-06-09T08:11:19Z</time>
      </trkpt>
      <trkpt lat="47.544884" lon="2.2176316">
        <ele>183</ele>
        <time>2022-06-09T08:11:20Z</time>
      </trkpt>
      <trkpt lat="47.54489" lon="2.2176144">
        <ele>183</ele>
        <time>2022-06-09T08:11:21Z</time>
      </trkpt>
      <trkpt lat="47.5449" lon="2.2176037">
        <ele>183</ele>
        <time>2022-06-09T08:11:22Z</time>
      </trkpt>
      <trkpt lat="47.54491" lon="2.2175894">
        <ele>183</ele>
        <time>2022-06-09T08:11:23Z</time>
      </trkpt>
      <trkpt lat="47.54492" lon="2.2175765">
        <ele>183</ele>
        <time>2022-06-09T08:11:24Z</time>
      </trkpt>
      <trkpt lat="47.544937" lon="2.2175603">
        <ele>183</ele>
        <time>2022-06-09T08:11:25Z</time>
      </trkpt>
      <trkpt lat="47.54495" lon="2.2175498">
        <ele>183</ele>
        <time>2022-06-09T08:11:26Z</time>
      </trkpt>
      <trkpt lat="47.544956" lon="2.217541">
        <ele>183</ele>
        <time>2022-06-09T08:11:27Z</time>
      </trkpt>
      <trkpt lat="47.544968" lon="2.2175248">
        <ele>183</ele>
        <time>2022-06-09T08:11:28Z</time>
      </trkpt>
      <trkpt lat="47.544975" lon="2.2175097">
        <ele>183</ele>
        <time>2022-06-09T08:11:29Z</time>
      </trkpt>
      <trkpt lat="47.544987" lon="2.2174919">
        <ele>184</ele>
        <time>2022-06-09T08:11:30Z</time>
      </trkpt>
      <trkpt lat="47.545" lon="2.2174773">
        <ele>183</ele>
        <time>2022-06-09T08:11:31Z</time>
      </trkpt>
      <trkpt lat="47.545006" lon="2.2174606">
        <ele>184</ele>
        <time>2022-06-09T08:11:32Z</time>
      </trkpt>
      <trkpt lat="47.54501" lon="2.2174432">
        <ele>184</ele>
        <time>2022-06-09T08:11:33Z</time>
      </trkpt>
      <trkpt lat="47.545017" lon="2.2174253">
        <ele>184</ele>
        <time>2022-06-09T08:11:34Z</time>
      </trkpt>
      <trkpt lat="47.545025" lon="2.2174108">
        <ele>184</ele>
        <time>2022-06-09T08:11:35Z</time>
      </trkpt>
      <trkpt lat="47.54503" lon="2.2173963">
        <ele>184</ele>
        <time>2022-06-09T08:11:36Z</time>
      </trkpt>
      <trkpt lat="47.545036" lon="2.2173839">
        <ele>185</ele>
        <time>2022-06-09T08:11:37Z</time>
      </trkpt>
      <trkpt lat="47.545044" lon="2.217366">
        <ele>185</ele>
        <time>2022-06-09T08:11:38Z</time>
      </trkpt>
      <trkpt lat="47.54505" lon="2.2173548">
        <ele>184</ele>
        <time>2022-06-09T08:11:39Z</time>
      </trkpt>
      <trkpt lat="47.54506" lon="2.2173417">
        <ele>184</ele>
        <time>2022-06-09T08:11:40Z</time>
      </trkpt>
      <trkpt lat="47.545067" lon="2.2173324">
        <ele>184</ele>
        <time>2022-06-09T08:11:41Z</time>
      </trkpt>
      <trkpt lat="47.54507" lon="2.2173193">
        <ele>183</ele>
        <time>2022-06-09T08:11:42Z</time>
      </trkpt>
      <trkpt lat="47.54508" lon="2.2173054">
        <ele>183</ele>
        <time>2022-06-09T08:11:43Z</time>
      </trkpt>
      <trkpt lat="47.545082" lon="2.2172918">
        <ele>183</ele>
        <time>2022-06-09T08:11:44Z</time>
      </trkpt>
      <trkpt lat="47.54509" lon="2.2172828">
        <ele>183</ele>
        <time>2022-06-09T08:11:45Z</time>
      </trkpt>
      <trkpt lat="47.5451" lon="2.2172716">
        <ele>183</ele>
        <time>2022-06-09T08:11:46Z</time>
      </trkpt>
      <trkpt lat="47.54511" lon="2.2172577">
        <ele>183</ele>
        <time>2022-06-09T08:11:47Z</time>
      </trkpt>
      <trkpt lat="47.545116" lon="2.2172499">
        <ele>183</ele>
        <time>2022-06-09T08:11:48Z</time>
      </trkpt>
      <trkpt lat="47.545124" lon="2.2172403">
        <ele>183</ele>
        <time>2022-06-09T08:11:49Z</time>
      </trkpt>
      <trkpt lat="47.54513" lon="2.217229">
        <ele>183</ele>
        <time>2022-06-09T08:11:50Z</time>
      </trkpt>
      <trkpt lat="47.54514" lon="2.2172117">
        <ele>183</ele>
        <time>2022-06-09T08:11:51Z</time>
      </trkpt>
      <trkpt lat="47.545147" lon="2.2171955">
        <ele>184</ele>
        <time>2022-06-09T08:11:52Z</time>
      </trkpt>
      <trkpt lat="47.545155" lon="2.2171824">
        <ele>184</ele>
        <time>2022-06-09T08:11:53Z</time>
      </trkpt>
      <trkpt lat="47.545162" lon="2.2171676">
        <ele>184</ele>
        <time>2022-06-09T08:11:54Z</time>
      </trkpt>
      <trkpt lat="47.54517" lon="2.217153">
        <ele>184</ele>
        <time>2022-06-09T08:11:55Z</time>
      </trkpt>
      <trkpt lat="47.545174" lon="2.2171412">
        <ele>184</ele>
        <time>2022-06-09T08:11:56Z</time>
      </trkpt>
      <trkpt lat="47.545185" lon="2.2171237">
        <ele>184</ele>
        <time>2022-06-09T08:11:57Z</time>
      </trkpt>
      <trkpt lat="47.545193" lon="2.2171032">
        <ele>183</ele>
        <time>2022-06-09T08:11:58Z</time>
      </trkpt>
      <trkpt lat="47.545204" lon="2.2170856">
        <ele>183</ele>
        <time>2022-06-09T08:11:59Z</time>
      </trkpt>
      <trkpt lat="47.545216" lon="2.2170649">
        <ele>183</ele>
        <time>2022-06-09T08:12:00Z</time>
      </trkpt>
      <trkpt lat="47.545223" lon="2.2170453">
        <ele>183</ele>
        <time>2022-06-09T08:12:01Z</time>
      </trkpt>
      <trkpt lat="47.545235" lon="2.2170298">
        <ele>183</ele>
        <time>2022-06-09T08:12:02Z</time>
      </trkpt>
      <trkpt lat="47.545242" lon="2.2170174">
        <ele>183</ele>
        <time>2022-06-09T08:12:03Z</time>
      </trkpt>
      <trkpt lat="47.545254" lon="2.2170002">
        <ele>183</ele>
        <time>2022-06-09T08:12:04Z</time>
      </trkpt>
      <trkpt lat="47.54526" lon="2.2169907">
        <ele>183</ele>
        <time>2022-06-09T08:12:05Z</time>
      </trkpt>
      <trkpt lat="47.545273" lon="2.2169793">
        <ele>183</ele>
        <time>2022-06-09T08:12:06Z</time>
      </trkpt>
      <trkpt lat="47.545284" lon="2.2169676">
        <ele>184</ele>
        <time>2022-06-09T08:12:07Z</time>
      </trkpt>
      <trkpt lat="47.545296" lon="2.216952">
        <ele>184</ele>
        <time>2022-06-09T08:12:08Z</time>
      </trkpt>
      <trkpt lat="47.5453" lon="2.2169378">
        <ele>184</ele>
        <time>2022-06-09T08:12:09Z</time>
      </trkpt>
      <trkpt lat="47.545307" lon="2.2169232">
        <ele>184</ele>
        <time>2022-06-09T08:12:10Z</time>
      </trkpt>
      <trkpt lat="47.545315" lon="2.2169087">
        <ele>184</ele>
        <time>2022-06-09T08:12:11Z</time>
      </trkpt>
      <trkpt lat="47.54532" lon="2.2168994">
        <ele>184</ele>
        <time>2022-06-09T08:12:12Z</time>
      </trkpt>
      <trkpt lat="47.54533" lon="2.216886">
        <ele>183</ele>
        <time>2022-06-09T08:12:13Z</time>
      </trkpt>
      <trkpt lat="47.545334" lon="2.2168717">
        <ele>183</ele>
        <time>2022-06-09T08:12:14Z</time>
      </trkpt>
      <trkpt lat="47.54534" lon="2.21686">
        <ele>182</ele>
        <time>2022-06-09T08:12:15Z</time>
      </trkpt>
      <trkpt lat="47.54535" lon="2.2168498">
        <ele>182</ele>
        <time>2022-06-09T08:12:16Z</time>
      </trkpt>
      <trkpt lat="47.54536" lon="2.2168412">
        <ele>182</ele>
        <time>2022-06-09T08:12:17Z</time>
      </trkpt>
      <trkpt lat="47.54537" lon="2.2168362">
        <ele>182</ele>
        <time>2022-06-09T08:12:18Z</time>
      </trkpt>
      <trkpt lat="47.545376" lon="2.2168267">
        <ele>182</ele>
        <time>2022-06-09T08:12:19Z</time>
      </trkpt>
      <trkpt lat="47.545376" lon="2.216809">
        <ele>181</ele>
        <time>2022-06-09T08:12:20Z</time>
      </trkpt>
      <trkpt lat="47.545383" lon="2.2167892">
        <ele>181</ele>
        <time>2022-06-09T08:12:21Z</time>
      </trkpt>
      <trkpt lat="47.545387" lon="2.216775">
        <ele>181</ele>
        <time>2022-06-09T08:12:22Z</time>
      </trkpt>
      <trkpt lat="47.545395" lon="2.2167618">
        <ele>181</ele>
        <time>2022-06-09T08:12:23Z</time>
      </trkpt>
      <trkpt lat="47.5454" lon="2.2167475">
        <ele>181</ele>
        <time>2022-06-09T08:12:24Z</time>
      </trkpt>
      <trkpt lat="47.545406" lon="2.2167308">
        <ele>181</ele>
        <time>2022-06-09T08:12:25Z</time>
      </trkpt>
      <trkpt lat="47.545414" lon="2.216718">
        <ele>181</ele>
        <time>2022-06-09T08:12:26Z</time>
      </trkpt>
      <trkpt lat="47.54542" lon="2.2167053">
        <ele>181</ele>
        <time>2022-06-09T08:12:27Z</time>
      </trkpt>
      <trkpt lat="47.545433" lon="2.21669">
        <ele>180</ele>
        <time>2022-06-09T08:12:28Z</time>
      </trkpt>
      <trkpt lat="47.54544" lon="2.2166774">
        <ele>181</ele>
        <time>2022-06-09T08:12:29Z</time>
      </trkpt>
      <trkpt lat="47.54545" lon="2.2166634">
        <ele>181</ele>
        <time>2022-06-09T08:12:30Z</time>
      </trkpt>
      <trkpt lat="47.545452" lon="2.2166464">
        <ele>181</ele>
        <time>2022-06-09T08:12:31Z</time>
      </trkpt>
      <trkpt lat="47.545456" lon="2.216637">
        <ele>181</ele>
        <time>2022-06-09T08:12:32Z</time>
      </trkpt>
      <trkpt lat="47.545464" lon="2.216624">
        <ele>181</ele>
        <time>2022-06-09T08:12:33Z</time>
      </trkpt>
      <trkpt lat="47.54547" lon="2.2166092">
        <ele>181</ele>
        <time>2022-06-09T08:12:34Z</time>
      </trkpt>
      <trkpt lat="47.545475" lon="2.2165945">
        <ele>181</ele>
        <time>2022-06-09T08:12:35Z</time>
      </trkpt>
      <trkpt lat="47.545483" lon="2.216582">
        <ele>180</ele>
        <time>2022-06-09T08:12:36Z</time>
      </trkpt>
      <trkpt lat="47.545494" lon="2.2165725">
        <ele>180</ele>
        <time>2022-06-09T08:12:37Z</time>
      </trkpt>
      <trkpt lat="47.5455" lon="2.216557">
        <ele>180</ele>
        <time>2022-06-09T08:12:38Z</time>
      </trkpt>
      <trkpt lat="47.54551" lon="2.2165375">
        <ele>180</ele>
        <time>2022-06-09T08:12:39Z</time>
      </trkpt>
      <trkpt lat="47.545513" lon="2.2165155">
        <ele>179</ele>
        <time>2022-06-09T08:12:40Z</time>
      </trkpt>
      <trkpt lat="47.545525" lon="2.2165024">
        <ele>179</ele>
        <time>2022-06-09T08:12:41Z</time>
      </trkpt>
      <trkpt lat="47.545532" lon="2.2164865">
        <ele>179</ele>
        <time>2022-06-09T08:12:42Z</time>
      </trkpt>
      <trkpt lat="47.545544" lon="2.2164667">
        <ele>179</ele>
        <time>2022-06-09T08:12:43Z</time>
      </trkpt>
      <trkpt lat="47.54555" lon="2.2164493">
        <ele>179</ele>
        <time>2022-06-09T08:12:44Z</time>
      </trkpt>
      <trkpt lat="47.54556" lon="2.2164385">
        <ele>180</ele>
        <time>2022-06-09T08:12:45Z</time>
      </trkpt>
      <trkpt lat="47.545567" lon="2.2164276">
        <ele>180</ele>
        <time>2022-06-09T08:12:46Z</time>
      </trkpt>
      <trkpt lat="47.545574" lon="2.2164187">
        <ele>179</ele>
        <time>2022-06-09T08:12:47Z</time>
      </trkpt>
      <trkpt lat="47.54558" lon="2.2164104">
        <ele>179</ele>
        <time>2022-06-09T08:12:48Z</time>
      </trkpt>
      <trkpt lat="47.54559" lon="2.2163992">
        <ele>179</ele>
        <time>2022-06-09T08:12:49Z</time>
      </trkpt>
      <trkpt lat="47.545597" lon="2.2163827">
        <ele>179</ele>
        <time>2022-06-09T08:12:50Z</time>
      </trkpt>
      <trkpt lat="47.545605" lon="2.2163649">
        <ele>179</ele>
        <time>2022-06-09T08:12:51Z</time>
      </trkpt>
      <trkpt lat="47.545616" lon="2.216351">
        <ele>180</ele>
        <time>2022-06-09T08:12:52Z</time>
      </trkpt>
      <trkpt lat="47.545628" lon="2.2163398">
        <ele>180</ele>
        <time>2022-06-09T08:12:53Z</time>
      </trkpt>
      <trkpt lat="47.545635" lon="2.21633">
        <ele>180</ele>
        <time>2022-06-09T08:12:54Z</time>
      </trkpt>
      <trkpt lat="47.545647" lon="2.2163157">
        <ele>180</ele>
        <time>2022-06-09T08:12:55Z</time>
      </trkpt>
      <trkpt lat="47.54566" lon="2.2162986">
        <ele>180</ele>
        <time>2022-06-09T08:12:56Z</time>
      </trkpt>
      <trkpt lat="47.545666" lon="2.2162821">
        <ele>180</ele>
        <time>2022-06-09T08:12:57Z</time>
      </trkpt>
      <trkpt lat="47.545673" lon="2.2162702">
        <ele>180</ele>
        <time>2022-06-09T08:12:58Z</time>
      </trkpt>
      <trkpt lat="47.54569" lon="2.2162528">
        <ele>180</ele>
        <time>2022-06-09T08:12:59Z</time>
      </trkpt>
      <trkpt lat="47.545692" lon="2.2162342">
        <ele>180</ele>
        <time>2022-06-09T08:13:00Z</time>
      </trkpt>
      <trkpt lat="47.5457" lon="2.2162187">
        <ele>180</ele>
        <time>2022-06-09T08:13:01Z</time>
      </trkpt>
      <trkpt lat="47.54571" lon="2.2162037">
        <ele>181</ele>
        <time>2022-06-09T08:13:02Z</time>
      </trkpt>
      <trkpt lat="47.545723" lon="2.2161863">
        <ele>181</ele>
        <time>2022-06-09T08:13:03Z</time>
      </trkpt>
      <trkpt lat="47.545734" lon="2.216174">
        <ele>180</ele>
        <time>2022-06-09T08:13:04Z</time>
      </trkpt>
      <trkpt lat="47.545746" lon="2.2161605">
        <ele>180</ele>
        <time>2022-06-09T08:13:05Z</time>
      </trkpt>
      <trkpt lat="47.545753" lon="2.2161472">
        <ele>180</ele>
        <time>2022-06-09T08:13:06Z</time>
      </trkpt>
      <trkpt lat="47.545765" lon="2.2161357">
        <ele>180</ele>
        <time>2022-06-09T08:13:07Z</time>
      </trkpt>
      <trkpt lat="47.545773" lon="2.2161243">
        <ele>180</ele>
        <time>2022-06-09T08:13:08Z</time>
      </trkpt>
      <trkpt lat="47.54578" lon="2.2161093">
        <ele>180</ele>
        <time>2022-06-09T08:13:09Z</time>
      </trkpt>
      <trkpt lat="47.54579" lon="2.2160947">
        <ele>180</ele>
        <time>2022-06-09T08:13:10Z</time>
      </trkpt>
      <trkpt lat="47.5458" lon="2.21608">
        <ele>180</ele>
        <time>2022-06-09T08:13:11Z</time>
      </trkpt>
      <trkpt lat="47.545803" lon="2.2160652">
        <ele>180</ele>
        <time>2022-06-09T08:13:12Z</time>
      </trkpt>
      <trkpt lat="47.54581" lon="2.216053">
        <ele>181</ele>
        <time>2022-06-09T08:13:13Z</time>
      </trkpt>
      <trkpt lat="47.54582" lon="2.2160382">
        <ele>181</ele>
        <time>2022-06-09T08:13:14Z</time>
      </trkpt>
      <trkpt lat="47.545822" lon="2.216021">
        <ele>180</ele>
        <time>2022-06-09T08:13:15Z</time>
      </trkpt>
      <trkpt lat="47.545826" lon="2.2160063">
        <ele>180</ele>
        <time>2022-06-09T08:13:16Z</time>
      </trkpt>
      <trkpt lat="47.545834" lon="2.21599">
        <ele>181</ele>
        <time>2022-06-09T08:13:17Z</time>
      </trkpt>
      <trkpt lat="47.54584" lon="2.2159798">
        <ele>181</ele>
        <time>2022-06-09T08:13:18Z</time>
      </trkpt>
      <trkpt lat="47.54585" lon="2.215969">
        <ele>181</ele>
        <time>2022-06-09T08:13:19Z</time>
      </trkpt>
      <trkpt lat="47.545856" lon="2.215958">
        <ele>181</ele>
        <time>2022-06-09T08:13:20Z</time>
      </trkpt>
      <trkpt lat="47.545864" lon="2.2159445">
        <ele>181</ele>
        <time>2022-06-09T08:13:21Z</time>
      </trkpt>
      <trkpt lat="47.54587" lon="2.215935">
        <ele>181</ele>
        <time>2022-06-09T08:13:22Z</time>
      </trkpt>
      <trkpt lat="47.545876" lon="2.2159195">
        <ele>181</ele>
        <time>2022-06-09T08:13:23Z</time>
      </trkpt>
      <trkpt lat="47.54588" lon="2.2159066">
        <ele>181</ele>
        <time>2022-06-09T08:13:24Z</time>
      </trkpt>
      <trkpt lat="47.545883" lon="2.2158873">
        <ele>181</ele>
        <time>2022-06-09T08:13:25Z</time>
      </trkpt>
      <trkpt lat="47.54589" lon="2.2158716">
        <ele>181</ele>
        <time>2022-06-09T08:13:26Z</time>
      </trkpt>
      <trkpt lat="47.5459" lon="2.2158537">
        <ele>181</ele>
        <time>2022-06-09T08:13:27Z</time>
      </trkpt>
      <trkpt lat="47.545902" lon="2.2158341">
        <ele>181</ele>
        <time>2022-06-09T08:13:28Z</time>
      </trkpt>
      <trkpt lat="47.545914" lon="2.215816">
        <ele>181</ele>
        <time>2022-06-09T08:13:29Z</time>
      </trkpt>
      <trkpt lat="47.54592" lon="2.2158089">
        <ele>181</ele>
        <time>2022-06-09T08:13:30Z</time>
      </trkpt>
      <trkpt lat="47.545933" lon="2.2158077">
        <ele>180</ele>
        <time>2022-06-09T08:13:31Z</time>
      </trkpt>
      <trkpt lat="47.54596" lon="2.2157886">
        <ele>180</ele>
        <time>2022-06-09T08:13:32Z</time>
      </trkpt>
      <trkpt lat="47.54597" lon="2.2157757">
        <ele>179</ele>
        <time>2022-06-09T08:13:33Z</time>
      </trkpt>
      <trkpt lat="47.54598" lon="2.2157588">
        <ele>180</ele>
        <time>2022-06-09T08:13:34Z</time>
      </trkpt>
      <trkpt lat="47.54599" lon="2.2157362">
        <ele>180</ele>
        <time>2022-06-09T08:13:35Z</time>
      </trkpt>
      <trkpt lat="47.54599" lon="2.2157362">
        <ele>180</ele>
        <time>2022-06-09T08:13:35Z</time>
      </trkpt>
      <trkpt lat="47.546" lon="2.2156997">
        <ele>180</ele>
        <time>2022-06-09T08:13:37Z</time>
      </trkpt>
      <trkpt lat="47.546" lon="2.2156997">
        <ele>180</ele>
        <time>2022-06-09T08:13:37Z</time>
      </trkpt>
      <trkpt lat="47.546017" lon="2.2156706">
        <ele>179</ele>
        <time>2022-06-09T08:13:39Z</time>
      </trkpt>
      <trkpt lat="47.54602" lon="2.2156503">
        <ele>179</ele>
        <time>2022-06-09T08:13:40Z</time>
      </trkpt>
      <trkpt lat="47.54602" lon="2.2156503">
        <ele>179</ele>
        <time>2022-06-09T08:13:40Z</time>
      </trkpt>
      <trkpt lat="47.546036" lon="2.2156167">
        <ele>180</ele>
        <time>2022-06-09T08:13:42Z</time>
      </trkpt>
      <trkpt lat="47.54604" lon="2.2155995">
        <ele>180</ele>
        <time>2022-06-09T08:13:43Z</time>
      </trkpt>
      <trkpt lat="47.546043" lon="2.215587">
        <ele>180</ele>
        <time>2022-06-09T08:13:44Z</time>
      </trkpt>
      <trkpt lat="47.546043" lon="2.215587">
        <ele>180</ele>
        <time>2022-06-09T08:13:44Z</time>
      </trkpt>
      <trkpt lat="47.546055" lon="2.2155604">
        <ele>181</ele>
        <time>2022-06-09T08:13:46Z</time>
      </trkpt>
      <trkpt lat="47.54606" lon="2.2155442">
        <ele>180</ele>
        <time>2022-06-09T08:13:47Z</time>
      </trkpt>
      <trkpt lat="47.546062" lon="2.2155318">
        <ele>180</ele>
        <time>2022-06-09T08:13:48Z</time>
      </trkpt>
      <trkpt lat="47.546066" lon="2.2155209">
        <ele>180</ele>
        <time>2022-06-09T08:13:49Z</time>
      </trkpt>
      <trkpt lat="47.546074" lon="2.2155058">
        <ele>180</ele>
        <time>2022-06-09T08:13:50Z</time>
      </trkpt>
      <trkpt lat="47.54608" lon="2.215487">
        <ele>180</ele>
        <time>2022-06-09T08:13:51Z</time>
      </trkpt>
      <trkpt lat="47.546093" lon="2.2154732">
        <ele>180</ele>
        <time>2022-06-09T08:13:52Z</time>
      </trkpt>
      <trkpt lat="47.5461" lon="2.2154589">
        <ele>180</ele>
        <time>2022-06-09T08:13:53Z</time>
      </trkpt>
      <trkpt lat="47.546104" lon="2.2154438">
        <ele>180</ele>
        <time>2022-06-09T08:13:54Z</time>
      </trkpt>
      <trkpt lat="47.54612" lon="2.215426">
        <ele>180</ele>
        <time>2022-06-09T08:13:55Z</time>
      </trkpt>
      <trkpt lat="47.546127" lon="2.2154155">
        <ele>180</ele>
        <time>2022-06-09T08:13:56Z</time>
      </trkpt>
      <trkpt lat="47.54614" lon="2.2154021">
        <ele>180</ele>
        <time>2022-06-09T08:13:57Z</time>
      </trkpt>
      <trkpt lat="47.546146" lon="2.2153914">
        <ele>180</ele>
        <time>2022-06-09T08:13:58Z</time>
      </trkpt>
      <trkpt lat="47.546154" lon="2.2153742">
        <ele>180</ele>
        <time>2022-06-09T08:13:59Z</time>
      </trkpt>
      <trkpt lat="47.546158" lon="2.2153583">
        <ele>180</ele>
        <time>2022-06-09T08:14:00Z</time>
      </trkpt>
      <trkpt lat="47.546165" lon="2.2153423">
        <ele>180</ele>
        <time>2022-06-09T08:14:01Z</time>
      </trkpt>
      <trkpt lat="47.546165" lon="2.2153292">
        <ele>179</ele>
        <time>2022-06-09T08:14:02Z</time>
      </trkpt>
      <trkpt lat="47.546173" lon="2.2153122">
        <ele>179</ele>
        <time>2022-06-09T08:14:03Z</time>
      </trkpt>
      <trkpt lat="47.54618" lon="2.2152922">
        <ele>179</ele>
        <time>2022-06-09T08:14:04Z</time>
      </trkpt>
      <trkpt lat="47.54619" lon="2.21528">
        <ele>179</ele>
        <time>2022-06-09T08:14:05Z</time>
      </trkpt>
      <trkpt lat="47.5462" lon="2.2152689">
        <ele>179</ele>
        <time>2022-06-09T08:14:06Z</time>
      </trkpt>
      <trkpt lat="47.546207" lon="2.2152522">
        <ele>180</ele>
        <time>2022-06-09T08:14:07Z</time>
      </trkpt>
      <trkpt lat="47.546215" lon="2.2152379">
        <ele>180</ele>
        <time>2022-06-09T08:14:08Z</time>
      </trkpt>
      <trkpt lat="47.546227" lon="2.215224">
        <ele>180</ele>
        <time>2022-06-09T08:14:09Z</time>
      </trkpt>
      <trkpt lat="47.546234" lon="2.2152092">
        <ele>180</ele>
        <time>2022-06-09T08:14:10Z</time>
      </trkpt>
      <trkpt lat="47.546246" lon="2.2151916">
        <ele>181</ele>
        <time>2022-06-09T08:14:11Z</time>
      </trkpt>
      <trkpt lat="47.546257" lon="2.2151747">
        <ele>181</ele>
        <time>2022-06-09T08:14:12Z</time>
      </trkpt>
      <trkpt lat="47.546265" lon="2.215158">
        <ele>181</ele>
        <time>2022-06-09T08:14:13Z</time>
      </trkpt>
      <trkpt lat="47.54627" lon="2.215142">
        <ele>181</ele>
        <time>2022-06-09T08:14:14Z</time>
      </trkpt>
      <trkpt lat="47.546276" lon="2.2151265">
        <ele>181</ele>
        <time>2022-06-09T08:14:15Z</time>
      </trkpt>
      <trkpt lat="47.546284" lon="2.2151153">
        <ele>181</ele>
        <time>2022-06-09T08:14:16Z</time>
      </trkpt>
      <trkpt lat="47.546288" lon="2.2150996">
        <ele>182</ele>
        <time>2022-06-09T08:14:17Z</time>
      </trkpt>
      <trkpt lat="47.5463" lon="2.2150824">
        <ele>181</ele>
        <time>2022-06-09T08:14:18Z</time>
      </trkpt>
      <trkpt lat="47.546307" lon="2.215066">
        <ele>182</ele>
        <time>2022-06-09T08:14:19Z</time>
      </trkpt>
      <trkpt lat="47.54631" lon="2.2150538">
        <ele>182</ele>
        <time>2022-06-09T08:14:20Z</time>
      </trkpt>
      <trkpt lat="47.546318" lon="2.2150402">
        <ele>181</ele>
        <time>2022-06-09T08:14:21Z</time>
      </trkpt>
      <trkpt lat="47.54632" lon="2.215025">
        <ele>181</ele>
        <time>2022-06-09T08:14:22Z</time>
      </trkpt>
      <trkpt lat="47.54632" lon="2.2150114">
        <ele>181</ele>
        <time>2022-06-09T08:14:23Z</time>
      </trkpt>
      <trkpt lat="47.546326" lon="2.2149992">
        <ele>181</ele>
        <time>2022-06-09T08:14:24Z</time>
      </trkpt>
      <trkpt lat="47.54633" lon="2.2149866">
        <ele>181</ele>
        <time>2022-06-09T08:14:25Z</time>
      </trkpt>
      <trkpt lat="47.546337" lon="2.2149708">
        <ele>180</ele>
        <time>2022-06-09T08:14:26Z</time>
      </trkpt>
      <trkpt lat="47.54634" lon="2.214954">
        <ele>180</ele>
        <time>2022-06-09T08:14:27Z</time>
      </trkpt>
      <trkpt lat="47.546345" lon="2.214937">
        <ele>180</ele>
        <time>2022-06-09T08:14:28Z</time>
      </trkpt>
      <trkpt lat="47.546352" lon="2.2149236">
        <ele>180</ele>
        <time>2022-06-09T08:14:29Z</time>
      </trkpt>
      <trkpt lat="47.546356" lon="2.2149107">
        <ele>180</ele>
        <time>2022-06-09T08:14:30Z</time>
      </trkpt>
      <trkpt lat="47.546368" lon="2.2148936">
        <ele>180</ele>
        <time>2022-06-09T08:14:31Z</time>
      </trkpt>
      <trkpt lat="47.546375" lon="2.2148848">
        <ele>180</ele>
        <time>2022-06-09T08:14:32Z</time>
      </trkpt>
      <trkpt lat="47.54638" lon="2.2148738">
        <ele>180</ele>
        <time>2022-06-09T08:14:33Z</time>
      </trkpt>
      <trkpt lat="47.546383" lon="2.2148588">
        <ele>180</ele>
        <time>2022-06-09T08:14:34Z</time>
      </trkpt>
      <trkpt lat="47.546383" lon="2.2148402">
        <ele>180</ele>
        <time>2022-06-09T08:14:35Z</time>
      </trkpt>
      <trkpt lat="47.546387" lon="2.2148232">
        <ele>180</ele>
        <time>2022-06-09T08:14:36Z</time>
      </trkpt>
      <trkpt lat="47.546394" lon="2.21481">
        <ele>180</ele>
        <time>2022-06-09T08:14:37Z</time>
      </trkpt>
      <trkpt lat="47.546402" lon="2.214795">
        <ele>180</ele>
        <time>2022-06-09T08:14:38Z</time>
      </trkpt>
      <trkpt lat="47.546413" lon="2.2147799">
        <ele>179</ele>
        <time>2022-06-09T08:14:39Z</time>
      </trkpt>
      <trkpt lat="47.546425" lon="2.2147663">
        <ele>179</ele>
        <time>2022-06-09T08:14:40Z</time>
      </trkpt>
      <trkpt lat="47.546432" lon="2.2147496">
        <ele>179</ele>
        <time>2022-06-09T08:14:41Z</time>
      </trkpt>
      <trkpt lat="47.54644" lon="2.2147362">
        <ele>179</ele>
        <time>2022-06-09T08:14:42Z</time>
      </trkpt>
      <trkpt lat="47.54645" lon="2.2147193">
        <ele>179</ele>
        <time>2022-06-09T08:14:43Z</time>
      </trkpt>
      <trkpt lat="47.54646" lon="2.2147026">
        <ele>179</ele>
        <time>2022-06-09T08:14:44Z</time>
      </trkpt>
      <trkpt lat="47.546467" lon="2.21469">
        <ele>180</ele>
        <time>2022-06-09T08:14:45Z</time>
      </trkpt>
      <trkpt lat="47.546474" lon="2.2146757">
        <ele>180</ele>
        <time>2022-06-09T08:14:46Z</time>
      </trkpt>
      <trkpt lat="47.546486" lon="2.214659">
        <ele>180</ele>
        <time>2022-06-09T08:14:47Z</time>
      </trkpt>
      <trkpt lat="47.546497" lon="2.2146463">
        <ele>180</ele>
        <time>2022-06-09T08:14:48Z</time>
      </trkpt>
      <trkpt lat="47.546505" lon="2.214631">
        <ele>180</ele>
        <time>2022-06-09T08:14:49Z</time>
      </trkpt>
      <trkpt lat="47.546513" lon="2.2146175">
        <ele>180</ele>
        <time>2022-06-09T08:14:50Z</time>
      </trkpt>
      <trkpt lat="47.546524" lon="2.2145991">
        <ele>180</ele>
        <time>2022-06-09T08:14:51Z</time>
      </trkpt>
      <trkpt lat="47.54653" lon="2.2145844">
        <ele>180</ele>
        <time>2022-06-09T08:14:52Z</time>
      </trkpt>
      <trkpt lat="47.546543" lon="2.214568">
        <ele>180</ele>
        <time>2022-06-09T08:14:53Z</time>
      </trkpt>
      <trkpt lat="47.54655" lon="2.214553">
        <ele>180</ele>
        <time>2022-06-09T08:14:54Z</time>
      </trkpt>
      <trkpt lat="47.54656" lon="2.214543">
        <ele>179</ele>
        <time>2022-06-09T08:14:55Z</time>
      </trkpt>
      <trkpt lat="47.546566" lon="2.2145274">
        <ele>179</ele>
        <time>2022-06-09T08:14:56Z</time>
      </trkpt>
      <trkpt lat="47.546574" lon="2.2145102">
        <ele>179</ele>
        <time>2022-06-09T08:14:57Z</time>
      </trkpt>
      <trkpt lat="47.54658" lon="2.214492">
        <ele>179</ele>
        <time>2022-06-09T08:14:58Z</time>
      </trkpt>
      <trkpt lat="47.546585" lon="2.2144787">
        <ele>179</ele>
        <time>2022-06-09T08:14:59Z</time>
      </trkpt>
      <trkpt lat="47.546593" lon="2.2144668">
        <ele>180</ele>
        <time>2022-06-09T08:15:00Z</time>
      </trkpt>
      <trkpt lat="47.546608" lon="2.2144582">
        <ele>180</ele>
        <time>2022-06-09T08:15:01Z</time>
      </trkpt>
      <trkpt lat="47.546616" lon="2.2144444">
        <ele>180</ele>
        <time>2022-06-09T08:15:02Z</time>
      </trkpt>
      <trkpt lat="47.546627" lon="2.2144303">
        <ele>180</ele>
        <time>2022-06-09T08:15:03Z</time>
      </trkpt>
      <trkpt lat="47.546635" lon="2.2144191">
        <ele>181</ele>
        <time>2022-06-09T08:15:04Z</time>
      </trkpt>
      <trkpt lat="47.546646" lon="2.2144058">
        <ele>181</ele>
        <time>2022-06-09T08:15:05Z</time>
      </trkpt>
      <trkpt lat="47.546654" lon="2.214391">
        <ele>181</ele>
        <time>2022-06-09T08:15:06Z</time>
      </trkpt>
      <trkpt lat="47.54667" lon="2.2143772">
        <ele>181</ele>
        <time>2022-06-09T08:15:07Z</time>
      </trkpt>
      <trkpt lat="47.54668" lon="2.2143667">
        <ele>181</ele>
        <time>2022-06-09T08:15:08Z</time>
      </trkpt>
      <trkpt lat="47.546688" lon="2.2143514">
        <ele>181</ele>
        <time>2022-06-09T08:15:09Z</time>
      </trkpt>
      <trkpt lat="47.546696" lon="2.2143354">
        <ele>182</ele>
        <time>2022-06-09T08:15:10Z</time>
      </trkpt>
      <trkpt lat="47.546703" lon="2.2143247">
        <ele>182</ele>
        <time>2022-06-09T08:15:11Z</time>
      </trkpt>
      <trkpt lat="47.546715" lon="2.214316">
        <ele>183</ele>
        <time>2022-06-09T08:15:12Z</time>
      </trkpt>
      <trkpt lat="47.546722" lon="2.2143033">
        <ele>183</ele>
        <time>2022-06-09T08:15:13Z</time>
      </trkpt>
      <trkpt lat="47.54673" lon="2.214291">
        <ele>183</ele>
        <time>2022-06-09T08:15:14Z</time>
      </trkpt>
      <trkpt lat="47.546738" lon="2.2142792">
        <ele>182</ele>
        <time>2022-06-09T08:15:15Z</time>
      </trkpt>
      <trkpt lat="47.54675" lon="2.214266">
        <ele>183</ele>
        <time>2022-06-09T08:15:16Z</time>
      </trkpt>
      <trkpt lat="47.546753" lon="2.2142549">
        <ele>183</ele>
        <time>2022-06-09T08:15:17Z</time>
      </trkpt>
      <trkpt lat="47.546764" lon="2.214246">
        <ele>183</ele>
        <time>2022-06-09T08:15:18Z</time>
      </trkpt>
      <trkpt lat="47.546772" lon="2.214237">
        <ele>184</ele>
        <time>2022-06-09T08:15:19Z</time>
      </trkpt>
      <trkpt lat="47.54678" lon="2.2142272">
        <ele>184</ele>
        <time>2022-06-09T08:15:20Z</time>
      </trkpt>
      <trkpt lat="47.54679" lon="2.2142155">
        <ele>184</ele>
        <time>2022-06-09T08:15:21Z</time>
      </trkpt>
      <trkpt lat="47.546795" lon="2.2142045">
        <ele>184</ele>
        <time>2022-06-09T08:15:22Z</time>
      </trkpt>
      <trkpt lat="47.546803" lon="2.2141926">
        <ele>184</ele>
        <time>2022-06-09T08:15:23Z</time>
      </trkpt>
      <trkpt lat="47.546814" lon="2.2141821">
        <ele>184</ele>
        <time>2022-06-09T08:15:24Z</time>
      </trkpt>
      <trkpt lat="47.546825" lon="2.2141714">
        <ele>184</ele>
        <time>2022-06-09T08:15:25Z</time>
      </trkpt>
      <trkpt lat="47.546833" lon="2.2141628">
        <ele>185</ele>
        <time>2022-06-09T08:15:26Z</time>
      </trkpt>
      <trkpt lat="47.54685" lon="2.2141507">
        <ele>185</ele>
        <time>2022-06-09T08:15:27Z</time>
      </trkpt>
      <trkpt lat="47.546864" lon="2.214139">
        <ele>185</ele>
        <time>2022-06-09T08:15:28Z</time>
      </trkpt>
      <trkpt lat="47.54687" lon="2.214131">
        <ele>185</ele>
        <time>2022-06-09T08:15:29Z</time>
      </trkpt>
      <trkpt lat="47.546886" lon="2.2141197">
        <ele>185</ele>
        <time>2022-06-09T08:15:30Z</time>
      </trkpt>
      <trkpt lat="47.546898" lon="2.2141118">
        <ele>186</ele>
        <time>2022-06-09T08:15:31Z</time>
      </trkpt>
      <trkpt lat="47.54691" lon="2.2141013">
        <ele>186</ele>
        <time>2022-06-09T08:15:32Z</time>
      </trkpt>
      <trkpt lat="47.54692" lon="2.2140896">
        <ele>185</ele>
        <time>2022-06-09T08:15:33Z</time>
      </trkpt>
      <trkpt lat="47.54693" lon="2.2140822">
        <ele>185</ele>
        <time>2022-06-09T08:15:34Z</time>
      </trkpt>
      <trkpt lat="47.546936" lon="2.2140756">
        <ele>185</ele>
        <time>2022-06-09T08:15:35Z</time>
      </trkpt>
      <trkpt lat="47.546947" lon="2.2140718">
        <ele>185</ele>
        <time>2022-06-09T08:15:36Z</time>
      </trkpt>
      <trkpt lat="47.54696" lon="2.2140706">
        <ele>185</ele>
        <time>2022-06-09T08:15:37Z</time>
      </trkpt>
      <trkpt lat="47.546967" lon="2.2140615">
        <ele>185</ele>
        <time>2022-06-09T08:15:38Z</time>
      </trkpt>
      <trkpt lat="47.546978" lon="2.21405">
        <ele>185</ele>
        <time>2022-06-09T08:15:39Z</time>
      </trkpt>
      <trkpt lat="47.54699" lon="2.2140434">
        <ele>184</ele>
        <time>2022-06-09T08:15:40Z</time>
      </trkpt>
      <trkpt lat="47.547" lon="2.2140346">
        <ele>185</ele>
        <time>2022-06-09T08:15:41Z</time>
      </trkpt>
      <trkpt lat="47.547012" lon="2.214025">
        <ele>185</ele>
        <time>2022-06-09T08:15:42Z</time>
      </trkpt>
      <trkpt lat="47.547024" lon="2.2140112">
        <ele>184</ele>
        <time>2022-06-09T08:15:43Z</time>
      </trkpt>
      <trkpt lat="47.547035" lon="2.2140052">
        <ele>185</ele>
        <time>2022-06-09T08:15:44Z</time>
      </trkpt>
      <trkpt lat="47.547047" lon="2.2139995">
        <ele>185</ele>
        <time>2022-06-09T08:15:45Z</time>
      </trkpt>
      <trkpt lat="47.54706" lon="2.2139974">
        <ele>185</ele>
        <time>2022-06-09T08:15:46Z</time>
      </trkpt>
      <trkpt lat="47.54707" lon="2.213992">
        <ele>185</ele>
        <time>2022-06-09T08:15:47Z</time>
      </trkpt>
      <trkpt lat="47.547077" lon="2.2139852">
        <ele>184</ele>
        <time>2022-06-09T08:15:48Z</time>
      </trkpt>
      <trkpt lat="47.54709" lon="2.2139766">
        <ele>184</ele>
        <time>2022-06-09T08:15:49Z</time>
      </trkpt>
      <trkpt lat="47.547096" lon="2.2139692">
        <ele>184</ele>
        <time>2022-06-09T08:15:50Z</time>
      </trkpt>
      <trkpt lat="47.547104" lon="2.2139678">
        <ele>184</ele>
        <time>2022-06-09T08:15:51Z</time>
      </trkpt>
      <trkpt lat="47.547108" lon="2.2139642">
        <ele>184</ele>
        <time>2022-06-09T08:15:52Z</time>
      </trkpt>
      <trkpt lat="47.547115" lon="2.2139585">
        <ele>184</ele>
        <time>2022-06-09T08:15:53Z</time>
      </trkpt>
      <trkpt lat="47.547127" lon="2.2139518">
        <ele>184</ele>
        <time>2022-06-09T08:15:54Z</time>
      </trkpt>
      <trkpt lat="47.54714" lon="2.2139404">
        <ele>184</ele>
        <time>2022-06-09T08:15:55Z</time>
      </trkpt>
      <trkpt lat="47.54715" lon="2.2139332">
        <ele>184</ele>
        <time>2022-06-09T08:15:56Z</time>
      </trkpt>
      <trkpt lat="47.547165" lon="2.2139256">
        <ele>185</ele>
        <time>2022-06-09T08:15:57Z</time>
      </trkpt>
      <trkpt lat="47.547176" lon="2.2139108">
        <ele>185</ele>
        <time>2022-06-09T08:15:58Z</time>
      </trkpt>
      <trkpt lat="47.547188" lon="2.2139015">
        <ele>184</ele>
        <time>2022-06-09T08:15:59Z</time>
      </trkpt>
      <trkpt lat="47.5472" lon="2.2138896">
        <ele>184</ele>
        <time>2022-06-09T08:16:00Z</time>
      </trkpt>
      <trkpt lat="47.54721" lon="2.2138824">
        <ele>184</ele>
        <time>2022-06-09T08:16:01Z</time>
      </trkpt>
      <trkpt lat="47.547222" lon="2.2138715">
        <ele>184</ele>
        <time>2022-06-09T08:16:02Z</time>
      </trkpt>
      <trkpt lat="47.54723" lon="2.2138615">
        <ele>184</ele>
        <time>2022-06-09T08:16:03Z</time>
      </trkpt>
      <trkpt lat="47.54724" lon="2.213853">
        <ele>184</ele>
        <time>2022-06-09T08:16:04Z</time>
      </trkpt>
      <trkpt lat="47.54725" lon="2.2138426">
        <ele>184</ele>
        <time>2022-06-09T08:16:05Z</time>
      </trkpt>
      <trkpt lat="47.54726" lon="2.213834">
        <ele>184</ele>
        <time>2022-06-09T08:16:06Z</time>
      </trkpt>
      <trkpt lat="47.54727" lon="2.213824">
        <ele>184</ele>
        <time>2022-06-09T08:16:07Z</time>
      </trkpt>
      <trkpt lat="47.54728" lon="2.213816">
        <ele>184</ele>
        <time>2022-06-09T08:16:08Z</time>
      </trkpt>
      <trkpt lat="47.54729" lon="2.2138069">
        <ele>184</ele>
        <time>2022-06-09T08:16:09Z</time>
      </trkpt>
      <trkpt lat="47.547295" lon="2.213799">
        <ele>185</ele>
        <time>2022-06-09T08:16:10Z</time>
      </trkpt>
      <trkpt lat="47.547302" lon="2.21379">
        <ele>185</ele>
        <time>2022-06-09T08:16:11Z</time>
      </trkpt>
      <trkpt lat="47.547314" lon="2.2137814">
        <ele>185</ele>
        <time>2022-06-09T08:16:12Z</time>
      </trkpt>
      <trkpt lat="47.54732" lon="2.2137728">
        <ele>185</ele>
        <time>2022-06-09T08:16:13Z</time>
      </trkpt>
      <trkpt lat="47.547333" lon="2.2137585">
        <ele>184</ele>
        <time>2022-06-09T08:16:14Z</time>
      </trkpt>
      <trkpt lat="47.547337" lon="2.2137473">
        <ele>184</ele>
        <time>2022-06-09T08:16:15Z</time>
      </trkpt>
      <trkpt lat="47.547348" lon="2.2137377">
        <ele>184</ele>
        <time>2022-06-09T08:16:16Z</time>
      </trkpt>
      <trkpt lat="47.54736" lon="2.2137258">
        <ele>184</ele>
        <time>2022-06-09T08:16:17Z</time>
      </trkpt>
      <trkpt lat="47.54737" lon="2.213718">
        <ele>184</ele>
        <time>2022-06-09T08:16:18Z</time>
      </trkpt>
      <trkpt lat="47.547382" lon="2.2137022">
        <ele>183</ele>
        <time>2022-06-09T08:16:19Z</time>
      </trkpt>
      <trkpt lat="47.547394" lon="2.2136893">
        <ele>183</ele>
        <time>2022-06-09T08:16:20Z</time>
      </trkpt>
      <trkpt lat="47.5474" lon="2.2136757">
        <ele>183</ele>
        <time>2022-06-09T08:16:21Z</time>
      </trkpt>
      <trkpt lat="47.54741" lon="2.2136652">
        <ele>183</ele>
        <time>2022-06-09T08:16:22Z</time>
      </trkpt>
      <trkpt lat="47.547417" lon="2.2136521">
        <ele>183</ele>
        <time>2022-06-09T08:16:23Z</time>
      </trkpt>
      <trkpt lat="47.547424" lon="2.2136426">
        <ele>182</ele>
        <time>2022-06-09T08:16:24Z</time>
      </trkpt>
      <trkpt lat="47.547432" lon="2.2136314">
        <ele>182</ele>
        <time>2022-06-09T08:16:25Z</time>
      </trkpt>
      <trkpt lat="47.547443" lon="2.2136211">
        <ele>182</ele>
        <time>2022-06-09T08:16:26Z</time>
      </trkpt>
      <trkpt lat="47.547455" lon="2.2136135">
        <ele>182</ele>
        <time>2022-06-09T08:16:27Z</time>
      </trkpt>
      <trkpt lat="47.547466" lon="2.2136064">
        <ele>182</ele>
        <time>2022-06-09T08:16:28Z</time>
      </trkpt>
      <trkpt lat="47.547478" lon="2.2136">
        <ele>182</ele>
        <time>2022-06-09T08:16:29Z</time>
      </trkpt>
      <trkpt lat="47.54749" lon="2.2135952">
        <ele>182</ele>
        <time>2022-06-09T08:16:30Z</time>
      </trkpt>
      <trkpt lat="47.5475" lon="2.2135887">
        <ele>182</ele>
        <time>2022-06-09T08:16:31Z</time>
      </trkpt>
      <trkpt lat="47.54751" lon="2.2135797">
        <ele>182</ele>
        <time>2022-06-09T08:16:32Z</time>
      </trkpt>
      <trkpt lat="47.54752" lon="2.2135704">
        <ele>181</ele>
        <time>2022-06-09T08:16:33Z</time>
      </trkpt>
      <trkpt lat="47.547527" lon="2.213563">
        <ele>181</ele>
        <time>2022-06-09T08:16:34Z</time>
      </trkpt>
      <trkpt lat="47.54754" lon="2.2135518">
        <ele>181</ele>
        <time>2022-06-09T08:16:35Z</time>
      </trkpt>
      <trkpt lat="47.547546" lon="2.2135394">
        <ele>181</ele>
        <time>2022-06-09T08:16:36Z</time>
      </trkpt>
      <trkpt lat="47.547554" lon="2.2135298">
        <ele>181</ele>
        <time>2022-06-09T08:16:37Z</time>
      </trkpt>
      <trkpt lat="47.54756" lon="2.2135217">
        <ele>181</ele>
        <time>2022-06-09T08:16:38Z</time>
      </trkpt>
      <trkpt lat="47.54757" lon="2.2135122">
        <ele>181</ele>
        <time>2022-06-09T08:16:39Z</time>
      </trkpt>
      <trkpt lat="47.547577" lon="2.2135024">
        <ele>181</ele>
        <time>2022-06-09T08:16:40Z</time>
      </trkpt>
      <trkpt lat="47.54759" lon="2.213486">
        <ele>181</ele>
        <time>2022-06-09T08:16:41Z</time>
      </trkpt>
      <trkpt lat="47.547596" lon="2.2134774">
        <ele>182</ele>
        <time>2022-06-09T08:16:42Z</time>
      </trkpt>
      <trkpt lat="47.547607" lon="2.2134683">
        <ele>182</ele>
        <time>2022-06-09T08:16:43Z</time>
      </trkpt>
      <trkpt lat="47.54762" lon="2.213465">
        <ele>182</ele>
        <time>2022-06-09T08:16:44Z</time>
      </trkpt>
      <trkpt lat="47.547634" lon="2.2134597">
        <ele>182</ele>
        <time>2022-06-09T08:16:45Z</time>
      </trkpt>
      <trkpt lat="47.547646" lon="2.2134528">
        <ele>181</ele>
        <time>2022-06-09T08:16:46Z</time>
      </trkpt>
      <trkpt lat="47.547657" lon="2.2134452">
        <ele>181</ele>
        <time>2022-06-09T08:16:47Z</time>
      </trkpt>
      <trkpt lat="47.547672" lon="2.2134306">
        <ele>181</ele>
        <time>2022-06-09T08:16:48Z</time>
      </trkpt>
      <trkpt lat="47.54768" lon="2.2134225">
        <ele>181</ele>
        <time>2022-06-09T08:16:49Z</time>
      </trkpt>
      <trkpt lat="47.547688" lon="2.2134113">
        <ele>181</ele>
        <time>2022-06-09T08:16:50Z</time>
      </trkpt>
      <trkpt lat="47.5477" lon="2.2133958">
        <ele>180</ele>
        <time>2022-06-09T08:16:51Z</time>
      </trkpt>
      <trkpt lat="47.54771" lon="2.2133825">
        <ele>180</ele>
        <time>2022-06-09T08:16:52Z</time>
      </trkpt>
      <trkpt lat="47.547726" lon="2.2133746">
        <ele>181</ele>
        <time>2022-06-09T08:16:53Z</time>
      </trkpt>
      <trkpt lat="47.54774" lon="2.2133608">
        <ele>181</ele>
        <time>2022-06-09T08:16:54Z</time>
      </trkpt>
      <trkpt lat="47.547752" lon="2.2133486">
        <ele>181</ele>
        <time>2022-06-09T08:16:55Z</time>
      </trkpt>
      <trkpt lat="47.547764" lon="2.2133436">
        <ele>181</ele>
        <time>2022-06-09T08:16:56Z</time>
      </trkpt>
      <trkpt lat="47.547775" lon="2.2133431">
        <ele>182</ele>
        <time>2022-06-09T08:16:57Z</time>
      </trkpt>
      <trkpt lat="47.547787" lon="2.2133362">
        <ele>181</ele>
        <time>2022-06-09T08:16:58Z</time>
      </trkpt>
      <trkpt lat="47.5478" lon="2.2133284">
        <ele>181</ele>
        <time>2022-06-09T08:16:59Z</time>
      </trkpt>
      <trkpt lat="47.547813" lon="2.2133148">
        <ele>181</ele>
        <time>2022-06-09T08:17:00Z</time>
      </trkpt>
      <trkpt lat="47.547825" lon="2.213307">
        <ele>181</ele>
        <time>2022-06-09T08:17:01Z</time>
      </trkpt>
      <trkpt lat="47.547836" lon="2.2133005">
        <ele>181</ele>
        <time>2022-06-09T08:17:02Z</time>
      </trkpt>
      <trkpt lat="47.547844" lon="2.213295">
        <ele>181</ele>
        <time>2022-06-09T08:17:03Z</time>
      </trkpt>
      <trkpt lat="47.54785" lon="2.2132874">
        <ele>181</ele>
        <time>2022-06-09T08:17:04Z</time>
      </trkpt>
      <trkpt lat="47.54786" lon="2.2132783">
        <ele>181</ele>
        <time>2022-06-09T08:17:05Z</time>
      </trkpt>
      <trkpt lat="47.54787" lon="2.2132668">
        <ele>181</ele>
        <time>2022-06-09T08:17:06Z</time>
      </trkpt>
      <trkpt lat="47.547886" lon="2.213255">
        <ele>181</ele>
        <time>2022-06-09T08:17:07Z</time>
      </trkpt>
      <trkpt lat="47.547897" lon="2.2132397">
        <ele>181</ele>
        <time>2022-06-09T08:17:08Z</time>
      </trkpt>
      <trkpt lat="47.54791" lon="2.2132316">
        <ele>181</ele>
        <time>2022-06-09T08:17:09Z</time>
      </trkpt>
      <trkpt lat="47.54792" lon="2.213226">
        <ele>181</ele>
        <time>2022-06-09T08:17:10Z</time>
      </trkpt>
      <trkpt lat="47.54793" lon="2.2132192">
        <ele>181</ele>
        <time>2022-06-09T08:17:11Z</time>
      </trkpt>
      <trkpt lat="47.54794" lon="2.2132103">
        <ele>182</ele>
        <time>2022-06-09T08:17:12Z</time>
      </trkpt>
      <trkpt lat="47.54795" lon="2.2131996">
        <ele>182</ele>
        <time>2022-06-09T08:17:13Z</time>
      </trkpt>
      <trkpt lat="47.547962" lon="2.2131896">
        <ele>181</ele>
        <time>2022-06-09T08:17:14Z</time>
      </trkpt>
      <trkpt lat="47.547962" lon="2.213187">
        <ele>181</ele>
        <time>2022-06-09T08:17:15Z</time>
      </trkpt>
      <trkpt lat="47.547966" lon="2.2131824">
        <ele>181</ele>
        <time>2022-06-09T08:17:16Z</time>
      </trkpt>
      <trkpt lat="47.547974" lon="2.2131736">
        <ele>181</ele>
        <time>2022-06-09T08:17:17Z</time>
      </trkpt>
      <trkpt lat="47.54798" lon="2.2131605">
        <ele>181</ele>
        <time>2022-06-09T08:17:18Z</time>
      </trkpt>
      <trkpt lat="47.547993" lon="2.213147">
        <ele>181</ele>
        <time>2022-06-09T08:17:19Z</time>
      </trkpt>
      <trkpt lat="47.548004" lon="2.2131336">
        <ele>181</ele>
        <time>2022-06-09T08:17:20Z</time>
      </trkpt>
      <trkpt lat="47.54802" lon="2.2131221">
        <ele>182</ele>
        <time>2022-06-09T08:17:21Z</time>
      </trkpt>
      <trkpt lat="47.548027" lon="2.2131104">
        <ele>182</ele>
        <time>2022-06-09T08:17:22Z</time>
      </trkpt>
      <trkpt lat="47.54804" lon="2.213096">
        <ele>182</ele>
        <time>2022-06-09T08:17:23Z</time>
      </trkpt>
      <trkpt lat="47.54805" lon="2.2130828">
        <ele>182</ele>
        <time>2022-06-09T08:17:24Z</time>
      </trkpt>
      <trkpt lat="47.548058" lon="2.2130687">
        <ele>182</ele>
        <time>2022-06-09T08:17:25Z</time>
      </trkpt>
      <trkpt lat="47.548065" lon="2.2130578">
        <ele>182</ele>
        <time>2022-06-09T08:17:26Z</time>
      </trkpt>
      <trkpt lat="47.548077" lon="2.2130516">
        <ele>182</ele>
        <time>2022-06-09T08:17:27Z</time>
      </trkpt>
      <trkpt lat="47.548088" lon="2.2130432">
        <ele>182</ele>
        <time>2022-06-09T08:17:28Z</time>
      </trkpt>
      <trkpt lat="47.5481" lon="2.2130346">
        <ele>183</ele>
        <time>2022-06-09T08:17:29Z</time>
      </trkpt>
      <trkpt lat="47.54811" lon="2.213025">
        <ele>183</ele>
        <time>2022-06-09T08:17:30Z</time>
      </trkpt>
      <trkpt lat="47.54812" lon="2.2130158">
        <ele>183</ele>
        <time>2022-06-09T08:17:31Z</time>
      </trkpt>
      <trkpt lat="47.54813" lon="2.2130044">
        <ele>183</ele>
        <time>2022-06-09T08:17:32Z</time>
      </trkpt>
      <trkpt lat="47.54814" lon="2.2129927">
        <ele>183</ele>
        <time>2022-06-09T08:17:33Z</time>
      </trkpt>
      <trkpt lat="47.548157" lon="2.212982">
        <ele>183</ele>
        <time>2022-06-09T08:17:34Z</time>
      </trkpt>
      <trkpt lat="47.548164" lon="2.212973">
        <ele>184</ele>
        <time>2022-06-09T08:17:35Z</time>
      </trkpt>
      <trkpt lat="47.548176" lon="2.2129614">
        <ele>184</ele>
        <time>2022-06-09T08:17:36Z</time>
      </trkpt>
      <trkpt lat="47.548187" lon="2.212948">
        <ele>184</ele>
        <time>2022-06-09T08:17:37Z</time>
      </trkpt>
      <trkpt lat="47.5482" lon="2.212936">
        <ele>184</ele>
        <time>2022-06-09T08:17:38Z</time>
      </trkpt>
      <trkpt lat="47.54821" lon="2.212926">
        <ele>184</ele>
        <time>2022-06-09T08:17:39Z</time>
      </trkpt>
      <trkpt lat="47.54822" lon="2.2129173">
        <ele>184</ele>
        <time>2022-06-09T08:17:40Z</time>
      </trkpt>
      <trkpt lat="47.548233" lon="2.2129042">
        <ele>185</ele>
        <time>2022-06-09T08:17:41Z</time>
      </trkpt>
      <trkpt lat="47.548244" lon="2.212888">
        <ele>184</ele>
        <time>2022-06-09T08:17:42Z</time>
      </trkpt>
      <trkpt lat="47.548252" lon="2.2128794">
        <ele>184</ele>
        <time>2022-06-09T08:17:43Z</time>
      </trkpt>
      <trkpt lat="47.54826" lon="2.2128716">
        <ele>185</ele>
        <time>2022-06-09T08:17:44Z</time>
      </trkpt>
      <trkpt lat="47.548267" lon="2.2128587">
        <ele>184</ele>
        <time>2022-06-09T08:17:45Z</time>
      </trkpt>
      <trkpt lat="47.548275" lon="2.2128475">
        <ele>184</ele>
        <time>2022-06-09T08:17:46Z</time>
      </trkpt>
      <trkpt lat="47.54829" lon="2.2128356">
        <ele>184</ele>
        <time>2022-06-09T08:17:47Z</time>
      </trkpt>
      <trkpt lat="47.548298" lon="2.2128332">
        <ele>184</ele>
        <time>2022-06-09T08:17:48Z</time>
      </trkpt>
      <trkpt lat="47.54831" lon="2.2128258">
        <ele>184</ele>
        <time>2022-06-09T08:17:49Z</time>
      </trkpt>
      <trkpt lat="47.54832" lon="2.2128184">
        <ele>184</ele>
        <time>2022-06-09T08:17:50Z</time>
      </trkpt>
      <trkpt lat="47.54833" lon="2.2128122">
        <ele>184</ele>
        <time>2022-06-09T08:17:51Z</time>
      </trkpt>
      <trkpt lat="47.54834" lon="2.2127998">
        <ele>184</ele>
        <time>2022-06-09T08:17:52Z</time>
      </trkpt>
      <trkpt lat="47.548347" lon="2.2127974">
        <ele>184</ele>
        <time>2022-06-09T08:17:53Z</time>
      </trkpt>
      <trkpt lat="47.54836" lon="2.2127912">
        <ele>184</ele>
        <time>2022-06-09T08:17:54Z</time>
      </trkpt>
      <trkpt lat="47.54837" lon="2.2127872">
        <ele>184</ele>
        <time>2022-06-09T08:17:55Z</time>
      </trkpt>
      <trkpt lat="47.548374" lon="2.2127762">
        <ele>184</ele>
        <time>2022-06-09T08:17:56Z</time>
      </trkpt>
      <trkpt lat="47.54838" lon="2.2127702">
        <ele>184</ele>
        <time>2022-06-09T08:17:57Z</time>
      </trkpt>
      <trkpt lat="47.54839" lon="2.2127645">
        <ele>184</ele>
        <time>2022-06-09T08:17:58Z</time>
      </trkpt>
      <trkpt lat="47.548397" lon="2.2127595">
        <ele>184</ele>
        <time>2022-06-09T08:17:59Z</time>
      </trkpt>
      <trkpt lat="47.54841" lon="2.2127523">
        <ele>184</ele>
        <time>2022-06-09T08:18:00Z</time>
      </trkpt>
      <trkpt lat="47.548416" lon="2.212744">
        <ele>183</ele>
        <time>2022-06-09T08:18:01Z</time>
      </trkpt>
      <trkpt lat="47.548424" lon="2.2127354">
        <ele>183</ele>
        <time>2022-06-09T08:18:02Z</time>
      </trkpt>
      <trkpt lat="47.54843" lon="2.2127247">
        <ele>183</ele>
        <time>2022-06-09T08:18:03Z</time>
      </trkpt>
      <trkpt lat="47.54844" lon="2.2127151">
        <ele>183</ele>
        <time>2022-06-09T08:18:04Z</time>
      </trkpt>
      <trkpt lat="47.548443" lon="2.2127073">
        <ele>183</ele>
        <time>2022-06-09T08:18:05Z</time>
      </trkpt>
      <trkpt lat="47.54845" lon="2.212698">
        <ele>183</ele>
        <time>2022-06-09T08:18:06Z</time>
      </trkpt>
      <trkpt lat="47.54846" lon="2.2126904">
        <ele>183</ele>
        <time>2022-06-09T08:18:07Z</time>
      </trkpt>
      <trkpt lat="47.548473" lon="2.212678">
        <ele>183</ele>
        <time>2022-06-09T08:18:08Z</time>
      </trkpt>
      <trkpt lat="47.548485" lon="2.2126677">
        <ele>182</ele>
        <time>2022-06-09T08:18:09Z</time>
      </trkpt>
      <trkpt lat="47.548492" lon="2.212658">
        <ele>182</ele>
        <time>2022-06-09T08:18:10Z</time>
      </trkpt>
      <trkpt lat="47.548508" lon="2.2126436">
        <ele>182</ele>
        <time>2022-06-09T08:18:11Z</time>
      </trkpt>
      <trkpt lat="47.54852" lon="2.2126307">
        <ele>182</ele>
        <time>2022-06-09T08:18:12Z</time>
      </trkpt>
      <trkpt lat="47.548523" lon="2.2126198">
        <ele>181</ele>
        <time>2022-06-09T08:18:13Z</time>
      </trkpt>
      <trkpt lat="47.54853" lon="2.2126079">
        <ele>182</ele>
        <time>2022-06-09T08:18:14Z</time>
      </trkpt>
      <trkpt lat="47.54854" lon="2.212599">
        <ele>182</ele>
        <time>2022-06-09T08:18:15Z</time>
      </trkpt>
      <trkpt lat="47.548546" lon="2.2125928">
        <ele>182</ele>
        <time>2022-06-09T08:18:16Z</time>
      </trkpt>
      <trkpt lat="47.548557" lon="2.212589">
        <ele>183</ele>
        <time>2022-06-09T08:18:17Z</time>
      </trkpt>
      <trkpt lat="47.548565" lon="2.2125797">
        <ele>182</ele>
        <time>2022-06-09T08:18:18Z</time>
      </trkpt>
      <trkpt lat="47.548576" lon="2.2125683">
        <ele>183</ele>
        <time>2022-06-09T08:18:19Z</time>
      </trkpt>
      <trkpt lat="47.54859" lon="2.2125611">
        <ele>183</ele>
        <time>2022-06-09T08:18:20Z</time>
      </trkpt>
      <trkpt lat="47.548603" lon="2.2125576">
        <ele>183</ele>
        <time>2022-06-09T08:18:21Z</time>
      </trkpt>
      <trkpt lat="47.548607" lon="2.2125525">
        <ele>183</ele>
        <time>2022-06-09T08:18:22Z</time>
      </trkpt>
      <trkpt lat="47.548615" lon="2.2125516">
        <ele>183</ele>
        <time>2022-06-09T08:18:23Z</time>
      </trkpt>
      <trkpt lat="47.54863" lon="2.212535">
        <ele>183</ele>
        <time>2022-06-09T08:18:25Z</time>
      </trkpt>
      <trkpt lat="47.548637" lon="2.212527">
        <ele>183</ele>
        <time>2022-06-09T08:18:26Z</time>
      </trkpt>
      <trkpt lat="47.54865" lon="2.2125163">
        <ele>183</ele>
        <time>2022-06-09T08:18:27Z</time>
      </trkpt>
      <trkpt lat="47.54866" lon="2.2125013">
        <ele>182</ele>
        <time>2022-06-09T08:18:28Z</time>
      </trkpt>
      <trkpt lat="47.548668" lon="2.2124906">
        <ele>182</ele>
        <time>2022-06-09T08:18:29Z</time>
      </trkpt>
      <trkpt lat="47.54868" lon="2.212486">
        <ele>182</ele>
        <time>2022-06-09T08:18:30Z</time>
      </trkpt>
      <trkpt lat="47.548687" lon="2.2124789">
        <ele>182</ele>
        <time>2022-06-09T08:18:31Z</time>
      </trkpt>
      <trkpt lat="47.548695" lon="2.2124715">
        <ele>182</ele>
        <time>2022-06-09T08:18:32Z</time>
      </trkpt>
      <trkpt lat="47.54871" lon="2.2124593">
        <ele>182</ele>
        <time>2022-06-09T08:18:33Z</time>
      </trkpt>
      <trkpt lat="47.54872" lon="2.2124512">
        <ele>181</ele>
        <time>2022-06-09T08:18:34Z</time>
      </trkpt>
      <trkpt lat="47.548733" lon="2.2124388">
        <ele>181</ele>
        <time>2022-06-09T08:18:35Z</time>
      </trkpt>
      <trkpt lat="47.548744" lon="2.2124264">
        <ele>181</ele>
        <time>2022-06-09T08:18:36Z</time>
      </trkpt>
      <trkpt lat="47.54875" lon="2.2124224">
        <ele>181</ele>
        <time>2022-06-09T08:18:37Z</time>
      </trkpt>
      <trkpt lat="47.54876" lon="2.2124176">
        <ele>181</ele>
        <time>2022-06-09T08:18:38Z</time>
      </trkpt>
      <trkpt lat="47.548767" lon="2.2124133">
        <ele>181</ele>
        <time>2022-06-09T08:18:39Z</time>
      </trkpt>
      <trkpt lat="47.548775" lon="2.212407">
        <ele>181</ele>
        <time>2022-06-09T08:18:40Z</time>
      </trkpt>
      <trkpt lat="47.548786" lon="2.2123938">
        <ele>181</ele>
        <time>2022-06-09T08:18:41Z</time>
      </trkpt>
      <trkpt lat="47.54879" lon="2.2123816">
        <ele>181</ele>
        <time>2022-06-09T08:18:42Z</time>
      </trkpt>
      <trkpt lat="47.548798" lon="2.212375">
        <ele>181</ele>
        <time>2022-06-09T08:18:43Z</time>
      </trkpt>
      <trkpt lat="47.54881" lon="2.2123687">
        <ele>181</ele>
        <time>2022-06-09T08:18:44Z</time>
      </trkpt>
      <trkpt lat="47.54882" lon="2.2123566">
        <ele>181</ele>
        <time>2022-06-09T08:18:45Z</time>
      </trkpt>
      <trkpt lat="47.54883" lon="2.212347">
        <ele>181</ele>
        <time>2022-06-09T08:18:46Z</time>
      </trkpt>
      <trkpt lat="47.54884" lon="2.212341">
        <ele>181</ele>
        <time>2022-06-09T08:18:47Z</time>
      </trkpt>
      <trkpt lat="47.548847" lon="2.212333">
        <ele>181</ele>
        <time>2022-06-09T08:18:48Z</time>
      </trkpt>
      <trkpt lat="47.548855" lon="2.2123256">
        <ele>181</ele>
        <time>2022-06-09T08:18:49Z</time>
      </trkpt>
      <trkpt lat="47.54887" lon="2.2123141">
        <ele>181</ele>
        <time>2022-06-09T08:18:50Z</time>
      </trkpt>
      <trkpt lat="47.548878" lon="2.2123117">
        <ele>182</ele>
        <time>2022-06-09T08:18:51Z</time>
      </trkpt>
      <trkpt lat="47.54889" lon="2.2123094">
        <ele>182</ele>
        <time>2022-06-09T08:18:52Z</time>
      </trkpt>
      <trkpt lat="47.548897" lon="2.2123039">
        <ele>182</ele>
        <time>2022-06-09T08:18:53Z</time>
      </trkpt>
      <trkpt lat="47.54891" lon="2.2122986">
        <ele>181</ele>
        <time>2022-06-09T08:18:54Z</time>
      </trkpt>
      <trkpt lat="47.54892" lon="2.2122939">
        <ele>181</ele>
        <time>2022-06-09T08:18:55Z</time>
      </trkpt>
      <trkpt lat="47.548935" lon="2.2122884">
        <ele>181</ele>
        <time>2022-06-09T08:18:56Z</time>
      </trkpt>
      <trkpt lat="47.548946" lon="2.2122822">
        <ele>181</ele>
        <time>2022-06-09T08:18:57Z</time>
      </trkpt>
      <trkpt lat="47.548954" lon="2.2122805">
        <ele>181</ele>
        <time>2022-06-09T08:18:58Z</time>
      </trkpt>
      <trkpt lat="47.548965" lon="2.2122886">
        <ele>181</ele>
        <time>2022-06-09T08:18:59Z</time>
      </trkpt>
      <trkpt lat="47.548973" lon="2.2122915">
        <ele>181</ele>
        <time>2022-06-09T08:19:00Z</time>
      </trkpt>
      <trkpt lat="47.548985" lon="2.2122984">
        <ele>181</ele>
        <time>2022-06-09T08:19:01Z</time>
      </trkpt>
      <trkpt lat="47.548996" lon="2.212304">
        <ele>182</ele>
        <time>2022-06-09T08:19:02Z</time>
      </trkpt>
      <trkpt lat="47.549007" lon="2.2123032">
        <ele>181</ele>
        <time>2022-06-09T08:19:03Z</time>
      </trkpt>
      <trkpt lat="47.54902" lon="2.2123017">
        <ele>181</ele>
        <time>2022-06-09T08:19:04Z</time>
      </trkpt>
      <trkpt lat="47.549034" lon="2.212297">
        <ele>181</ele>
        <time>2022-06-09T08:19:05Z</time>
      </trkpt>
      <trkpt lat="47.549046" lon="2.2123003">
        <ele>181</ele>
        <time>2022-06-09T08:19:06Z</time>
      </trkpt>
      <trkpt lat="47.549057" lon="2.2123034">
        <ele>182</ele>
        <time>2022-06-09T08:19:07Z</time>
      </trkpt>
      <trkpt lat="47.54907" lon="2.2123065">
        <ele>182</ele>
        <time>2022-06-09T08:19:08Z</time>
      </trkpt>
      <trkpt lat="47.549076" lon="2.2123108">
        <ele>182</ele>
        <time>2022-06-09T08:19:09Z</time>
      </trkpt>
      <trkpt lat="47.549088" lon="2.2123122">
        <ele>182</ele>
        <time>2022-06-09T08:19:10Z</time>
      </trkpt>
      <trkpt lat="47.549103" lon="2.2123187">
        <ele>183</ele>
        <time>2022-06-09T08:19:11Z</time>
      </trkpt>
      <trkpt lat="47.549118" lon="2.2123163">
        <ele>183</ele>
        <time>2022-06-09T08:19:12Z</time>
      </trkpt>
      <trkpt lat="47.549133" lon="2.2123199">
        <ele>183</ele>
        <time>2022-06-09T08:19:13Z</time>
      </trkpt>
      <trkpt lat="47.549145" lon="2.212317">
        <ele>182</ele>
        <time>2022-06-09T08:19:14Z</time>
      </trkpt>
      <trkpt lat="47.549152" lon="2.2123148">
        <ele>182</ele>
        <time>2022-06-09T08:19:15Z</time>
      </trkpt>
      <trkpt lat="47.549156" lon="2.212315">
        <ele>182</ele>
        <time>2022-06-09T08:19:16Z</time>
      </trkpt>
      <trkpt lat="47.549156" lon="2.2123146">
        <ele>182</ele>
        <time>2022-06-09T08:19:17Z</time>
      </trkpt>
      <trkpt lat="47.549156" lon="2.2123144">
        <ele>182</ele>
        <time>2022-06-09T08:19:18Z</time>
      </trkpt>
      <trkpt lat="47.549164" lon="2.2123063">
        <ele>181</ele>
        <time>2022-06-09T08:19:19Z</time>
      </trkpt>
      <trkpt lat="47.549164" lon="2.2123063">
        <ele>181</ele>
        <time>2022-06-09T08:19:19Z</time>
      </trkpt>
      <trkpt lat="47.549164" lon="2.2123063">
        <ele>181</ele>
        <time>2022-06-09T08:19:19Z</time>
      </trkpt>
      <trkpt lat="47.549263" lon="2.2123163">
        <ele>181</ele>
        <time>2022-06-09T08:19:26Z</time>
      </trkpt>
      <trkpt lat="47.549274" lon="2.2123141">
        <ele>181</ele>
        <time>2022-06-09T08:19:27Z</time>
      </trkpt>
      <trkpt lat="47.549286" lon="2.2123168">
        <ele>181</ele>
        <time>2022-06-09T08:19:28Z</time>
      </trkpt>
      <trkpt lat="47.5493" lon="2.2123184">
        <ele>180</ele>
        <time>2022-06-09T08:19:29Z</time>
      </trkpt>
      <trkpt lat="47.54932" lon="2.2123241">
        <ele>181</ele>
        <time>2022-06-09T08:19:30Z</time>
      </trkpt>
      <trkpt lat="47.54933" lon="2.2123308">
        <ele>181</ele>
        <time>2022-06-09T08:19:31Z</time>
      </trkpt>
      <trkpt lat="47.549343" lon="2.212338">
        <ele>180</ele>
        <time>2022-06-09T08:19:32Z</time>
      </trkpt>
      <trkpt lat="47.549347" lon="2.2123406">
        <ele>180</ele>
        <time>2022-06-09T08:19:33Z</time>
      </trkpt>
      <trkpt lat="47.549355" lon="2.2123454">
        <ele>180</ele>
        <time>2022-06-09T08:19:34Z</time>
      </trkpt>
      <trkpt lat="47.549366" lon="2.2123504">
        <ele>180</ele>
        <time>2022-06-09T08:19:35Z</time>
      </trkpt>
      <trkpt lat="47.549377" lon="2.2123525">
        <ele>180</ele>
        <time>2022-06-09T08:19:36Z</time>
      </trkpt>
      <trkpt lat="47.54939" lon="2.2123523">
        <ele>180</ele>
        <time>2022-06-09T08:19:37Z</time>
      </trkpt>
      <trkpt lat="47.5494" lon="2.2123594">
        <ele>180</ele>
        <time>2022-06-09T08:19:38Z</time>
      </trkpt>
      <trkpt lat="47.54941" lon="2.2123652">
        <ele>179</ele>
        <time>2022-06-09T08:19:39Z</time>
      </trkpt>
      <trkpt lat="47.54942" lon="2.2123709">
        <ele>179</ele>
        <time>2022-06-09T08:19:40Z</time>
      </trkpt>
      <trkpt lat="47.54942" lon="2.2123709">
        <ele>179</ele>
        <time>2022-06-09T08:19:41Z</time>
      </trkpt>
      <trkpt lat="47.54942" lon="2.2123709">
        <ele>179</ele>
        <time>2022-06-09T08:19:42Z</time>
      </trkpt>
      <trkpt lat="47.549446" lon="2.2123585">
        <ele>179</ele>
        <time>2022-06-09T08:19:43Z</time>
      </trkpt>
      <trkpt lat="47.549454" lon="2.2123563">
        <ele>179</ele>
        <time>2022-06-09T08:19:44Z</time>
      </trkpt>
      <trkpt lat="47.549465" lon="2.2123575">
        <ele>179</ele>
        <time>2022-06-09T08:19:45Z</time>
      </trkpt>
      <trkpt lat="47.549477" lon="2.212362">
        <ele>179</ele>
        <time>2022-06-09T08:19:46Z</time>
      </trkpt>
      <trkpt lat="47.549488" lon="2.2123575">
        <ele>179</ele>
        <time>2022-06-09T08:19:47Z</time>
      </trkpt>
      <trkpt lat="47.5495" lon="2.2123594">
        <ele>179</ele>
        <time>2022-06-09T08:19:48Z</time>
      </trkpt>
      <trkpt lat="47.549515" lon="2.212362">
        <ele>179</ele>
        <time>2022-06-09T08:19:49Z</time>
      </trkpt>
      <trkpt lat="47.54953" lon="2.2123647">
        <ele>179</ele>
        <time>2022-06-09T08:19:50Z</time>
      </trkpt>
      <trkpt lat="47.549545" lon="2.2123644">
        <ele>178</ele>
        <time>2022-06-09T08:19:51Z</time>
      </trkpt>
      <trkpt lat="47.54956" lon="2.2123625">
        <ele>178</ele>
        <time>2022-06-09T08:19:52Z</time>
      </trkpt>
      <trkpt lat="47.549576" lon="2.2123668">
        <ele>178</ele>
        <time>2022-06-09T08:19:53Z</time>
      </trkpt>
      <trkpt lat="47.549587" lon="2.2123735">
        <ele>179</ele>
        <time>2022-06-09T08:19:54Z</time>
      </trkpt>
      <trkpt lat="47.549603" lon="2.212371">
        <ele>179</ele>
        <time>2022-06-09T08:19:55Z</time>
      </trkpt>
      <trkpt lat="47.549614" lon="2.212374">
        <ele>179</ele>
        <time>2022-06-09T08:19:56Z</time>
      </trkpt>
      <trkpt lat="47.549625" lon="2.2123778">
        <ele>179</ele>
        <time>2022-06-09T08:19:57Z</time>
      </trkpt>
      <trkpt lat="47.549637" lon="2.212382">
        <ele>178</ele>
        <time>2022-06-09T08:19:58Z</time>
      </trkpt>
      <trkpt lat="47.54965" lon="2.212384">
        <ele>178</ele>
        <time>2022-06-09T08:19:59Z</time>
      </trkpt>
      <trkpt lat="47.549664" lon="2.2123864">
        <ele>178</ele>
        <time>2022-06-09T08:20:00Z</time>
      </trkpt>
      <trkpt lat="47.54968" lon="2.212385">
        <ele>178</ele>
        <time>2022-06-09T08:20:01Z</time>
      </trkpt>
      <trkpt lat="47.549694" lon="2.2123895">
        <ele>178</ele>
        <time>2022-06-09T08:20:02Z</time>
      </trkpt>
      <trkpt lat="47.549713" lon="2.2123904">
        <ele>178</ele>
        <time>2022-06-09T08:20:03Z</time>
      </trkpt>
      <trkpt lat="47.549725" lon="2.2123938">
        <ele>178</ele>
        <time>2022-06-09T08:20:04Z</time>
      </trkpt>
      <trkpt lat="47.549736" lon="2.2123942">
        <ele>177</ele>
        <time>2022-06-09T08:20:05Z</time>
      </trkpt>
      <trkpt lat="47.549747" lon="2.212398">
        <ele>177</ele>
        <time>2022-06-09T08:20:06Z</time>
      </trkpt>
      <trkpt lat="47.549755" lon="2.2124007">
        <ele>177</ele>
        <time>2022-06-09T08:20:07Z</time>
      </trkpt>
      <trkpt lat="47.549767" lon="2.2124035">
        <ele>177</ele>
        <time>2022-06-09T08:20:08Z</time>
      </trkpt>
      <trkpt lat="47.549767" lon="2.2124035">
        <ele>177</ele>
        <time>2022-06-09T08:20:09Z</time>
      </trkpt>
      <trkpt lat="47.549767" lon="2.2124035">
        <ele>177</ele>
        <time>2022-06-09T08:20:10Z</time>
      </trkpt>
      <trkpt lat="47.54978" lon="2.2124116">
        <ele>176</ele>
        <time>2022-06-09T08:20:11Z</time>
      </trkpt>
      <trkpt lat="47.549793" lon="2.2124155">
        <ele>176</ele>
        <time>2022-06-09T08:20:12Z</time>
      </trkpt>
      <trkpt lat="47.54981" lon="2.212418">
        <ele>176</ele>
        <time>2022-06-09T08:20:13Z</time>
      </trkpt>
      <trkpt lat="47.549824" lon="2.2124128">
        <ele>176</ele>
        <time>2022-06-09T08:20:14Z</time>
      </trkpt>
      <trkpt lat="47.54984" lon="2.2124126">
        <ele>176</ele>
        <time>2022-06-09T08:20:15Z</time>
      </trkpt>
      <trkpt lat="47.54986" lon="2.2124104">
        <ele>176</ele>
        <time>2022-06-09T08:20:16Z</time>
      </trkpt>
      <trkpt lat="47.54987" lon="2.2124035">
        <ele>176</ele>
        <time>2022-06-09T08:20:17Z</time>
      </trkpt>
      <trkpt lat="47.549885" lon="2.2124002">
        <ele>176</ele>
        <time>2022-06-09T08:20:18Z</time>
      </trkpt>
      <trkpt lat="47.549896" lon="2.2124007">
        <ele>176</ele>
        <time>2022-06-09T08:20:19Z</time>
      </trkpt>
      <trkpt lat="47.54991" lon="2.2123985">
        <ele>176</ele>
        <time>2022-06-09T08:20:20Z</time>
      </trkpt>
      <trkpt lat="47.549927" lon="2.212395">
        <ele>176</ele>
        <time>2022-06-09T08:20:21Z</time>
      </trkpt>
      <trkpt lat="47.54994" lon="2.2123911">
        <ele>176</ele>
        <time>2022-06-09T08:20:22Z</time>
      </trkpt>
      <trkpt lat="47.54995" lon="2.212386">
        <ele>176</ele>
        <time>2022-06-09T08:20:23Z</time>
      </trkpt>
      <trkpt lat="47.549965" lon="2.2123802">
        <ele>176</ele>
        <time>2022-06-09T08:20:24Z</time>
      </trkpt>
      <trkpt lat="47.549976" lon="2.212381">
        <ele>177</ele>
        <time>2022-06-09T08:20:25Z</time>
      </trkpt>
      <trkpt lat="47.549984" lon="2.2123833">
        <ele>177</ele>
        <time>2022-06-09T08:20:26Z</time>
      </trkpt>
      <trkpt lat="47.549988" lon="2.2123816">
        <ele>177</ele>
        <time>2022-06-09T08:20:27Z</time>
      </trkpt>
      <trkpt lat="47.54999" lon="2.21238">
        <ele>177</ele>
        <time>2022-06-09T08:20:28Z</time>
      </trkpt>
      <trkpt lat="47.549995" lon="2.2123814">
        <ele>177</ele>
        <time>2022-06-09T08:20:29Z</time>
      </trkpt>
      <trkpt lat="47.549995" lon="2.2123814">
        <ele>177</ele>
        <time>2022-06-09T08:20:29Z</time>
      </trkpt>
      <trkpt lat="47.549995" lon="2.2123814">
        <ele>177</ele>
        <time>2022-06-09T08:20:29Z</time>
      </trkpt>
      <trkpt lat="47.550053" lon="2.2123437">
        <ele>178</ele>
        <time>2022-06-09T08:20:51Z</time>
      </trkpt>
      <trkpt lat="47.550056" lon="2.2123425">
        <ele>178</ele>
        <time>2022-06-09T08:20:52Z</time>
      </trkpt>
      <trkpt lat="47.550056" lon="2.2123423">
        <ele>178</ele>
        <time>2022-06-09T08:20:53Z</time>
      </trkpt>
      <trkpt lat="47.550056" lon="2.2123423">
        <ele>178</ele>
        <time>2022-06-09T08:20:54Z</time>
      </trkpt>
      <trkpt lat="47.550056" lon="2.2123425">
        <ele>178</ele>
        <time>2022-06-09T08:20:55Z</time>
      </trkpt>
      <trkpt lat="47.550056" lon="2.2123425">
        <ele>178</ele>
        <time>2022-06-09T08:20:55Z</time>
      </trkpt>
      <trkpt lat="47.550056" lon="2.2123425">
        <ele>178</ele>
        <time>2022-06-09T08:20:55Z</time>
      </trkpt>
      <trkpt lat="47.550087" lon="2.2122672">
        <ele>178</ele>
        <time>2022-06-09T08:23:27Z</time>
      </trkpt>
      <trkpt lat="47.550083" lon="2.2122617">
        <ele>178</ele>
        <time>2022-06-09T08:23:28Z</time>
      </trkpt>
      <trkpt lat="47.55008" lon="2.212256">
        <ele>178</ele>
        <time>2022-06-09T08:23:29Z</time>
      </trkpt>
      <trkpt lat="47.550076" lon="2.2122493">
        <ele>178</ele>
        <time>2022-06-09T08:23:30Z</time>
      </trkpt>
      <trkpt lat="47.550076" lon="2.2122493">
        <ele>178</ele>
        <time>2022-06-09T08:23:31Z</time>
      </trkpt>
      <trkpt lat="47.550076" lon="2.2122493">
        <ele>178</ele>
        <time>2022-06-09T08:23:32Z</time>
      </trkpt>
      <trkpt lat="47.550064" lon="2.2122233">
        <ele>178</ele>
        <time>2022-06-09T08:23:33Z</time>
      </trkpt>
      <trkpt lat="47.550064" lon="2.2122123">
        <ele>179</ele>
        <time>2022-06-09T08:23:34Z</time>
      </trkpt>
      <trkpt lat="47.550064" lon="2.2122064">
        <ele>179</ele>
        <time>2022-06-09T08:23:35Z</time>
      </trkpt>
      <trkpt lat="47.550064" lon="2.2122018">
        <ele>179</ele>
        <time>2022-06-09T08:23:36Z</time>
      </trkpt>
      <trkpt lat="47.550064" lon="2.2122018">
        <ele>179</ele>
        <time>2022-06-09T08:23:37Z</time>
      </trkpt>
      <trkpt lat="47.550064" lon="2.2122018">
        <ele>179</ele>
        <time>2022-06-09T08:23:38Z</time>
      </trkpt>
      <trkpt lat="47.550064" lon="2.2122018">
        <ele>179</ele>
        <time>2022-06-09T08:23:39Z</time>
      </trkpt>
      <trkpt lat="47.55007" lon="2.2121847">
        <ele>179</ele>
        <time>2022-06-09T08:23:40Z</time>
      </trkpt>
      <trkpt lat="47.55007" lon="2.2121847">
        <ele>179</ele>
        <time>2022-06-09T08:23:40Z</time>
      </trkpt>
      <trkpt lat="47.55007" lon="2.2121847">
        <ele>179</ele>
        <time>2022-06-09T08:23:40Z</time>
      </trkpt>
      <trkpt lat="47.55007" lon="2.2122412">
        <ele>177</ele>
        <time>2022-06-09T08:24:17Z</time>
      </trkpt>
      <trkpt lat="47.55007" lon="2.2122412">
        <ele>177</ele>
        <time>2022-06-09T08:24:18Z</time>
      </trkpt>
      <trkpt lat="47.550068" lon="2.2122636">
        <ele>177</ele>
        <time>2022-06-09T08:24:19Z</time>
      </trkpt>
      <trkpt lat="47.550064" lon="2.2122796">
        <ele>177</ele>
        <time>2022-06-09T08:24:20Z</time>
      </trkpt>
      <trkpt lat="47.55006" lon="2.2122896">
        <ele>177</ele>
        <time>2022-06-09T08:24:21Z</time>
      </trkpt>
      <trkpt lat="47.55006" lon="2.2122958">
        <ele>177</ele>
        <time>2022-06-09T08:24:22Z</time>
      </trkpt>
      <trkpt lat="47.55005" lon="2.212308">
        <ele>177</ele>
        <time>2022-06-09T08:24:23Z</time>
      </trkpt>
      <trkpt lat="47.55005" lon="2.212308">
        <ele>177</ele>
        <time>2022-06-09T08:24:24Z</time>
      </trkpt>
      <trkpt lat="47.55005" lon="2.212308">
        <ele>177</ele>
        <time>2022-06-09T08:24:25Z</time>
      </trkpt>
      <trkpt lat="47.550034" lon="2.21233">
        <ele>178</ele>
        <time>2022-06-09T08:24:26Z</time>
      </trkpt>
      <trkpt lat="47.550026" lon="2.2123394">
        <ele>178</ele>
        <time>2022-06-09T08:24:27Z</time>
      </trkpt>
      <trkpt lat="47.55002" lon="2.212351">
        <ele>178</ele>
        <time>2022-06-09T08:24:28Z</time>
      </trkpt>
      <trkpt lat="47.55002" lon="2.2123673">
        <ele>178</ele>
        <time>2022-06-09T08:24:29Z</time>
      </trkpt>
      <trkpt lat="47.550014" lon="2.2123766">
        <ele>177</ele>
        <time>2022-06-09T08:24:30Z</time>
      </trkpt>
      <trkpt lat="47.55001" lon="2.2123744">
        <ele>177</ele>
        <time>2022-06-09T08:24:31Z</time>
      </trkpt>
      <trkpt lat="47.550007" lon="2.2123747">
        <ele>176</ele>
        <time>2022-06-09T08:24:32Z</time>
      </trkpt>
      <trkpt lat="47.550007" lon="2.2123747">
        <ele>176</ele>
        <time>2022-06-09T08:24:32Z</time>
      </trkpt>
      <trkpt lat="47.550007" lon="2.2123747">
        <ele>176</ele>
        <time>2022-06-09T08:24:32Z</time>
      </trkpt>
      <trkpt lat="47.549957" lon="2.2124162">
        <ele>176</ele>
        <time>2022-06-09T08:24:46Z</time>
      </trkpt>
      <trkpt lat="47.54995" lon="2.2124221">
        <ele>176</ele>
        <time>2022-06-09T08:24:47Z</time>
      </trkpt>
      <trkpt lat="47.54995" lon="2.2124221">
        <ele>176</ele>
        <time>2022-06-09T08:24:48Z</time>
      </trkpt>
      <trkpt lat="47.54995" lon="2.2124221">
        <ele>176</ele>
        <time>2022-06-09T08:24:49Z</time>
      </trkpt>
      <trkpt lat="47.54995" lon="2.2124221">
        <ele>176</ele>
        <time>2022-06-09T08:24:50Z</time>
      </trkpt>
      <trkpt lat="47.549934" lon="2.212435">
        <ele>177</ele>
        <time>2022-06-09T08:24:51Z</time>
      </trkpt>
      <trkpt lat="47.54993" lon="2.2124352">
        <ele>177</ele>
        <time>2022-06-09T08:24:52Z</time>
      </trkpt>
      <trkpt lat="47.549923" lon="2.2124393">
        <ele>177</ele>
        <time>2022-06-09T08:24:53Z</time>
      </trkpt>
      <trkpt lat="47.54992" lon="2.212439">
        <ele>176</ele>
        <time>2022-06-09T08:24:54Z</time>
      </trkpt>
      <trkpt lat="47.549915" lon="2.2124367">
        <ele>176</ele>
        <time>2022-06-09T08:24:55Z</time>
      </trkpt>
      <trkpt lat="47.54991" lon="2.2124486">
        <ele>176</ele>
        <time>2022-06-09T08:24:56Z</time>
      </trkpt>
      <trkpt lat="47.54991" lon="2.2124565">
        <ele>176</ele>
        <time>2022-06-09T08:24:57Z</time>
      </trkpt>
      <trkpt lat="47.549904" lon="2.2124608">
        <ele>176</ele>
        <time>2022-06-09T08:24:58Z</time>
      </trkpt>
      <trkpt lat="47.5499" lon="2.2124662">
        <ele>175</ele>
        <time>2022-06-09T08:24:59Z</time>
      </trkpt>
      <trkpt lat="47.54989" lon="2.2124696">
        <ele>174</ele>
        <time>2022-06-09T08:25:00Z</time>
      </trkpt>
      <trkpt lat="47.54989" lon="2.2124696">
        <ele>174</ele>
        <time>2022-06-09T08:25:00Z</time>
      </trkpt>
      <trkpt lat="47.54989" lon="2.2124696">
        <ele>174</ele>
        <time>2022-06-09T08:25:00Z</time>
      </trkpt>
      <trkpt lat="47.549946" lon="2.2124424">
        <ele>175</ele>
        <time>2022-06-09T08:25:21Z</time>
      </trkpt>
      <trkpt lat="47.549946" lon="2.2124424">
        <ele>175</ele>
        <time>2022-06-09T08:25:22Z</time>
      </trkpt>
      <trkpt lat="47.549946" lon="2.2124424">
        <ele>175</ele>
        <time>2022-06-09T08:25:23Z</time>
      </trkpt>
      <trkpt lat="47.54997" lon="2.2124271">
        <ele>175</ele>
        <time>2022-06-09T08:25:24Z</time>
      </trkpt>
      <trkpt lat="47.549976" lon="2.2124178">
        <ele>175</ele>
        <time>2022-06-09T08:25:25Z</time>
      </trkpt>
      <trkpt lat="47.54998" lon="2.2124057">
        <ele>175</ele>
        <time>2022-06-09T08:25:26Z</time>
      </trkpt>
      <trkpt lat="47.549984" lon="2.2124057">
        <ele>175</ele>
        <time>2022-06-09T08:25:27Z</time>
      </trkpt>
      <trkpt lat="47.54998" lon="2.2124095">
        <ele>175</ele>
        <time>2022-06-09T08:25:28Z</time>
      </trkpt>
      <trkpt lat="47.549976" lon="2.2124124">
        <ele>175</ele>
        <time>2022-06-09T08:25:29Z</time>
      </trkpt>
      <trkpt lat="47.549973" lon="2.2124107">
        <ele>175</ele>
        <time>2022-06-09T08:25:30Z</time>
      </trkpt>
      <trkpt lat="47.54997" lon="2.2124062">
        <ele>174</ele>
        <time>2022-06-09T08:25:31Z</time>
      </trkpt>
      <trkpt lat="47.549965" lon="2.2124012">
        <ele>174</ele>
        <time>2022-06-09T08:25:32Z</time>
      </trkpt>
      <trkpt lat="47.549965" lon="2.2123997">
        <ele>174</ele>
        <time>2022-06-09T08:25:33Z</time>
      </trkpt>
      <trkpt lat="47.549965" lon="2.2124076">
        <ele>173</ele>
        <time>2022-06-09T08:25:34Z</time>
      </trkpt>
      <trkpt lat="47.54996" lon="2.2124076">
        <ele>173</ele>
        <time>2022-06-09T08:25:35Z</time>
      </trkpt>
      <trkpt lat="47.54995" lon="2.2124074">
        <ele>173</ele>
        <time>2022-06-09T08:25:36Z</time>
      </trkpt>
      <trkpt lat="47.54994" lon="2.2124097">
        <ele>173</ele>
        <time>2022-06-09T08:25:37Z</time>
      </trkpt>
      <trkpt lat="47.54994" lon="2.2124124">
        <ele>172</ele>
        <time>2022-06-09T08:25:38Z</time>
      </trkpt>
      <trkpt lat="47.549934" lon="2.2124166">
        <ele>172</ele>
        <time>2022-06-09T08:25:39Z</time>
      </trkpt>
      <trkpt lat="47.54993" lon="2.2124197">
        <ele>171</ele>
        <time>2022-06-09T08:25:40Z</time>
      </trkpt>
      <trkpt lat="47.54993" lon="2.212421">
        <ele>171</ele>
        <time>2022-06-09T08:25:41Z</time>
      </trkpt>
      <trkpt lat="47.549927" lon="2.212423">
        <ele>171</ele>
        <time>2022-06-09T08:25:42Z</time>
      </trkpt>
      <trkpt lat="47.54992" lon="2.2124166">
        <ele>170</ele>
        <time>2022-06-09T08:25:43Z</time>
      </trkpt>
      <trkpt lat="47.54992" lon="2.2124166">
        <ele>170</ele>
        <time>2022-06-09T08:25:44Z</time>
      </trkpt>
      <trkpt lat="47.54992" lon="2.2124166">
        <ele>170</ele>
        <time>2022-06-09T08:25:45Z</time>
      </trkpt>
      <trkpt lat="47.54992" lon="2.2124166">
        <ele>170</ele>
        <time>2022-06-09T08:25:45Z</time>
      </trkpt>
      <trkpt lat="47.54992" lon="2.2124166">
        <ele>170</ele>
        <time>2022-06-09T08:25:45Z</time>
      </trkpt>
      <trkpt lat="47.54996" lon="2.2124112">
        <ele>173</ele>
        <time>2022-06-09T08:26:23Z</time>
      </trkpt>
      <trkpt lat="47.54997" lon="2.21241">
        <ele>173</ele>
        <time>2022-06-09T08:26:24Z</time>
      </trkpt>
      <trkpt lat="47.549976" lon="2.212408">
        <ele>173</ele>
        <time>2022-06-09T08:26:25Z</time>
      </trkpt>
      <trkpt lat="47.549984" lon="2.2124004">
        <ele>173</ele>
        <time>2022-06-09T08:26:26Z</time>
      </trkpt>
      <trkpt lat="47.549988" lon="2.2123985">
        <ele>174</ele>
        <time>2022-06-09T08:26:27Z</time>
      </trkpt>
      <trkpt lat="47.55" lon="2.2123904">
        <ele>174</ele>
        <time>2022-06-09T08:26:28Z</time>
      </trkpt>
      <trkpt lat="47.55001" lon="2.212384">
        <ele>174</ele>
        <time>2022-06-09T08:26:29Z</time>
      </trkpt>
      <trkpt lat="47.550014" lon="2.212384">
        <ele>175</ele>
        <time>2022-06-09T08:26:30Z</time>
      </trkpt>
      <trkpt lat="47.550022" lon="2.2123814">
        <ele>175</ele>
        <time>2022-06-09T08:26:31Z</time>
      </trkpt>
      <trkpt lat="47.550034" lon="2.2123725">
        <ele>175</ele>
        <time>2022-06-09T08:26:32Z</time>
      </trkpt>
      <trkpt lat="47.550045" lon="2.2123668">
        <ele>175</ele>
        <time>2022-06-09T08:26:33Z</time>
      </trkpt>
      <trkpt lat="47.550053" lon="2.2123609">
        <ele>175</ele>
        <time>2022-06-09T08:26:34Z</time>
      </trkpt>
      <trkpt lat="47.55006" lon="2.2123594">
        <ele>175</ele>
        <time>2022-06-09T08:26:35Z</time>
      </trkpt>
      <trkpt lat="47.550068" lon="2.2123556">
        <ele>176</ele>
        <time>2022-06-09T08:26:36Z</time>
      </trkpt>
      <trkpt lat="47.550076" lon="2.2123492">
        <ele>176</ele>
        <time>2022-06-09T08:26:37Z</time>
      </trkpt>
      <trkpt lat="47.55008" lon="2.2123451">
        <ele>176</ele>
        <time>2022-06-09T08:26:38Z</time>
      </trkpt>
      <trkpt lat="47.550083" lon="2.2123387">
        <ele>176</ele>
        <time>2022-06-09T08:26:39Z</time>
      </trkpt>
      <trkpt lat="47.55009" lon="2.2123263">
        <ele>176</ele>
        <time>2022-06-09T08:26:40Z</time>
      </trkpt>
      <trkpt lat="47.550095" lon="2.212321">
        <ele>176</ele>
        <time>2022-06-09T08:26:41Z</time>
      </trkpt>
      <trkpt lat="47.550095" lon="2.212325">
        <ele>177</ele>
        <time>2022-06-09T08:26:42Z</time>
      </trkpt>
      <trkpt lat="47.550106" lon="2.212324">
        <ele>178</ele>
        <time>2022-06-09T08:26:43Z</time>
      </trkpt>
      <trkpt lat="47.550114" lon="2.2123244">
        <ele>178</ele>
        <time>2022-06-09T08:26:44Z</time>
      </trkpt>
      <trkpt lat="47.550114" lon="2.2123244">
        <ele>178</ele>
        <time>2022-06-09T08:26:44Z</time>
      </trkpt>
      <trkpt lat="47.550114" lon="2.2123244">
        <ele>178</ele>
        <time>2022-06-09T08:26:44Z</time>
      </trkpt>
      <trkpt lat="47.550125" lon="2.2122734">
        <ele>179</ele>
        <time>2022-06-09T08:27:05Z</time>
      </trkpt>
      <trkpt lat="47.550125" lon="2.212265">
        <ele>180</ele>
        <time>2022-06-09T08:27:06Z</time>
      </trkpt>
      <trkpt lat="47.550125" lon="2.212265">
        <ele>180</ele>
        <time>2022-06-09T08:27:07Z</time>
      </trkpt>
      <trkpt lat="47.550125" lon="2.212265">
        <ele>180</ele>
        <time>2022-06-09T08:27:08Z</time>
      </trkpt>
      <trkpt lat="47.550125" lon="2.212265">
        <ele>180</ele>
        <time>2022-06-09T08:27:08Z</time>
      </trkpt>
      <trkpt lat="47.550125" lon="2.212265">
        <ele>180</ele>
        <time>2022-06-09T08:27:08Z</time>
      </trkpt>
      <trkpt lat="47.550125" lon="2.212318">
        <ele>180</ele>
        <time>2022-06-09T08:27:26Z</time>
      </trkpt>
      <trkpt lat="47.550133" lon="2.212326">
        <ele>180</ele>
        <time>2022-06-09T08:27:27Z</time>
      </trkpt>
      <trkpt lat="47.550137" lon="2.2123299">
        <ele>181</ele>
        <time>2022-06-09T08:27:28Z</time>
      </trkpt>
      <trkpt lat="47.550137" lon="2.212328">
        <ele>181</ele>
        <time>2022-06-09T08:27:29Z</time>
      </trkpt>
      <trkpt lat="47.550137" lon="2.212329">
        <ele>181</ele>
        <time>2022-06-09T08:27:30Z</time>
      </trkpt>
      <trkpt lat="47.550137" lon="2.212329">
        <ele>181</ele>
        <time>2022-06-09T08:27:30Z</time>
      </trkpt>
      <trkpt lat="47.550137" lon="2.212329">
        <ele>181</ele>
        <time>2022-06-09T08:27:30Z</time>
      </trkpt>
      <trkpt lat="47.550144" lon="2.212431">
        <ele>183</ele>
        <time>2022-06-09T08:35:05Z</time>
      </trkpt>
      <trkpt lat="47.55015" lon="2.2124383">
        <ele>183</ele>
        <time>2022-06-09T08:35:06Z</time>
      </trkpt>
      <trkpt lat="47.550156" lon="2.2124465">
        <ele>183</ele>
        <time>2022-06-09T08:35:07Z</time>
      </trkpt>
      <trkpt lat="47.55016" lon="2.2124543">
        <ele>183</ele>
        <time>2022-06-09T08:35:08Z</time>
      </trkpt>
      <trkpt lat="47.550167" lon="2.2124596">
        <ele>183</ele>
        <time>2022-06-09T08:35:09Z</time>
      </trkpt>
      <trkpt lat="47.55017" lon="2.212466">
        <ele>183</ele>
        <time>2022-06-09T08:35:10Z</time>
      </trkpt>
      <trkpt lat="47.550175" lon="2.2124712">
        <ele>183</ele>
        <time>2022-06-09T08:35:11Z</time>
      </trkpt>
      <trkpt lat="47.550182" lon="2.2124765">
        <ele>183</ele>
        <time>2022-06-09T08:35:12Z</time>
      </trkpt>
      <trkpt lat="47.550186" lon="2.2124808">
        <ele>183</ele>
        <time>2022-06-09T08:35:13Z</time>
      </trkpt>
      <trkpt lat="47.55019" lon="2.2124882">
        <ele>183</ele>
        <time>2022-06-09T08:35:14Z</time>
      </trkpt>
      <trkpt lat="47.550198" lon="2.2124956">
        <ele>183</ele>
        <time>2022-06-09T08:35:15Z</time>
      </trkpt>
      <trkpt lat="47.550205" lon="2.2125082">
        <ele>182</ele>
        <time>2022-06-09T08:35:16Z</time>
      </trkpt>
      <trkpt lat="47.55021" lon="2.212523">
        <ele>182</ele>
        <time>2022-06-09T08:35:17Z</time>
      </trkpt>
      <trkpt lat="47.550213" lon="2.2125373">
        <ele>182</ele>
        <time>2022-06-09T08:35:18Z</time>
      </trkpt>
      <trkpt lat="47.550217" lon="2.2125506">
        <ele>182</ele>
        <time>2022-06-09T08:35:19Z</time>
      </trkpt>
      <trkpt lat="47.55022" lon="2.2125645">
        <ele>182</ele>
        <time>2022-06-09T08:35:20Z</time>
      </trkpt>
      <trkpt lat="47.550224" lon="2.2125769">
        <ele>182</ele>
        <time>2022-06-09T08:35:21Z</time>
      </trkpt>
      <trkpt lat="47.55023" lon="2.2125916">
        <ele>182</ele>
        <time>2022-06-09T08:35:22Z</time>
      </trkpt>
      <trkpt lat="47.550232" lon="2.2125995">
        <ele>182</ele>
        <time>2022-06-09T08:35:23Z</time>
      </trkpt>
      <trkpt lat="47.550236" lon="2.212617">
        <ele>182</ele>
        <time>2022-06-09T08:35:24Z</time>
      </trkpt>
      <trkpt lat="47.55024" lon="2.2126305">
        <ele>182</ele>
        <time>2022-06-09T08:35:25Z</time>
      </trkpt>
      <trkpt lat="47.550247" lon="2.212645">
        <ele>182</ele>
        <time>2022-06-09T08:35:26Z</time>
      </trkpt>
      <trkpt lat="47.550255" lon="2.212665">
        <ele>182</ele>
        <time>2022-06-09T08:35:27Z</time>
      </trkpt>
      <trkpt lat="47.55026" lon="2.212681">
        <ele>182</ele>
        <time>2022-06-09T08:35:28Z</time>
      </trkpt>
      <trkpt lat="47.550262" lon="2.2126937">
        <ele>182</ele>
        <time>2022-06-09T08:35:29Z</time>
      </trkpt>
      <trkpt lat="47.550266" lon="2.2127104">
        <ele>182</ele>
        <time>2022-06-09T08:35:30Z</time>
      </trkpt>
      <trkpt lat="47.55027" lon="2.2127278">
        <ele>181</ele>
        <time>2022-06-09T08:35:31Z</time>
      </trkpt>
      <trkpt lat="47.55027" lon="2.2127347">
        <ele>180</ele>
        <time>2022-06-09T08:35:32Z</time>
      </trkpt>
      <trkpt lat="47.550274" lon="2.2127438">
        <ele>180</ele>
        <time>2022-06-09T08:35:33Z</time>
      </trkpt>
      <trkpt lat="47.55028" lon="2.212754">
        <ele>180</ele>
        <time>2022-06-09T08:35:34Z</time>
      </trkpt>
      <trkpt lat="47.550285" lon="2.2127633">
        <ele>180</ele>
        <time>2022-06-09T08:35:35Z</time>
      </trkpt>
      <trkpt lat="47.550293" lon="2.212775">
        <ele>180</ele>
        <time>2022-06-09T08:35:36Z</time>
      </trkpt>
      <trkpt lat="47.5503" lon="2.2127936">
        <ele>180</ele>
        <time>2022-06-09T08:35:37Z</time>
      </trkpt>
      <trkpt lat="47.550304" lon="2.2128043">
        <ele>180</ele>
        <time>2022-06-09T08:35:38Z</time>
      </trkpt>
      <trkpt lat="47.550316" lon="2.212821">
        <ele>180</ele>
        <time>2022-06-09T08:35:39Z</time>
      </trkpt>
      <trkpt lat="47.55032" lon="2.2128372">
        <ele>180</ele>
        <time>2022-06-09T08:35:40Z</time>
      </trkpt>
      <trkpt lat="47.550327" lon="2.2128534">
        <ele>180</ele>
        <time>2022-06-09T08:35:41Z</time>
      </trkpt>
      <trkpt lat="47.55034" lon="2.2128665">
        <ele>180</ele>
        <time>2022-06-09T08:35:42Z</time>
      </trkpt>
      <trkpt lat="47.550346" lon="2.2128816">
        <ele>180</ele>
        <time>2022-06-09T08:35:43Z</time>
      </trkpt>
      <trkpt lat="47.550358" lon="2.212892">
        <ele>180</ele>
        <time>2022-06-09T08:35:44Z</time>
      </trkpt>
      <trkpt lat="47.550365" lon="2.2129004">
        <ele>180</ele>
        <time>2022-06-09T08:35:46Z</time>
      </trkpt>
      <trkpt lat="47.55037" lon="2.2129154">
        <ele>181</ele>
        <time>2022-06-09T08:35:46Z</time>
      </trkpt>
      <trkpt lat="47.550373" lon="2.2129316">
        <ele>180</ele>
        <time>2022-06-09T08:35:47Z</time>
      </trkpt>
      <trkpt lat="47.550373" lon="2.2129436">
        <ele>180</ele>
        <time>2022-06-09T08:35:48Z</time>
      </trkpt>
      <trkpt lat="47.55038" lon="2.2129505">
        <ele>180</ele>
        <time>2022-06-09T08:35:49Z</time>
      </trkpt>
      <trkpt lat="47.550385" lon="2.212963">
        <ele>180</ele>
        <time>2022-06-09T08:35:50Z</time>
      </trkpt>
      <trkpt lat="47.550392" lon="2.2129767">
        <ele>180</ele>
        <time>2022-06-09T08:35:51Z</time>
      </trkpt>
      <trkpt lat="47.5504" lon="2.2129889">
        <ele>180</ele>
        <time>2022-06-09T08:35:52Z</time>
      </trkpt>
      <trkpt lat="47.550407" lon="2.2130044">
        <ele>179</ele>
        <time>2022-06-09T08:35:53Z</time>
      </trkpt>
      <trkpt lat="47.550415" lon="2.213022">
        <ele>179</ele>
        <time>2022-06-09T08:35:54Z</time>
      </trkpt>
      <trkpt lat="47.55042" lon="2.2130365">
        <ele>179</ele>
        <time>2022-06-09T08:35:55Z</time>
      </trkpt>
      <trkpt lat="47.550423" lon="2.2130518">
        <ele>179</ele>
        <time>2022-06-09T08:35:56Z</time>
      </trkpt>
      <trkpt lat="47.550426" lon="2.2130651">
        <ele>179</ele>
        <time>2022-06-09T08:35:57Z</time>
      </trkpt>
      <trkpt lat="47.550434" lon="2.2130768">
        <ele>179</ele>
        <time>2022-06-09T08:35:58Z</time>
      </trkpt>
      <trkpt lat="47.550434" lon="2.213091">
        <ele>179</ele>
        <time>2022-06-09T08:35:59Z</time>
      </trkpt>
      <trkpt lat="47.55044" lon="2.213104">
        <ele>178</ele>
        <time>2022-06-09T08:36:01Z</time>
      </trkpt>
      <trkpt lat="47.550446" lon="2.2131183">
        <ele>179</ele>
        <time>2022-06-09T08:36:02Z</time>
      </trkpt>
      <trkpt lat="47.550453" lon="2.2131288">
        <ele>179</ele>
        <time>2022-06-09T08:36:03Z</time>
      </trkpt>
      <trkpt lat="47.550457" lon="2.213136">
        <ele>179</ele>
        <time>2022-06-09T08:36:04Z</time>
      </trkpt>
      <trkpt lat="47.55046" lon="2.213148">
        <ele>179</ele>
        <time>2022-06-09T08:36:05Z</time>
      </trkpt>
      <trkpt lat="47.55047" lon="2.213172">
        <ele>179</ele>
        <time>2022-06-09T08:36:06Z</time>
      </trkpt>
      <trkpt lat="47.55048" lon="2.2131875">
        <ele>179</ele>
        <time>2022-06-09T08:36:07Z</time>
      </trkpt>
      <trkpt lat="47.550484" lon="2.213209">
        <ele>179</ele>
        <time>2022-06-09T08:36:08Z</time>
      </trkpt>
      <trkpt lat="47.55049" lon="2.21322">
        <ele>179</ele>
        <time>2022-06-09T08:36:09Z</time>
      </trkpt>
      <trkpt lat="47.5505" lon="2.2132342">
        <ele>179</ele>
        <time>2022-06-09T08:36:10Z</time>
      </trkpt>
      <trkpt lat="47.550503" lon="2.2132447">
        <ele>179</ele>
        <time>2022-06-09T08:36:11Z</time>
      </trkpt>
      <trkpt lat="47.55051" lon="2.213261">
        <ele>179</ele>
        <time>2022-06-09T08:36:12Z</time>
      </trkpt>
      <trkpt lat="47.550518" lon="2.2132769">
        <ele>179</ele>
        <time>2022-06-09T08:36:13Z</time>
      </trkpt>
      <trkpt lat="47.55052" lon="2.2132897">
        <ele>179</ele>
        <time>2022-06-09T08:36:14Z</time>
      </trkpt>
      <trkpt lat="47.550518" lon="2.2133014">
        <ele>180</ele>
        <time>2022-06-09T08:36:15Z</time>
      </trkpt>
      <trkpt lat="47.55052" lon="2.2133129">
        <ele>179</ele>
        <time>2022-06-09T08:36:16Z</time>
      </trkpt>
      <trkpt lat="47.55053" lon="2.2133188">
        <ele>180</ele>
        <time>2022-06-09T08:36:17Z</time>
      </trkpt>
      <trkpt lat="47.550537" lon="2.2133288">
        <ele>179</ele>
        <time>2022-06-09T08:36:18Z</time>
      </trkpt>
      <trkpt lat="47.550545" lon="2.213343">
        <ele>180</ele>
        <time>2022-06-09T08:36:19Z</time>
      </trkpt>
      <trkpt lat="47.550552" lon="2.2133589">
        <ele>180</ele>
        <time>2022-06-09T08:36:20Z</time>
      </trkpt>
      <trkpt lat="47.55056" lon="2.213373">
        <ele>180</ele>
        <time>2022-06-09T08:36:21Z</time>
      </trkpt>
      <trkpt lat="47.55056" lon="2.2133908">
        <ele>180</ele>
        <time>2022-06-09T08:36:22Z</time>
      </trkpt>
      <trkpt lat="47.550564" lon="2.2134058">
        <ele>181</ele>
        <time>2022-06-09T08:36:23Z</time>
      </trkpt>
      <trkpt lat="47.550564" lon="2.2134166">
        <ele>181</ele>
        <time>2022-06-09T08:36:24Z</time>
      </trkpt>
      <trkpt lat="47.550564" lon="2.2134314">
        <ele>181</ele>
        <time>2022-06-09T08:36:25Z</time>
      </trkpt>
      <trkpt lat="47.550568" lon="2.2134495">
        <ele>181</ele>
        <time>2022-06-09T08:36:26Z</time>
      </trkpt>
      <trkpt lat="47.55057" lon="2.2134707">
        <ele>181</ele>
        <time>2022-06-09T08:36:27Z</time>
      </trkpt>
      <trkpt lat="47.550575" lon="2.2134888">
        <ele>181</ele>
        <time>2022-06-09T08:36:28Z</time>
      </trkpt>
      <trkpt lat="47.55058" lon="2.2135024">
        <ele>181</ele>
        <time>2022-06-09T08:36:29Z</time>
      </trkpt>
      <trkpt lat="47.55059" lon="2.2135167">
        <ele>181</ele>
        <time>2022-06-09T08:36:30Z</time>
      </trkpt>
      <trkpt lat="47.5506" lon="2.2135317">
        <ele>180</ele>
        <time>2022-06-09T08:36:31Z</time>
      </trkpt>
      <trkpt lat="47.550606" lon="2.2135396">
        <ele>181</ele>
        <time>2022-06-09T08:36:32Z</time>
      </trkpt>
      <trkpt lat="47.550613" lon="2.2135549">
        <ele>180</ele>
        <time>2022-06-09T08:36:33Z</time>
      </trkpt>
      <trkpt lat="47.55062" lon="2.2135713">
        <ele>180</ele>
        <time>2022-06-09T08:36:34Z</time>
      </trkpt>
      <trkpt lat="47.55063" lon="2.2135894">
        <ele>180</ele>
        <time>2022-06-09T08:36:35Z</time>
      </trkpt>
      <trkpt lat="47.550632" lon="2.2136014">
        <ele>180</ele>
        <time>2022-06-09T08:36:36Z</time>
      </trkpt>
      <trkpt lat="47.55064" lon="2.2136133">
        <ele>180</ele>
        <time>2022-06-09T08:36:37Z</time>
      </trkpt>
      <trkpt lat="47.550648" lon="2.2136288">
        <ele>180</ele>
        <time>2022-06-09T08:36:38Z</time>
      </trkpt>
      <trkpt lat="47.55065" lon="2.213647">
        <ele>180</ele>
        <time>2022-06-09T08:36:39Z</time>
      </trkpt>
      <trkpt lat="47.55066" lon="2.2136567">
        <ele>180</ele>
        <time>2022-06-09T08:36:40Z</time>
      </trkpt>
      <trkpt lat="47.550663" lon="2.2136707">
        <ele>180</ele>
        <time>2022-06-09T08:36:41Z</time>
      </trkpt>
      <trkpt lat="47.550667" lon="2.213684">
        <ele>180</ele>
        <time>2022-06-09T08:36:42Z</time>
      </trkpt>
      <trkpt lat="47.55067" lon="2.2136958">
        <ele>180</ele>
        <time>2022-06-09T08:36:43Z</time>
      </trkpt>
      <trkpt lat="47.55068" lon="2.21371">
        <ele>180</ele>
        <time>2022-06-09T08:36:44Z</time>
      </trkpt>
      <trkpt lat="47.55069" lon="2.2137244">
        <ele>180</ele>
        <time>2022-06-09T08:36:45Z</time>
      </trkpt>
      <trkpt lat="47.550694" lon="2.2137406">
        <ele>180</ele>
        <time>2022-06-09T08:36:46Z</time>
      </trkpt>
      <trkpt lat="47.550697" lon="2.2137575">
        <ele>180</ele>
        <time>2022-06-09T08:36:47Z</time>
      </trkpt>
      <trkpt lat="47.550705" lon="2.2137682">
        <ele>180</ele>
        <time>2022-06-09T08:36:48Z</time>
      </trkpt>
      <trkpt lat="47.550713" lon="2.2137747">
        <ele>179</ele>
        <time>2022-06-09T08:36:49Z</time>
      </trkpt>
      <trkpt lat="47.550713" lon="2.213792">
        <ele>179</ele>
        <time>2022-06-09T08:36:50Z</time>
      </trkpt>
      <trkpt lat="47.55072" lon="2.2138076">
        <ele>179</ele>
        <time>2022-06-09T08:36:51Z</time>
      </trkpt>
      <trkpt lat="47.550724" lon="2.2138264">
        <ele>179</ele>
        <time>2022-06-09T08:36:52Z</time>
      </trkpt>
      <trkpt lat="47.55073" lon="2.2138474">
        <ele>180</ele>
        <time>2022-06-09T08:36:53Z</time>
      </trkpt>
      <trkpt lat="47.550735" lon="2.2138724">
        <ele>180</ele>
        <time>2022-06-09T08:36:54Z</time>
      </trkpt>
      <trkpt lat="47.550743" lon="2.2138898">
        <ele>180</ele>
        <time>2022-06-09T08:36:55Z</time>
      </trkpt>
      <trkpt lat="47.55075" lon="2.2138994">
        <ele>180</ele>
        <time>2022-06-09T08:36:56Z</time>
      </trkpt>
      <trkpt lat="47.55076" lon="2.2138953">
        <ele>180</ele>
        <time>2022-06-09T08:36:57Z</time>
      </trkpt>
      <trkpt lat="47.550755" lon="2.2138908">
        <ele>180</ele>
        <time>2022-06-09T08:36:58Z</time>
      </trkpt>
      <trkpt lat="47.550755" lon="2.21389">
        <ele>180</ele>
        <time>2022-06-09T08:36:59Z</time>
      </trkpt>
      <trkpt lat="47.550755" lon="2.21389">
        <ele>180</ele>
        <time>2022-06-09T08:36:59Z</time>
      </trkpt>
      <trkpt lat="47.550755" lon="2.21389">
        <ele>180</ele>
        <time>2022-06-09T08:36:59Z</time>
      </trkpt>
      <trkpt lat="47.55078" lon="2.2139552">
        <ele>181</ele>
        <time>2022-06-09T08:37:05Z</time>
      </trkpt>
      <trkpt lat="47.55079" lon="2.2139628">
        <ele>181</ele>
        <time>2022-06-09T08:37:06Z</time>
      </trkpt>
      <trkpt lat="47.550797" lon="2.213976">
        <ele>181</ele>
        <time>2022-06-09T08:37:07Z</time>
      </trkpt>
      <trkpt lat="47.550797" lon="2.2139883">
        <ele>181</ele>
        <time>2022-06-09T08:37:08Z</time>
      </trkpt>
      <trkpt lat="47.550804" lon="2.213999">
        <ele>181</ele>
        <time>2022-06-09T08:37:09Z</time>
      </trkpt>
      <trkpt lat="47.550808" lon="2.2140074">
        <ele>181</ele>
        <time>2022-06-09T08:37:10Z</time>
      </trkpt>
      <trkpt lat="47.550816" lon="2.2140157">
        <ele>181</ele>
        <time>2022-06-09T08:37:11Z</time>
      </trkpt>
      <trkpt lat="47.550823" lon="2.2140274">
        <ele>181</ele>
        <time>2022-06-09T08:37:12Z</time>
      </trkpt>
      <trkpt lat="47.55083" lon="2.2140398">
        <ele>180</ele>
        <time>2022-06-09T08:37:13Z</time>
      </trkpt>
      <trkpt lat="47.55084" lon="2.2140534">
        <ele>180</ele>
        <time>2022-06-09T08:37:14Z</time>
      </trkpt>
      <trkpt lat="47.55085" lon="2.2140667">
        <ele>180</ele>
        <time>2022-06-09T08:37:15Z</time>
      </trkpt>
      <trkpt lat="47.550854" lon="2.21408">
        <ele>180</ele>
        <time>2022-06-09T08:37:16Z</time>
      </trkpt>
      <trkpt lat="47.55086" lon="2.2140973">
        <ele>180</ele>
        <time>2022-06-09T08:37:17Z</time>
      </trkpt>
      <trkpt lat="47.55087" lon="2.2141104">
        <ele>180</ele>
        <time>2022-06-09T08:37:18Z</time>
      </trkpt>
      <trkpt lat="47.55088" lon="2.2141232">
        <ele>180</ele>
        <time>2022-06-09T08:37:19Z</time>
      </trkpt>
      <trkpt lat="47.55088" lon="2.2141392">
        <ele>180</ele>
        <time>2022-06-09T08:37:20Z</time>
      </trkpt>
      <trkpt lat="47.55088" lon="2.2141488">
        <ele>180</ele>
        <time>2022-06-09T08:37:21Z</time>
      </trkpt>
      <trkpt lat="47.550877" lon="2.2141564">
        <ele>180</ele>
        <time>2022-06-09T08:37:22Z</time>
      </trkpt>
      <trkpt lat="47.55088" lon="2.2141626">
        <ele>180</ele>
        <time>2022-06-09T08:37:23Z</time>
      </trkpt>
      <trkpt lat="47.55088" lon="2.2141626">
        <ele>180</ele>
        <time>2022-06-09T08:37:24Z</time>
      </trkpt>
      <trkpt lat="47.55088" lon="2.2141626">
        <ele>180</ele>
        <time>2022-06-09T08:37:25Z</time>
      </trkpt>
      <trkpt lat="47.55088" lon="2.2141626">
        <ele>180</ele>
        <time>2022-06-09T08:37:25Z</time>
      </trkpt>
      <trkpt lat="47.55088" lon="2.2141626">
        <ele>180</ele>
        <time>2022-06-09T08:37:25Z</time>
      </trkpt>
      <trkpt lat="47.5509" lon="2.2141368">
        <ele>183</ele>
        <time>2022-06-09T08:38:23Z</time>
      </trkpt>
      <trkpt lat="47.5509" lon="2.2141287">
        <ele>183</ele>
        <time>2022-06-09T08:38:24Z</time>
      </trkpt>
      <trkpt lat="47.55089" lon="2.2141168">
        <ele>183</ele>
        <time>2022-06-09T08:38:25Z</time>
      </trkpt>
      <trkpt lat="47.5509" lon="2.2141008">
        <ele>182</ele>
        <time>2022-06-09T08:38:26Z</time>
      </trkpt>
      <trkpt lat="47.55091" lon="2.2140968">
        <ele>182</ele>
        <time>2022-06-09T08:38:27Z</time>
      </trkpt>
      <trkpt lat="47.550922" lon="2.2140932">
        <ele>182</ele>
        <time>2022-06-09T08:38:28Z</time>
      </trkpt>
      <trkpt lat="47.550934" lon="2.2140944">
        <ele>182</ele>
        <time>2022-06-09T08:38:29Z</time>
      </trkpt>
      <trkpt lat="47.55094" lon="2.2141025">
        <ele>182</ele>
        <time>2022-06-09T08:38:30Z</time>
      </trkpt>
      <trkpt lat="47.550945" lon="2.2141087">
        <ele>182</ele>
        <time>2022-06-09T08:38:31Z</time>
      </trkpt>
      <trkpt lat="47.550953" lon="2.2141118">
        <ele>182</ele>
        <time>2022-06-09T08:38:32Z</time>
      </trkpt>
      <trkpt lat="47.55097" lon="2.2141097">
        <ele>181</ele>
        <time>2022-06-09T08:38:33Z</time>
      </trkpt>
      <trkpt lat="47.550983" lon="2.2141113">
        <ele>182</ele>
        <time>2022-06-09T08:38:34Z</time>
      </trkpt>
      <trkpt lat="47.550995" lon="2.2141068">
        <ele>182</ele>
        <time>2022-06-09T08:38:35Z</time>
      </trkpt>
      <trkpt lat="47.551" lon="2.214107">
        <ele>182</ele>
        <time>2022-06-09T08:38:36Z</time>
      </trkpt>
      <trkpt lat="47.551006" lon="2.214113">
        <ele>182</ele>
        <time>2022-06-09T08:38:37Z</time>
      </trkpt>
      <trkpt lat="47.551018" lon="2.2141147">
        <ele>182</ele>
        <time>2022-06-09T08:38:38Z</time>
      </trkpt>
      <trkpt lat="47.551033" lon="2.2141163">
        <ele>182</ele>
        <time>2022-06-09T08:38:39Z</time>
      </trkpt>
      <trkpt lat="47.55105" lon="2.214123">
        <ele>182</ele>
        <time>2022-06-09T08:38:40Z</time>
      </trkpt>
      <trkpt lat="47.551067" lon="2.2141302">
        <ele>182</ele>
        <time>2022-06-09T08:38:41Z</time>
      </trkpt>
      <trkpt lat="47.551083" lon="2.2141407">
        <ele>182</ele>
        <time>2022-06-09T08:38:42Z</time>
      </trkpt>
      <trkpt lat="47.551098" lon="2.214145">
        <ele>182</ele>
        <time>2022-06-09T08:38:43Z</time>
      </trkpt>
      <trkpt lat="47.55111" lon="2.2141533">
        <ele>182</ele>
        <time>2022-06-09T08:38:44Z</time>
      </trkpt>
      <trkpt lat="47.551125" lon="2.2141614">
        <ele>181</ele>
        <time>2022-06-09T08:38:45Z</time>
      </trkpt>
      <trkpt lat="47.551136" lon="2.214171">
        <ele>181</ele>
        <time>2022-06-09T08:38:46Z</time>
      </trkpt>
      <trkpt lat="47.55115" lon="2.2141745">
        <ele>181</ele>
        <time>2022-06-09T08:38:47Z</time>
      </trkpt>
      <trkpt lat="47.551167" lon="2.2141855">
        <ele>181</ele>
        <time>2022-06-09T08:38:48Z</time>
      </trkpt>
      <trkpt lat="47.551178" lon="2.2141972">
        <ele>181</ele>
        <time>2022-06-09T08:38:49Z</time>
      </trkpt>
      <trkpt lat="47.55119" lon="2.2142062">
        <ele>181</ele>
        <time>2022-06-09T08:38:50Z</time>
      </trkpt>
      <trkpt lat="47.551205" lon="2.2142172">
        <ele>181</ele>
        <time>2022-06-09T08:38:51Z</time>
      </trkpt>
      <trkpt lat="47.551216" lon="2.2142334">
        <ele>181</ele>
        <time>2022-06-09T08:38:52Z</time>
      </trkpt>
      <trkpt lat="47.551235" lon="2.2142444">
        <ele>181</ele>
        <time>2022-06-09T08:38:53Z</time>
      </trkpt>
      <trkpt lat="47.551247" lon="2.2142591">
        <ele>181</ele>
        <time>2022-06-09T08:38:54Z</time>
      </trkpt>
      <trkpt lat="47.55126" lon="2.2142732">
        <ele>181</ele>
        <time>2022-06-09T08:38:55Z</time>
      </trkpt>
      <trkpt lat="47.55127" lon="2.214288">
        <ele>181</ele>
        <time>2022-06-09T08:38:56Z</time>
      </trkpt>
      <trkpt lat="47.55128" lon="2.2143033">
        <ele>180</ele>
        <time>2022-06-09T08:38:57Z</time>
      </trkpt>
      <trkpt lat="47.551292" lon="2.2143188">
        <ele>180</ele>
        <time>2022-06-09T08:38:58Z</time>
      </trkpt>
      <trkpt lat="47.551304" lon="2.2143364">
        <ele>180</ele>
        <time>2022-06-09T08:38:59Z</time>
      </trkpt>
      <trkpt lat="47.55132" lon="2.2143464">
        <ele>180</ele>
        <time>2022-06-09T08:39:00Z</time>
      </trkpt>
      <trkpt lat="47.55133" lon="2.214362">
        <ele>180</ele>
        <time>2022-06-09T08:39:01Z</time>
      </trkpt>
      <trkpt lat="47.551342" lon="2.2143745">
        <ele>180</ele>
        <time>2022-06-09T08:39:02Z</time>
      </trkpt>
      <trkpt lat="47.551357" lon="2.2143967">
        <ele>180</ele>
        <time>2022-06-09T08:39:03Z</time>
      </trkpt>
      <trkpt lat="47.551373" lon="2.2144182">
        <ele>180</ele>
        <time>2022-06-09T08:39:04Z</time>
      </trkpt>
      <trkpt lat="47.55138" lon="2.2144384">
        <ele>180</ele>
        <time>2022-06-09T08:39:05Z</time>
      </trkpt>
      <trkpt lat="47.55139" lon="2.2144568">
        <ele>180</ele>
        <time>2022-06-09T08:39:06Z</time>
      </trkpt>
      <trkpt lat="47.5514" lon="2.2144763">
        <ele>180</ele>
        <time>2022-06-09T08:39:07Z</time>
      </trkpt>
      <trkpt lat="47.551407" lon="2.2144947">
        <ele>180</ele>
        <time>2022-06-09T08:39:08Z</time>
      </trkpt>
      <trkpt lat="47.551422" lon="2.214515">
        <ele>180</ele>
        <time>2022-06-09T08:39:09Z</time>
      </trkpt>
      <trkpt lat="47.551437" lon="2.214528">
        <ele>180</ele>
        <time>2022-06-09T08:39:10Z</time>
      </trkpt>
      <trkpt lat="47.551453" lon="2.2145433">
        <ele>179</ele>
        <time>2022-06-09T08:39:11Z</time>
      </trkpt>
      <trkpt lat="47.551468" lon="2.214555">
        <ele>179</ele>
        <time>2022-06-09T08:39:12Z</time>
      </trkpt>
      <trkpt lat="47.55148" lon="2.2145667">
        <ele>179</ele>
        <time>2022-06-09T08:39:13Z</time>
      </trkpt>
      <trkpt lat="47.55149" lon="2.2145808">
        <ele>179</ele>
        <time>2022-06-09T08:39:14Z</time>
      </trkpt>
      <trkpt lat="47.551502" lon="2.2145991">
        <ele>179</ele>
        <time>2022-06-09T08:39:15Z</time>
      </trkpt>
      <trkpt lat="47.551514" lon="2.214613">
        <ele>179</ele>
        <time>2022-06-09T08:39:16Z</time>
      </trkpt>
      <trkpt lat="47.551525" lon="2.214632">
        <ele>179</ele>
        <time>2022-06-09T08:39:17Z</time>
      </trkpt>
      <trkpt lat="47.551537" lon="2.214646">
        <ele>179</ele>
        <time>2022-06-09T08:39:18Z</time>
      </trkpt>
      <trkpt lat="47.551548" lon="2.2146666">
        <ele>179</ele>
        <time>2022-06-09T08:39:19Z</time>
      </trkpt>
      <trkpt lat="47.55156" lon="2.2146876">
        <ele>179</ele>
        <time>2022-06-09T08:39:20Z</time>
      </trkpt>
      <trkpt lat="47.55157" lon="2.2146986">
        <ele>179</ele>
        <time>2022-06-09T08:39:21Z</time>
      </trkpt>
      <trkpt lat="47.551586" lon="2.2147124">
        <ele>180</ele>
        <time>2022-06-09T08:39:22Z</time>
      </trkpt>
      <trkpt lat="47.551598" lon="2.2147284">
        <ele>180</ele>
        <time>2022-06-09T08:39:23Z</time>
      </trkpt>
      <trkpt lat="47.55161" lon="2.2147448">
        <ele>180</ele>
        <time>2022-06-09T08:39:24Z</time>
      </trkpt>
      <trkpt lat="47.55163" lon="2.2147598">
        <ele>180</ele>
        <time>2022-06-09T08:39:25Z</time>
      </trkpt>
      <trkpt lat="47.551643" lon="2.214776">
        <ele>180</ele>
        <time>2022-06-09T08:39:26Z</time>
      </trkpt>
      <trkpt lat="47.55166" lon="2.2147872">
        <ele>181</ele>
        <time>2022-06-09T08:39:27Z</time>
      </trkpt>
      <trkpt lat="47.55167" lon="2.2147915">
        <ele>181</ele>
        <time>2022-06-09T08:39:28Z</time>
      </trkpt>
      <trkpt lat="47.551685" lon="2.2147965">
        <ele>181</ele>
        <time>2022-06-09T08:39:29Z</time>
      </trkpt>
      <trkpt lat="47.551697" lon="2.2148004">
        <ele>180</ele>
        <time>2022-06-09T08:39:30Z</time>
      </trkpt>
      <trkpt lat="47.551712" lon="2.2148006">
        <ele>180</ele>
        <time>2022-06-09T08:39:31Z</time>
      </trkpt>
      <trkpt lat="47.551723" lon="2.2148032">
        <ele>180</ele>
        <time>2022-06-09T08:39:32Z</time>
      </trkpt>
      <trkpt lat="47.551735" lon="2.2148073">
        <ele>180</ele>
        <time>2022-06-09T08:39:33Z</time>
      </trkpt>
      <trkpt lat="47.55174" lon="2.214812">
        <ele>180</ele>
        <time>2022-06-09T08:39:34Z</time>
      </trkpt>
      <trkpt lat="47.55173" lon="2.214814">
        <ele>180</ele>
        <time>2022-06-09T08:39:35Z</time>
      </trkpt>
      <trkpt lat="47.55173" lon="2.214821">
        <ele>180</ele>
        <time>2022-06-09T08:39:36Z</time>
      </trkpt>
      <trkpt lat="47.55174" lon="2.2148287">
        <ele>180</ele>
        <time>2022-06-09T08:39:37Z</time>
      </trkpt>
      <trkpt lat="47.55175" lon="2.214834">
        <ele>180</ele>
        <time>2022-06-09T08:39:38Z</time>
      </trkpt>
      <trkpt lat="47.55176" lon="2.2148423">
        <ele>180</ele>
        <time>2022-06-09T08:39:39Z</time>
      </trkpt>
      <trkpt lat="47.551777" lon="2.214847">
        <ele>180</ele>
        <time>2022-06-09T08:39:40Z</time>
      </trkpt>
      <trkpt lat="47.551792" lon="2.2148485">
        <ele>180</ele>
        <time>2022-06-09T08:39:41Z</time>
      </trkpt>
      <trkpt lat="47.551807" lon="2.214855">
        <ele>180</ele>
        <time>2022-06-09T08:39:42Z</time>
      </trkpt>
      <trkpt lat="47.55182" lon="2.2148643">
        <ele>180</ele>
        <time>2022-06-09T08:39:43Z</time>
      </trkpt>
      <trkpt lat="47.551834" lon="2.2148697">
        <ele>180</ele>
        <time>2022-06-09T08:39:44Z</time>
      </trkpt>
      <trkpt lat="47.55185" lon="2.2148736">
        <ele>180</ele>
        <time>2022-06-09T08:39:45Z</time>
      </trkpt>
      <trkpt lat="47.55186" lon="2.2148788">
        <ele>180</ele>
        <time>2022-06-09T08:39:46Z</time>
      </trkpt>
      <trkpt lat="47.551872" lon="2.214877">
        <ele>180</ele>
        <time>2022-06-09T08:39:47Z</time>
      </trkpt>
      <trkpt lat="47.551888" lon="2.2148826">
        <ele>180</ele>
        <time>2022-06-09T08:39:48Z</time>
      </trkpt>
      <trkpt lat="47.5519" lon="2.2148898">
        <ele>180</ele>
        <time>2022-06-09T08:39:49Z</time>
      </trkpt>
      <trkpt lat="47.55191" lon="2.214887">
        <ele>180</ele>
        <time>2022-06-09T08:39:50Z</time>
      </trkpt>
      <trkpt lat="47.551926" lon="2.2148817">
        <ele>181</ele>
        <time>2022-06-09T08:39:51Z</time>
      </trkpt>
      <trkpt lat="47.551937" lon="2.2148771">
        <ele>181</ele>
        <time>2022-06-09T08:39:52Z</time>
      </trkpt>
      <trkpt lat="47.551952" lon="2.2148747">
        <ele>181</ele>
        <time>2022-06-09T08:39:53Z</time>
      </trkpt>
      <trkpt lat="47.551968" lon="2.2148736">
        <ele>181</ele>
        <time>2022-06-09T08:39:54Z</time>
      </trkpt>
      <trkpt lat="47.55198" lon="2.2148743">
        <ele>181</ele>
        <time>2022-06-09T08:39:55Z</time>
      </trkpt>
      <trkpt lat="47.55199" lon="2.2148802">
        <ele>182</ele>
        <time>2022-06-09T08:39:56Z</time>
      </trkpt>
      <trkpt lat="47.55201" lon="2.2148795">
        <ele>182</ele>
        <time>2022-06-09T08:39:57Z</time>
      </trkpt>
      <trkpt lat="47.552025" lon="2.2148864">
        <ele>182</ele>
        <time>2022-06-09T08:39:58Z</time>
      </trkpt>
      <trkpt lat="47.552032" lon="2.21489">
        <ele>182</ele>
        <time>2022-06-09T08:39:59Z</time>
      </trkpt>
      <trkpt lat="47.552044" lon="2.2148948">
        <ele>182</ele>
        <time>2022-06-09T08:40:00Z</time>
      </trkpt>
      <trkpt lat="47.55206" lon="2.214896">
        <ele>182</ele>
        <time>2022-06-09T08:40:01Z</time>
      </trkpt>
      <trkpt lat="47.55207" lon="2.2149012">
        <ele>182</ele>
        <time>2022-06-09T08:40:02Z</time>
      </trkpt>
      <trkpt lat="47.55209" lon="2.2149017">
        <ele>183</ele>
        <time>2022-06-09T08:40:03Z</time>
      </trkpt>
      <trkpt lat="47.5521" lon="2.2149034">
        <ele>183</ele>
        <time>2022-06-09T08:40:04Z</time>
      </trkpt>
      <trkpt lat="47.552116" lon="2.2149072">
        <ele>183</ele>
        <time>2022-06-09T08:40:05Z</time>
      </trkpt>
      <trkpt lat="47.55213" lon="2.2149072">
        <ele>183</ele>
        <time>2022-06-09T08:40:06Z</time>
      </trkpt>
      <trkpt lat="47.552147" lon="2.2149136">
        <ele>183</ele>
        <time>2022-06-09T08:40:07Z</time>
      </trkpt>
      <trkpt lat="47.552162" lon="2.2149198">
        <ele>183</ele>
        <time>2022-06-09T08:40:08Z</time>
      </trkpt>
      <trkpt lat="47.55218" lon="2.2149193">
        <ele>183</ele>
        <time>2022-06-09T08:40:09Z</time>
      </trkpt>
      <trkpt lat="47.552197" lon="2.2149234">
        <ele>183</ele>
        <time>2022-06-09T08:40:10Z</time>
      </trkpt>
      <trkpt lat="47.552208" lon="2.214928">
        <ele>183</ele>
        <time>2022-06-09T08:40:11Z</time>
      </trkpt>
      <trkpt lat="47.552223" lon="2.21493">
        <ele>183</ele>
        <time>2022-06-09T08:40:12Z</time>
      </trkpt>
      <trkpt lat="47.55224" lon="2.2149353">
        <ele>183</ele>
        <time>2022-06-09T08:40:13Z</time>
      </trkpt>
      <trkpt lat="47.55225" lon="2.2149446">
        <ele>183</ele>
        <time>2022-06-09T08:40:14Z</time>
      </trkpt>
      <trkpt lat="47.55226" lon="2.2149577">
        <ele>182</ele>
        <time>2022-06-09T08:40:15Z</time>
      </trkpt>
      <trkpt lat="47.552265" lon="2.2149684">
        <ele>183</ele>
        <time>2022-06-09T08:40:16Z</time>
      </trkpt>
      <trkpt lat="47.552273" lon="2.2149754">
        <ele>183</ele>
        <time>2022-06-09T08:40:17Z</time>
      </trkpt>
      <trkpt lat="47.552277" lon="2.2149754">
        <ele>183</ele>
        <time>2022-06-09T08:40:18Z</time>
      </trkpt>
      <trkpt lat="47.552277" lon="2.2149746">
        <ele>183</ele>
        <time>2022-06-09T08:40:19Z</time>
      </trkpt>
      <trkpt lat="47.55228" lon="2.2149692">
        <ele>182</ele>
        <time>2022-06-09T08:40:20Z</time>
      </trkpt>
      <trkpt lat="47.55228" lon="2.2149692">
        <ele>182</ele>
        <time>2022-06-09T08:40:20Z</time>
      </trkpt>
      <trkpt lat="47.55228" lon="2.2149692">
        <ele>182</ele>
        <time>2022-06-09T08:40:20Z</time>
      </trkpt>
      <trkpt lat="47.552364" lon="2.215018">
        <ele>190</ele>
        <time>2022-06-09T08:45:11Z</time>
      </trkpt>
      <trkpt lat="47.552372" lon="2.2150207">
        <ele>190</ele>
        <time>2022-06-09T08:45:12Z</time>
      </trkpt>
      <trkpt lat="47.55238" lon="2.2150147">
        <ele>190</ele>
        <time>2022-06-09T08:45:13Z</time>
      </trkpt>
      <trkpt lat="47.55238" lon="2.2150147">
        <ele>190</ele>
        <time>2022-06-09T08:45:13Z</time>
      </trkpt>
      <trkpt lat="47.552387" lon="2.2150192">
        <ele>189</ele>
        <time>2022-06-09T08:45:14Z</time>
      </trkpt>
      <trkpt lat="47.552395" lon="2.2150192">
        <ele>189</ele>
        <time>2022-06-09T08:45:15Z</time>
      </trkpt>
      <trkpt lat="47.552406" lon="2.2150214">
        <ele>188</ele>
        <time>2022-06-09T08:45:16Z</time>
      </trkpt>
      <trkpt lat="47.552425" lon="2.21502">
        <ele>188</ele>
        <time>2022-06-09T08:45:18Z</time>
      </trkpt>
      <trkpt lat="47.552433" lon="2.2150185">
        <ele>189</ele>
        <time>2022-06-09T08:45:19Z</time>
      </trkpt>
      <trkpt lat="47.552444" lon="2.21502">
        <ele>189</ele>
        <time>2022-06-09T08:45:20Z</time>
      </trkpt>
      <trkpt lat="47.552456" lon="2.2150226">
        <ele>189</ele>
        <time>2022-06-09T08:45:21Z</time>
      </trkpt>
      <trkpt lat="47.552467" lon="2.215025">
        <ele>189</ele>
        <time>2022-06-09T08:45:22Z</time>
      </trkpt>
      <trkpt lat="47.552483" lon="2.2150261">
        <ele>189</ele>
        <time>2022-06-09T08:45:23Z</time>
      </trkpt>
      <trkpt lat="47.552483" lon="2.2150261">
        <ele>189</ele>
        <time>2022-06-09T08:45:23Z</time>
      </trkpt>
      <trkpt lat="47.552505" lon="2.2150261">
        <ele>189</ele>
        <time>2022-06-09T08:45:25Z</time>
      </trkpt>
      <trkpt lat="47.552505" lon="2.2150261">
        <ele>189</ele>
        <time>2022-06-09T08:45:25Z</time>
      </trkpt>
      <trkpt lat="47.55253" lon="2.2150326">
        <ele>189</ele>
        <time>2022-06-09T08:45:27Z</time>
      </trkpt>
      <trkpt lat="47.55254" lon="2.215036">
        <ele>189</ele>
        <time>2022-06-09T08:45:28Z</time>
      </trkpt>
      <trkpt lat="47.552544" lon="2.2150428">
        <ele>189</ele>
        <time>2022-06-09T08:45:29Z</time>
      </trkpt>
      <trkpt lat="47.552544" lon="2.2150428">
        <ele>189</ele>
        <time>2022-06-09T08:45:29Z</time>
      </trkpt>
      <trkpt lat="47.552547" lon="2.2150476">
        <ele>189</ele>
        <time>2022-06-09T08:45:30Z</time>
      </trkpt>
      <trkpt lat="47.552555" lon="2.215053">
        <ele>189</ele>
        <time>2022-06-09T08:45:31Z</time>
      </trkpt>
      <trkpt lat="47.552578" lon="2.215063">
        <ele>189</ele>
        <time>2022-06-09T08:45:33Z</time>
      </trkpt>
      <trkpt lat="47.55259" lon="2.2150605">
        <ele>190</ele>
        <time>2022-06-09T08:45:34Z</time>
      </trkpt>
      <trkpt lat="47.5526" lon="2.2150633">
        <ele>189</ele>
        <time>2022-06-09T08:45:35Z</time>
      </trkpt>
      <trkpt lat="47.552616" lon="2.2150726">
        <ele>189</ele>
        <time>2022-06-09T08:45:36Z</time>
      </trkpt>
      <trkpt lat="47.55263" lon="2.2150714">
        <ele>189</ele>
        <time>2022-06-09T08:45:37Z</time>
      </trkpt>
      <trkpt lat="47.55263" lon="2.2150714">
        <ele>189</ele>
        <time>2022-06-09T08:45:37Z</time>
      </trkpt>
      <trkpt lat="47.552647" lon="2.2150712">
        <ele>188</ele>
        <time>2022-06-09T08:45:38Z</time>
      </trkpt>
      <trkpt lat="47.552654" lon="2.2150698">
        <ele>187</ele>
        <time>2022-06-09T08:45:39Z</time>
      </trkpt>
      <trkpt lat="47.55267" lon="2.2150774">
        <ele>187</ele>
        <time>2022-06-09T08:45:41Z</time>
      </trkpt>
      <trkpt lat="47.552685" lon="2.2150757">
        <ele>187</ele>
        <time>2022-06-09T08:45:42Z</time>
      </trkpt>
      <trkpt lat="47.552685" lon="2.2150757">
        <ele>187</ele>
        <time>2022-06-09T08:45:42Z</time>
      </trkpt>
      <trkpt lat="47.5527" lon="2.2150753">
        <ele>187</ele>
        <time>2022-06-09T08:45:43Z</time>
      </trkpt>
      <trkpt lat="47.552723" lon="2.215087">
        <ele>187</ele>
        <time>2022-06-09T08:45:45Z</time>
      </trkpt>
      <trkpt lat="47.552723" lon="2.215087">
        <ele>187</ele>
        <time>2022-06-09T08:45:45Z</time>
      </trkpt>
      <trkpt lat="47.552753" lon="2.215098">
        <ele>186</ele>
        <time>2022-06-09T08:45:47Z</time>
      </trkpt>
      <trkpt lat="47.552753" lon="2.215098">
        <ele>186</ele>
        <time>2022-06-09T08:45:47Z</time>
      </trkpt>
      <trkpt lat="47.55277" lon="2.2151058">
        <ele>187</ele>
        <time>2022-06-09T08:45:48Z</time>
      </trkpt>
      <trkpt lat="47.552795" lon="2.21511">
        <ele>187</ele>
        <time>2022-06-09T08:45:50Z</time>
      </trkpt>
      <trkpt lat="47.552795" lon="2.21511">
        <ele>187</ele>
        <time>2022-06-09T08:45:50Z</time>
      </trkpt>
      <trkpt lat="47.552822" lon="2.2151175">
        <ele>187</ele>
        <time>2022-06-09T08:45:52Z</time>
      </trkpt>
      <trkpt lat="47.552834" lon="2.2151132">
        <ele>187</ele>
        <time>2022-06-09T08:45:53Z</time>
      </trkpt>
      <trkpt lat="47.552834" lon="2.2151132">
        <ele>187</ele>
        <time>2022-06-09T08:45:53Z</time>
      </trkpt>
      <trkpt lat="47.552856" lon="2.2151308">
        <ele>188</ele>
        <time>2022-06-09T08:45:55Z</time>
      </trkpt>
      <trkpt lat="47.552856" lon="2.2151308">
        <ele>188</ele>
        <time>2022-06-09T08:45:55Z</time>
      </trkpt>
      <trkpt lat="47.552876" lon="2.215142">
        <ele>187</ele>
        <time>2022-06-09T08:45:57Z</time>
      </trkpt>
      <trkpt lat="47.552887" lon="2.2151484">
        <ele>187</ele>
        <time>2022-06-09T08:45:58Z</time>
      </trkpt>
      <trkpt lat="47.552887" lon="2.2151484">
        <ele>187</ele>
        <time>2022-06-09T08:45:58Z</time>
      </trkpt>
      <trkpt lat="47.552895" lon="2.2151566">
        <ele>186</ele>
        <time>2022-06-09T08:45:59Z</time>
      </trkpt>
      <trkpt lat="47.552914" lon="2.2151773">
        <ele>186</ele>
        <time>2022-06-09T08:46:01Z</time>
      </trkpt>
      <trkpt lat="47.552914" lon="2.2151773">
        <ele>186</ele>
        <time>2022-06-09T08:46:01Z</time>
      </trkpt>
      <trkpt lat="47.552925" lon="2.215189">
        <ele>186</ele>
        <time>2022-06-09T08:46:02Z</time>
      </trkpt>
      <trkpt lat="47.55295" lon="2.2152092">
        <ele>185</ele>
        <time>2022-06-09T08:46:04Z</time>
      </trkpt>
      <trkpt lat="47.55295" lon="2.2152092">
        <ele>185</ele>
        <time>2022-06-09T08:46:04Z</time>
      </trkpt>
      <trkpt lat="47.55296" lon="2.2152193">
        <ele>186</ele>
        <time>2022-06-09T08:46:05Z</time>
      </trkpt>
      <trkpt lat="47.552967" lon="2.21523">
        <ele>186</ele>
        <time>2022-06-09T08:46:06Z</time>
      </trkpt>
      <trkpt lat="47.552975" lon="2.2152414">
        <ele>186</ele>
        <time>2022-06-09T08:46:07Z</time>
      </trkpt>
      <trkpt lat="47.552986" lon="2.2152576">
        <ele>187</ele>
        <time>2022-06-09T08:46:08Z</time>
      </trkpt>
      <trkpt lat="47.552998" lon="2.215272">
        <ele>186</ele>
        <time>2022-06-09T08:46:09Z</time>
      </trkpt>
      <trkpt lat="47.55301" lon="2.215288">
        <ele>186</ele>
        <time>2022-06-09T08:46:10Z</time>
      </trkpt>
      <trkpt lat="47.55302" lon="2.2153015">
        <ele>186</ele>
        <time>2022-06-09T08:46:11Z</time>
      </trkpt>
      <trkpt lat="47.55303" lon="2.2153132">
        <ele>185</ele>
        <time>2022-06-09T08:46:12Z</time>
      </trkpt>
      <trkpt lat="47.553032" lon="2.2153258">
        <ele>185</ele>
        <time>2022-06-09T08:46:13Z</time>
      </trkpt>
      <trkpt lat="47.55304" lon="2.2153575">
        <ele>185</ele>
        <time>2022-06-09T08:46:15Z</time>
      </trkpt>
      <trkpt lat="47.55304" lon="2.2153575">
        <ele>185</ele>
        <time>2022-06-09T08:46:15Z</time>
      </trkpt>
      <trkpt lat="47.55304" lon="2.215368">
        <ele>185</ele>
        <time>2022-06-09T08:46:16Z</time>
      </trkpt>
      <trkpt lat="47.553047" lon="2.2153826">
        <ele>185</ele>
        <time>2022-06-09T08:46:17Z</time>
      </trkpt>
      <trkpt lat="47.553055" lon="2.215414">
        <ele>185</ele>
        <time>2022-06-09T08:46:19Z</time>
      </trkpt>
      <trkpt lat="47.553055" lon="2.215414">
        <ele>185</ele>
        <time>2022-06-09T08:46:19Z</time>
      </trkpt>
      <trkpt lat="47.553066" lon="2.215433">
        <ele>186</ele>
        <time>2022-06-09T08:46:20Z</time>
      </trkpt>
      <trkpt lat="47.553066" lon="2.2154453">
        <ele>186</ele>
        <time>2022-06-09T08:46:21Z</time>
      </trkpt>
      <trkpt lat="47.553074" lon="2.2154622">
        <ele>186</ele>
        <time>2022-06-09T08:46:22Z</time>
      </trkpt>
      <trkpt lat="47.553078" lon="2.215484">
        <ele>186</ele>
        <time>2022-06-09T08:46:23Z</time>
      </trkpt>
      <trkpt lat="47.55309" lon="2.215502">
        <ele>186</ele>
        <time>2022-06-09T08:46:24Z</time>
      </trkpt>
      <trkpt lat="47.553097" lon="2.215513">
        <ele>186</ele>
        <time>2022-06-09T08:46:25Z</time>
      </trkpt>
      <trkpt lat="47.553104" lon="2.2155275">
        <ele>186</ele>
        <time>2022-06-09T08:46:26Z</time>
      </trkpt>
      <trkpt lat="47.553112" lon="2.2155411">
        <ele>186</ele>
        <time>2022-06-09T08:46:27Z</time>
      </trkpt>
      <trkpt lat="47.55312" lon="2.2155564">
        <ele>186</ele>
        <time>2022-06-09T08:46:28Z</time>
      </trkpt>
      <trkpt lat="47.553123" lon="2.2155755">
        <ele>186</ele>
        <time>2022-06-09T08:46:29Z</time>
      </trkpt>
      <trkpt lat="47.553127" lon="2.215589">
        <ele>186</ele>
        <time>2022-06-09T08:46:30Z</time>
      </trkpt>
      <trkpt lat="47.55313" lon="2.2156017">
        <ele>186</ele>
        <time>2022-06-09T08:46:31Z</time>
      </trkpt>
      <trkpt lat="47.55313" lon="2.2156174">
        <ele>186</ele>
        <time>2022-06-09T08:46:32Z</time>
      </trkpt>
      <trkpt lat="47.553135" lon="2.2156339">
        <ele>186</ele>
        <time>2022-06-09T08:46:33Z</time>
      </trkpt>
      <trkpt lat="47.553143" lon="2.2156537">
        <ele>185</ele>
        <time>2022-06-09T08:46:34Z</time>
      </trkpt>
      <trkpt lat="47.553146" lon="2.2156723">
        <ele>185</ele>
        <time>2022-06-09T08:46:35Z</time>
      </trkpt>
      <trkpt lat="47.55315" lon="2.2156909">
        <ele>186</ele>
        <time>2022-06-09T08:46:36Z</time>
      </trkpt>
      <trkpt lat="47.553154" lon="2.21571">
        <ele>186</ele>
        <time>2022-06-09T08:46:37Z</time>
      </trkpt>
      <trkpt lat="47.55316" lon="2.2157311">
        <ele>186</ele>
        <time>2022-06-09T08:46:38Z</time>
      </trkpt>
      <trkpt lat="47.55317" lon="2.2157433">
        <ele>186</ele>
        <time>2022-06-09T08:46:39Z</time>
      </trkpt>
      <trkpt lat="47.55317" lon="2.2157562">
        <ele>186</ele>
        <time>2022-06-09T08:46:40Z</time>
      </trkpt>
      <trkpt lat="47.553177" lon="2.215776">
        <ele>186</ele>
        <time>2022-06-09T08:46:41Z</time>
      </trkpt>
      <trkpt lat="47.55318" lon="2.2157893">
        <ele>186</ele>
        <time>2022-06-09T08:46:42Z</time>
      </trkpt>
      <trkpt lat="47.55318" lon="2.2158022">
        <ele>186</ele>
        <time>2022-06-09T08:46:43Z</time>
      </trkpt>
      <trkpt lat="47.553177" lon="2.2158182">
        <ele>186</ele>
        <time>2022-06-09T08:46:44Z</time>
      </trkpt>
      <trkpt lat="47.55318" lon="2.2158315">
        <ele>186</ele>
        <time>2022-06-09T08:46:45Z</time>
      </trkpt>
      <trkpt lat="47.55318" lon="2.2158494">
        <ele>186</ele>
        <time>2022-06-09T08:46:46Z</time>
      </trkpt>
      <trkpt lat="47.553185" lon="2.2158647">
        <ele>186</ele>
        <time>2022-06-09T08:46:47Z</time>
      </trkpt>
      <trkpt lat="47.553185" lon="2.2158766">
        <ele>187</ele>
        <time>2022-06-09T08:46:48Z</time>
      </trkpt>
      <trkpt lat="47.553185" lon="2.2158957">
        <ele>187</ele>
        <time>2022-06-09T08:46:49Z</time>
      </trkpt>
      <trkpt lat="47.55319" lon="2.2159128">
        <ele>187</ele>
        <time>2022-06-09T08:46:50Z</time>
      </trkpt>
      <trkpt lat="47.553192" lon="2.2159321">
        <ele>186</ele>
        <time>2022-06-09T08:46:51Z</time>
      </trkpt>
      <trkpt lat="47.553192" lon="2.2159483">
        <ele>186</ele>
        <time>2022-06-09T08:46:52Z</time>
      </trkpt>
      <trkpt lat="47.553196" lon="2.2159708">
        <ele>187</ele>
        <time>2022-06-09T08:46:53Z</time>
      </trkpt>
      <trkpt lat="47.553207" lon="2.215993">
        <ele>187</ele>
        <time>2022-06-09T08:46:54Z</time>
      </trkpt>
      <trkpt lat="47.553215" lon="2.21601">
        <ele>187</ele>
        <time>2022-06-09T08:46:55Z</time>
      </trkpt>
      <trkpt lat="47.553223" lon="2.2160285">
        <ele>187</ele>
        <time>2022-06-09T08:46:56Z</time>
      </trkpt>
      <trkpt lat="47.553226" lon="2.2160482">
        <ele>187</ele>
        <time>2022-06-09T08:46:57Z</time>
      </trkpt>
      <trkpt lat="47.553226" lon="2.2160642">
        <ele>187</ele>
        <time>2022-06-09T08:46:58Z</time>
      </trkpt>
      <trkpt lat="47.553226" lon="2.216081">
        <ele>187</ele>
        <time>2022-06-09T08:46:59Z</time>
      </trkpt>
      <trkpt lat="47.553226" lon="2.2160966">
        <ele>187</ele>
        <time>2022-06-09T08:47:00Z</time>
      </trkpt>
      <trkpt lat="47.55323" lon="2.2161136">
        <ele>187</ele>
        <time>2022-06-09T08:47:01Z</time>
      </trkpt>
      <trkpt lat="47.553234" lon="2.2161317">
        <ele>188</ele>
        <time>2022-06-09T08:47:02Z</time>
      </trkpt>
      <trkpt lat="47.553238" lon="2.2161412">
        <ele>188</ele>
        <time>2022-06-09T08:47:03Z</time>
      </trkpt>
      <trkpt lat="47.55324" lon="2.2161548">
        <ele>188</ele>
        <time>2022-06-09T08:47:04Z</time>
      </trkpt>
      <trkpt lat="47.55325" lon="2.21617">
        <ele>188</ele>
        <time>2022-06-09T08:47:05Z</time>
      </trkpt>
      <trkpt lat="47.553253" lon="2.2161808">
        <ele>188</ele>
        <time>2022-06-09T08:47:06Z</time>
      </trkpt>
      <trkpt lat="47.553257" lon="2.2161922">
        <ele>187</ele>
        <time>2022-06-09T08:47:07Z</time>
      </trkpt>
      <trkpt lat="47.553265" lon="2.2162035">
        <ele>187</ele>
        <time>2022-06-09T08:47:08Z</time>
      </trkpt>
      <trkpt lat="47.553265" lon="2.2162173">
        <ele>187</ele>
        <time>2022-06-09T08:47:09Z</time>
      </trkpt>
      <trkpt lat="47.55327" lon="2.2162342">
        <ele>187</ele>
        <time>2022-06-09T08:47:10Z</time>
      </trkpt>
      <trkpt lat="47.553272" lon="2.2162492">
        <ele>187</ele>
        <time>2022-06-09T08:47:11Z</time>
      </trkpt>
      <trkpt lat="47.55328" lon="2.2162614">
        <ele>186</ele>
        <time>2022-06-09T08:47:12Z</time>
      </trkpt>
      <trkpt lat="47.553284" lon="2.2162738">
        <ele>186</ele>
        <time>2022-06-09T08:47:13Z</time>
      </trkpt>
      <trkpt lat="47.553288" lon="2.2162857">
        <ele>186</ele>
        <time>2022-06-09T08:47:14Z</time>
      </trkpt>
      <trkpt lat="47.55329" lon="2.2163002">
        <ele>185</ele>
        <time>2022-06-09T08:47:15Z</time>
      </trkpt>
      <trkpt lat="47.5533" lon="2.2163181">
        <ele>185</ele>
        <time>2022-06-09T08:47:16Z</time>
      </trkpt>
      <trkpt lat="47.5533" lon="2.2163384">
        <ele>186</ele>
        <time>2022-06-09T08:47:17Z</time>
      </trkpt>
      <trkpt lat="47.553303" lon="2.2163522">
        <ele>185</ele>
        <time>2022-06-09T08:47:18Z</time>
      </trkpt>
      <trkpt lat="47.553307" lon="2.2163699">
        <ele>185</ele>
        <time>2022-06-09T08:47:19Z</time>
      </trkpt>
      <trkpt lat="47.55331" lon="2.2163842">
        <ele>185</ele>
        <time>2022-06-09T08:47:20Z</time>
      </trkpt>
      <trkpt lat="47.55331" lon="2.2163982">
        <ele>185</ele>
        <time>2022-06-09T08:47:21Z</time>
      </trkpt>
      <trkpt lat="47.553314" lon="2.216413">
        <ele>185</ele>
        <time>2022-06-09T08:47:22Z</time>
      </trkpt>
      <trkpt lat="47.55332" lon="2.2164307">
        <ele>185</ele>
        <time>2022-06-09T08:47:23Z</time>
      </trkpt>
      <trkpt lat="47.55332" lon="2.2164483">
        <ele>185</ele>
        <time>2022-06-09T08:47:24Z</time>
      </trkpt>
      <trkpt lat="47.55332" lon="2.2164626">
        <ele>185</ele>
        <time>2022-06-09T08:47:25Z</time>
      </trkpt>
      <trkpt lat="47.553326" lon="2.2164793">
        <ele>185</ele>
        <time>2022-06-09T08:47:26Z</time>
      </trkpt>
      <trkpt lat="47.55333" lon="2.2164955">
        <ele>185</ele>
        <time>2022-06-09T08:47:27Z</time>
      </trkpt>
      <trkpt lat="47.553333" lon="2.216519">
        <ele>185</ele>
        <time>2022-06-09T08:47:28Z</time>
      </trkpt>
      <trkpt lat="47.553337" lon="2.2165368">
        <ele>186</ele>
        <time>2022-06-09T08:47:29Z</time>
      </trkpt>
      <trkpt lat="47.553337" lon="2.2165496">
        <ele>186</ele>
        <time>2022-06-09T08:47:30Z</time>
      </trkpt>
      <trkpt lat="47.55334" lon="2.2165585">
        <ele>186</ele>
        <time>2022-06-09T08:47:31Z</time>
      </trkpt>
      <trkpt lat="47.55335" lon="2.2165756">
        <ele>186</ele>
        <time>2022-06-09T08:47:32Z</time>
      </trkpt>
      <trkpt lat="47.553352" lon="2.2165911">
        <ele>186</ele>
        <time>2022-06-09T08:47:33Z</time>
      </trkpt>
      <trkpt lat="47.55336" lon="2.2166107">
        <ele>186</ele>
        <time>2022-06-09T08:47:34Z</time>
      </trkpt>
      <trkpt lat="47.553368" lon="2.2166228">
        <ele>186</ele>
        <time>2022-06-09T08:47:35Z</time>
      </trkpt>
      <trkpt lat="47.553375" lon="2.216636">
        <ele>186</ele>
        <time>2022-06-09T08:47:36Z</time>
      </trkpt>
      <trkpt lat="47.55338" lon="2.2166483">
        <ele>186</ele>
        <time>2022-06-09T08:47:37Z</time>
      </trkpt>
      <trkpt lat="47.55339" lon="2.216663">
        <ele>186</ele>
        <time>2022-06-09T08:47:38Z</time>
      </trkpt>
      <trkpt lat="47.5534" lon="2.216682">
        <ele>186</ele>
        <time>2022-06-09T08:47:39Z</time>
      </trkpt>
      <trkpt lat="47.553402" lon="2.2166958">
        <ele>185</ele>
        <time>2022-06-09T08:47:40Z</time>
      </trkpt>
      <trkpt lat="47.55341" lon="2.2167144">
        <ele>186</ele>
        <time>2022-06-09T08:47:41Z</time>
      </trkpt>
      <trkpt lat="47.553413" lon="2.2167237">
        <ele>186</ele>
        <time>2022-06-09T08:47:42Z</time>
      </trkpt>
      <trkpt lat="47.553413" lon="2.2167356">
        <ele>186</ele>
        <time>2022-06-09T08:47:43Z</time>
      </trkpt>
      <trkpt lat="47.553417" lon="2.216747">
        <ele>186</ele>
        <time>2022-06-09T08:47:44Z</time>
      </trkpt>
      <trkpt lat="47.55342" lon="2.2167578">
        <ele>185</ele>
        <time>2022-06-09T08:47:45Z</time>
      </trkpt>
      <trkpt lat="47.553425" lon="2.2167766">
        <ele>184</ele>
        <time>2022-06-09T08:47:46Z</time>
      </trkpt>
      <trkpt lat="47.55343" lon="2.2167947">
        <ele>184</ele>
        <time>2022-06-09T08:47:47Z</time>
      </trkpt>
      <trkpt lat="47.55343" lon="2.2168121">
        <ele>184</ele>
        <time>2022-06-09T08:47:48Z</time>
      </trkpt>
      <trkpt lat="47.553432" lon="2.216826">
        <ele>184</ele>
        <time>2022-06-09T08:47:49Z</time>
      </trkpt>
      <trkpt lat="47.553436" lon="2.21684">
        <ele>185</ele>
        <time>2022-06-09T08:47:50Z</time>
      </trkpt>
      <trkpt lat="47.553444" lon="2.216855">
        <ele>185</ele>
        <time>2022-06-09T08:47:51Z</time>
      </trkpt>
      <trkpt lat="47.553448" lon="2.2168713">
        <ele>185</ele>
        <time>2022-06-09T08:47:52Z</time>
      </trkpt>
      <trkpt lat="47.55345" lon="2.21689">
        <ele>185</ele>
        <time>2022-06-09T08:47:53Z</time>
      </trkpt>
      <trkpt lat="47.553455" lon="2.2169075">
        <ele>185</ele>
        <time>2022-06-09T08:47:54Z</time>
      </trkpt>
      <trkpt lat="47.553463" lon="2.2169254">
        <ele>185</ele>
        <time>2022-06-09T08:47:55Z</time>
      </trkpt>
      <trkpt lat="47.553467" lon="2.2169442">
        <ele>185</ele>
        <time>2022-06-09T08:47:56Z</time>
      </trkpt>
      <trkpt lat="47.55347" lon="2.2169638">
        <ele>185</ele>
        <time>2022-06-09T08:47:57Z</time>
      </trkpt>
      <trkpt lat="47.553474" lon="2.216984">
        <ele>186</ele>
        <time>2022-06-09T08:47:58Z</time>
      </trkpt>
      <trkpt lat="47.55348" lon="2.2169986">
        <ele>185</ele>
        <time>2022-06-09T08:47:59Z</time>
      </trkpt>
      <trkpt lat="47.55349" lon="2.2170153">
        <ele>185</ele>
        <time>2022-06-09T08:48:00Z</time>
      </trkpt>
      <trkpt lat="47.553493" lon="2.217033">
        <ele>185</ele>
        <time>2022-06-09T08:48:01Z</time>
      </trkpt>
      <trkpt lat="47.553497" lon="2.2170563">
        <ele>185</ele>
        <time>2022-06-09T08:48:02Z</time>
      </trkpt>
      <trkpt lat="47.5535" lon="2.2170758">
        <ele>185</ele>
        <time>2022-06-09T08:48:03Z</time>
      </trkpt>
      <trkpt lat="47.553513" lon="2.2170942">
        <ele>186</ele>
        <time>2022-06-09T08:48:04Z</time>
      </trkpt>
      <trkpt lat="47.55352" lon="2.2171123">
        <ele>186</ele>
        <time>2022-06-09T08:48:05Z</time>
      </trkpt>
      <trkpt lat="47.553524" lon="2.2171338">
        <ele>186</ele>
        <time>2022-06-09T08:48:06Z</time>
      </trkpt>
      <trkpt lat="47.553528" lon="2.2171524">
        <ele>186</ele>
        <time>2022-06-09T08:48:07Z</time>
      </trkpt>
      <trkpt lat="47.55353" lon="2.2171695">
        <ele>185</ele>
        <time>2022-06-09T08:48:08Z</time>
      </trkpt>
      <trkpt lat="47.553535" lon="2.2171838">
        <ele>185</ele>
        <time>2022-06-09T08:48:09Z</time>
      </trkpt>
      <trkpt lat="47.553543" lon="2.2171988">
        <ele>185</ele>
        <time>2022-06-09T08:48:10Z</time>
      </trkpt>
      <trkpt lat="47.553547" lon="2.217216">
        <ele>185</ele>
        <time>2022-06-09T08:48:11Z</time>
      </trkpt>
      <trkpt lat="47.553547" lon="2.217231">
        <ele>185</ele>
        <time>2022-06-09T08:48:12Z</time>
      </trkpt>
      <trkpt lat="47.55355" lon="2.2172458">
        <ele>185</ele>
        <time>2022-06-09T08:48:13Z</time>
      </trkpt>
      <trkpt lat="47.55356" lon="2.2172627">
        <ele>185</ele>
        <time>2022-06-09T08:48:14Z</time>
      </trkpt>
      <trkpt lat="47.553562" lon="2.2172806">
        <ele>185</ele>
        <time>2022-06-09T08:48:15Z</time>
      </trkpt>
      <trkpt lat="47.553562" lon="2.2172966">
        <ele>185</ele>
        <time>2022-06-09T08:48:16Z</time>
      </trkpt>
      <trkpt lat="47.553566" lon="2.21731">
        <ele>185</ele>
        <time>2022-06-09T08:48:17Z</time>
      </trkpt>
      <trkpt lat="47.55357" lon="2.217323">
        <ele>185</ele>
        <time>2022-06-09T08:48:18Z</time>
      </trkpt>
      <trkpt lat="47.553577" lon="2.21734">
        <ele>185</ele>
        <time>2022-06-09T08:48:19Z</time>
      </trkpt>
      <trkpt lat="47.55358" lon="2.2173502">
        <ele>185</ele>
        <time>2022-06-09T08:48:20Z</time>
      </trkpt>
      <trkpt lat="47.553585" lon="2.217369">
        <ele>185</ele>
        <time>2022-06-09T08:48:21Z</time>
      </trkpt>
      <trkpt lat="47.553593" lon="2.2173924">
        <ele>185</ele>
        <time>2022-06-09T08:48:22Z</time>
      </trkpt>
      <trkpt lat="47.5536" lon="2.2174044">
        <ele>185</ele>
        <time>2022-06-09T08:48:23Z</time>
      </trkpt>
      <trkpt lat="47.553608" lon="2.2174153">
        <ele>185</ele>
        <time>2022-06-09T08:48:24Z</time>
      </trkpt>
      <trkpt lat="47.553608" lon="2.217428">
        <ele>185</ele>
        <time>2022-06-09T08:48:25Z</time>
      </trkpt>
      <trkpt lat="47.55361" lon="2.2174444">
        <ele>185</ele>
        <time>2022-06-09T08:48:26Z</time>
      </trkpt>
      <trkpt lat="47.553616" lon="2.2174652">
        <ele>185</ele>
        <time>2022-06-09T08:48:27Z</time>
      </trkpt>
      <trkpt lat="47.55361" lon="2.2174835">
        <ele>185</ele>
        <time>2022-06-09T08:48:28Z</time>
      </trkpt>
      <trkpt lat="47.55361" lon="2.217501">
        <ele>185</ele>
        <time>2022-06-09T08:48:29Z</time>
      </trkpt>
      <trkpt lat="47.553616" lon="2.2175188">
        <ele>185</ele>
        <time>2022-06-09T08:48:30Z</time>
      </trkpt>
      <trkpt lat="47.55362" lon="2.2175338">
        <ele>185</ele>
        <time>2022-06-09T08:48:31Z</time>
      </trkpt>
      <trkpt lat="47.553623" lon="2.2175493">
        <ele>184</ele>
        <time>2022-06-09T08:48:32Z</time>
      </trkpt>
      <trkpt lat="47.553627" lon="2.217565">
        <ele>184</ele>
        <time>2022-06-09T08:48:33Z</time>
      </trkpt>
      <trkpt lat="47.55363" lon="2.2175827">
        <ele>184</ele>
        <time>2022-06-09T08:48:34Z</time>
      </trkpt>
      <trkpt lat="47.553642" lon="2.2176003">
        <ele>184</ele>
        <time>2022-06-09T08:48:35Z</time>
      </trkpt>
      <trkpt lat="47.553646" lon="2.2176175">
        <ele>184</ele>
        <time>2022-06-09T08:48:36Z</time>
      </trkpt>
      <trkpt lat="47.55365" lon="2.217637">
        <ele>184</ele>
        <time>2022-06-09T08:48:37Z</time>
      </trkpt>
      <trkpt lat="47.55365" lon="2.217659">
        <ele>183</ele>
        <time>2022-06-09T08:48:38Z</time>
      </trkpt>
      <trkpt lat="47.55365" lon="2.2176816">
        <ele>182</ele>
        <time>2022-06-09T08:48:39Z</time>
      </trkpt>
      <trkpt lat="47.553654" lon="2.217703">
        <ele>183</ele>
        <time>2022-06-09T08:48:40Z</time>
      </trkpt>
      <trkpt lat="47.553658" lon="2.2177198">
        <ele>182</ele>
        <time>2022-06-09T08:48:41Z</time>
      </trkpt>
      <trkpt lat="47.553665" lon="2.2177382">
        <ele>182</ele>
        <time>2022-06-09T08:48:42Z</time>
      </trkpt>
      <trkpt lat="47.553673" lon="2.2177577">
        <ele>182</ele>
        <time>2022-06-09T08:48:43Z</time>
      </trkpt>
      <trkpt lat="47.553677" lon="2.2177782">
        <ele>183</ele>
        <time>2022-06-09T08:48:44Z</time>
      </trkpt>
      <trkpt lat="47.55368" lon="2.2177935">
        <ele>183</ele>
        <time>2022-06-09T08:48:45Z</time>
      </trkpt>
      <trkpt lat="47.553688" lon="2.217814">
        <ele>183</ele>
        <time>2022-06-09T08:48:46Z</time>
      </trkpt>
      <trkpt lat="47.553688" lon="2.2178266">
        <ele>183</ele>
        <time>2022-06-09T08:48:47Z</time>
      </trkpt>
      <trkpt lat="47.553688" lon="2.2178426">
        <ele>183</ele>
        <time>2022-06-09T08:48:48Z</time>
      </trkpt>
      <trkpt lat="47.553696" lon="2.217857">
        <ele>183</ele>
        <time>2022-06-09T08:48:49Z</time>
      </trkpt>
      <trkpt lat="47.5537" lon="2.2178752">
        <ele>183</ele>
        <time>2022-06-09T08:48:50Z</time>
      </trkpt>
      <trkpt lat="47.5537" lon="2.2178955">
        <ele>183</ele>
        <time>2022-06-09T08:48:51Z</time>
      </trkpt>
      <trkpt lat="47.553707" lon="2.2179143">
        <ele>183</ele>
        <time>2022-06-09T08:48:52Z</time>
      </trkpt>
      <trkpt lat="47.55371" lon="2.2179315">
        <ele>183</ele>
        <time>2022-06-09T08:48:53Z</time>
      </trkpt>
      <trkpt lat="47.55372" lon="2.2179465">
        <ele>183</ele>
        <time>2022-06-09T08:48:54Z</time>
      </trkpt>
      <trkpt lat="47.553722" lon="2.2179642">
        <ele>183</ele>
        <time>2022-06-09T08:48:55Z</time>
      </trkpt>
      <trkpt lat="47.553726" lon="2.2179782">
        <ele>184</ele>
        <time>2022-06-09T08:48:56Z</time>
      </trkpt>
      <trkpt lat="47.55373" lon="2.217995">
        <ele>183</ele>
        <time>2022-06-09T08:48:57Z</time>
      </trkpt>
      <trkpt lat="47.553738" lon="2.218011">
        <ele>184</ele>
        <time>2022-06-09T08:48:58Z</time>
      </trkpt>
      <trkpt lat="47.55374" lon="2.2180204">
        <ele>184</ele>
        <time>2022-06-09T08:48:59Z</time>
      </trkpt>
      <trkpt lat="47.553753" lon="2.2180355">
        <ele>184</ele>
        <time>2022-06-09T08:49:00Z</time>
      </trkpt>
      <trkpt lat="47.55376" lon="2.218047">
        <ele>184</ele>
        <time>2022-06-09T08:49:01Z</time>
      </trkpt>
      <trkpt lat="47.55377" lon="2.21806">
        <ele>184</ele>
        <time>2022-06-09T08:49:02Z</time>
      </trkpt>
      <trkpt lat="47.553772" lon="2.2180805">
        <ele>184</ele>
        <time>2022-06-09T08:49:03Z</time>
      </trkpt>
      <trkpt lat="47.553772" lon="2.2181017">
        <ele>184</ele>
        <time>2022-06-09T08:49:04Z</time>
      </trkpt>
      <trkpt lat="47.553776" lon="2.2181168">
        <ele>184</ele>
        <time>2022-06-09T08:49:05Z</time>
      </trkpt>
      <trkpt lat="47.553783" lon="2.218126">
        <ele>183</ele>
        <time>2022-06-09T08:49:06Z</time>
      </trkpt>
      <trkpt lat="47.553787" lon="2.2181358">
        <ele>184</ele>
        <time>2022-06-09T08:49:07Z</time>
      </trkpt>
      <trkpt lat="47.553795" lon="2.2181475">
        <ele>184</ele>
        <time>2022-06-09T08:49:08Z</time>
      </trkpt>
      <trkpt lat="47.5538" lon="2.2181625">
        <ele>183</ele>
        <time>2022-06-09T08:49:09Z</time>
      </trkpt>
      <trkpt lat="47.553802" lon="2.218177">
        <ele>183</ele>
        <time>2022-06-09T08:49:10Z</time>
      </trkpt>
      <trkpt lat="47.553802" lon="2.2181945">
        <ele>183</ele>
        <time>2022-06-09T08:49:11Z</time>
      </trkpt>
      <trkpt lat="47.553806" lon="2.218214">
        <ele>183</ele>
        <time>2022-06-09T08:49:12Z</time>
      </trkpt>
      <trkpt lat="47.55381" lon="2.2182333">
        <ele>183</ele>
        <time>2022-06-09T08:49:13Z</time>
      </trkpt>
      <trkpt lat="47.553814" lon="2.218251">
        <ele>183</ele>
        <time>2022-06-09T08:49:14Z</time>
      </trkpt>
      <trkpt lat="47.553818" lon="2.2182717">
        <ele>183</ele>
        <time>2022-06-09T08:49:15Z</time>
      </trkpt>
      <trkpt lat="47.55382" lon="2.2182896">
        <ele>182</ele>
        <time>2022-06-09T08:49:16Z</time>
      </trkpt>
      <trkpt lat="47.553825" lon="2.2183065">
        <ele>182</ele>
        <time>2022-06-09T08:49:17Z</time>
      </trkpt>
      <trkpt lat="47.553825" lon="2.2183313">
        <ele>182</ele>
        <time>2022-06-09T08:49:18Z</time>
      </trkpt>
      <trkpt lat="47.553825" lon="2.2183523">
        <ele>182</ele>
        <time>2022-06-09T08:49:19Z</time>
      </trkpt>
      <trkpt lat="47.553825" lon="2.2183719">
        <ele>182</ele>
        <time>2022-06-09T08:49:20Z</time>
      </trkpt>
      <trkpt lat="47.55383" lon="2.2183912">
        <ele>182</ele>
        <time>2022-06-09T08:49:21Z</time>
      </trkpt>
      <trkpt lat="47.553837" lon="2.2184057">
        <ele>182</ele>
        <time>2022-06-09T08:49:22Z</time>
      </trkpt>
      <trkpt lat="47.55384" lon="2.2184246">
        <ele>182</ele>
        <time>2022-06-09T08:49:23Z</time>
      </trkpt>
      <trkpt lat="47.553844" lon="2.2184393">
        <ele>181</ele>
        <time>2022-06-09T08:49:24Z</time>
      </trkpt>
      <trkpt lat="47.553852" lon="2.2184522">
        <ele>181</ele>
        <time>2022-06-09T08:49:25Z</time>
      </trkpt>
      <trkpt lat="47.553856" lon="2.218467">
        <ele>182</ele>
        <time>2022-06-09T08:49:26Z</time>
      </trkpt>
      <trkpt lat="47.553856" lon="2.218489">
        <ele>182</ele>
        <time>2022-06-09T08:49:27Z</time>
      </trkpt>
      <trkpt lat="47.55386" lon="2.2185082">
        <ele>181</ele>
        <time>2022-06-09T08:49:28Z</time>
      </trkpt>
      <trkpt lat="47.553867" lon="2.2185247">
        <ele>181</ele>
        <time>2022-06-09T08:49:29Z</time>
      </trkpt>
      <trkpt lat="47.553867" lon="2.218546">
        <ele>181</ele>
        <time>2022-06-09T08:49:30Z</time>
      </trkpt>
      <trkpt lat="47.55387" lon="2.218565">
        <ele>181</ele>
        <time>2022-06-09T08:49:31Z</time>
      </trkpt>
      <trkpt lat="47.55388" lon="2.2185802">
        <ele>181</ele>
        <time>2022-06-09T08:49:32Z</time>
      </trkpt>
      <trkpt lat="47.55389" lon="2.218596">
        <ele>181</ele>
        <time>2022-06-09T08:49:33Z</time>
      </trkpt>
      <trkpt lat="47.553894" lon="2.2186105">
        <ele>182</ele>
        <time>2022-06-09T08:49:34Z</time>
      </trkpt>
      <trkpt lat="47.5539" lon="2.218624">
        <ele>182</ele>
        <time>2022-06-09T08:49:35Z</time>
      </trkpt>
      <trkpt lat="47.553913" lon="2.2186363">
        <ele>182</ele>
        <time>2022-06-09T08:49:36Z</time>
      </trkpt>
      <trkpt lat="47.55392" lon="2.2186503">
        <ele>182</ele>
        <time>2022-06-09T08:49:37Z</time>
      </trkpt>
      <trkpt lat="47.55393" lon="2.2186658">
        <ele>182</ele>
        <time>2022-06-09T08:49:38Z</time>
      </trkpt>
      <trkpt lat="47.553932" lon="2.2186852">
        <ele>181</ele>
        <time>2022-06-09T08:49:39Z</time>
      </trkpt>
      <trkpt lat="47.55394" lon="2.2187018">
        <ele>181</ele>
        <time>2022-06-09T08:49:40Z</time>
      </trkpt>
      <trkpt lat="47.55394" lon="2.2187183">
        <ele>181</ele>
        <time>2022-06-09T08:49:41Z</time>
      </trkpt>
      <trkpt lat="47.553944" lon="2.2187319">
        <ele>181</ele>
        <time>2022-06-09T08:49:42Z</time>
      </trkpt>
      <trkpt lat="47.553947" lon="2.218754">
        <ele>181</ele>
        <time>2022-06-09T08:49:43Z</time>
      </trkpt>
      <trkpt lat="47.55395" lon="2.2187738">
        <ele>181</ele>
        <time>2022-06-09T08:49:44Z</time>
      </trkpt>
      <trkpt lat="47.553955" lon="2.2187903">
        <ele>181</ele>
        <time>2022-06-09T08:49:45Z</time>
      </trkpt>
      <trkpt lat="47.553955" lon="2.2188096">
        <ele>181</ele>
        <time>2022-06-09T08:49:46Z</time>
      </trkpt>
      <trkpt lat="47.55396" lon="2.2188256">
        <ele>181</ele>
        <time>2022-06-09T08:49:47Z</time>
      </trkpt>
      <trkpt lat="47.553963" lon="2.2188346">
        <ele>180</ele>
        <time>2022-06-09T08:49:48Z</time>
      </trkpt>
      <trkpt lat="47.553967" lon="2.2188456">
        <ele>180</ele>
        <time>2022-06-09T08:49:49Z</time>
      </trkpt>
      <trkpt lat="47.553974" lon="2.2188654">
        <ele>180</ele>
        <time>2022-06-09T08:49:50Z</time>
      </trkpt>
      <trkpt lat="47.55398" lon="2.2188835">
        <ele>180</ele>
        <time>2022-06-09T08:49:51Z</time>
      </trkpt>
      <trkpt lat="47.55399" lon="2.218897">
        <ele>180</ele>
        <time>2022-06-09T08:49:52Z</time>
      </trkpt>
      <trkpt lat="47.553993" lon="2.218908">
        <ele>179</ele>
        <time>2022-06-09T08:49:53Z</time>
      </trkpt>
      <trkpt lat="47.554" lon="2.2189214">
        <ele>179</ele>
        <time>2022-06-09T08:49:54Z</time>
      </trkpt>
      <trkpt lat="47.554005" lon="2.2189305">
        <ele>179</ele>
        <time>2022-06-09T08:49:55Z</time>
      </trkpt>
      <trkpt lat="47.55401" lon="2.218948">
        <ele>179</ele>
        <time>2022-06-09T08:49:56Z</time>
      </trkpt>
      <trkpt lat="47.554012" lon="2.218968">
        <ele>179</ele>
        <time>2022-06-09T08:49:57Z</time>
      </trkpt>
      <trkpt lat="47.554016" lon="2.218984">
        <ele>178</ele>
        <time>2022-06-09T08:49:58Z</time>
      </trkpt>
      <trkpt lat="47.554024" lon="2.2189987">
        <ele>178</ele>
        <time>2022-06-09T08:49:59Z</time>
      </trkpt>
      <trkpt lat="47.554028" lon="2.2190113">
        <ele>178</ele>
        <time>2022-06-09T08:50:00Z</time>
      </trkpt>
      <trkpt lat="47.55403" lon="2.2190282">
        <ele>178</ele>
        <time>2022-06-09T08:50:01Z</time>
      </trkpt>
      <trkpt lat="47.55403" lon="2.219046">
        <ele>178</ele>
        <time>2022-06-09T08:50:02Z</time>
      </trkpt>
      <trkpt lat="47.55403" lon="2.2190688">
        <ele>177</ele>
        <time>2022-06-09T08:50:03Z</time>
      </trkpt>
      <trkpt lat="47.554035" lon="2.21909">
        <ele>177</ele>
        <time>2022-06-09T08:50:04Z</time>
      </trkpt>
      <trkpt lat="47.55404" lon="2.2191036">
        <ele>177</ele>
        <time>2022-06-09T08:50:05Z</time>
      </trkpt>
      <trkpt lat="47.554043" lon="2.2191174">
        <ele>177</ele>
        <time>2022-06-09T08:50:06Z</time>
      </trkpt>
      <trkpt lat="47.554054" lon="2.2191322">
        <ele>178</ele>
        <time>2022-06-09T08:50:07Z</time>
      </trkpt>
      <trkpt lat="47.554054" lon="2.2191446">
        <ele>177</ele>
        <time>2022-06-09T08:50:08Z</time>
      </trkpt>
      <trkpt lat="47.55405" lon="2.2191558">
        <ele>178</ele>
        <time>2022-06-09T08:50:09Z</time>
      </trkpt>
      <trkpt lat="47.55405" lon="2.2191665">
        <ele>178</ele>
        <time>2022-06-09T08:50:10Z</time>
      </trkpt>
      <trkpt lat="47.55405" lon="2.2191665">
        <ele>178</ele>
        <time>2022-06-09T08:50:11Z</time>
      </trkpt>
      <trkpt lat="47.55405" lon="2.2191665">
        <ele>178</ele>
        <time>2022-06-09T08:50:12Z</time>
      </trkpt>
      <trkpt lat="47.554054" lon="2.219205">
        <ele>177</ele>
        <time>2022-06-09T08:50:13Z</time>
      </trkpt>
      <trkpt lat="47.554058" lon="2.219218">
        <ele>176</ele>
        <time>2022-06-09T08:50:14Z</time>
      </trkpt>
      <trkpt lat="47.55406" lon="2.21924">
        <ele>176</ele>
        <time>2022-06-09T08:50:15Z</time>
      </trkpt>
      <trkpt lat="47.554073" lon="2.2192569">
        <ele>176</ele>
        <time>2022-06-09T08:50:16Z</time>
      </trkpt>
      <trkpt lat="47.55408" lon="2.2192745">
        <ele>175</ele>
        <time>2022-06-09T08:50:17Z</time>
      </trkpt>
      <trkpt lat="47.554085" lon="2.2192938">
        <ele>175</ele>
        <time>2022-06-09T08:50:18Z</time>
      </trkpt>
      <trkpt lat="47.554085" lon="2.2193124">
        <ele>175</ele>
        <time>2022-06-09T08:50:19Z</time>
      </trkpt>
      <trkpt lat="47.55409" lon="2.2193286">
        <ele>175</ele>
        <time>2022-06-09T08:50:20Z</time>
      </trkpt>
      <trkpt lat="47.5541" lon="2.2193494">
        <ele>175</ele>
        <time>2022-06-09T08:50:21Z</time>
      </trkpt>
      <trkpt lat="47.554104" lon="2.219368">
        <ele>175</ele>
        <time>2022-06-09T08:50:22Z</time>
      </trkpt>
      <trkpt lat="47.554108" lon="2.2193854">
        <ele>175</ele>
        <time>2022-06-09T08:50:23Z</time>
      </trkpt>
      <trkpt lat="47.55411" lon="2.2194088">
        <ele>175</ele>
        <time>2022-06-09T08:50:24Z</time>
      </trkpt>
      <trkpt lat="47.554115" lon="2.219429">
        <ele>175</ele>
        <time>2022-06-09T08:50:25Z</time>
      </trkpt>
      <trkpt lat="47.55412" lon="2.219451">
        <ele>175</ele>
        <time>2022-06-09T08:50:26Z</time>
      </trkpt>
      <trkpt lat="47.554123" lon="2.2194695">
        <ele>175</ele>
        <time>2022-06-09T08:50:27Z</time>
      </trkpt>
      <trkpt lat="47.554134" lon="2.2194905">
        <ele>175</ele>
        <time>2022-06-09T08:50:28Z</time>
      </trkpt>
      <trkpt lat="47.554134" lon="2.2195103">
        <ele>175</ele>
        <time>2022-06-09T08:50:29Z</time>
      </trkpt>
      <trkpt lat="47.554142" lon="2.2195265">
        <ele>175</ele>
        <time>2022-06-09T08:50:30Z</time>
      </trkpt>
      <trkpt lat="47.554146" lon="2.219546">
        <ele>175</ele>
        <time>2022-06-09T08:50:31Z</time>
      </trkpt>
      <trkpt lat="47.55415" lon="2.2195663">
        <ele>175</ele>
        <time>2022-06-09T08:50:32Z</time>
      </trkpt>
      <trkpt lat="47.554153" lon="2.2195907">
        <ele>175</ele>
        <time>2022-06-09T08:50:33Z</time>
      </trkpt>
      <trkpt lat="47.55416" lon="2.2196126">
        <ele>175</ele>
        <time>2022-06-09T08:50:34Z</time>
      </trkpt>
      <trkpt lat="47.554165" lon="2.219628">
        <ele>175</ele>
        <time>2022-06-09T08:50:35Z</time>
      </trkpt>
      <trkpt lat="47.55417" lon="2.2196438">
        <ele>175</ele>
        <time>2022-06-09T08:50:36Z</time>
      </trkpt>
      <trkpt lat="47.554173" lon="2.2196612">
        <ele>175</ele>
        <time>2022-06-09T08:50:37Z</time>
      </trkpt>
      <trkpt lat="47.554176" lon="2.2196784">
        <ele>175</ele>
        <time>2022-06-09T08:50:38Z</time>
      </trkpt>
      <trkpt lat="47.55418" lon="2.219696">
        <ele>175</ele>
        <time>2022-06-09T08:50:39Z</time>
      </trkpt>
      <trkpt lat="47.554176" lon="2.2197137">
        <ele>175</ele>
        <time>2022-06-09T08:50:40Z</time>
      </trkpt>
      <trkpt lat="47.55418" lon="2.2197297">
        <ele>174</ele>
        <time>2022-06-09T08:50:41Z</time>
      </trkpt>
      <trkpt lat="47.554188" lon="2.219746">
        <ele>174</ele>
        <time>2022-06-09T08:50:42Z</time>
      </trkpt>
      <trkpt lat="47.554195" lon="2.2197602">
        <ele>175</ele>
        <time>2022-06-09T08:50:43Z</time>
      </trkpt>
      <trkpt lat="47.554203" lon="2.219779">
        <ele>174</ele>
        <time>2022-06-09T08:50:44Z</time>
      </trkpt>
      <trkpt lat="47.55421" lon="2.2197914">
        <ele>174</ele>
        <time>2022-06-09T08:50:45Z</time>
      </trkpt>
      <trkpt lat="47.55422" lon="2.219803">
        <ele>174</ele>
        <time>2022-06-09T08:50:46Z</time>
      </trkpt>
      <trkpt lat="47.554226" lon="2.2198212">
        <ele>174</ele>
        <time>2022-06-09T08:50:47Z</time>
      </trkpt>
      <trkpt lat="47.554226" lon="2.219838">
        <ele>174</ele>
        <time>2022-06-09T08:50:48Z</time>
      </trkpt>
      <trkpt lat="47.554226" lon="2.2198527">
        <ele>174</ele>
        <time>2022-06-09T08:50:49Z</time>
      </trkpt>
      <trkpt lat="47.554226" lon="2.219872">
        <ele>174</ele>
        <time>2022-06-09T08:50:50Z</time>
      </trkpt>
      <trkpt lat="47.55423" lon="2.2198904">
        <ele>173</ele>
        <time>2022-06-09T08:50:51Z</time>
      </trkpt>
      <trkpt lat="47.554234" lon="2.2199063">
        <ele>173</ele>
        <time>2022-06-09T08:50:52Z</time>
      </trkpt>
      <trkpt lat="47.554237" lon="2.2199197">
        <ele>173</ele>
        <time>2022-06-09T08:50:53Z</time>
      </trkpt>
      <trkpt lat="47.554245" lon="2.2199345">
        <ele>172</ele>
        <time>2022-06-09T08:50:54Z</time>
      </trkpt>
      <trkpt lat="47.554253" lon="2.219952">
        <ele>172</ele>
        <time>2022-06-09T08:50:55Z</time>
      </trkpt>
      <trkpt lat="47.554256" lon="2.2199667">
        <ele>172</ele>
        <time>2022-06-09T08:50:56Z</time>
      </trkpt>
      <trkpt lat="47.554268" lon="2.2199857">
        <ele>173</ele>
        <time>2022-06-09T08:50:57Z</time>
      </trkpt>
      <trkpt lat="47.55427" lon="2.2200038">
        <ele>174</ele>
        <time>2022-06-09T08:50:58Z</time>
      </trkpt>
      <trkpt lat="47.55428" lon="2.220021">
        <ele>174</ele>
        <time>2022-06-09T08:50:59Z</time>
      </trkpt>
      <trkpt lat="47.554283" lon="2.220037">
        <ele>174</ele>
        <time>2022-06-09T08:51:00Z</time>
      </trkpt>
      <trkpt lat="47.554287" lon="2.220062">
        <ele>174</ele>
        <time>2022-06-09T08:51:01Z</time>
      </trkpt>
      <trkpt lat="47.55429" lon="2.2200847">
        <ele>174</ele>
        <time>2022-06-09T08:51:02Z</time>
      </trkpt>
      <trkpt lat="47.554295" lon="2.2200973">
        <ele>174</ele>
        <time>2022-06-09T08:51:03Z</time>
      </trkpt>
      <trkpt lat="47.5543" lon="2.2201228">
        <ele>174</ele>
        <time>2022-06-09T08:51:04Z</time>
      </trkpt>
      <trkpt lat="47.554302" lon="2.2201436">
        <ele>174</ele>
        <time>2022-06-09T08:51:05Z</time>
      </trkpt>
      <trkpt lat="47.554306" lon="2.2201579">
        <ele>175</ele>
        <time>2022-06-09T08:51:06Z</time>
      </trkpt>
      <trkpt lat="47.554306" lon="2.2201753">
        <ele>175</ele>
        <time>2022-06-09T08:51:07Z</time>
      </trkpt>
      <trkpt lat="47.554314" lon="2.2201912">
        <ele>176</ele>
        <time>2022-06-09T08:51:08Z</time>
      </trkpt>
      <trkpt lat="47.554317" lon="2.220209">
        <ele>175</ele>
        <time>2022-06-09T08:51:09Z</time>
      </trkpt>
      <trkpt lat="47.554325" lon="2.2202241">
        <ele>176</ele>
        <time>2022-06-09T08:51:10Z</time>
      </trkpt>
      <trkpt lat="47.554325" lon="2.2202425">
        <ele>176</ele>
        <time>2022-06-09T08:51:11Z</time>
      </trkpt>
      <trkpt lat="47.554325" lon="2.2202556">
        <ele>177</ele>
        <time>2022-06-09T08:51:12Z</time>
      </trkpt>
      <trkpt lat="47.55433" lon="2.2202702">
        <ele>177</ele>
        <time>2022-06-09T08:51:13Z</time>
      </trkpt>
      <trkpt lat="47.554337" lon="2.2202814">
        <ele>177</ele>
        <time>2022-06-09T08:51:14Z</time>
      </trkpt>
      <trkpt lat="47.55434" lon="2.2202945">
        <ele>177</ele>
        <time>2022-06-09T08:51:15Z</time>
      </trkpt>
      <trkpt lat="47.554344" lon="2.2203097">
        <ele>177</ele>
        <time>2022-06-09T08:51:16Z</time>
      </trkpt>
      <trkpt lat="47.55435" lon="2.2203243">
        <ele>177</ele>
        <time>2022-06-09T08:51:17Z</time>
      </trkpt>
      <trkpt lat="47.55435" lon="2.2203386">
        <ele>177</ele>
        <time>2022-06-09T08:51:18Z</time>
      </trkpt>
      <trkpt lat="47.55436" lon="2.2203572">
        <ele>178</ele>
        <time>2022-06-09T08:51:19Z</time>
      </trkpt>
      <trkpt lat="47.55436" lon="2.2203724">
        <ele>178</ele>
        <time>2022-06-09T08:51:20Z</time>
      </trkpt>
      <trkpt lat="47.554367" lon="2.2203867">
        <ele>178</ele>
        <time>2022-06-09T08:51:21Z</time>
      </trkpt>
      <trkpt lat="47.55437" lon="2.2204037">
        <ele>178</ele>
        <time>2022-06-09T08:51:22Z</time>
      </trkpt>
      <trkpt lat="47.554375" lon="2.2204201">
        <ele>178</ele>
        <time>2022-06-09T08:51:23Z</time>
      </trkpt>
      <trkpt lat="47.55437" lon="2.220431">
        <ele>178</ele>
        <time>2022-06-09T08:51:24Z</time>
      </trkpt>
      <trkpt lat="47.55437" lon="2.2204473">
        <ele>178</ele>
        <time>2022-06-09T08:51:25Z</time>
      </trkpt>
      <trkpt lat="47.554375" lon="2.220466">
        <ele>178</ele>
        <time>2022-06-09T08:51:26Z</time>
      </trkpt>
      <trkpt lat="47.55438" lon="2.2204835">
        <ele>178</ele>
        <time>2022-06-09T08:51:27Z</time>
      </trkpt>
      <trkpt lat="47.554386" lon="2.2205043">
        <ele>178</ele>
        <time>2022-06-09T08:51:28Z</time>
      </trkpt>
      <trkpt lat="47.554386" lon="2.2205245">
        <ele>178</ele>
        <time>2022-06-09T08:51:29Z</time>
      </trkpt>
      <trkpt lat="47.554394" lon="2.2205424">
        <ele>177</ele>
        <time>2022-06-09T08:51:31Z</time>
      </trkpt>
      <trkpt lat="47.554398" lon="2.2205586">
        <ele>177</ele>
        <time>2022-06-09T08:51:32Z</time>
      </trkpt>
      <trkpt lat="47.5544" lon="2.2205756">
        <ele>177</ele>
        <time>2022-06-09T08:51:33Z</time>
      </trkpt>
      <trkpt lat="47.554405" lon="2.220589">
        <ele>177</ele>
        <time>2022-06-09T08:51:34Z</time>
      </trkpt>
      <trkpt lat="47.55441" lon="2.220604">
        <ele>177</ele>
        <time>2022-06-09T08:51:35Z</time>
      </trkpt>
      <trkpt lat="47.554413" lon="2.220625">
        <ele>177</ele>
        <time>2022-06-09T08:51:36Z</time>
      </trkpt>
      <trkpt lat="47.554417" lon="2.22064">
        <ele>177</ele>
        <time>2022-06-09T08:51:37Z</time>
      </trkpt>
      <trkpt lat="47.55442" lon="2.2206564">
        <ele>177</ele>
        <time>2022-06-09T08:51:38Z</time>
      </trkpt>
      <trkpt lat="47.554424" lon="2.2206743">
        <ele>176</ele>
        <time>2022-06-09T08:51:39Z</time>
      </trkpt>
      <trkpt lat="47.554432" lon="2.2206993">
        <ele>176</ele>
        <time>2022-06-09T08:51:40Z</time>
      </trkpt>
      <trkpt lat="47.554443" lon="2.2207172">
        <ele>176</ele>
        <time>2022-06-09T08:51:41Z</time>
      </trkpt>
      <trkpt lat="47.554447" lon="2.2207313">
        <ele>176</ele>
        <time>2022-06-09T08:51:42Z</time>
      </trkpt>
      <trkpt lat="47.55445" lon="2.2207515">
        <ele>176</ele>
        <time>2022-06-09T08:51:43Z</time>
      </trkpt>
      <trkpt lat="47.554462" lon="2.220765">
        <ele>176</ele>
        <time>2022-06-09T08:51:44Z</time>
      </trkpt>
      <trkpt lat="47.55447" lon="2.2207792">
        <ele>176</ele>
        <time>2022-06-09T08:51:45Z</time>
      </trkpt>
      <trkpt lat="47.554474" lon="2.220796">
        <ele>176</ele>
        <time>2022-06-09T08:51:46Z</time>
      </trkpt>
      <trkpt lat="47.554478" lon="2.2208138">
        <ele>176</ele>
        <time>2022-06-09T08:51:47Z</time>
      </trkpt>
      <trkpt lat="47.55448" lon="2.2208257">
        <ele>176</ele>
        <time>2022-06-09T08:51:48Z</time>
      </trkpt>
      <trkpt lat="47.55448" lon="2.2208397">
        <ele>176</ele>
        <time>2022-06-09T08:51:49Z</time>
      </trkpt>
      <trkpt lat="47.55448" lon="2.220854">
        <ele>176</ele>
        <time>2022-06-09T08:51:50Z</time>
      </trkpt>
      <trkpt lat="47.554485" lon="2.2208643">
        <ele>176</ele>
        <time>2022-06-09T08:51:51Z</time>
      </trkpt>
      <trkpt lat="47.554485" lon="2.2208772">
        <ele>175</ele>
        <time>2022-06-09T08:51:52Z</time>
      </trkpt>
      <trkpt lat="47.55449" lon="2.2208931">
        <ele>175</ele>
        <time>2022-06-09T08:51:53Z</time>
      </trkpt>
      <trkpt lat="47.554497" lon="2.2209077">
        <ele>175</ele>
        <time>2022-06-09T08:51:54Z</time>
      </trkpt>
      <trkpt lat="47.5545" lon="2.2209253">
        <ele>174</ele>
        <time>2022-06-09T08:51:55Z</time>
      </trkpt>
      <trkpt lat="47.55451" lon="2.220943">
        <ele>174</ele>
        <time>2022-06-09T08:51:56Z</time>
      </trkpt>
      <trkpt lat="47.55452" lon="2.2209554">
        <ele>174</ele>
        <time>2022-06-09T08:51:57Z</time>
      </trkpt>
      <trkpt lat="47.554527" lon="2.220971">
        <ele>175</ele>
        <time>2022-06-09T08:51:58Z</time>
      </trkpt>
      <trkpt lat="47.55453" lon="2.2209866">
        <ele>175</ele>
        <time>2022-06-09T08:51:59Z</time>
      </trkpt>
      <trkpt lat="47.55453" lon="2.2210014">
        <ele>176</ele>
        <time>2022-06-09T08:52:00Z</time>
      </trkpt>
      <trkpt lat="47.554535" lon="2.2210186">
        <ele>176</ele>
        <time>2022-06-09T08:52:01Z</time>
      </trkpt>
      <trkpt lat="47.554535" lon="2.2210371">
        <ele>176</ele>
        <time>2022-06-09T08:52:02Z</time>
      </trkpt>
      <trkpt lat="47.55454" lon="2.221054">
        <ele>176</ele>
        <time>2022-06-09T08:52:03Z</time>
      </trkpt>
      <trkpt lat="47.554543" lon="2.2210722">
        <ele>176</ele>
        <time>2022-06-09T08:52:04Z</time>
      </trkpt>
      <trkpt lat="47.554554" lon="2.221093">
        <ele>177</ele>
        <time>2022-06-09T08:52:05Z</time>
      </trkpt>
      <trkpt lat="47.55456" lon="2.2211049">
        <ele>177</ele>
        <time>2022-06-09T08:52:06Z</time>
      </trkpt>
      <trkpt lat="47.554565" lon="2.221116">
        <ele>177</ele>
        <time>2022-06-09T08:52:07Z</time>
      </trkpt>
      <trkpt lat="47.55457" lon="2.2211323">
        <ele>177</ele>
        <time>2022-06-09T08:52:08Z</time>
      </trkpt>
      <trkpt lat="47.554577" lon="2.221155">
        <ele>177</ele>
        <time>2022-06-09T08:52:09Z</time>
      </trkpt>
      <trkpt lat="47.55458" lon="2.221172">
        <ele>177</ele>
        <time>2022-06-09T08:52:10Z</time>
      </trkpt>
      <trkpt lat="47.55458" lon="2.2211852">
        <ele>176</ele>
        <time>2022-06-09T08:52:11Z</time>
      </trkpt>
      <trkpt lat="47.554585" lon="2.2211955">
        <ele>176</ele>
        <time>2022-06-09T08:52:12Z</time>
      </trkpt>
      <trkpt lat="47.55459" lon="2.221207">
        <ele>176</ele>
        <time>2022-06-09T08:52:13Z</time>
      </trkpt>
      <trkpt lat="47.554596" lon="2.2212229">
        <ele>176</ele>
        <time>2022-06-09T08:52:14Z</time>
      </trkpt>
      <trkpt lat="47.554596" lon="2.2212374">
        <ele>175</ele>
        <time>2022-06-09T08:52:15Z</time>
      </trkpt>
      <trkpt lat="47.5546" lon="2.2212584">
        <ele>175</ele>
        <time>2022-06-09T08:52:16Z</time>
      </trkpt>
      <trkpt lat="47.554604" lon="2.2212815">
        <ele>175</ele>
        <time>2022-06-09T08:52:17Z</time>
      </trkpt>
      <trkpt lat="47.5546" lon="2.2212965">
        <ele>175</ele>
        <time>2022-06-09T08:52:18Z</time>
      </trkpt>
      <trkpt lat="47.554604" lon="2.2213116">
        <ele>174</ele>
        <time>2022-06-09T08:52:19Z</time>
      </trkpt>
      <trkpt lat="47.55461" lon="2.2213304">
        <ele>173</ele>
        <time>2022-06-09T08:52:20Z</time>
      </trkpt>
      <trkpt lat="47.554615" lon="2.2213418">
        <ele>173</ele>
        <time>2022-06-09T08:52:21Z</time>
      </trkpt>
      <trkpt lat="47.55462" lon="2.2213607">
        <ele>173</ele>
        <time>2022-06-09T08:52:22Z</time>
      </trkpt>
      <trkpt lat="47.55462" lon="2.2213764">
        <ele>173</ele>
        <time>2022-06-09T08:52:23Z</time>
      </trkpt>
      <trkpt lat="47.55462" lon="2.221395">
        <ele>174</ele>
        <time>2022-06-09T08:52:24Z</time>
      </trkpt>
      <trkpt lat="47.554623" lon="2.221419">
        <ele>174</ele>
        <time>2022-06-09T08:52:25Z</time>
      </trkpt>
      <trkpt lat="47.554623" lon="2.2214408">
        <ele>174</ele>
        <time>2022-06-09T08:52:26Z</time>
      </trkpt>
      <trkpt lat="47.554623" lon="2.2214575">
        <ele>174</ele>
        <time>2022-06-09T08:52:27Z</time>
      </trkpt>
      <trkpt lat="47.554623" lon="2.2214751">
        <ele>174</ele>
        <time>2022-06-09T08:52:28Z</time>
      </trkpt>
      <trkpt lat="47.554626" lon="2.2214904">
        <ele>173</ele>
        <time>2022-06-09T08:52:29Z</time>
      </trkpt>
      <trkpt lat="47.55463" lon="2.2215037">
        <ele>174</ele>
        <time>2022-06-09T08:52:30Z</time>
      </trkpt>
      <trkpt lat="47.55463" lon="2.2215188">
        <ele>174</ele>
        <time>2022-06-09T08:52:31Z</time>
      </trkpt>
      <trkpt lat="47.554634" lon="2.2215302">
        <ele>174</ele>
        <time>2022-06-09T08:52:32Z</time>
      </trkpt>
      <trkpt lat="47.554638" lon="2.2215445">
        <ele>174</ele>
        <time>2022-06-09T08:52:33Z</time>
      </trkpt>
      <trkpt lat="47.554638" lon="2.221556">
        <ele>174</ele>
        <time>2022-06-09T08:52:34Z</time>
      </trkpt>
      <trkpt lat="47.554638" lon="2.2215705">
        <ele>174</ele>
        <time>2022-06-09T08:52:35Z</time>
      </trkpt>
      <trkpt lat="47.554646" lon="2.2215853">
        <ele>173</ele>
        <time>2022-06-09T08:52:36Z</time>
      </trkpt>
      <trkpt lat="47.55465" lon="2.2216027">
        <ele>174</ele>
        <time>2022-06-09T08:52:37Z</time>
      </trkpt>
      <trkpt lat="47.554653" lon="2.221622">
        <ele>173</ele>
        <time>2022-06-09T08:52:38Z</time>
      </trkpt>
      <trkpt lat="47.554657" lon="2.22164">
        <ele>173</ele>
        <time>2022-06-09T08:52:39Z</time>
      </trkpt>
      <trkpt lat="47.554657" lon="2.2216632">
        <ele>173</ele>
        <time>2022-06-09T08:52:40Z</time>
      </trkpt>
      <trkpt lat="47.55466" lon="2.2216794">
        <ele>173</ele>
        <time>2022-06-09T08:52:41Z</time>
      </trkpt>
      <trkpt lat="47.55466" lon="2.2216952">
        <ele>173</ele>
        <time>2022-06-09T08:52:42Z</time>
      </trkpt>
      <trkpt lat="47.55466" lon="2.221719">
        <ele>172</ele>
        <time>2022-06-09T08:52:43Z</time>
      </trkpt>
      <trkpt lat="47.554665" lon="2.2217348">
        <ele>172</ele>
        <time>2022-06-09T08:52:44Z</time>
      </trkpt>
      <trkpt lat="47.55467" lon="2.221747">
        <ele>172</ele>
        <time>2022-06-09T08:52:45Z</time>
      </trkpt>
      <trkpt lat="47.554672" lon="2.2217581">
        <ele>172</ele>
        <time>2022-06-09T08:52:46Z</time>
      </trkpt>
      <trkpt lat="47.55467" lon="2.221769">
        <ele>172</ele>
        <time>2022-06-09T08:52:47Z</time>
      </trkpt>
      <trkpt lat="47.554672" lon="2.221786">
        <ele>172</ele>
        <time>2022-06-09T08:52:48Z</time>
      </trkpt>
      <trkpt lat="47.554672" lon="2.2217987">
        <ele>172</ele>
        <time>2022-06-09T08:52:49Z</time>
      </trkpt>
      <trkpt lat="47.554676" lon="2.2218149">
        <ele>172</ele>
        <time>2022-06-09T08:52:50Z</time>
      </trkpt>
      <trkpt lat="47.554676" lon="2.221833">
        <ele>172</ele>
        <time>2022-06-09T08:52:51Z</time>
      </trkpt>
      <trkpt lat="47.55468" lon="2.221852">
        <ele>172</ele>
        <time>2022-06-09T08:52:52Z</time>
      </trkpt>
      <trkpt lat="47.55468" lon="2.22187">
        <ele>172</ele>
        <time>2022-06-09T08:52:53Z</time>
      </trkpt>
      <trkpt lat="47.554684" lon="2.221888">
        <ele>172</ele>
        <time>2022-06-09T08:52:54Z</time>
      </trkpt>
      <trkpt lat="47.55469" lon="2.2219083">
        <ele>173</ele>
        <time>2022-06-09T08:52:55Z</time>
      </trkpt>
      <trkpt lat="47.554695" lon="2.2219217">
        <ele>172</ele>
        <time>2022-06-09T08:52:56Z</time>
      </trkpt>
      <trkpt lat="47.554695" lon="2.2219431">
        <ele>173</ele>
        <time>2022-06-09T08:52:57Z</time>
      </trkpt>
      <trkpt lat="47.5547" lon="2.2219687">
        <ele>173</ele>
        <time>2022-06-09T08:52:58Z</time>
      </trkpt>
      <trkpt lat="47.554703" lon="2.2219946">
        <ele>173</ele>
        <time>2022-06-09T08:52:59Z</time>
      </trkpt>
      <trkpt lat="47.55471" lon="2.2220166">
        <ele>172</ele>
        <time>2022-06-09T08:53:00Z</time>
      </trkpt>
      <trkpt lat="47.554718" lon="2.2220335">
        <ele>173</ele>
        <time>2022-06-09T08:53:01Z</time>
      </trkpt>
      <trkpt lat="47.55472" lon="2.222053">
        <ele>173</ele>
        <time>2022-06-09T08:53:02Z</time>
      </trkpt>
      <trkpt lat="47.554726" lon="2.22207">
        <ele>173</ele>
        <time>2022-06-09T08:53:03Z</time>
      </trkpt>
      <trkpt lat="47.55473" lon="2.2220879">
        <ele>173</ele>
        <time>2022-06-09T08:53:04Z</time>
      </trkpt>
      <trkpt lat="47.554733" lon="2.2221048">
        <ele>173</ele>
        <time>2022-06-09T08:53:05Z</time>
      </trkpt>
      <trkpt lat="47.55474" lon="2.2221205">
        <ele>173</ele>
        <time>2022-06-09T08:53:06Z</time>
      </trkpt>
      <trkpt lat="47.55474" lon="2.2221324">
        <ele>173</ele>
        <time>2022-06-09T08:53:07Z</time>
      </trkpt>
      <trkpt lat="47.55474" lon="2.2221513">
        <ele>174</ele>
        <time>2022-06-09T08:53:08Z</time>
      </trkpt>
      <trkpt lat="47.554737" lon="2.2221732">
        <ele>174</ele>
        <time>2022-06-09T08:53:09Z</time>
      </trkpt>
      <trkpt lat="47.554737" lon="2.2221875">
        <ele>174</ele>
        <time>2022-06-09T08:53:10Z</time>
      </trkpt>
      <trkpt lat="47.55474" lon="2.222206">
        <ele>174</ele>
        <time>2022-06-09T08:53:11Z</time>
      </trkpt>
      <trkpt lat="47.55475" lon="2.2222204">
        <ele>174</ele>
        <time>2022-06-09T08:53:12Z</time>
      </trkpt>
      <trkpt lat="47.554752" lon="2.2222295">
        <ele>173</ele>
        <time>2022-06-09T08:53:13Z</time>
      </trkpt>
      <trkpt lat="47.554756" lon="2.2222393">
        <ele>173</ele>
        <time>2022-06-09T08:53:14Z</time>
      </trkpt>
      <trkpt lat="47.55476" lon="2.2222466">
        <ele>173</ele>
        <time>2022-06-09T08:53:15Z</time>
      </trkpt>
      <trkpt lat="47.554764" lon="2.2222617">
        <ele>173</ele>
        <time>2022-06-09T08:53:16Z</time>
      </trkpt>
      <trkpt lat="47.554768" lon="2.2222755">
        <ele>173</ele>
        <time>2022-06-09T08:53:17Z</time>
      </trkpt>
      <trkpt lat="47.55477" lon="2.22229">
        <ele>173</ele>
        <time>2022-06-09T08:53:18Z</time>
      </trkpt>
      <trkpt lat="47.554775" lon="2.222303">
        <ele>172</ele>
        <time>2022-06-09T08:53:19Z</time>
      </trkpt>
      <trkpt lat="47.55478" lon="2.2223141">
        <ele>172</ele>
        <time>2022-06-09T08:53:20Z</time>
      </trkpt>
      <trkpt lat="47.554783" lon="2.2223337">
        <ele>172</ele>
        <time>2022-06-09T08:53:21Z</time>
      </trkpt>
      <trkpt lat="47.554787" lon="2.2223494">
        <ele>172</ele>
        <time>2022-06-09T08:53:22Z</time>
      </trkpt>
      <trkpt lat="47.554787" lon="2.2223694">
        <ele>172</ele>
        <time>2022-06-09T08:53:23Z</time>
      </trkpt>
      <trkpt lat="47.554787" lon="2.2223892">
        <ele>172</ele>
        <time>2022-06-09T08:53:24Z</time>
      </trkpt>
      <trkpt lat="47.554787" lon="2.2224047">
        <ele>172</ele>
        <time>2022-06-09T08:53:25Z</time>
      </trkpt>
      <trkpt lat="47.55479" lon="2.222419">
        <ele>172</ele>
        <time>2022-06-09T08:53:26Z</time>
      </trkpt>
      <trkpt lat="47.554794" lon="2.2224305">
        <ele>172</ele>
        <time>2022-06-09T08:53:27Z</time>
      </trkpt>
      <trkpt lat="47.5548" lon="2.222446">
        <ele>172</ele>
        <time>2022-06-09T08:53:28Z</time>
      </trkpt>
      <trkpt lat="47.5548" lon="2.2224667">
        <ele>172</ele>
        <time>2022-06-09T08:53:29Z</time>
      </trkpt>
      <trkpt lat="47.554794" lon="2.2224908">
        <ele>172</ele>
        <time>2022-06-09T08:53:30Z</time>
      </trkpt>
      <trkpt lat="47.554794" lon="2.2225125">
        <ele>172</ele>
        <time>2022-06-09T08:53:31Z</time>
      </trkpt>
      <trkpt lat="47.5548" lon="2.2225306">
        <ele>173</ele>
        <time>2022-06-09T08:53:32Z</time>
      </trkpt>
      <trkpt lat="47.5548" lon="2.2225506">
        <ele>173</ele>
        <time>2022-06-09T08:53:33Z</time>
      </trkpt>
      <trkpt lat="47.554806" lon="2.2225702">
        <ele>173</ele>
        <time>2022-06-09T08:53:34Z</time>
      </trkpt>
      <trkpt lat="47.554813" lon="2.2225924">
        <ele>172</ele>
        <time>2022-06-09T08:53:35Z</time>
      </trkpt>
      <trkpt lat="47.55482" lon="2.2226121">
        <ele>172</ele>
        <time>2022-06-09T08:53:36Z</time>
      </trkpt>
      <trkpt lat="47.554825" lon="2.2226284">
        <ele>172</ele>
        <time>2022-06-09T08:53:37Z</time>
      </trkpt>
      <trkpt lat="47.554832" lon="2.222646">
        <ele>171</ele>
        <time>2022-06-09T08:53:38Z</time>
      </trkpt>
      <trkpt lat="47.55484" lon="2.222659">
        <ele>172</ele>
        <time>2022-06-09T08:53:39Z</time>
      </trkpt>
      <trkpt lat="47.55484" lon="2.2226791">
        <ele>172</ele>
        <time>2022-06-09T08:53:40Z</time>
      </trkpt>
      <trkpt lat="47.554844" lon="2.222694">
        <ele>172</ele>
        <time>2022-06-09T08:53:41Z</time>
      </trkpt>
      <trkpt lat="47.554848" lon="2.2227116">
        <ele>172</ele>
        <time>2022-06-09T08:53:42Z</time>
      </trkpt>
      <trkpt lat="47.55485" lon="2.222736">
        <ele>172</ele>
        <time>2022-06-09T08:53:43Z</time>
      </trkpt>
      <trkpt lat="47.55485" lon="2.222736">
        <ele>172</ele>
        <time>2022-06-09T08:53:43Z</time>
      </trkpt>
      <trkpt lat="47.55485" lon="2.222751">
        <ele>172</ele>
        <time>2022-06-09T08:53:45Z</time>
      </trkpt>
      <trkpt lat="47.554848" lon="2.2227728">
        <ele>172</ele>
        <time>2022-06-09T08:53:46Z</time>
      </trkpt>
      <trkpt lat="47.55485" lon="2.222789">
        <ele>172</ele>
        <time>2022-06-09T08:53:47Z</time>
      </trkpt>
      <trkpt lat="47.554848" lon="2.222834">
        <ele>171</ele>
        <time>2022-06-09T08:53:48Z</time>
      </trkpt>
      <trkpt lat="47.55485" lon="2.2228527">
        <ele>171</ele>
        <time>2022-06-09T08:53:49Z</time>
      </trkpt>
      <trkpt lat="47.554855" lon="2.2228694">
        <ele>171</ele>
        <time>2022-06-09T08:53:50Z</time>
      </trkpt>
      <trkpt lat="47.554855" lon="2.2228694">
        <ele>171</ele>
        <time>2022-06-09T08:53:50Z</time>
      </trkpt>
      <trkpt lat="47.554863" lon="2.2229064">
        <ele>172</ele>
        <time>2022-06-09T08:53:52Z</time>
      </trkpt>
      <trkpt lat="47.554867" lon="2.2229228">
        <ele>172</ele>
        <time>2022-06-09T08:53:53Z</time>
      </trkpt>
      <trkpt lat="47.55487" lon="2.2229438">
        <ele>172</ele>
        <time>2022-06-09T08:53:54Z</time>
      </trkpt>
      <trkpt lat="47.55487" lon="2.222972">
        <ele>172</ele>
        <time>2022-06-09T08:53:55Z</time>
      </trkpt>
      <trkpt lat="47.554874" lon="2.2229958">
        <ele>172</ele>
        <time>2022-06-09T08:53:56Z</time>
      </trkpt>
      <trkpt lat="47.554874" lon="2.223017">
        <ele>172</ele>
        <time>2022-06-09T08:53:57Z</time>
      </trkpt>
      <trkpt lat="47.55488" lon="2.2230334">
        <ele>173</ele>
        <time>2022-06-09T08:53:58Z</time>
      </trkpt>
      <trkpt lat="47.554882" lon="2.2230496">
        <ele>173</ele>
        <time>2022-06-09T08:53:59Z</time>
      </trkpt>
      <trkpt lat="47.55489" lon="2.2230673">
        <ele>172</ele>
        <time>2022-06-09T08:54:00Z</time>
      </trkpt>
      <trkpt lat="47.55489" lon="2.223084">
        <ele>173</ele>
        <time>2022-06-09T08:54:01Z</time>
      </trkpt>
      <trkpt lat="47.554893" lon="2.223102">
        <ele>173</ele>
        <time>2022-06-09T08:54:02Z</time>
      </trkpt>
      <trkpt lat="47.554893" lon="2.2231183">
        <ele>173</ele>
        <time>2022-06-09T08:54:03Z</time>
      </trkpt>
      <trkpt lat="47.554897" lon="2.2231293">
        <ele>173</ele>
        <time>2022-06-09T08:54:04Z</time>
      </trkpt>
      <trkpt lat="47.5549" lon="2.2231426">
        <ele>173</ele>
        <time>2022-06-09T08:54:05Z</time>
      </trkpt>
      <trkpt lat="47.554905" lon="2.2231593">
        <ele>173</ele>
        <time>2022-06-09T08:54:06Z</time>
      </trkpt>
      <trkpt lat="47.554913" lon="2.223181">
        <ele>173</ele>
        <time>2022-06-09T08:54:07Z</time>
      </trkpt>
      <trkpt lat="47.554913" lon="2.2231984">
        <ele>173</ele>
        <time>2022-06-09T08:54:08Z</time>
      </trkpt>
      <trkpt lat="47.554913" lon="2.2232113">
        <ele>173</ele>
        <time>2022-06-09T08:54:09Z</time>
      </trkpt>
      <trkpt lat="47.554916" lon="2.2232287">
        <ele>173</ele>
        <time>2022-06-09T08:54:10Z</time>
      </trkpt>
      <trkpt lat="47.554924" lon="2.2232435">
        <ele>173</ele>
        <time>2022-06-09T08:54:11Z</time>
      </trkpt>
      <trkpt lat="47.554928" lon="2.2232652">
        <ele>173</ele>
        <time>2022-06-09T08:54:12Z</time>
      </trkpt>
      <trkpt lat="47.55493" lon="2.2232878">
        <ele>174</ele>
        <time>2022-06-09T08:54:13Z</time>
      </trkpt>
      <trkpt lat="47.554935" lon="2.2233078">
        <ele>173</ele>
        <time>2022-06-09T08:54:14Z</time>
      </trkpt>
      <trkpt lat="47.554943" lon="2.223328">
        <ele>174</ele>
        <time>2022-06-09T08:54:15Z</time>
      </trkpt>
      <trkpt lat="47.554943" lon="2.2233393">
        <ele>174</ele>
        <time>2022-06-09T08:54:16Z</time>
      </trkpt>
      <trkpt lat="47.554943" lon="2.2233572">
        <ele>173</ele>
        <time>2022-06-09T08:54:17Z</time>
      </trkpt>
      <trkpt lat="47.554943" lon="2.2233808">
        <ele>173</ele>
        <time>2022-06-09T08:54:18Z</time>
      </trkpt>
      <trkpt lat="47.55494" lon="2.223398">
        <ele>173</ele>
        <time>2022-06-09T08:54:19Z</time>
      </trkpt>
      <trkpt lat="47.554943" lon="2.223422">
        <ele>172</ele>
        <time>2022-06-09T08:54:20Z</time>
      </trkpt>
      <trkpt lat="47.554947" lon="2.2234426">
        <ele>172</ele>
        <time>2022-06-09T08:54:21Z</time>
      </trkpt>
      <trkpt lat="47.554943" lon="2.2234585">
        <ele>171</ele>
        <time>2022-06-09T08:54:22Z</time>
      </trkpt>
      <trkpt lat="47.554947" lon="2.2234719">
        <ele>171</ele>
        <time>2022-06-09T08:54:23Z</time>
      </trkpt>
      <trkpt lat="47.554947" lon="2.2234855">
        <ele>171</ele>
        <time>2022-06-09T08:54:24Z</time>
      </trkpt>
      <trkpt lat="47.554943" lon="2.223498">
        <ele>171</ele>
        <time>2022-06-09T08:54:25Z</time>
      </trkpt>
      <trkpt lat="47.554947" lon="2.2235074">
        <ele>171</ele>
        <time>2022-06-09T08:54:26Z</time>
      </trkpt>
      <trkpt lat="47.554947" lon="2.2235074">
        <ele>171</ele>
        <time>2022-06-09T08:54:27Z</time>
      </trkpt>
      <trkpt lat="47.554947" lon="2.2235074">
        <ele>171</ele>
        <time>2022-06-09T08:54:28Z</time>
      </trkpt>
      <trkpt lat="47.554955" lon="2.223537">
        <ele>171</ele>
        <time>2022-06-09T08:54:29Z</time>
      </trkpt>
      <trkpt lat="47.55496" lon="2.2235532">
        <ele>171</ele>
        <time>2022-06-09T08:54:30Z</time>
      </trkpt>
      <trkpt lat="47.55496" lon="2.2235684">
        <ele>171</ele>
        <time>2022-06-09T08:54:31Z</time>
      </trkpt>
      <trkpt lat="47.554962" lon="2.2235885">
        <ele>171</ele>
        <time>2022-06-09T08:54:32Z</time>
      </trkpt>
      <trkpt lat="47.554966" lon="2.2236059">
        <ele>171</ele>
        <time>2022-06-09T08:54:33Z</time>
      </trkpt>
      <trkpt lat="47.55497" lon="2.2236204">
        <ele>171</ele>
        <time>2022-06-09T08:54:34Z</time>
      </trkpt>
      <trkpt lat="47.554974" lon="2.223632">
        <ele>171</ele>
        <time>2022-06-09T08:54:35Z</time>
      </trkpt>
      <trkpt lat="47.554974" lon="2.2236507">
        <ele>171</ele>
        <time>2022-06-09T08:54:36Z</time>
      </trkpt>
      <trkpt lat="47.554974" lon="2.2236671">
        <ele>171</ele>
        <time>2022-06-09T08:54:37Z</time>
      </trkpt>
      <trkpt lat="47.55497" lon="2.2236922">
        <ele>171</ele>
        <time>2022-06-09T08:54:38Z</time>
      </trkpt>
      <trkpt lat="47.554974" lon="2.2237122">
        <ele>171</ele>
        <time>2022-06-09T08:54:39Z</time>
      </trkpt>
      <trkpt lat="47.554977" lon="2.2237256">
        <ele>170</ele>
        <time>2022-06-09T08:54:40Z</time>
      </trkpt>
      <trkpt lat="47.554985" lon="2.223739">
        <ele>170</ele>
        <time>2022-06-09T08:54:41Z</time>
      </trkpt>
      <trkpt lat="47.55499" lon="2.2237463">
        <ele>171</ele>
        <time>2022-06-09T08:54:42Z</time>
      </trkpt>
      <trkpt lat="47.554996" lon="2.2237616">
        <ele>170</ele>
        <time>2022-06-09T08:54:43Z</time>
      </trkpt>
      <trkpt lat="47.555004" lon="2.2237823">
        <ele>170</ele>
        <time>2022-06-09T08:54:44Z</time>
      </trkpt>
      <trkpt lat="47.55501" lon="2.2238007">
        <ele>170</ele>
        <time>2022-06-09T08:54:45Z</time>
      </trkpt>
      <trkpt lat="47.55502" lon="2.2238204">
        <ele>170</ele>
        <time>2022-06-09T08:54:46Z</time>
      </trkpt>
      <trkpt lat="47.555023" lon="2.2238424">
        <ele>170</ele>
        <time>2022-06-09T08:54:47Z</time>
      </trkpt>
      <trkpt lat="47.555027" lon="2.2238584">
        <ele>170</ele>
        <time>2022-06-09T08:54:48Z</time>
      </trkpt>
      <trkpt lat="47.55503" lon="2.223873">
        <ele>170</ele>
        <time>2022-06-09T08:54:49Z</time>
      </trkpt>
      <trkpt lat="47.555035" lon="2.2238882">
        <ele>170</ele>
        <time>2022-06-09T08:54:50Z</time>
      </trkpt>
      <trkpt lat="47.55504" lon="2.223907">
        <ele>170</ele>
        <time>2022-06-09T08:54:51Z</time>
      </trkpt>
      <trkpt lat="47.555042" lon="2.223932">
        <ele>170</ele>
        <time>2022-06-09T08:54:52Z</time>
      </trkpt>
      <trkpt lat="47.555042" lon="2.2239556">
        <ele>169</ele>
        <time>2022-06-09T08:54:53Z</time>
      </trkpt>
      <trkpt lat="47.555042" lon="2.2239792">
        <ele>169</ele>
        <time>2022-06-09T08:54:54Z</time>
      </trkpt>
      <trkpt lat="47.55505" lon="2.223998">
        <ele>169</ele>
        <time>2022-06-09T08:54:55Z</time>
      </trkpt>
      <trkpt lat="47.55505" lon="2.224016">
        <ele>169</ele>
        <time>2022-06-09T08:54:56Z</time>
      </trkpt>
      <trkpt lat="47.55505" lon="2.224037">
        <ele>169</ele>
        <time>2022-06-09T08:54:57Z</time>
      </trkpt>
      <trkpt lat="47.555058" lon="2.2240536">
        <ele>168</ele>
        <time>2022-06-09T08:54:58Z</time>
      </trkpt>
      <trkpt lat="47.555058" lon="2.2240536">
        <ele>168</ele>
        <time>2022-06-09T08:54:59Z</time>
      </trkpt>
      <trkpt lat="47.555058" lon="2.2240536">
        <ele>168</ele>
        <time>2022-06-09T08:55:00Z</time>
      </trkpt>
      <trkpt lat="47.55507" lon="2.2240903">
        <ele>168</ele>
        <time>2022-06-09T08:55:01Z</time>
      </trkpt>
      <trkpt lat="47.555073" lon="2.224106">
        <ele>168</ele>
        <time>2022-06-09T08:55:02Z</time>
      </trkpt>
      <trkpt lat="47.555077" lon="2.2241209">
        <ele>168</ele>
        <time>2022-06-09T08:55:03Z</time>
      </trkpt>
      <trkpt lat="47.55508" lon="2.2241344">
        <ele>168</ele>
        <time>2022-06-09T08:55:04Z</time>
      </trkpt>
      <trkpt lat="47.55508" lon="2.2241344">
        <ele>168</ele>
        <time>2022-06-09T08:55:05Z</time>
      </trkpt>
      <trkpt lat="47.555084" lon="2.224162">
        <ele>168</ele>
        <time>2022-06-09T08:55:06Z</time>
      </trkpt>
      <trkpt lat="47.555084" lon="2.224183">
        <ele>168</ele>
        <time>2022-06-09T08:55:07Z</time>
      </trkpt>
      <trkpt lat="47.555084" lon="2.2242029">
        <ele>168</ele>
        <time>2022-06-09T08:55:08Z</time>
      </trkpt>
      <trkpt lat="47.555088" lon="2.2242208">
        <ele>168</ele>
        <time>2022-06-09T08:55:09Z</time>
      </trkpt>
      <trkpt lat="47.55509" lon="2.2242348">
        <ele>168</ele>
        <time>2022-06-09T08:55:10Z</time>
      </trkpt>
      <trkpt lat="47.5551" lon="2.2242548">
        <ele>168</ele>
        <time>2022-06-09T08:55:11Z</time>
      </trkpt>
      <trkpt lat="47.5551" lon="2.2242773">
        <ele>168</ele>
        <time>2022-06-09T08:55:12Z</time>
      </trkpt>
      <trkpt lat="47.555103" lon="2.2242963">
        <ele>168</ele>
        <time>2022-06-09T08:55:13Z</time>
      </trkpt>
      <trkpt lat="47.55511" lon="2.2243087">
        <ele>169</ele>
        <time>2022-06-09T08:55:14Z</time>
      </trkpt>
      <trkpt lat="47.55511" lon="2.224308">
        <ele>169</ele>
        <time>2022-06-09T08:55:15Z</time>
      </trkpt>
      <trkpt lat="47.555107" lon="2.2243192">
        <ele>169</ele>
        <time>2022-06-09T08:55:16Z</time>
      </trkpt>
      <trkpt lat="47.555103" lon="2.2243364">
        <ele>169</ele>
        <time>2022-06-09T08:55:17Z</time>
      </trkpt>
      <trkpt lat="47.555103" lon="2.2243364">
        <ele>169</ele>
        <time>2022-06-09T08:55:18Z</time>
      </trkpt>
      <trkpt lat="47.555115" lon="2.2243648">
        <ele>169</ele>
        <time>2022-06-09T08:55:19Z</time>
      </trkpt>
      <trkpt lat="47.55512" lon="2.224384">
        <ele>170</ele>
        <time>2022-06-09T08:55:20Z</time>
      </trkpt>
      <trkpt lat="47.555122" lon="2.224406">
        <ele>170</ele>
        <time>2022-06-09T08:55:21Z</time>
      </trkpt>
      <trkpt lat="47.555126" lon="2.224427">
        <ele>169</ele>
        <time>2022-06-09T08:55:22Z</time>
      </trkpt>
      <trkpt lat="47.55513" lon="2.224451">
        <ele>169</ele>
        <time>2022-06-09T08:55:23Z</time>
      </trkpt>
      <trkpt lat="47.555138" lon="2.2244663">
        <ele>169</ele>
        <time>2022-06-09T08:55:24Z</time>
      </trkpt>
      <trkpt lat="47.555138" lon="2.2244904">
        <ele>169</ele>
        <time>2022-06-09T08:55:25Z</time>
      </trkpt>
      <trkpt lat="47.555145" lon="2.2245097">
        <ele>169</ele>
        <time>2022-06-09T08:55:26Z</time>
      </trkpt>
      <trkpt lat="47.55515" lon="2.2245255">
        <ele>169</ele>
        <time>2022-06-09T08:55:27Z</time>
      </trkpt>
      <trkpt lat="47.55515" lon="2.2245443">
        <ele>169</ele>
        <time>2022-06-09T08:55:28Z</time>
      </trkpt>
      <trkpt lat="47.55515" lon="2.224566">
        <ele>169</ele>
        <time>2022-06-09T08:55:29Z</time>
      </trkpt>
      <trkpt lat="47.55515" lon="2.2245865">
        <ele>169</ele>
        <time>2022-06-09T08:55:30Z</time>
      </trkpt>
      <trkpt lat="47.555153" lon="2.224609">
        <ele>169</ele>
        <time>2022-06-09T08:55:31Z</time>
      </trkpt>
      <trkpt lat="47.555157" lon="2.224625">
        <ele>169</ele>
        <time>2022-06-09T08:55:32Z</time>
      </trkpt>
      <trkpt lat="47.555157" lon="2.2246373">
        <ele>170</ele>
        <time>2022-06-09T08:55:33Z</time>
      </trkpt>
      <trkpt lat="47.55516" lon="2.2246518">
        <ele>170</ele>
        <time>2022-06-09T08:55:34Z</time>
      </trkpt>
      <trkpt lat="47.55516" lon="2.2246652">
        <ele>170</ele>
        <time>2022-06-09T08:55:35Z</time>
      </trkpt>
      <trkpt lat="47.555164" lon="2.2246792">
        <ele>169</ele>
        <time>2022-06-09T08:55:36Z</time>
      </trkpt>
      <trkpt lat="47.555164" lon="2.2246792">
        <ele>169</ele>
        <time>2022-06-09T08:55:37Z</time>
      </trkpt>
      <trkpt lat="47.555164" lon="2.2246792">
        <ele>169</ele>
        <time>2022-06-09T08:55:38Z</time>
      </trkpt>
      <trkpt lat="47.555172" lon="2.224708">
        <ele>169</ele>
        <time>2022-06-09T08:55:39Z</time>
      </trkpt>
      <trkpt lat="47.555176" lon="2.2247226">
        <ele>169</ele>
        <time>2022-06-09T08:55:40Z</time>
      </trkpt>
      <trkpt lat="47.55518" lon="2.2247367">
        <ele>169</ele>
        <time>2022-06-09T08:55:41Z</time>
      </trkpt>
      <trkpt lat="47.55518" lon="2.2247572">
        <ele>169</ele>
        <time>2022-06-09T08:55:42Z</time>
      </trkpt>
      <trkpt lat="47.555183" lon="2.2247732">
        <ele>169</ele>
        <time>2022-06-09T08:55:43Z</time>
      </trkpt>
      <trkpt lat="47.555187" lon="2.2247908">
        <ele>169</ele>
        <time>2022-06-09T08:55:44Z</time>
      </trkpt>
      <trkpt lat="47.55519" lon="2.2248085">
        <ele>169</ele>
        <time>2022-06-09T08:55:45Z</time>
      </trkpt>
      <trkpt lat="47.555195" lon="2.2248254">
        <ele>169</ele>
        <time>2022-06-09T08:55:46Z</time>
      </trkpt>
      <trkpt lat="47.5552" lon="2.2248452">
        <ele>169</ele>
        <time>2022-06-09T08:55:47Z</time>
      </trkpt>
      <trkpt lat="47.555202" lon="2.2248662">
        <ele>169</ele>
        <time>2022-06-09T08:55:48Z</time>
      </trkpt>
      <trkpt lat="47.55521" lon="2.22488">
        <ele>170</ele>
        <time>2022-06-09T08:55:49Z</time>
      </trkpt>
      <trkpt lat="47.55521" lon="2.2248952">
        <ele>170</ele>
        <time>2022-06-09T08:55:50Z</time>
      </trkpt>
      <trkpt lat="47.55521" lon="2.2249153">
        <ele>170</ele>
        <time>2022-06-09T08:55:51Z</time>
      </trkpt>
      <trkpt lat="47.555214" lon="2.224936">
        <ele>170</ele>
        <time>2022-06-09T08:55:52Z</time>
      </trkpt>
      <trkpt lat="47.555218" lon="2.2249572">
        <ele>170</ele>
        <time>2022-06-09T08:55:53Z</time>
      </trkpt>
      <trkpt lat="47.555218" lon="2.2249775">
        <ele>169</ele>
        <time>2022-06-09T08:55:54Z</time>
      </trkpt>
      <trkpt lat="47.55522" lon="2.2249937">
        <ele>169</ele>
        <time>2022-06-09T08:55:55Z</time>
      </trkpt>
      <trkpt lat="47.555225" lon="2.2250085">
        <ele>168</ele>
        <time>2022-06-09T08:55:56Z</time>
      </trkpt>
      <trkpt lat="47.555233" lon="2.2250314">
        <ele>168</ele>
        <time>2022-06-09T08:55:57Z</time>
      </trkpt>
      <trkpt lat="47.555237" lon="2.225049">
        <ele>168</ele>
        <time>2022-06-09T08:55:58Z</time>
      </trkpt>
      <trkpt lat="47.55524" lon="2.2250614">
        <ele>168</ele>
        <time>2022-06-09T08:55:59Z</time>
      </trkpt>
      <trkpt lat="47.55525" lon="2.2250726">
        <ele>168</ele>
        <time>2022-06-09T08:56:00Z</time>
      </trkpt>
      <trkpt lat="47.55525" lon="2.2250865">
        <ele>168</ele>
        <time>2022-06-09T08:56:01Z</time>
      </trkpt>
      <trkpt lat="47.55525" lon="2.2251031">
        <ele>168</ele>
        <time>2022-06-09T08:56:02Z</time>
      </trkpt>
      <trkpt lat="47.55525" lon="2.2251248">
        <ele>167</ele>
        <time>2022-06-09T08:56:03Z</time>
      </trkpt>
      <trkpt lat="47.555252" lon="2.2251487">
        <ele>168</ele>
        <time>2022-06-09T08:56:04Z</time>
      </trkpt>
      <trkpt lat="47.555256" lon="2.2251704">
        <ele>168</ele>
        <time>2022-06-09T08:56:05Z</time>
      </trkpt>
      <trkpt lat="47.55526" lon="2.2251883">
        <ele>168</ele>
        <time>2022-06-09T08:56:06Z</time>
      </trkpt>
      <trkpt lat="47.55526" lon="2.2252052">
        <ele>167</ele>
        <time>2022-06-09T08:56:07Z</time>
      </trkpt>
      <trkpt lat="47.555267" lon="2.2252212">
        <ele>167</ele>
        <time>2022-06-09T08:56:08Z</time>
      </trkpt>
      <trkpt lat="47.55527" lon="2.225237">
        <ele>167</ele>
        <time>2022-06-09T08:56:09Z</time>
      </trkpt>
      <trkpt lat="47.555275" lon="2.2252553">
        <ele>168</ele>
        <time>2022-06-09T08:56:10Z</time>
      </trkpt>
      <trkpt lat="47.555275" lon="2.2252822">
        <ele>168</ele>
        <time>2022-06-09T08:56:11Z</time>
      </trkpt>
      <trkpt lat="47.555275" lon="2.225303">
        <ele>168</ele>
        <time>2022-06-09T08:56:12Z</time>
      </trkpt>
      <trkpt lat="47.555275" lon="2.2253282">
        <ele>168</ele>
        <time>2022-06-09T08:56:13Z</time>
      </trkpt>
      <trkpt lat="47.555275" lon="2.2253528">
        <ele>168</ele>
        <time>2022-06-09T08:56:14Z</time>
      </trkpt>
      <trkpt lat="47.555283" lon="2.2253704">
        <ele>167</ele>
        <time>2022-06-09T08:56:15Z</time>
      </trkpt>
      <trkpt lat="47.555286" lon="2.225389">
        <ele>167</ele>
        <time>2022-06-09T08:56:16Z</time>
      </trkpt>
      <trkpt lat="47.55529" lon="2.2254019">
        <ele>167</ele>
        <time>2022-06-09T08:56:17Z</time>
      </trkpt>
      <trkpt lat="47.555298" lon="2.22542">
        <ele>167</ele>
        <time>2022-06-09T08:56:18Z</time>
      </trkpt>
      <trkpt lat="47.55531" lon="2.2254386">
        <ele>167</ele>
        <time>2022-06-09T08:56:19Z</time>
      </trkpt>
      <trkpt lat="47.555313" lon="2.2254562">
        <ele>167</ele>
        <time>2022-06-09T08:56:20Z</time>
      </trkpt>
      <trkpt lat="47.555317" lon="2.2254748">
        <ele>167</ele>
        <time>2022-06-09T08:56:21Z</time>
      </trkpt>
      <trkpt lat="47.555317" lon="2.2255008">
        <ele>167</ele>
        <time>2022-06-09T08:56:22Z</time>
      </trkpt>
      <trkpt lat="47.555317" lon="2.2255232">
        <ele>167</ele>
        <time>2022-06-09T08:56:23Z</time>
      </trkpt>
      <trkpt lat="47.555313" lon="2.2255473">
        <ele>168</ele>
        <time>2022-06-09T08:56:24Z</time>
      </trkpt>
      <trkpt lat="47.55531" lon="2.225567">
        <ele>168</ele>
        <time>2022-06-09T08:56:25Z</time>
      </trkpt>
      <trkpt lat="47.55531" lon="2.2255886">
        <ele>168</ele>
        <time>2022-06-09T08:56:26Z</time>
      </trkpt>
      <trkpt lat="47.55531" lon="2.2256062">
        <ele>169</ele>
        <time>2022-06-09T08:56:27Z</time>
      </trkpt>
      <trkpt lat="47.55531" lon="2.2256267">
        <ele>169</ele>
        <time>2022-06-09T08:56:28Z</time>
      </trkpt>
      <trkpt lat="47.555313" lon="2.225641">
        <ele>169</ele>
        <time>2022-06-09T08:56:29Z</time>
      </trkpt>
      <trkpt lat="47.555317" lon="2.2256565">
        <ele>170</ele>
        <time>2022-06-09T08:56:30Z</time>
      </trkpt>
      <trkpt lat="47.55532" lon="2.2256732">
        <ele>170</ele>
        <time>2022-06-09T08:56:31Z</time>
      </trkpt>
      <trkpt lat="47.55532" lon="2.2256877">
        <ele>171</ele>
        <time>2022-06-09T08:56:32Z</time>
      </trkpt>
      <trkpt lat="47.555317" lon="2.2257009">
        <ele>171</ele>
        <time>2022-06-09T08:56:33Z</time>
      </trkpt>
      <trkpt lat="47.55532" lon="2.2257159">
        <ele>171</ele>
        <time>2022-06-09T08:56:34Z</time>
      </trkpt>
      <trkpt lat="47.555325" lon="2.2257283">
        <ele>171</ele>
        <time>2022-06-09T08:56:35Z</time>
      </trkpt>
      <trkpt lat="47.555325" lon="2.225748">
        <ele>171</ele>
        <time>2022-06-09T08:56:36Z</time>
      </trkpt>
      <trkpt lat="47.55533" lon="2.2257662">
        <ele>171</ele>
        <time>2022-06-09T08:56:37Z</time>
      </trkpt>
      <trkpt lat="47.555332" lon="2.225787">
        <ele>171</ele>
        <time>2022-06-09T08:56:38Z</time>
      </trkpt>
      <trkpt lat="47.555336" lon="2.2257996">
        <ele>172</ele>
        <time>2022-06-09T08:56:39Z</time>
      </trkpt>
      <trkpt lat="47.555332" lon="2.2258062">
        <ele>172</ele>
        <time>2022-06-09T08:56:40Z</time>
      </trkpt>
      <trkpt lat="47.555336" lon="2.2258198">
        <ele>172</ele>
        <time>2022-06-09T08:56:41Z</time>
      </trkpt>
      <trkpt lat="47.555336" lon="2.2258358">
        <ele>172</ele>
        <time>2022-06-09T08:56:42Z</time>
      </trkpt>
      <trkpt lat="47.555344" lon="2.2258554">
        <ele>173</ele>
        <time>2022-06-09T08:56:43Z</time>
      </trkpt>
      <trkpt lat="47.555347" lon="2.2258759">
        <ele>173</ele>
        <time>2022-06-09T08:56:44Z</time>
      </trkpt>
      <trkpt lat="47.555347" lon="2.2258914">
        <ele>173</ele>
        <time>2022-06-09T08:56:45Z</time>
      </trkpt>
      <trkpt lat="47.555347" lon="2.2259114">
        <ele>173</ele>
        <time>2022-06-09T08:56:46Z</time>
      </trkpt>
      <trkpt lat="47.555347" lon="2.2259314">
        <ele>173</ele>
        <time>2022-06-09T08:56:47Z</time>
      </trkpt>
      <trkpt lat="47.55535" lon="2.2259457">
        <ele>173</ele>
        <time>2022-06-09T08:56:48Z</time>
      </trkpt>
      <trkpt lat="47.55535" lon="2.2259629">
        <ele>173</ele>
        <time>2022-06-09T08:56:49Z</time>
      </trkpt>
      <trkpt lat="47.555355" lon="2.225978">
        <ele>173</ele>
        <time>2022-06-09T08:56:50Z</time>
      </trkpt>
      <trkpt lat="47.555355" lon="2.2260017">
        <ele>173</ele>
        <time>2022-06-09T08:56:51Z</time>
      </trkpt>
      <trkpt lat="47.55536" lon="2.226023">
        <ele>173</ele>
        <time>2022-06-09T08:56:52Z</time>
      </trkpt>
      <trkpt lat="47.555367" lon="2.2260344">
        <ele>173</ele>
        <time>2022-06-09T08:56:53Z</time>
      </trkpt>
      <trkpt lat="47.555374" lon="2.2260373">
        <ele>174</ele>
        <time>2022-06-09T08:56:54Z</time>
      </trkpt>
      <trkpt lat="47.555374" lon="2.2260478">
        <ele>173</ele>
        <time>2022-06-09T08:56:55Z</time>
      </trkpt>
      <trkpt lat="47.555378" lon="2.2260618">
        <ele>173</ele>
        <time>2022-06-09T08:56:56Z</time>
      </trkpt>
      <trkpt lat="47.555378" lon="2.2260756">
        <ele>173</ele>
        <time>2022-06-09T08:56:57Z</time>
      </trkpt>
      <trkpt lat="47.55538" lon="2.2260995">
        <ele>173</ele>
        <time>2022-06-09T08:56:58Z</time>
      </trkpt>
      <trkpt lat="47.55538" lon="2.2261138">
        <ele>173</ele>
        <time>2022-06-09T08:56:59Z</time>
      </trkpt>
      <trkpt lat="47.555386" lon="2.2261322">
        <ele>173</ele>
        <time>2022-06-09T08:57:00Z</time>
      </trkpt>
      <trkpt lat="47.55539" lon="2.2261574">
        <ele>173</ele>
        <time>2022-06-09T08:57:01Z</time>
      </trkpt>
      <trkpt lat="47.555397" lon="2.2261763">
        <ele>173</ele>
        <time>2022-06-09T08:57:02Z</time>
      </trkpt>
      <trkpt lat="47.5554" lon="2.226192">
        <ele>174</ele>
        <time>2022-06-09T08:57:03Z</time>
      </trkpt>
      <trkpt lat="47.555405" lon="2.226207">
        <ele>173</ele>
        <time>2022-06-09T08:57:04Z</time>
      </trkpt>
      <trkpt lat="47.55541" lon="2.226218">
        <ele>173</ele>
        <time>2022-06-09T08:57:05Z</time>
      </trkpt>
      <trkpt lat="47.555412" lon="2.2262323">
        <ele>173</ele>
        <time>2022-06-09T08:57:06Z</time>
      </trkpt>
      <trkpt lat="47.555416" lon="2.226252">
        <ele>173</ele>
        <time>2022-06-09T08:57:07Z</time>
      </trkpt>
      <trkpt lat="47.55542" lon="2.226269">
        <ele>173</ele>
        <time>2022-06-09T08:57:08Z</time>
      </trkpt>
      <trkpt lat="47.55542" lon="2.2262836">
        <ele>173</ele>
        <time>2022-06-09T08:57:09Z</time>
      </trkpt>
      <trkpt lat="47.555428" lon="2.2262979">
        <ele>173</ele>
        <time>2022-06-09T08:57:10Z</time>
      </trkpt>
      <trkpt lat="47.555435" lon="2.2263136">
        <ele>173</ele>
        <time>2022-06-09T08:57:11Z</time>
      </trkpt>
      <trkpt lat="47.55544" lon="2.2263412">
        <ele>173</ele>
        <time>2022-06-09T08:57:12Z</time>
      </trkpt>
      <trkpt lat="47.55544" lon="2.2263603">
        <ele>173</ele>
        <time>2022-06-09T08:57:13Z</time>
      </trkpt>
      <trkpt lat="47.55544" lon="2.2263756">
        <ele>174</ele>
        <time>2022-06-09T08:57:14Z</time>
      </trkpt>
      <trkpt lat="47.555443" lon="2.226392">
        <ele>174</ele>
        <time>2022-06-09T08:57:15Z</time>
      </trkpt>
      <trkpt lat="47.555443" lon="2.2264125">
        <ele>174</ele>
        <time>2022-06-09T08:57:16Z</time>
      </trkpt>
      <trkpt lat="47.555447" lon="2.2264388">
        <ele>174</ele>
        <time>2022-06-09T08:57:17Z</time>
      </trkpt>
      <trkpt lat="47.555447" lon="2.2264524">
        <ele>174</ele>
        <time>2022-06-09T08:57:18Z</time>
      </trkpt>
      <trkpt lat="47.55545" lon="2.2264621">
        <ele>174</ele>
        <time>2022-06-09T08:57:19Z</time>
      </trkpt>
      <trkpt lat="47.55545" lon="2.2264738">
        <ele>174</ele>
        <time>2022-06-09T08:57:20Z</time>
      </trkpt>
      <trkpt lat="47.555458" lon="2.2264853">
        <ele>174</ele>
        <time>2022-06-09T08:57:21Z</time>
      </trkpt>
      <trkpt lat="47.555458" lon="2.2265036">
        <ele>174</ele>
        <time>2022-06-09T08:57:22Z</time>
      </trkpt>
      <trkpt lat="47.55546" lon="2.2265186">
        <ele>174</ele>
        <time>2022-06-09T08:57:23Z</time>
      </trkpt>
      <trkpt lat="47.555466" lon="2.2265372">
        <ele>173</ele>
        <time>2022-06-09T08:57:24Z</time>
      </trkpt>
      <trkpt lat="47.55546" lon="2.226566">
        <ele>174</ele>
        <time>2022-06-09T08:57:25Z</time>
      </trkpt>
      <trkpt lat="47.55546" lon="2.226588">
        <ele>174</ele>
        <time>2022-06-09T08:57:26Z</time>
      </trkpt>
      <trkpt lat="47.555466" lon="2.2266102">
        <ele>174</ele>
        <time>2022-06-09T08:57:27Z</time>
      </trkpt>
      <trkpt lat="47.55547" lon="2.2266314">
        <ele>175</ele>
        <time>2022-06-09T08:57:28Z</time>
      </trkpt>
      <trkpt lat="47.555466" lon="2.2266514">
        <ele>175</ele>
        <time>2022-06-09T08:57:29Z</time>
      </trkpt>
      <trkpt lat="47.55547" lon="2.2266693">
        <ele>175</ele>
        <time>2022-06-09T08:57:30Z</time>
      </trkpt>
      <trkpt lat="47.555473" lon="2.2266858">
        <ele>176</ele>
        <time>2022-06-09T08:57:31Z</time>
      </trkpt>
      <trkpt lat="47.555473" lon="2.226708">
        <ele>176</ele>
        <time>2022-06-09T08:57:32Z</time>
      </trkpt>
      <trkpt lat="47.555485" lon="2.2267275">
        <ele>176</ele>
        <time>2022-06-09T08:57:33Z</time>
      </trkpt>
      <trkpt lat="47.55549" lon="2.2267456">
        <ele>176</ele>
        <time>2022-06-09T08:57:34Z</time>
      </trkpt>
      <trkpt lat="47.555492" lon="2.2267666">
        <ele>176</ele>
        <time>2022-06-09T08:57:35Z</time>
      </trkpt>
      <trkpt lat="47.555496" lon="2.2267838">
        <ele>177</ele>
        <time>2022-06-09T08:57:36Z</time>
      </trkpt>
      <trkpt lat="47.5555" lon="2.226798">
        <ele>177</ele>
        <time>2022-06-09T08:57:37Z</time>
      </trkpt>
      <trkpt lat="47.555508" lon="2.2268147">
        <ele>177</ele>
        <time>2022-06-09T08:57:38Z</time>
      </trkpt>
      <trkpt lat="47.555515" lon="2.226834">
        <ele>177</ele>
        <time>2022-06-09T08:57:39Z</time>
      </trkpt>
      <trkpt lat="47.55552" lon="2.2268543">
        <ele>177</ele>
        <time>2022-06-09T08:57:40Z</time>
      </trkpt>
      <trkpt lat="47.55552" lon="2.226872">
        <ele>177</ele>
        <time>2022-06-09T08:57:41Z</time>
      </trkpt>
      <trkpt lat="47.555523" lon="2.226893">
        <ele>177</ele>
        <time>2022-06-09T08:57:42Z</time>
      </trkpt>
      <trkpt lat="47.555527" lon="2.2269235">
        <ele>177</ele>
        <time>2022-06-09T08:57:43Z</time>
      </trkpt>
      <trkpt lat="47.555534" lon="2.2269459">
        <ele>177</ele>
        <time>2022-06-09T08:57:44Z</time>
      </trkpt>
      <trkpt lat="47.555534" lon="2.2269669">
        <ele>177</ele>
        <time>2022-06-09T08:57:45Z</time>
      </trkpt>
      <trkpt lat="47.55553" lon="2.226991">
        <ele>177</ele>
        <time>2022-06-09T08:57:46Z</time>
      </trkpt>
      <trkpt lat="47.55554" lon="2.227017">
        <ele>178</ele>
        <time>2022-06-09T08:57:47Z</time>
      </trkpt>
      <trkpt lat="47.555542" lon="2.2270339">
        <ele>178</ele>
        <time>2022-06-09T08:57:48Z</time>
      </trkpt>
      <trkpt lat="47.555542" lon="2.2270536">
        <ele>178</ele>
        <time>2022-06-09T08:57:49Z</time>
      </trkpt>
      <trkpt lat="47.55555" lon="2.227072">
        <ele>179</ele>
        <time>2022-06-09T08:57:50Z</time>
      </trkpt>
      <trkpt lat="47.555553" lon="2.2270892">
        <ele>179</ele>
        <time>2022-06-09T08:57:51Z</time>
      </trkpt>
      <trkpt lat="47.555553" lon="2.2271032">
        <ele>180</ele>
        <time>2022-06-09T08:57:52Z</time>
      </trkpt>
      <trkpt lat="47.555557" lon="2.227121">
        <ele>180</ele>
        <time>2022-06-09T08:57:53Z</time>
      </trkpt>
      <trkpt lat="47.55556" lon="2.2271347">
        <ele>180</ele>
        <time>2022-06-09T08:57:54Z</time>
      </trkpt>
      <trkpt lat="47.55557" lon="2.2271483">
        <ele>181</ele>
        <time>2022-06-09T08:57:55Z</time>
      </trkpt>
      <trkpt lat="47.555573" lon="2.2271636">
        <ele>181</ele>
        <time>2022-06-09T08:57:56Z</time>
      </trkpt>
      <trkpt lat="47.55558" lon="2.2271824">
        <ele>181</ele>
        <time>2022-06-09T08:57:57Z</time>
      </trkpt>
      <trkpt lat="47.555584" lon="2.2272058">
        <ele>181</ele>
        <time>2022-06-09T08:57:58Z</time>
      </trkpt>
      <trkpt lat="47.55558" lon="2.2272282">
        <ele>181</ele>
        <time>2022-06-09T08:57:59Z</time>
      </trkpt>
      <trkpt lat="47.555584" lon="2.2272503">
        <ele>181</ele>
        <time>2022-06-09T08:58:00Z</time>
      </trkpt>
      <trkpt lat="47.555584" lon="2.227266">
        <ele>181</ele>
        <time>2022-06-09T08:58:01Z</time>
      </trkpt>
      <trkpt lat="47.555584" lon="2.227292">
        <ele>182</ele>
        <time>2022-06-09T08:58:02Z</time>
      </trkpt>
      <trkpt lat="47.55559" lon="2.2273123">
        <ele>182</ele>
        <time>2022-06-09T08:58:03Z</time>
      </trkpt>
      <trkpt lat="47.555588" lon="2.227342">
        <ele>182</ele>
        <time>2022-06-09T08:58:04Z</time>
      </trkpt>
      <trkpt lat="47.55559" lon="2.227364">
        <ele>182</ele>
        <time>2022-06-09T08:58:05Z</time>
      </trkpt>
      <trkpt lat="47.555595" lon="2.2273839">
        <ele>182</ele>
        <time>2022-06-09T08:58:06Z</time>
      </trkpt>
      <trkpt lat="47.555595" lon="2.2274032">
        <ele>183</ele>
        <time>2022-06-09T08:58:07Z</time>
      </trkpt>
      <trkpt lat="47.5556" lon="2.2274213">
        <ele>183</ele>
        <time>2022-06-09T08:58:08Z</time>
      </trkpt>
      <trkpt lat="47.555603" lon="2.227441">
        <ele>183</ele>
        <time>2022-06-09T08:58:09Z</time>
      </trkpt>
      <trkpt lat="47.555607" lon="2.227463">
        <ele>183</ele>
        <time>2022-06-09T08:58:10Z</time>
      </trkpt>
      <trkpt lat="47.555607" lon="2.2274823">
        <ele>183</ele>
        <time>2022-06-09T08:58:11Z</time>
      </trkpt>
      <trkpt lat="47.555607" lon="2.2274997">
        <ele>183</ele>
        <time>2022-06-09T08:58:12Z</time>
      </trkpt>
      <trkpt lat="47.555607" lon="2.2275126">
        <ele>184</ele>
        <time>2022-06-09T08:58:13Z</time>
      </trkpt>
      <trkpt lat="47.55561" lon="2.2275312">
        <ele>184</ele>
        <time>2022-06-09T08:58:14Z</time>
      </trkpt>
      <trkpt lat="47.555614" lon="2.227555">
        <ele>184</ele>
        <time>2022-06-09T08:58:15Z</time>
      </trkpt>
      <trkpt lat="47.55562" lon="2.2275753">
        <ele>184</ele>
        <time>2022-06-09T08:58:16Z</time>
      </trkpt>
      <trkpt lat="47.555622" lon="2.2275953">
        <ele>184</ele>
        <time>2022-06-09T08:58:17Z</time>
      </trkpt>
      <trkpt lat="47.555626" lon="2.2276082">
        <ele>184</ele>
        <time>2022-06-09T08:58:18Z</time>
      </trkpt>
      <trkpt lat="47.555626" lon="2.2276292">
        <ele>184</ele>
        <time>2022-06-09T08:58:19Z</time>
      </trkpt>
      <trkpt lat="47.555626" lon="2.2276483">
        <ele>184</ele>
        <time>2022-06-09T08:58:20Z</time>
      </trkpt>
      <trkpt lat="47.55563" lon="2.2276607">
        <ele>184</ele>
        <time>2022-06-09T08:58:21Z</time>
      </trkpt>
      <trkpt lat="47.55563" lon="2.2276785">
        <ele>184</ele>
        <time>2022-06-09T08:58:22Z</time>
      </trkpt>
      <trkpt lat="47.55563" lon="2.2276952">
        <ele>184</ele>
        <time>2022-06-09T08:58:23Z</time>
      </trkpt>
      <trkpt lat="47.55563" lon="2.2277133">
        <ele>184</ele>
        <time>2022-06-09T08:58:24Z</time>
      </trkpt>
      <trkpt lat="47.555637" lon="2.2277334">
        <ele>184</ele>
        <time>2022-06-09T08:58:25Z</time>
      </trkpt>
      <trkpt lat="47.555637" lon="2.2277513">
        <ele>184</ele>
        <time>2022-06-09T08:58:26Z</time>
      </trkpt>
      <trkpt lat="47.555637" lon="2.2277658">
        <ele>184</ele>
        <time>2022-06-09T08:58:27Z</time>
      </trkpt>
      <trkpt lat="47.555645" lon="2.2277832">
        <ele>185</ele>
        <time>2022-06-09T08:58:28Z</time>
      </trkpt>
      <trkpt lat="47.55565" lon="2.2278004">
        <ele>184</ele>
        <time>2022-06-09T08:58:29Z</time>
      </trkpt>
      <trkpt lat="47.555653" lon="2.2278135">
        <ele>184</ele>
        <time>2022-06-09T08:58:30Z</time>
      </trkpt>
      <trkpt lat="47.555656" lon="2.227828">
        <ele>184</ele>
        <time>2022-06-09T08:58:31Z</time>
      </trkpt>
      <trkpt lat="47.555656" lon="2.2278442">
        <ele>184</ele>
        <time>2022-06-09T08:58:32Z</time>
      </trkpt>
      <trkpt lat="47.555656" lon="2.2278655">
        <ele>185</ele>
        <time>2022-06-09T08:58:33Z</time>
      </trkpt>
      <trkpt lat="47.555656" lon="2.2278857">
        <ele>185</ele>
        <time>2022-06-09T08:58:34Z</time>
      </trkpt>
      <trkpt lat="47.55566" lon="2.2279043">
        <ele>185</ele>
        <time>2022-06-09T08:58:35Z</time>
      </trkpt>
      <trkpt lat="47.55566" lon="2.2279198">
        <ele>185</ele>
        <time>2022-06-09T08:58:36Z</time>
      </trkpt>
      <trkpt lat="47.555664" lon="2.2279346">
        <ele>185</ele>
        <time>2022-06-09T08:58:37Z</time>
      </trkpt>
      <trkpt lat="47.55567" lon="2.2279503">
        <ele>185</ele>
        <time>2022-06-09T08:58:38Z</time>
      </trkpt>
      <trkpt lat="47.55568" lon="2.227964">
        <ele>184</ele>
        <time>2022-06-09T08:58:39Z</time>
      </trkpt>
      <trkpt lat="47.555683" lon="2.2279809">
        <ele>184</ele>
        <time>2022-06-09T08:58:40Z</time>
      </trkpt>
      <trkpt lat="47.55569" lon="2.2279973">
        <ele>184</ele>
        <time>2022-06-09T08:58:41Z</time>
      </trkpt>
      <trkpt lat="47.555695" lon="2.228014">
        <ele>184</ele>
        <time>2022-06-09T08:58:42Z</time>
      </trkpt>
      <trkpt lat="47.5557" lon="2.2280288">
        <ele>184</ele>
        <time>2022-06-09T08:58:43Z</time>
      </trkpt>
      <trkpt lat="47.5557" lon="2.2280452">
        <ele>184</ele>
        <time>2022-06-09T08:58:44Z</time>
      </trkpt>
      <trkpt lat="47.5557" lon="2.2280622">
        <ele>184</ele>
        <time>2022-06-09T08:58:45Z</time>
      </trkpt>
      <trkpt lat="47.5557" lon="2.2280815">
        <ele>184</ele>
        <time>2022-06-09T08:58:46Z</time>
      </trkpt>
      <trkpt lat="47.555706" lon="2.2281013">
        <ele>184</ele>
        <time>2022-06-09T08:58:47Z</time>
      </trkpt>
      <trkpt lat="47.55571" lon="2.2281244">
        <ele>184</ele>
        <time>2022-06-09T08:58:48Z</time>
      </trkpt>
      <trkpt lat="47.555714" lon="2.2281444">
        <ele>183</ele>
        <time>2022-06-09T08:58:49Z</time>
      </trkpt>
      <trkpt lat="47.555714" lon="2.2281635">
        <ele>183</ele>
        <time>2022-06-09T08:58:50Z</time>
      </trkpt>
      <trkpt lat="47.55572" lon="2.2281854">
        <ele>183</ele>
        <time>2022-06-09T08:58:51Z</time>
      </trkpt>
      <trkpt lat="47.55572" lon="2.2282107">
        <ele>184</ele>
        <time>2022-06-09T08:58:52Z</time>
      </trkpt>
      <trkpt lat="47.55572" lon="2.2282245">
        <ele>184</ele>
        <time>2022-06-09T08:58:53Z</time>
      </trkpt>
      <trkpt lat="47.55573" lon="2.2282376">
        <ele>184</ele>
        <time>2022-06-09T08:58:54Z</time>
      </trkpt>
      <trkpt lat="47.555733" lon="2.2282586">
        <ele>184</ele>
        <time>2022-06-09T08:58:55Z</time>
      </trkpt>
      <trkpt lat="47.555733" lon="2.2282808">
        <ele>184</ele>
        <time>2022-06-09T08:58:56Z</time>
      </trkpt>
      <trkpt lat="47.555733" lon="2.2282996">
        <ele>184</ele>
        <time>2022-06-09T08:58:57Z</time>
      </trkpt>
      <trkpt lat="47.555737" lon="2.2283206">
        <ele>185</ele>
        <time>2022-06-09T08:58:58Z</time>
      </trkpt>
      <trkpt lat="47.555737" lon="2.2283406">
        <ele>185</ele>
        <time>2022-06-09T08:58:59Z</time>
      </trkpt>
      <trkpt lat="47.555737" lon="2.2283616">
        <ele>185</ele>
        <time>2022-06-09T08:59:00Z</time>
      </trkpt>
      <trkpt lat="47.555744" lon="2.2283778">
        <ele>184</ele>
        <time>2022-06-09T08:59:01Z</time>
      </trkpt>
      <trkpt lat="47.555748" lon="2.2283995">
        <ele>184</ele>
        <time>2022-06-09T08:59:02Z</time>
      </trkpt>
      <trkpt lat="47.555748" lon="2.228418">
        <ele>185</ele>
        <time>2022-06-09T08:59:03Z</time>
      </trkpt>
      <trkpt lat="47.555748" lon="2.2284412">
        <ele>184</ele>
        <time>2022-06-09T08:59:04Z</time>
      </trkpt>
      <trkpt lat="47.55575" lon="2.228457">
        <ele>184</ele>
        <time>2022-06-09T08:59:05Z</time>
      </trkpt>
      <trkpt lat="47.55575" lon="2.228468">
        <ele>184</ele>
        <time>2022-06-09T08:59:06Z</time>
      </trkpt>
      <trkpt lat="47.555756" lon="2.2284827">
        <ele>184</ele>
        <time>2022-06-09T08:59:07Z</time>
      </trkpt>
      <trkpt lat="47.555756" lon="2.2285">
        <ele>184</ele>
        <time>2022-06-09T08:59:08Z</time>
      </trkpt>
      <trkpt lat="47.555756" lon="2.2285156">
        <ele>184</ele>
        <time>2022-06-09T08:59:09Z</time>
      </trkpt>
      <trkpt lat="47.555756" lon="2.2285378">
        <ele>185</ele>
        <time>2022-06-09T08:59:10Z</time>
      </trkpt>
      <trkpt lat="47.555756" lon="2.2285562">
        <ele>185</ele>
        <time>2022-06-09T08:59:11Z</time>
      </trkpt>
      <trkpt lat="47.555756" lon="2.2285771">
        <ele>185</ele>
        <time>2022-06-09T08:59:12Z</time>
      </trkpt>
      <trkpt lat="47.55576" lon="2.228592">
        <ele>185</ele>
        <time>2022-06-09T08:59:13Z</time>
      </trkpt>
      <trkpt lat="47.555763" lon="2.228611">
        <ele>185</ele>
        <time>2022-06-09T08:59:14Z</time>
      </trkpt>
      <trkpt lat="47.55577" lon="2.228625">
        <ele>185</ele>
        <time>2022-06-09T08:59:15Z</time>
      </trkpt>
      <trkpt lat="47.555775" lon="2.2286377">
        <ele>185</ele>
        <time>2022-06-09T08:59:16Z</time>
      </trkpt>
      <trkpt lat="47.555775" lon="2.2286494">
        <ele>185</ele>
        <time>2022-06-09T08:59:17Z</time>
      </trkpt>
      <trkpt lat="47.55578" lon="2.228667">
        <ele>185</ele>
        <time>2022-06-09T08:59:18Z</time>
      </trkpt>
      <trkpt lat="47.55578" lon="2.2286854">
        <ele>185</ele>
        <time>2022-06-09T08:59:19Z</time>
      </trkpt>
      <trkpt lat="47.555782" lon="2.2287033">
        <ele>185</ele>
        <time>2022-06-09T08:59:20Z</time>
      </trkpt>
      <trkpt lat="47.55579" lon="2.22872">
        <ele>185</ele>
        <time>2022-06-09T08:59:21Z</time>
      </trkpt>
      <trkpt lat="47.555794" lon="2.2287316">
        <ele>184</ele>
        <time>2022-06-09T08:59:22Z</time>
      </trkpt>
      <trkpt lat="47.555794" lon="2.2287483">
        <ele>184</ele>
        <time>2022-06-09T08:59:23Z</time>
      </trkpt>
      <trkpt lat="47.555794" lon="2.2287638">
        <ele>184</ele>
        <time>2022-06-09T08:59:24Z</time>
      </trkpt>
      <trkpt lat="47.555794" lon="2.228781">
        <ele>184</ele>
        <time>2022-06-09T08:59:25Z</time>
      </trkpt>
      <trkpt lat="47.555798" lon="2.228802">
        <ele>184</ele>
        <time>2022-06-09T08:59:26Z</time>
      </trkpt>
      <trkpt lat="47.555805" lon="2.2288158">
        <ele>184</ele>
        <time>2022-06-09T08:59:27Z</time>
      </trkpt>
      <trkpt lat="47.555805" lon="2.228828">
        <ele>184</ele>
        <time>2022-06-09T08:59:28Z</time>
      </trkpt>
      <trkpt lat="47.55581" lon="2.228842">
        <ele>184</ele>
        <time>2022-06-09T08:59:29Z</time>
      </trkpt>
      <trkpt lat="47.555813" lon="2.2288566">
        <ele>184</ele>
        <time>2022-06-09T08:59:30Z</time>
      </trkpt>
      <trkpt lat="47.555824" lon="2.228862">
        <ele>185</ele>
        <time>2022-06-09T08:59:31Z</time>
      </trkpt>
      <trkpt lat="47.555836" lon="2.228881">
        <ele>185</ele>
        <time>2022-06-09T08:59:32Z</time>
      </trkpt>
      <trkpt lat="47.555843" lon="2.228898">
        <ele>185</ele>
        <time>2022-06-09T08:59:33Z</time>
      </trkpt>
      <trkpt lat="47.555847" lon="2.2289138">
        <ele>185</ele>
        <time>2022-06-09T08:59:34Z</time>
      </trkpt>
      <trkpt lat="47.55586" lon="2.228931">
        <ele>185</ele>
        <time>2022-06-09T08:59:35Z</time>
      </trkpt>
      <trkpt lat="47.555862" lon="2.2289405">
        <ele>186</ele>
        <time>2022-06-09T08:59:36Z</time>
      </trkpt>
      <trkpt lat="47.555866" lon="2.2289622">
        <ele>186</ele>
        <time>2022-06-09T08:59:37Z</time>
      </trkpt>
      <trkpt lat="47.55587" lon="2.2289758">
        <ele>186</ele>
        <time>2022-06-09T08:59:38Z</time>
      </trkpt>
      <trkpt lat="47.555874" lon="2.228995">
        <ele>185</ele>
        <time>2022-06-09T08:59:39Z</time>
      </trkpt>
      <trkpt lat="47.55587" lon="2.2290123">
        <ele>185</ele>
        <time>2022-06-09T08:59:40Z</time>
      </trkpt>
      <trkpt lat="47.555874" lon="2.2290318">
        <ele>185</ele>
        <time>2022-06-09T08:59:41Z</time>
      </trkpt>
      <trkpt lat="47.555874" lon="2.229057">
        <ele>185</ele>
        <time>2022-06-09T08:59:42Z</time>
      </trkpt>
      <trkpt lat="47.555874" lon="2.2290719">
        <ele>185</ele>
        <time>2022-06-09T08:59:43Z</time>
      </trkpt>
      <trkpt lat="47.555874" lon="2.2290866">
        <ele>185</ele>
        <time>2022-06-09T08:59:44Z</time>
      </trkpt>
      <trkpt lat="47.555874" lon="2.229102">
        <ele>186</ele>
        <time>2022-06-09T08:59:45Z</time>
      </trkpt>
      <trkpt lat="47.555878" lon="2.229119">
        <ele>186</ele>
        <time>2022-06-09T08:59:46Z</time>
      </trkpt>
      <trkpt lat="47.555874" lon="2.229134">
        <ele>185</ele>
        <time>2022-06-09T08:59:47Z</time>
      </trkpt>
      <trkpt lat="47.55587" lon="2.2291493">
        <ele>185</ele>
        <time>2022-06-09T08:59:48Z</time>
      </trkpt>
      <trkpt lat="47.55587" lon="2.2291646">
        <ele>185</ele>
        <time>2022-06-09T08:59:49Z</time>
      </trkpt>
      <trkpt lat="47.555878" lon="2.2291794">
        <ele>185</ele>
        <time>2022-06-09T08:59:50Z</time>
      </trkpt>
      <trkpt lat="47.55588" lon="2.2291932">
        <ele>185</ele>
        <time>2022-06-09T08:59:51Z</time>
      </trkpt>
      <trkpt lat="47.555885" lon="2.229205">
        <ele>185</ele>
        <time>2022-06-09T08:59:52Z</time>
      </trkpt>
      <trkpt lat="47.555893" lon="2.2292192">
        <ele>186</ele>
        <time>2022-06-09T08:59:53Z</time>
      </trkpt>
      <trkpt lat="47.555904" lon="2.2292354">
        <ele>186</ele>
        <time>2022-06-09T08:59:54Z</time>
      </trkpt>
      <trkpt lat="47.555912" lon="2.2292535">
        <ele>186</ele>
        <time>2022-06-09T08:59:55Z</time>
      </trkpt>
      <trkpt lat="47.555916" lon="2.2292712">
        <ele>186</ele>
        <time>2022-06-09T08:59:56Z</time>
      </trkpt>
      <trkpt lat="47.55592" lon="2.2292912">
        <ele>186</ele>
        <time>2022-06-09T08:59:57Z</time>
      </trkpt>
      <trkpt lat="47.55592" lon="2.2293043">
        <ele>186</ele>
        <time>2022-06-09T08:59:58Z</time>
      </trkpt>
      <trkpt lat="47.555923" lon="2.2293193">
        <ele>185</ele>
        <time>2022-06-09T08:59:59Z</time>
      </trkpt>
      <trkpt lat="47.55592" lon="2.2293348">
        <ele>185</ele>
        <time>2022-06-09T09:00:00Z</time>
      </trkpt>
      <trkpt lat="47.55592" lon="2.229357">
        <ele>185</ele>
        <time>2022-06-09T09:00:01Z</time>
      </trkpt>
      <trkpt lat="47.555923" lon="2.2293766">
        <ele>186</ele>
        <time>2022-06-09T09:00:02Z</time>
      </trkpt>
      <trkpt lat="47.55592" lon="2.2293956">
        <ele>186</ele>
        <time>2022-06-09T09:00:03Z</time>
      </trkpt>
      <trkpt lat="47.555923" lon="2.2294161">
        <ele>186</ele>
        <time>2022-06-09T09:00:04Z</time>
      </trkpt>
      <trkpt lat="47.555927" lon="2.229436">
        <ele>186</ele>
        <time>2022-06-09T09:00:05Z</time>
      </trkpt>
      <trkpt lat="47.55593" lon="2.2294536">
        <ele>186</ele>
        <time>2022-06-09T09:00:06Z</time>
      </trkpt>
      <trkpt lat="47.55594" lon="2.22947">
        <ele>186</ele>
        <time>2022-06-09T09:00:07Z</time>
      </trkpt>
      <trkpt lat="47.555943" lon="2.229487">
        <ele>186</ele>
        <time>2022-06-09T09:00:08Z</time>
      </trkpt>
      <trkpt lat="47.555943" lon="2.2294993">
        <ele>185</ele>
        <time>2022-06-09T09:00:09Z</time>
      </trkpt>
      <trkpt lat="47.55594" lon="2.2295232">
        <ele>186</ele>
        <time>2022-06-09T09:00:10Z</time>
      </trkpt>
      <trkpt lat="47.555935" lon="2.2295423">
        <ele>185</ele>
        <time>2022-06-09T09:00:11Z</time>
      </trkpt>
      <trkpt lat="47.55594" lon="2.2295585">
        <ele>185</ele>
        <time>2022-06-09T09:00:12Z</time>
      </trkpt>
      <trkpt lat="47.555943" lon="2.2295735">
        <ele>185</ele>
        <time>2022-06-09T09:00:13Z</time>
      </trkpt>
      <trkpt lat="47.555954" lon="2.2295885">
        <ele>185</ele>
        <time>2022-06-09T09:00:14Z</time>
      </trkpt>
      <trkpt lat="47.55596" lon="2.229607">
        <ele>185</ele>
        <time>2022-06-09T09:00:15Z</time>
      </trkpt>
      <trkpt lat="47.55597" lon="2.229625">
        <ele>184</ele>
        <time>2022-06-09T09:00:16Z</time>
      </trkpt>
      <trkpt lat="47.55598" lon="2.2296417">
        <ele>184</ele>
        <time>2022-06-09T09:00:17Z</time>
      </trkpt>
      <trkpt lat="47.55599" lon="2.2296624">
        <ele>184</ele>
        <time>2022-06-09T09:00:18Z</time>
      </trkpt>
      <trkpt lat="47.555992" lon="2.2296844">
        <ele>185</ele>
        <time>2022-06-09T09:00:19Z</time>
      </trkpt>
      <trkpt lat="47.55599" lon="2.2297063">
        <ele>185</ele>
        <time>2022-06-09T09:00:20Z</time>
      </trkpt>
      <trkpt lat="47.55599" lon="2.2297306">
        <ele>185</ele>
        <time>2022-06-09T09:00:21Z</time>
      </trkpt>
      <trkpt lat="47.55598" lon="2.2297528">
        <ele>185</ele>
        <time>2022-06-09T09:00:22Z</time>
      </trkpt>
      <trkpt lat="47.555977" lon="2.2297673">
        <ele>185</ele>
        <time>2022-06-09T09:00:23Z</time>
      </trkpt>
      <trkpt lat="47.555977" lon="2.2297857">
        <ele>185</ele>
        <time>2022-06-09T09:00:24Z</time>
      </trkpt>
      <trkpt lat="47.555977" lon="2.229804">
        <ele>185</ele>
        <time>2022-06-09T09:00:25Z</time>
      </trkpt>
      <trkpt lat="47.55598" lon="2.2298255">
        <ele>184</ele>
        <time>2022-06-09T09:00:26Z</time>
      </trkpt>
      <trkpt lat="47.555992" lon="2.2298388">
        <ele>185</ele>
        <time>2022-06-09T09:00:27Z</time>
      </trkpt>
      <trkpt lat="47.556" lon="2.2298565">
        <ele>185</ele>
        <time>2022-06-09T09:00:28Z</time>
      </trkpt>
      <trkpt lat="47.556007" lon="2.229872">
        <ele>185</ele>
        <time>2022-06-09T09:00:29Z</time>
      </trkpt>
      <trkpt lat="47.55602" lon="2.2298956">
        <ele>185</ele>
        <time>2022-06-09T09:00:30Z</time>
      </trkpt>
      <trkpt lat="47.556023" lon="2.2299166">
        <ele>186</ele>
        <time>2022-06-09T09:00:31Z</time>
      </trkpt>
      <trkpt lat="47.55602" lon="2.2299376">
        <ele>186</ele>
        <time>2022-06-09T09:00:32Z</time>
      </trkpt>
      <trkpt lat="47.55602" lon="2.2299578">
        <ele>186</ele>
        <time>2022-06-09T09:00:33Z</time>
      </trkpt>
      <trkpt lat="47.55602" lon="2.2299783">
        <ele>186</ele>
        <time>2022-06-09T09:00:34Z</time>
      </trkpt>
      <trkpt lat="47.556015" lon="2.229997">
        <ele>185</ele>
        <time>2022-06-09T09:00:35Z</time>
      </trkpt>
      <trkpt lat="47.55601" lon="2.230016">
        <ele>185</ele>
        <time>2022-06-09T09:00:36Z</time>
      </trkpt>
      <trkpt lat="47.55601" lon="2.2300367">
        <ele>186</ele>
        <time>2022-06-09T09:00:37Z</time>
      </trkpt>
      <trkpt lat="47.55601" lon="2.230053">
        <ele>185</ele>
        <time>2022-06-09T09:00:38Z</time>
      </trkpt>
      <trkpt lat="47.55601" lon="2.2300696">
        <ele>185</ele>
        <time>2022-06-09T09:00:39Z</time>
      </trkpt>
      <trkpt lat="47.556015" lon="2.2300866">
        <ele>185</ele>
        <time>2022-06-09T09:00:40Z</time>
      </trkpt>
      <trkpt lat="47.556023" lon="2.2301075">
        <ele>185</ele>
        <time>2022-06-09T09:00:41Z</time>
      </trkpt>
      <trkpt lat="47.556023" lon="2.2301219">
        <ele>184</ele>
        <time>2022-06-09T09:00:42Z</time>
      </trkpt>
      <trkpt lat="47.55603" lon="2.2301369">
        <ele>184</ele>
        <time>2022-06-09T09:00:43Z</time>
      </trkpt>
      <trkpt lat="47.55603" lon="2.2301505">
        <ele>183</ele>
        <time>2022-06-09T09:00:44Z</time>
      </trkpt>
      <trkpt lat="47.55603" lon="2.2301679">
        <ele>183</ele>
        <time>2022-06-09T09:00:45Z</time>
      </trkpt>
      <trkpt lat="47.556038" lon="2.2301853">
        <ele>183</ele>
        <time>2022-06-09T09:00:46Z</time>
      </trkpt>
      <trkpt lat="47.55604" lon="2.230204">
        <ele>183</ele>
        <time>2022-06-09T09:00:47Z</time>
      </trkpt>
      <trkpt lat="47.55604" lon="2.230224">
        <ele>183</ele>
        <time>2022-06-09T09:00:48Z</time>
      </trkpt>
      <trkpt lat="47.556046" lon="2.2302413">
        <ele>183</ele>
        <time>2022-06-09T09:00:49Z</time>
      </trkpt>
      <trkpt lat="47.556053" lon="2.2302551">
        <ele>183</ele>
        <time>2022-06-09T09:00:50Z</time>
      </trkpt>
      <trkpt lat="47.556057" lon="2.230274">
        <ele>182</ele>
        <time>2022-06-09T09:00:51Z</time>
      </trkpt>
      <trkpt lat="47.556057" lon="2.2302892">
        <ele>182</ele>
        <time>2022-06-09T09:00:52Z</time>
      </trkpt>
      <trkpt lat="47.556065" lon="2.2303097">
        <ele>182</ele>
        <time>2022-06-09T09:00:53Z</time>
      </trkpt>
      <trkpt lat="47.55607" lon="2.2303302">
        <ele>183</ele>
        <time>2022-06-09T09:00:54Z</time>
      </trkpt>
      <trkpt lat="47.55607" lon="2.230355">
        <ele>183</ele>
        <time>2022-06-09T09:00:55Z</time>
      </trkpt>
      <trkpt lat="47.556076" lon="2.2303734">
        <ele>183</ele>
        <time>2022-06-09T09:00:56Z</time>
      </trkpt>
      <trkpt lat="47.556087" lon="2.23039">
        <ele>183</ele>
        <time>2022-06-09T09:00:57Z</time>
      </trkpt>
      <trkpt lat="47.55609" lon="2.2304072">
        <ele>183</ele>
        <time>2022-06-09T09:00:58Z</time>
      </trkpt>
      <trkpt lat="47.556087" lon="2.230428">
        <ele>183</ele>
        <time>2022-06-09T09:00:59Z</time>
      </trkpt>
      <trkpt lat="47.55609" lon="2.2304459">
        <ele>183</ele>
        <time>2022-06-09T09:01:00Z</time>
      </trkpt>
      <trkpt lat="47.55609" lon="2.2304676">
        <ele>183</ele>
        <time>2022-06-09T09:01:01Z</time>
      </trkpt>
      <trkpt lat="47.5561" lon="2.2304857">
        <ele>183</ele>
        <time>2022-06-09T09:01:02Z</time>
      </trkpt>
      <trkpt lat="47.5561" lon="2.2305076">
        <ele>184</ele>
        <time>2022-06-09T09:01:03Z</time>
      </trkpt>
      <trkpt lat="47.5561" lon="2.2305233">
        <ele>184</ele>
        <time>2022-06-09T09:01:04Z</time>
      </trkpt>
      <trkpt lat="47.556103" lon="2.2305348">
        <ele>184</ele>
        <time>2022-06-09T09:01:05Z</time>
      </trkpt>
      <trkpt lat="47.556103" lon="2.2305458">
        <ele>184</ele>
        <time>2022-06-09T09:01:06Z</time>
      </trkpt>
      <trkpt lat="47.556107" lon="2.230559">
        <ele>184</ele>
        <time>2022-06-09T09:01:07Z</time>
      </trkpt>
      <trkpt lat="47.556107" lon="2.2305784">
        <ele>183</ele>
        <time>2022-06-09T09:01:08Z</time>
      </trkpt>
      <trkpt lat="47.556103" lon="2.2305984">
        <ele>182</ele>
        <time>2022-06-09T09:01:09Z</time>
      </trkpt>
      <trkpt lat="47.5561" lon="2.2306166">
        <ele>182</ele>
        <time>2022-06-09T09:01:10Z</time>
      </trkpt>
      <trkpt lat="47.556107" lon="2.230627">
        <ele>182</ele>
        <time>2022-06-09T09:01:11Z</time>
      </trkpt>
      <trkpt lat="47.556114" lon="2.2306495">
        <ele>181</ele>
        <time>2022-06-09T09:01:12Z</time>
      </trkpt>
      <trkpt lat="47.556126" lon="2.2306695">
        <ele>181</ele>
        <time>2022-06-09T09:01:13Z</time>
      </trkpt>
      <trkpt lat="47.556133" lon="2.2306817">
        <ele>181</ele>
        <time>2022-06-09T09:01:14Z</time>
      </trkpt>
      <trkpt lat="47.556137" lon="2.230697">
        <ele>181</ele>
        <time>2022-06-09T09:01:15Z</time>
      </trkpt>
      <trkpt lat="47.556133" lon="2.2307138">
        <ele>181</ele>
        <time>2022-06-09T09:01:16Z</time>
      </trkpt>
      <trkpt lat="47.556133" lon="2.230735">
        <ele>182</ele>
        <time>2022-06-09T09:01:17Z</time>
      </trkpt>
      <trkpt lat="47.556133" lon="2.2307484">
        <ele>181</ele>
        <time>2022-06-09T09:01:18Z</time>
      </trkpt>
      <trkpt lat="47.55614" lon="2.2307582">
        <ele>181</ele>
        <time>2022-06-09T09:01:19Z</time>
      </trkpt>
      <trkpt lat="47.556145" lon="2.2307744">
        <ele>181</ele>
        <time>2022-06-09T09:01:20Z</time>
      </trkpt>
      <trkpt lat="47.556145" lon="2.2307847">
        <ele>180</ele>
        <time>2022-06-09T09:01:21Z</time>
      </trkpt>
      <trkpt lat="47.556145" lon="2.2308064">
        <ele>180</ele>
        <time>2022-06-09T09:01:22Z</time>
      </trkpt>
      <trkpt lat="47.55614" lon="2.2308261">
        <ele>180</ele>
        <time>2022-06-09T09:01:23Z</time>
      </trkpt>
      <trkpt lat="47.55614" lon="2.2308435">
        <ele>180</ele>
        <time>2022-06-09T09:01:24Z</time>
      </trkpt>
      <trkpt lat="47.556133" lon="2.2308626">
        <ele>181</ele>
        <time>2022-06-09T09:01:25Z</time>
      </trkpt>
      <trkpt lat="47.556137" lon="2.2308733">
        <ele>181</ele>
        <time>2022-06-09T09:01:26Z</time>
      </trkpt>
      <trkpt lat="47.556137" lon="2.2308872">
        <ele>181</ele>
        <time>2022-06-09T09:01:27Z</time>
      </trkpt>
      <trkpt lat="47.55614" lon="2.2308986">
        <ele>181</ele>
        <time>2022-06-09T09:01:28Z</time>
      </trkpt>
      <trkpt lat="47.556145" lon="2.2309175">
        <ele>181</ele>
        <time>2022-06-09T09:01:29Z</time>
      </trkpt>
      <trkpt lat="47.556152" lon="2.2309349">
        <ele>181</ele>
        <time>2022-06-09T09:01:30Z</time>
      </trkpt>
      <trkpt lat="47.556152" lon="2.2309542">
        <ele>181</ele>
        <time>2022-06-09T09:01:31Z</time>
      </trkpt>
      <trkpt lat="47.556156" lon="2.2309728">
        <ele>181</ele>
        <time>2022-06-09T09:01:32Z</time>
      </trkpt>
      <trkpt lat="47.556156" lon="2.2309906">
        <ele>182</ele>
        <time>2022-06-09T09:01:33Z</time>
      </trkpt>
      <trkpt lat="47.55616" lon="2.2310095">
        <ele>182</ele>
        <time>2022-06-09T09:01:34Z</time>
      </trkpt>
      <trkpt lat="47.556156" lon="2.231029">
        <ele>181</ele>
        <time>2022-06-09T09:01:35Z</time>
      </trkpt>
      <trkpt lat="47.556156" lon="2.2310467">
        <ele>181</ele>
        <time>2022-06-09T09:01:36Z</time>
      </trkpt>
      <trkpt lat="47.556156" lon="2.231062">
        <ele>181</ele>
        <time>2022-06-09T09:01:37Z</time>
      </trkpt>
      <trkpt lat="47.55616" lon="2.2310722">
        <ele>181</ele>
        <time>2022-06-09T09:01:38Z</time>
      </trkpt>
      <trkpt lat="47.556168" lon="2.2310827">
        <ele>181</ele>
        <time>2022-06-09T09:01:39Z</time>
      </trkpt>
      <trkpt lat="47.55617" lon="2.2310932">
        <ele>180</ele>
        <time>2022-06-09T09:01:40Z</time>
      </trkpt>
      <trkpt lat="47.556175" lon="2.2311144">
        <ele>180</ele>
        <time>2022-06-09T09:01:41Z</time>
      </trkpt>
      <trkpt lat="47.556175" lon="2.231129">
        <ele>181</ele>
        <time>2022-06-09T09:01:42Z</time>
      </trkpt>
      <trkpt lat="47.55618" lon="2.231147">
        <ele>181</ele>
        <time>2022-06-09T09:01:43Z</time>
      </trkpt>
      <trkpt lat="47.556183" lon="2.2311623">
        <ele>181</ele>
        <time>2022-06-09T09:01:44Z</time>
      </trkpt>
      <trkpt lat="47.556183" lon="2.231174">
        <ele>181</ele>
        <time>2022-06-09T09:01:45Z</time>
      </trkpt>
      <trkpt lat="47.556183" lon="2.2311885">
        <ele>181</ele>
        <time>2022-06-09T09:01:46Z</time>
      </trkpt>
      <trkpt lat="47.556183" lon="2.231205">
        <ele>181</ele>
        <time>2022-06-09T09:01:47Z</time>
      </trkpt>
      <trkpt lat="47.556183" lon="2.2312193">
        <ele>181</ele>
        <time>2022-06-09T09:01:48Z</time>
      </trkpt>
      <trkpt lat="47.556183" lon="2.231235">
        <ele>181</ele>
        <time>2022-06-09T09:01:49Z</time>
      </trkpt>
      <trkpt lat="47.556187" lon="2.23125">
        <ele>181</ele>
        <time>2022-06-09T09:01:50Z</time>
      </trkpt>
      <trkpt lat="47.556187" lon="2.231269">
        <ele>181</ele>
        <time>2022-06-09T09:01:51Z</time>
      </trkpt>
      <trkpt lat="47.556183" lon="2.2312846">
        <ele>181</ele>
        <time>2022-06-09T09:01:52Z</time>
      </trkpt>
      <trkpt lat="47.556183" lon="2.2312973">
        <ele>181</ele>
        <time>2022-06-09T09:01:53Z</time>
      </trkpt>
      <trkpt lat="47.55619" lon="2.23131">
        <ele>181</ele>
        <time>2022-06-09T09:01:54Z</time>
      </trkpt>
      <trkpt lat="47.55619" lon="2.2313232">
        <ele>181</ele>
        <time>2022-06-09T09:01:55Z</time>
      </trkpt>
      <trkpt lat="47.5562" lon="2.2313383">
        <ele>181</ele>
        <time>2022-06-09T09:01:56Z</time>
      </trkpt>
      <trkpt lat="47.5562" lon="2.2313514">
        <ele>181</ele>
        <time>2022-06-09T09:01:57Z</time>
      </trkpt>
      <trkpt lat="47.5562" lon="2.231362">
        <ele>181</ele>
        <time>2022-06-09T09:01:58Z</time>
      </trkpt>
      <trkpt lat="47.556202" lon="2.2313762">
        <ele>181</ele>
        <time>2022-06-09T09:01:59Z</time>
      </trkpt>
      <trkpt lat="47.556206" lon="2.231391">
        <ele>181</ele>
        <time>2022-06-09T09:02:00Z</time>
      </trkpt>
      <trkpt lat="47.55621" lon="2.2314153">
        <ele>181</ele>
        <time>2022-06-09T09:02:01Z</time>
      </trkpt>
      <trkpt lat="47.556217" lon="2.2314382">
        <ele>181</ele>
        <time>2022-06-09T09:02:02Z</time>
      </trkpt>
      <trkpt lat="47.55622" lon="2.23146">
        <ele>181</ele>
        <time>2022-06-09T09:02:03Z</time>
      </trkpt>
      <trkpt lat="47.55622" lon="2.2314808">
        <ele>181</ele>
        <time>2022-06-09T09:02:04Z</time>
      </trkpt>
      <trkpt lat="47.556225" lon="2.2315013">
        <ele>181</ele>
        <time>2022-06-09T09:02:05Z</time>
      </trkpt>
      <trkpt lat="47.55623" lon="2.2315216">
        <ele>181</ele>
        <time>2022-06-09T09:02:06Z</time>
      </trkpt>
      <trkpt lat="47.55623" lon="2.231544">
        <ele>181</ele>
        <time>2022-06-09T09:02:07Z</time>
      </trkpt>
      <trkpt lat="47.556232" lon="2.231561">
        <ele>181</ele>
        <time>2022-06-09T09:02:08Z</time>
      </trkpt>
      <trkpt lat="47.556232" lon="2.2315767">
        <ele>181</ele>
        <time>2022-06-09T09:02:09Z</time>
      </trkpt>
      <trkpt lat="47.556232" lon="2.231593">
        <ele>181</ele>
        <time>2022-06-09T09:02:10Z</time>
      </trkpt>
      <trkpt lat="47.55623" lon="2.2316122">
        <ele>181</ele>
        <time>2022-06-09T09:02:11Z</time>
      </trkpt>
      <trkpt lat="47.556232" lon="2.2316287">
        <ele>181</ele>
        <time>2022-06-09T09:02:12Z</time>
      </trkpt>
      <trkpt lat="47.556232" lon="2.2316408">
        <ele>181</ele>
        <time>2022-06-09T09:02:13Z</time>
      </trkpt>
      <trkpt lat="47.556232" lon="2.2316513">
        <ele>181</ele>
        <time>2022-06-09T09:02:14Z</time>
      </trkpt>
      <trkpt lat="47.556236" lon="2.2316642">
        <ele>181</ele>
        <time>2022-06-09T09:02:15Z</time>
      </trkpt>
      <trkpt lat="47.55624" lon="2.23168">
        <ele>182</ele>
        <time>2022-06-09T09:02:16Z</time>
      </trkpt>
      <trkpt lat="47.556244" lon="2.2316954">
        <ele>182</ele>
        <time>2022-06-09T09:02:17Z</time>
      </trkpt>
      <trkpt lat="47.556244" lon="2.2317114">
        <ele>182</ele>
        <time>2022-06-09T09:02:18Z</time>
      </trkpt>
      <trkpt lat="47.556244" lon="2.2317276">
        <ele>182</ele>
        <time>2022-06-09T09:02:19Z</time>
      </trkpt>
      <trkpt lat="47.556248" lon="2.231748">
        <ele>182</ele>
        <time>2022-06-09T09:02:20Z</time>
      </trkpt>
      <trkpt lat="47.55625" lon="2.2317698">
        <ele>182</ele>
        <time>2022-06-09T09:02:21Z</time>
      </trkpt>
      <trkpt lat="47.55625" lon="2.2317955">
        <ele>182</ele>
        <time>2022-06-09T09:02:22Z</time>
      </trkpt>
      <trkpt lat="47.55626" lon="2.2318187">
        <ele>182</ele>
        <time>2022-06-09T09:02:23Z</time>
      </trkpt>
      <trkpt lat="47.556263" lon="2.2318392">
        <ele>182</ele>
        <time>2022-06-09T09:02:24Z</time>
      </trkpt>
      <trkpt lat="47.55626" lon="2.2318542">
        <ele>182</ele>
        <time>2022-06-09T09:02:25Z</time>
      </trkpt>
      <trkpt lat="47.556267" lon="2.2318738">
        <ele>182</ele>
        <time>2022-06-09T09:02:26Z</time>
      </trkpt>
      <trkpt lat="47.556267" lon="2.231891">
        <ele>182</ele>
        <time>2022-06-09T09:02:27Z</time>
      </trkpt>
      <trkpt lat="47.55627" lon="2.231908">
        <ele>182</ele>
        <time>2022-06-09T09:02:28Z</time>
      </trkpt>
      <trkpt lat="47.556274" lon="2.2319236">
        <ele>182</ele>
        <time>2022-06-09T09:02:29Z</time>
      </trkpt>
      <trkpt lat="47.556274" lon="2.2319384">
        <ele>182</ele>
        <time>2022-06-09T09:02:30Z</time>
      </trkpt>
      <trkpt lat="47.55627" lon="2.2319553">
        <ele>181</ele>
        <time>2022-06-09T09:02:31Z</time>
      </trkpt>
      <trkpt lat="47.556274" lon="2.2319791">
        <ele>182</ele>
        <time>2022-06-09T09:02:32Z</time>
      </trkpt>
      <trkpt lat="47.55628" lon="2.2319953">
        <ele>182</ele>
        <time>2022-06-09T09:02:33Z</time>
      </trkpt>
      <trkpt lat="47.55628" lon="2.2320137">
        <ele>182</ele>
        <time>2022-06-09T09:02:34Z</time>
      </trkpt>
      <trkpt lat="47.556282" lon="2.2320285">
        <ele>182</ele>
        <time>2022-06-09T09:02:35Z</time>
      </trkpt>
      <trkpt lat="47.55629" lon="2.2320483">
        <ele>182</ele>
        <time>2022-06-09T09:02:36Z</time>
      </trkpt>
      <trkpt lat="47.556297" lon="2.2320678">
        <ele>182</ele>
        <time>2022-06-09T09:02:37Z</time>
      </trkpt>
      <trkpt lat="47.556305" lon="2.2320852">
        <ele>182</ele>
        <time>2022-06-09T09:02:38Z</time>
      </trkpt>
      <trkpt lat="47.556305" lon="2.2321022">
        <ele>182</ele>
        <time>2022-06-09T09:02:39Z</time>
      </trkpt>
      <trkpt lat="47.55631" lon="2.232122">
        <ele>182</ele>
        <time>2022-06-09T09:02:40Z</time>
      </trkpt>
      <trkpt lat="47.556313" lon="2.2321424">
        <ele>181</ele>
        <time>2022-06-09T09:02:41Z</time>
      </trkpt>
      <trkpt lat="47.556316" lon="2.2321668">
        <ele>182</ele>
        <time>2022-06-09T09:02:42Z</time>
      </trkpt>
      <trkpt lat="47.55632" lon="2.2321846">
        <ele>181</ele>
        <time>2022-06-09T09:02:43Z</time>
      </trkpt>
      <trkpt lat="47.556324" lon="2.2322068">
        <ele>182</ele>
        <time>2022-06-09T09:02:44Z</time>
      </trkpt>
      <trkpt lat="47.55632" lon="2.2322261">
        <ele>182</ele>
        <time>2022-06-09T09:02:45Z</time>
      </trkpt>
      <trkpt lat="47.55632" lon="2.232245">
        <ele>182</ele>
        <time>2022-06-09T09:02:46Z</time>
      </trkpt>
      <trkpt lat="47.55632" lon="2.2322583">
        <ele>182</ele>
        <time>2022-06-09T09:02:47Z</time>
      </trkpt>
      <trkpt lat="47.556316" lon="2.232272">
        <ele>182</ele>
        <time>2022-06-09T09:02:48Z</time>
      </trkpt>
      <trkpt lat="47.556316" lon="2.2322881">
        <ele>182</ele>
        <time>2022-06-09T09:02:49Z</time>
      </trkpt>
      <trkpt lat="47.556316" lon="2.2323024">
        <ele>182</ele>
        <time>2022-06-09T09:02:50Z</time>
      </trkpt>
      <trkpt lat="47.556316" lon="2.2323127">
        <ele>182</ele>
        <time>2022-06-09T09:02:51Z</time>
      </trkpt>
      <trkpt lat="47.55632" lon="2.2323327">
        <ele>182</ele>
        <time>2022-06-09T09:02:52Z</time>
      </trkpt>
      <trkpt lat="47.556324" lon="2.2323494">
        <ele>182</ele>
        <time>2022-06-09T09:02:53Z</time>
      </trkpt>
      <trkpt lat="47.556328" lon="2.2323656">
        <ele>182</ele>
        <time>2022-06-09T09:02:54Z</time>
      </trkpt>
      <trkpt lat="47.55633" lon="2.232382">
        <ele>182</ele>
        <time>2022-06-09T09:02:55Z</time>
      </trkpt>
      <trkpt lat="47.556335" lon="2.2323961">
        <ele>182</ele>
        <time>2022-06-09T09:02:56Z</time>
      </trkpt>
      <trkpt lat="47.55634" lon="2.232413">
        <ele>183</ele>
        <time>2022-06-09T09:02:57Z</time>
      </trkpt>
      <trkpt lat="47.55634" lon="2.232439">
        <ele>183</ele>
        <time>2022-06-09T09:02:58Z</time>
      </trkpt>
      <trkpt lat="47.55634" lon="2.2324562">
        <ele>183</ele>
        <time>2022-06-09T09:02:59Z</time>
      </trkpt>
      <trkpt lat="47.55634" lon="2.2324743">
        <ele>184</ele>
        <time>2022-06-09T09:03:00Z</time>
      </trkpt>
      <trkpt lat="47.556343" lon="2.2324917">
        <ele>183</ele>
        <time>2022-06-09T09:03:01Z</time>
      </trkpt>
      <trkpt lat="47.556347" lon="2.2325068">
        <ele>183</ele>
        <time>2022-06-09T09:03:02Z</time>
      </trkpt>
      <trkpt lat="47.55635" lon="2.2325249">
        <ele>183</ele>
        <time>2022-06-09T09:03:03Z</time>
      </trkpt>
      <trkpt lat="47.55635" lon="2.232544">
        <ele>183</ele>
        <time>2022-06-09T09:03:04Z</time>
      </trkpt>
      <trkpt lat="47.556355" lon="2.2325585">
        <ele>183</ele>
        <time>2022-06-09T09:03:05Z</time>
      </trkpt>
      <trkpt lat="47.556355" lon="2.232577">
        <ele>182</ele>
        <time>2022-06-09T09:03:06Z</time>
      </trkpt>
      <trkpt lat="47.556355" lon="2.2325914">
        <ele>182</ele>
        <time>2022-06-09T09:03:07Z</time>
      </trkpt>
      <trkpt lat="47.55635" lon="2.2326057">
        <ele>182</ele>
        <time>2022-06-09T09:03:08Z</time>
      </trkpt>
      <trkpt lat="47.556343" lon="2.2326236">
        <ele>182</ele>
        <time>2022-06-09T09:03:09Z</time>
      </trkpt>
      <trkpt lat="47.55634" lon="2.2326386">
        <ele>183</ele>
        <time>2022-06-09T09:03:10Z</time>
      </trkpt>
      <trkpt lat="47.556335" lon="2.2326477">
        <ele>183</ele>
        <time>2022-06-09T09:03:11Z</time>
      </trkpt>
      <trkpt lat="47.55634" lon="2.2326584">
        <ele>183</ele>
        <time>2022-06-09T09:03:12Z</time>
      </trkpt>
      <trkpt lat="47.55634" lon="2.2326584">
        <ele>183</ele>
        <time>2022-06-09T09:03:13Z</time>
      </trkpt>
      <trkpt lat="47.55634" lon="2.2326584">
        <ele>183</ele>
        <time>2022-06-09T09:03:14Z</time>
      </trkpt>
      <trkpt lat="47.556343" lon="2.2326949">
        <ele>182</ele>
        <time>2022-06-09T09:03:15Z</time>
      </trkpt>
      <trkpt lat="47.556347" lon="2.232706">
        <ele>183</ele>
        <time>2022-06-09T09:03:16Z</time>
      </trkpt>
      <trkpt lat="47.556355" lon="2.2327218">
        <ele>183</ele>
        <time>2022-06-09T09:03:17Z</time>
      </trkpt>
      <trkpt lat="47.55636" lon="2.2327425">
        <ele>183</ele>
        <time>2022-06-09T09:03:18Z</time>
      </trkpt>
      <trkpt lat="47.556362" lon="2.2327619">
        <ele>183</ele>
        <time>2022-06-09T09:03:19Z</time>
      </trkpt>
      <trkpt lat="47.556366" lon="2.2327795">
        <ele>183</ele>
        <time>2022-06-09T09:03:20Z</time>
      </trkpt>
      <trkpt lat="47.55637" lon="2.2327993">
        <ele>182</ele>
        <time>2022-06-09T09:03:21Z</time>
      </trkpt>
      <trkpt lat="47.55637" lon="2.232818">
        <ele>181</ele>
        <time>2022-06-09T09:03:22Z</time>
      </trkpt>
      <trkpt lat="47.55637" lon="2.2328393">
        <ele>181</ele>
        <time>2022-06-09T09:03:23Z</time>
      </trkpt>
      <trkpt lat="47.55637" lon="2.2328591">
        <ele>182</ele>
        <time>2022-06-09T09:03:24Z</time>
      </trkpt>
      <trkpt lat="47.55637" lon="2.2328825">
        <ele>181</ele>
        <time>2022-06-09T09:03:25Z</time>
      </trkpt>
      <trkpt lat="47.556366" lon="2.232905">
        <ele>182</ele>
        <time>2022-06-09T09:03:26Z</time>
      </trkpt>
      <trkpt lat="47.556362" lon="2.2329218">
        <ele>182</ele>
        <time>2022-06-09T09:03:27Z</time>
      </trkpt>
      <trkpt lat="47.556366" lon="2.2329419">
        <ele>181</ele>
        <time>2022-06-09T09:03:28Z</time>
      </trkpt>
      <trkpt lat="47.556366" lon="2.2329628">
        <ele>182</ele>
        <time>2022-06-09T09:03:29Z</time>
      </trkpt>
      <trkpt lat="47.55637" lon="2.232986">
        <ele>182</ele>
        <time>2022-06-09T09:03:30Z</time>
      </trkpt>
      <trkpt lat="47.556366" lon="2.2330062">
        <ele>182</ele>
        <time>2022-06-09T09:03:31Z</time>
      </trkpt>
      <trkpt lat="47.556366" lon="2.2330258">
        <ele>182</ele>
        <time>2022-06-09T09:03:32Z</time>
      </trkpt>
      <trkpt lat="47.556366" lon="2.2330446">
        <ele>181</ele>
        <time>2022-06-09T09:03:33Z</time>
      </trkpt>
      <trkpt lat="47.556366" lon="2.2330627">
        <ele>181</ele>
        <time>2022-06-09T09:03:34Z</time>
      </trkpt>
      <trkpt lat="47.556362" lon="2.233086">
        <ele>182</ele>
        <time>2022-06-09T09:03:35Z</time>
      </trkpt>
      <trkpt lat="47.556362" lon="2.2331078">
        <ele>181</ele>
        <time>2022-06-09T09:03:36Z</time>
      </trkpt>
      <trkpt lat="47.556366" lon="2.2331324">
        <ele>181</ele>
        <time>2022-06-09T09:03:37Z</time>
      </trkpt>
      <trkpt lat="47.556366" lon="2.2331517">
        <ele>180</ele>
        <time>2022-06-09T09:03:38Z</time>
      </trkpt>
      <trkpt lat="47.556362" lon="2.2331736">
        <ele>180</ele>
        <time>2022-06-09T09:03:39Z</time>
      </trkpt>
      <trkpt lat="47.556362" lon="2.2331932">
        <ele>180</ele>
        <time>2022-06-09T09:03:40Z</time>
      </trkpt>
      <trkpt lat="47.55636" lon="2.2332106">
        <ele>180</ele>
        <time>2022-06-09T09:03:41Z</time>
      </trkpt>
      <trkpt lat="47.556362" lon="2.2332232">
        <ele>181</ele>
        <time>2022-06-09T09:03:42Z</time>
      </trkpt>
      <trkpt lat="47.556362" lon="2.233235">
        <ele>181</ele>
        <time>2022-06-09T09:03:43Z</time>
      </trkpt>
      <trkpt lat="47.556362" lon="2.2332468">
        <ele>181</ele>
        <time>2022-06-09T09:03:44Z</time>
      </trkpt>
      <trkpt lat="47.556362" lon="2.2332604">
        <ele>181</ele>
        <time>2022-06-09T09:03:45Z</time>
      </trkpt>
      <trkpt lat="47.556362" lon="2.2332776">
        <ele>182</ele>
        <time>2022-06-09T09:03:46Z</time>
      </trkpt>
      <trkpt lat="47.55636" lon="2.233296">
        <ele>182</ele>
        <time>2022-06-09T09:03:47Z</time>
      </trkpt>
      <trkpt lat="47.556355" lon="2.2333188">
        <ele>182</ele>
        <time>2022-06-09T09:03:48Z</time>
      </trkpt>
      <trkpt lat="47.55636" lon="2.2333403">
        <ele>182</ele>
        <time>2022-06-09T09:03:49Z</time>
      </trkpt>
      <trkpt lat="47.556355" lon="2.2333593">
        <ele>182</ele>
        <time>2022-06-09T09:03:50Z</time>
      </trkpt>
      <trkpt lat="47.55635" lon="2.2333796">
        <ele>182</ele>
        <time>2022-06-09T09:03:51Z</time>
      </trkpt>
      <trkpt lat="47.556347" lon="2.2333968">
        <ele>182</ele>
        <time>2022-06-09T09:03:52Z</time>
      </trkpt>
      <trkpt lat="47.556347" lon="2.2334123">
        <ele>183</ele>
        <time>2022-06-09T09:03:53Z</time>
      </trkpt>
      <trkpt lat="47.556343" lon="2.2334383">
        <ele>183</ele>
        <time>2022-06-09T09:03:54Z</time>
      </trkpt>
      <trkpt lat="47.556343" lon="2.233456">
        <ele>183</ele>
        <time>2022-06-09T09:03:55Z</time>
      </trkpt>
      <trkpt lat="47.556343" lon="2.233474">
        <ele>183</ele>
        <time>2022-06-09T09:03:56Z</time>
      </trkpt>
      <trkpt lat="47.556343" lon="2.2334917">
        <ele>183</ele>
        <time>2022-06-09T09:03:57Z</time>
      </trkpt>
      <trkpt lat="47.556347" lon="2.2335021">
        <ele>183</ele>
        <time>2022-06-09T09:03:58Z</time>
      </trkpt>
      <trkpt lat="47.556347" lon="2.23352">
        <ele>183</ele>
        <time>2022-06-09T09:03:59Z</time>
      </trkpt>
      <trkpt lat="47.55635" lon="2.2335374">
        <ele>183</ele>
        <time>2022-06-09T09:04:00Z</time>
      </trkpt>
      <trkpt lat="47.55635" lon="2.2335584">
        <ele>183</ele>
        <time>2022-06-09T09:04:01Z</time>
      </trkpt>
      <trkpt lat="47.55635" lon="2.2335784">
        <ele>183</ele>
        <time>2022-06-09T09:04:02Z</time>
      </trkpt>
      <trkpt lat="47.556347" lon="2.2335973">
        <ele>183</ele>
        <time>2022-06-09T09:04:03Z</time>
      </trkpt>
      <trkpt lat="47.556347" lon="2.2336147">
        <ele>183</ele>
        <time>2022-06-09T09:04:04Z</time>
      </trkpt>
      <trkpt lat="47.55635" lon="2.2336311">
        <ele>183</ele>
        <time>2022-06-09T09:04:05Z</time>
      </trkpt>
      <trkpt lat="47.556355" lon="2.233648">
        <ele>183</ele>
        <time>2022-06-09T09:04:06Z</time>
      </trkpt>
      <trkpt lat="47.556355" lon="2.2336636">
        <ele>182</ele>
        <time>2022-06-09T09:04:07Z</time>
      </trkpt>
      <trkpt lat="47.55635" lon="2.2336786">
        <ele>182</ele>
        <time>2022-06-09T09:04:08Z</time>
      </trkpt>
      <trkpt lat="47.55635" lon="2.2336915">
        <ele>182</ele>
        <time>2022-06-09T09:04:09Z</time>
      </trkpt>
      <trkpt lat="47.556347" lon="2.233706">
        <ele>183</ele>
        <time>2022-06-09T09:04:10Z</time>
      </trkpt>
      <trkpt lat="47.556343" lon="2.2337234">
        <ele>183</ele>
        <time>2022-06-09T09:04:11Z</time>
      </trkpt>
      <trkpt lat="47.55634" lon="2.233739">
        <ele>182</ele>
        <time>2022-06-09T09:04:12Z</time>
      </trkpt>
      <trkpt lat="47.556335" lon="2.2337568">
        <ele>182</ele>
        <time>2022-06-09T09:04:13Z</time>
      </trkpt>
      <trkpt lat="47.556335" lon="2.2337701">
        <ele>182</ele>
        <time>2022-06-09T09:04:14Z</time>
      </trkpt>
      <trkpt lat="47.55633" lon="2.2337923">
        <ele>182</ele>
        <time>2022-06-09T09:04:15Z</time>
      </trkpt>
      <trkpt lat="47.55633" lon="2.233809">
        <ele>182</ele>
        <time>2022-06-09T09:04:16Z</time>
      </trkpt>
      <trkpt lat="47.556335" lon="2.2338302">
        <ele>182</ele>
        <time>2022-06-09T09:04:17Z</time>
      </trkpt>
      <trkpt lat="47.556335" lon="2.2338474">
        <ele>182</ele>
        <time>2022-06-09T09:04:18Z</time>
      </trkpt>
      <trkpt lat="47.55634" lon="2.2338667">
        <ele>182</ele>
        <time>2022-06-09T09:04:19Z</time>
      </trkpt>
      <trkpt lat="47.55634" lon="2.233888">
        <ele>182</ele>
        <time>2022-06-09T09:04:20Z</time>
      </trkpt>
      <trkpt lat="47.55634" lon="2.2339065">
        <ele>182</ele>
        <time>2022-06-09T09:04:21Z</time>
      </trkpt>
      <trkpt lat="47.55634" lon="2.2339232">
        <ele>182</ele>
        <time>2022-06-09T09:04:22Z</time>
      </trkpt>
      <trkpt lat="47.55634" lon="2.2339404">
        <ele>183</ele>
        <time>2022-06-09T09:04:23Z</time>
      </trkpt>
      <trkpt lat="47.556343" lon="2.2339613">
        <ele>183</ele>
        <time>2022-06-09T09:04:24Z</time>
      </trkpt>
      <trkpt lat="47.556343" lon="2.2339804">
        <ele>183</ele>
        <time>2022-06-09T09:04:25Z</time>
      </trkpt>
      <trkpt lat="47.556343" lon="2.2339938">
        <ele>183</ele>
        <time>2022-06-09T09:04:26Z</time>
      </trkpt>
      <trkpt lat="47.556343" lon="2.234017">
        <ele>183</ele>
        <time>2022-06-09T09:04:27Z</time>
      </trkpt>
      <trkpt lat="47.55634" lon="2.2340384">
        <ele>183</ele>
        <time>2022-06-09T09:04:28Z</time>
      </trkpt>
      <trkpt lat="47.556335" lon="2.2340586">
        <ele>183</ele>
        <time>2022-06-09T09:04:29Z</time>
      </trkpt>
      <trkpt lat="47.55633" lon="2.234074">
        <ele>183</ele>
        <time>2022-06-09T09:04:30Z</time>
      </trkpt>
      <trkpt lat="47.556328" lon="2.2340846">
        <ele>183</ele>
        <time>2022-06-09T09:04:31Z</time>
      </trkpt>
      <trkpt lat="47.55632" lon="2.2341022">
        <ele>183</ele>
        <time>2022-06-09T09:04:32Z</time>
      </trkpt>
      <trkpt lat="47.556316" lon="2.2341242">
        <ele>183</ele>
        <time>2022-06-09T09:04:33Z</time>
      </trkpt>
      <trkpt lat="47.55631" lon="2.2341468">
        <ele>183</ele>
        <time>2022-06-09T09:04:34Z</time>
      </trkpt>
      <trkpt lat="47.5563" lon="2.2341673">
        <ele>183</ele>
        <time>2022-06-09T09:04:35Z</time>
      </trkpt>
      <trkpt lat="47.556297" lon="2.2341826">
        <ele>183</ele>
        <time>2022-06-09T09:04:36Z</time>
      </trkpt>
      <trkpt lat="47.556297" lon="2.2342043">
        <ele>184</ele>
        <time>2022-06-09T09:04:37Z</time>
      </trkpt>
      <trkpt lat="47.556293" lon="2.2342231">
        <ele>184</ele>
        <time>2022-06-09T09:04:38Z</time>
      </trkpt>
      <trkpt lat="47.556286" lon="2.2342443">
        <ele>184</ele>
        <time>2022-06-09T09:04:39Z</time>
      </trkpt>
      <trkpt lat="47.556282" lon="2.23426">
        <ele>185</ele>
        <time>2022-06-09T09:04:40Z</time>
      </trkpt>
      <trkpt lat="47.556282" lon="2.2342725">
        <ele>185</ele>
        <time>2022-06-09T09:04:41Z</time>
      </trkpt>
      <trkpt lat="47.556282" lon="2.2342877">
        <ele>185</ele>
        <time>2022-06-09T09:04:42Z</time>
      </trkpt>
      <trkpt lat="47.556282" lon="2.234304">
        <ele>185</ele>
        <time>2022-06-09T09:04:43Z</time>
      </trkpt>
      <trkpt lat="47.55628" lon="2.234318">
        <ele>185</ele>
        <time>2022-06-09T09:04:44Z</time>
      </trkpt>
      <trkpt lat="47.556282" lon="2.2343311">
        <ele>185</ele>
        <time>2022-06-09T09:04:45Z</time>
      </trkpt>
      <trkpt lat="47.55629" lon="2.2343504">
        <ele>185</ele>
        <time>2022-06-09T09:04:46Z</time>
      </trkpt>
      <trkpt lat="47.556293" lon="2.2343674">
        <ele>184</ele>
        <time>2022-06-09T09:04:47Z</time>
      </trkpt>
      <trkpt lat="47.556297" lon="2.2343879">
        <ele>184</ele>
        <time>2022-06-09T09:04:48Z</time>
      </trkpt>
      <trkpt lat="47.556297" lon="2.2344115">
        <ele>183</ele>
        <time>2022-06-09T09:04:49Z</time>
      </trkpt>
      <trkpt lat="47.556297" lon="2.2344308">
        <ele>183</ele>
        <time>2022-06-09T09:04:50Z</time>
      </trkpt>
      <trkpt lat="47.556297" lon="2.2344472">
        <ele>183</ele>
        <time>2022-06-09T09:04:51Z</time>
      </trkpt>
      <trkpt lat="47.556297" lon="2.234463">
        <ele>183</ele>
        <time>2022-06-09T09:04:52Z</time>
      </trkpt>
      <trkpt lat="47.556297" lon="2.234475">
        <ele>182</ele>
        <time>2022-06-09T09:04:53Z</time>
      </trkpt>
      <trkpt lat="47.556293" lon="2.2344842">
        <ele>182</ele>
        <time>2022-06-09T09:04:54Z</time>
      </trkpt>
      <trkpt lat="47.556293" lon="2.234504">
        <ele>181</ele>
        <time>2022-06-09T09:04:55Z</time>
      </trkpt>
      <trkpt lat="47.556293" lon="2.2345197">
        <ele>181</ele>
        <time>2022-06-09T09:04:56Z</time>
      </trkpt>
      <trkpt lat="47.556297" lon="2.2345345">
        <ele>181</ele>
        <time>2022-06-09T09:04:57Z</time>
      </trkpt>
      <trkpt lat="47.556297" lon="2.2345498">
        <ele>181</ele>
        <time>2022-06-09T09:04:58Z</time>
      </trkpt>
      <trkpt lat="47.556297" lon="2.2345657">
        <ele>180</ele>
        <time>2022-06-09T09:04:59Z</time>
      </trkpt>
      <trkpt lat="47.556297" lon="2.2345831">
        <ele>180</ele>
        <time>2022-06-09T09:05:00Z</time>
      </trkpt>
      <trkpt lat="47.5563" lon="2.2346032">
        <ele>180</ele>
        <time>2022-06-09T09:05:01Z</time>
      </trkpt>
      <trkpt lat="47.556297" lon="2.234619">
        <ele>180</ele>
        <time>2022-06-09T09:05:02Z</time>
      </trkpt>
      <trkpt lat="47.556297" lon="2.2346356">
        <ele>180</ele>
        <time>2022-06-09T09:05:03Z</time>
      </trkpt>
      <trkpt lat="47.556297" lon="2.2346597">
        <ele>181</ele>
        <time>2022-06-09T09:05:04Z</time>
      </trkpt>
      <trkpt lat="47.5563" lon="2.2346761">
        <ele>181</ele>
        <time>2022-06-09T09:05:05Z</time>
      </trkpt>
      <trkpt lat="47.5563" lon="2.2346947">
        <ele>181</ele>
        <time>2022-06-09T09:05:06Z</time>
      </trkpt>
      <trkpt lat="47.556297" lon="2.2347128">
        <ele>181</ele>
        <time>2022-06-09T09:05:07Z</time>
      </trkpt>
      <trkpt lat="47.5563" lon="2.234735">
        <ele>181</ele>
        <time>2022-06-09T09:05:08Z</time>
      </trkpt>
      <trkpt lat="47.5563" lon="2.2347562">
        <ele>181</ele>
        <time>2022-06-09T09:05:09Z</time>
      </trkpt>
      <trkpt lat="47.556305" lon="2.234777">
        <ele>182</ele>
        <time>2022-06-09T09:05:10Z</time>
      </trkpt>
      <trkpt lat="47.556305" lon="2.2347968">
        <ele>182</ele>
        <time>2022-06-09T09:05:11Z</time>
      </trkpt>
      <trkpt lat="47.55631" lon="2.2348154">
        <ele>181</ele>
        <time>2022-06-09T09:05:12Z</time>
      </trkpt>
      <trkpt lat="47.556316" lon="2.2348323">
        <ele>181</ele>
        <time>2022-06-09T09:05:13Z</time>
      </trkpt>
      <trkpt lat="47.556316" lon="2.234851">
        <ele>181</ele>
        <time>2022-06-09T09:05:14Z</time>
      </trkpt>
      <trkpt lat="47.556313" lon="2.2348714">
        <ele>181</ele>
        <time>2022-06-09T09:05:15Z</time>
      </trkpt>
      <trkpt lat="47.556313" lon="2.234887">
        <ele>181</ele>
        <time>2022-06-09T09:05:16Z</time>
      </trkpt>
      <trkpt lat="47.556313" lon="2.2349029">
        <ele>182</ele>
        <time>2022-06-09T09:05:17Z</time>
      </trkpt>
      <trkpt lat="47.556313" lon="2.234921">
        <ele>182</ele>
        <time>2022-06-09T09:05:18Z</time>
      </trkpt>
      <trkpt lat="47.556313" lon="2.2349381">
        <ele>182</ele>
        <time>2022-06-09T09:05:19Z</time>
      </trkpt>
      <trkpt lat="47.556313" lon="2.2349565">
        <ele>183</ele>
        <time>2022-06-09T09:05:20Z</time>
      </trkpt>
      <trkpt lat="47.556316" lon="2.2349772">
        <ele>182</ele>
        <time>2022-06-09T09:05:21Z</time>
      </trkpt>
      <trkpt lat="47.556313" lon="2.2349977">
        <ele>183</ele>
        <time>2022-06-09T09:05:22Z</time>
      </trkpt>
      <trkpt lat="47.55631" lon="2.2350144">
        <ele>183</ele>
        <time>2022-06-09T09:05:23Z</time>
      </trkpt>
      <trkpt lat="47.55631" lon="2.2350342">
        <ele>182</ele>
        <time>2022-06-09T09:05:24Z</time>
      </trkpt>
      <trkpt lat="47.55631" lon="2.2350585">
        <ele>182</ele>
        <time>2022-06-09T09:05:25Z</time>
      </trkpt>
      <trkpt lat="47.556313" lon="2.2350771">
        <ele>182</ele>
        <time>2022-06-09T09:05:26Z</time>
      </trkpt>
      <trkpt lat="47.55632" lon="2.2350905">
        <ele>182</ele>
        <time>2022-06-09T09:05:27Z</time>
      </trkpt>
      <trkpt lat="47.55632" lon="2.2351089">
        <ele>182</ele>
        <time>2022-06-09T09:05:28Z</time>
      </trkpt>
      <trkpt lat="47.556324" lon="2.2351255">
        <ele>181</ele>
        <time>2022-06-09T09:05:29Z</time>
      </trkpt>
      <trkpt lat="47.55633" lon="2.2351434">
        <ele>181</ele>
        <time>2022-06-09T09:05:30Z</time>
      </trkpt>
      <trkpt lat="47.55633" lon="2.2351658">
        <ele>181</ele>
        <time>2022-06-09T09:05:31Z</time>
      </trkpt>
      <trkpt lat="47.556335" lon="2.2351844">
        <ele>181</ele>
        <time>2022-06-09T09:05:32Z</time>
      </trkpt>
      <trkpt lat="47.556335" lon="2.2352047">
        <ele>181</ele>
        <time>2022-06-09T09:05:33Z</time>
      </trkpt>
      <trkpt lat="47.556335" lon="2.2352228">
        <ele>181</ele>
        <time>2022-06-09T09:05:34Z</time>
      </trkpt>
      <trkpt lat="47.556335" lon="2.2352426">
        <ele>182</ele>
        <time>2022-06-09T09:05:35Z</time>
      </trkpt>
      <trkpt lat="47.55633" lon="2.2352583">
        <ele>182</ele>
        <time>2022-06-09T09:05:36Z</time>
      </trkpt>
      <trkpt lat="47.556324" lon="2.2352767">
        <ele>182</ele>
        <time>2022-06-09T09:05:37Z</time>
      </trkpt>
      <trkpt lat="47.55632" lon="2.2352943">
        <ele>182</ele>
        <time>2022-06-09T09:05:38Z</time>
      </trkpt>
      <trkpt lat="47.556316" lon="2.2353115">
        <ele>182</ele>
        <time>2022-06-09T09:05:39Z</time>
      </trkpt>
      <trkpt lat="47.556316" lon="2.2353256">
        <ele>182</ele>
        <time>2022-06-09T09:05:40Z</time>
      </trkpt>
      <trkpt lat="47.556313" lon="2.2353346">
        <ele>183</ele>
        <time>2022-06-09T09:05:41Z</time>
      </trkpt>
      <trkpt lat="47.556313" lon="2.235348">
        <ele>183</ele>
        <time>2022-06-09T09:05:42Z</time>
      </trkpt>
      <trkpt lat="47.556313" lon="2.2353642">
        <ele>183</ele>
        <time>2022-06-09T09:05:43Z</time>
      </trkpt>
      <trkpt lat="47.556316" lon="2.2353833">
        <ele>184</ele>
        <time>2022-06-09T09:05:44Z</time>
      </trkpt>
      <trkpt lat="47.556316" lon="2.2354035">
        <ele>184</ele>
        <time>2022-06-09T09:05:45Z</time>
      </trkpt>
      <trkpt lat="47.556316" lon="2.2354226">
        <ele>184</ele>
        <time>2022-06-09T09:05:46Z</time>
      </trkpt>
      <trkpt lat="47.556316" lon="2.2354457">
        <ele>184</ele>
        <time>2022-06-09T09:05:47Z</time>
      </trkpt>
      <trkpt lat="47.55632" lon="2.2354655">
        <ele>184</ele>
        <time>2022-06-09T09:05:48Z</time>
      </trkpt>
      <trkpt lat="47.55632" lon="2.23548">
        <ele>184</ele>
        <time>2022-06-09T09:05:49Z</time>
      </trkpt>
      <trkpt lat="47.556324" lon="2.2354991">
        <ele>184</ele>
        <time>2022-06-09T09:05:50Z</time>
      </trkpt>
      <trkpt lat="47.556324" lon="2.2355173">
        <ele>184</ele>
        <time>2022-06-09T09:05:51Z</time>
      </trkpt>
      <trkpt lat="47.556328" lon="2.2355351">
        <ele>184</ele>
        <time>2022-06-09T09:05:52Z</time>
      </trkpt>
      <trkpt lat="47.55633" lon="2.2355504">
        <ele>184</ele>
        <time>2022-06-09T09:05:53Z</time>
      </trkpt>
      <trkpt lat="47.556335" lon="2.235568">
        <ele>184</ele>
        <time>2022-06-09T09:05:54Z</time>
      </trkpt>
      <trkpt lat="47.55634" lon="2.2355838">
        <ele>184</ele>
        <time>2022-06-09T09:05:55Z</time>
      </trkpt>
      <trkpt lat="47.55634" lon="2.2355988">
        <ele>184</ele>
        <time>2022-06-09T09:05:56Z</time>
      </trkpt>
      <trkpt lat="47.55634" lon="2.2356124">
        <ele>184</ele>
        <time>2022-06-09T09:05:57Z</time>
      </trkpt>
      <trkpt lat="47.55634" lon="2.2356284">
        <ele>184</ele>
        <time>2022-06-09T09:05:58Z</time>
      </trkpt>
      <trkpt lat="47.556343" lon="2.2356465">
        <ele>184</ele>
        <time>2022-06-09T09:05:59Z</time>
      </trkpt>
      <trkpt lat="47.556347" lon="2.2356622">
        <ele>184</ele>
        <time>2022-06-09T09:06:00Z</time>
      </trkpt>
      <trkpt lat="47.556355" lon="2.2356822">
        <ele>184</ele>
        <time>2022-06-09T09:06:01Z</time>
      </trkpt>
      <trkpt lat="47.55636" lon="2.2357032">
        <ele>184</ele>
        <time>2022-06-09T09:06:02Z</time>
      </trkpt>
      <trkpt lat="47.55636" lon="2.2357159">
        <ele>184</ele>
        <time>2022-06-09T09:06:03Z</time>
      </trkpt>
      <trkpt lat="47.55636" lon="2.235728">
        <ele>184</ele>
        <time>2022-06-09T09:06:04Z</time>
      </trkpt>
      <trkpt lat="47.55636" lon="2.2357376">
        <ele>183</ele>
        <time>2022-06-09T09:06:05Z</time>
      </trkpt>
      <trkpt lat="47.55636" lon="2.2357533">
        <ele>183</ele>
        <time>2022-06-09T09:06:06Z</time>
      </trkpt>
      <trkpt lat="47.556362" lon="2.2357724">
        <ele>183</ele>
        <time>2022-06-09T09:06:07Z</time>
      </trkpt>
      <trkpt lat="47.556366" lon="2.2357962">
        <ele>183</ele>
        <time>2022-06-09T09:06:08Z</time>
      </trkpt>
      <trkpt lat="47.556366" lon="2.235818">
        <ele>183</ele>
        <time>2022-06-09T09:06:09Z</time>
      </trkpt>
      <trkpt lat="47.556366" lon="2.2358341">
        <ele>183</ele>
        <time>2022-06-09T09:06:10Z</time>
      </trkpt>
      <trkpt lat="47.556374" lon="2.235852">
        <ele>183</ele>
        <time>2022-06-09T09:06:11Z</time>
      </trkpt>
      <trkpt lat="47.556374" lon="2.2358694">
        <ele>183</ele>
        <time>2022-06-09T09:06:12Z</time>
      </trkpt>
      <trkpt lat="47.556374" lon="2.2358897">
        <ele>182</ele>
        <time>2022-06-09T09:06:13Z</time>
      </trkpt>
      <trkpt lat="47.556374" lon="2.2359087">
        <ele>182</ele>
        <time>2022-06-09T09:06:14Z</time>
      </trkpt>
      <trkpt lat="47.556374" lon="2.2359252">
        <ele>182</ele>
        <time>2022-06-09T09:06:15Z</time>
      </trkpt>
      <trkpt lat="47.556374" lon="2.2359467">
        <ele>183</ele>
        <time>2022-06-09T09:06:16Z</time>
      </trkpt>
      <trkpt lat="47.55637" lon="2.2359686">
        <ele>183</ele>
        <time>2022-06-09T09:06:17Z</time>
      </trkpt>
      <trkpt lat="47.556362" lon="2.2359877">
        <ele>183</ele>
        <time>2022-06-09T09:06:18Z</time>
      </trkpt>
      <trkpt lat="47.55636" lon="2.2360058">
        <ele>183</ele>
        <time>2022-06-09T09:06:19Z</time>
      </trkpt>
      <trkpt lat="47.55636" lon="2.236021">
        <ele>183</ele>
        <time>2022-06-09T09:06:20Z</time>
      </trkpt>
      <trkpt lat="47.556355" lon="2.2360415">
        <ele>183</ele>
        <time>2022-06-09T09:06:21Z</time>
      </trkpt>
      <trkpt lat="47.556355" lon="2.2360654">
        <ele>183</ele>
        <time>2022-06-09T09:06:22Z</time>
      </trkpt>
      <trkpt lat="47.55636" lon="2.2360911">
        <ele>184</ele>
        <time>2022-06-09T09:06:23Z</time>
      </trkpt>
      <trkpt lat="47.55636" lon="2.2361114">
        <ele>184</ele>
        <time>2022-06-09T09:06:24Z</time>
      </trkpt>
      <trkpt lat="47.556355" lon="2.236136">
        <ele>185</ele>
        <time>2022-06-09T09:06:25Z</time>
      </trkpt>
      <trkpt lat="47.55636" lon="2.2361557">
        <ele>185</ele>
        <time>2022-06-09T09:06:26Z</time>
      </trkpt>
      <trkpt lat="47.556362" lon="2.2361763">
        <ele>186</ele>
        <time>2022-06-09T09:06:27Z</time>
      </trkpt>
      <trkpt lat="47.556362" lon="2.2362015">
        <ele>186</ele>
        <time>2022-06-09T09:06:28Z</time>
      </trkpt>
      <trkpt lat="47.556362" lon="2.236219">
        <ele>186</ele>
        <time>2022-06-09T09:06:29Z</time>
      </trkpt>
      <trkpt lat="47.556362" lon="2.2362385">
        <ele>186</ele>
        <time>2022-06-09T09:06:30Z</time>
      </trkpt>
      <trkpt lat="47.556362" lon="2.2362587">
        <ele>186</ele>
        <time>2022-06-09T09:06:31Z</time>
      </trkpt>
      <trkpt lat="47.556366" lon="2.2362769">
        <ele>185</ele>
        <time>2022-06-09T09:06:32Z</time>
      </trkpt>
      <trkpt lat="47.55637" lon="2.2362947">
        <ele>185</ele>
        <time>2022-06-09T09:06:33Z</time>
      </trkpt>
      <trkpt lat="47.556374" lon="2.2363179">
        <ele>184</ele>
        <time>2022-06-09T09:06:34Z</time>
      </trkpt>
      <trkpt lat="47.556377" lon="2.2363353">
        <ele>184</ele>
        <time>2022-06-09T09:06:35Z</time>
      </trkpt>
      <trkpt lat="47.556377" lon="2.2363513">
        <ele>184</ele>
        <time>2022-06-09T09:06:36Z</time>
      </trkpt>
      <trkpt lat="47.556385" lon="2.236365">
        <ele>184</ele>
        <time>2022-06-09T09:06:37Z</time>
      </trkpt>
      <trkpt lat="47.55639" lon="2.2363822">
        <ele>184</ele>
        <time>2022-06-09T09:06:38Z</time>
      </trkpt>
      <trkpt lat="47.55639" lon="2.2364013">
        <ele>184</ele>
        <time>2022-06-09T09:06:39Z</time>
      </trkpt>
      <trkpt lat="47.556393" lon="2.2364166">
        <ele>185</ele>
        <time>2022-06-09T09:06:40Z</time>
      </trkpt>
      <trkpt lat="47.556393" lon="2.2364295">
        <ele>185</ele>
        <time>2022-06-09T09:06:41Z</time>
      </trkpt>
      <trkpt lat="47.556393" lon="2.2364497">
        <ele>185</ele>
        <time>2022-06-09T09:06:42Z</time>
      </trkpt>
      <trkpt lat="47.556393" lon="2.2364738">
        <ele>185</ele>
        <time>2022-06-09T09:06:43Z</time>
      </trkpt>
      <trkpt lat="47.556393" lon="2.2364936">
        <ele>185</ele>
        <time>2022-06-09T09:06:44Z</time>
      </trkpt>
      <trkpt lat="47.556393" lon="2.2365108">
        <ele>185</ele>
        <time>2022-06-09T09:06:45Z</time>
      </trkpt>
      <trkpt lat="47.556393" lon="2.2365282">
        <ele>185</ele>
        <time>2022-06-09T09:06:46Z</time>
      </trkpt>
      <trkpt lat="47.556396" lon="2.2365394">
        <ele>185</ele>
        <time>2022-06-09T09:06:47Z</time>
      </trkpt>
      <trkpt lat="47.5564" lon="2.2365572">
        <ele>185</ele>
        <time>2022-06-09T09:06:48Z</time>
      </trkpt>
      <trkpt lat="47.556404" lon="2.2365746">
        <ele>185</ele>
        <time>2022-06-09T09:06:49Z</time>
      </trkpt>
      <trkpt lat="47.55641" lon="2.2365942">
        <ele>185</ele>
        <time>2022-06-09T09:06:50Z</time>
      </trkpt>
      <trkpt lat="47.556416" lon="2.236613">
        <ele>185</ele>
        <time>2022-06-09T09:06:51Z</time>
      </trkpt>
      <trkpt lat="47.55641" lon="2.236635">
        <ele>185</ele>
        <time>2022-06-09T09:06:52Z</time>
      </trkpt>
      <trkpt lat="47.556416" lon="2.2366517">
        <ele>186</ele>
        <time>2022-06-09T09:06:53Z</time>
      </trkpt>
      <trkpt lat="47.55642" lon="2.2366717">
        <ele>186</ele>
        <time>2022-06-09T09:06:54Z</time>
      </trkpt>
      <trkpt lat="47.55642" lon="2.2366917">
        <ele>186</ele>
        <time>2022-06-09T09:06:55Z</time>
      </trkpt>
      <trkpt lat="47.556423" lon="2.2367132">
        <ele>185</ele>
        <time>2022-06-09T09:06:56Z</time>
      </trkpt>
      <trkpt lat="47.55642" lon="2.2367392">
        <ele>185</ele>
        <time>2022-06-09T09:06:57Z</time>
      </trkpt>
      <trkpt lat="47.556423" lon="2.2367647">
        <ele>185</ele>
        <time>2022-06-09T09:06:58Z</time>
      </trkpt>
      <trkpt lat="47.55642" lon="2.2367864">
        <ele>185</ele>
        <time>2022-06-09T09:06:59Z</time>
      </trkpt>
      <trkpt lat="47.55642" lon="2.2368042">
        <ele>185</ele>
        <time>2022-06-09T09:07:00Z</time>
      </trkpt>
      <trkpt lat="47.556423" lon="2.2368138">
        <ele>185</ele>
        <time>2022-06-09T09:07:01Z</time>
      </trkpt>
      <trkpt lat="47.55643" lon="2.2368324">
        <ele>186</ele>
        <time>2022-06-09T09:07:02Z</time>
      </trkpt>
      <trkpt lat="47.55643" lon="2.2368512">
        <ele>186</ele>
        <time>2022-06-09T09:07:03Z</time>
      </trkpt>
      <trkpt lat="47.55643" lon="2.2368708">
        <ele>186</ele>
        <time>2022-06-09T09:07:04Z</time>
      </trkpt>
      <trkpt lat="47.556435" lon="2.2368867">
        <ele>185</ele>
        <time>2022-06-09T09:07:05Z</time>
      </trkpt>
      <trkpt lat="47.55644" lon="2.2369053">
        <ele>185</ele>
        <time>2022-06-09T09:07:06Z</time>
      </trkpt>
      <trkpt lat="47.556442" lon="2.236916">
        <ele>185</ele>
        <time>2022-06-09T09:07:07Z</time>
      </trkpt>
      <trkpt lat="47.556442" lon="2.2369378">
        <ele>185</ele>
        <time>2022-06-09T09:07:08Z</time>
      </trkpt>
      <trkpt lat="47.556446" lon="2.2369545">
        <ele>185</ele>
        <time>2022-06-09T09:07:09Z</time>
      </trkpt>
      <trkpt lat="47.55645" lon="2.236977">
        <ele>184</ele>
        <time>2022-06-09T09:07:10Z</time>
      </trkpt>
      <trkpt lat="47.55645" lon="2.2369998">
        <ele>185</ele>
        <time>2022-06-09T09:07:11Z</time>
      </trkpt>
      <trkpt lat="47.556454" lon="2.2370174">
        <ele>185</ele>
        <time>2022-06-09T09:07:12Z</time>
      </trkpt>
      <trkpt lat="47.556454" lon="2.2370338">
        <ele>186</ele>
        <time>2022-06-09T09:07:13Z</time>
      </trkpt>
      <trkpt lat="47.556458" lon="2.2370422">
        <ele>186</ele>
        <time>2022-06-09T09:07:14Z</time>
      </trkpt>
      <trkpt lat="47.556454" lon="2.2370617">
        <ele>186</ele>
        <time>2022-06-09T09:07:15Z</time>
      </trkpt>
      <trkpt lat="47.556458" lon="2.2370813">
        <ele>186</ele>
        <time>2022-06-09T09:07:16Z</time>
      </trkpt>
      <trkpt lat="47.55646" lon="2.2371004">
        <ele>186</ele>
        <time>2022-06-09T09:07:17Z</time>
      </trkpt>
      <trkpt lat="47.55646" lon="2.2371125">
        <ele>186</ele>
        <time>2022-06-09T09:07:18Z</time>
      </trkpt>
      <trkpt lat="47.55646" lon="2.237122">
        <ele>185</ele>
        <time>2022-06-09T09:07:19Z</time>
      </trkpt>
      <trkpt lat="47.55646" lon="2.23714">
        <ele>185</ele>
        <time>2022-06-09T09:07:20Z</time>
      </trkpt>
      <trkpt lat="47.556465" lon="2.237164">
        <ele>185</ele>
        <time>2022-06-09T09:07:21Z</time>
      </trkpt>
      <trkpt lat="47.556465" lon="2.2371802">
        <ele>185</ele>
        <time>2022-06-09T09:07:22Z</time>
      </trkpt>
      <trkpt lat="47.556465" lon="2.2371907">
        <ele>186</ele>
        <time>2022-06-09T09:07:24Z</time>
      </trkpt>
      <trkpt lat="47.556465" lon="2.237204">
        <ele>186</ele>
        <time>2022-06-09T09:07:25Z</time>
      </trkpt>
      <trkpt lat="47.55646" lon="2.237218">
        <ele>186</ele>
        <time>2022-06-09T09:07:26Z</time>
      </trkpt>
      <trkpt lat="47.55646" lon="2.2372394">
        <ele>186</ele>
        <time>2022-06-09T09:07:27Z</time>
      </trkpt>
      <trkpt lat="47.556465" lon="2.2372591">
        <ele>186</ele>
        <time>2022-06-09T09:07:28Z</time>
      </trkpt>
      <trkpt lat="47.556465" lon="2.237279">
        <ele>186</ele>
        <time>2022-06-09T09:07:29Z</time>
      </trkpt>
      <trkpt lat="47.556473" lon="2.2372956">
        <ele>186</ele>
        <time>2022-06-09T09:07:30Z</time>
      </trkpt>
      <trkpt lat="47.55648" lon="2.237315">
        <ele>185</ele>
        <time>2022-06-09T09:07:31Z</time>
      </trkpt>
      <trkpt lat="47.556484" lon="2.2373364">
        <ele>185</ele>
        <time>2022-06-09T09:07:32Z</time>
      </trkpt>
      <trkpt lat="47.556488" lon="2.2373557">
        <ele>185</ele>
        <time>2022-06-09T09:07:33Z</time>
      </trkpt>
      <trkpt lat="47.55649" lon="2.2373726">
        <ele>185</ele>
        <time>2022-06-09T09:07:34Z</time>
      </trkpt>
      <trkpt lat="47.5565" lon="2.2373962">
        <ele>185</ele>
        <time>2022-06-09T09:07:35Z</time>
      </trkpt>
      <trkpt lat="47.556503" lon="2.2374225">
        <ele>185</ele>
        <time>2022-06-09T09:07:36Z</time>
      </trkpt>
      <trkpt lat="47.55651" lon="2.237443">
        <ele>185</ele>
        <time>2022-06-09T09:07:37Z</time>
      </trkpt>
      <trkpt lat="47.556515" lon="2.2374554">
        <ele>185</ele>
        <time>2022-06-09T09:07:38Z</time>
      </trkpt>
      <trkpt lat="47.55652" lon="2.237469">
        <ele>185</ele>
        <time>2022-06-09T09:07:39Z</time>
      </trkpt>
      <trkpt lat="47.556522" lon="2.2374792">
        <ele>185</ele>
        <time>2022-06-09T09:07:40Z</time>
      </trkpt>
      <trkpt lat="47.55653" lon="2.2374907">
        <ele>185</ele>
        <time>2022-06-09T09:07:41Z</time>
      </trkpt>
      <trkpt lat="47.556538" lon="2.2375016">
        <ele>185</ele>
        <time>2022-06-09T09:07:42Z</time>
      </trkpt>
      <trkpt lat="47.556545" lon="2.2375183">
        <ele>185</ele>
        <time>2022-06-09T09:07:43Z</time>
      </trkpt>
      <trkpt lat="47.55655" lon="2.2375343">
        <ele>185</ele>
        <time>2022-06-09T09:07:44Z</time>
      </trkpt>
      <trkpt lat="47.556553" lon="2.2375455">
        <ele>185</ele>
        <time>2022-06-09T09:07:45Z</time>
      </trkpt>
      <trkpt lat="47.556557" lon="2.2375617">
        <ele>185</ele>
        <time>2022-06-09T09:07:46Z</time>
      </trkpt>
      <trkpt lat="47.556564" lon="2.2375817">
        <ele>185</ele>
        <time>2022-06-09T09:07:47Z</time>
      </trkpt>
      <trkpt lat="47.55657" lon="2.237604">
        <ele>185</ele>
        <time>2022-06-09T09:07:48Z</time>
      </trkpt>
      <trkpt lat="47.556572" lon="2.2376242">
        <ele>185</ele>
        <time>2022-06-09T09:07:49Z</time>
      </trkpt>
      <trkpt lat="47.556576" lon="2.2376494">
        <ele>185</ele>
        <time>2022-06-09T09:07:50Z</time>
      </trkpt>
      <trkpt lat="47.55658" lon="2.2376678">
        <ele>185</ele>
        <time>2022-06-09T09:07:51Z</time>
      </trkpt>
      <trkpt lat="47.556583" lon="2.2376852">
        <ele>186</ele>
        <time>2022-06-09T09:07:52Z</time>
      </trkpt>
      <trkpt lat="47.556583" lon="2.2377043">
        <ele>186</ele>
        <time>2022-06-09T09:07:53Z</time>
      </trkpt>
      <trkpt lat="47.556587" lon="2.2377214">
        <ele>187</ele>
        <time>2022-06-09T09:07:54Z</time>
      </trkpt>
      <trkpt lat="47.556595" lon="2.23774">
        <ele>187</ele>
        <time>2022-06-09T09:07:55Z</time>
      </trkpt>
      <trkpt lat="47.5566" lon="2.2377565">
        <ele>187</ele>
        <time>2022-06-09T09:07:56Z</time>
      </trkpt>
      <trkpt lat="47.556602" lon="2.2377746">
        <ele>187</ele>
        <time>2022-06-09T09:07:57Z</time>
      </trkpt>
      <trkpt lat="47.55661" lon="2.23779">
        <ele>187</ele>
        <time>2022-06-09T09:07:58Z</time>
      </trkpt>
      <trkpt lat="47.556618" lon="2.237804">
        <ele>186</ele>
        <time>2022-06-09T09:07:59Z</time>
      </trkpt>
      <trkpt lat="47.556625" lon="2.2378216">
        <ele>186</ele>
        <time>2022-06-09T09:08:00Z</time>
      </trkpt>
      <trkpt lat="47.55663" lon="2.237838">
        <ele>185</ele>
        <time>2022-06-09T09:08:01Z</time>
      </trkpt>
      <trkpt lat="47.556637" lon="2.237858">
        <ele>184</ele>
        <time>2022-06-09T09:08:02Z</time>
      </trkpt>
      <trkpt lat="47.556644" lon="2.2378774">
        <ele>183</ele>
        <time>2022-06-09T09:08:03Z</time>
      </trkpt>
      <trkpt lat="47.556656" lon="2.237898">
        <ele>183</ele>
        <time>2022-06-09T09:08:04Z</time>
      </trkpt>
      <trkpt lat="47.556664" lon="2.2379155">
        <ele>182</ele>
        <time>2022-06-09T09:08:05Z</time>
      </trkpt>
      <trkpt lat="47.556667" lon="2.2379305">
        <ele>183</ele>
        <time>2022-06-09T09:08:06Z</time>
      </trkpt>
      <trkpt lat="47.556675" lon="2.2379503">
        <ele>182</ele>
        <time>2022-06-09T09:08:07Z</time>
      </trkpt>
      <trkpt lat="47.55668" lon="2.2379646">
        <ele>181</ele>
        <time>2022-06-09T09:08:08Z</time>
      </trkpt>
      <trkpt lat="47.556683" lon="2.237982">
        <ele>181</ele>
        <time>2022-06-09T09:08:09Z</time>
      </trkpt>
      <trkpt lat="47.556683" lon="2.2380044">
        <ele>181</ele>
        <time>2022-06-09T09:08:10Z</time>
      </trkpt>
      <trkpt lat="47.556683" lon="2.2380204">
        <ele>181</ele>
        <time>2022-06-09T09:08:11Z</time>
      </trkpt>
      <trkpt lat="47.556686" lon="2.2380347">
        <ele>181</ele>
        <time>2022-06-09T09:08:12Z</time>
      </trkpt>
      <trkpt lat="47.556694" lon="2.2380497">
        <ele>181</ele>
        <time>2022-06-09T09:08:13Z</time>
      </trkpt>
      <trkpt lat="47.556698" lon="2.2380638">
        <ele>181</ele>
        <time>2022-06-09T09:08:14Z</time>
      </trkpt>
      <trkpt lat="47.5567" lon="2.2380779">
        <ele>180</ele>
        <time>2022-06-09T09:08:15Z</time>
      </trkpt>
      <trkpt lat="47.556705" lon="2.2380884">
        <ele>180</ele>
        <time>2022-06-09T09:08:16Z</time>
      </trkpt>
      <trkpt lat="47.556705" lon="2.2380993">
        <ele>181</ele>
        <time>2022-06-09T09:08:17Z</time>
      </trkpt>
      <trkpt lat="47.55671" lon="2.2381153">
        <ele>181</ele>
        <time>2022-06-09T09:08:18Z</time>
      </trkpt>
      <trkpt lat="47.556713" lon="2.238128">
        <ele>181</ele>
        <time>2022-06-09T09:08:19Z</time>
      </trkpt>
      <trkpt lat="47.55672" lon="2.2381432">
        <ele>181</ele>
        <time>2022-06-09T09:08:20Z</time>
      </trkpt>
      <trkpt lat="47.556732" lon="2.2381563">
        <ele>181</ele>
        <time>2022-06-09T09:08:21Z</time>
      </trkpt>
      <trkpt lat="47.556736" lon="2.2381687">
        <ele>181</ele>
        <time>2022-06-09T09:08:22Z</time>
      </trkpt>
      <trkpt lat="47.556744" lon="2.2381823">
        <ele>181</ele>
        <time>2022-06-09T09:08:23Z</time>
      </trkpt>
      <trkpt lat="47.55675" lon="2.2381957">
        <ele>181</ele>
        <time>2022-06-09T09:08:24Z</time>
      </trkpt>
      <trkpt lat="47.55676" lon="2.2382097">
        <ele>182</ele>
        <time>2022-06-09T09:08:25Z</time>
      </trkpt>
      <trkpt lat="47.556767" lon="2.238226">
        <ele>182</ele>
        <time>2022-06-09T09:08:26Z</time>
      </trkpt>
      <trkpt lat="47.556767" lon="2.2382402">
        <ele>182</ele>
        <time>2022-06-09T09:08:27Z</time>
      </trkpt>
      <trkpt lat="47.556774" lon="2.238255">
        <ele>182</ele>
        <time>2022-06-09T09:08:28Z</time>
      </trkpt>
      <trkpt lat="47.556778" lon="2.2382681">
        <ele>182</ele>
        <time>2022-06-09T09:08:29Z</time>
      </trkpt>
      <trkpt lat="47.556778" lon="2.238285">
        <ele>183</ele>
        <time>2022-06-09T09:08:30Z</time>
      </trkpt>
      <trkpt lat="47.55678" lon="2.2383006">
        <ele>182</ele>
        <time>2022-06-09T09:08:31Z</time>
      </trkpt>
      <trkpt lat="47.55679" lon="2.2383196">
        <ele>182</ele>
        <time>2022-06-09T09:08:32Z</time>
      </trkpt>
      <trkpt lat="47.556793" lon="2.238334">
        <ele>182</ele>
        <time>2022-06-09T09:08:33Z</time>
      </trkpt>
      <trkpt lat="47.556793" lon="2.2383482">
        <ele>182</ele>
        <time>2022-06-09T09:08:34Z</time>
      </trkpt>
      <trkpt lat="47.556797" lon="2.2383657">
        <ele>182</ele>
        <time>2022-06-09T09:08:35Z</time>
      </trkpt>
      <trkpt lat="47.5568" lon="2.238385">
        <ele>182</ele>
        <time>2022-06-09T09:08:36Z</time>
      </trkpt>
      <trkpt lat="47.55681" lon="2.2384021">
        <ele>182</ele>
        <time>2022-06-09T09:08:37Z</time>
      </trkpt>
      <trkpt lat="47.556812" lon="2.2384205">
        <ele>182</ele>
        <time>2022-06-09T09:08:38Z</time>
      </trkpt>
      <trkpt lat="47.55682" lon="2.2384393">
        <ele>182</ele>
        <time>2022-06-09T09:08:39Z</time>
      </trkpt>
      <trkpt lat="47.556828" lon="2.2384553">
        <ele>182</ele>
        <time>2022-06-09T09:08:40Z</time>
      </trkpt>
      <trkpt lat="47.55683" lon="2.2384672">
        <ele>182</ele>
        <time>2022-06-09T09:08:41Z</time>
      </trkpt>
      <trkpt lat="47.556835" lon="2.238482">
        <ele>182</ele>
        <time>2022-06-09T09:08:42Z</time>
      </trkpt>
      <trkpt lat="47.556847" lon="2.2384999">
        <ele>182</ele>
        <time>2022-06-09T09:08:43Z</time>
      </trkpt>
      <trkpt lat="47.556847" lon="2.238519">
        <ele>182</ele>
        <time>2022-06-09T09:08:44Z</time>
      </trkpt>
      <trkpt lat="47.556854" lon="2.2385426">
        <ele>182</ele>
        <time>2022-06-09T09:08:45Z</time>
      </trkpt>
      <trkpt lat="47.556858" lon="2.2385619">
        <ele>183</ele>
        <time>2022-06-09T09:08:46Z</time>
      </trkpt>
      <trkpt lat="47.556858" lon="2.23858">
        <ele>183</ele>
        <time>2022-06-09T09:08:47Z</time>
      </trkpt>
      <trkpt lat="47.556866" lon="2.2386017">
        <ele>184</ele>
        <time>2022-06-09T09:08:48Z</time>
      </trkpt>
      <trkpt lat="47.55687" lon="2.23862">
        <ele>184</ele>
        <time>2022-06-09T09:08:49Z</time>
      </trkpt>
      <trkpt lat="47.556877" lon="2.2386334">
        <ele>185</ele>
        <time>2022-06-09T09:08:50Z</time>
      </trkpt>
      <trkpt lat="47.55688" lon="2.238643">
        <ele>185</ele>
        <time>2022-06-09T09:08:51Z</time>
      </trkpt>
      <trkpt lat="47.55689" lon="2.2386563">
        <ele>185</ele>
        <time>2022-06-09T09:08:52Z</time>
      </trkpt>
      <trkpt lat="47.556892" lon="2.2386682">
        <ele>185</ele>
        <time>2022-06-09T09:08:53Z</time>
      </trkpt>
      <trkpt lat="47.556896" lon="2.2386792">
        <ele>186</ele>
        <time>2022-06-09T09:08:54Z</time>
      </trkpt>
      <trkpt lat="47.556908" lon="2.2386894">
        <ele>186</ele>
        <time>2022-06-09T09:08:55Z</time>
      </trkpt>
      <trkpt lat="47.556908" lon="2.2387044">
        <ele>186</ele>
        <time>2022-06-09T09:08:56Z</time>
      </trkpt>
      <trkpt lat="47.55691" lon="2.2387254">
        <ele>187</ele>
        <time>2022-06-09T09:08:57Z</time>
      </trkpt>
      <trkpt lat="47.55691" lon="2.2387447">
        <ele>187</ele>
        <time>2022-06-09T09:08:58Z</time>
      </trkpt>
      <trkpt lat="47.55691" lon="2.2387633">
        <ele>187</ele>
        <time>2022-06-09T09:08:59Z</time>
      </trkpt>
      <trkpt lat="47.556915" lon="2.2387817">
        <ele>187</ele>
        <time>2022-06-09T09:09:00Z</time>
      </trkpt>
      <trkpt lat="47.55692" lon="2.2388077">
        <ele>188</ele>
        <time>2022-06-09T09:09:01Z</time>
      </trkpt>
      <trkpt lat="47.556927" lon="2.2388287">
        <ele>189</ele>
        <time>2022-06-09T09:09:02Z</time>
      </trkpt>
      <trkpt lat="47.55693" lon="2.2388442">
        <ele>189</ele>
        <time>2022-06-09T09:09:03Z</time>
      </trkpt>
      <trkpt lat="47.55694" lon="2.23886">
        <ele>189</ele>
        <time>2022-06-09T09:09:04Z</time>
      </trkpt>
      <trkpt lat="47.556942" lon="2.2388785">
        <ele>188</ele>
        <time>2022-06-09T09:09:05Z</time>
      </trkpt>
      <trkpt lat="47.556946" lon="2.2388952">
        <ele>189</ele>
        <time>2022-06-09T09:09:06Z</time>
      </trkpt>
      <trkpt lat="47.55695" lon="2.238909">
        <ele>189</ele>
        <time>2022-06-09T09:09:07Z</time>
      </trkpt>
      <trkpt lat="47.556953" lon="2.2389214">
        <ele>188</ele>
        <time>2022-06-09T09:09:08Z</time>
      </trkpt>
      <trkpt lat="47.55696" lon="2.2389336">
        <ele>188</ele>
        <time>2022-06-09T09:09:09Z</time>
      </trkpt>
      <trkpt lat="47.55697" lon="2.2389517">
        <ele>188</ele>
        <time>2022-06-09T09:09:10Z</time>
      </trkpt>
      <trkpt lat="47.556976" lon="2.2389688">
        <ele>188</ele>
        <time>2022-06-09T09:09:11Z</time>
      </trkpt>
      <trkpt lat="47.55698" lon="2.2389944">
        <ele>188</ele>
        <time>2022-06-09T09:09:12Z</time>
      </trkpt>
      <trkpt lat="47.556988" lon="2.239015">
        <ele>188</ele>
        <time>2022-06-09T09:09:13Z</time>
      </trkpt>
      <trkpt lat="47.556995" lon="2.239036">
        <ele>188</ele>
        <time>2022-06-09T09:09:14Z</time>
      </trkpt>
      <trkpt lat="47.557003" lon="2.23905">
        <ele>187</ele>
        <time>2022-06-09T09:09:15Z</time>
      </trkpt>
      <trkpt lat="47.55701" lon="2.2390594">
        <ele>187</ele>
        <time>2022-06-09T09:09:16Z</time>
      </trkpt>
      <trkpt lat="47.557022" lon="2.2390718">
        <ele>187</ele>
        <time>2022-06-09T09:09:17Z</time>
      </trkpt>
      <trkpt lat="47.557026" lon="2.2390878">
        <ele>187</ele>
        <time>2022-06-09T09:09:18Z</time>
      </trkpt>
      <trkpt lat="47.557034" lon="2.2391014">
        <ele>187</ele>
        <time>2022-06-09T09:09:19Z</time>
      </trkpt>
      <trkpt lat="47.557037" lon="2.2391212">
        <ele>187</ele>
        <time>2022-06-09T09:09:20Z</time>
      </trkpt>
      <trkpt lat="47.55704" lon="2.2391431">
        <ele>186</ele>
        <time>2022-06-09T09:09:21Z</time>
      </trkpt>
      <trkpt lat="47.557045" lon="2.2391622">
        <ele>187</ele>
        <time>2022-06-09T09:09:22Z</time>
      </trkpt>
      <trkpt lat="47.557053" lon="2.23918">
        <ele>186</ele>
        <time>2022-06-09T09:09:23Z</time>
      </trkpt>
      <trkpt lat="47.557056" lon="2.2391958">
        <ele>186</ele>
        <time>2022-06-09T09:09:24Z</time>
      </trkpt>
      <trkpt lat="47.55706" lon="2.2392106">
        <ele>186</ele>
        <time>2022-06-09T09:09:25Z</time>
      </trkpt>
      <trkpt lat="47.557068" lon="2.239226">
        <ele>186</ele>
        <time>2022-06-09T09:09:26Z</time>
      </trkpt>
      <trkpt lat="47.557076" lon="2.2392437">
        <ele>186</ele>
        <time>2022-06-09T09:09:27Z</time>
      </trkpt>
      <trkpt lat="47.557087" lon="2.2392573">
        <ele>186</ele>
        <time>2022-06-09T09:09:28Z</time>
      </trkpt>
      <trkpt lat="47.55709" lon="2.2392757">
        <ele>186</ele>
        <time>2022-06-09T09:09:29Z</time>
      </trkpt>
      <trkpt lat="47.5571" lon="2.2392936">
        <ele>186</ele>
        <time>2022-06-09T09:09:30Z</time>
      </trkpt>
      <trkpt lat="47.557106" lon="2.239312">
        <ele>187</ele>
        <time>2022-06-09T09:09:31Z</time>
      </trkpt>
      <trkpt lat="47.557114" lon="2.2393272">
        <ele>187</ele>
        <time>2022-06-09T09:09:32Z</time>
      </trkpt>
      <trkpt lat="47.55712" lon="2.2393484">
        <ele>187</ele>
        <time>2022-06-09T09:09:33Z</time>
      </trkpt>
      <trkpt lat="47.55712" lon="2.2393665">
        <ele>188</ele>
        <time>2022-06-09T09:09:34Z</time>
      </trkpt>
      <trkpt lat="47.557125" lon="2.239387">
        <ele>188</ele>
        <time>2022-06-09T09:09:35Z</time>
      </trkpt>
      <trkpt lat="47.55713" lon="2.2394068">
        <ele>188</ele>
        <time>2022-06-09T09:09:36Z</time>
      </trkpt>
      <trkpt lat="47.557133" lon="2.239424">
        <ele>188</ele>
        <time>2022-06-09T09:09:37Z</time>
      </trkpt>
      <trkpt lat="47.557137" lon="2.2394402">
        <ele>189</ele>
        <time>2022-06-09T09:09:38Z</time>
      </trkpt>
      <trkpt lat="47.55714" lon="2.2394626">
        <ele>190</ele>
        <time>2022-06-09T09:09:39Z</time>
      </trkpt>
      <trkpt lat="47.557144" lon="2.2394822">
        <ele>190</ele>
        <time>2022-06-09T09:09:40Z</time>
      </trkpt>
      <trkpt lat="47.557148" lon="2.2394986">
        <ele>189</ele>
        <time>2022-06-09T09:09:41Z</time>
      </trkpt>
      <trkpt lat="47.557156" lon="2.2395184">
        <ele>189</ele>
        <time>2022-06-09T09:09:42Z</time>
      </trkpt>
      <trkpt lat="47.557163" lon="2.239535">
        <ele>189</ele>
        <time>2022-06-09T09:09:43Z</time>
      </trkpt>
      <trkpt lat="47.55717" lon="2.239553">
        <ele>190</ele>
        <time>2022-06-09T09:09:44Z</time>
      </trkpt>
      <trkpt lat="47.55717" lon="2.239568">
        <ele>190</ele>
        <time>2022-06-09T09:09:45Z</time>
      </trkpt>
      <trkpt lat="47.55718" lon="2.2395816">
        <ele>190</ele>
        <time>2022-06-09T09:09:46Z</time>
      </trkpt>
      <trkpt lat="47.55718" lon="2.239598">
        <ele>190</ele>
        <time>2022-06-09T09:09:47Z</time>
      </trkpt>
      <trkpt lat="47.557182" lon="2.2396102">
        <ele>189</ele>
        <time>2022-06-09T09:09:48Z</time>
      </trkpt>
      <trkpt lat="47.55719" lon="2.2396216">
        <ele>189</ele>
        <time>2022-06-09T09:09:49Z</time>
      </trkpt>
      <trkpt lat="47.557194" lon="2.2396362">
        <ele>189</ele>
        <time>2022-06-09T09:09:50Z</time>
      </trkpt>
      <trkpt lat="47.5572" lon="2.2396514">
        <ele>189</ele>
        <time>2022-06-09T09:09:51Z</time>
      </trkpt>
      <trkpt lat="47.55721" lon="2.2396696">
        <ele>188</ele>
        <time>2022-06-09T09:09:52Z</time>
      </trkpt>
      <trkpt lat="47.557217" lon="2.2396877">
        <ele>188</ele>
        <time>2022-06-09T09:09:53Z</time>
      </trkpt>
      <trkpt lat="47.557224" lon="2.2397022">
        <ele>188</ele>
        <time>2022-06-09T09:09:54Z</time>
      </trkpt>
      <trkpt lat="47.557228" lon="2.23972">
        <ele>188</ele>
        <time>2022-06-09T09:09:55Z</time>
      </trkpt>
      <trkpt lat="47.557236" lon="2.2397368">
        <ele>188</ele>
        <time>2022-06-09T09:09:56Z</time>
      </trkpt>
      <trkpt lat="47.557243" lon="2.2397523">
        <ele>188</ele>
        <time>2022-06-09T09:09:57Z</time>
      </trkpt>
      <trkpt lat="47.55725" lon="2.2397687">
        <ele>188</ele>
        <time>2022-06-09T09:09:58Z</time>
      </trkpt>
      <trkpt lat="47.55726" lon="2.239784">
        <ele>188</ele>
        <time>2022-06-09T09:09:59Z</time>
      </trkpt>
      <trkpt lat="47.557266" lon="2.2398021">
        <ele>188</ele>
        <time>2022-06-09T09:10:00Z</time>
      </trkpt>
      <trkpt lat="47.55727" lon="2.2398195">
        <ele>189</ele>
        <time>2022-06-09T09:10:01Z</time>
      </trkpt>
      <trkpt lat="47.557278" lon="2.2398365">
        <ele>189</ele>
        <time>2022-06-09T09:10:02Z</time>
      </trkpt>
      <trkpt lat="47.55728" lon="2.239855">
        <ele>189</ele>
        <time>2022-06-09T09:10:03Z</time>
      </trkpt>
      <trkpt lat="47.557285" lon="2.2398748">
        <ele>190</ele>
        <time>2022-06-09T09:10:04Z</time>
      </trkpt>
      <trkpt lat="47.55729" lon="2.2398965">
        <ele>190</ele>
        <time>2022-06-09T09:10:05Z</time>
      </trkpt>
      <trkpt lat="47.557293" lon="2.239913">
        <ele>190</ele>
        <time>2022-06-09T09:10:06Z</time>
      </trkpt>
      <trkpt lat="47.5573" lon="2.2399302">
        <ele>190</ele>
        <time>2022-06-09T09:10:07Z</time>
      </trkpt>
      <trkpt lat="47.557304" lon="2.239946">
        <ele>190</ele>
        <time>2022-06-09T09:10:08Z</time>
      </trkpt>
      <trkpt lat="47.557312" lon="2.2399676">
        <ele>190</ele>
        <time>2022-06-09T09:10:09Z</time>
      </trkpt>
      <trkpt lat="47.557316" lon="2.2399867">
        <ele>190</ele>
        <time>2022-06-09T09:10:10Z</time>
      </trkpt>
      <trkpt lat="47.557323" lon="2.2400057">
        <ele>190</ele>
        <time>2022-06-09T09:10:11Z</time>
      </trkpt>
      <trkpt lat="47.55733" lon="2.2400215">
        <ele>190</ele>
        <time>2022-06-09T09:10:12Z</time>
      </trkpt>
      <trkpt lat="47.557335" lon="2.240038">
        <ele>190</ele>
        <time>2022-06-09T09:10:13Z</time>
      </trkpt>
      <trkpt lat="47.55734" lon="2.240053">
        <ele>190</ele>
        <time>2022-06-09T09:10:14Z</time>
      </trkpt>
      <trkpt lat="47.55734" lon="2.24007">
        <ele>190</ele>
        <time>2022-06-09T09:10:15Z</time>
      </trkpt>
      <trkpt lat="47.557343" lon="2.2400835">
        <ele>190</ele>
        <time>2022-06-09T09:10:16Z</time>
      </trkpt>
      <trkpt lat="47.55735" lon="2.240098">
        <ele>190</ele>
        <time>2022-06-09T09:10:17Z</time>
      </trkpt>
      <trkpt lat="47.557358" lon="2.240116">
        <ele>190</ele>
        <time>2022-06-09T09:10:18Z</time>
      </trkpt>
      <trkpt lat="47.557365" lon="2.240131">
        <ele>190</ele>
        <time>2022-06-09T09:10:19Z</time>
      </trkpt>
      <trkpt lat="47.557373" lon="2.2401435">
        <ele>189</ele>
        <time>2022-06-09T09:10:20Z</time>
      </trkpt>
      <trkpt lat="47.557377" lon="2.2401574">
        <ele>189</ele>
        <time>2022-06-09T09:10:21Z</time>
      </trkpt>
      <trkpt lat="47.557384" lon="2.240175">
        <ele>189</ele>
        <time>2022-06-09T09:10:22Z</time>
      </trkpt>
      <trkpt lat="47.55739" lon="2.2401927">
        <ele>189</ele>
        <time>2022-06-09T09:10:23Z</time>
      </trkpt>
      <trkpt lat="47.557392" lon="2.2402132">
        <ele>189</ele>
        <time>2022-06-09T09:10:24Z</time>
      </trkpt>
      <trkpt lat="47.557396" lon="2.240233">
        <ele>189</ele>
        <time>2022-06-09T09:10:25Z</time>
      </trkpt>
      <trkpt lat="47.557396" lon="2.2402494">
        <ele>188</ele>
        <time>2022-06-09T09:10:26Z</time>
      </trkpt>
      <trkpt lat="47.557396" lon="2.2402654">
        <ele>188</ele>
        <time>2022-06-09T09:10:27Z</time>
      </trkpt>
      <trkpt lat="47.5574" lon="2.2402809">
        <ele>188</ele>
        <time>2022-06-09T09:10:28Z</time>
      </trkpt>
      <trkpt lat="47.557407" lon="2.2402968">
        <ele>187</ele>
        <time>2022-06-09T09:10:29Z</time>
      </trkpt>
      <trkpt lat="47.55741" lon="2.24032">
        <ele>187</ele>
        <time>2022-06-09T09:10:30Z</time>
      </trkpt>
      <trkpt lat="47.557415" lon="2.2403378">
        <ele>188</ele>
        <time>2022-06-09T09:10:31Z</time>
      </trkpt>
      <trkpt lat="47.557426" lon="2.2403514">
        <ele>187</ele>
        <time>2022-06-09T09:10:32Z</time>
      </trkpt>
      <trkpt lat="47.557434" lon="2.240368">
        <ele>188</ele>
        <time>2022-06-09T09:10:33Z</time>
      </trkpt>
      <trkpt lat="47.557438" lon="2.2403848">
        <ele>188</ele>
        <time>2022-06-09T09:10:34Z</time>
      </trkpt>
      <trkpt lat="47.557446" lon="2.2404003">
        <ele>188</ele>
        <time>2022-06-09T09:10:35Z</time>
      </trkpt>
      <trkpt lat="47.55745" lon="2.2404194">
        <ele>188</ele>
        <time>2022-06-09T09:10:36Z</time>
      </trkpt>
      <trkpt lat="47.557457" lon="2.2404375">
        <ele>188</ele>
        <time>2022-06-09T09:10:37Z</time>
      </trkpt>
      <trkpt lat="47.557457" lon="2.2404583">
        <ele>188</ele>
        <time>2022-06-09T09:10:38Z</time>
      </trkpt>
      <trkpt lat="47.557465" lon="2.2404718">
        <ele>188</ele>
        <time>2022-06-09T09:10:39Z</time>
      </trkpt>
      <trkpt lat="47.557465" lon="2.2404833">
        <ele>187</ele>
        <time>2022-06-09T09:10:40Z</time>
      </trkpt>
      <trkpt lat="47.557472" lon="2.240497">
        <ele>188</ele>
        <time>2022-06-09T09:10:41Z</time>
      </trkpt>
      <trkpt lat="47.557476" lon="2.2405102">
        <ele>188</ele>
        <time>2022-06-09T09:10:42Z</time>
      </trkpt>
      <trkpt lat="47.557484" lon="2.2405305">
        <ele>188</ele>
        <time>2022-06-09T09:10:43Z</time>
      </trkpt>
      <trkpt lat="47.557495" lon="2.2405448">
        <ele>188</ele>
        <time>2022-06-09T09:10:44Z</time>
      </trkpt>
      <trkpt lat="47.557503" lon="2.240561">
        <ele>188</ele>
        <time>2022-06-09T09:10:45Z</time>
      </trkpt>
      <trkpt lat="47.557507" lon="2.2405748">
        <ele>187</ele>
        <time>2022-06-09T09:10:46Z</time>
      </trkpt>
      <trkpt lat="47.557514" lon="2.2405922">
        <ele>187</ele>
        <time>2022-06-09T09:10:47Z</time>
      </trkpt>
      <trkpt lat="47.557518" lon="2.2406068">
        <ele>187</ele>
        <time>2022-06-09T09:10:48Z</time>
      </trkpt>
      <trkpt lat="47.55752" lon="2.240625">
        <ele>187</ele>
        <time>2022-06-09T09:10:49Z</time>
      </trkpt>
      <trkpt lat="47.55753" lon="2.2406373">
        <ele>187</ele>
        <time>2022-06-09T09:10:50Z</time>
      </trkpt>
      <trkpt lat="47.55754" lon="2.2406533">
        <ele>187</ele>
        <time>2022-06-09T09:10:51Z</time>
      </trkpt>
      <trkpt lat="47.557545" lon="2.2406707">
        <ele>187</ele>
        <time>2022-06-09T09:10:52Z</time>
      </trkpt>
      <trkpt lat="47.55755" lon="2.2406867">
        <ele>187</ele>
        <time>2022-06-09T09:10:53Z</time>
      </trkpt>
      <trkpt lat="47.557556" lon="2.2407048">
        <ele>187</ele>
        <time>2022-06-09T09:10:54Z</time>
      </trkpt>
      <trkpt lat="47.55756" lon="2.2407205">
        <ele>188</ele>
        <time>2022-06-09T09:10:55Z</time>
      </trkpt>
      <trkpt lat="47.557564" lon="2.2407408">
        <ele>189</ele>
        <time>2022-06-09T09:10:56Z</time>
      </trkpt>
      <trkpt lat="47.55757" lon="2.2407568">
        <ele>188</ele>
        <time>2022-06-09T09:10:57Z</time>
      </trkpt>
      <trkpt lat="47.557575" lon="2.2407715">
        <ele>188</ele>
        <time>2022-06-09T09:10:58Z</time>
      </trkpt>
      <trkpt lat="47.55758" lon="2.2407885">
        <ele>188</ele>
        <time>2022-06-09T09:10:59Z</time>
      </trkpt>
      <trkpt lat="47.557587" lon="2.2408042">
        <ele>188</ele>
        <time>2022-06-09T09:11:00Z</time>
      </trkpt>
      <trkpt lat="47.55759" lon="2.2408197">
        <ele>188</ele>
        <time>2022-06-09T09:11:01Z</time>
      </trkpt>
      <trkpt lat="47.557594" lon="2.2408376">
        <ele>188</ele>
        <time>2022-06-09T09:11:02Z</time>
      </trkpt>
      <trkpt lat="47.5576" lon="2.2408547">
        <ele>188</ele>
        <time>2022-06-09T09:11:03Z</time>
      </trkpt>
      <trkpt lat="47.557606" lon="2.2408736">
        <ele>188</ele>
        <time>2022-06-09T09:11:04Z</time>
      </trkpt>
      <trkpt lat="47.557613" lon="2.240892">
        <ele>188</ele>
        <time>2022-06-09T09:11:05Z</time>
      </trkpt>
      <trkpt lat="47.557617" lon="2.2409098">
        <ele>187</ele>
        <time>2022-06-09T09:11:06Z</time>
      </trkpt>
      <trkpt lat="47.557625" lon="2.240929">
        <ele>188</ele>
        <time>2022-06-09T09:11:07Z</time>
      </trkpt>
      <trkpt lat="47.55763" lon="2.240943">
        <ele>188</ele>
        <time>2022-06-09T09:11:08Z</time>
      </trkpt>
      <trkpt lat="47.557632" lon="2.2409575">
        <ele>188</ele>
        <time>2022-06-09T09:11:09Z</time>
      </trkpt>
      <trkpt lat="47.557636" lon="2.2409766">
        <ele>188</ele>
        <time>2022-06-09T09:11:10Z</time>
      </trkpt>
      <trkpt lat="47.557644" lon="2.2409945">
        <ele>188</ele>
        <time>2022-06-09T09:11:11Z</time>
      </trkpt>
      <trkpt lat="47.55765" lon="2.2410123">
        <ele>188</ele>
        <time>2022-06-09T09:11:12Z</time>
      </trkpt>
      <trkpt lat="47.557655" lon="2.2410305">
        <ele>188</ele>
        <time>2022-06-09T09:11:13Z</time>
      </trkpt>
      <trkpt lat="47.55766" lon="2.2410493">
        <ele>189</ele>
        <time>2022-06-09T09:11:14Z</time>
      </trkpt>
      <trkpt lat="47.557667" lon="2.2410645">
        <ele>188</ele>
        <time>2022-06-09T09:11:15Z</time>
      </trkpt>
      <trkpt lat="47.55767" lon="2.2410831">
        <ele>188</ele>
        <time>2022-06-09T09:11:16Z</time>
      </trkpt>
      <trkpt lat="47.557674" lon="2.241102">
        <ele>189</ele>
        <time>2022-06-09T09:11:17Z</time>
      </trkpt>
      <trkpt lat="47.55768" lon="2.2411208">
        <ele>189</ele>
        <time>2022-06-09T09:11:18Z</time>
      </trkpt>
      <trkpt lat="47.557682" lon="2.2411385">
        <ele>189</ele>
        <time>2022-06-09T09:11:19Z</time>
      </trkpt>
      <trkpt lat="47.557686" lon="2.2411563">
        <ele>188</ele>
        <time>2022-06-09T09:11:20Z</time>
      </trkpt>
      <trkpt lat="47.55769" lon="2.2411716">
        <ele>188</ele>
        <time>2022-06-09T09:11:21Z</time>
      </trkpt>
      <trkpt lat="47.557697" lon="2.241189">
        <ele>188</ele>
        <time>2022-06-09T09:11:22Z</time>
      </trkpt>
      <trkpt lat="47.557697" lon="2.2412045">
        <ele>188</ele>
        <time>2022-06-09T09:11:23Z</time>
      </trkpt>
      <trkpt lat="47.557705" lon="2.2412226">
        <ele>188</ele>
        <time>2022-06-09T09:11:24Z</time>
      </trkpt>
      <trkpt lat="47.557713" lon="2.2412398">
        <ele>188</ele>
        <time>2022-06-09T09:11:25Z</time>
      </trkpt>
      <trkpt lat="47.557716" lon="2.241258">
        <ele>188</ele>
        <time>2022-06-09T09:11:26Z</time>
      </trkpt>
      <trkpt lat="47.557728" lon="2.2412705">
        <ele>188</ele>
        <time>2022-06-09T09:11:27Z</time>
      </trkpt>
      <trkpt lat="47.55773" lon="2.2412865">
        <ele>188</ele>
        <time>2022-06-09T09:11:28Z</time>
      </trkpt>
      <trkpt lat="47.557735" lon="2.2413058">
        <ele>188</ele>
        <time>2022-06-09T09:11:29Z</time>
      </trkpt>
      <trkpt lat="47.55774" lon="2.241324">
        <ele>188</ele>
        <time>2022-06-09T09:11:30Z</time>
      </trkpt>
      <trkpt lat="47.557743" lon="2.24134">
        <ele>188</ele>
        <time>2022-06-09T09:11:31Z</time>
      </trkpt>
      <trkpt lat="47.557747" lon="2.241359">
        <ele>188</ele>
        <time>2022-06-09T09:11:32Z</time>
      </trkpt>
      <trkpt lat="47.557755" lon="2.2413762">
        <ele>187</ele>
        <time>2022-06-09T09:11:33Z</time>
      </trkpt>
      <trkpt lat="47.55776" lon="2.2413967">
        <ele>187</ele>
        <time>2022-06-09T09:11:34Z</time>
      </trkpt>
      <trkpt lat="47.557766" lon="2.241415">
        <ele>187</ele>
        <time>2022-06-09T09:11:35Z</time>
      </trkpt>
      <trkpt lat="47.557774" lon="2.2414265">
        <ele>187</ele>
        <time>2022-06-09T09:11:36Z</time>
      </trkpt>
      <trkpt lat="47.55778" lon="2.2414477">
        <ele>187</ele>
        <time>2022-06-09T09:11:37Z</time>
      </trkpt>
      <trkpt lat="47.557785" lon="2.2414658">
        <ele>187</ele>
        <time>2022-06-09T09:11:38Z</time>
      </trkpt>
      <trkpt lat="47.557793" lon="2.2414815">
        <ele>187</ele>
        <time>2022-06-09T09:11:39Z</time>
      </trkpt>
      <trkpt lat="47.5578" lon="2.2414997">
        <ele>187</ele>
        <time>2022-06-09T09:11:40Z</time>
      </trkpt>
      <trkpt lat="47.557808" lon="2.2415168">
        <ele>187</ele>
        <time>2022-06-09T09:11:41Z</time>
      </trkpt>
      <trkpt lat="47.55781" lon="2.2415338">
        <ele>187</ele>
        <time>2022-06-09T09:11:42Z</time>
      </trkpt>
      <trkpt lat="47.55782" lon="2.2415488">
        <ele>187</ele>
        <time>2022-06-09T09:11:43Z</time>
      </trkpt>
      <trkpt lat="47.557823" lon="2.241566">
        <ele>187</ele>
        <time>2022-06-09T09:11:44Z</time>
      </trkpt>
      <trkpt lat="47.557827" lon="2.24158">
        <ele>187</ele>
        <time>2022-06-09T09:11:45Z</time>
      </trkpt>
      <trkpt lat="47.557835" lon="2.2415953">
        <ele>187</ele>
        <time>2022-06-09T09:11:46Z</time>
      </trkpt>
      <trkpt lat="47.557842" lon="2.2416074">
        <ele>187</ele>
        <time>2022-06-09T09:11:47Z</time>
      </trkpt>
      <trkpt lat="47.55785" lon="2.2416208">
        <ele>187</ele>
        <time>2022-06-09T09:11:48Z</time>
      </trkpt>
      <trkpt lat="47.557858" lon="2.2416346">
        <ele>187</ele>
        <time>2022-06-09T09:11:49Z</time>
      </trkpt>
      <trkpt lat="47.557858" lon="2.2416556">
        <ele>188</ele>
        <time>2022-06-09T09:11:50Z</time>
      </trkpt>
      <trkpt lat="47.55786" lon="2.2416728">
        <ele>188</ele>
        <time>2022-06-09T09:11:51Z</time>
      </trkpt>
      <trkpt lat="47.557865" lon="2.2416925">
        <ele>188</ele>
        <time>2022-06-09T09:11:52Z</time>
      </trkpt>
      <trkpt lat="47.55787" lon="2.2417092">
        <ele>187</ele>
        <time>2022-06-09T09:11:53Z</time>
      </trkpt>
      <trkpt lat="47.557873" lon="2.2417243">
        <ele>187</ele>
        <time>2022-06-09T09:11:54Z</time>
      </trkpt>
      <trkpt lat="47.557877" lon="2.241741">
        <ele>187</ele>
        <time>2022-06-09T09:11:55Z</time>
      </trkpt>
      <trkpt lat="47.557884" lon="2.241757">
        <ele>187</ele>
        <time>2022-06-09T09:11:56Z</time>
      </trkpt>
      <trkpt lat="47.55789" lon="2.241766">
        <ele>187</ele>
        <time>2022-06-09T09:11:57Z</time>
      </trkpt>
      <trkpt lat="47.557896" lon="2.2417853">
        <ele>188</ele>
        <time>2022-06-09T09:11:58Z</time>
      </trkpt>
      <trkpt lat="47.557903" lon="2.241803">
        <ele>188</ele>
        <time>2022-06-09T09:11:59Z</time>
      </trkpt>
      <trkpt lat="47.557907" lon="2.2418182">
        <ele>188</ele>
        <time>2022-06-09T09:12:00Z</time>
      </trkpt>
      <trkpt lat="47.557915" lon="2.2418303">
        <ele>188</ele>
        <time>2022-06-09T09:12:01Z</time>
      </trkpt>
      <trkpt lat="47.557922" lon="2.2418447">
        <ele>188</ele>
        <time>2022-06-09T09:12:02Z</time>
      </trkpt>
      <trkpt lat="47.55793" lon="2.2418625">
        <ele>188</ele>
        <time>2022-06-09T09:12:03Z</time>
      </trkpt>
      <trkpt lat="47.557934" lon="2.2418818">
        <ele>188</ele>
        <time>2022-06-09T09:12:04Z</time>
      </trkpt>
      <trkpt lat="47.557938" lon="2.2419019">
        <ele>188</ele>
        <time>2022-06-09T09:12:05Z</time>
      </trkpt>
      <trkpt lat="47.55794" lon="2.2419174">
        <ele>188</ele>
        <time>2022-06-09T09:12:06Z</time>
      </trkpt>
      <trkpt lat="47.55794" lon="2.241935">
        <ele>188</ele>
        <time>2022-06-09T09:12:07Z</time>
      </trkpt>
      <trkpt lat="47.557945" lon="2.2419527">
        <ele>188</ele>
        <time>2022-06-09T09:12:08Z</time>
      </trkpt>
      <trkpt lat="47.55795" lon="2.2419689">
        <ele>187</ele>
        <time>2022-06-09T09:12:09Z</time>
      </trkpt>
      <trkpt lat="47.557953" lon="2.2419877">
        <ele>188</ele>
        <time>2022-06-09T09:12:10Z</time>
      </trkpt>
      <trkpt lat="47.55796" lon="2.2420108">
        <ele>188</ele>
        <time>2022-06-09T09:12:11Z</time>
      </trkpt>
      <trkpt lat="47.557964" lon="2.2420285">
        <ele>188</ele>
        <time>2022-06-09T09:12:12Z</time>
      </trkpt>
      <trkpt lat="47.55797" lon="2.2420444">
        <ele>188</ele>
        <time>2022-06-09T09:12:13Z</time>
      </trkpt>
      <trkpt lat="47.557976" lon="2.2420583">
        <ele>189</ele>
        <time>2022-06-09T09:12:14Z</time>
      </trkpt>
      <trkpt lat="47.557983" lon="2.2420723">
        <ele>188</ele>
        <time>2022-06-09T09:12:15Z</time>
      </trkpt>
      <trkpt lat="47.557987" lon="2.2420828">
        <ele>188</ele>
        <time>2022-06-09T09:12:16Z</time>
      </trkpt>
      <trkpt lat="47.557995" lon="2.2420976">
        <ele>188</ele>
        <time>2022-06-09T09:12:17Z</time>
      </trkpt>
      <trkpt lat="47.558" lon="2.2421167">
        <ele>188</ele>
        <time>2022-06-09T09:12:18Z</time>
      </trkpt>
      <trkpt lat="47.558002" lon="2.24213">
        <ele>189</ele>
        <time>2022-06-09T09:12:19Z</time>
      </trkpt>
      <trkpt lat="47.55801" lon="2.2421424">
        <ele>189</ele>
        <time>2022-06-09T09:12:20Z</time>
      </trkpt>
      <trkpt lat="47.558018" lon="2.2421565">
        <ele>188</ele>
        <time>2022-06-09T09:12:21Z</time>
      </trkpt>
      <trkpt lat="47.558025" lon="2.2421749">
        <ele>189</ele>
        <time>2022-06-09T09:12:22Z</time>
      </trkpt>
      <trkpt lat="47.55803" lon="2.2421901">
        <ele>188</ele>
        <time>2022-06-09T09:12:23Z</time>
      </trkpt>
      <trkpt lat="47.558033" lon="2.2422094">
        <ele>188</ele>
        <time>2022-06-09T09:12:24Z</time>
      </trkpt>
      <trkpt lat="47.558037" lon="2.242231">
        <ele>188</ele>
        <time>2022-06-09T09:12:25Z</time>
      </trkpt>
      <trkpt lat="47.558033" lon="2.242249">
        <ele>188</ele>
        <time>2022-06-09T09:12:26Z</time>
      </trkpt>
      <trkpt lat="47.558037" lon="2.2422655">
        <ele>187</ele>
        <time>2022-06-09T09:12:27Z</time>
      </trkpt>
      <trkpt lat="47.55804" lon="2.2422855">
        <ele>188</ele>
        <time>2022-06-09T09:12:28Z</time>
      </trkpt>
      <trkpt lat="47.55805" lon="2.242305">
        <ele>188</ele>
        <time>2022-06-09T09:12:29Z</time>
      </trkpt>
      <trkpt lat="47.558056" lon="2.2423222">
        <ele>187</ele>
        <time>2022-06-09T09:12:30Z</time>
      </trkpt>
      <trkpt lat="47.55806" lon="2.2423384">
        <ele>187</ele>
        <time>2022-06-09T09:12:31Z</time>
      </trkpt>
      <trkpt lat="47.558064" lon="2.2423525">
        <ele>187</ele>
        <time>2022-06-09T09:12:32Z</time>
      </trkpt>
      <trkpt lat="47.558067" lon="2.2423687">
        <ele>186</ele>
        <time>2022-06-09T09:12:33Z</time>
      </trkpt>
      <trkpt lat="47.558075" lon="2.2423837">
        <ele>186</ele>
        <time>2022-06-09T09:12:34Z</time>
      </trkpt>
      <trkpt lat="47.55808" lon="2.2423997">
        <ele>186</ele>
        <time>2022-06-09T09:12:35Z</time>
      </trkpt>
      <trkpt lat="47.558083" lon="2.2424183">
        <ele>186</ele>
        <time>2022-06-09T09:12:36Z</time>
      </trkpt>
      <trkpt lat="47.55809" lon="2.2424352">
        <ele>186</ele>
        <time>2022-06-09T09:12:37Z</time>
      </trkpt>
      <trkpt lat="47.558094" lon="2.2424526">
        <ele>187</ele>
        <time>2022-06-09T09:12:38Z</time>
      </trkpt>
      <trkpt lat="47.5581" lon="2.2424674">
        <ele>187</ele>
        <time>2022-06-09T09:12:39Z</time>
      </trkpt>
      <trkpt lat="47.55811" lon="2.2424803">
        <ele>186</ele>
        <time>2022-06-09T09:12:40Z</time>
      </trkpt>
      <trkpt lat="47.558113" lon="2.2424934">
        <ele>187</ele>
        <time>2022-06-09T09:12:41Z</time>
      </trkpt>
      <trkpt lat="47.558117" lon="2.2425108">
        <ele>187</ele>
        <time>2022-06-09T09:12:42Z</time>
      </trkpt>
      <trkpt lat="47.55812" lon="2.2425275">
        <ele>187</ele>
        <time>2022-06-09T09:12:43Z</time>
      </trkpt>
      <trkpt lat="47.558125" lon="2.2425418">
        <ele>187</ele>
        <time>2022-06-09T09:12:44Z</time>
      </trkpt>
      <trkpt lat="47.55813" lon="2.2425573">
        <ele>187</ele>
        <time>2022-06-09T09:12:45Z</time>
      </trkpt>
      <trkpt lat="47.558136" lon="2.2425725">
        <ele>187</ele>
        <time>2022-06-09T09:12:46Z</time>
      </trkpt>
      <trkpt lat="47.55814" lon="2.2425904">
        <ele>187</ele>
        <time>2022-06-09T09:12:47Z</time>
      </trkpt>
      <trkpt lat="47.558144" lon="2.2426085">
        <ele>187</ele>
        <time>2022-06-09T09:12:48Z</time>
      </trkpt>
      <trkpt lat="47.55815" lon="2.2426252">
        <ele>187</ele>
        <time>2022-06-09T09:12:49Z</time>
      </trkpt>
      <trkpt lat="47.558155" lon="2.2426436">
        <ele>186</ele>
        <time>2022-06-09T09:12:50Z</time>
      </trkpt>
      <trkpt lat="47.558163" lon="2.2426658">
        <ele>186</ele>
        <time>2022-06-09T09:12:51Z</time>
      </trkpt>
      <trkpt lat="47.558167" lon="2.2426882">
        <ele>187</ele>
        <time>2022-06-09T09:12:52Z</time>
      </trkpt>
      <trkpt lat="47.55817" lon="2.2427065">
        <ele>187</ele>
        <time>2022-06-09T09:12:53Z</time>
      </trkpt>
      <trkpt lat="47.558174" lon="2.2427213">
        <ele>187</ele>
        <time>2022-06-09T09:12:54Z</time>
      </trkpt>
      <trkpt lat="47.55818" lon="2.242735">
        <ele>186</ele>
        <time>2022-06-09T09:12:55Z</time>
      </trkpt>
      <trkpt lat="47.558186" lon="2.242749">
        <ele>186</ele>
        <time>2022-06-09T09:12:56Z</time>
      </trkpt>
      <trkpt lat="47.55819" lon="2.2427628">
        <ele>186</ele>
        <time>2022-06-09T09:12:57Z</time>
      </trkpt>
      <trkpt lat="47.558197" lon="2.2427723">
        <ele>187</ele>
        <time>2022-06-09T09:12:58Z</time>
      </trkpt>
      <trkpt lat="47.558205" lon="2.2427833">
        <ele>186</ele>
        <time>2022-06-09T09:12:59Z</time>
      </trkpt>
      <trkpt lat="47.558216" lon="2.242802">
        <ele>186</ele>
        <time>2022-06-09T09:13:00Z</time>
      </trkpt>
      <trkpt lat="47.558224" lon="2.2428174">
        <ele>186</ele>
        <time>2022-06-09T09:13:01Z</time>
      </trkpt>
      <trkpt lat="47.558235" lon="2.2428334">
        <ele>186</ele>
        <time>2022-06-09T09:13:02Z</time>
      </trkpt>
      <trkpt lat="47.55824" lon="2.24285">
        <ele>186</ele>
        <time>2022-06-09T09:13:03Z</time>
      </trkpt>
      <trkpt lat="47.558247" lon="2.2428656">
        <ele>186</ele>
        <time>2022-06-09T09:13:04Z</time>
      </trkpt>
      <trkpt lat="47.558254" lon="2.242881">
        <ele>186</ele>
        <time>2022-06-09T09:13:05Z</time>
      </trkpt>
      <trkpt lat="47.55826" lon="2.2428982">
        <ele>186</ele>
        <time>2022-06-09T09:13:06Z</time>
      </trkpt>
      <trkpt lat="47.558266" lon="2.2429137">
        <ele>186</ele>
        <time>2022-06-09T09:13:07Z</time>
      </trkpt>
      <trkpt lat="47.558273" lon="2.242931">
        <ele>186</ele>
        <time>2022-06-09T09:13:08Z</time>
      </trkpt>
      <trkpt lat="47.558285" lon="2.2429428">
        <ele>186</ele>
        <time>2022-06-09T09:13:09Z</time>
      </trkpt>
      <trkpt lat="47.55829" lon="2.2429557">
        <ele>186</ele>
        <time>2022-06-09T09:13:10Z</time>
      </trkpt>
      <trkpt lat="47.5583" lon="2.242969">
        <ele>186</ele>
        <time>2022-06-09T09:13:11Z</time>
      </trkpt>
      <trkpt lat="47.558308" lon="2.2429793">
        <ele>186</ele>
        <time>2022-06-09T09:13:12Z</time>
      </trkpt>
      <trkpt lat="47.558315" lon="2.2429905">
        <ele>185</ele>
        <time>2022-06-09T09:13:13Z</time>
      </trkpt>
      <trkpt lat="47.558327" lon="2.2430036">
        <ele>185</ele>
        <time>2022-06-09T09:13:14Z</time>
      </trkpt>
      <trkpt lat="47.558334" lon="2.2430155">
        <ele>186</ele>
        <time>2022-06-09T09:13:15Z</time>
      </trkpt>
      <trkpt lat="47.558342" lon="2.2430277">
        <ele>186</ele>
        <time>2022-06-09T09:13:16Z</time>
      </trkpt>
      <trkpt lat="47.558353" lon="2.2430365">
        <ele>186</ele>
        <time>2022-06-09T09:13:17Z</time>
      </trkpt>
      <trkpt lat="47.55836" lon="2.2430506">
        <ele>186</ele>
        <time>2022-06-09T09:13:18Z</time>
      </trkpt>
      <trkpt lat="47.55837" lon="2.2430658">
        <ele>186</ele>
        <time>2022-06-09T09:13:19Z</time>
      </trkpt>
      <trkpt lat="47.558376" lon="2.2430782">
        <ele>186</ele>
        <time>2022-06-09T09:13:20Z</time>
      </trkpt>
      <trkpt lat="47.558384" lon="2.2430897">
        <ele>186</ele>
        <time>2022-06-09T09:13:21Z</time>
      </trkpt>
      <trkpt lat="47.558388" lon="2.2430992">
        <ele>186</ele>
        <time>2022-06-09T09:13:22Z</time>
      </trkpt>
      <trkpt lat="47.5584" lon="2.2431073">
        <ele>186</ele>
        <time>2022-06-09T09:13:23Z</time>
      </trkpt>
      <trkpt lat="47.558407" lon="2.2431192">
        <ele>186</ele>
        <time>2022-06-09T09:13:24Z</time>
      </trkpt>
      <trkpt lat="47.55842" lon="2.2431283">
        <ele>187</ele>
        <time>2022-06-09T09:13:25Z</time>
      </trkpt>
      <trkpt lat="47.558426" lon="2.2431386">
        <ele>187</ele>
        <time>2022-06-09T09:13:26Z</time>
      </trkpt>
      <trkpt lat="47.558434" lon="2.2431479">
        <ele>187</ele>
        <time>2022-06-09T09:13:27Z</time>
      </trkpt>
      <trkpt lat="47.558445" lon="2.2431571">
        <ele>187</ele>
        <time>2022-06-09T09:13:28Z</time>
      </trkpt>
      <trkpt lat="47.558456" lon="2.2431722">
        <ele>187</ele>
        <time>2022-06-09T09:13:29Z</time>
      </trkpt>
      <trkpt lat="47.558468" lon="2.2431862">
        <ele>186</ele>
        <time>2022-06-09T09:13:30Z</time>
      </trkpt>
      <trkpt lat="47.558475" lon="2.2432003">
        <ele>187</ele>
        <time>2022-06-09T09:13:31Z</time>
      </trkpt>
      <trkpt lat="47.558487" lon="2.2432127">
        <ele>187</ele>
        <time>2022-06-09T09:13:32Z</time>
      </trkpt>
      <trkpt lat="47.558495" lon="2.2432244">
        <ele>187</ele>
        <time>2022-06-09T09:13:33Z</time>
      </trkpt>
      <trkpt lat="47.5585" lon="2.243239">
        <ele>187</ele>
        <time>2022-06-09T09:13:34Z</time>
      </trkpt>
      <trkpt lat="47.558506" lon="2.2432554">
        <ele>187</ele>
        <time>2022-06-09T09:13:35Z</time>
      </trkpt>
      <trkpt lat="47.558514" lon="2.243271">
        <ele>187</ele>
        <time>2022-06-09T09:13:36Z</time>
      </trkpt>
      <trkpt lat="47.558517" lon="2.243286">
        <ele>187</ele>
        <time>2022-06-09T09:13:37Z</time>
      </trkpt>
      <trkpt lat="47.558525" lon="2.2432964">
        <ele>187</ele>
        <time>2022-06-09T09:13:38Z</time>
      </trkpt>
      <trkpt lat="47.558533" lon="2.2433116">
        <ele>186</ele>
        <time>2022-06-09T09:13:39Z</time>
      </trkpt>
      <trkpt lat="47.55854" lon="2.2433271">
        <ele>186</ele>
        <time>2022-06-09T09:13:40Z</time>
      </trkpt>
      <trkpt lat="47.558556" lon="2.243345">
        <ele>187</ele>
        <time>2022-06-09T09:13:41Z</time>
      </trkpt>
      <trkpt lat="47.558567" lon="2.2433527">
        <ele>186</ele>
        <time>2022-06-09T09:13:42Z</time>
      </trkpt>
      <trkpt lat="47.55858" lon="2.2433662">
        <ele>187</ele>
        <time>2022-06-09T09:13:43Z</time>
      </trkpt>
      <trkpt lat="47.558586" lon="2.2433825">
        <ele>187</ele>
        <time>2022-06-09T09:13:44Z</time>
      </trkpt>
      <trkpt lat="47.55859" lon="2.2433991">
        <ele>187</ele>
        <time>2022-06-09T09:13:45Z</time>
      </trkpt>
      <trkpt lat="47.558594" lon="2.2434142">
        <ele>187</ele>
        <time>2022-06-09T09:13:46Z</time>
      </trkpt>
      <trkpt lat="47.558598" lon="2.243427">
        <ele>188</ele>
        <time>2022-06-09T09:13:47Z</time>
      </trkpt>
      <trkpt lat="47.558605" lon="2.2434444">
        <ele>188</ele>
        <time>2022-06-09T09:13:48Z</time>
      </trkpt>
      <trkpt lat="47.558613" lon="2.2434597">
        <ele>188</ele>
        <time>2022-06-09T09:13:49Z</time>
      </trkpt>
      <trkpt lat="47.55862" lon="2.2434704">
        <ele>188</ele>
        <time>2022-06-09T09:13:50Z</time>
      </trkpt>
      <trkpt lat="47.55863" lon="2.2434816">
        <ele>187</ele>
        <time>2022-06-09T09:13:51Z</time>
      </trkpt>
      <trkpt lat="47.55864" lon="2.243493">
        <ele>187</ele>
        <time>2022-06-09T09:13:52Z</time>
      </trkpt>
      <trkpt lat="47.558647" lon="2.2435102">
        <ele>187</ele>
        <time>2022-06-09T09:13:53Z</time>
      </trkpt>
      <trkpt lat="47.55865" lon="2.2435274">
        <ele>187</ele>
        <time>2022-06-09T09:13:54Z</time>
      </trkpt>
      <trkpt lat="47.55866" lon="2.2435422">
        <ele>187</ele>
        <time>2022-06-09T09:13:55Z</time>
      </trkpt>
      <trkpt lat="47.558674" lon="2.243554">
        <ele>187</ele>
        <time>2022-06-09T09:13:56Z</time>
      </trkpt>
      <trkpt lat="47.558678" lon="2.2435615">
        <ele>187</ele>
        <time>2022-06-09T09:13:57Z</time>
      </trkpt>
      <trkpt lat="47.55868" lon="2.2435715">
        <ele>186</ele>
        <time>2022-06-09T09:13:58Z</time>
      </trkpt>
      <trkpt lat="47.558693" lon="2.2435803">
        <ele>186</ele>
        <time>2022-06-09T09:13:59Z</time>
      </trkpt>
      <trkpt lat="47.5587" lon="2.2435882">
        <ele>186</ele>
        <time>2022-06-09T09:14:00Z</time>
      </trkpt>
      <trkpt lat="47.558712" lon="2.243596">
        <ele>186</ele>
        <time>2022-06-09T09:14:01Z</time>
      </trkpt>
      <trkpt lat="47.558723" lon="2.2436097">
        <ele>186</ele>
        <time>2022-06-09T09:14:02Z</time>
      </trkpt>
      <trkpt lat="47.558727" lon="2.243627">
        <ele>186</ele>
        <time>2022-06-09T09:14:03Z</time>
      </trkpt>
      <trkpt lat="47.558735" lon="2.243641">
        <ele>186</ele>
        <time>2022-06-09T09:14:04Z</time>
      </trkpt>
      <trkpt lat="47.558746" lon="2.2436578">
        <ele>186</ele>
        <time>2022-06-09T09:14:05Z</time>
      </trkpt>
      <trkpt lat="47.558754" lon="2.2436728">
        <ele>186</ele>
        <time>2022-06-09T09:14:06Z</time>
      </trkpt>
      <trkpt lat="47.558765" lon="2.243688">
        <ele>186</ele>
        <time>2022-06-09T09:14:07Z</time>
      </trkpt>
      <trkpt lat="47.55877" lon="2.2437043">
        <ele>186</ele>
        <time>2022-06-09T09:14:08Z</time>
      </trkpt>
      <trkpt lat="47.558773" lon="2.2437153">
        <ele>186</ele>
        <time>2022-06-09T09:14:09Z</time>
      </trkpt>
      <trkpt lat="47.558777" lon="2.243728">
        <ele>185</ele>
        <time>2022-06-09T09:14:10Z</time>
      </trkpt>
      <trkpt lat="47.558784" lon="2.243742">
        <ele>185</ele>
        <time>2022-06-09T09:14:11Z</time>
      </trkpt>
      <trkpt lat="47.558792" lon="2.2437556">
        <ele>185</ele>
        <time>2022-06-09T09:14:12Z</time>
      </trkpt>
      <trkpt lat="47.5588" lon="2.243769">
        <ele>186</ele>
        <time>2022-06-09T09:14:13Z</time>
      </trkpt>
      <trkpt lat="47.558807" lon="2.2437818">
        <ele>186</ele>
        <time>2022-06-09T09:14:14Z</time>
      </trkpt>
      <trkpt lat="47.55882" lon="2.243793">
        <ele>186</ele>
        <time>2022-06-09T09:14:15Z</time>
      </trkpt>
      <trkpt lat="47.55883" lon="2.2438002">
        <ele>186</ele>
        <time>2022-06-09T09:14:16Z</time>
      </trkpt>
      <trkpt lat="47.55884" lon="2.2438095">
        <ele>186</ele>
        <time>2022-06-09T09:14:17Z</time>
      </trkpt>
      <trkpt lat="47.558846" lon="2.2438242">
        <ele>187</ele>
        <time>2022-06-09T09:14:18Z</time>
      </trkpt>
      <trkpt lat="47.558857" lon="2.2438378">
        <ele>187</ele>
        <time>2022-06-09T09:14:19Z</time>
      </trkpt>
      <trkpt lat="47.55887" lon="2.2438443">
        <ele>187</ele>
        <time>2022-06-09T09:14:20Z</time>
      </trkpt>
      <trkpt lat="47.55888" lon="2.243854">
        <ele>187</ele>
        <time>2022-06-09T09:14:21Z</time>
      </trkpt>
      <trkpt lat="47.558887" lon="2.243864">
        <ele>187</ele>
        <time>2022-06-09T09:14:22Z</time>
      </trkpt>
      <trkpt lat="47.5589" lon="2.243874">
        <ele>186</ele>
        <time>2022-06-09T09:14:23Z</time>
      </trkpt>
      <trkpt lat="47.558907" lon="2.2438843">
        <ele>186</ele>
        <time>2022-06-09T09:14:24Z</time>
      </trkpt>
      <trkpt lat="47.558914" lon="2.2438917">
        <ele>185</ele>
        <time>2022-06-09T09:14:25Z</time>
      </trkpt>
      <trkpt lat="47.558918" lon="2.2439044">
        <ele>186</ele>
        <time>2022-06-09T09:14:26Z</time>
      </trkpt>
      <trkpt lat="47.55893" lon="2.2439218">
        <ele>186</ele>
        <time>2022-06-09T09:14:27Z</time>
      </trkpt>
      <trkpt lat="47.558937" lon="2.2439387">
        <ele>186</ele>
        <time>2022-06-09T09:14:28Z</time>
      </trkpt>
      <trkpt lat="47.558945" lon="2.2439573">
        <ele>186</ele>
        <time>2022-06-09T09:14:29Z</time>
      </trkpt>
      <trkpt lat="47.558956" lon="2.2439713">
        <ele>186</ele>
        <time>2022-06-09T09:14:30Z</time>
      </trkpt>
      <trkpt lat="47.558964" lon="2.243984">
        <ele>187</ele>
        <time>2022-06-09T09:14:31Z</time>
      </trkpt>
      <trkpt lat="47.55897" lon="2.2439973">
        <ele>186</ele>
        <time>2022-06-09T09:14:32Z</time>
      </trkpt>
      <trkpt lat="47.55898" lon="2.24401">
        <ele>187</ele>
        <time>2022-06-09T09:14:33Z</time>
      </trkpt>
      <trkpt lat="47.558987" lon="2.244025">
        <ele>187</ele>
        <time>2022-06-09T09:14:34Z</time>
      </trkpt>
      <trkpt lat="47.558994" lon="2.24404">
        <ele>187</ele>
        <time>2022-06-09T09:14:35Z</time>
      </trkpt>
      <trkpt lat="47.559002" lon="2.2440546">
        <ele>187</ele>
        <time>2022-06-09T09:14:36Z</time>
      </trkpt>
      <trkpt lat="47.55901" lon="2.244069">
        <ele>187</ele>
        <time>2022-06-09T09:14:37Z</time>
      </trkpt>
      <trkpt lat="47.559017" lon="2.2440844">
        <ele>187</ele>
        <time>2022-06-09T09:14:38Z</time>
      </trkpt>
      <trkpt lat="47.559025" lon="2.2440958">
        <ele>187</ele>
        <time>2022-06-09T09:14:39Z</time>
      </trkpt>
      <trkpt lat="47.559036" lon="2.244111">
        <ele>187</ele>
        <time>2022-06-09T09:14:40Z</time>
      </trkpt>
      <trkpt lat="47.559048" lon="2.2441235">
        <ele>187</ele>
        <time>2022-06-09T09:14:41Z</time>
      </trkpt>
      <trkpt lat="47.559055" lon="2.2441363">
        <ele>187</ele>
        <time>2022-06-09T09:14:42Z</time>
      </trkpt>
      <trkpt lat="47.559063" lon="2.244144">
        <ele>187</ele>
        <time>2022-06-09T09:14:43Z</time>
      </trkpt>
      <trkpt lat="47.55907" lon="2.2441554">
        <ele>188</ele>
        <time>2022-06-09T09:14:44Z</time>
      </trkpt>
      <trkpt lat="47.559082" lon="2.2441642">
        <ele>188</ele>
        <time>2022-06-09T09:14:45Z</time>
      </trkpt>
      <trkpt lat="47.559097" lon="2.2441869">
        <ele>188</ele>
        <time>2022-06-09T09:14:46Z</time>
      </trkpt>
      <trkpt lat="47.559097" lon="2.2441869">
        <ele>188</ele>
        <time>2022-06-09T09:14:46Z</time>
      </trkpt>
      <trkpt lat="47.559105" lon="2.2442002">
        <ele>188</ele>
        <time>2022-06-09T09:14:48Z</time>
      </trkpt>
      <trkpt lat="47.55912" lon="2.244229">
        <ele>188</ele>
        <time>2022-06-09T09:14:49Z</time>
      </trkpt>
      <trkpt lat="47.55912" lon="2.244229">
        <ele>188</ele>
        <time>2022-06-09T09:14:49Z</time>
      </trkpt>
      <trkpt lat="47.559128" lon="2.244248">
        <ele>188</ele>
        <time>2022-06-09T09:14:51Z</time>
      </trkpt>
      <trkpt lat="47.55914" lon="2.2442598">
        <ele>188</ele>
        <time>2022-06-09T09:14:52Z</time>
      </trkpt>
      <trkpt lat="47.559143" lon="2.244272">
        <ele>188</ele>
        <time>2022-06-09T09:14:53Z</time>
      </trkpt>
      <trkpt lat="47.55915" lon="2.244286">
        <ele>188</ele>
        <time>2022-06-09T09:14:54Z</time>
      </trkpt>
      <trkpt lat="47.55916" lon="2.2442997">
        <ele>188</ele>
        <time>2022-06-09T09:14:55Z</time>
      </trkpt>
      <trkpt lat="47.55917" lon="2.244316">
        <ele>188</ele>
        <time>2022-06-09T09:14:56Z</time>
      </trkpt>
      <trkpt lat="47.55918" lon="2.2443297">
        <ele>188</ele>
        <time>2022-06-09T09:14:57Z</time>
      </trkpt>
      <trkpt lat="47.559193" lon="2.2443452">
        <ele>188</ele>
        <time>2022-06-09T09:14:58Z</time>
      </trkpt>
      <trkpt lat="47.559216" lon="2.2443671">
        <ele>188</ele>
        <time>2022-06-09T09:14:59Z</time>
      </trkpt>
      <trkpt lat="47.559216" lon="2.2443671">
        <ele>188</ele>
        <time>2022-06-09T09:14:59Z</time>
      </trkpt>
      <trkpt lat="47.55923" lon="2.2443924">
        <ele>188</ele>
        <time>2022-06-09T09:15:01Z</time>
      </trkpt>
      <trkpt lat="47.55923" lon="2.2443924">
        <ele>188</ele>
        <time>2022-06-09T09:15:01Z</time>
      </trkpt>
      <trkpt lat="47.559246" lon="2.24442">
        <ele>188</ele>
        <time>2022-06-09T09:15:03Z</time>
      </trkpt>
      <trkpt lat="47.559246" lon="2.24442">
        <ele>188</ele>
        <time>2022-06-09T09:15:03Z</time>
      </trkpt>
      <trkpt lat="47.559254" lon="2.2444317">
        <ele>188</ele>
        <time>2022-06-09T09:15:05Z</time>
      </trkpt>
      <trkpt lat="47.559265" lon="2.2444413">
        <ele>189</ele>
        <time>2022-06-09T09:15:06Z</time>
      </trkpt>
      <trkpt lat="47.559273" lon="2.2444506">
        <ele>189</ele>
        <time>2022-06-09T09:15:07Z</time>
      </trkpt>
      <trkpt lat="47.559284" lon="2.2444623">
        <ele>189</ele>
        <time>2022-06-09T09:15:08Z</time>
      </trkpt>
      <trkpt lat="47.55929" lon="2.2444723">
        <ele>189</ele>
        <time>2022-06-09T09:15:09Z</time>
      </trkpt>
      <trkpt lat="47.559303" lon="2.2444842">
        <ele>190</ele>
        <time>2022-06-09T09:15:10Z</time>
      </trkpt>
      <trkpt lat="47.559315" lon="2.2444954">
        <ele>190</ele>
        <time>2022-06-09T09:15:11Z</time>
      </trkpt>
      <trkpt lat="47.559326" lon="2.2445042">
        <ele>189</ele>
        <time>2022-06-09T09:15:12Z</time>
      </trkpt>
      <trkpt lat="47.559334" lon="2.2445157">
        <ele>189</ele>
        <time>2022-06-09T09:15:13Z</time>
      </trkpt>
      <trkpt lat="47.55935" lon="2.2445312">
        <ele>189</ele>
        <time>2022-06-09T09:15:14Z</time>
      </trkpt>
      <trkpt lat="47.55937" lon="2.2445595">
        <ele>190</ele>
        <time>2022-06-09T09:15:15Z</time>
      </trkpt>
      <trkpt lat="47.55937" lon="2.2445595">
        <ele>190</ele>
        <time>2022-06-09T09:15:15Z</time>
      </trkpt>
      <trkpt lat="47.55938" lon="2.2445834">
        <ele>190</ele>
        <time>2022-06-09T09:15:17Z</time>
      </trkpt>
      <trkpt lat="47.55938" lon="2.2445834">
        <ele>190</ele>
        <time>2022-06-09T09:15:17Z</time>
      </trkpt>
      <trkpt lat="47.559387" lon="2.2445977">
        <ele>190</ele>
        <time>2022-06-09T09:15:19Z</time>
      </trkpt>
      <trkpt lat="47.559395" lon="2.2446115">
        <ele>190</ele>
        <time>2022-06-09T09:15:20Z</time>
      </trkpt>
      <trkpt lat="47.559414" lon="2.244631">
        <ele>190</ele>
        <time>2022-06-09T09:15:21Z</time>
      </trkpt>
      <trkpt lat="47.559418" lon="2.2446394">
        <ele>190</ele>
        <time>2022-06-09T09:15:22Z</time>
      </trkpt>
      <trkpt lat="47.559425" lon="2.244649">
        <ele>190</ele>
        <time>2022-06-09T09:15:23Z</time>
      </trkpt>
      <trkpt lat="47.559425" lon="2.244649">
        <ele>190</ele>
        <time>2022-06-09T09:15:23Z</time>
      </trkpt>
      <trkpt lat="47.559444" lon="2.2446675">
        <ele>191</ele>
        <time>2022-06-09T09:15:25Z</time>
      </trkpt>
      <trkpt lat="47.559452" lon="2.2446737">
        <ele>190</ele>
        <time>2022-06-09T09:15:26Z</time>
      </trkpt>
      <trkpt lat="47.559467" lon="2.244688">
        <ele>190</ele>
        <time>2022-06-09T09:15:27Z</time>
      </trkpt>
      <trkpt lat="47.559475" lon="2.2447014">
        <ele>190</ele>
        <time>2022-06-09T09:15:28Z</time>
      </trkpt>
      <trkpt lat="47.559483" lon="2.2447224">
        <ele>190</ele>
        <time>2022-06-09T09:15:29Z</time>
      </trkpt>
      <trkpt lat="47.559483" lon="2.2447224">
        <ele>190</ele>
        <time>2022-06-09T09:15:29Z</time>
      </trkpt>
      <trkpt lat="47.559505" lon="2.244744">
        <ele>189</ele>
        <time>2022-06-09T09:15:31Z</time>
      </trkpt>
      <trkpt lat="47.559513" lon="2.2447557">
        <ele>188</ele>
        <time>2022-06-09T09:15:32Z</time>
      </trkpt>
      <trkpt lat="47.55952" lon="2.2447767">
        <ele>188</ele>
        <time>2022-06-09T09:15:33Z</time>
      </trkpt>
      <trkpt lat="47.55953" lon="2.2447937">
        <ele>188</ele>
        <time>2022-06-09T09:15:34Z</time>
      </trkpt>
      <trkpt lat="47.559532" lon="2.244811">
        <ele>188</ele>
        <time>2022-06-09T09:15:35Z</time>
      </trkpt>
      <trkpt lat="47.55954" lon="2.244823">
        <ele>188</ele>
        <time>2022-06-09T09:15:36Z</time>
      </trkpt>
      <trkpt lat="47.559544" lon="2.2448342">
        <ele>188</ele>
        <time>2022-06-09T09:15:37Z</time>
      </trkpt>
      <trkpt lat="47.559555" lon="2.2448459">
        <ele>189</ele>
        <time>2022-06-09T09:15:38Z</time>
      </trkpt>
      <trkpt lat="47.559566" lon="2.2448597">
        <ele>189</ele>
        <time>2022-06-09T09:15:39Z</time>
      </trkpt>
      <trkpt lat="47.559574" lon="2.2448773">
        <ele>188</ele>
        <time>2022-06-09T09:15:40Z</time>
      </trkpt>
      <trkpt lat="47.55958" lon="2.24489">
        <ele>188</ele>
        <time>2022-06-09T09:15:41Z</time>
      </trkpt>
      <trkpt lat="47.559586" lon="2.2449064">
        <ele>188</ele>
        <time>2022-06-09T09:15:42Z</time>
      </trkpt>
      <trkpt lat="47.559593" lon="2.2449229">
        <ele>188</ele>
        <time>2022-06-09T09:15:43Z</time>
      </trkpt>
      <trkpt lat="47.559605" lon="2.2449367">
        <ele>189</ele>
        <time>2022-06-09T09:15:44Z</time>
      </trkpt>
      <trkpt lat="47.55962" lon="2.2449555">
        <ele>188</ele>
        <time>2022-06-09T09:15:45Z</time>
      </trkpt>
      <trkpt lat="47.55963" lon="2.2449682">
        <ele>188</ele>
        <time>2022-06-09T09:15:46Z</time>
      </trkpt>
      <trkpt lat="47.559643" lon="2.2449827">
        <ele>188</ele>
        <time>2022-06-09T09:15:47Z</time>
      </trkpt>
      <trkpt lat="47.55965" lon="2.245">
        <ele>188</ele>
        <time>2022-06-09T09:15:48Z</time>
      </trkpt>
      <trkpt lat="47.55966" lon="2.245013">
        <ele>187</ele>
        <time>2022-06-09T09:15:49Z</time>
      </trkpt>
      <trkpt lat="47.55967" lon="2.2450242">
        <ele>187</ele>
        <time>2022-06-09T09:15:50Z</time>
      </trkpt>
      <trkpt lat="47.559677" lon="2.2450318">
        <ele>187</ele>
        <time>2022-06-09T09:15:51Z</time>
      </trkpt>
      <trkpt lat="47.559685" lon="2.2450435">
        <ele>187</ele>
        <time>2022-06-09T09:15:52Z</time>
      </trkpt>
      <trkpt lat="47.559692" lon="2.2450545">
        <ele>187</ele>
        <time>2022-06-09T09:15:53Z</time>
      </trkpt>
      <trkpt lat="47.559696" lon="2.2450624">
        <ele>187</ele>
        <time>2022-06-09T09:15:54Z</time>
      </trkpt>
      <trkpt lat="47.559708" lon="2.245073">
        <ele>187</ele>
        <time>2022-06-09T09:15:55Z</time>
      </trkpt>
      <trkpt lat="47.55971" lon="2.2450888">
        <ele>186</ele>
        <time>2022-06-09T09:15:56Z</time>
      </trkpt>
      <trkpt lat="47.559715" lon="2.2451072">
        <ele>185</ele>
        <time>2022-06-09T09:15:57Z</time>
      </trkpt>
      <trkpt lat="47.559723" lon="2.24512">
        <ele>185</ele>
        <time>2022-06-09T09:15:58Z</time>
      </trkpt>
      <trkpt lat="47.55973" lon="2.2451313">
        <ele>184</ele>
        <time>2022-06-09T09:15:59Z</time>
      </trkpt>
      <trkpt lat="47.559742" lon="2.2451444">
        <ele>184</ele>
        <time>2022-06-09T09:16:00Z</time>
      </trkpt>
      <trkpt lat="47.559746" lon="2.2451582">
        <ele>184</ele>
        <time>2022-06-09T09:16:01Z</time>
      </trkpt>
      <trkpt lat="47.55975" lon="2.2451742">
        <ele>183</ele>
        <time>2022-06-09T09:16:02Z</time>
      </trkpt>
      <trkpt lat="47.559757" lon="2.245187">
        <ele>182</ele>
        <time>2022-06-09T09:16:03Z</time>
      </trkpt>
      <trkpt lat="47.559772" lon="2.2452">
        <ele>182</ele>
        <time>2022-06-09T09:16:04Z</time>
      </trkpt>
      <trkpt lat="47.55978" lon="2.2452147">
        <ele>182</ele>
        <time>2022-06-09T09:16:05Z</time>
      </trkpt>
      <trkpt lat="47.559788" lon="2.2452333">
        <ele>182</ele>
        <time>2022-06-09T09:16:06Z</time>
      </trkpt>
      <trkpt lat="47.55979" lon="2.2452495">
        <ele>182</ele>
        <time>2022-06-09T09:16:07Z</time>
      </trkpt>
      <trkpt lat="47.5598" lon="2.2452624">
        <ele>183</ele>
        <time>2022-06-09T09:16:08Z</time>
      </trkpt>
      <trkpt lat="47.55981" lon="2.2452793">
        <ele>184</ele>
        <time>2022-06-09T09:16:09Z</time>
      </trkpt>
      <trkpt lat="47.559814" lon="2.2452955">
        <ele>184</ele>
        <time>2022-06-09T09:16:10Z</time>
      </trkpt>
      <trkpt lat="47.559822" lon="2.2453084">
        <ele>184</ele>
        <time>2022-06-09T09:16:11Z</time>
      </trkpt>
      <trkpt lat="47.55983" lon="2.245322">
        <ele>184</ele>
        <time>2022-06-09T09:16:12Z</time>
      </trkpt>
      <trkpt lat="47.55984" lon="2.2453332">
        <ele>184</ele>
        <time>2022-06-09T09:16:13Z</time>
      </trkpt>
      <trkpt lat="47.559845" lon="2.2453475">
        <ele>184</ele>
        <time>2022-06-09T09:16:14Z</time>
      </trkpt>
      <trkpt lat="47.559856" lon="2.2453575">
        <ele>184</ele>
        <time>2022-06-09T09:16:15Z</time>
      </trkpt>
      <trkpt lat="47.559864" lon="2.2453666">
        <ele>184</ele>
        <time>2022-06-09T09:16:16Z</time>
      </trkpt>
      <trkpt lat="47.55987" lon="2.2453794">
        <ele>184</ele>
        <time>2022-06-09T09:16:17Z</time>
      </trkpt>
      <trkpt lat="47.55988" lon="2.245391">
        <ele>185</ele>
        <time>2022-06-09T09:16:18Z</time>
      </trkpt>
      <trkpt lat="47.559883" lon="2.2454028">
        <ele>185</ele>
        <time>2022-06-09T09:16:19Z</time>
      </trkpt>
      <trkpt lat="47.559895" lon="2.2454126">
        <ele>185</ele>
        <time>2022-06-09T09:16:20Z</time>
      </trkpt>
      <trkpt lat="47.55991" lon="2.2454226">
        <ele>185</ele>
        <time>2022-06-09T09:16:21Z</time>
      </trkpt>
      <trkpt lat="47.559917" lon="2.245434">
        <ele>185</ele>
        <time>2022-06-09T09:16:22Z</time>
      </trkpt>
      <trkpt lat="47.559925" lon="2.2454474">
        <ele>185</ele>
        <time>2022-06-09T09:16:23Z</time>
      </trkpt>
      <trkpt lat="47.55993" lon="2.2454576">
        <ele>185</ele>
        <time>2022-06-09T09:16:24Z</time>
      </trkpt>
      <trkpt lat="47.559933" lon="2.245472">
        <ele>185</ele>
        <time>2022-06-09T09:16:25Z</time>
      </trkpt>
      <trkpt lat="47.55994" lon="2.245484">
        <ele>185</ele>
        <time>2022-06-09T09:16:26Z</time>
      </trkpt>
      <trkpt lat="47.55995" lon="2.2454958">
        <ele>185</ele>
        <time>2022-06-09T09:16:27Z</time>
      </trkpt>
      <trkpt lat="47.559967" lon="2.245504">
        <ele>184</ele>
        <time>2022-06-09T09:16:28Z</time>
      </trkpt>
      <trkpt lat="47.559975" lon="2.2455146">
        <ele>184</ele>
        <time>2022-06-09T09:16:29Z</time>
      </trkpt>
      <trkpt lat="47.55999" lon="2.2455282">
        <ele>184</ele>
        <time>2022-06-09T09:16:30Z</time>
      </trkpt>
      <trkpt lat="47.559998" lon="2.2455456">
        <ele>183</ele>
        <time>2022-06-09T09:16:31Z</time>
      </trkpt>
      <trkpt lat="47.560005" lon="2.2455623">
        <ele>182</ele>
        <time>2022-06-09T09:16:32Z</time>
      </trkpt>
      <trkpt lat="47.56002" lon="2.2455773">
        <ele>181</ele>
        <time>2022-06-09T09:16:33Z</time>
      </trkpt>
      <trkpt lat="47.560028" lon="2.245594">
        <ele>181</ele>
        <time>2022-06-09T09:16:34Z</time>
      </trkpt>
      <trkpt lat="47.560036" lon="2.2456076">
        <ele>181</ele>
        <time>2022-06-09T09:16:35Z</time>
      </trkpt>
      <trkpt lat="47.560047" lon="2.2456253">
        <ele>180</ele>
        <time>2022-06-09T09:16:36Z</time>
      </trkpt>
      <trkpt lat="47.560055" lon="2.2456405">
        <ele>180</ele>
        <time>2022-06-09T09:16:37Z</time>
      </trkpt>
      <trkpt lat="47.560062" lon="2.245661">
        <ele>180</ele>
        <time>2022-06-09T09:16:38Z</time>
      </trkpt>
      <trkpt lat="47.560066" lon="2.245679">
        <ele>180</ele>
        <time>2022-06-09T09:16:39Z</time>
      </trkpt>
      <trkpt lat="47.560074" lon="2.2456958">
        <ele>180</ele>
        <time>2022-06-09T09:16:40Z</time>
      </trkpt>
      <trkpt lat="47.560085" lon="2.2457118">
        <ele>179</ele>
        <time>2022-06-09T09:16:41Z</time>
      </trkpt>
      <trkpt lat="47.56009" lon="2.2457309">
        <ele>179</ele>
        <time>2022-06-09T09:16:42Z</time>
      </trkpt>
      <trkpt lat="47.5601" lon="2.2457497">
        <ele>179</ele>
        <time>2022-06-09T09:16:43Z</time>
      </trkpt>
      <trkpt lat="47.560104" lon="2.245764">
        <ele>179</ele>
        <time>2022-06-09T09:16:44Z</time>
      </trkpt>
      <trkpt lat="47.560116" lon="2.2457743">
        <ele>180</ele>
        <time>2022-06-09T09:16:45Z</time>
      </trkpt>
      <trkpt lat="47.560123" lon="2.2457905">
        <ele>180</ele>
        <time>2022-06-09T09:16:46Z</time>
      </trkpt>
      <trkpt lat="47.56013" lon="2.245806">
        <ele>180</ele>
        <time>2022-06-09T09:16:47Z</time>
      </trkpt>
      <trkpt lat="47.560135" lon="2.2458189">
        <ele>180</ele>
        <time>2022-06-09T09:16:48Z</time>
      </trkpt>
      <trkpt lat="47.56013" lon="2.2458324">
        <ele>180</ele>
        <time>2022-06-09T09:16:49Z</time>
      </trkpt>
      <trkpt lat="47.56014" lon="2.245849">
        <ele>180</ele>
        <time>2022-06-09T09:16:50Z</time>
      </trkpt>
      <trkpt lat="47.560146" lon="2.2458603">
        <ele>180</ele>
        <time>2022-06-09T09:16:51Z</time>
      </trkpt>
      <trkpt lat="47.56015" lon="2.2458725">
        <ele>180</ele>
        <time>2022-06-09T09:16:52Z</time>
      </trkpt>
      <trkpt lat="47.560154" lon="2.2458847">
        <ele>181</ele>
        <time>2022-06-09T09:16:53Z</time>
      </trkpt>
      <trkpt lat="47.560165" lon="2.2458947">
        <ele>181</ele>
        <time>2022-06-09T09:16:54Z</time>
      </trkpt>
      <trkpt lat="47.560173" lon="2.2459052">
        <ele>181</ele>
        <time>2022-06-09T09:16:55Z</time>
      </trkpt>
      <trkpt lat="47.560184" lon="2.2459145">
        <ele>182</ele>
        <time>2022-06-09T09:16:56Z</time>
      </trkpt>
      <trkpt lat="47.560196" lon="2.2459226">
        <ele>181</ele>
        <time>2022-06-09T09:16:57Z</time>
      </trkpt>
      <trkpt lat="47.560204" lon="2.2459328">
        <ele>182</ele>
        <time>2022-06-09T09:16:58Z</time>
      </trkpt>
      <trkpt lat="47.56021" lon="2.2459438">
        <ele>181</ele>
        <time>2022-06-09T09:16:59Z</time>
      </trkpt>
      <trkpt lat="47.56022" lon="2.245955">
        <ele>181</ele>
        <time>2022-06-09T09:17:00Z</time>
      </trkpt>
      <trkpt lat="47.560226" lon="2.2459724">
        <ele>181</ele>
        <time>2022-06-09T09:17:01Z</time>
      </trkpt>
      <trkpt lat="47.56023" lon="2.245987">
        <ele>182</ele>
        <time>2022-06-09T09:17:02Z</time>
      </trkpt>
      <trkpt lat="47.56024" lon="2.2460034">
        <ele>181</ele>
        <time>2022-06-09T09:17:03Z</time>
      </trkpt>
      <trkpt lat="47.560253" lon="2.2460105">
        <ele>182</ele>
        <time>2022-06-09T09:17:04Z</time>
      </trkpt>
      <trkpt lat="47.56026" lon="2.2460232">
        <ele>181</ele>
        <time>2022-06-09T09:17:05Z</time>
      </trkpt>
      <trkpt lat="47.56027" lon="2.2460315">
        <ele>182</ele>
        <time>2022-06-09T09:17:06Z</time>
      </trkpt>
      <trkpt lat="47.560276" lon="2.246043">
        <ele>181</ele>
        <time>2022-06-09T09:17:07Z</time>
      </trkpt>
      <trkpt lat="47.560287" lon="2.2460573">
        <ele>181</ele>
        <time>2022-06-09T09:17:08Z</time>
      </trkpt>
      <trkpt lat="47.560295" lon="2.2460666">
        <ele>181</ele>
        <time>2022-06-09T09:17:09Z</time>
      </trkpt>
      <trkpt lat="47.5603" lon="2.2460823">
        <ele>181</ele>
        <time>2022-06-09T09:17:10Z</time>
      </trkpt>
      <trkpt lat="47.560307" lon="2.2460935">
        <ele>181</ele>
        <time>2022-06-09T09:17:11Z</time>
      </trkpt>
      <trkpt lat="47.560318" lon="2.2461047">
        <ele>181</ele>
        <time>2022-06-09T09:17:12Z</time>
      </trkpt>
      <trkpt lat="47.56033" lon="2.2461112">
        <ele>181</ele>
        <time>2022-06-09T09:17:13Z</time>
      </trkpt>
      <trkpt lat="47.560345" lon="2.246117">
        <ele>181</ele>
        <time>2022-06-09T09:17:14Z</time>
      </trkpt>
      <trkpt lat="47.560356" lon="2.246127">
        <ele>182</ele>
        <time>2022-06-09T09:17:15Z</time>
      </trkpt>
      <trkpt lat="47.560364" lon="2.2461417">
        <ele>182</ele>
        <time>2022-06-09T09:17:16Z</time>
      </trkpt>
      <trkpt lat="47.56037" lon="2.2461586">
        <ele>182</ele>
        <time>2022-06-09T09:17:17Z</time>
      </trkpt>
      <trkpt lat="47.56038" lon="2.2461674">
        <ele>181</ele>
        <time>2022-06-09T09:17:18Z</time>
      </trkpt>
      <trkpt lat="47.56039" lon="2.2461777">
        <ele>181</ele>
        <time>2022-06-09T09:17:19Z</time>
      </trkpt>
      <trkpt lat="47.5604" lon="2.2461898">
        <ele>181</ele>
        <time>2022-06-09T09:17:20Z</time>
      </trkpt>
      <trkpt lat="47.560406" lon="2.2462032">
        <ele>181</ele>
        <time>2022-06-09T09:17:21Z</time>
      </trkpt>
      <trkpt lat="47.560413" lon="2.2462192">
        <ele>181</ele>
        <time>2022-06-09T09:17:22Z</time>
      </trkpt>
      <trkpt lat="47.560425" lon="2.246238">
        <ele>181</ele>
        <time>2022-06-09T09:17:23Z</time>
      </trkpt>
      <trkpt lat="47.560436" lon="2.246252">
        <ele>181</ele>
        <time>2022-06-09T09:17:24Z</time>
      </trkpt>
      <trkpt lat="47.56044" lon="2.2462642">
        <ele>181</ele>
        <time>2022-06-09T09:17:25Z</time>
      </trkpt>
      <trkpt lat="47.560444" lon="2.2462845">
        <ele>182</ele>
        <time>2022-06-09T09:17:26Z</time>
      </trkpt>
      <trkpt lat="47.56045" lon="2.2462993">
        <ele>181</ele>
        <time>2022-06-09T09:17:27Z</time>
      </trkpt>
      <trkpt lat="47.56046" lon="2.246312">
        <ele>182</ele>
        <time>2022-06-09T09:17:28Z</time>
      </trkpt>
      <trkpt lat="47.560463" lon="2.2463243">
        <ele>182</ele>
        <time>2022-06-09T09:17:29Z</time>
      </trkpt>
      <trkpt lat="47.56047" lon="2.246336">
        <ele>182</ele>
        <time>2022-06-09T09:17:30Z</time>
      </trkpt>
      <trkpt lat="47.56048" lon="2.2463474">
        <ele>182</ele>
        <time>2022-06-09T09:17:31Z</time>
      </trkpt>
      <trkpt lat="47.56049" lon="2.2463572">
        <ele>183</ele>
        <time>2022-06-09T09:17:32Z</time>
      </trkpt>
      <trkpt lat="47.5605" lon="2.2463634">
        <ele>183</ele>
        <time>2022-06-09T09:17:33Z</time>
      </trkpt>
      <trkpt lat="47.56051" lon="2.2463727">
        <ele>183</ele>
        <time>2022-06-09T09:17:34Z</time>
      </trkpt>
      <trkpt lat="47.560516" lon="2.2463808">
        <ele>183</ele>
        <time>2022-06-09T09:17:35Z</time>
      </trkpt>
      <trkpt lat="47.560528" lon="2.246393">
        <ele>184</ele>
        <time>2022-06-09T09:17:36Z</time>
      </trkpt>
      <trkpt lat="47.560535" lon="2.2464018">
        <ele>184</ele>
        <time>2022-06-09T09:17:37Z</time>
      </trkpt>
      <trkpt lat="47.560543" lon="2.2464163">
        <ele>184</ele>
        <time>2022-06-09T09:17:38Z</time>
      </trkpt>
      <trkpt lat="47.56055" lon="2.2464318">
        <ele>184</ele>
        <time>2022-06-09T09:17:39Z</time>
      </trkpt>
      <trkpt lat="47.56056" lon="2.2464435">
        <ele>184</ele>
        <time>2022-06-09T09:17:40Z</time>
      </trkpt>
      <trkpt lat="47.560562" lon="2.246458">
        <ele>184</ele>
        <time>2022-06-09T09:17:41Z</time>
      </trkpt>
      <trkpt lat="47.56057" lon="2.2464733">
        <ele>184</ele>
        <time>2022-06-09T09:17:42Z</time>
      </trkpt>
      <trkpt lat="47.560574" lon="2.246488">
        <ele>184</ele>
        <time>2022-06-09T09:17:43Z</time>
      </trkpt>
      <trkpt lat="47.560577" lon="2.2465067">
        <ele>184</ele>
        <time>2022-06-09T09:17:44Z</time>
      </trkpt>
      <trkpt lat="47.560585" lon="2.246523">
        <ele>184</ele>
        <time>2022-06-09T09:17:45Z</time>
      </trkpt>
      <trkpt lat="47.56059" lon="2.246539">
        <ele>183</ele>
        <time>2022-06-09T09:17:46Z</time>
      </trkpt>
      <trkpt lat="47.560596" lon="2.2465508">
        <ele>183</ele>
        <time>2022-06-09T09:17:47Z</time>
      </trkpt>
      <trkpt lat="47.560604" lon="2.2465613">
        <ele>183</ele>
        <time>2022-06-09T09:17:48Z</time>
      </trkpt>
      <trkpt lat="47.56061" lon="2.2465715">
        <ele>183</ele>
        <time>2022-06-09T09:17:49Z</time>
      </trkpt>
      <trkpt lat="47.56062" lon="2.2465816">
        <ele>183</ele>
        <time>2022-06-09T09:17:50Z</time>
      </trkpt>
      <trkpt lat="47.560627" lon="2.246597">
        <ele>183</ele>
        <time>2022-06-09T09:17:51Z</time>
      </trkpt>
      <trkpt lat="47.560635" lon="2.24661">
        <ele>183</ele>
        <time>2022-06-09T09:17:52Z</time>
      </trkpt>
      <trkpt lat="47.560646" lon="2.2466204">
        <ele>183</ele>
        <time>2022-06-09T09:17:53Z</time>
      </trkpt>
      <trkpt lat="47.56065" lon="2.246629">
        <ele>182</ele>
        <time>2022-06-09T09:17:54Z</time>
      </trkpt>
      <trkpt lat="47.56066" lon="2.2466395">
        <ele>182</ele>
        <time>2022-06-09T09:17:55Z</time>
      </trkpt>
      <trkpt lat="47.56067" lon="2.2466502">
        <ele>182</ele>
        <time>2022-06-09T09:17:56Z</time>
      </trkpt>
      <trkpt lat="47.56068" lon="2.2466598">
        <ele>182</ele>
        <time>2022-06-09T09:17:57Z</time>
      </trkpt>
      <trkpt lat="47.560688" lon="2.246674">
        <ele>182</ele>
        <time>2022-06-09T09:17:58Z</time>
      </trkpt>
      <trkpt lat="47.560696" lon="2.2466874">
        <ele>182</ele>
        <time>2022-06-09T09:17:59Z</time>
      </trkpt>
      <trkpt lat="47.560707" lon="2.2467017">
        <ele>182</ele>
        <time>2022-06-09T09:18:00Z</time>
      </trkpt>
      <trkpt lat="47.560715" lon="2.2467134">
        <ele>182</ele>
        <time>2022-06-09T09:18:01Z</time>
      </trkpt>
      <trkpt lat="47.56072" lon="2.2467282">
        <ele>182</ele>
        <time>2022-06-09T09:18:02Z</time>
      </trkpt>
      <trkpt lat="47.560726" lon="2.2467394">
        <ele>182</ele>
        <time>2022-06-09T09:18:03Z</time>
      </trkpt>
      <trkpt lat="47.560738" lon="2.2467508">
        <ele>182</ele>
        <time>2022-06-09T09:18:04Z</time>
      </trkpt>
      <trkpt lat="47.56074" lon="2.246763">
        <ele>182</ele>
        <time>2022-06-09T09:18:05Z</time>
      </trkpt>
      <trkpt lat="47.56075" lon="2.2467756">
        <ele>182</ele>
        <time>2022-06-09T09:18:06Z</time>
      </trkpt>
      <trkpt lat="47.560753" lon="2.2467859">
        <ele>182</ele>
        <time>2022-06-09T09:18:07Z</time>
      </trkpt>
      <trkpt lat="47.56076" lon="2.2467973">
        <ele>182</ele>
        <time>2022-06-09T09:18:08Z</time>
      </trkpt>
      <trkpt lat="47.560764" lon="2.246811">
        <ele>182</ele>
        <time>2022-06-09T09:18:09Z</time>
      </trkpt>
      <trkpt lat="47.560772" lon="2.2468216">
        <ele>182</ele>
        <time>2022-06-09T09:18:10Z</time>
      </trkpt>
      <trkpt lat="47.560787" lon="2.2468238">
        <ele>183</ele>
        <time>2022-06-09T09:18:11Z</time>
      </trkpt>
      <trkpt lat="47.5608" lon="2.2468255">
        <ele>183</ele>
        <time>2022-06-09T09:18:12Z</time>
      </trkpt>
      <trkpt lat="47.560814" lon="2.246836">
        <ele>183</ele>
        <time>2022-06-09T09:18:13Z</time>
      </trkpt>
      <trkpt lat="47.560825" lon="2.246846">
        <ele>183</ele>
        <time>2022-06-09T09:18:14Z</time>
      </trkpt>
      <trkpt lat="47.560833" lon="2.246858">
        <ele>183</ele>
        <time>2022-06-09T09:18:15Z</time>
      </trkpt>
      <trkpt lat="47.56084" lon="2.246868">
        <ele>183</ele>
        <time>2022-06-09T09:18:16Z</time>
      </trkpt>
      <trkpt lat="47.560852" lon="2.246878">
        <ele>183</ele>
        <time>2022-06-09T09:18:17Z</time>
      </trkpt>
      <trkpt lat="47.56086" lon="2.2468903">
        <ele>183</ele>
        <time>2022-06-09T09:18:18Z</time>
      </trkpt>
      <trkpt lat="47.560867" lon="2.2469006">
        <ele>183</ele>
        <time>2022-06-09T09:18:19Z</time>
      </trkpt>
      <trkpt lat="47.56088" lon="2.2469082">
        <ele>183</ele>
        <time>2022-06-09T09:18:20Z</time>
      </trkpt>
      <trkpt lat="47.560886" lon="2.246924">
        <ele>183</ele>
        <time>2022-06-09T09:18:21Z</time>
      </trkpt>
      <trkpt lat="47.560898" lon="2.2469363">
        <ele>182</ele>
        <time>2022-06-09T09:18:22Z</time>
      </trkpt>
      <trkpt lat="47.5609" lon="2.246954">
        <ele>183</ele>
        <time>2022-06-09T09:18:23Z</time>
      </trkpt>
      <trkpt lat="47.560913" lon="2.2469687">
        <ele>183</ele>
        <time>2022-06-09T09:18:24Z</time>
      </trkpt>
      <trkpt lat="47.560925" lon="2.2469788">
        <ele>183</ele>
        <time>2022-06-09T09:18:25Z</time>
      </trkpt>
      <trkpt lat="47.560932" lon="2.246994">
        <ele>183</ele>
        <time>2022-06-09T09:18:26Z</time>
      </trkpt>
      <trkpt lat="47.56094" lon="2.2470007">
        <ele>183</ele>
        <time>2022-06-09T09:18:27Z</time>
      </trkpt>
      <trkpt lat="47.560947" lon="2.2470064">
        <ele>183</ele>
        <time>2022-06-09T09:18:28Z</time>
      </trkpt>
      <trkpt lat="47.560955" lon="2.247015">
        <ele>183</ele>
        <time>2022-06-09T09:18:29Z</time>
      </trkpt>
      <trkpt lat="47.560963" lon="2.2470248">
        <ele>183</ele>
        <time>2022-06-09T09:18:30Z</time>
      </trkpt>
      <trkpt lat="47.560966" lon="2.2470338">
        <ele>183</ele>
        <time>2022-06-09T09:18:31Z</time>
      </trkpt>
      <trkpt lat="47.560974" lon="2.2470467">
        <ele>183</ele>
        <time>2022-06-09T09:18:32Z</time>
      </trkpt>
      <trkpt lat="47.560974" lon="2.2470636">
        <ele>183</ele>
        <time>2022-06-09T09:18:33Z</time>
      </trkpt>
      <trkpt lat="47.560978" lon="2.2470794">
        <ele>183</ele>
        <time>2022-06-09T09:18:34Z</time>
      </trkpt>
      <trkpt lat="47.56098" lon="2.2470903">
        <ele>184</ele>
        <time>2022-06-09T09:18:35Z</time>
      </trkpt>
      <trkpt lat="47.56099" lon="2.247104">
        <ele>184</ele>
        <time>2022-06-09T09:18:36Z</time>
      </trkpt>
      <trkpt lat="47.56099" lon="2.247114">
        <ele>184</ele>
        <time>2022-06-09T09:18:37Z</time>
      </trkpt>
      <trkpt lat="47.560997" lon="2.2471266">
        <ele>183</ele>
        <time>2022-06-09T09:18:38Z</time>
      </trkpt>
      <trkpt lat="47.561" lon="2.2471383">
        <ele>183</ele>
        <time>2022-06-09T09:18:39Z</time>
      </trkpt>
      <trkpt lat="47.561012" lon="2.247156">
        <ele>184</ele>
        <time>2022-06-09T09:18:40Z</time>
      </trkpt>
      <trkpt lat="47.561024" lon="2.2471771">
        <ele>184</ele>
        <time>2022-06-09T09:18:41Z</time>
      </trkpt>
      <trkpt lat="47.56103" lon="2.24719">
        <ele>184</ele>
        <time>2022-06-09T09:18:42Z</time>
      </trkpt>
      <trkpt lat="47.56104" lon="2.2472022">
        <ele>184</ele>
        <time>2022-06-09T09:18:43Z</time>
      </trkpt>
      <trkpt lat="47.561043" lon="2.2472136">
        <ele>184</ele>
        <time>2022-06-09T09:18:44Z</time>
      </trkpt>
      <trkpt lat="47.56105" lon="2.2472265">
        <ele>184</ele>
        <time>2022-06-09T09:18:45Z</time>
      </trkpt>
      <trkpt lat="47.561058" lon="2.2472377">
        <ele>184</ele>
        <time>2022-06-09T09:18:46Z</time>
      </trkpt>
      <trkpt lat="47.561058" lon="2.2472546">
        <ele>184</ele>
        <time>2022-06-09T09:18:47Z</time>
      </trkpt>
      <trkpt lat="47.561066" lon="2.2472692">
        <ele>184</ele>
        <time>2022-06-09T09:18:48Z</time>
      </trkpt>
      <trkpt lat="47.561073" lon="2.2472806">
        <ele>184</ele>
        <time>2022-06-09T09:18:49Z</time>
      </trkpt>
      <trkpt lat="47.561077" lon="2.247297">
        <ele>184</ele>
        <time>2022-06-09T09:18:50Z</time>
      </trkpt>
      <trkpt lat="47.561085" lon="2.2473102">
        <ele>184</ele>
        <time>2022-06-09T09:18:51Z</time>
      </trkpt>
      <trkpt lat="47.561092" lon="2.2473314">
        <ele>184</ele>
        <time>2022-06-09T09:18:52Z</time>
      </trkpt>
      <trkpt lat="47.5611" lon="2.2473533">
        <ele>184</ele>
        <time>2022-06-09T09:18:53Z</time>
      </trkpt>
      <trkpt lat="47.561104" lon="2.2473676">
        <ele>184</ele>
        <time>2022-06-09T09:18:54Z</time>
      </trkpt>
      <trkpt lat="47.561108" lon="2.2473774">
        <ele>184</ele>
        <time>2022-06-09T09:18:55Z</time>
      </trkpt>
      <trkpt lat="47.561108" lon="2.2473922">
        <ele>184</ele>
        <time>2022-06-09T09:18:56Z</time>
      </trkpt>
      <trkpt lat="47.561115" lon="2.2474012">
        <ele>184</ele>
        <time>2022-06-09T09:18:57Z</time>
      </trkpt>
      <trkpt lat="47.561123" lon="2.2474096">
        <ele>184</ele>
        <time>2022-06-09T09:18:58Z</time>
      </trkpt>
      <trkpt lat="47.561127" lon="2.2474198">
        <ele>184</ele>
        <time>2022-06-09T09:18:59Z</time>
      </trkpt>
      <trkpt lat="47.561127" lon="2.2474332">
        <ele>184</ele>
        <time>2022-06-09T09:19:00Z</time>
      </trkpt>
      <trkpt lat="47.561134" lon="2.2474487">
        <ele>184</ele>
        <time>2022-06-09T09:19:01Z</time>
      </trkpt>
      <trkpt lat="47.56114" lon="2.2474637">
        <ele>184</ele>
        <time>2022-06-09T09:19:02Z</time>
      </trkpt>
      <trkpt lat="47.561142" lon="2.2474773">
        <ele>184</ele>
        <time>2022-06-09T09:19:03Z</time>
      </trkpt>
      <trkpt lat="47.561146" lon="2.2474875">
        <ele>184</ele>
        <time>2022-06-09T09:19:04Z</time>
      </trkpt>
      <trkpt lat="47.56115" lon="2.2475066">
        <ele>185</ele>
        <time>2022-06-09T09:19:05Z</time>
      </trkpt>
      <trkpt lat="47.561153" lon="2.2475238">
        <ele>185</ele>
        <time>2022-06-09T09:19:06Z</time>
      </trkpt>
      <trkpt lat="47.56116" lon="2.2475436">
        <ele>184</ele>
        <time>2022-06-09T09:19:07Z</time>
      </trkpt>
      <trkpt lat="47.56116" lon="2.2475612">
        <ele>184</ele>
        <time>2022-06-09T09:19:08Z</time>
      </trkpt>
      <trkpt lat="47.561165" lon="2.2475758">
        <ele>183</ele>
        <time>2022-06-09T09:19:09Z</time>
      </trkpt>
      <trkpt lat="47.56117" lon="2.2475946">
        <ele>183</ele>
        <time>2022-06-09T09:19:10Z</time>
      </trkpt>
      <trkpt lat="47.561176" lon="2.2476158">
        <ele>182</ele>
        <time>2022-06-09T09:19:11Z</time>
      </trkpt>
      <trkpt lat="47.561184" lon="2.2476375">
        <ele>182</ele>
        <time>2022-06-09T09:19:12Z</time>
      </trkpt>
      <trkpt lat="47.56119" lon="2.2476518">
        <ele>182</ele>
        <time>2022-06-09T09:19:13Z</time>
      </trkpt>
      <trkpt lat="47.561195" lon="2.2476668">
        <ele>182</ele>
        <time>2022-06-09T09:19:14Z</time>
      </trkpt>
      <trkpt lat="47.561203" lon="2.2476833">
        <ele>182</ele>
        <time>2022-06-09T09:19:15Z</time>
      </trkpt>
      <trkpt lat="47.561207" lon="2.2477024">
        <ele>182</ele>
        <time>2022-06-09T09:19:16Z</time>
      </trkpt>
      <trkpt lat="47.561207" lon="2.2477186">
        <ele>182</ele>
        <time>2022-06-09T09:19:17Z</time>
      </trkpt>
      <trkpt lat="47.56121" lon="2.247737">
        <ele>182</ele>
        <time>2022-06-09T09:19:18Z</time>
      </trkpt>
      <trkpt lat="47.561214" lon="2.2477508">
        <ele>183</ele>
        <time>2022-06-09T09:19:19Z</time>
      </trkpt>
      <trkpt lat="47.56122" lon="2.2477655">
        <ele>183</ele>
        <time>2022-06-09T09:19:20Z</time>
      </trkpt>
      <trkpt lat="47.561226" lon="2.2477772">
        <ele>183</ele>
        <time>2022-06-09T09:19:21Z</time>
      </trkpt>
      <trkpt lat="47.56123" lon="2.2477932">
        <ele>183</ele>
        <time>2022-06-09T09:19:22Z</time>
      </trkpt>
      <trkpt lat="47.561234" lon="2.247807">
        <ele>183</ele>
        <time>2022-06-09T09:19:23Z</time>
      </trkpt>
      <trkpt lat="47.561234" lon="2.2478213">
        <ele>183</ele>
        <time>2022-06-09T09:19:24Z</time>
      </trkpt>
      <trkpt lat="47.561237" lon="2.2478344">
        <ele>184</ele>
        <time>2022-06-09T09:19:25Z</time>
      </trkpt>
      <trkpt lat="47.561245" lon="2.247847">
        <ele>184</ele>
        <time>2022-06-09T09:19:26Z</time>
      </trkpt>
      <trkpt lat="47.561245" lon="2.2478654">
        <ele>184</ele>
        <time>2022-06-09T09:19:27Z</time>
      </trkpt>
      <trkpt lat="47.561253" lon="2.2478802">
        <ele>184</ele>
        <time>2022-06-09T09:19:28Z</time>
      </trkpt>
      <trkpt lat="47.561256" lon="2.2478964">
        <ele>184</ele>
        <time>2022-06-09T09:19:29Z</time>
      </trkpt>
      <trkpt lat="47.56126" lon="2.2479093">
        <ele>184</ele>
        <time>2022-06-09T09:19:30Z</time>
      </trkpt>
      <trkpt lat="47.56127" lon="2.2479281">
        <ele>185</ele>
        <time>2022-06-09T09:19:31Z</time>
      </trkpt>
      <trkpt lat="47.56128" lon="2.2479396">
        <ele>185</ele>
        <time>2022-06-09T09:19:32Z</time>
      </trkpt>
      <trkpt lat="47.561283" lon="2.2479541">
        <ele>185</ele>
        <time>2022-06-09T09:19:33Z</time>
      </trkpt>
      <trkpt lat="47.561287" lon="2.2479734">
        <ele>184</ele>
        <time>2022-06-09T09:19:34Z</time>
      </trkpt>
      <trkpt lat="47.561295" lon="2.2479925">
        <ele>184</ele>
        <time>2022-06-09T09:19:35Z</time>
      </trkpt>
      <trkpt lat="47.5613" lon="2.248008">
        <ele>184</ele>
        <time>2022-06-09T09:19:36Z</time>
      </trkpt>
      <trkpt lat="47.561306" lon="2.248021">
        <ele>184</ele>
        <time>2022-06-09T09:19:37Z</time>
      </trkpt>
      <trkpt lat="47.56131" lon="2.2480352">
        <ele>183</ele>
        <time>2022-06-09T09:19:38Z</time>
      </trkpt>
      <trkpt lat="47.561314" lon="2.2480488">
        <ele>183</ele>
        <time>2022-06-09T09:19:39Z</time>
      </trkpt>
      <trkpt lat="47.561317" lon="2.2480643">
        <ele>183</ele>
        <time>2022-06-09T09:19:40Z</time>
      </trkpt>
      <trkpt lat="47.561325" lon="2.2480798">
        <ele>183</ele>
        <time>2022-06-09T09:19:41Z</time>
      </trkpt>
      <trkpt lat="47.561333" lon="2.2481027">
        <ele>182</ele>
        <time>2022-06-09T09:19:42Z</time>
      </trkpt>
      <trkpt lat="47.56134" lon="2.2481189">
        <ele>182</ele>
        <time>2022-06-09T09:19:43Z</time>
      </trkpt>
      <trkpt lat="47.561344" lon="2.2481403">
        <ele>182</ele>
        <time>2022-06-09T09:19:44Z</time>
      </trkpt>
      <trkpt lat="47.561348" lon="2.2481608">
        <ele>182</ele>
        <time>2022-06-09T09:19:45Z</time>
      </trkpt>
      <trkpt lat="47.561356" lon="2.2481723">
        <ele>182</ele>
        <time>2022-06-09T09:19:46Z</time>
      </trkpt>
      <trkpt lat="47.56136" lon="2.2481868">
        <ele>181</ele>
        <time>2022-06-09T09:19:47Z</time>
      </trkpt>
      <trkpt lat="47.56137" lon="2.2482038">
        <ele>180</ele>
        <time>2022-06-09T09:19:48Z</time>
      </trkpt>
      <trkpt lat="47.561375" lon="2.2482212">
        <ele>179</ele>
        <time>2022-06-09T09:19:49Z</time>
      </trkpt>
      <trkpt lat="47.561382" lon="2.2482393">
        <ele>179</ele>
        <time>2022-06-09T09:19:50Z</time>
      </trkpt>
      <trkpt lat="47.56139" lon="2.2482564">
        <ele>179</ele>
        <time>2022-06-09T09:19:51Z</time>
      </trkpt>
      <trkpt lat="47.561398" lon="2.2482736">
        <ele>179</ele>
        <time>2022-06-09T09:19:52Z</time>
      </trkpt>
      <trkpt lat="47.561405" lon="2.2482898">
        <ele>179</ele>
        <time>2022-06-09T09:19:53Z</time>
      </trkpt>
      <trkpt lat="47.561417" lon="2.2483068">
        <ele>178</ele>
        <time>2022-06-09T09:19:54Z</time>
      </trkpt>
      <trkpt lat="47.561428" lon="2.2483227">
        <ele>178</ele>
        <time>2022-06-09T09:19:55Z</time>
      </trkpt>
      <trkpt lat="47.56144" lon="2.248337">
        <ele>178</ele>
        <time>2022-06-09T09:19:56Z</time>
      </trkpt>
      <trkpt lat="47.561447" lon="2.2483506">
        <ele>179</ele>
        <time>2022-06-09T09:19:57Z</time>
      </trkpt>
      <trkpt lat="47.56146" lon="2.248364">
        <ele>179</ele>
        <time>2022-06-09T09:19:58Z</time>
      </trkpt>
      <trkpt lat="47.56147" lon="2.2483745">
        <ele>178</ele>
        <time>2022-06-09T09:19:59Z</time>
      </trkpt>
      <trkpt lat="47.561474" lon="2.2483788">
        <ele>178</ele>
        <time>2022-06-09T09:20:00Z</time>
      </trkpt>
      <trkpt lat="47.56148" lon="2.2483888">
        <ele>178</ele>
        <time>2022-06-09T09:20:01Z</time>
      </trkpt>
      <trkpt lat="47.561485" lon="2.2484076">
        <ele>178</ele>
        <time>2022-06-09T09:20:02Z</time>
      </trkpt>
      <trkpt lat="47.56149" lon="2.2484229">
        <ele>178</ele>
        <time>2022-06-09T09:20:03Z</time>
      </trkpt>
      <trkpt lat="47.561493" lon="2.2484453">
        <ele>178</ele>
        <time>2022-06-09T09:20:04Z</time>
      </trkpt>
      <trkpt lat="47.561504" lon="2.2484586">
        <ele>179</ele>
        <time>2022-06-09T09:20:05Z</time>
      </trkpt>
      <trkpt lat="47.561512" lon="2.2484815">
        <ele>179</ele>
        <time>2022-06-09T09:20:06Z</time>
      </trkpt>
      <trkpt lat="47.561516" lon="2.248495">
        <ele>179</ele>
        <time>2022-06-09T09:20:07Z</time>
      </trkpt>
      <trkpt lat="47.561523" lon="2.2485068">
        <ele>179</ele>
        <time>2022-06-09T09:20:08Z</time>
      </trkpt>
      <trkpt lat="47.56153" lon="2.2485182">
        <ele>179</ele>
        <time>2022-06-09T09:20:09Z</time>
      </trkpt>
      <trkpt lat="47.56154" lon="2.2485306">
        <ele>178</ele>
        <time>2022-06-09T09:20:10Z</time>
      </trkpt>
      <trkpt lat="47.561546" lon="2.2485485">
        <ele>178</ele>
        <time>2022-06-09T09:20:11Z</time>
      </trkpt>
      <trkpt lat="47.561554" lon="2.2485666">
        <ele>178</ele>
        <time>2022-06-09T09:20:12Z</time>
      </trkpt>
      <trkpt lat="47.561565" lon="2.2485783">
        <ele>178</ele>
        <time>2022-06-09T09:20:13Z</time>
      </trkpt>
      <trkpt lat="47.561573" lon="2.248592">
        <ele>178</ele>
        <time>2022-06-09T09:20:14Z</time>
      </trkpt>
      <trkpt lat="47.56158" lon="2.248608">
        <ele>178</ele>
        <time>2022-06-09T09:20:15Z</time>
      </trkpt>
      <trkpt lat="47.56159" lon="2.248627">
        <ele>179</ele>
        <time>2022-06-09T09:20:16Z</time>
      </trkpt>
      <trkpt lat="47.561592" lon="2.2486498">
        <ele>179</ele>
        <time>2022-06-09T09:20:17Z</time>
      </trkpt>
      <trkpt lat="47.5616" lon="2.2486641">
        <ele>178</ele>
        <time>2022-06-09T09:20:18Z</time>
      </trkpt>
      <trkpt lat="47.56161" lon="2.2486744">
        <ele>178</ele>
        <time>2022-06-09T09:20:19Z</time>
      </trkpt>
      <trkpt lat="47.561615" lon="2.2486892">
        <ele>178</ele>
        <time>2022-06-09T09:20:20Z</time>
      </trkpt>
      <trkpt lat="47.561626" lon="2.248702">
        <ele>178</ele>
        <time>2022-06-09T09:20:21Z</time>
      </trkpt>
      <trkpt lat="47.561634" lon="2.248717">
        <ele>178</ele>
        <time>2022-06-09T09:20:22Z</time>
      </trkpt>
      <trkpt lat="47.561638" lon="2.2487292">
        <ele>178</ele>
        <time>2022-06-09T09:20:23Z</time>
      </trkpt>
      <trkpt lat="47.561646" lon="2.2487414">
        <ele>178</ele>
        <time>2022-06-09T09:20:24Z</time>
      </trkpt>
      <trkpt lat="47.561653" lon="2.2487507">
        <ele>177</ele>
        <time>2022-06-09T09:20:25Z</time>
      </trkpt>
      <trkpt lat="47.56166" lon="2.2487621">
        <ele>177</ele>
        <time>2022-06-09T09:20:26Z</time>
      </trkpt>
      <trkpt lat="47.56167" lon="2.2487757">
        <ele>176</ele>
        <time>2022-06-09T09:20:27Z</time>
      </trkpt>
      <trkpt lat="47.561676" lon="2.248789">
        <ele>177</ele>
        <time>2022-06-09T09:20:28Z</time>
      </trkpt>
      <trkpt lat="47.561684" lon="2.2488048">
        <ele>177</ele>
        <time>2022-06-09T09:20:29Z</time>
      </trkpt>
      <trkpt lat="47.56169" lon="2.2488153">
        <ele>176</ele>
        <time>2022-06-09T09:20:30Z</time>
      </trkpt>
      <trkpt lat="47.561703" lon="2.2488303">
        <ele>176</ele>
        <time>2022-06-09T09:20:31Z</time>
      </trkpt>
      <trkpt lat="47.56171" lon="2.2488441">
        <ele>175</ele>
        <time>2022-06-09T09:20:32Z</time>
      </trkpt>
      <trkpt lat="47.561718" lon="2.248854">
        <ele>175</ele>
        <time>2022-06-09T09:20:33Z</time>
      </trkpt>
      <trkpt lat="47.56173" lon="2.2488618">
        <ele>175</ele>
        <time>2022-06-09T09:20:34Z</time>
      </trkpt>
      <trkpt lat="47.56174" lon="2.2488785">
        <ele>174</ele>
        <time>2022-06-09T09:20:35Z</time>
      </trkpt>
      <trkpt lat="47.56175" lon="2.2488987">
        <ele>175</ele>
        <time>2022-06-09T09:20:36Z</time>
      </trkpt>
      <trkpt lat="47.561756" lon="2.2489142">
        <ele>175</ele>
        <time>2022-06-09T09:20:37Z</time>
      </trkpt>
      <trkpt lat="47.561768" lon="2.2489283">
        <ele>175</ele>
        <time>2022-06-09T09:20:38Z</time>
      </trkpt>
      <trkpt lat="47.561783" lon="2.2489393">
        <ele>175</ele>
        <time>2022-06-09T09:20:39Z</time>
      </trkpt>
      <trkpt lat="47.561794" lon="2.2489476">
        <ele>175</ele>
        <time>2022-06-09T09:20:40Z</time>
      </trkpt>
      <trkpt lat="47.561802" lon="2.2489576">
        <ele>175</ele>
        <time>2022-06-09T09:20:41Z</time>
      </trkpt>
      <trkpt lat="47.561813" lon="2.248968">
        <ele>176</ele>
        <time>2022-06-09T09:20:42Z</time>
      </trkpt>
      <trkpt lat="47.561817" lon="2.248979">
        <ele>176</ele>
        <time>2022-06-09T09:20:43Z</time>
      </trkpt>
      <trkpt lat="47.561825" lon="2.2489915">
        <ele>176</ele>
        <time>2022-06-09T09:20:44Z</time>
      </trkpt>
      <trkpt lat="47.561836" lon="2.2489953">
        <ele>176</ele>
        <time>2022-06-09T09:20:45Z</time>
      </trkpt>
      <trkpt lat="47.561848" lon="2.2490005">
        <ele>177</ele>
        <time>2022-06-09T09:20:46Z</time>
      </trkpt>
      <trkpt lat="47.561855" lon="2.2490153">
        <ele>176</ele>
        <time>2022-06-09T09:20:47Z</time>
      </trkpt>
      <trkpt lat="47.561863" lon="2.2490344">
        <ele>177</ele>
        <time>2022-06-09T09:20:48Z</time>
      </trkpt>
      <trkpt lat="47.56187" lon="2.249049">
        <ele>177</ele>
        <time>2022-06-09T09:20:49Z</time>
      </trkpt>
      <trkpt lat="47.561882" lon="2.2490668">
        <ele>177</ele>
        <time>2022-06-09T09:20:50Z</time>
      </trkpt>
      <trkpt lat="47.561882" lon="2.249086">
        <ele>177</ele>
        <time>2022-06-09T09:20:51Z</time>
      </trkpt>
      <trkpt lat="47.561886" lon="2.2490978">
        <ele>177</ele>
        <time>2022-06-09T09:20:52Z</time>
      </trkpt>
      <trkpt lat="47.561893" lon="2.2491126">
        <ele>177</ele>
        <time>2022-06-09T09:20:53Z</time>
      </trkpt>
      <trkpt lat="47.561905" lon="2.2491224">
        <ele>177</ele>
        <time>2022-06-09T09:20:54Z</time>
      </trkpt>
      <trkpt lat="47.56191" lon="2.2491338">
        <ele>177</ele>
        <time>2022-06-09T09:20:55Z</time>
      </trkpt>
      <trkpt lat="47.56192" lon="2.2491453">
        <ele>177</ele>
        <time>2022-06-09T09:20:56Z</time>
      </trkpt>
      <trkpt lat="47.561928" lon="2.2491434">
        <ele>177</ele>
        <time>2022-06-09T09:20:57Z</time>
      </trkpt>
      <trkpt lat="47.56193" lon="2.2491498">
        <ele>178</ele>
        <time>2022-06-09T09:20:58Z</time>
      </trkpt>
      <trkpt lat="47.56194" lon="2.2491598">
        <ele>178</ele>
        <time>2022-06-09T09:20:59Z</time>
      </trkpt>
      <trkpt lat="47.561943" lon="2.249165">
        <ele>178</ele>
        <time>2022-06-09T09:21:00Z</time>
      </trkpt>
      <trkpt lat="47.561943" lon="2.249165">
        <ele>178</ele>
        <time>2022-06-09T09:21:01Z</time>
      </trkpt>
      <trkpt lat="47.56195" lon="2.2491724">
        <ele>178</ele>
        <time>2022-06-09T09:21:02Z</time>
      </trkpt>
      <trkpt lat="47.561954" lon="2.2491682">
        <ele>178</ele>
        <time>2022-06-09T09:21:03Z</time>
      </trkpt>
      <trkpt lat="47.561954" lon="2.2491682">
        <ele>178</ele>
        <time>2022-06-09T09:21:03Z</time>
      </trkpt>
      <trkpt lat="47.561954" lon="2.2491682">
        <ele>178</ele>
        <time>2022-06-09T09:21:03Z</time>
      </trkpt>
      <trkpt lat="47.56197" lon="2.249184">
        <ele>179</ele>
        <time>2022-06-09T09:21:10Z</time>
      </trkpt>
      <trkpt lat="47.56197" lon="2.2491834">
        <ele>179</ele>
        <time>2022-06-09T09:21:11Z</time>
      </trkpt>
      <trkpt lat="47.56197" lon="2.2491834">
        <ele>179</ele>
        <time>2022-06-09T09:21:12Z</time>
      </trkpt>
      <trkpt lat="47.56197" lon="2.2491834">
        <ele>179</ele>
        <time>2022-06-09T09:21:13Z</time>
      </trkpt>
      <trkpt lat="47.56197" lon="2.2491834">
        <ele>179</ele>
        <time>2022-06-09T09:21:13Z</time>
      </trkpt>
      <trkpt lat="47.56197" lon="2.2491834">
        <ele>179</ele>
        <time>2022-06-09T09:21:13Z</time>
      </trkpt>
      <trkpt lat="47.561966" lon="2.2492406">
        <ele>180</ele>
        <time>2022-06-09T09:22:35Z</time>
      </trkpt>
      <trkpt lat="47.56196" lon="2.2492456">
        <ele>180</ele>
        <time>2022-06-09T09:22:36Z</time>
      </trkpt>
      <trkpt lat="47.56195" lon="2.2492483">
        <ele>180</ele>
        <time>2022-06-09T09:22:37Z</time>
      </trkpt>
      <trkpt lat="47.561943" lon="2.2492468">
        <ele>180</ele>
        <time>2022-06-09T09:22:38Z</time>
      </trkpt>
      <trkpt lat="47.56193" lon="2.2492456">
        <ele>179</ele>
        <time>2022-06-09T09:22:39Z</time>
      </trkpt>
      <trkpt lat="47.56192" lon="2.249242">
        <ele>179</ele>
        <time>2022-06-09T09:22:40Z</time>
      </trkpt>
      <trkpt lat="47.56191" lon="2.249232">
        <ele>179</ele>
        <time>2022-06-09T09:22:41Z</time>
      </trkpt>
      <trkpt lat="47.5619" lon="2.249224">
        <ele>179</ele>
        <time>2022-06-09T09:22:42Z</time>
      </trkpt>
      <trkpt lat="47.56189" lon="2.2492123">
        <ele>180</ele>
        <time>2022-06-09T09:22:43Z</time>
      </trkpt>
      <trkpt lat="47.561882" lon="2.2492032">
        <ele>180</ele>
        <time>2022-06-09T09:22:44Z</time>
      </trkpt>
      <trkpt lat="47.56188" lon="2.2491934">
        <ele>180</ele>
        <time>2022-06-09T09:22:45Z</time>
      </trkpt>
      <trkpt lat="47.561867" lon="2.2491827">
        <ele>180</ele>
        <time>2022-06-09T09:22:46Z</time>
      </trkpt>
      <trkpt lat="47.56186" lon="2.2491767">
        <ele>181</ele>
        <time>2022-06-09T09:22:47Z</time>
      </trkpt>
      <trkpt lat="47.56185" lon="2.2491722">
        <ele>181</ele>
        <time>2022-06-09T09:22:48Z</time>
      </trkpt>
      <trkpt lat="47.56184" lon="2.249168">
        <ele>182</ele>
        <time>2022-06-09T09:22:49Z</time>
      </trkpt>
      <trkpt lat="47.561832" lon="2.2491639">
        <ele>182</ele>
        <time>2022-06-09T09:22:50Z</time>
      </trkpt>
      <trkpt lat="47.561817" lon="2.2491543">
        <ele>182</ele>
        <time>2022-06-09T09:22:51Z</time>
      </trkpt>
      <trkpt lat="47.561802" lon="2.2491498">
        <ele>182</ele>
        <time>2022-06-09T09:22:52Z</time>
      </trkpt>
      <trkpt lat="47.561794" lon="2.2491398">
        <ele>182</ele>
        <time>2022-06-09T09:22:53Z</time>
      </trkpt>
      <trkpt lat="47.56178" lon="2.2491302">
        <ele>181</ele>
        <time>2022-06-09T09:22:54Z</time>
      </trkpt>
      <trkpt lat="47.56177" lon="2.2491183">
        <ele>181</ele>
        <time>2022-06-09T09:22:55Z</time>
      </trkpt>
      <trkpt lat="47.561764" lon="2.249106">
        <ele>181</ele>
        <time>2022-06-09T09:22:56Z</time>
      </trkpt>
      <trkpt lat="47.561752" lon="2.2490885">
        <ele>181</ele>
        <time>2022-06-09T09:22:57Z</time>
      </trkpt>
      <trkpt lat="47.561745" lon="2.2490811">
        <ele>181</ele>
        <time>2022-06-09T09:22:58Z</time>
      </trkpt>
      <trkpt lat="47.56173" lon="2.2490718">
        <ele>181</ele>
        <time>2022-06-09T09:22:59Z</time>
      </trkpt>
      <trkpt lat="47.56172" lon="2.2490623">
        <ele>181</ele>
        <time>2022-06-09T09:23:00Z</time>
      </trkpt>
      <trkpt lat="47.56171" lon="2.2490525">
        <ele>181</ele>
        <time>2022-06-09T09:23:01Z</time>
      </trkpt>
      <trkpt lat="47.561703" lon="2.249043">
        <ele>181</ele>
        <time>2022-06-09T09:23:02Z</time>
      </trkpt>
      <trkpt lat="47.56169" lon="2.2490327">
        <ele>180</ele>
        <time>2022-06-09T09:23:03Z</time>
      </trkpt>
      <trkpt lat="47.56168" lon="2.2490234">
        <ele>180</ele>
        <time>2022-06-09T09:23:04Z</time>
      </trkpt>
      <trkpt lat="47.56167" lon="2.249017">
        <ele>180</ele>
        <time>2022-06-09T09:23:05Z</time>
      </trkpt>
      <trkpt lat="47.561653" lon="2.2490113">
        <ele>180</ele>
        <time>2022-06-09T09:23:06Z</time>
      </trkpt>
      <trkpt lat="47.56164" lon="2.2490015">
        <ele>180</ele>
        <time>2022-06-09T09:23:07Z</time>
      </trkpt>
      <trkpt lat="47.56163" lon="2.248992">
        <ele>179</ele>
        <time>2022-06-09T09:23:08Z</time>
      </trkpt>
      <trkpt lat="47.561615" lon="2.2489884">
        <ele>179</ele>
        <time>2022-06-09T09:23:09Z</time>
      </trkpt>
      <trkpt lat="47.5616" lon="2.2489848">
        <ele>179</ele>
        <time>2022-06-09T09:23:10Z</time>
      </trkpt>
      <trkpt lat="47.561584" lon="2.248975">
        <ele>179</ele>
        <time>2022-06-09T09:23:11Z</time>
      </trkpt>
      <trkpt lat="47.56157" lon="2.2489676">
        <ele>179</ele>
        <time>2022-06-09T09:23:12Z</time>
      </trkpt>
      <trkpt lat="47.56156" lon="2.248957">
        <ele>179</ele>
        <time>2022-06-09T09:23:13Z</time>
      </trkpt>
      <trkpt lat="47.561558" lon="2.2489467">
        <ele>179</ele>
        <time>2022-06-09T09:23:14Z</time>
      </trkpt>
      <trkpt lat="47.561546" lon="2.248942">
        <ele>179</ele>
        <time>2022-06-09T09:23:15Z</time>
      </trkpt>
      <trkpt lat="47.561535" lon="2.2489388">
        <ele>180</ele>
        <time>2022-06-09T09:23:16Z</time>
      </trkpt>
      <trkpt lat="47.561527" lon="2.2489328">
        <ele>180</ele>
        <time>2022-06-09T09:23:17Z</time>
      </trkpt>
      <trkpt lat="47.561516" lon="2.2489274">
        <ele>179</ele>
        <time>2022-06-09T09:23:18Z</time>
      </trkpt>
      <trkpt lat="47.56151" lon="2.2489157">
        <ele>179</ele>
        <time>2022-06-09T09:23:19Z</time>
      </trkpt>
      <trkpt lat="47.561497" lon="2.2489083">
        <ele>179</ele>
        <time>2022-06-09T09:23:20Z</time>
      </trkpt>
      <trkpt lat="47.561485" lon="2.248905">
        <ele>180</ele>
        <time>2022-06-09T09:23:21Z</time>
      </trkpt>
      <trkpt lat="47.561474" lon="2.2488995">
        <ele>180</ele>
        <time>2022-06-09T09:23:22Z</time>
      </trkpt>
      <trkpt lat="47.561466" lon="2.2488976">
        <ele>180</ele>
        <time>2022-06-09T09:23:23Z</time>
      </trkpt>
      <trkpt lat="47.56146" lon="2.2488928">
        <ele>180</ele>
        <time>2022-06-09T09:23:24Z</time>
      </trkpt>
      <trkpt lat="47.56145" lon="2.2488878">
        <ele>180</ele>
        <time>2022-06-09T09:23:25Z</time>
      </trkpt>
      <trkpt lat="47.56144" lon="2.2488785">
        <ele>180</ele>
        <time>2022-06-09T09:23:26Z</time>
      </trkpt>
      <trkpt lat="47.56142" lon="2.2488718">
        <ele>180</ele>
        <time>2022-06-09T09:23:27Z</time>
      </trkpt>
      <trkpt lat="47.56141" lon="2.2488668">
        <ele>180</ele>
        <time>2022-06-09T09:23:28Z</time>
      </trkpt>
      <trkpt lat="47.561398" lon="2.248862">
        <ele>180</ele>
        <time>2022-06-09T09:23:29Z</time>
      </trkpt>
      <trkpt lat="47.561382" lon="2.2488573">
        <ele>179</ele>
        <time>2022-06-09T09:23:30Z</time>
      </trkpt>
      <trkpt lat="47.56137" lon="2.2488506">
        <ele>179</ele>
        <time>2022-06-09T09:23:31Z</time>
      </trkpt>
      <trkpt lat="47.56136" lon="2.248848">
        <ele>179</ele>
        <time>2022-06-09T09:23:32Z</time>
      </trkpt>
      <trkpt lat="47.561348" lon="2.248842">
        <ele>179</ele>
        <time>2022-06-09T09:23:33Z</time>
      </trkpt>
      <trkpt lat="47.56134" lon="2.2488298">
        <ele>179</ele>
        <time>2022-06-09T09:23:34Z</time>
      </trkpt>
      <trkpt lat="47.561333" lon="2.2488184">
        <ele>179</ele>
        <time>2022-06-09T09:23:35Z</time>
      </trkpt>
      <trkpt lat="47.561325" lon="2.2488034">
        <ele>180</ele>
        <time>2022-06-09T09:23:36Z</time>
      </trkpt>
      <trkpt lat="47.56132" lon="2.24879">
        <ele>180</ele>
        <time>2022-06-09T09:23:37Z</time>
      </trkpt>
      <trkpt lat="47.561317" lon="2.2487762">
        <ele>180</ele>
        <time>2022-06-09T09:23:38Z</time>
      </trkpt>
      <trkpt lat="47.561306" lon="2.2487698">
        <ele>180</ele>
        <time>2022-06-09T09:23:39Z</time>
      </trkpt>
      <trkpt lat="47.5613" lon="2.2487586">
        <ele>180</ele>
        <time>2022-06-09T09:23:40Z</time>
      </trkpt>
      <trkpt lat="47.561287" lon="2.2487495">
        <ele>180</ele>
        <time>2022-06-09T09:23:41Z</time>
      </trkpt>
      <trkpt lat="47.56128" lon="2.2487488">
        <ele>179</ele>
        <time>2022-06-09T09:23:42Z</time>
      </trkpt>
      <trkpt lat="47.561268" lon="2.2487392">
        <ele>179</ele>
        <time>2022-06-09T09:23:43Z</time>
      </trkpt>
      <trkpt lat="47.561253" lon="2.24873">
        <ele>179</ele>
        <time>2022-06-09T09:23:44Z</time>
      </trkpt>
      <trkpt lat="47.56124" lon="2.2487218">
        <ele>179</ele>
        <time>2022-06-09T09:23:45Z</time>
      </trkpt>
      <trkpt lat="47.561234" lon="2.248706">
        <ele>179</ele>
        <time>2022-06-09T09:23:46Z</time>
      </trkpt>
      <trkpt lat="47.56123" lon="2.2486894">
        <ele>179</ele>
        <time>2022-06-09T09:23:47Z</time>
      </trkpt>
      <trkpt lat="47.561222" lon="2.248681">
        <ele>179</ele>
        <time>2022-06-09T09:23:48Z</time>
      </trkpt>
      <trkpt lat="47.561207" lon="2.2486665">
        <ele>178</ele>
        <time>2022-06-09T09:23:49Z</time>
      </trkpt>
      <trkpt lat="47.561195" lon="2.2486572">
        <ele>178</ele>
        <time>2022-06-09T09:23:50Z</time>
      </trkpt>
      <trkpt lat="47.561188" lon="2.2486436">
        <ele>178</ele>
        <time>2022-06-09T09:23:51Z</time>
      </trkpt>
      <trkpt lat="47.561176" lon="2.2486322">
        <ele>178</ele>
        <time>2022-06-09T09:23:52Z</time>
      </trkpt>
      <trkpt lat="47.56116" lon="2.248622">
        <ele>178</ele>
        <time>2022-06-09T09:23:53Z</time>
      </trkpt>
      <trkpt lat="47.561146" lon="2.2486186">
        <ele>178</ele>
        <time>2022-06-09T09:23:54Z</time>
      </trkpt>
      <trkpt lat="47.561134" lon="2.248615">
        <ele>179</ele>
        <time>2022-06-09T09:23:55Z</time>
      </trkpt>
      <trkpt lat="47.561123" lon="2.2486107">
        <ele>179</ele>
        <time>2022-06-09T09:23:56Z</time>
      </trkpt>
      <trkpt lat="47.56111" lon="2.2486086">
        <ele>179</ele>
        <time>2022-06-09T09:23:57Z</time>
      </trkpt>
      <trkpt lat="47.561104" lon="2.2486024">
        <ele>179</ele>
        <time>2022-06-09T09:23:58Z</time>
      </trkpt>
      <trkpt lat="47.561092" lon="2.2485967">
        <ele>179</ele>
        <time>2022-06-09T09:23:59Z</time>
      </trkpt>
      <trkpt lat="47.561085" lon="2.2485914">
        <ele>179</ele>
        <time>2022-06-09T09:24:00Z</time>
      </trkpt>
      <trkpt lat="47.561066" lon="2.248589">
        <ele>180</ele>
        <time>2022-06-09T09:24:01Z</time>
      </trkpt>
      <trkpt lat="47.561054" lon="2.2485795">
        <ele>179</ele>
        <time>2022-06-09T09:24:02Z</time>
      </trkpt>
      <trkpt lat="47.561043" lon="2.2485738">
        <ele>180</ele>
        <time>2022-06-09T09:24:03Z</time>
      </trkpt>
      <trkpt lat="47.56103" lon="2.2485693">
        <ele>181</ele>
        <time>2022-06-09T09:24:04Z</time>
      </trkpt>
      <trkpt lat="47.56102" lon="2.248564">
        <ele>181</ele>
        <time>2022-06-09T09:24:05Z</time>
      </trkpt>
      <trkpt lat="47.56101" lon="2.248558">
        <ele>181</ele>
        <time>2022-06-09T09:24:06Z</time>
      </trkpt>
      <trkpt lat="47.560993" lon="2.248551">
        <ele>182</ele>
        <time>2022-06-09T09:24:07Z</time>
      </trkpt>
      <trkpt lat="47.560986" lon="2.2485437">
        <ele>182</ele>
        <time>2022-06-09T09:24:08Z</time>
      </trkpt>
      <trkpt lat="47.560974" lon="2.2485397">
        <ele>182</ele>
        <time>2022-06-09T09:24:09Z</time>
      </trkpt>
      <trkpt lat="47.560963" lon="2.2485347">
        <ele>182</ele>
        <time>2022-06-09T09:24:10Z</time>
      </trkpt>
      <trkpt lat="47.560955" lon="2.2485332">
        <ele>183</ele>
        <time>2022-06-09T09:24:11Z</time>
      </trkpt>
      <trkpt lat="47.560944" lon="2.2485313">
        <ele>183</ele>
        <time>2022-06-09T09:24:12Z</time>
      </trkpt>
      <trkpt lat="47.560932" lon="2.2485294">
        <ele>182</ele>
        <time>2022-06-09T09:24:13Z</time>
      </trkpt>
      <trkpt lat="47.560917" lon="2.24852">
        <ele>182</ele>
        <time>2022-06-09T09:24:14Z</time>
      </trkpt>
      <trkpt lat="47.560905" lon="2.248513">
        <ele>182</ele>
        <time>2022-06-09T09:24:15Z</time>
      </trkpt>
      <trkpt lat="47.560894" lon="2.2485085">
        <ele>183</ele>
        <time>2022-06-09T09:24:16Z</time>
      </trkpt>
      <trkpt lat="47.560886" lon="2.2485025">
        <ele>183</ele>
        <time>2022-06-09T09:24:17Z</time>
      </trkpt>
      <trkpt lat="47.56088" lon="2.248494">
        <ele>182</ele>
        <time>2022-06-09T09:24:18Z</time>
      </trkpt>
      <trkpt lat="47.560867" lon="2.2484884">
        <ele>181</ele>
        <time>2022-06-09T09:24:19Z</time>
      </trkpt>
      <trkpt lat="47.560852" lon="2.248484">
        <ele>181</ele>
        <time>2022-06-09T09:24:20Z</time>
      </trkpt>
      <trkpt lat="47.560837" lon="2.2484844">
        <ele>181</ele>
        <time>2022-06-09T09:24:21Z</time>
      </trkpt>
      <trkpt lat="47.560825" lon="2.2484806">
        <ele>181</ele>
        <time>2022-06-09T09:24:22Z</time>
      </trkpt>
      <trkpt lat="47.56081" lon="2.2484765">
        <ele>181</ele>
        <time>2022-06-09T09:24:23Z</time>
      </trkpt>
      <trkpt lat="47.5608" lon="2.2484734">
        <ele>181</ele>
        <time>2022-06-09T09:24:24Z</time>
      </trkpt>
      <trkpt lat="47.560787" lon="2.2484682">
        <ele>181</ele>
        <time>2022-06-09T09:24:25Z</time>
      </trkpt>
      <trkpt lat="47.560776" lon="2.2484658">
        <ele>181</ele>
        <time>2022-06-09T09:24:26Z</time>
      </trkpt>
      <trkpt lat="47.56077" lon="2.248463">
        <ele>181</ele>
        <time>2022-06-09T09:24:27Z</time>
      </trkpt>
      <trkpt lat="47.56076" lon="2.24846">
        <ele>181</ele>
        <time>2022-06-09T09:24:28Z</time>
      </trkpt>
      <trkpt lat="47.560753" lon="2.2484593">
        <ele>180</ele>
        <time>2022-06-09T09:24:29Z</time>
      </trkpt>
      <trkpt lat="47.560745" lon="2.2484517">
        <ele>180</ele>
        <time>2022-06-09T09:24:30Z</time>
      </trkpt>
      <trkpt lat="47.560738" lon="2.248457">
        <ele>180</ele>
        <time>2022-06-09T09:24:31Z</time>
      </trkpt>
      <trkpt lat="47.560726" lon="2.2484555">
        <ele>180</ele>
        <time>2022-06-09T09:24:32Z</time>
      </trkpt>
      <trkpt lat="47.56072" lon="2.248448">
        <ele>179</ele>
        <time>2022-06-09T09:24:33Z</time>
      </trkpt>
      <trkpt lat="47.56071" lon="2.248439">
        <ele>179</ele>
        <time>2022-06-09T09:24:34Z</time>
      </trkpt>
      <trkpt lat="47.5607" lon="2.2484307">
        <ele>179</ele>
        <time>2022-06-09T09:24:35Z</time>
      </trkpt>
      <trkpt lat="47.56069" lon="2.2484212">
        <ele>179</ele>
        <time>2022-06-09T09:24:36Z</time>
      </trkpt>
      <trkpt lat="47.560677" lon="2.248418">
        <ele>179</ele>
        <time>2022-06-09T09:24:37Z</time>
      </trkpt>
      <trkpt lat="47.560658" lon="2.248419">
        <ele>179</ele>
        <time>2022-06-09T09:24:38Z</time>
      </trkpt>
      <trkpt lat="47.56064" lon="2.2484236">
        <ele>179</ele>
        <time>2022-06-09T09:24:39Z</time>
      </trkpt>
      <trkpt lat="47.560623" lon="2.2484338">
        <ele>180</ele>
        <time>2022-06-09T09:24:40Z</time>
      </trkpt>
      <trkpt lat="47.560608" lon="2.2484305">
        <ele>180</ele>
        <time>2022-06-09T09:24:41Z</time>
      </trkpt>
      <trkpt lat="47.5606" lon="2.2484283">
        <ele>180</ele>
        <time>2022-06-09T09:24:42Z</time>
      </trkpt>
      <trkpt lat="47.560593" lon="2.2484217">
        <ele>180</ele>
        <time>2022-06-09T09:24:43Z</time>
      </trkpt>
      <trkpt lat="47.560577" lon="2.2484164">
        <ele>179</ele>
        <time>2022-06-09T09:24:44Z</time>
      </trkpt>
      <trkpt lat="47.56057" lon="2.2484186">
        <ele>179</ele>
        <time>2022-06-09T09:24:45Z</time>
      </trkpt>
      <trkpt lat="47.56056" lon="2.2484248">
        <ele>180</ele>
        <time>2022-06-09T09:24:46Z</time>
      </trkpt>
      <trkpt lat="47.560555" lon="2.2484248">
        <ele>180</ele>
        <time>2022-06-09T09:24:47Z</time>
      </trkpt>
      <trkpt lat="47.560543" lon="2.248423">
        <ele>180</ele>
        <time>2022-06-09T09:24:48Z</time>
      </trkpt>
      <trkpt lat="47.560528" lon="2.2484171">
        <ele>180</ele>
        <time>2022-06-09T09:24:49Z</time>
      </trkpt>
      <trkpt lat="47.56052" lon="2.248417">
        <ele>180</ele>
        <time>2022-06-09T09:24:50Z</time>
      </trkpt>
      <trkpt lat="47.560513" lon="2.2484176">
        <ele>180</ele>
        <time>2022-06-09T09:24:51Z</time>
      </trkpt>
      <trkpt lat="47.5605" lon="2.248416">
        <ele>180</ele>
        <time>2022-06-09T09:24:52Z</time>
      </trkpt>
      <trkpt lat="47.560486" lon="2.2484171">
        <ele>180</ele>
        <time>2022-06-09T09:24:53Z</time>
      </trkpt>
      <trkpt lat="47.56047" lon="2.2484176">
        <ele>180</ele>
        <time>2022-06-09T09:24:54Z</time>
      </trkpt>
      <trkpt lat="47.560448" lon="2.24842">
        <ele>181</ele>
        <time>2022-06-09T09:24:55Z</time>
      </trkpt>
      <trkpt lat="47.560432" lon="2.2484202">
        <ele>180</ele>
        <time>2022-06-09T09:24:56Z</time>
      </trkpt>
      <trkpt lat="47.56042" lon="2.2484195">
        <ele>180</ele>
        <time>2022-06-09T09:24:57Z</time>
      </trkpt>
      <trkpt lat="47.560406" lon="2.2484193">
        <ele>179</ele>
        <time>2022-06-09T09:24:58Z</time>
      </trkpt>
      <trkpt lat="47.560394" lon="2.2484236">
        <ele>180</ele>
        <time>2022-06-09T09:24:59Z</time>
      </trkpt>
      <trkpt lat="47.560387" lon="2.248425">
        <ele>179</ele>
        <time>2022-06-09T09:25:00Z</time>
      </trkpt>
      <trkpt lat="47.560368" lon="2.248425">
        <ele>179</ele>
        <time>2022-06-09T09:25:01Z</time>
      </trkpt>
      <trkpt lat="47.560352" lon="2.2484288">
        <ele>179</ele>
        <time>2022-06-09T09:25:02Z</time>
      </trkpt>
      <trkpt lat="47.56034" lon="2.2484343">
        <ele>179</ele>
        <time>2022-06-09T09:25:03Z</time>
      </trkpt>
      <trkpt lat="47.560326" lon="2.2484388">
        <ele>179</ele>
        <time>2022-06-09T09:25:04Z</time>
      </trkpt>
      <trkpt lat="47.560314" lon="2.2484412">
        <ele>179</ele>
        <time>2022-06-09T09:25:05Z</time>
      </trkpt>
      <trkpt lat="47.560303" lon="2.24844">
        <ele>179</ele>
        <time>2022-06-09T09:25:06Z</time>
      </trkpt>
      <trkpt lat="47.560287" lon="2.2484381">
        <ele>178</ele>
        <time>2022-06-09T09:25:07Z</time>
      </trkpt>
      <trkpt lat="47.56028" lon="2.24844">
        <ele>179</ele>
        <time>2022-06-09T09:25:08Z</time>
      </trkpt>
      <trkpt lat="47.56027" lon="2.2484424">
        <ele>179</ele>
        <time>2022-06-09T09:25:09Z</time>
      </trkpt>
      <trkpt lat="47.560257" lon="2.2484486">
        <ele>179</ele>
        <time>2022-06-09T09:25:10Z</time>
      </trkpt>
      <trkpt lat="47.560246" lon="2.248449">
        <ele>179</ele>
        <time>2022-06-09T09:25:11Z</time>
      </trkpt>
      <trkpt lat="47.560234" lon="2.2484465">
        <ele>179</ele>
        <time>2022-06-09T09:25:12Z</time>
      </trkpt>
      <trkpt lat="47.560226" lon="2.248445">
        <ele>179</ele>
        <time>2022-06-09T09:25:13Z</time>
      </trkpt>
      <trkpt lat="47.56021" lon="2.2484403">
        <ele>179</ele>
        <time>2022-06-09T09:25:14Z</time>
      </trkpt>
      <trkpt lat="47.5602" lon="2.2484396">
        <ele>179</ele>
        <time>2022-06-09T09:25:15Z</time>
      </trkpt>
      <trkpt lat="47.560192" lon="2.2484422">
        <ele>179</ele>
        <time>2022-06-09T09:25:16Z</time>
      </trkpt>
      <trkpt lat="47.560177" lon="2.2484405">
        <ele>178</ele>
        <time>2022-06-09T09:25:17Z</time>
      </trkpt>
      <trkpt lat="47.560165" lon="2.248438">
        <ele>178</ele>
        <time>2022-06-09T09:25:18Z</time>
      </trkpt>
      <trkpt lat="47.560154" lon="2.2484374">
        <ele>178</ele>
        <time>2022-06-09T09:25:19Z</time>
      </trkpt>
      <trkpt lat="47.56014" lon="2.2484329">
        <ele>177</ele>
        <time>2022-06-09T09:25:20Z</time>
      </trkpt>
      <trkpt lat="47.560127" lon="2.2484336">
        <ele>177</ele>
        <time>2022-06-09T09:25:21Z</time>
      </trkpt>
      <trkpt lat="47.56012" lon="2.248432">
        <ele>178</ele>
        <time>2022-06-09T09:25:22Z</time>
      </trkpt>
      <trkpt lat="47.560112" lon="2.2484276">
        <ele>178</ele>
        <time>2022-06-09T09:25:23Z</time>
      </trkpt>
      <trkpt lat="47.560097" lon="2.2484248">
        <ele>178</ele>
        <time>2022-06-09T09:25:24Z</time>
      </trkpt>
      <trkpt lat="47.56008" lon="2.2484238">
        <ele>178</ele>
        <time>2022-06-09T09:25:25Z</time>
      </trkpt>
      <trkpt lat="47.560074" lon="2.2484286">
        <ele>179</ele>
        <time>2022-06-09T09:25:26Z</time>
      </trkpt>
      <trkpt lat="47.560066" lon="2.2484293">
        <ele>179</ele>
        <time>2022-06-09T09:25:27Z</time>
      </trkpt>
      <trkpt lat="47.56005" lon="2.2484298">
        <ele>179</ele>
        <time>2022-06-09T09:25:28Z</time>
      </trkpt>
      <trkpt lat="47.560036" lon="2.2484336">
        <ele>179</ele>
        <time>2022-06-09T09:25:29Z</time>
      </trkpt>
      <trkpt lat="47.560024" lon="2.2484376">
        <ele>179</ele>
        <time>2022-06-09T09:25:30Z</time>
      </trkpt>
      <trkpt lat="47.560013" lon="2.2484436">
        <ele>180</ele>
        <time>2022-06-09T09:25:31Z</time>
      </trkpt>
      <trkpt lat="47.560005" lon="2.2484431">
        <ele>180</ele>
        <time>2022-06-09T09:25:32Z</time>
      </trkpt>
      <trkpt lat="47.559998" lon="2.2484403">
        <ele>179</ele>
        <time>2022-06-09T09:25:33Z</time>
      </trkpt>
      <trkpt lat="47.559998" lon="2.2484403">
        <ele>179</ele>
        <time>2022-06-09T09:25:34Z</time>
      </trkpt>
      <trkpt lat="47.559998" lon="2.2484403">
        <ele>179</ele>
        <time>2022-06-09T09:25:35Z</time>
      </trkpt>
      <trkpt lat="47.559975" lon="2.2484488">
        <ele>179</ele>
        <time>2022-06-09T09:25:36Z</time>
      </trkpt>
      <trkpt lat="47.559967" lon="2.2484457">
        <ele>178</ele>
        <time>2022-06-09T09:25:37Z</time>
      </trkpt>
      <trkpt lat="47.55996" lon="2.2484498">
        <ele>178</ele>
        <time>2022-06-09T09:25:38Z</time>
      </trkpt>
      <trkpt lat="47.55995" lon="2.2484522">
        <ele>178</ele>
        <time>2022-06-09T09:25:39Z</time>
      </trkpt>
      <trkpt lat="47.55994" lon="2.248459">
        <ele>178</ele>
        <time>2022-06-09T09:25:40Z</time>
      </trkpt>
      <trkpt lat="47.559925" lon="2.248462">
        <ele>178</ele>
        <time>2022-06-09T09:25:41Z</time>
      </trkpt>
      <trkpt lat="47.559906" lon="2.2484646">
        <ele>178</ele>
        <time>2022-06-09T09:25:42Z</time>
      </trkpt>
      <trkpt lat="47.5599" lon="2.248468">
        <ele>178</ele>
        <time>2022-06-09T09:25:43Z</time>
      </trkpt>
      <trkpt lat="47.559887" lon="2.2484713">
        <ele>178</ele>
        <time>2022-06-09T09:25:44Z</time>
      </trkpt>
      <trkpt lat="47.55987" lon="2.248478">
        <ele>179</ele>
        <time>2022-06-09T09:25:45Z</time>
      </trkpt>
      <trkpt lat="47.559856" lon="2.2484837">
        <ele>179</ele>
        <time>2022-06-09T09:25:46Z</time>
      </trkpt>
      <trkpt lat="47.55984" lon="2.2484903">
        <ele>178</ele>
        <time>2022-06-09T09:25:47Z</time>
      </trkpt>
      <trkpt lat="47.559826" lon="2.2484953">
        <ele>179</ele>
        <time>2022-06-09T09:25:48Z</time>
      </trkpt>
      <trkpt lat="47.559814" lon="2.2485046">
        <ele>180</ele>
        <time>2022-06-09T09:25:49Z</time>
      </trkpt>
      <trkpt lat="47.559807" lon="2.2485168">
        <ele>180</ele>
        <time>2022-06-09T09:25:50Z</time>
      </trkpt>
      <trkpt lat="47.559795" lon="2.2485228">
        <ele>180</ele>
        <time>2022-06-09T09:25:51Z</time>
      </trkpt>
      <trkpt lat="47.55978" lon="2.2485242">
        <ele>180</ele>
        <time>2022-06-09T09:25:52Z</time>
      </trkpt>
      <trkpt lat="47.559772" lon="2.2485268">
        <ele>180</ele>
        <time>2022-06-09T09:25:53Z</time>
      </trkpt>
      <trkpt lat="47.55976" lon="2.2485247">
        <ele>180</ele>
        <time>2022-06-09T09:25:54Z</time>
      </trkpt>
      <trkpt lat="47.55975" lon="2.2485237">
        <ele>181</ele>
        <time>2022-06-09T09:25:55Z</time>
      </trkpt>
      <trkpt lat="47.559734" lon="2.2485328">
        <ele>181</ele>
        <time>2022-06-09T09:25:56Z</time>
      </trkpt>
      <trkpt lat="47.559723" lon="2.248543">
        <ele>180</ele>
        <time>2022-06-09T09:25:57Z</time>
      </trkpt>
      <trkpt lat="47.559708" lon="2.248551">
        <ele>180</ele>
        <time>2022-06-09T09:25:58Z</time>
      </trkpt>
      <trkpt lat="47.559692" lon="2.248558">
        <ele>179</ele>
        <time>2022-06-09T09:25:59Z</time>
      </trkpt>
      <trkpt lat="47.55968" lon="2.2485635">
        <ele>179</ele>
        <time>2022-06-09T09:26:00Z</time>
      </trkpt>
      <trkpt lat="47.55967" lon="2.248568">
        <ele>179</ele>
        <time>2022-06-09T09:26:01Z</time>
      </trkpt>
      <trkpt lat="47.559658" lon="2.248582">
        <ele>179</ele>
        <time>2022-06-09T09:26:02Z</time>
      </trkpt>
      <trkpt lat="47.559647" lon="2.2485921">
        <ele>179</ele>
        <time>2022-06-09T09:26:03Z</time>
      </trkpt>
      <trkpt lat="47.55963" lon="2.248605">
        <ele>179</ele>
        <time>2022-06-09T09:26:04Z</time>
      </trkpt>
      <trkpt lat="47.559624" lon="2.2486095">
        <ele>179</ele>
        <time>2022-06-09T09:26:05Z</time>
      </trkpt>
      <trkpt lat="47.55961" lon="2.248621">
        <ele>180</ele>
        <time>2022-06-09T09:26:06Z</time>
      </trkpt>
      <trkpt lat="47.559597" lon="2.2486246">
        <ele>179</ele>
        <time>2022-06-09T09:26:07Z</time>
      </trkpt>
      <trkpt lat="47.55958" lon="2.2486284">
        <ele>178</ele>
        <time>2022-06-09T09:26:08Z</time>
      </trkpt>
      <trkpt lat="47.559574" lon="2.2486281">
        <ele>178</ele>
        <time>2022-06-09T09:26:09Z</time>
      </trkpt>
      <trkpt lat="47.55956" lon="2.248624">
        <ele>178</ele>
        <time>2022-06-09T09:26:10Z</time>
      </trkpt>
      <trkpt lat="47.559544" lon="2.2486138">
        <ele>178</ele>
        <time>2022-06-09T09:26:11Z</time>
      </trkpt>
      <trkpt lat="47.55953" lon="2.2486098">
        <ele>178</ele>
        <time>2022-06-09T09:26:12Z</time>
      </trkpt>
      <trkpt lat="47.55951" lon="2.2486022">
        <ele>177</ele>
        <time>2022-06-09T09:26:13Z</time>
      </trkpt>
      <trkpt lat="47.559498" lon="2.2485983">
        <ele>176</ele>
        <time>2022-06-09T09:26:14Z</time>
      </trkpt>
      <trkpt lat="47.559483" lon="2.2485974">
        <ele>177</ele>
        <time>2022-06-09T09:26:15Z</time>
      </trkpt>
      <trkpt lat="47.55947" lon="2.2486029">
        <ele>177</ele>
        <time>2022-06-09T09:26:16Z</time>
      </trkpt>
      <trkpt lat="47.559464" lon="2.2486093">
        <ele>177</ele>
        <time>2022-06-09T09:26:17Z</time>
      </trkpt>
      <trkpt lat="47.559444" lon="2.2486124">
        <ele>178</ele>
        <time>2022-06-09T09:26:18Z</time>
      </trkpt>
      <trkpt lat="47.559433" lon="2.2486155">
        <ele>179</ele>
        <time>2022-06-09T09:26:19Z</time>
      </trkpt>
      <trkpt lat="47.559425" lon="2.248613">
        <ele>179</ele>
        <time>2022-06-09T09:26:20Z</time>
      </trkpt>
      <trkpt lat="47.559418" lon="2.248615">
        <ele>180</ele>
        <time>2022-06-09T09:26:21Z</time>
      </trkpt>
      <trkpt lat="47.559406" lon="2.248617">
        <ele>179</ele>
        <time>2022-06-09T09:26:22Z</time>
      </trkpt>
      <trkpt lat="47.559402" lon="2.2486172">
        <ele>179</ele>
        <time>2022-06-09T09:26:23Z</time>
      </trkpt>
      <trkpt lat="47.559387" lon="2.2486136">
        <ele>179</ele>
        <time>2022-06-09T09:26:24Z</time>
      </trkpt>
      <trkpt lat="47.559376" lon="2.2486167">
        <ele>179</ele>
        <time>2022-06-09T09:26:25Z</time>
      </trkpt>
      <trkpt lat="47.55937" lon="2.2486234">
        <ele>180</ele>
        <time>2022-06-09T09:26:26Z</time>
      </trkpt>
      <trkpt lat="47.559353" lon="2.2486272">
        <ele>180</ele>
        <time>2022-06-09T09:26:27Z</time>
      </trkpt>
      <trkpt lat="47.55934" lon="2.2486303">
        <ele>180</ele>
        <time>2022-06-09T09:26:28Z</time>
      </trkpt>
      <trkpt lat="47.559338" lon="2.2486334">
        <ele>180</ele>
        <time>2022-06-09T09:26:29Z</time>
      </trkpt>
      <trkpt lat="47.559326" lon="2.248632">
        <ele>180</ele>
        <time>2022-06-09T09:26:30Z</time>
      </trkpt>
      <trkpt lat="47.55932" lon="2.2486367">
        <ele>180</ele>
        <time>2022-06-09T09:26:31Z</time>
      </trkpt>
      <trkpt lat="47.5593" lon="2.2486408">
        <ele>180</ele>
        <time>2022-06-09T09:26:32Z</time>
      </trkpt>
      <trkpt lat="47.559288" lon="2.2486472">
        <ele>180</ele>
        <time>2022-06-09T09:26:33Z</time>
      </trkpt>
      <trkpt lat="47.559273" lon="2.248651">
        <ele>180</ele>
        <time>2022-06-09T09:26:34Z</time>
      </trkpt>
      <trkpt lat="47.559258" lon="2.248653">
        <ele>180</ele>
        <time>2022-06-09T09:26:35Z</time>
      </trkpt>
      <trkpt lat="47.559242" lon="2.248662">
        <ele>180</ele>
        <time>2022-06-09T09:26:36Z</time>
      </trkpt>
      <trkpt lat="47.559227" lon="2.2486663">
        <ele>180</ele>
        <time>2022-06-09T09:26:37Z</time>
      </trkpt>
      <trkpt lat="47.559223" lon="2.2486534">
        <ele>181</ele>
        <time>2022-06-09T09:26:38Z</time>
      </trkpt>
      <trkpt lat="47.559223" lon="2.2486494">
        <ele>181</ele>
        <time>2022-06-09T09:26:39Z</time>
      </trkpt>
      <trkpt lat="47.559216" lon="2.2486508">
        <ele>181</ele>
        <time>2022-06-09T09:26:40Z</time>
      </trkpt>
      <trkpt lat="47.5592" lon="2.2486527">
        <ele>181</ele>
        <time>2022-06-09T09:26:41Z</time>
      </trkpt>
      <trkpt lat="47.55919" lon="2.2486625">
        <ele>181</ele>
        <time>2022-06-09T09:26:42Z</time>
      </trkpt>
      <trkpt lat="47.559174" lon="2.2486682">
        <ele>181</ele>
        <time>2022-06-09T09:26:43Z</time>
      </trkpt>
      <trkpt lat="47.559166" lon="2.2486765">
        <ele>181</ele>
        <time>2022-06-09T09:26:44Z</time>
      </trkpt>
      <trkpt lat="47.55916" lon="2.2486887">
        <ele>181</ele>
        <time>2022-06-09T09:26:45Z</time>
      </trkpt>
      <trkpt lat="47.559147" lon="2.2486978">
        <ele>182</ele>
        <time>2022-06-09T09:26:46Z</time>
      </trkpt>
      <trkpt lat="47.55913" lon="2.2487085">
        <ele>183</ele>
        <time>2022-06-09T09:26:47Z</time>
      </trkpt>
      <trkpt lat="47.55913" lon="2.2487085">
        <ele>183</ele>
        <time>2022-06-09T09:26:48Z</time>
      </trkpt>
      <trkpt lat="47.55911" lon="2.248721">
        <ele>183</ele>
        <time>2022-06-09T09:26:49Z</time>
      </trkpt>
      <trkpt lat="47.559097" lon="2.248727">
        <ele>182</ele>
        <time>2022-06-09T09:26:50Z</time>
      </trkpt>
      <trkpt lat="47.559082" lon="2.248733">
        <ele>182</ele>
        <time>2022-06-09T09:26:51Z</time>
      </trkpt>
      <trkpt lat="47.55907" lon="2.2487388">
        <ele>182</ele>
        <time>2022-06-09T09:26:52Z</time>
      </trkpt>
      <trkpt lat="47.559055" lon="2.24874">
        <ele>182</ele>
        <time>2022-06-09T09:26:53Z</time>
      </trkpt>
      <trkpt lat="47.559048" lon="2.248742">
        <ele>182</ele>
        <time>2022-06-09T09:26:54Z</time>
      </trkpt>
      <trkpt lat="47.55904" lon="2.2487411">
        <ele>183</ele>
        <time>2022-06-09T09:26:55Z</time>
      </trkpt>
      <trkpt lat="47.559032" lon="2.2487435">
        <ele>183</ele>
        <time>2022-06-09T09:26:56Z</time>
      </trkpt>
      <trkpt lat="47.55902" lon="2.248744">
        <ele>183</ele>
        <time>2022-06-09T09:26:57Z</time>
      </trkpt>
      <trkpt lat="47.559013" lon="2.2487428">
        <ele>184</ele>
        <time>2022-06-09T09:26:58Z</time>
      </trkpt>
      <trkpt lat="47.559002" lon="2.2487454">
        <ele>185</ele>
        <time>2022-06-09T09:26:59Z</time>
      </trkpt>
      <trkpt lat="47.558987" lon="2.248748">
        <ele>185</ele>
        <time>2022-06-09T09:27:00Z</time>
      </trkpt>
      <trkpt lat="47.558975" lon="2.2487476">
        <ele>185</ele>
        <time>2022-06-09T09:27:01Z</time>
      </trkpt>
      <trkpt lat="47.55896" lon="2.2487504">
        <ele>186</ele>
        <time>2022-06-09T09:27:02Z</time>
      </trkpt>
      <trkpt lat="47.558945" lon="2.2487519">
        <ele>186</ele>
        <time>2022-06-09T09:27:03Z</time>
      </trkpt>
      <trkpt lat="47.55894" lon="2.2487488">
        <ele>187</ele>
        <time>2022-06-09T09:27:04Z</time>
      </trkpt>
      <trkpt lat="47.558933" lon="2.2487473">
        <ele>187</ele>
        <time>2022-06-09T09:27:05Z</time>
      </trkpt>
      <trkpt lat="47.558926" lon="2.248744">
        <ele>188</ele>
        <time>2022-06-09T09:27:06Z</time>
      </trkpt>
      <trkpt lat="47.558914" lon="2.2487454">
        <ele>188</ele>
        <time>2022-06-09T09:27:07Z</time>
      </trkpt>
      <trkpt lat="47.558903" lon="2.2487445">
        <ele>188</ele>
        <time>2022-06-09T09:27:08Z</time>
      </trkpt>
      <trkpt lat="47.55889" lon="2.2487462">
        <ele>188</ele>
        <time>2022-06-09T09:27:09Z</time>
      </trkpt>
      <trkpt lat="47.558872" lon="2.2487504">
        <ele>189</ele>
        <time>2022-06-09T09:27:10Z</time>
      </trkpt>
      <trkpt lat="47.558853" lon="2.248756">
        <ele>188</ele>
        <time>2022-06-09T09:27:11Z</time>
      </trkpt>
      <trkpt lat="47.558838" lon="2.2487586">
        <ele>188</ele>
        <time>2022-06-09T09:27:12Z</time>
      </trkpt>
      <trkpt lat="47.558823" lon="2.248759">
        <ele>187</ele>
        <time>2022-06-09T09:27:13Z</time>
      </trkpt>
      <trkpt lat="47.55881" lon="2.2487633">
        <ele>187</ele>
        <time>2022-06-09T09:27:14Z</time>
      </trkpt>
      <trkpt lat="47.558804" lon="2.2487648">
        <ele>187</ele>
        <time>2022-06-09T09:27:15Z</time>
      </trkpt>
      <trkpt lat="47.558792" lon="2.2487705">
        <ele>187</ele>
        <time>2022-06-09T09:27:16Z</time>
      </trkpt>
      <trkpt lat="47.558777" lon="2.2487717">
        <ele>187</ele>
        <time>2022-06-09T09:27:17Z</time>
      </trkpt>
      <trkpt lat="47.55876" lon="2.2487795">
        <ele>187</ele>
        <time>2022-06-09T09:27:18Z</time>
      </trkpt>
      <trkpt lat="47.55875" lon="2.248782">
        <ele>187</ele>
        <time>2022-06-09T09:27:19Z</time>
      </trkpt>
      <trkpt lat="47.55874" lon="2.2487788">
        <ele>187</ele>
        <time>2022-06-09T09:27:20Z</time>
      </trkpt>
      <trkpt lat="47.558727" lon="2.2487757">
        <ele>186</ele>
        <time>2022-06-09T09:27:21Z</time>
      </trkpt>
      <trkpt lat="47.558716" lon="2.2487714">
        <ele>185</ele>
        <time>2022-06-09T09:27:22Z</time>
      </trkpt>
      <trkpt lat="47.558704" lon="2.2487652">
        <ele>185</ele>
        <time>2022-06-09T09:27:23Z</time>
      </trkpt>
      <trkpt lat="47.558704" lon="2.2487652">
        <ele>185</ele>
        <time>2022-06-09T09:27:24Z</time>
      </trkpt>
      <trkpt lat="47.558704" lon="2.2487652">
        <ele>185</ele>
        <time>2022-06-09T09:27:25Z</time>
      </trkpt>
      <trkpt lat="47.55867" lon="2.24877">
        <ele>185</ele>
        <time>2022-06-09T09:27:26Z</time>
      </trkpt>
      <trkpt lat="47.558662" lon="2.248768">
        <ele>185</ele>
        <time>2022-06-09T09:27:27Z</time>
      </trkpt>
      <trkpt lat="47.55865" lon="2.2487688">
        <ele>186</ele>
        <time>2022-06-09T09:27:28Z</time>
      </trkpt>
      <trkpt lat="47.55864" lon="2.248768">
        <ele>186</ele>
        <time>2022-06-09T09:27:29Z</time>
      </trkpt>
      <trkpt lat="47.558628" lon="2.248771">
        <ele>186</ele>
        <time>2022-06-09T09:27:30Z</time>
      </trkpt>
      <trkpt lat="47.558617" lon="2.248774">
        <ele>186</ele>
        <time>2022-06-09T09:27:31Z</time>
      </trkpt>
      <trkpt lat="47.558605" lon="2.2487788">
        <ele>186</ele>
        <time>2022-06-09T09:27:32Z</time>
      </trkpt>
      <trkpt lat="47.558594" lon="2.248777">
        <ele>186</ele>
        <time>2022-06-09T09:27:33Z</time>
      </trkpt>
      <trkpt lat="47.558582" lon="2.2487767">
        <ele>186</ele>
        <time>2022-06-09T09:27:34Z</time>
      </trkpt>
      <trkpt lat="47.55857" lon="2.248774">
        <ele>185</ele>
        <time>2022-06-09T09:27:35Z</time>
      </trkpt>
      <trkpt lat="47.55856" lon="2.2487726">
        <ele>185</ele>
        <time>2022-06-09T09:27:36Z</time>
      </trkpt>
      <trkpt lat="47.558544" lon="2.2487676">
        <ele>185</ele>
        <time>2022-06-09T09:27:37Z</time>
      </trkpt>
      <trkpt lat="47.55853" lon="2.2487617">
        <ele>184</ele>
        <time>2022-06-09T09:27:38Z</time>
      </trkpt>
      <trkpt lat="47.558514" lon="2.2487519">
        <ele>183</ele>
        <time>2022-06-09T09:27:39Z</time>
      </trkpt>
      <trkpt lat="47.5585" lon="2.2487466">
        <ele>182</ele>
        <time>2022-06-09T09:27:40Z</time>
      </trkpt>
      <trkpt lat="47.558483" lon="2.2487445">
        <ele>183</ele>
        <time>2022-06-09T09:27:41Z</time>
      </trkpt>
      <trkpt lat="47.55847" lon="2.2487352">
        <ele>182</ele>
        <time>2022-06-09T09:27:42Z</time>
      </trkpt>
      <trkpt lat="47.55846" lon="2.2487288">
        <ele>182</ele>
        <time>2022-06-09T09:27:43Z</time>
      </trkpt>
      <trkpt lat="47.558453" lon="2.2487223">
        <ele>182</ele>
        <time>2022-06-09T09:27:44Z</time>
      </trkpt>
      <trkpt lat="47.55844" lon="2.248716">
        <ele>181</ele>
        <time>2022-06-09T09:27:45Z</time>
      </trkpt>
      <trkpt lat="47.558434" lon="2.2487059">
        <ele>181</ele>
        <time>2022-06-09T09:27:46Z</time>
      </trkpt>
      <trkpt lat="47.558414" lon="2.2486944">
        <ele>180</ele>
        <time>2022-06-09T09:27:47Z</time>
      </trkpt>
      <trkpt lat="47.5584" lon="2.2486875">
        <ele>180</ele>
        <time>2022-06-09T09:27:48Z</time>
      </trkpt>
      <trkpt lat="47.558384" lon="2.248681">
        <ele>180</ele>
        <time>2022-06-09T09:27:49Z</time>
      </trkpt>
      <trkpt lat="47.55837" lon="2.248671">
        <ele>180</ele>
        <time>2022-06-09T09:27:50Z</time>
      </trkpt>
      <trkpt lat="47.558353" lon="2.248668">
        <ele>180</ele>
        <time>2022-06-09T09:27:51Z</time>
      </trkpt>
      <trkpt lat="47.558342" lon="2.2486584">
        <ele>180</ele>
        <time>2022-06-09T09:27:52Z</time>
      </trkpt>
      <trkpt lat="47.558334" lon="2.2486491">
        <ele>180</ele>
        <time>2022-06-09T09:27:53Z</time>
      </trkpt>
      <trkpt lat="47.558327" lon="2.248645">
        <ele>179</ele>
        <time>2022-06-09T09:27:54Z</time>
      </trkpt>
      <trkpt lat="47.55831" lon="2.2486365">
        <ele>178</ele>
        <time>2022-06-09T09:27:55Z</time>
      </trkpt>
      <trkpt lat="47.558296" lon="2.2486243">
        <ele>178</ele>
        <time>2022-06-09T09:27:56Z</time>
      </trkpt>
      <trkpt lat="47.55829" lon="2.2486157">
        <ele>177</ele>
        <time>2022-06-09T09:27:57Z</time>
      </trkpt>
      <trkpt lat="47.55827" lon="2.248604">
        <ele>177</ele>
        <time>2022-06-09T09:27:58Z</time>
      </trkpt>
      <trkpt lat="47.55826" lon="2.2485945">
        <ele>177</ele>
        <time>2022-06-09T09:27:59Z</time>
      </trkpt>
      <trkpt lat="47.55825" lon="2.2485857">
        <ele>176</ele>
        <time>2022-06-09T09:28:00Z</time>
      </trkpt>
      <trkpt lat="47.55824" lon="2.2485688">
        <ele>176</ele>
        <time>2022-06-09T09:28:01Z</time>
      </trkpt>
      <trkpt lat="47.55823" lon="2.248566">
        <ele>175</ele>
        <time>2022-06-09T09:28:02Z</time>
      </trkpt>
      <trkpt lat="47.558212" lon="2.24856">
        <ele>175</ele>
        <time>2022-06-09T09:28:03Z</time>
      </trkpt>
      <trkpt lat="47.5582" lon="2.2485576">
        <ele>175</ele>
        <time>2022-06-09T09:28:04Z</time>
      </trkpt>
      <trkpt lat="47.55819" lon="2.2485526">
        <ele>176</ele>
        <time>2022-06-09T09:28:05Z</time>
      </trkpt>
      <trkpt lat="47.558178" lon="2.2485428">
        <ele>176</ele>
        <time>2022-06-09T09:28:06Z</time>
      </trkpt>
      <trkpt lat="47.558174" lon="2.2485375">
        <ele>177</ele>
        <time>2022-06-09T09:28:07Z</time>
      </trkpt>
      <trkpt lat="47.558167" lon="2.2485306">
        <ele>177</ele>
        <time>2022-06-09T09:28:08Z</time>
      </trkpt>
      <trkpt lat="47.558155" lon="2.2485301">
        <ele>177</ele>
        <time>2022-06-09T09:28:09Z</time>
      </trkpt>
      <trkpt lat="47.558147" lon="2.2485232">
        <ele>177</ele>
        <time>2022-06-09T09:28:10Z</time>
      </trkpt>
      <trkpt lat="47.55814" lon="2.2485154">
        <ele>177</ele>
        <time>2022-06-09T09:28:11Z</time>
      </trkpt>
      <trkpt lat="47.558132" lon="2.2485123">
        <ele>177</ele>
        <time>2022-06-09T09:28:12Z</time>
      </trkpt>
      <trkpt lat="47.558117" lon="2.248505">
        <ele>177</ele>
        <time>2022-06-09T09:28:13Z</time>
      </trkpt>
      <trkpt lat="47.558105" lon="2.2484965">
        <ele>177</ele>
        <time>2022-06-09T09:28:14Z</time>
      </trkpt>
      <trkpt lat="47.558094" lon="2.248487">
        <ele>177</ele>
        <time>2022-06-09T09:28:15Z</time>
      </trkpt>
      <trkpt lat="47.558086" lon="2.248482">
        <ele>177</ele>
        <time>2022-06-09T09:28:16Z</time>
      </trkpt>
      <trkpt lat="47.55808" lon="2.2484696">
        <ele>177</ele>
        <time>2022-06-09T09:28:17Z</time>
      </trkpt>
      <trkpt lat="47.558064" lon="2.248461">
        <ele>176</ele>
        <time>2022-06-09T09:28:18Z</time>
      </trkpt>
      <trkpt lat="47.558052" lon="2.248444">
        <ele>176</ele>
        <time>2022-06-09T09:28:19Z</time>
      </trkpt>
      <trkpt lat="47.558044" lon="2.2484312">
        <ele>176</ele>
        <time>2022-06-09T09:28:20Z</time>
      </trkpt>
      <trkpt lat="47.558033" lon="2.2484252">
        <ele>176</ele>
        <time>2022-06-09T09:28:21Z</time>
      </trkpt>
      <trkpt lat="47.55803" lon="2.2484212">
        <ele>175</ele>
        <time>2022-06-09T09:28:22Z</time>
      </trkpt>
      <trkpt lat="47.55802" lon="2.2484155">
        <ele>176</ele>
        <time>2022-06-09T09:28:23Z</time>
      </trkpt>
      <trkpt lat="47.55801" lon="2.2484105">
        <ele>175</ele>
        <time>2022-06-09T09:28:24Z</time>
      </trkpt>
      <trkpt lat="47.558" lon="2.248402">
        <ele>175</ele>
        <time>2022-06-09T09:28:25Z</time>
      </trkpt>
      <trkpt lat="47.557983" lon="2.2483966">
        <ele>174</ele>
        <time>2022-06-09T09:28:26Z</time>
      </trkpt>
      <trkpt lat="47.557976" lon="2.2483928">
        <ele>174</ele>
        <time>2022-06-09T09:28:27Z</time>
      </trkpt>
      <trkpt lat="47.557964" lon="2.248383">
        <ele>173</ele>
        <time>2022-06-09T09:28:28Z</time>
      </trkpt>
      <trkpt lat="47.557953" lon="2.2483835">
        <ele>173</ele>
        <time>2022-06-09T09:28:29Z</time>
      </trkpt>
      <trkpt lat="47.557934" lon="2.2483888">
        <ele>173</ele>
        <time>2022-06-09T09:28:30Z</time>
      </trkpt>
      <trkpt lat="47.55792" lon="2.248391">
        <ele>173</ele>
        <time>2022-06-09T09:28:31Z</time>
      </trkpt>
      <trkpt lat="47.55791" lon="2.2484014">
        <ele>173</ele>
        <time>2022-06-09T09:28:32Z</time>
      </trkpt>
      <trkpt lat="47.557903" lon="2.2484138">
        <ele>173</ele>
        <time>2022-06-09T09:28:33Z</time>
      </trkpt>
      <trkpt lat="47.5579" lon="2.2484317">
        <ele>173</ele>
        <time>2022-06-09T09:28:34Z</time>
      </trkpt>
      <trkpt lat="47.5579" lon="2.2484534">
        <ele>173</ele>
        <time>2022-06-09T09:28:35Z</time>
      </trkpt>
      <trkpt lat="47.5579" lon="2.2484846">
        <ele>173</ele>
        <time>2022-06-09T09:28:36Z</time>
      </trkpt>
      <trkpt lat="47.5579" lon="2.2485065">
        <ele>173</ele>
        <time>2022-06-09T09:28:37Z</time>
      </trkpt>
      <trkpt lat="47.557896" lon="2.2485313">
        <ele>174</ele>
        <time>2022-06-09T09:28:38Z</time>
      </trkpt>
      <trkpt lat="47.557896" lon="2.2485437">
        <ele>174</ele>
        <time>2022-06-09T09:28:39Z</time>
      </trkpt>
      <trkpt lat="47.55789" lon="2.2485518">
        <ele>175</ele>
        <time>2022-06-09T09:28:40Z</time>
      </trkpt>
      <trkpt lat="47.55789" lon="2.24856">
        <ele>175</ele>
        <time>2022-06-09T09:28:41Z</time>
      </trkpt>
      <trkpt lat="47.55789" lon="2.2485762">
        <ele>175</ele>
        <time>2022-06-09T09:28:42Z</time>
      </trkpt>
      <trkpt lat="47.55789" lon="2.2485971">
        <ele>175</ele>
        <time>2022-06-09T09:28:43Z</time>
      </trkpt>
      <trkpt lat="47.557896" lon="2.2486107">
        <ele>175</ele>
        <time>2022-06-09T09:28:44Z</time>
      </trkpt>
      <trkpt lat="47.557896" lon="2.2486274">
        <ele>176</ele>
        <time>2022-06-09T09:28:45Z</time>
      </trkpt>
      <trkpt lat="47.5579" lon="2.2486463">
        <ele>176</ele>
        <time>2022-06-09T09:28:46Z</time>
      </trkpt>
      <trkpt lat="47.557903" lon="2.248661">
        <ele>175</ele>
        <time>2022-06-09T09:28:47Z</time>
      </trkpt>
      <trkpt lat="47.557907" lon="2.2486758">
        <ele>175</ele>
        <time>2022-06-09T09:28:48Z</time>
      </trkpt>
      <trkpt lat="47.55791" lon="2.248697">
        <ele>175</ele>
        <time>2022-06-09T09:28:49Z</time>
      </trkpt>
      <trkpt lat="47.55792" lon="2.2487218">
        <ele>174</ele>
        <time>2022-06-09T09:28:50Z</time>
      </trkpt>
      <trkpt lat="47.557926" lon="2.2487378">
        <ele>173</ele>
        <time>2022-06-09T09:28:51Z</time>
      </trkpt>
      <trkpt lat="47.557938" lon="2.2487493">
        <ele>173</ele>
        <time>2022-06-09T09:28:52Z</time>
      </trkpt>
      <trkpt lat="47.557945" lon="2.248763">
        <ele>173</ele>
        <time>2022-06-09T09:28:53Z</time>
      </trkpt>
      <trkpt lat="47.55796" lon="2.248784">
        <ele>172</ele>
        <time>2022-06-09T09:28:54Z</time>
      </trkpt>
      <trkpt lat="47.55797" lon="2.248804">
        <ele>172</ele>
        <time>2022-06-09T09:28:55Z</time>
      </trkpt>
      <trkpt lat="47.557976" lon="2.2488234">
        <ele>172</ele>
        <time>2022-06-09T09:28:56Z</time>
      </trkpt>
      <trkpt lat="47.557987" lon="2.2488441">
        <ele>172</ele>
        <time>2022-06-09T09:28:57Z</time>
      </trkpt>
      <trkpt lat="47.557995" lon="2.248866">
        <ele>171</ele>
        <time>2022-06-09T09:28:58Z</time>
      </trkpt>
      <trkpt lat="47.558002" lon="2.2488801">
        <ele>172</ele>
        <time>2022-06-09T09:28:59Z</time>
      </trkpt>
      <trkpt lat="47.55801" lon="2.2488945">
        <ele>171</ele>
        <time>2022-06-09T09:29:00Z</time>
      </trkpt>
      <trkpt lat="47.558018" lon="2.2489092">
        <ele>172</ele>
        <time>2022-06-09T09:29:01Z</time>
      </trkpt>
      <trkpt lat="47.558025" lon="2.248923">
        <ele>172</ele>
        <time>2022-06-09T09:29:02Z</time>
      </trkpt>
      <trkpt lat="47.558033" lon="2.2489383">
        <ele>173</ele>
        <time>2022-06-09T09:29:03Z</time>
      </trkpt>
      <trkpt lat="47.558044" lon="2.248952">
        <ele>173</ele>
        <time>2022-06-09T09:29:04Z</time>
      </trkpt>
      <trkpt lat="47.558052" lon="2.2489605">
        <ele>173</ele>
        <time>2022-06-09T09:29:05Z</time>
      </trkpt>
      <trkpt lat="47.558056" lon="2.2489738">
        <ele>173</ele>
        <time>2022-06-09T09:29:06Z</time>
      </trkpt>
      <trkpt lat="47.558064" lon="2.2489834">
        <ele>173</ele>
        <time>2022-06-09T09:29:07Z</time>
      </trkpt>
      <trkpt lat="47.55807" lon="2.2489939">
        <ele>174</ele>
        <time>2022-06-09T09:29:08Z</time>
      </trkpt>
      <trkpt lat="47.55808" lon="2.249005">
        <ele>174</ele>
        <time>2022-06-09T09:29:09Z</time>
      </trkpt>
      <trkpt lat="47.558086" lon="2.249014">
        <ele>174</ele>
        <time>2022-06-09T09:29:10Z</time>
      </trkpt>
      <trkpt lat="47.558094" lon="2.2490256">
        <ele>174</ele>
        <time>2022-06-09T09:29:11Z</time>
      </trkpt>
      <trkpt lat="47.558098" lon="2.249036">
        <ele>174</ele>
        <time>2022-06-09T09:29:12Z</time>
      </trkpt>
      <trkpt lat="47.5581" lon="2.2490478">
        <ele>174</ele>
        <time>2022-06-09T09:29:13Z</time>
      </trkpt>
      <trkpt lat="47.558105" lon="2.249063">
        <ele>174</ele>
        <time>2022-06-09T09:29:14Z</time>
      </trkpt>
      <trkpt lat="47.558113" lon="2.2490764">
        <ele>174</ele>
        <time>2022-06-09T09:29:15Z</time>
      </trkpt>
      <trkpt lat="47.55812" lon="2.2490857">
        <ele>174</ele>
        <time>2022-06-09T09:29:16Z</time>
      </trkpt>
      <trkpt lat="47.55813" lon="2.2490964">
        <ele>174</ele>
        <time>2022-06-09T09:29:17Z</time>
      </trkpt>
      <trkpt lat="47.558132" lon="2.2491107">
        <ele>174</ele>
        <time>2022-06-09T09:29:18Z</time>
      </trkpt>
      <trkpt lat="47.55814" lon="2.249127">
        <ele>174</ele>
        <time>2022-06-09T09:29:19Z</time>
      </trkpt>
      <trkpt lat="47.558144" lon="2.2491424">
        <ele>174</ele>
        <time>2022-06-09T09:29:20Z</time>
      </trkpt>
      <trkpt lat="47.55815" lon="2.2491643">
        <ele>174</ele>
        <time>2022-06-09T09:29:21Z</time>
      </trkpt>
      <trkpt lat="47.558163" lon="2.2491887">
        <ele>173</ele>
        <time>2022-06-09T09:29:22Z</time>
      </trkpt>
      <trkpt lat="47.558174" lon="2.2492073">
        <ele>173</ele>
        <time>2022-06-09T09:29:23Z</time>
      </trkpt>
      <trkpt lat="47.558186" lon="2.2492259">
        <ele>172</ele>
        <time>2022-06-09T09:29:24Z</time>
      </trkpt>
      <trkpt lat="47.558193" lon="2.2492433">
        <ele>172</ele>
        <time>2022-06-09T09:29:25Z</time>
      </trkpt>
      <trkpt lat="47.558205" lon="2.2492526">
        <ele>172</ele>
        <time>2022-06-09T09:29:26Z</time>
      </trkpt>
      <trkpt lat="47.558212" lon="2.2492611">
        <ele>172</ele>
        <time>2022-06-09T09:29:27Z</time>
      </trkpt>
      <trkpt lat="47.55822" lon="2.2492788">
        <ele>172</ele>
        <time>2022-06-09T09:29:28Z</time>
      </trkpt>
      <trkpt lat="47.55823" lon="2.2492888">
        <ele>172</ele>
        <time>2022-06-09T09:29:29Z</time>
      </trkpt>
      <trkpt lat="47.55824" lon="2.2493017">
        <ele>172</ele>
        <time>2022-06-09T09:29:30Z</time>
      </trkpt>
      <trkpt lat="47.558247" lon="2.2493126">
        <ele>173</ele>
        <time>2022-06-09T09:29:31Z</time>
      </trkpt>
      <trkpt lat="47.558258" lon="2.2493253">
        <ele>173</ele>
        <time>2022-06-09T09:29:32Z</time>
      </trkpt>
      <trkpt lat="47.558273" lon="2.2493372">
        <ele>173</ele>
        <time>2022-06-09T09:29:33Z</time>
      </trkpt>
      <trkpt lat="47.55828" lon="2.2493525">
        <ele>173</ele>
        <time>2022-06-09T09:29:34Z</time>
      </trkpt>
      <trkpt lat="47.55829" lon="2.249369">
        <ele>174</ele>
        <time>2022-06-09T09:29:35Z</time>
      </trkpt>
      <trkpt lat="47.558296" lon="2.2493858">
        <ele>173</ele>
        <time>2022-06-09T09:29:36Z</time>
      </trkpt>
      <trkpt lat="47.5583" lon="2.249398">
        <ele>173</ele>
        <time>2022-06-09T09:29:37Z</time>
      </trkpt>
      <trkpt lat="47.558304" lon="2.249417">
        <ele>173</ele>
        <time>2022-06-09T09:29:38Z</time>
      </trkpt>
      <trkpt lat="47.558308" lon="2.2494342">
        <ele>173</ele>
        <time>2022-06-09T09:29:39Z</time>
      </trkpt>
      <trkpt lat="47.55832" lon="2.249452">
        <ele>172</ele>
        <time>2022-06-09T09:29:40Z</time>
      </trkpt>
      <trkpt lat="47.558327" lon="2.2494676">
        <ele>172</ele>
        <time>2022-06-09T09:29:41Z</time>
      </trkpt>
      <trkpt lat="47.558342" lon="2.2494848">
        <ele>172</ele>
        <time>2022-06-09T09:29:42Z</time>
      </trkpt>
      <trkpt lat="47.558353" lon="2.2494977">
        <ele>171</ele>
        <time>2022-06-09T09:29:43Z</time>
      </trkpt>
      <trkpt lat="47.558365" lon="2.2495058">
        <ele>171</ele>
        <time>2022-06-09T09:29:44Z</time>
      </trkpt>
      <trkpt lat="47.558372" lon="2.2495124">
        <ele>171</ele>
        <time>2022-06-09T09:29:45Z</time>
      </trkpt>
      <trkpt lat="47.558384" lon="2.2495277">
        <ele>171</ele>
        <time>2022-06-09T09:29:46Z</time>
      </trkpt>
      <trkpt lat="47.55839" lon="2.2495391">
        <ele>171</ele>
        <time>2022-06-09T09:29:47Z</time>
      </trkpt>
      <trkpt lat="47.558403" lon="2.2495532">
        <ele>171</ele>
        <time>2022-06-09T09:29:48Z</time>
      </trkpt>
      <trkpt lat="47.558414" lon="2.2495654">
        <ele>171</ele>
        <time>2022-06-09T09:29:49Z</time>
      </trkpt>
      <trkpt lat="47.558422" lon="2.2495735">
        <ele>171</ele>
        <time>2022-06-09T09:29:50Z</time>
      </trkpt>
      <trkpt lat="47.558434" lon="2.2495809">
        <ele>171</ele>
        <time>2022-06-09T09:29:51Z</time>
      </trkpt>
      <trkpt lat="47.55844" lon="2.2495868">
        <ele>171</ele>
        <time>2022-06-09T09:29:52Z</time>
      </trkpt>
      <trkpt lat="47.55845" lon="2.249593">
        <ele>171</ele>
        <time>2022-06-09T09:29:53Z</time>
      </trkpt>
      <trkpt lat="47.558456" lon="2.2496054">
        <ele>171</ele>
        <time>2022-06-09T09:29:54Z</time>
      </trkpt>
      <trkpt lat="47.558464" lon="2.2496164">
        <ele>171</ele>
        <time>2022-06-09T09:29:55Z</time>
      </trkpt>
      <trkpt lat="47.558475" lon="2.2496266">
        <ele>171</ele>
        <time>2022-06-09T09:29:56Z</time>
      </trkpt>
      <trkpt lat="47.558483" lon="2.2496393">
        <ele>172</ele>
        <time>2022-06-09T09:29:57Z</time>
      </trkpt>
      <trkpt lat="47.558495" lon="2.2496536">
        <ele>172</ele>
        <time>2022-06-09T09:29:58Z</time>
      </trkpt>
      <trkpt lat="47.558506" lon="2.2496688">
        <ele>172</ele>
        <time>2022-06-09T09:29:59Z</time>
      </trkpt>
      <trkpt lat="47.558514" lon="2.2496827">
        <ele>171</ele>
        <time>2022-06-09T09:30:00Z</time>
      </trkpt>
      <trkpt lat="47.558517" lon="2.249698">
        <ele>171</ele>
        <time>2022-06-09T09:30:01Z</time>
      </trkpt>
      <trkpt lat="47.558517" lon="2.2497141">
        <ele>171</ele>
        <time>2022-06-09T09:30:02Z</time>
      </trkpt>
      <trkpt lat="47.558517" lon="2.249726">
        <ele>171</ele>
        <time>2022-06-09T09:30:03Z</time>
      </trkpt>
      <trkpt lat="47.55852" lon="2.2497392">
        <ele>172</ele>
        <time>2022-06-09T09:30:04Z</time>
      </trkpt>
      <trkpt lat="47.558525" lon="2.2497478">
        <ele>172</ele>
        <time>2022-06-09T09:30:05Z</time>
      </trkpt>
      <trkpt lat="47.558533" lon="2.2497587">
        <ele>172</ele>
        <time>2022-06-09T09:30:06Z</time>
      </trkpt>
      <trkpt lat="47.558537" lon="2.2497666">
        <ele>173</ele>
        <time>2022-06-09T09:30:07Z</time>
      </trkpt>
      <trkpt lat="47.558544" lon="2.2497797">
        <ele>173</ele>
        <time>2022-06-09T09:30:08Z</time>
      </trkpt>
      <trkpt lat="47.55855" lon="2.2497907">
        <ele>173</ele>
        <time>2022-06-09T09:30:09Z</time>
      </trkpt>
      <trkpt lat="47.558556" lon="2.249794">
        <ele>174</ele>
        <time>2022-06-09T09:30:10Z</time>
      </trkpt>
      <trkpt lat="47.558556" lon="2.249794">
        <ele>174</ele>
        <time>2022-06-09T09:30:11Z</time>
      </trkpt>
      <trkpt lat="47.558556" lon="2.249794">
        <ele>174</ele>
        <time>2022-06-09T09:30:12Z</time>
      </trkpt>
      <trkpt lat="47.558567" lon="2.2498167">
        <ele>175</ele>
        <time>2022-06-09T09:30:13Z</time>
      </trkpt>
      <trkpt lat="47.55857" lon="2.2498167">
        <ele>174</ele>
        <time>2022-06-09T09:30:14Z</time>
      </trkpt>
      <trkpt lat="47.558582" lon="2.2498114">
        <ele>174</ele>
        <time>2022-06-09T09:30:15Z</time>
      </trkpt>
      <trkpt lat="47.558582" lon="2.2498112">
        <ele>174</ele>
        <time>2022-06-09T09:30:16Z</time>
      </trkpt>
      <trkpt lat="47.558582" lon="2.2498112">
        <ele>174</ele>
        <time>2022-06-09T09:30:16Z</time>
      </trkpt>
      <trkpt lat="47.558582" lon="2.2498112">
        <ele>174</ele>
        <time>2022-06-09T09:30:16Z</time>
      </trkpt>
      <trkpt lat="47.558617" lon="2.2498884">
        <ele>171</ele>
        <time>2022-06-09T09:30:25Z</time>
      </trkpt>
      <trkpt lat="47.558624" lon="2.2499042">
        <ele>171</ele>
        <time>2022-06-09T09:30:26Z</time>
      </trkpt>
      <trkpt lat="47.558628" lon="2.2499225">
        <ele>171</ele>
        <time>2022-06-09T09:30:27Z</time>
      </trkpt>
      <trkpt lat="47.55863" lon="2.2499444">
        <ele>171</ele>
        <time>2022-06-09T09:30:28Z</time>
      </trkpt>
      <trkpt lat="47.558636" lon="2.2499611">
        <ele>171</ele>
        <time>2022-06-09T09:30:29Z</time>
      </trkpt>
      <trkpt lat="47.558647" lon="2.2499766">
        <ele>170</ele>
        <time>2022-06-09T09:30:30Z</time>
      </trkpt>
      <trkpt lat="47.55866" lon="2.2499862">
        <ele>170</ele>
        <time>2022-06-09T09:30:31Z</time>
      </trkpt>
      <trkpt lat="47.558666" lon="2.249997">
        <ele>170</ele>
        <time>2022-06-09T09:30:32Z</time>
      </trkpt>
      <trkpt lat="47.558674" lon="2.2500122">
        <ele>170</ele>
        <time>2022-06-09T09:30:33Z</time>
      </trkpt>
      <trkpt lat="47.558678" lon="2.2500257">
        <ele>171</ele>
        <time>2022-06-09T09:30:34Z</time>
      </trkpt>
      <trkpt lat="47.55869" lon="2.2500422">
        <ele>170</ele>
        <time>2022-06-09T09:30:35Z</time>
      </trkpt>
      <trkpt lat="47.5587" lon="2.2500517">
        <ele>170</ele>
        <time>2022-06-09T09:30:36Z</time>
      </trkpt>
      <trkpt lat="47.55871" lon="2.250066">
        <ele>169</ele>
        <time>2022-06-09T09:30:37Z</time>
      </trkpt>
      <trkpt lat="47.558716" lon="2.25008">
        <ele>169</ele>
        <time>2022-06-09T09:30:38Z</time>
      </trkpt>
      <trkpt lat="47.55872" lon="2.2500947">
        <ele>170</ele>
        <time>2022-06-09T09:30:39Z</time>
      </trkpt>
      <trkpt lat="47.55873" lon="2.250111">
        <ele>169</ele>
        <time>2022-06-09T09:30:40Z</time>
      </trkpt>
      <trkpt lat="47.55874" lon="2.2501252">
        <ele>169</ele>
        <time>2022-06-09T09:30:41Z</time>
      </trkpt>
      <trkpt lat="47.55875" lon="2.2501407">
        <ele>168</ele>
        <time>2022-06-09T09:30:42Z</time>
      </trkpt>
      <trkpt lat="47.558758" lon="2.250153">
        <ele>168</ele>
        <time>2022-06-09T09:30:43Z</time>
      </trkpt>
      <trkpt lat="47.55877" lon="2.250158">
        <ele>169</ele>
        <time>2022-06-09T09:30:44Z</time>
      </trkpt>
      <trkpt lat="47.55878" lon="2.2501667">
        <ele>169</ele>
        <time>2022-06-09T09:30:45Z</time>
      </trkpt>
      <trkpt lat="47.55879" lon="2.2501721">
        <ele>169</ele>
        <time>2022-06-09T09:30:46Z</time>
      </trkpt>
      <trkpt lat="47.558804" lon="2.2501838">
        <ele>169</ele>
        <time>2022-06-09T09:30:47Z</time>
      </trkpt>
      <trkpt lat="47.558815" lon="2.2501984">
        <ele>169</ele>
        <time>2022-06-09T09:30:48Z</time>
      </trkpt>
      <trkpt lat="47.55883" lon="2.2502167">
        <ele>169</ele>
        <time>2022-06-09T09:30:49Z</time>
      </trkpt>
      <trkpt lat="47.558838" lon="2.250234">
        <ele>169</ele>
        <time>2022-06-09T09:30:50Z</time>
      </trkpt>
      <trkpt lat="47.558846" lon="2.250253">
        <ele>170</ele>
        <time>2022-06-09T09:30:51Z</time>
      </trkpt>
      <trkpt lat="47.55885" lon="2.250266">
        <ele>170</ele>
        <time>2022-06-09T09:30:52Z</time>
      </trkpt>
      <trkpt lat="47.558857" lon="2.250281">
        <ele>170</ele>
        <time>2022-06-09T09:30:53Z</time>
      </trkpt>
      <trkpt lat="47.558872" lon="2.2502985">
        <ele>169</ele>
        <time>2022-06-09T09:30:54Z</time>
      </trkpt>
      <trkpt lat="47.558887" lon="2.2503119">
        <ele>169</ele>
        <time>2022-06-09T09:30:55Z</time>
      </trkpt>
      <trkpt lat="47.558903" lon="2.25032">
        <ele>168</ele>
        <time>2022-06-09T09:30:56Z</time>
      </trkpt>
      <trkpt lat="47.558918" lon="2.2503283">
        <ele>168</ele>
        <time>2022-06-09T09:30:57Z</time>
      </trkpt>
      <trkpt lat="47.558933" lon="2.2503352">
        <ele>168</ele>
        <time>2022-06-09T09:30:58Z</time>
      </trkpt>
      <trkpt lat="47.558945" lon="2.2503479">
        <ele>168</ele>
        <time>2022-06-09T09:30:59Z</time>
      </trkpt>
      <trkpt lat="47.558956" lon="2.2503648">
        <ele>167</ele>
        <time>2022-06-09T09:31:00Z</time>
      </trkpt>
      <trkpt lat="47.558968" lon="2.2503731">
        <ele>167</ele>
        <time>2022-06-09T09:31:01Z</time>
      </trkpt>
      <trkpt lat="47.558975" lon="2.2503812">
        <ele>167</ele>
        <time>2022-06-09T09:31:02Z</time>
      </trkpt>
      <trkpt lat="47.558983" lon="2.2503932">
        <ele>167</ele>
        <time>2022-06-09T09:31:03Z</time>
      </trkpt>
      <trkpt lat="47.558994" lon="2.2504082">
        <ele>167</ele>
        <time>2022-06-09T09:31:04Z</time>
      </trkpt>
      <trkpt lat="47.559002" lon="2.2504203">
        <ele>167</ele>
        <time>2022-06-09T09:31:05Z</time>
      </trkpt>
      <trkpt lat="47.559006" lon="2.2504404">
        <ele>167</ele>
        <time>2022-06-09T09:31:06Z</time>
      </trkpt>
      <trkpt lat="47.559013" lon="2.2504551">
        <ele>166</ele>
        <time>2022-06-09T09:31:07Z</time>
      </trkpt>
      <trkpt lat="47.559017" lon="2.250468">
        <ele>166</ele>
        <time>2022-06-09T09:31:08Z</time>
      </trkpt>
      <trkpt lat="47.55903" lon="2.2504773">
        <ele>167</ele>
        <time>2022-06-09T09:31:09Z</time>
      </trkpt>
      <trkpt lat="47.559036" lon="2.2504907">
        <ele>166</ele>
        <time>2022-06-09T09:31:10Z</time>
      </trkpt>
      <trkpt lat="47.559044" lon="2.2505038">
        <ele>167</ele>
        <time>2022-06-09T09:31:11Z</time>
      </trkpt>
      <trkpt lat="47.559055" lon="2.2505186">
        <ele>167</ele>
        <time>2022-06-09T09:31:12Z</time>
      </trkpt>
      <trkpt lat="47.559063" lon="2.2505343">
        <ele>167</ele>
        <time>2022-06-09T09:31:13Z</time>
      </trkpt>
      <trkpt lat="47.559067" lon="2.250551">
        <ele>168</ele>
        <time>2022-06-09T09:31:14Z</time>
      </trkpt>
      <trkpt lat="47.559074" lon="2.2505662">
        <ele>168</ele>
        <time>2022-06-09T09:31:15Z</time>
      </trkpt>
      <trkpt lat="47.559082" lon="2.2505808">
        <ele>169</ele>
        <time>2022-06-09T09:31:16Z</time>
      </trkpt>
      <trkpt lat="47.55909" lon="2.2505953">
        <ele>170</ele>
        <time>2022-06-09T09:31:17Z</time>
      </trkpt>
      <trkpt lat="47.5591" lon="2.2506053">
        <ele>169</ele>
        <time>2022-06-09T09:31:18Z</time>
      </trkpt>
      <trkpt lat="47.559113" lon="2.2506192">
        <ele>169</ele>
        <time>2022-06-09T09:31:19Z</time>
      </trkpt>
      <trkpt lat="47.559116" lon="2.2506328">
        <ele>170</ele>
        <time>2022-06-09T09:31:20Z</time>
      </trkpt>
      <trkpt lat="47.559124" lon="2.2506511">
        <ele>170</ele>
        <time>2022-06-09T09:31:21Z</time>
      </trkpt>
      <trkpt lat="47.559128" lon="2.2506745">
        <ele>169</ele>
        <time>2022-06-09T09:31:22Z</time>
      </trkpt>
      <trkpt lat="47.559135" lon="2.2506924">
        <ele>170</ele>
        <time>2022-06-09T09:31:23Z</time>
      </trkpt>
      <trkpt lat="47.55914" lon="2.2507126">
        <ele>170</ele>
        <time>2022-06-09T09:31:24Z</time>
      </trkpt>
      <trkpt lat="47.559147" lon="2.2507308">
        <ele>170</ele>
        <time>2022-06-09T09:31:25Z</time>
      </trkpt>
      <trkpt lat="47.559155" lon="2.2507503">
        <ele>170</ele>
        <time>2022-06-09T09:31:26Z</time>
      </trkpt>
      <trkpt lat="47.559162" lon="2.2507699">
        <ele>170</ele>
        <time>2022-06-09T09:31:27Z</time>
      </trkpt>
      <trkpt lat="47.559166" lon="2.2507932">
        <ele>170</ele>
        <time>2022-06-09T09:31:28Z</time>
      </trkpt>
      <trkpt lat="47.559174" lon="2.2508092">
        <ele>170</ele>
        <time>2022-06-09T09:31:29Z</time>
      </trkpt>
      <trkpt lat="47.55918" lon="2.2508233">
        <ele>170</ele>
        <time>2022-06-09T09:31:30Z</time>
      </trkpt>
      <trkpt lat="47.55919" lon="2.250839">
        <ele>170</ele>
        <time>2022-06-09T09:31:31Z</time>
      </trkpt>
      <trkpt lat="47.559196" lon="2.2508566">
        <ele>170</ele>
        <time>2022-06-09T09:31:32Z</time>
      </trkpt>
      <trkpt lat="47.559204" lon="2.2508712">
        <ele>170</ele>
        <time>2022-06-09T09:31:33Z</time>
      </trkpt>
      <trkpt lat="47.55921" lon="2.2508836">
        <ele>170</ele>
        <time>2022-06-09T09:31:34Z</time>
      </trkpt>
      <trkpt lat="47.55922" lon="2.2508957">
        <ele>170</ele>
        <time>2022-06-09T09:31:35Z</time>
      </trkpt>
      <trkpt lat="47.55923" lon="2.2509093">
        <ele>170</ele>
        <time>2022-06-09T09:31:36Z</time>
      </trkpt>
      <trkpt lat="47.55924" lon="2.2509236">
        <ele>170</ele>
        <time>2022-06-09T09:31:37Z</time>
      </trkpt>
      <trkpt lat="47.559246" lon="2.2509382">
        <ele>170</ele>
        <time>2022-06-09T09:31:38Z</time>
      </trkpt>
      <trkpt lat="47.559258" lon="2.2509515">
        <ele>170</ele>
        <time>2022-06-09T09:31:39Z</time>
      </trkpt>
      <trkpt lat="47.559265" lon="2.2509654">
        <ele>171</ele>
        <time>2022-06-09T09:31:40Z</time>
      </trkpt>
      <trkpt lat="47.559273" lon="2.2509797">
        <ele>171</ele>
        <time>2022-06-09T09:31:41Z</time>
      </trkpt>
      <trkpt lat="47.55928" lon="2.250988">
        <ele>171</ele>
        <time>2022-06-09T09:31:42Z</time>
      </trkpt>
      <trkpt lat="47.55929" lon="2.2509947">
        <ele>171</ele>
        <time>2022-06-09T09:31:43Z</time>
      </trkpt>
      <trkpt lat="47.5593" lon="2.2510064">
        <ele>171</ele>
        <time>2022-06-09T09:31:44Z</time>
      </trkpt>
      <trkpt lat="47.559307" lon="2.2510192">
        <ele>170</ele>
        <time>2022-06-09T09:31:45Z</time>
      </trkpt>
      <trkpt lat="47.55931" lon="2.2510328">
        <ele>170</ele>
        <time>2022-06-09T09:31:46Z</time>
      </trkpt>
      <trkpt lat="47.559322" lon="2.2510464">
        <ele>170</ele>
        <time>2022-06-09T09:31:47Z</time>
      </trkpt>
      <trkpt lat="47.55933" lon="2.2510586">
        <ele>170</ele>
        <time>2022-06-09T09:31:48Z</time>
      </trkpt>
      <trkpt lat="47.559338" lon="2.2510667">
        <ele>170</ele>
        <time>2022-06-09T09:31:49Z</time>
      </trkpt>
      <trkpt lat="47.559345" lon="2.2510805">
        <ele>170</ele>
        <time>2022-06-09T09:31:50Z</time>
      </trkpt>
      <trkpt lat="47.559357" lon="2.2510853">
        <ele>170</ele>
        <time>2022-06-09T09:31:51Z</time>
      </trkpt>
      <trkpt lat="47.55936" lon="2.2510972">
        <ele>170</ele>
        <time>2022-06-09T09:31:52Z</time>
      </trkpt>
      <trkpt lat="47.55937" lon="2.2511115">
        <ele>170</ele>
        <time>2022-06-09T09:31:53Z</time>
      </trkpt>
      <trkpt lat="47.559376" lon="2.2511258">
        <ele>170</ele>
        <time>2022-06-09T09:31:54Z</time>
      </trkpt>
      <trkpt lat="47.55938" lon="2.25114">
        <ele>170</ele>
        <time>2022-06-09T09:31:55Z</time>
      </trkpt>
      <trkpt lat="47.55939" lon="2.2511563">
        <ele>170</ele>
        <time>2022-06-09T09:31:56Z</time>
      </trkpt>
      <trkpt lat="47.5594" lon="2.2511725">
        <ele>170</ele>
        <time>2022-06-09T09:31:57Z</time>
      </trkpt>
      <trkpt lat="47.559406" lon="2.2511876">
        <ele>170</ele>
        <time>2022-06-09T09:31:58Z</time>
      </trkpt>
      <trkpt lat="47.559414" lon="2.2512026">
        <ele>170</ele>
        <time>2022-06-09T09:31:59Z</time>
      </trkpt>
      <trkpt lat="47.559425" lon="2.251215">
        <ele>170</ele>
        <time>2022-06-09T09:32:00Z</time>
      </trkpt>
      <trkpt lat="47.559433" lon="2.251229">
        <ele>170</ele>
        <time>2022-06-09T09:32:01Z</time>
      </trkpt>
      <trkpt lat="47.55944" lon="2.2512443">
        <ele>170</ele>
        <time>2022-06-09T09:32:02Z</time>
      </trkpt>
      <trkpt lat="47.55945" lon="2.2512577">
        <ele>171</ele>
        <time>2022-06-09T09:32:03Z</time>
      </trkpt>
      <trkpt lat="47.559456" lon="2.2512686">
        <ele>171</ele>
        <time>2022-06-09T09:32:04Z</time>
      </trkpt>
      <trkpt lat="47.559464" lon="2.251283">
        <ele>171</ele>
        <time>2022-06-09T09:32:05Z</time>
      </trkpt>
      <trkpt lat="47.55947" lon="2.2513027">
        <ele>171</ele>
        <time>2022-06-09T09:32:06Z</time>
      </trkpt>
      <trkpt lat="47.55948" lon="2.2513154">
        <ele>171</ele>
        <time>2022-06-09T09:32:07Z</time>
      </trkpt>
      <trkpt lat="47.559483" lon="2.251323">
        <ele>171</ele>
        <time>2022-06-09T09:32:08Z</time>
      </trkpt>
      <trkpt lat="47.559494" lon="2.2513306">
        <ele>171</ele>
        <time>2022-06-09T09:32:09Z</time>
      </trkpt>
      <trkpt lat="47.5595" lon="2.251339">
        <ele>171</ele>
        <time>2022-06-09T09:32:10Z</time>
      </trkpt>
      <trkpt lat="47.559513" lon="2.2513497">
        <ele>171</ele>
        <time>2022-06-09T09:32:11Z</time>
      </trkpt>
      <trkpt lat="47.55952" lon="2.2513642">
        <ele>171</ele>
        <time>2022-06-09T09:32:12Z</time>
      </trkpt>
      <trkpt lat="47.55953" lon="2.2513845">
        <ele>171</ele>
        <time>2022-06-09T09:32:13Z</time>
      </trkpt>
      <trkpt lat="47.559532" lon="2.2514033">
        <ele>172</ele>
        <time>2022-06-09T09:32:14Z</time>
      </trkpt>
      <trkpt lat="47.559544" lon="2.2514205">
        <ele>172</ele>
        <time>2022-06-09T09:32:15Z</time>
      </trkpt>
      <trkpt lat="47.55955" lon="2.2514358">
        <ele>172</ele>
        <time>2022-06-09T09:32:16Z</time>
      </trkpt>
      <trkpt lat="47.559563" lon="2.2514515">
        <ele>172</ele>
        <time>2022-06-09T09:32:17Z</time>
      </trkpt>
      <trkpt lat="47.55957" lon="2.2514665">
        <ele>173</ele>
        <time>2022-06-09T09:32:18Z</time>
      </trkpt>
      <trkpt lat="47.55958" lon="2.2514813">
        <ele>173</ele>
        <time>2022-06-09T09:32:19Z</time>
      </trkpt>
      <trkpt lat="47.55959" lon="2.2514956">
        <ele>172</ele>
        <time>2022-06-09T09:32:20Z</time>
      </trkpt>
      <trkpt lat="47.5596" lon="2.25151">
        <ele>172</ele>
        <time>2022-06-09T09:32:21Z</time>
      </trkpt>
      <trkpt lat="47.559612" lon="2.2515256">
        <ele>172</ele>
        <time>2022-06-09T09:32:22Z</time>
      </trkpt>
      <trkpt lat="47.559624" lon="2.251541">
        <ele>172</ele>
        <time>2022-06-09T09:32:23Z</time>
      </trkpt>
      <trkpt lat="47.559635" lon="2.251551">
        <ele>173</ele>
        <time>2022-06-09T09:32:24Z</time>
      </trkpt>
      <trkpt lat="47.559643" lon="2.2515643">
        <ele>172</ele>
        <time>2022-06-09T09:32:25Z</time>
      </trkpt>
      <trkpt lat="47.55965" lon="2.25158">
        <ele>173</ele>
        <time>2022-06-09T09:32:26Z</time>
      </trkpt>
      <trkpt lat="47.55965" lon="2.2515962">
        <ele>172</ele>
        <time>2022-06-09T09:32:27Z</time>
      </trkpt>
      <trkpt lat="47.559658" lon="2.2516088">
        <ele>172</ele>
        <time>2022-06-09T09:32:28Z</time>
      </trkpt>
      <trkpt lat="47.55966" lon="2.251624">
        <ele>172</ele>
        <time>2022-06-09T09:32:29Z</time>
      </trkpt>
      <trkpt lat="47.55967" lon="2.2516396">
        <ele>172</ele>
        <time>2022-06-09T09:32:30Z</time>
      </trkpt>
      <trkpt lat="47.559677" lon="2.2516534">
        <ele>172</ele>
        <time>2022-06-09T09:32:31Z</time>
      </trkpt>
      <trkpt lat="47.559685" lon="2.2516685">
        <ele>171</ele>
        <time>2022-06-09T09:32:32Z</time>
      </trkpt>
      <trkpt lat="47.559692" lon="2.2516818">
        <ele>172</ele>
        <time>2022-06-09T09:32:33Z</time>
      </trkpt>
      <trkpt lat="47.559704" lon="2.2516952">
        <ele>172</ele>
        <time>2022-06-09T09:32:34Z</time>
      </trkpt>
      <trkpt lat="47.55971" lon="2.251714">
        <ele>172</ele>
        <time>2022-06-09T09:32:35Z</time>
      </trkpt>
      <trkpt lat="47.559723" lon="2.2517292">
        <ele>171</ele>
        <time>2022-06-09T09:32:36Z</time>
      </trkpt>
      <trkpt lat="47.55973" lon="2.251744">
        <ele>172</ele>
        <time>2022-06-09T09:32:37Z</time>
      </trkpt>
      <trkpt lat="47.55974" lon="2.251757">
        <ele>172</ele>
        <time>2022-06-09T09:32:38Z</time>
      </trkpt>
      <trkpt lat="47.55975" lon="2.2517684">
        <ele>172</ele>
        <time>2022-06-09T09:32:39Z</time>
      </trkpt>
      <trkpt lat="47.559757" lon="2.2517765">
        <ele>172</ele>
        <time>2022-06-09T09:32:40Z</time>
      </trkpt>
      <trkpt lat="47.55976" lon="2.25179">
        <ele>172</ele>
        <time>2022-06-09T09:32:41Z</time>
      </trkpt>
      <trkpt lat="47.559772" lon="2.2518046">
        <ele>172</ele>
        <time>2022-06-09T09:32:42Z</time>
      </trkpt>
      <trkpt lat="47.55978" lon="2.2518175">
        <ele>173</ele>
        <time>2022-06-09T09:32:43Z</time>
      </trkpt>
      <trkpt lat="47.559788" lon="2.2518287">
        <ele>173</ele>
        <time>2022-06-09T09:32:44Z</time>
      </trkpt>
      <trkpt lat="47.55979" lon="2.251843">
        <ele>173</ele>
        <time>2022-06-09T09:32:45Z</time>
      </trkpt>
      <trkpt lat="47.5598" lon="2.2518573">
        <ele>173</ele>
        <time>2022-06-09T09:32:46Z</time>
      </trkpt>
      <trkpt lat="47.559803" lon="2.2518685">
        <ele>172</ele>
        <time>2022-06-09T09:32:47Z</time>
      </trkpt>
      <trkpt lat="47.55981" lon="2.2518828">
        <ele>172</ele>
        <time>2022-06-09T09:32:48Z</time>
      </trkpt>
      <trkpt lat="47.559822" lon="2.2518964">
        <ele>172</ele>
        <time>2022-06-09T09:32:49Z</time>
      </trkpt>
      <trkpt lat="47.559834" lon="2.2519097">
        <ele>172</ele>
        <time>2022-06-09T09:32:50Z</time>
      </trkpt>
      <trkpt lat="47.55984" lon="2.251924">
        <ele>172</ele>
        <time>2022-06-09T09:32:51Z</time>
      </trkpt>
      <trkpt lat="47.55985" lon="2.2519388">
        <ele>172</ele>
        <time>2022-06-09T09:32:52Z</time>
      </trkpt>
      <trkpt lat="47.559856" lon="2.251952">
        <ele>172</ele>
        <time>2022-06-09T09:32:53Z</time>
      </trkpt>
      <trkpt lat="47.559868" lon="2.2519653">
        <ele>172</ele>
        <time>2022-06-09T09:32:54Z</time>
      </trkpt>
      <trkpt lat="47.55987" lon="2.2519774">
        <ele>172</ele>
        <time>2022-06-09T09:32:55Z</time>
      </trkpt>
      <trkpt lat="47.55988" lon="2.251993">
        <ele>172</ele>
        <time>2022-06-09T09:32:56Z</time>
      </trkpt>
      <trkpt lat="47.559887" lon="2.2520077">
        <ele>172</ele>
        <time>2022-06-09T09:32:57Z</time>
      </trkpt>
      <trkpt lat="47.559895" lon="2.2520177">
        <ele>172</ele>
        <time>2022-06-09T09:32:58Z</time>
      </trkpt>
      <trkpt lat="47.559902" lon="2.2520268">
        <ele>172</ele>
        <time>2022-06-09T09:32:59Z</time>
      </trkpt>
      <trkpt lat="47.559914" lon="2.2520378">
        <ele>173</ele>
        <time>2022-06-09T09:33:00Z</time>
      </trkpt>
      <trkpt lat="47.55992" lon="2.25205">
        <ele>173</ele>
        <time>2022-06-09T09:33:01Z</time>
      </trkpt>
      <trkpt lat="47.559933" lon="2.2520616">
        <ele>173</ele>
        <time>2022-06-09T09:33:02Z</time>
      </trkpt>
      <trkpt lat="47.55994" lon="2.2520747">
        <ele>173</ele>
        <time>2022-06-09T09:33:03Z</time>
      </trkpt>
      <trkpt lat="47.55995" lon="2.2520866">
        <ele>173</ele>
        <time>2022-06-09T09:33:04Z</time>
      </trkpt>
      <trkpt lat="47.55996" lon="2.2521036">
        <ele>173</ele>
        <time>2022-06-09T09:33:05Z</time>
      </trkpt>
      <trkpt lat="47.559963" lon="2.2521198">
        <ele>172</ele>
        <time>2022-06-09T09:33:06Z</time>
      </trkpt>
      <trkpt lat="47.559975" lon="2.2521348">
        <ele>172</ele>
        <time>2022-06-09T09:33:07Z</time>
      </trkpt>
      <trkpt lat="47.559982" lon="2.252149">
        <ele>172</ele>
        <time>2022-06-09T09:33:08Z</time>
      </trkpt>
      <trkpt lat="47.55999" lon="2.2521615">
        <ele>172</ele>
        <time>2022-06-09T09:33:09Z</time>
      </trkpt>
      <trkpt lat="47.559998" lon="2.2521741">
        <ele>172</ele>
        <time>2022-06-09T09:33:10Z</time>
      </trkpt>
      <trkpt lat="47.560005" lon="2.2521846">
        <ele>172</ele>
        <time>2022-06-09T09:33:11Z</time>
      </trkpt>
      <trkpt lat="47.560013" lon="2.252199">
        <ele>172</ele>
        <time>2022-06-09T09:33:12Z</time>
      </trkpt>
      <trkpt lat="47.56002" lon="2.2522128">
        <ele>172</ele>
        <time>2022-06-09T09:33:13Z</time>
      </trkpt>
      <trkpt lat="47.560028" lon="2.252226">
        <ele>172</ele>
        <time>2022-06-09T09:33:14Z</time>
      </trkpt>
      <trkpt lat="47.560036" lon="2.2522366">
        <ele>172</ele>
        <time>2022-06-09T09:33:15Z</time>
      </trkpt>
      <trkpt lat="47.560047" lon="2.25225">
        <ele>171</ele>
        <time>2022-06-09T09:33:16Z</time>
      </trkpt>
      <trkpt lat="47.56006" lon="2.2522607">
        <ele>172</ele>
        <time>2022-06-09T09:33:17Z</time>
      </trkpt>
      <trkpt lat="47.560066" lon="2.252273">
        <ele>172</ele>
        <time>2022-06-09T09:33:18Z</time>
      </trkpt>
      <trkpt lat="47.560074" lon="2.252288">
        <ele>172</ele>
        <time>2022-06-09T09:33:19Z</time>
      </trkpt>
      <trkpt lat="47.56008" lon="2.252298">
        <ele>172</ele>
        <time>2022-06-09T09:33:20Z</time>
      </trkpt>
      <trkpt lat="47.560093" lon="2.2523112">
        <ele>172</ele>
        <time>2022-06-09T09:33:21Z</time>
      </trkpt>
      <trkpt lat="47.560097" lon="2.252328">
        <ele>173</ele>
        <time>2022-06-09T09:33:22Z</time>
      </trkpt>
      <trkpt lat="47.5601" lon="2.2523437">
        <ele>173</ele>
        <time>2022-06-09T09:33:23Z</time>
      </trkpt>
      <trkpt lat="47.56011" lon="2.2523594">
        <ele>172</ele>
        <time>2022-06-09T09:33:24Z</time>
      </trkpt>
      <trkpt lat="47.560112" lon="2.252371">
        <ele>173</ele>
        <time>2022-06-09T09:33:25Z</time>
      </trkpt>
      <trkpt lat="47.56012" lon="2.2523785">
        <ele>173</ele>
        <time>2022-06-09T09:33:26Z</time>
      </trkpt>
      <trkpt lat="47.56013" lon="2.2523894">
        <ele>173</ele>
        <time>2022-06-09T09:33:27Z</time>
      </trkpt>
      <trkpt lat="47.560143" lon="2.2524054">
        <ele>172</ele>
        <time>2022-06-09T09:33:28Z</time>
      </trkpt>
      <trkpt lat="47.560154" lon="2.252418">
        <ele>172</ele>
        <time>2022-06-09T09:33:29Z</time>
      </trkpt>
      <trkpt lat="47.56016" lon="2.2524328">
        <ele>172</ele>
        <time>2022-06-09T09:33:30Z</time>
      </trkpt>
      <trkpt lat="47.560173" lon="2.2524455">
        <ele>172</ele>
        <time>2022-06-09T09:33:31Z</time>
      </trkpt>
      <trkpt lat="47.56018" lon="2.2524598">
        <ele>173</ele>
        <time>2022-06-09T09:33:32Z</time>
      </trkpt>
      <trkpt lat="47.56019" lon="2.2524734">
        <ele>173</ele>
        <time>2022-06-09T09:33:33Z</time>
      </trkpt>
      <trkpt lat="47.560196" lon="2.2524872">
        <ele>173</ele>
        <time>2022-06-09T09:33:34Z</time>
      </trkpt>
      <trkpt lat="47.560204" lon="2.2525034">
        <ele>173</ele>
        <time>2022-06-09T09:33:35Z</time>
      </trkpt>
      <trkpt lat="47.56021" lon="2.2525158">
        <ele>173</ele>
        <time>2022-06-09T09:33:36Z</time>
      </trkpt>
      <trkpt lat="47.56022" lon="2.2525308">
        <ele>173</ele>
        <time>2022-06-09T09:33:37Z</time>
      </trkpt>
      <trkpt lat="47.560226" lon="2.252545">
        <ele>173</ele>
        <time>2022-06-09T09:33:38Z</time>
      </trkpt>
      <trkpt lat="47.560238" lon="2.2525578">
        <ele>173</ele>
        <time>2022-06-09T09:33:39Z</time>
      </trkpt>
      <trkpt lat="47.560246" lon="2.2525656">
        <ele>174</ele>
        <time>2022-06-09T09:33:40Z</time>
      </trkpt>
      <trkpt lat="47.560253" lon="2.252579">
        <ele>174</ele>
        <time>2022-06-09T09:33:41Z</time>
      </trkpt>
      <trkpt lat="47.56026" lon="2.252593">
        <ele>174</ele>
        <time>2022-06-09T09:33:42Z</time>
      </trkpt>
      <trkpt lat="47.56027" lon="2.252608">
        <ele>174</ele>
        <time>2022-06-09T09:33:43Z</time>
      </trkpt>
      <trkpt lat="47.560276" lon="2.2526236">
        <ele>174</ele>
        <time>2022-06-09T09:33:44Z</time>
      </trkpt>
      <trkpt lat="47.560284" lon="2.2526367">
        <ele>174</ele>
        <time>2022-06-09T09:33:45Z</time>
      </trkpt>
      <trkpt lat="47.560295" lon="2.252652">
        <ele>174</ele>
        <time>2022-06-09T09:33:46Z</time>
      </trkpt>
      <trkpt lat="47.560303" lon="2.2526665">
        <ele>174</ele>
        <time>2022-06-09T09:33:47Z</time>
      </trkpt>
      <trkpt lat="47.56031" lon="2.2526774">
        <ele>174</ele>
        <time>2022-06-09T09:33:48Z</time>
      </trkpt>
      <trkpt lat="47.560318" lon="2.2526884">
        <ele>173</ele>
        <time>2022-06-09T09:33:49Z</time>
      </trkpt>
      <trkpt lat="47.560326" lon="2.2527006">
        <ele>173</ele>
        <time>2022-06-09T09:33:50Z</time>
      </trkpt>
      <trkpt lat="47.560337" lon="2.2527168">
        <ele>173</ele>
        <time>2022-06-09T09:33:51Z</time>
      </trkpt>
      <trkpt lat="47.56034" lon="2.252734">
        <ele>173</ele>
        <time>2022-06-09T09:33:52Z</time>
      </trkpt>
      <trkpt lat="47.56035" lon="2.2527518">
        <ele>173</ele>
        <time>2022-06-09T09:33:53Z</time>
      </trkpt>
      <trkpt lat="47.560356" lon="2.2527676">
        <ele>174</ele>
        <time>2022-06-09T09:33:54Z</time>
      </trkpt>
      <trkpt lat="47.560364" lon="2.252785">
        <ele>175</ele>
        <time>2022-06-09T09:33:55Z</time>
      </trkpt>
      <trkpt lat="47.56037" lon="2.2527978">
        <ele>174</ele>
        <time>2022-06-09T09:33:56Z</time>
      </trkpt>
      <trkpt lat="47.560375" lon="2.2528124">
        <ele>174</ele>
        <time>2022-06-09T09:33:57Z</time>
      </trkpt>
      <trkpt lat="47.560375" lon="2.2528272">
        <ele>174</ele>
        <time>2022-06-09T09:33:58Z</time>
      </trkpt>
      <trkpt lat="47.560383" lon="2.2528427">
        <ele>174</ele>
        <time>2022-06-09T09:33:59Z</time>
      </trkpt>
      <trkpt lat="47.56039" lon="2.2528596">
        <ele>174</ele>
        <time>2022-06-09T09:34:00Z</time>
      </trkpt>
      <trkpt lat="47.5604" lon="2.2528725">
        <ele>174</ele>
        <time>2022-06-09T09:34:01Z</time>
      </trkpt>
      <trkpt lat="47.560402" lon="2.2528882">
        <ele>174</ele>
        <time>2022-06-09T09:34:02Z</time>
      </trkpt>
      <trkpt lat="47.560406" lon="2.252905">
        <ele>175</ele>
        <time>2022-06-09T09:34:03Z</time>
      </trkpt>
      <trkpt lat="47.560413" lon="2.2529225">
        <ele>175</ele>
        <time>2022-06-09T09:34:04Z</time>
      </trkpt>
      <trkpt lat="47.56042" lon="2.2529397">
        <ele>176</ele>
        <time>2022-06-09T09:34:05Z</time>
      </trkpt>
      <trkpt lat="47.56043" lon="2.252956">
        <ele>176</ele>
        <time>2022-06-09T09:34:06Z</time>
      </trkpt>
      <trkpt lat="47.560436" lon="2.2529678">
        <ele>176</ele>
        <time>2022-06-09T09:34:07Z</time>
      </trkpt>
      <trkpt lat="47.56044" lon="2.252983">
        <ele>175</ele>
        <time>2022-06-09T09:34:08Z</time>
      </trkpt>
      <trkpt lat="47.560448" lon="2.252997">
        <ele>175</ele>
        <time>2022-06-09T09:34:09Z</time>
      </trkpt>
      <trkpt lat="47.56045" lon="2.25301">
        <ele>176</ele>
        <time>2022-06-09T09:34:10Z</time>
      </trkpt>
      <trkpt lat="47.560455" lon="2.2530189">
        <ele>176</ele>
        <time>2022-06-09T09:34:11Z</time>
      </trkpt>
      <trkpt lat="47.56046" lon="2.253029">
        <ele>176</ele>
        <time>2022-06-09T09:34:12Z</time>
      </trkpt>
      <trkpt lat="47.560463" lon="2.253044">
        <ele>176</ele>
        <time>2022-06-09T09:34:13Z</time>
      </trkpt>
      <trkpt lat="47.56047" lon="2.2530577">
        <ele>176</ele>
        <time>2022-06-09T09:34:14Z</time>
      </trkpt>
      <trkpt lat="47.560474" lon="2.2530706">
        <ele>176</ele>
        <time>2022-06-09T09:34:15Z</time>
      </trkpt>
      <trkpt lat="47.560486" lon="2.2530835">
        <ele>176</ele>
        <time>2022-06-09T09:34:16Z</time>
      </trkpt>
      <trkpt lat="47.56049" lon="2.2530994">
        <ele>176</ele>
        <time>2022-06-09T09:34:17Z</time>
      </trkpt>
      <trkpt lat="47.560493" lon="2.2531157">
        <ele>176</ele>
        <time>2022-06-09T09:34:18Z</time>
      </trkpt>
      <trkpt lat="47.560497" lon="2.2531328">
        <ele>175</ele>
        <time>2022-06-09T09:34:19Z</time>
      </trkpt>
      <trkpt lat="47.560497" lon="2.253152">
        <ele>175</ele>
        <time>2022-06-09T09:34:20Z</time>
      </trkpt>
      <trkpt lat="47.5605" lon="2.2531693">
        <ele>175</ele>
        <time>2022-06-09T09:34:21Z</time>
      </trkpt>
      <trkpt lat="47.560505" lon="2.253184">
        <ele>175</ele>
        <time>2022-06-09T09:34:22Z</time>
      </trkpt>
      <trkpt lat="47.560505" lon="2.2532017">
        <ele>175</ele>
        <time>2022-06-09T09:34:23Z</time>
      </trkpt>
      <trkpt lat="47.560505" lon="2.2532237">
        <ele>175</ele>
        <time>2022-06-09T09:34:24Z</time>
      </trkpt>
      <trkpt lat="47.560505" lon="2.2532454">
        <ele>175</ele>
        <time>2022-06-09T09:34:25Z</time>
      </trkpt>
      <trkpt lat="47.560505" lon="2.2532625">
        <ele>175</ele>
        <time>2022-06-09T09:34:26Z</time>
      </trkpt>
      <trkpt lat="47.56051" lon="2.2532835">
        <ele>175</ele>
        <time>2022-06-09T09:34:27Z</time>
      </trkpt>
      <trkpt lat="47.560513" lon="2.2533026">
        <ele>176</ele>
        <time>2022-06-09T09:34:28Z</time>
      </trkpt>
      <trkpt lat="47.560513" lon="2.2533176">
        <ele>176</ele>
        <time>2022-06-09T09:34:29Z</time>
      </trkpt>
      <trkpt lat="47.560513" lon="2.2533355">
        <ele>176</ele>
        <time>2022-06-09T09:34:30Z</time>
      </trkpt>
      <trkpt lat="47.560513" lon="2.2533536">
        <ele>176</ele>
        <time>2022-06-09T09:34:31Z</time>
      </trkpt>
      <trkpt lat="47.560513" lon="2.253367">
        <ele>176</ele>
        <time>2022-06-09T09:34:32Z</time>
      </trkpt>
      <trkpt lat="47.560513" lon="2.2533827">
        <ele>176</ele>
        <time>2022-06-09T09:34:33Z</time>
      </trkpt>
      <trkpt lat="47.560513" lon="2.253399">
        <ele>175</ele>
        <time>2022-06-09T09:34:34Z</time>
      </trkpt>
      <trkpt lat="47.56051" lon="2.2534173">
        <ele>175</ele>
        <time>2022-06-09T09:34:35Z</time>
      </trkpt>
      <trkpt lat="47.56051" lon="2.2534366">
        <ele>175</ele>
        <time>2022-06-09T09:34:36Z</time>
      </trkpt>
      <trkpt lat="47.560513" lon="2.2534564">
        <ele>174</ele>
        <time>2022-06-09T09:34:37Z</time>
      </trkpt>
      <trkpt lat="47.560513" lon="2.2534752">
        <ele>173</ele>
        <time>2022-06-09T09:34:38Z</time>
      </trkpt>
      <trkpt lat="47.560516" lon="2.2534938">
        <ele>174</ele>
        <time>2022-06-09T09:34:39Z</time>
      </trkpt>
      <trkpt lat="47.56052" lon="2.25351">
        <ele>173</ele>
        <time>2022-06-09T09:34:40Z</time>
      </trkpt>
      <trkpt lat="47.56052" lon="2.253533">
        <ele>173</ele>
        <time>2022-06-09T09:34:41Z</time>
      </trkpt>
      <trkpt lat="47.56052" lon="2.2535534">
        <ele>173</ele>
        <time>2022-06-09T09:34:42Z</time>
      </trkpt>
      <trkpt lat="47.560524" lon="2.2535756">
        <ele>173</ele>
        <time>2022-06-09T09:34:43Z</time>
      </trkpt>
      <trkpt lat="47.560524" lon="2.253591">
        <ele>173</ele>
        <time>2022-06-09T09:34:44Z</time>
      </trkpt>
      <trkpt lat="47.560528" lon="2.2536075">
        <ele>173</ele>
        <time>2022-06-09T09:34:45Z</time>
      </trkpt>
      <trkpt lat="47.56053" lon="2.2536216">
        <ele>173</ele>
        <time>2022-06-09T09:34:46Z</time>
      </trkpt>
      <trkpt lat="47.560535" lon="2.253634">
        <ele>173</ele>
        <time>2022-06-09T09:34:47Z</time>
      </trkpt>
      <trkpt lat="47.560535" lon="2.2536476">
        <ele>173</ele>
        <time>2022-06-09T09:34:48Z</time>
      </trkpt>
      <trkpt lat="47.560535" lon="2.2536604">
        <ele>173</ele>
        <time>2022-06-09T09:34:49Z</time>
      </trkpt>
      <trkpt lat="47.56054" lon="2.2536778">
        <ele>173</ele>
        <time>2022-06-09T09:34:50Z</time>
      </trkpt>
      <trkpt lat="47.56054" lon="2.2536929">
        <ele>173</ele>
        <time>2022-06-09T09:34:51Z</time>
      </trkpt>
      <trkpt lat="47.560547" lon="2.2537117">
        <ele>173</ele>
        <time>2022-06-09T09:34:52Z</time>
      </trkpt>
      <trkpt lat="47.560547" lon="2.2537303">
        <ele>173</ele>
        <time>2022-06-09T09:34:53Z</time>
      </trkpt>
      <trkpt lat="47.56055" lon="2.2537475">
        <ele>172</ele>
        <time>2022-06-09T09:34:54Z</time>
      </trkpt>
      <trkpt lat="47.56056" lon="2.2537694">
        <ele>172</ele>
        <time>2022-06-09T09:34:55Z</time>
      </trkpt>
      <trkpt lat="47.56056" lon="2.2537816">
        <ele>172</ele>
        <time>2022-06-09T09:34:56Z</time>
      </trkpt>
      <trkpt lat="47.560562" lon="2.2537987">
        <ele>172</ele>
        <time>2022-06-09T09:34:57Z</time>
      </trkpt>
      <trkpt lat="47.560562" lon="2.2538183">
        <ele>172</ele>
        <time>2022-06-09T09:34:58Z</time>
      </trkpt>
      <trkpt lat="47.560562" lon="2.2538416">
        <ele>172</ele>
        <time>2022-06-09T09:34:59Z</time>
      </trkpt>
      <trkpt lat="47.56056" lon="2.2538593">
        <ele>172</ele>
        <time>2022-06-09T09:35:00Z</time>
      </trkpt>
      <trkpt lat="47.560562" lon="2.2538776">
        <ele>172</ele>
        <time>2022-06-09T09:35:01Z</time>
      </trkpt>
      <trkpt lat="47.56056" lon="2.2538922">
        <ele>172</ele>
        <time>2022-06-09T09:35:02Z</time>
      </trkpt>
      <trkpt lat="47.56056" lon="2.2539065">
        <ele>172</ele>
        <time>2022-06-09T09:35:03Z</time>
      </trkpt>
      <trkpt lat="47.560562" lon="2.253924">
        <ele>172</ele>
        <time>2022-06-09T09:35:04Z</time>
      </trkpt>
      <trkpt lat="47.560562" lon="2.2539396">
        <ele>172</ele>
        <time>2022-06-09T09:35:05Z</time>
      </trkpt>
      <trkpt lat="47.560566" lon="2.2539597">
        <ele>173</ele>
        <time>2022-06-09T09:35:06Z</time>
      </trkpt>
      <trkpt lat="47.56057" lon="2.253976">
        <ele>173</ele>
        <time>2022-06-09T09:35:07Z</time>
      </trkpt>
      <trkpt lat="47.560574" lon="2.2539935">
        <ele>173</ele>
        <time>2022-06-09T09:35:08Z</time>
      </trkpt>
      <trkpt lat="47.560574" lon="2.2540064">
        <ele>172</ele>
        <time>2022-06-09T09:35:09Z</time>
      </trkpt>
      <trkpt lat="47.560577" lon="2.2540243">
        <ele>172</ele>
        <time>2022-06-09T09:35:10Z</time>
      </trkpt>
      <trkpt lat="47.56058" lon="2.2540393">
        <ele>172</ele>
        <time>2022-06-09T09:35:11Z</time>
      </trkpt>
      <trkpt lat="47.56058" lon="2.2540562">
        <ele>172</ele>
        <time>2022-06-09T09:35:12Z</time>
      </trkpt>
      <trkpt lat="47.56058" lon="2.2540746">
        <ele>173</ele>
        <time>2022-06-09T09:35:13Z</time>
      </trkpt>
      <trkpt lat="47.56058" lon="2.2540894">
        <ele>173</ele>
        <time>2022-06-09T09:35:14Z</time>
      </trkpt>
      <trkpt lat="47.560585" lon="2.254105">
        <ele>173</ele>
        <time>2022-06-09T09:35:15Z</time>
      </trkpt>
      <trkpt lat="47.56059" lon="2.254121">
        <ele>173</ele>
        <time>2022-06-09T09:35:16Z</time>
      </trkpt>
      <trkpt lat="47.56059" lon="2.254139">
        <ele>173</ele>
        <time>2022-06-09T09:35:17Z</time>
      </trkpt>
      <trkpt lat="47.56059" lon="2.254153">
        <ele>173</ele>
        <time>2022-06-09T09:35:18Z</time>
      </trkpt>
      <trkpt lat="47.560593" lon="2.2541628">
        <ele>172</ele>
        <time>2022-06-09T09:35:19Z</time>
      </trkpt>
      <trkpt lat="47.560596" lon="2.2541783">
        <ele>172</ele>
        <time>2022-06-09T09:35:20Z</time>
      </trkpt>
      <trkpt lat="47.560596" lon="2.254197">
        <ele>172</ele>
        <time>2022-06-09T09:35:21Z</time>
      </trkpt>
      <trkpt lat="47.5606" lon="2.254212">
        <ele>172</ele>
        <time>2022-06-09T09:35:22Z</time>
      </trkpt>
      <trkpt lat="47.5606" lon="2.254228">
        <ele>172</ele>
        <time>2022-06-09T09:35:23Z</time>
      </trkpt>
      <trkpt lat="47.560604" lon="2.2542474">
        <ele>172</ele>
        <time>2022-06-09T09:35:24Z</time>
      </trkpt>
      <trkpt lat="47.560608" lon="2.254268">
        <ele>172</ele>
        <time>2022-06-09T09:35:25Z</time>
      </trkpt>
      <trkpt lat="47.560608" lon="2.2542825">
        <ele>172</ele>
        <time>2022-06-09T09:35:26Z</time>
      </trkpt>
      <trkpt lat="47.560608" lon="2.2542968">
        <ele>172</ele>
        <time>2022-06-09T09:35:27Z</time>
      </trkpt>
      <trkpt lat="47.560608" lon="2.2543101">
        <ele>172</ele>
        <time>2022-06-09T09:35:28Z</time>
      </trkpt>
      <trkpt lat="47.560604" lon="2.2543259">
        <ele>171</ele>
        <time>2022-06-09T09:35:29Z</time>
      </trkpt>
      <trkpt lat="47.560608" lon="2.2543411">
        <ele>171</ele>
        <time>2022-06-09T09:35:30Z</time>
      </trkpt>
      <trkpt lat="47.560608" lon="2.2543538">
        <ele>171</ele>
        <time>2022-06-09T09:35:31Z</time>
      </trkpt>
      <trkpt lat="47.56061" lon="2.2543705">
        <ele>172</ele>
        <time>2022-06-09T09:35:32Z</time>
      </trkpt>
      <trkpt lat="47.56061" lon="2.2543876">
        <ele>172</ele>
        <time>2022-06-09T09:35:33Z</time>
      </trkpt>
      <trkpt lat="47.56061" lon="2.2544074">
        <ele>171</ele>
        <time>2022-06-09T09:35:34Z</time>
      </trkpt>
      <trkpt lat="47.56061" lon="2.2544243">
        <ele>171</ele>
        <time>2022-06-09T09:35:35Z</time>
      </trkpt>
      <trkpt lat="47.560616" lon="2.2544389">
        <ele>171</ele>
        <time>2022-06-09T09:35:36Z</time>
      </trkpt>
      <trkpt lat="47.560616" lon="2.254451">
        <ele>172</ele>
        <time>2022-06-09T09:35:37Z</time>
      </trkpt>
      <trkpt lat="47.56061" lon="2.2544641">
        <ele>172</ele>
        <time>2022-06-09T09:35:38Z</time>
      </trkpt>
      <trkpt lat="47.56061" lon="2.2544746">
        <ele>172</ele>
        <time>2022-06-09T09:35:39Z</time>
      </trkpt>
      <trkpt lat="47.56061" lon="2.254495">
        <ele>172</ele>
        <time>2022-06-09T09:35:40Z</time>
      </trkpt>
      <trkpt lat="47.560616" lon="2.254511">
        <ele>172</ele>
        <time>2022-06-09T09:35:41Z</time>
      </trkpt>
      <trkpt lat="47.56062" lon="2.2545297">
        <ele>172</ele>
        <time>2022-06-09T09:35:42Z</time>
      </trkpt>
      <trkpt lat="47.56062" lon="2.2545433">
        <ele>172</ele>
        <time>2022-06-09T09:35:43Z</time>
      </trkpt>
      <trkpt lat="47.560616" lon="2.2545602">
        <ele>172</ele>
        <time>2022-06-09T09:35:44Z</time>
      </trkpt>
      <trkpt lat="47.56061" lon="2.2545733">
        <ele>173</ele>
        <time>2022-06-09T09:35:45Z</time>
      </trkpt>
      <trkpt lat="47.56061" lon="2.2545853">
        <ele>172</ele>
        <time>2022-06-09T09:35:46Z</time>
      </trkpt>
      <trkpt lat="47.560608" lon="2.254601">
        <ele>172</ele>
        <time>2022-06-09T09:35:47Z</time>
      </trkpt>
      <trkpt lat="47.560608" lon="2.2546167">
        <ele>173</ele>
        <time>2022-06-09T09:35:48Z</time>
      </trkpt>
      <trkpt lat="47.560608" lon="2.2546344">
        <ele>173</ele>
        <time>2022-06-09T09:35:49Z</time>
      </trkpt>
      <trkpt lat="47.560604" lon="2.2546494">
        <ele>173</ele>
        <time>2022-06-09T09:35:50Z</time>
      </trkpt>
      <trkpt lat="47.560604" lon="2.2546666">
        <ele>173</ele>
        <time>2022-06-09T09:35:51Z</time>
      </trkpt>
      <trkpt lat="47.560604" lon="2.2546833">
        <ele>172</ele>
        <time>2022-06-09T09:35:52Z</time>
      </trkpt>
      <trkpt lat="47.560604" lon="2.2546992">
        <ele>172</ele>
        <time>2022-06-09T09:35:53Z</time>
      </trkpt>
      <trkpt lat="47.5606" lon="2.254717">
        <ele>172</ele>
        <time>2022-06-09T09:35:54Z</time>
      </trkpt>
      <trkpt lat="47.560593" lon="2.2547343">
        <ele>172</ele>
        <time>2022-06-09T09:35:55Z</time>
      </trkpt>
      <trkpt lat="47.56059" lon="2.2547438">
        <ele>171</ele>
        <time>2022-06-09T09:35:56Z</time>
      </trkpt>
      <trkpt lat="47.560577" lon="2.2547555">
        <ele>171</ele>
        <time>2022-06-09T09:35:57Z</time>
      </trkpt>
      <trkpt lat="47.56057" lon="2.2547688">
        <ele>171</ele>
        <time>2022-06-09T09:35:58Z</time>
      </trkpt>
      <trkpt lat="47.560566" lon="2.2547853">
        <ele>171</ele>
        <time>2022-06-09T09:35:59Z</time>
      </trkpt>
      <trkpt lat="47.560566" lon="2.254801">
        <ele>170</ele>
        <time>2022-06-09T09:36:00Z</time>
      </trkpt>
      <trkpt lat="47.560562" lon="2.2548132">
        <ele>170</ele>
        <time>2022-06-09T09:36:01Z</time>
      </trkpt>
      <trkpt lat="47.56056" lon="2.2548215">
        <ele>170</ele>
        <time>2022-06-09T09:36:02Z</time>
      </trkpt>
      <trkpt lat="47.56056" lon="2.2548354">
        <ele>170</ele>
        <time>2022-06-09T09:36:03Z</time>
      </trkpt>
      <trkpt lat="47.560562" lon="2.2548523">
        <ele>169</ele>
        <time>2022-06-09T09:36:04Z</time>
      </trkpt>
      <trkpt lat="47.560562" lon="2.2548704">
        <ele>169</ele>
        <time>2022-06-09T09:36:05Z</time>
      </trkpt>
      <trkpt lat="47.560562" lon="2.2548845">
        <ele>170</ele>
        <time>2022-06-09T09:36:06Z</time>
      </trkpt>
      <trkpt lat="47.56056" lon="2.2548957">
        <ele>171</ele>
        <time>2022-06-09T09:36:07Z</time>
      </trkpt>
      <trkpt lat="47.56056" lon="2.2549095">
        <ele>171</ele>
        <time>2022-06-09T09:36:08Z</time>
      </trkpt>
      <trkpt lat="47.56056" lon="2.2549202">
        <ele>171</ele>
        <time>2022-06-09T09:36:09Z</time>
      </trkpt>
      <trkpt lat="47.56056" lon="2.2549188">
        <ele>171</ele>
        <time>2022-06-09T09:36:10Z</time>
      </trkpt>
      <trkpt lat="47.56056" lon="2.2549179">
        <ele>171</ele>
        <time>2022-06-09T09:36:11Z</time>
      </trkpt>
      <trkpt lat="47.56056" lon="2.2549174">
        <ele>171</ele>
        <time>2022-06-09T09:36:12Z</time>
      </trkpt>
      <trkpt lat="47.56056" lon="2.2549174">
        <ele>171</ele>
        <time>2022-06-09T09:36:12Z</time>
      </trkpt>
      <trkpt lat="47.56056" lon="2.2549174">
        <ele>171</ele>
        <time>2022-06-09T09:36:12Z</time>
      </trkpt>
      <trkpt lat="47.56057" lon="2.254953">
        <ele>175</ele>
        <time>2022-06-09T09:36:20Z</time>
      </trkpt>
      <trkpt lat="47.560577" lon="2.2549534">
        <ele>175</ele>
        <time>2022-06-09T09:36:21Z</time>
      </trkpt>
      <trkpt lat="47.56058" lon="2.254957">
        <ele>175</ele>
        <time>2022-06-09T09:36:22Z</time>
      </trkpt>
      <trkpt lat="47.560585" lon="2.2549632">
        <ele>174</ele>
        <time>2022-06-09T09:36:23Z</time>
      </trkpt>
      <trkpt lat="47.56059" lon="2.254968">
        <ele>174</ele>
        <time>2022-06-09T09:36:24Z</time>
      </trkpt>
      <trkpt lat="47.56059" lon="2.2549782">
        <ele>174</ele>
        <time>2022-06-09T09:36:25Z</time>
      </trkpt>
      <trkpt lat="47.56059" lon="2.2549896">
        <ele>175</ele>
        <time>2022-06-09T09:36:26Z</time>
      </trkpt>
      <trkpt lat="47.560585" lon="2.2550008">
        <ele>175</ele>
        <time>2022-06-09T09:36:27Z</time>
      </trkpt>
      <trkpt lat="47.56059" lon="2.2550094">
        <ele>175</ele>
        <time>2022-06-09T09:36:28Z</time>
      </trkpt>
      <trkpt lat="47.560585" lon="2.2550108">
        <ele>175</ele>
        <time>2022-06-09T09:36:29Z</time>
      </trkpt>
      <trkpt lat="47.560585" lon="2.255017">
        <ele>174</ele>
        <time>2022-06-09T09:36:30Z</time>
      </trkpt>
      <trkpt lat="47.56059" lon="2.2550216">
        <ele>175</ele>
        <time>2022-06-09T09:36:31Z</time>
      </trkpt>
      <trkpt lat="47.56059" lon="2.255021">
        <ele>176</ele>
        <time>2022-06-09T09:36:32Z</time>
      </trkpt>
      <trkpt lat="47.56059" lon="2.255021">
        <ele>176</ele>
        <time>2022-06-09T09:36:33Z</time>
      </trkpt>
      <trkpt lat="47.56059" lon="2.255021">
        <ele>176</ele>
        <time>2022-06-09T09:36:34Z</time>
      </trkpt>
      <trkpt lat="47.56059" lon="2.255021">
        <ele>176</ele>
        <time>2022-06-09T09:36:34Z</time>
      </trkpt>
      <trkpt lat="47.56059" lon="2.255021">
        <ele>176</ele>
        <time>2022-06-09T09:36:34Z</time>
      </trkpt>
    </trkseg>
  </trk>
</gpx>